<?xml version='1.0' encoding='UTF-8'?><gpx version="1.1" creator="JPX - https://github.com/jenetics/jpx" xmlns="http://www.topografix.com/GPX/1/1"><trk><trkseg><trkpt lat="42.26568202903936" lon="2.980296767653936"><ele>22.0</ele><time>2026-04-22T07:21:38Z</time></trkpt><trkpt lat="42.26574840536845" lon="2.980290376754174"><ele>22.0</ele><time>2026-04-22T07:21:39Z</time></trkpt><trkpt lat="42.26585840875858" lon="2.9802812347513377"><ele>22.0</ele><time>2026-04-22T07:21:41Z</time></trkpt><trkpt lat="42.26595052498722" lon="2.9804331375090585"><ele>22.0</ele><time>2026-04-22T07:21:43Z</time></trkpt><trkpt lat="42.26597254737795" lon="2.9805537901743477"><ele>22.0</ele><time>2026-04-22T07:21:44Z</time></trkpt><trkpt lat="42.26599004957951" lon="2.980666406859938"><ele>22.0</ele><time>2026-04-22T07:21:45Z</time></trkpt><trkpt lat="42.26602396636463" lon="2.980817792786125"><ele>22.0</ele><time>2026-04-22T07:21:46Z</time></trkpt><trkpt lat="42.26605019825022" lon="2.9809402774763907"><ele>22.0</ele><time>2026-04-22T07:21:47Z</time></trkpt><trkpt lat="42.26607742508948" lon="2.981067165993368"><ele>22.0</ele><time>2026-04-22T07:21:48Z</time></trkpt><trkpt lat="42.26610531505516" lon="2.9812176163408663"><ele>22.0</ele><time>2026-04-22T07:21:50Z</time></trkpt><trkpt lat="42.266104749268266" lon="2.981350558893284"><ele>22.25</ele><time>2026-04-22T07:21:53Z</time></trkpt><trkpt lat="42.2661192033947" lon="2.981433599935558"><ele>22.5</ele><time>2026-04-22T07:21:54Z</time></trkpt><trkpt lat="42.266145416183505" lon="2.981574733290317"><ele>22.75</ele><time>2026-04-22T07:21:56Z</time></trkpt><trkpt lat="42.26633234830197" lon="2.9815256645914556"><ele>23.0</ele><time>2026-04-22T07:21:58Z</time></trkpt><trkpt lat="42.26643342440907" lon="2.981489246241339"><ele>22.5</ele><time>2026-04-22T07:22:00Z</time></trkpt><trkpt lat="42.26650942819764" lon="2.98150040454878"><ele>22.0</ele><time>2026-04-22T07:22:02Z</time></trkpt><trkpt lat="42.26659349779343" lon="2.9814913232624494"><ele>21.5</ele><time>2026-04-22T07:22:03.999Z</time></trkpt><trkpt lat="42.266707642054996" lon="2.9815237457347785"><ele>21.0</ele><time>2026-04-22T07:22:06.999Z</time></trkpt><trkpt lat="42.26677854847928" lon="2.981574352892428"><ele>20.5</ele><time>2026-04-22T07:22:07.999Z</time></trkpt><trkpt lat="42.26684149455369" lon="2.9816002449312027"><ele>20.0</ele><time>2026-04-22T07:22:08.999Z</time></trkpt><trkpt lat="42.266908720403535" lon="2.9815841589897047"><ele>20.0</ele><time>2026-04-22T07:22:09.999Z</time></trkpt><trkpt lat="42.26696527519329" lon="2.981535483975231"><ele>20.0</ele><time>2026-04-22T07:22:10.999Z</time></trkpt><trkpt lat="42.26698851002423" lon="2.9814493971420335"><ele>20.0</ele><time>2026-04-22T07:22:11.999Z</time></trkpt><trkpt lat="42.26699207171473" lon="2.981354354717624"><ele>20.0</ele><time>2026-04-22T07:22:12.999Z</time></trkpt><trkpt lat="42.26696114949592" lon="2.981257551477939"><ele>20.0</ele><time>2026-04-22T07:22:13.999Z</time></trkpt><trkpt lat="42.26691093337547" lon="2.9811527093043355"><ele>20.0</ele><time>2026-04-22T07:22:14.999Z</time></trkpt><trkpt lat="42.266880794720265" lon="2.9810234742091244"><ele>20.0</ele><time>2026-04-22T07:22:15.999Z</time></trkpt><trkpt lat="42.26686190674925" lon="2.980878961927449"><ele>20.0</ele><time>2026-04-22T07:22:16.999Z</time></trkpt><trkpt lat="42.26685130893652" lon="2.9807274790624847"><ele>20.0</ele><time>2026-04-22T07:22:17.999Z</time></trkpt><trkpt lat="42.26684203038618" lon="2.9805797169822448"><ele>20.0</ele><time>2026-04-22T07:22:18.999Z</time></trkpt><trkpt lat="42.266835385072106" lon="2.9804329099423286"><ele>20.0</ele><time>2026-04-22T07:22:19.999Z</time></trkpt><trkpt lat="42.266825431057825" lon="2.980288317924758"><ele>20.0</ele><time>2026-04-22T07:22:20.999Z</time></trkpt><trkpt lat="42.26681808068202" lon="2.980158495156846"><ele>20.0</ele><time>2026-04-22T07:22:21.999Z</time></trkpt><trkpt lat="42.2668140964009" lon="2.9800286896371735"><ele>20.0</ele><time>2026-04-22T07:22:22.999Z</time></trkpt><trkpt lat="42.26680726452617" lon="2.979905188112042"><ele>20.0</ele><time>2026-04-22T07:22:23.999Z</time></trkpt><trkpt lat="42.26680204298612" lon="2.9797816830512995"><ele>20.0</ele><time>2026-04-22T07:22:24.999Z</time></trkpt><trkpt lat="42.2667947786496" lon="2.9796497738397734"><ele>19.6</ele><time>2026-04-22T07:22:25.999Z</time></trkpt><trkpt lat="42.26678929109774" lon="2.9795316344210976"><ele>19.2</ele><time>2026-04-22T07:22:26.999Z</time></trkpt><trkpt lat="42.26678790049057" lon="2.9793999638547333"><ele>18.8</ele><time>2026-04-22T07:22:27.999Z</time></trkpt><trkpt lat="42.26677745861623" lon="2.979259906775744"><ele>18.4</ele><time>2026-04-22T07:22:28.999Z</time></trkpt><trkpt lat="42.266777625714205" lon="2.9791272786040937"><ele>18.0</ele><time>2026-04-22T07:22:29.999Z</time></trkpt><trkpt lat="42.26677246780178" lon="2.9789957893657473"><ele>18.0</ele><time>2026-04-22T07:22:30.999Z</time></trkpt><trkpt lat="42.266764446313175" lon="2.9788741041886815"><ele>18.0</ele><time>2026-04-22T07:22:31.999Z</time></trkpt><trkpt lat="42.26677501608148" lon="2.978771499261869"><ele>18.0</ele><time>2026-04-22T07:22:32.999Z</time></trkpt><trkpt lat="42.26677521512588" lon="2.978648590502955"><ele>18.0</ele><time>2026-04-22T07:22:33.999Z</time></trkpt><trkpt lat="42.26677109889419" lon="2.9785291176802753"><ele>18.0</ele><time>2026-04-22T07:22:34.999Z</time></trkpt><trkpt lat="42.2667555748424" lon="2.978403637255593"><ele>18.0</ele><time>2026-04-22T07:22:35.999Z</time></trkpt><trkpt lat="42.26674722923757" lon="2.9782833242018905"><ele>18.5</ele><time>2026-04-22T07:22:36.999Z</time></trkpt><trkpt lat="42.26674446724165" lon="2.9781546614674403"><ele>19.0</ele><time>2026-04-22T07:22:37.999Z</time></trkpt><trkpt lat="42.266742926278205" lon="2.978040371164006"><ele>19.5</ele><time>2026-04-22T07:22:38.999Z</time></trkpt><trkpt lat="42.266743985526894" lon="2.9779394283392553"><ele>20.0</ele><time>2026-04-22T07:22:39.999Z</time></trkpt><trkpt lat="42.26673947931671" lon="2.9778440649589073"><ele>20.5</ele><time>2026-04-22T07:22:40.999Z</time></trkpt><trkpt lat="42.266735050509475" lon="2.977750223507359"><ele>21.0</ele><time>2026-04-22T07:22:41.999Z</time></trkpt><trkpt lat="42.2667336510002" lon="2.977656790012995"><ele>21.0</ele><time>2026-04-22T07:22:42.999Z</time></trkpt><trkpt lat="42.26674691389182" lon="2.977558566157652"><ele>21.0</ele><time>2026-04-22T07:22:43.999Z</time></trkpt><trkpt lat="42.266776313997624" lon="2.9774620801877343"><ele>21.0</ele><time>2026-04-22T07:22:44.999Z</time></trkpt><trkpt lat="42.266835288220406" lon="2.9773526921776767"><ele>21.0</ele><time>2026-04-22T07:22:45.999Z</time></trkpt><trkpt lat="42.266901067614526" lon="2.977260591546346"><ele>21.0</ele><time>2026-04-22T07:22:46.999Z</time></trkpt><trkpt lat="42.266979777778786" lon="2.977215997869411"><ele>21.0</ele><time>2026-04-22T07:22:47.999Z</time></trkpt><trkpt lat="42.26706378548495" lon="2.9772058459287347"><ele>21.0</ele><time>2026-04-22T07:22:48.999Z</time></trkpt><trkpt lat="42.267177868177626" lon="2.97721131065797"><ele>21.0</ele><time>2026-04-22T07:22:49.999Z</time></trkpt><trkpt lat="42.267301816756444" lon="2.97719332404893"><ele>21.0</ele><time>2026-04-22T07:22:50.999Z</time></trkpt><trkpt lat="42.26741033731799" lon="2.977202490946382"><ele>21.0</ele><time>2026-04-22T07:22:51.999Z</time></trkpt><trkpt lat="42.26751082552703" lon="2.9772028020936565"><ele>21.0</ele><time>2026-04-22T07:22:52.999Z</time></trkpt><trkpt lat="42.26759913321022" lon="2.9772016676313395"><ele>21.0</ele><time>2026-04-22T07:22:53.999Z</time></trkpt><trkpt lat="42.267683094426744" lon="2.977203732078697"><ele>21.0</ele><time>2026-04-22T07:22:54.999Z</time></trkpt><trkpt lat="42.26777019397676" lon="2.9772048285735035"><ele>21.0</ele><time>2026-04-22T07:22:55.999Z</time></trkpt><trkpt lat="42.26786311040549" lon="2.9772069724261647"><ele>21.0</ele><time>2026-04-22T07:22:56.999Z</time></trkpt><trkpt lat="42.26795269415292" lon="2.977209289996056"><ele>21.0</ele><time>2026-04-22T07:22:57.999Z</time></trkpt><trkpt lat="42.268045750539606" lon="2.9772112644281385"><ele>21.0</ele><time>2026-04-22T07:22:58.999Z</time></trkpt><trkpt lat="42.268142089999415" lon="2.9772146791850123"><ele>21.0</ele><time>2026-04-22T07:22:59.999Z</time></trkpt><trkpt lat="42.26824028616335" lon="2.9772232120325706"><ele>21.0</ele><time>2026-04-22T07:23:00.999Z</time></trkpt><trkpt lat="42.26833643080495" lon="2.9772212697999008"><ele>21.0</ele><time>2026-04-22T07:23:01.999Z</time></trkpt><trkpt lat="42.268427309614594" lon="2.9772268606081207"><ele>21.0</ele><time>2026-04-22T07:23:02.999Z</time></trkpt><trkpt lat="42.26851224749311" lon="2.9772307920298915"><ele>21.0</ele><time>2026-04-22T07:23:03.999Z</time></trkpt><trkpt lat="42.26859500831647" lon="2.9772334432502614"><ele>21.0</ele><time>2026-04-22T07:23:04.999Z</time></trkpt><trkpt lat="42.268676999198995" lon="2.9772381628903704"><ele>21.0</ele><time>2026-04-22T07:23:05.998Z</time></trkpt><trkpt lat="42.26874988165353" lon="2.9772327771809133"><ele>21.0</ele><time>2026-04-22T07:23:06.998Z</time></trkpt><trkpt lat="42.26882103282291" lon="2.977237224824776"><ele>21.0</ele><time>2026-04-22T07:23:07.998Z</time></trkpt><trkpt lat="42.26889421423531" lon="2.977247511868987"><ele>21.0</ele><time>2026-04-22T07:23:08.998Z</time></trkpt><trkpt lat="42.268963851901226" lon="2.977251661430624"><ele>21.0</ele><time>2026-04-22T07:23:09.998Z</time></trkpt><trkpt lat="42.26903530260842" lon="2.9772551314924645"><ele>21.0</ele><time>2026-04-22T07:23:10.998Z</time></trkpt><trkpt lat="42.269106228489655" lon="2.977249953363041"><ele>20.857142857142858</ele><time>2026-04-22T07:23:11.998Z</time></trkpt><trkpt lat="42.269177823744656" lon="2.9772462414550507"><ele>20.714285714285715</ele><time>2026-04-22T07:23:12.998Z</time></trkpt><trkpt lat="42.269248096337755" lon="2.977252746008647"><ele>20.57142857142857</ele><time>2026-04-22T07:23:13.998Z</time></trkpt><trkpt lat="42.26931693040838" lon="2.9772581467885124"><ele>20.42857142857143</ele><time>2026-04-22T07:23:14.998Z</time></trkpt><trkpt lat="42.26938491756036" lon="2.9772787857769276"><ele>20.285714285714285</ele><time>2026-04-22T07:23:15.998Z</time></trkpt><trkpt lat="42.269455095850844" lon="2.9773194024600653"><ele>20.142857142857142</ele><time>2026-04-22T07:23:16.998Z</time></trkpt><trkpt lat="42.26952404349357" lon="2.977378694674064"><ele>20.0</ele><time>2026-04-22T07:23:17.998Z</time></trkpt><trkpt lat="42.26958678321245" lon="2.977441660188034"><ele>20.0</ele><time>2026-04-22T07:23:18.998Z</time></trkpt><trkpt lat="42.26966042181376" lon="2.9774792550259117"><ele>20.0</ele><time>2026-04-22T07:23:19.998Z</time></trkpt><trkpt lat="42.26974130845557" lon="2.9774688195983097"><ele>20.0</ele><time>2026-04-22T07:23:20.998Z</time></trkpt><trkpt lat="42.269800013392135" lon="2.977384960940856"><ele>20.0</ele><time>2026-04-22T07:23:21.998Z</time></trkpt><trkpt lat="42.26986159524877" lon="2.9773262913873153"><ele>20.0</ele><time>2026-04-22T07:23:22.998Z</time></trkpt><trkpt lat="42.26994010416442" lon="2.9773062825035703"><ele>20.0</ele><time>2026-04-22T07:23:24Z</time></trkpt><trkpt lat="42.27001388414407" lon="2.977279689527695"><ele>19.666666666666668</ele><time>2026-04-22T07:23:25Z</time></trkpt><trkpt lat="42.2700842766774" lon="2.977245515934089"><ele>19.333333333333336</ele><time>2026-04-22T07:23:26Z</time></trkpt><trkpt lat="42.27017015523831" lon="2.9772647841881477"><ele>19.0</ele><time>2026-04-22T07:23:27Z</time></trkpt><trkpt lat="42.27025498868628" lon="2.9772510378972057"><ele>18.666666666666668</ele><time>2026-04-22T07:23:28Z</time></trkpt><trkpt lat="42.270345293586644" lon="2.9772235297015643"><ele>18.333333333333332</ele><time>2026-04-22T07:23:29Z</time></trkpt><trkpt lat="42.27043394170036" lon="2.9771874746655054"><ele>18.0</ele><time>2026-04-22T07:23:30Z</time></trkpt><trkpt lat="42.27050966541506" lon="2.977151793193705"><ele>18.0</ele><time>2026-04-22T07:23:31Z</time></trkpt><trkpt lat="42.27057497482018" lon="2.9771193031521554"><ele>18.0</ele><time>2026-04-22T07:23:32Z</time></trkpt><trkpt lat="42.27063618578158" lon="2.9770863457384835"><ele>18.0</ele><time>2026-04-22T07:23:33Z</time></trkpt><trkpt lat="42.27070605761521" lon="2.977043708063457"><ele>18.0</ele><time>2026-04-22T07:23:34Z</time></trkpt><trkpt lat="42.270779452515086" lon="2.976990682216059"><ele>18.0</ele><time>2026-04-22T07:23:35Z</time></trkpt><trkpt lat="42.27085298371082" lon="2.9769287157417104"><ele>18.0</ele><time>2026-04-22T07:23:36Z</time></trkpt><trkpt lat="42.2709298885044" lon="2.9768590380623143"><ele>18.166666666666668</ele><time>2026-04-22T07:23:37Z</time></trkpt><trkpt lat="42.27100264467264" lon="2.9767875104056105"><ele>18.333333333333332</ele><time>2026-04-22T07:23:38Z</time></trkpt><trkpt lat="42.27107282804032" lon="2.9767114829298853"><ele>18.5</ele><time>2026-04-22T07:23:39Z</time></trkpt><trkpt lat="42.27113892807655" lon="2.976630286619015"><ele>18.666666666666664</ele><time>2026-04-22T07:23:40Z</time></trkpt><trkpt lat="42.27120218701295" lon="2.9765532262562333"><ele>18.833333333333332</ele><time>2026-04-22T07:23:41Z</time></trkpt><trkpt lat="42.2712730543693" lon="2.9764745365274514"><ele>19.0</ele><time>2026-04-22T07:23:42Z</time></trkpt><trkpt lat="42.271335867335" lon="2.976395627851922"><ele>19.0</ele><time>2026-04-22T07:23:43Z</time></trkpt><trkpt lat="42.27139787921463" lon="2.9763205267704684"><ele>19.0</ele><time>2026-04-22T07:23:44Z</time></trkpt><trkpt lat="42.271454750043304" lon="2.976251392140007"><ele>19.0</ele><time>2026-04-22T07:23:45Z</time></trkpt><trkpt lat="42.271510555918134" lon="2.9761861258069824"><ele>19.0</ele><time>2026-04-22T07:23:46Z</time></trkpt><trkpt lat="42.27156689359094" lon="2.9761223798797976"><ele>19.0</ele><time>2026-04-22T07:23:47Z</time></trkpt><trkpt lat="42.27162376194045" lon="2.9760541293371907"><ele>19.0</ele><time>2026-04-22T07:23:48Z</time></trkpt><trkpt lat="42.27168260947578" lon="2.975980611617985"><ele>19.166666666666664</ele><time>2026-04-22T07:23:49Z</time></trkpt><trkpt lat="42.27174501300315" lon="2.97590807125672"><ele>19.333333333333332</ele><time>2026-04-22T07:23:50Z</time></trkpt><trkpt lat="42.2718063582993" lon="2.9758335924073736"><ele>19.5</ele><time>2026-04-22T07:23:51Z</time></trkpt><trkpt lat="42.27186437917893" lon="2.975761425604598"><ele>19.666666666666668</ele><time>2026-04-22T07:23:52Z</time></trkpt><trkpt lat="42.2719230139067" lon="2.9756819911148304"><ele>19.833333333333336</ele><time>2026-04-22T07:23:53Z</time></trkpt><trkpt lat="42.271984889720336" lon="2.9756030697428035"><ele>20.0</ele><time>2026-04-22T07:23:54Z</time></trkpt><trkpt lat="42.2720493795761" lon="2.975528615608292"><ele>20.0</ele><time>2026-04-22T07:23:55Z</time></trkpt><trkpt lat="42.27210826973862" lon="2.975455356052926"><ele>20.0</ele><time>2026-04-22T07:23:56Z</time></trkpt><trkpt lat="42.27217806902812" lon="2.975388351911404"><ele>20.0</ele><time>2026-04-22T07:23:56.999Z</time></trkpt><trkpt lat="42.27225353818154" lon="2.9753470216845095"><ele>20.0</ele><time>2026-04-22T07:23:57.999Z</time></trkpt><trkpt lat="42.27233784639756" lon="2.9753585775628"><ele>20.0</ele><time>2026-04-22T07:23:58.999Z</time></trkpt><trkpt lat="42.2724173368422" lon="2.975424280548272"><ele>20.0</ele><time>2026-04-22T07:23:59.999Z</time></trkpt><trkpt lat="42.272490906469535" lon="2.9755456780285257"><ele>19.666666666666668</ele><time>2026-04-22T07:24:00.999Z</time></trkpt><trkpt lat="42.27252772263083" lon="2.9757391088019753"><ele>19.333333333333332</ele><time>2026-04-22T07:24:01.999Z</time></trkpt><trkpt lat="42.272604609130525" lon="2.9759459514897753"><ele>19.0</ele><time>2026-04-22T07:24:02.999Z</time></trkpt><trkpt lat="42.272694869336966" lon="2.9761697825489533"><ele>18.666666666666664</ele><time>2026-04-22T07:24:03.999Z</time></trkpt><trkpt lat="42.272787329135134" lon="2.976407752403838"><ele>18.333333333333332</ele><time>2026-04-22T07:24:04.999Z</time></trkpt><trkpt lat="42.2728947287648" lon="2.9766632401108426"><ele>18.0</ele><time>2026-04-22T07:24:05.999Z</time></trkpt><trkpt lat="42.27300356584382" lon="2.9769279903180976"><ele>18.5</ele><time>2026-04-22T07:24:06.999Z</time></trkpt><trkpt lat="42.27310960963964" lon="2.9772010839639487"><ele>19.0</ele><time>2026-04-22T07:24:07.999Z</time></trkpt><trkpt lat="42.27321688088951" lon="2.977482255527494"><ele>18.0</ele><time>2026-04-22T07:24:08.999Z</time></trkpt><trkpt lat="42.273329297476074" lon="2.9777676468687853"><ele>17.0</ele><time>2026-04-22T07:24:09.999Z</time></trkpt><trkpt lat="42.27344892214381" lon="2.9780636681709565"><ele>17.5</ele><time>2026-04-22T07:24:10.999Z</time></trkpt><trkpt lat="42.273565991763604" lon="2.97835708545081"><ele>18.0</ele><time>2026-04-22T07:24:11.999Z</time></trkpt><trkpt lat="42.27367815003863" lon="2.9786278153141876"><ele>18.0</ele><time>2026-04-22T07:24:12.999Z</time></trkpt><trkpt lat="42.2737832645024" lon="2.9788865408910192"><ele>18.0</ele><time>2026-04-22T07:24:13.999Z</time></trkpt><trkpt lat="42.27388803730657" lon="2.9791446252052602"><ele>18.0</ele><time>2026-04-22T07:24:14.999Z</time></trkpt><trkpt lat="42.27398649344305" lon="2.9793933260528087"><ele>18.333333333333332</ele><time>2026-04-22T07:24:15.999Z</time></trkpt><trkpt lat="42.274082324066455" lon="2.9796318294577233"><ele>18.666666666666664</ele><time>2026-04-22T07:24:16.999Z</time></trkpt><trkpt lat="42.274179192326656" lon="2.9798739267899554"><ele>19.0</ele><time>2026-04-22T07:24:17.999Z</time></trkpt><trkpt lat="42.27427523173216" lon="2.9801180631058615"><ele>19.0</ele><time>2026-04-22T07:24:18.999Z</time></trkpt><trkpt lat="42.27436982601084" lon="2.980363269519406"><ele>19.0</ele><time>2026-04-22T07:24:19.999Z</time></trkpt><trkpt lat="42.274470495814796" lon="2.9806181574160737"><ele>19.0</ele><time>2026-04-22T07:24:20.999Z</time></trkpt><trkpt lat="42.2745682220955" lon="2.980869680485349"><ele>19.0</ele><time>2026-04-22T07:24:21.999Z</time></trkpt><trkpt lat="42.27466716882723" lon="2.981122294356443"><ele>19.0</ele><time>2026-04-22T07:24:22.999Z</time></trkpt><trkpt lat="42.274768828688195" lon="2.981380735345781"><ele>19.0</ele><time>2026-04-22T07:24:23.999Z</time></trkpt><trkpt lat="42.27487331083054" lon="2.9816393371956518"><ele>20.0</ele><time>2026-04-22T07:24:24.999Z</time></trkpt><trkpt lat="42.27498410428315" lon="2.9819073955561555"><ele>21.0</ele><time>2026-04-22T07:24:25.999Z</time></trkpt><trkpt lat="42.275099368641946" lon="2.982184449615548"><ele>21.0</ele><time>2026-04-22T07:24:26.999Z</time></trkpt><trkpt lat="42.27521566297609" lon="2.98246503784868"><ele>21.0</ele><time>2026-04-22T07:24:27.999Z</time></trkpt><trkpt lat="42.275330204491084" lon="2.9827495328205433"><ele>20.666666666666668</ele><time>2026-04-22T07:24:28.999Z</time></trkpt><trkpt lat="42.27543347264329" lon="2.9830182653559776"><ele>20.333333333333336</ele><time>2026-04-22T07:24:29.999Z</time></trkpt><trkpt lat="42.27553714478207" lon="2.9832718862055265"><ele>20.0</ele><time>2026-04-22T07:24:30.999Z</time></trkpt><trkpt lat="42.275643508815115" lon="2.983529866902715"><ele>19.333333333333336</ele><time>2026-04-22T07:24:31.999Z</time></trkpt><trkpt lat="42.27574643930669" lon="2.983793412171128"><ele>18.666666666666668</ele><time>2026-04-22T07:24:32.999Z</time></trkpt><trkpt lat="42.27584789776159" lon="2.984053457553285"><ele>18.0</ele><time>2026-04-22T07:24:33.999Z</time></trkpt><trkpt lat="42.27595052749399" lon="2.9843154342799747"><ele>17.333333333333332</ele><time>2026-04-22T07:24:34.999Z</time></trkpt><trkpt lat="42.27605177873079" lon="2.984568387361216"><ele>16.666666666666664</ele><time>2026-04-22T07:24:35.999Z</time></trkpt><trkpt lat="42.27615583146809" lon="2.9848174145036435"><ele>16.0</ele><time>2026-04-22T07:24:36.999Z</time></trkpt><trkpt lat="42.276259286224736" lon="2.985059208535513"><ele>15.666666666666666</ele><time>2026-04-22T07:24:37.999Z</time></trkpt><trkpt lat="42.27635622635718" lon="2.985281333211696"><ele>15.333333333333332</ele><time>2026-04-22T07:24:38.999Z</time></trkpt><trkpt lat="42.27644645364425" lon="2.9855034187728773"><ele>15.0</ele><time>2026-04-22T07:24:39.999Z</time></trkpt><trkpt lat="42.27653611109082" lon="2.9857242957786023"><ele>15.666666666666668</ele><time>2026-04-22T07:24:40.999Z</time></trkpt><trkpt lat="42.27662181443193" lon="2.9859468839309558"><ele>16.333333333333336</ele><time>2026-04-22T07:24:41.999Z</time></trkpt><trkpt lat="42.27670930006788" lon="2.9861660988245258"><ele>17.0</ele><time>2026-04-22T07:24:42.999Z</time></trkpt><trkpt lat="42.276797365382244" lon="2.9863833674196916"><ele>17.0</ele><time>2026-04-22T07:24:43.999Z</time></trkpt><trkpt lat="42.276882369191505" lon="2.9865820601424047"><ele>17.0</ele><time>2026-04-22T07:24:44.999Z</time></trkpt><trkpt lat="42.27696258029396" lon="2.986774902740847"><ele>17.0</ele><time>2026-04-22T07:24:45.999Z</time></trkpt><trkpt lat="42.277038329524096" lon="2.9869554015108752"><ele>17.0</ele><time>2026-04-22T07:24:46.999Z</time></trkpt><trkpt lat="42.27709932410387" lon="2.9871139161132354"><ele>17.0</ele><time>2026-04-22T07:24:47.999Z</time></trkpt><trkpt lat="42.27714380704885" lon="2.9872782629129686"><ele>17.0</ele><time>2026-04-22T07:24:48.999Z</time></trkpt><trkpt lat="42.2771667277333" lon="2.9874452190912595"><ele>17.0</ele><time>2026-04-22T07:24:49.999Z</time></trkpt><trkpt lat="42.27716775138834" lon="2.987594943547732"><ele>16.666666666666668</ele><time>2026-04-22T07:24:50.999Z</time></trkpt><trkpt lat="42.277174465516644" lon="2.9877240502163565"><ele>16.333333333333336</ele><time>2026-04-22T07:24:51.999Z</time></trkpt><trkpt lat="42.2772203009136" lon="2.9878248928820863"><ele>16.0</ele><time>2026-04-22T07:24:52.999Z</time></trkpt><trkpt lat="42.27729514741672" lon="2.987884549357199"><ele>15.666666666666668</ele><time>2026-04-22T07:24:53.999Z</time></trkpt><trkpt lat="42.27737692077746" lon="2.987886787220145"><ele>15.333333333333334</ele><time>2026-04-22T07:24:54.999Z</time></trkpt><trkpt lat="42.277451132883336" lon="2.987833887877694"><ele>15.0</ele><time>2026-04-22T07:24:55.999Z</time></trkpt><trkpt lat="42.27750070264347" lon="2.9877417469226537"><ele>15.0</ele><time>2026-04-22T07:24:56.999Z</time></trkpt><trkpt lat="42.27755184397826" lon="2.9876371536894144"><ele>15.0</ele><time>2026-04-22T07:24:57.999Z</time></trkpt><trkpt lat="42.277634215654636" lon="2.987528681513513"><ele>15.0</ele><time>2026-04-22T07:24:58.999Z</time></trkpt><trkpt lat="42.27773290185075" lon="2.9874360601767913"><ele>15.0</ele><time>2026-04-22T07:24:59.999Z</time></trkpt><trkpt lat="42.27784026171369" lon="2.987362160737672"><ele>15.0</ele><time>2026-04-22T07:25:00.999Z</time></trkpt><trkpt lat="42.27795742079074" lon="2.987289105433353"><ele>15.0</ele><time>2026-04-22T07:25:01.999Z</time></trkpt><trkpt lat="42.27808316144452" lon="2.98720977043377"><ele>15.0</ele><time>2026-04-22T07:25:02.999Z</time></trkpt><trkpt lat="42.27821271891608" lon="2.9871253620489435"><ele>15.0</ele><time>2026-04-22T07:25:03.999Z</time></trkpt><trkpt lat="42.27834827347666" lon="2.9870398929362305"><ele>15.0</ele><time>2026-04-22T07:25:04.999Z</time></trkpt><trkpt lat="42.278485955389144" lon="2.986950557213449"><ele>15.0</ele><time>2026-04-22T07:25:05.999Z</time></trkpt><trkpt lat="42.2786212664217" lon="2.9868600609840072"><ele>15.0</ele><time>2026-04-22T07:25:06.998Z</time></trkpt><trkpt lat="42.27875653114815" lon="2.986770437152234"><ele>15.0</ele><time>2026-04-22T07:25:07.998Z</time></trkpt><trkpt lat="42.27889588387422" lon="2.986679152204694"><ele>15.25</ele><time>2026-04-22T07:25:08.998Z</time></trkpt><trkpt lat="42.279028510014854" lon="2.986592695530964"><ele>15.5</ele><time>2026-04-22T07:25:09.998Z</time></trkpt><trkpt lat="42.27915610305821" lon="2.9865090403666277"><ele>15.75</ele><time>2026-04-22T07:25:10.998Z</time></trkpt><trkpt lat="42.27928143315027" lon="2.9864243098417815"><ele>16.0</ele><time>2026-04-22T07:25:11.998Z</time></trkpt><trkpt lat="42.27940552209531" lon="2.9863401563003986"><ele>16.0</ele><time>2026-04-22T07:25:12.998Z</time></trkpt><trkpt lat="42.279518798221716" lon="2.9862583039635036"><ele>16.0</ele><time>2026-04-22T07:25:13.998Z</time></trkpt><trkpt lat="42.27961694286858" lon="2.986181369136455"><ele>16.0</ele><time>2026-04-22T07:25:14.998Z</time></trkpt><trkpt lat="42.2797077514108" lon="2.986113949493159"><ele>16.0</ele><time>2026-04-22T07:25:15.998Z</time></trkpt><trkpt lat="42.27979028335791" lon="2.9860541008717862"><ele>16.0</ele><time>2026-04-22T07:25:16.998Z</time></trkpt><trkpt lat="42.27986428712974" lon="2.9860018582677785"><ele>16.333333333333332</ele><time>2026-04-22T07:25:17.998Z</time></trkpt><trkpt lat="42.279931927208956" lon="2.9859525417474893"><ele>16.666666666666664</ele><time>2026-04-22T07:25:18.998Z</time></trkpt><trkpt lat="42.28000058508634" lon="2.9859064008237937"><ele>17.0</ele><time>2026-04-22T07:25:19.998Z</time></trkpt><trkpt lat="42.2800970151707" lon="2.985832104700921"><ele>17.333333333333332</ele><time>2026-04-22T07:25:21.998Z</time></trkpt><trkpt lat="42.280156480322304" lon="2.985790267221226"><ele>17.666666666666668</ele><time>2026-04-22T07:25:22.998Z</time></trkpt><trkpt lat="42.28022995681117" lon="2.985720036795898"><ele>18.0</ele><time>2026-04-22T07:25:23.998Z</time></trkpt><trkpt lat="42.280317547865906" lon="2.985636940572519"><ele>18.0</ele><time>2026-04-22T07:25:24.998Z</time></trkpt><trkpt lat="42.28042014323711" lon="2.985548807972176"><ele>18.0</ele><time>2026-04-22T07:25:25.998Z</time></trkpt><trkpt lat="42.28053656943633" lon="2.9854784431793213"><ele>18.0</ele><time>2026-04-22T07:25:26.998Z</time></trkpt><trkpt lat="42.28066794602049" lon="2.985403680793205"><ele>18.0</ele><time>2026-04-22T07:25:27.998Z</time></trkpt><trkpt lat="42.28078975608864" lon="2.985309949482834"><ele>18.0</ele><time>2026-04-22T07:25:28.998Z</time></trkpt><trkpt lat="42.280904132537245" lon="2.9852159061792682"><ele>18.0</ele><time>2026-04-22T07:25:30Z</time></trkpt><trkpt lat="42.281013580645165" lon="2.985132816322307"><ele>18.0</ele><time>2026-04-22T07:25:31Z</time></trkpt><trkpt lat="42.28112838718179" lon="2.985048083659746"><ele>18.0</ele><time>2026-04-22T07:25:32Z</time></trkpt><trkpt lat="42.28124240931096" lon="2.984975350618023"><ele>18.25</ele><time>2026-04-22T07:25:33Z</time></trkpt><trkpt lat="42.28134460378514" lon="2.9849010029912857"><ele>18.5</ele><time>2026-04-22T07:25:34Z</time></trkpt><trkpt lat="42.28144792486373" lon="2.984825618808243"><ele>18.75</ele><time>2026-04-22T07:25:35Z</time></trkpt><trkpt lat="42.28155191626401" lon="2.9847416071913258"><ele>19.0</ele><time>2026-04-22T07:25:36Z</time></trkpt><trkpt lat="42.281662341160605" lon="2.984650299240574"><ele>19.25</ele><time>2026-04-22T07:25:37Z</time></trkpt><trkpt lat="42.28177323214246" lon="2.98454854660624"><ele>19.5</ele><time>2026-04-22T07:25:38Z</time></trkpt><trkpt lat="42.28188759958631" lon="2.984438055186984"><ele>19.75</ele><time>2026-04-22T07:25:39Z</time></trkpt><trkpt lat="42.28200124201593" lon="2.9843258233139234"><ele>20.0</ele><time>2026-04-22T07:25:40Z</time></trkpt><trkpt lat="42.282102444576665" lon="2.984211276577287"><ele>19.8</ele><time>2026-04-22T07:25:41Z</time></trkpt><trkpt lat="42.28219710470955" lon="2.9841029723845707"><ele>19.6</ele><time>2026-04-22T07:25:42Z</time></trkpt><trkpt lat="42.28228807039325" lon="2.984013383574387"><ele>19.4</ele><time>2026-04-22T07:25:43Z</time></trkpt><trkpt lat="42.28237103921726" lon="2.983932903589714"><ele>19.2</ele><time>2026-04-22T07:25:44Z</time></trkpt><trkpt lat="42.28244744037904" lon="2.9838586337004127"><ele>19.0</ele><time>2026-04-22T07:25:45Z</time></trkpt><trkpt lat="42.28250885845604" lon="2.9837983772707317"><ele>19.0</ele><time>2026-04-22T07:25:46Z</time></trkpt><trkpt lat="42.28259711131399" lon="2.9836987215706956"><ele>19.0</ele><time>2026-04-22T07:25:48Z</time></trkpt><trkpt lat="42.28262182506838" lon="2.9835703064512877"><ele>19.0</ele><time>2026-04-22T07:25:50Z</time></trkpt><trkpt lat="42.2825721483519" lon="2.983418747528806"><ele>19.0</ele><time>2026-04-22T07:25:52Z</time></trkpt><trkpt lat="42.28255004738857" lon="2.9833092884175607"><ele>19.0</ele><time>2026-04-22T07:25:53Z</time></trkpt><trkpt lat="42.28253940512395" lon="2.9831969104116958"><ele>19.166666666666664</ele><time>2026-04-22T07:25:54Z</time></trkpt><trkpt lat="42.28252124179077" lon="2.983095727340914"><ele>19.333333333333332</ele><time>2026-04-22T07:25:55Z</time></trkpt><trkpt lat="42.28248816496975" lon="2.98299189923209"><ele>19.5</ele><time>2026-04-22T07:25:56Z</time></trkpt><trkpt lat="42.28247121823548" lon="2.98288830983686"><ele>19.666666666666668</ele><time>2026-04-22T07:25:57Z</time></trkpt><trkpt lat="42.28244390974089" lon="2.9827869086719554"><ele>19.833333333333336</ele><time>2026-04-22T07:25:58Z</time></trkpt><trkpt lat="42.28241551065774" lon="2.9826917773512975"><ele>20.0</ele><time>2026-04-22T07:25:59Z</time></trkpt><trkpt lat="42.282384901379594" lon="2.9825916909281585"><ele>20.0</ele><time>2026-04-22T07:26:00Z</time></trkpt><trkpt lat="42.28235381335885" lon="2.9824946067488884"><ele>20.0</ele><time>2026-04-22T07:26:01Z</time></trkpt><trkpt lat="42.282324330094646" lon="2.9824081993395843"><ele>20.0</ele><time>2026-04-22T07:26:02Z</time></trkpt><trkpt lat="42.282292271488785" lon="2.9823214630997694"><ele>20.0</ele><time>2026-04-22T07:26:03Z</time></trkpt><trkpt lat="42.28225841706085" lon="2.9822370234445335"><ele>20.0</ele><time>2026-04-22T07:26:04Z</time></trkpt><trkpt lat="42.28225929969742" lon="2.9821395167307783"><ele>20.0</ele><time>2026-04-22T07:26:05Z</time></trkpt><trkpt lat="42.28222800449676" lon="2.9820270527002406"><ele>20.0</ele><time>2026-04-22T07:26:07Z</time></trkpt><trkpt lat="42.282232643068234" lon="2.981903898781845"><ele>20.0</ele><time>2026-04-22T07:26:09Z</time></trkpt><trkpt lat="42.282188684848904" lon="2.9817797994975046"><ele>20.0</ele><time>2026-04-22T07:26:11Z</time></trkpt><trkpt lat="42.28215287842551" lon="2.981704393575375"><ele>20.0</ele><time>2026-04-22T07:26:12Z</time></trkpt><trkpt lat="42.28210483166052" lon="2.981625682716584"><ele>20.0</ele><time>2026-04-22T07:26:13Z</time></trkpt><trkpt lat="42.282051244063474" lon="2.9815426644048677"><ele>20.0</ele><time>2026-04-22T07:26:13.999Z</time></trkpt><trkpt lat="42.282009852335825" lon="2.981449108897773"><ele>20.0</ele><time>2026-04-22T07:26:14.999Z</time></trkpt><trkpt lat="42.281961171094096" lon="2.981361504964965"><ele>20.0</ele><time>2026-04-22T07:26:15.999Z</time></trkpt><trkpt lat="42.28192770283169" lon="2.981266711658042"><ele>20.0</ele><time>2026-04-22T07:26:16.999Z</time></trkpt><trkpt lat="42.28188317521168" lon="2.9811940473076537"><ele>20.0</ele><time>2026-04-22T07:26:17.999Z</time></trkpt><trkpt lat="42.281848394552895" lon="2.981119120732749"><ele>20.0</ele><time>2026-04-22T07:26:18.999Z</time></trkpt><trkpt lat="42.28184296776158" lon="2.9809971444234655"><ele>20.0</ele><time>2026-04-22T07:26:20.999Z</time></trkpt><trkpt lat="42.28187475371669" lon="2.9808969613347185"><ele>20.0</ele><time>2026-04-22T07:26:22.999Z</time></trkpt><trkpt lat="42.2818247582296" lon="2.9807975711351897"><ele>20.0</ele><time>2026-04-22T07:26:24.999Z</time></trkpt><trkpt lat="42.28174460277063" lon="2.9806784268514197"><ele>20.0</ele><time>2026-04-22T07:26:26.999Z</time></trkpt><trkpt lat="42.28166203380951" lon="2.9805675784208474"><ele>20.0</ele><time>2026-04-22T07:26:28.999Z</time></trkpt><trkpt lat="42.28161803518272" lon="2.9804980395932956"><ele>20.0</ele><time>2026-04-22T07:26:29.999Z</time></trkpt><trkpt lat="42.28157784188818" lon="2.9804317744094977"><ele>20.0</ele><time>2026-04-22T07:26:30.999Z</time></trkpt><trkpt lat="42.28155023682415" lon="2.980353458166604"><ele>20.0</ele><time>2026-04-22T07:26:31.999Z</time></trkpt><trkpt lat="42.28148495204386" lon="2.9802124269399117"><ele>20.0</ele><time>2026-04-22T07:26:33.999Z</time></trkpt><trkpt lat="42.281413607308544" lon="2.980097138870856"><ele>20.0</ele><time>2026-04-22T07:26:35.999Z</time></trkpt><trkpt lat="42.281375498967165" lon="2.9800116258602163"><ele>20.0</ele><time>2026-04-22T07:26:37.999Z</time></trkpt><trkpt lat="42.28143879208286" lon="2.979884178767326"><ele>19.666666666666668</ele><time>2026-04-22T07:26:40.999Z</time></trkpt><trkpt lat="42.2814985352682" lon="2.979815798946537"><ele>19.333333333333336</ele><time>2026-04-22T07:26:41.999Z</time></trkpt><trkpt lat="42.28153710544256" lon="2.979746186012656"><ele>19.0</ele><time>2026-04-22T07:26:42.999Z</time></trkpt><trkpt lat="42.28153013041169" lon="2.979574701074692"><ele>18.666666666666668</ele><time>2026-04-22T07:26:44.999Z</time></trkpt><trkpt lat="42.28149816973179" lon="2.9794995441987195"><ele>18.333333333333332</ele><time>2026-04-22T07:26:45.999Z</time></trkpt><trkpt lat="42.28147716439077" lon="2.979418619865841"><ele>18.0</ele><time>2026-04-22T07:26:46.999Z</time></trkpt><trkpt lat="42.28141901563095" lon="2.9793092949421056"><ele>18.0</ele><time>2026-04-22T07:26:48.999Z</time></trkpt><trkpt lat="42.281465270709305" lon="2.979208176656683"><ele>18.0</ele><time>2026-04-22T07:26:50.999Z</time></trkpt><trkpt lat="42.28152448993668" lon="2.979151687423899"><ele>18.0</ele><time>2026-04-22T07:26:51.999Z</time></trkpt><trkpt lat="42.28158403854185" lon="2.97909160086381"><ele>18.0</ele><time>2026-04-22T07:26:52.999Z</time></trkpt><trkpt lat="42.28165780027269" lon="2.9790074425317234"><ele>18.0</ele><time>2026-04-22T07:26:53.999Z</time></trkpt><trkpt lat="42.28172239462554" lon="2.978950844119918"><ele>18.0</ele><time>2026-04-22T07:26:54.999Z</time></trkpt><trkpt lat="42.28181366001842" lon="2.9788629961778144"><ele>18.6</ele><time>2026-04-22T07:26:56.999Z</time></trkpt><trkpt lat="42.28189343041423" lon="2.978786312125905"><ele>19.200000000000003</ele><time>2026-04-22T07:26:58.999Z</time></trkpt><trkpt lat="42.281952078416516" lon="2.9787389311115615"><ele>19.8</ele><time>2026-04-22T07:27:01.999Z</time></trkpt><trkpt lat="42.28202077670674" lon="2.978683635525602"><ele>20.400000000000002</ele><time>2026-04-22T07:27:03.999Z</time></trkpt><trkpt lat="42.282137163463155" lon="2.9786382652819943"><ele>21.0</ele><time>2026-04-22T07:27:05.999Z</time></trkpt><trkpt lat="42.28223315101866" lon="2.97862116713265"><ele>21.166666666666668</ele><time>2026-04-22T07:27:07.999Z</time></trkpt><trkpt lat="42.282310440587075" lon="2.9786371139803136"><ele>21.333333333333332</ele><time>2026-04-22T07:27:09.999Z</time></trkpt><trkpt lat="42.28240448190529" lon="2.9786088018545303"><ele>21.5</ele><time>2026-04-22T07:27:11.999Z</time></trkpt><trkpt lat="42.28247317185537" lon="2.978613371001006"><ele>21.666666666666664</ele><time>2026-04-22T07:27:12.999Z</time></trkpt><trkpt lat="42.28253398196102" lon="2.9785723632673493"><ele>21.833333333333332</ele><time>2026-04-22T07:27:13.999Z</time></trkpt><trkpt lat="42.28260027547008" lon="2.978516814804541"><ele>22.0</ele><time>2026-04-22T07:27:14.999Z</time></trkpt><trkpt lat="42.28266553799038" lon="2.978467735042254"><ele>22.0</ele><time>2026-04-22T07:27:15.999Z</time></trkpt><trkpt lat="42.28273317884465" lon="2.9784450770571373"><ele>22.0</ele><time>2026-04-22T07:27:16.999Z</time></trkpt><trkpt lat="42.282796351304775" lon="2.978383605183538"><ele>22.0</ele><time>2026-04-22T07:27:17.999Z</time></trkpt><trkpt lat="42.2828985639371" lon="2.978327332747372"><ele>22.0</ele><time>2026-04-22T07:27:19.999Z</time></trkpt><trkpt lat="42.283001518113196" lon="2.97828118642202"><ele>22.0</ele><time>2026-04-22T07:27:21.999Z</time></trkpt><trkpt lat="42.28306576892367" lon="2.978244037769104"><ele>22.0</ele><time>2026-04-22T07:27:22.999Z</time></trkpt><trkpt lat="42.28315015929454" lon="2.9781889429119266"><ele>21.666666666666664</ele><time>2026-04-22T07:27:23.999Z</time></trkpt><trkpt lat="42.28323534631896" lon="2.9781426494008074"><ele>21.333333333333332</ele><time>2026-04-22T07:27:24.998Z</time></trkpt><trkpt lat="42.283317153993345" lon="2.97809315071313"><ele>21.0</ele><time>2026-04-22T07:27:25.998Z</time></trkpt><trkpt lat="42.283389421772846" lon="2.9780449482366476"><ele>20.666666666666668</ele><time>2026-04-22T07:27:26.998Z</time></trkpt><trkpt lat="42.28345410828492" lon="2.978003466062356"><ele>20.333333333333336</ele><time>2026-04-22T07:27:27.998Z</time></trkpt><trkpt lat="42.283516547717305" lon="2.977965307626612"><ele>20.0</ele><time>2026-04-22T07:27:28.998Z</time></trkpt><trkpt lat="42.283621358885426" lon="2.9779058396569034"><ele>20.0</ele><time>2026-04-22T07:27:30.998Z</time></trkpt><trkpt lat="42.283695738509" lon="2.977883885254968"><ele>20.0</ele><time>2026-04-22T07:27:32.998Z</time></trkpt><trkpt lat="42.283761066071136" lon="2.9778874022965374"><ele>20.0</ele><time>2026-04-22T07:27:33.998Z</time></trkpt><trkpt lat="42.28382817193771" lon="2.9778753873344996"><ele>20.0</ele><time>2026-04-22T07:27:34.998Z</time></trkpt><trkpt lat="42.283889983166304" lon="2.977834279034583"><ele>20.0</ele><time>2026-04-22T07:27:36Z</time></trkpt><trkpt lat="42.283950445579386" lon="2.977757476859231"><ele>20.0</ele><time>2026-04-22T07:27:37Z</time></trkpt><trkpt lat="42.284028554891925" lon="2.9776463856722124"><ele>19.666666666666668</ele><time>2026-04-22T07:27:38Z</time></trkpt><trkpt lat="42.284143282031415" lon="2.977546773862082"><ele>19.333333333333332</ele><time>2026-04-22T07:27:39Z</time></trkpt><trkpt lat="42.28427417325928" lon="2.977433190044158"><ele>19.0</ele><time>2026-04-22T07:27:40Z</time></trkpt><trkpt lat="42.284391041626215" lon="2.977287511912188"><ele>19.0</ele><time>2026-04-22T07:27:41Z</time></trkpt><trkpt lat="42.28449315671833" lon="2.9771064153684423"><ele>19.0</ele><time>2026-04-22T07:27:42Z</time></trkpt><trkpt lat="42.284579247612754" lon="2.976883865478352"><ele>19.0</ele><time>2026-04-22T07:27:43Z</time></trkpt><trkpt lat="42.28465006015272" lon="2.976626121565164"><ele>19.0</ele><time>2026-04-22T07:27:44Z</time></trkpt><trkpt lat="42.28471246947703" lon="2.9763468583135047"><ele>19.0</ele><time>2026-04-22T07:27:45Z</time></trkpt><trkpt lat="42.28477862176792" lon="2.976051471109949"><ele>19.0</ele><time>2026-04-22T07:27:46Z</time></trkpt><trkpt lat="42.284839581593054" lon="2.9757684631217702"><ele>19.0</ele><time>2026-04-22T07:27:47Z</time></trkpt><trkpt lat="42.28489867703725" lon="2.9755109678105693"><ele>19.0</ele><time>2026-04-22T07:27:48Z</time></trkpt><trkpt lat="42.284974359094306" lon="2.9752552608541936"><ele>19.0</ele><time>2026-04-22T07:27:49Z</time></trkpt><trkpt lat="42.28506356108572" lon="2.9750246287616866"><ele>19.333333333333332</ele><time>2026-04-22T07:27:50Z</time></trkpt><trkpt lat="42.28516070859759" lon="2.97482856928955"><ele>19.666666666666668</ele><time>2026-04-22T07:27:51Z</time></trkpt><trkpt lat="42.285251559582306" lon="2.97466792126514"><ele>20.0</ele><time>2026-04-22T07:27:52Z</time></trkpt><trkpt lat="42.28532954520066" lon="2.974525796172401"><ele>20.0</ele><time>2026-04-22T07:27:53Z</time></trkpt><trkpt lat="42.28538905914471" lon="2.9744046314930586"><ele>20.0</ele><time>2026-04-22T07:27:54Z</time></trkpt><trkpt lat="42.28544487586305" lon="2.9743099605339625"><ele>20.0</ele><time>2026-04-22T07:27:55Z</time></trkpt><trkpt lat="42.28552140723518" lon="2.9742432882165297"><ele>20.0</ele><time>2026-04-22T07:27:56Z</time></trkpt><trkpt lat="42.285599773370755" lon="2.974207102100929"><ele>20.0</ele><time>2026-04-22T07:27:57Z</time></trkpt><trkpt lat="42.28566931001539" lon="2.9741851637190306"><ele>20.0</ele><time>2026-04-22T07:27:58Z</time></trkpt><trkpt lat="42.28575111729469" lon="2.9741320283169967"><ele>20.0</ele><time>2026-04-22T07:27:59Z</time></trkpt><trkpt lat="42.28587145086026" lon="2.974178267604683"><ele>20.0</ele><time>2026-04-22T07:28:00Z</time></trkpt><trkpt lat="42.285987893254145" lon="2.974218949208352"><ele>20.0</ele><time>2026-04-22T07:28:01Z</time></trkpt><trkpt lat="42.286113412146705" lon="2.9742569885835137"><ele>20.0</ele><time>2026-04-22T07:28:02Z</time></trkpt><trkpt lat="42.2862456006413" lon="2.9742755735909423"><ele>20.0</ele><time>2026-04-22T07:28:03Z</time></trkpt><trkpt lat="42.28639170623739" lon="2.974284591954768"><ele>20.0</ele><time>2026-04-22T07:28:04Z</time></trkpt><trkpt lat="42.28655005321822" lon="2.9742982912524334"><ele>20.0</ele><time>2026-04-22T07:28:05Z</time></trkpt><trkpt lat="42.286711669030026" lon="2.974308229206569"><ele>19.666666666666668</ele><time>2026-04-22T07:28:06Z</time></trkpt><trkpt lat="42.286876725252114" lon="2.974329653466206"><ele>19.333333333333332</ele><time>2026-04-22T07:28:07Z</time></trkpt><trkpt lat="42.287045797838516" lon="2.9743679615594414"><ele>19.0</ele><time>2026-04-22T07:28:08Z</time></trkpt><trkpt lat="42.28722211758656" lon="2.9744305342522903"><ele>19.0</ele><time>2026-04-22T07:28:09Z</time></trkpt><trkpt lat="42.28740276175296" lon="2.974520957761758"><ele>19.0</ele><time>2026-04-22T07:28:10Z</time></trkpt><trkpt lat="42.28758634955738" lon="2.974643592332274"><ele>19.0</ele><time>2026-04-22T07:28:11Z</time></trkpt><trkpt lat="42.287777875109896" lon="2.974771611784318"><ele>19.0</ele><time>2026-04-22T07:28:12Z</time></trkpt><trkpt lat="42.28797581942007" lon="2.974892542656762"><ele>19.0</ele><time>2026-04-22T07:28:13Z</time></trkpt><trkpt lat="42.28817854166875" lon="2.975011178849527"><ele>19.0</ele><time>2026-04-22T07:28:14Z</time></trkpt><trkpt lat="42.2883754157617" lon="2.975140096891599"><ele>19.666666666666664</ele><time>2026-04-22T07:28:15Z</time></trkpt><trkpt lat="42.288564248124196" lon="2.9752570431578773"><ele>20.333333333333332</ele><time>2026-04-22T07:28:16Z</time></trkpt><trkpt lat="42.28876335368315" lon="2.9753580743605688"><ele>21.0</ele><time>2026-04-22T07:28:17Z</time></trkpt><trkpt lat="42.28897643586481" lon="2.9754317384942155"><ele>21.0</ele><time>2026-04-22T07:28:18Z</time></trkpt><trkpt lat="42.2892078933886" lon="2.9754760573275805"><ele>21.0</ele><time>2026-04-22T07:28:19Z</time></trkpt><trkpt lat="42.289448207190155" lon="2.975496242462283"><ele>21.0</ele><time>2026-04-22T07:28:20Z</time></trkpt><trkpt lat="42.28968061526391" lon="2.975497720209862"><ele>21.0</ele><time>2026-04-22T07:28:21Z</time></trkpt><trkpt lat="42.28990773373299" lon="2.9754978668164513"><ele>21.5</ele><time>2026-04-22T07:28:22Z</time></trkpt><trkpt lat="42.2901418933624" lon="2.975519866426049"><ele>22.0</ele><time>2026-04-22T07:28:23Z</time></trkpt><trkpt lat="42.29038114656075" lon="2.975559194013044"><ele>23.0</ele><time>2026-04-22T07:28:24Z</time></trkpt><trkpt lat="42.290624313794304" lon="2.975616772462924"><ele>24.0</ele><time>2026-04-22T07:28:25Z</time></trkpt><trkpt lat="42.29086670944388" lon="2.9756872993674666"><ele>24.0</ele><time>2026-04-22T07:28:26Z</time></trkpt><trkpt lat="42.29111128205656" lon="2.975763965944056"><ele>24.0</ele><time>2026-04-22T07:28:27Z</time></trkpt><trkpt lat="42.29135888609123" lon="2.9758416187980616"><ele>23.5</ele><time>2026-04-22T07:28:27.999Z</time></trkpt><trkpt lat="42.291600701419256" lon="2.9759159156902313"><ele>23.0</ele><time>2026-04-22T07:28:28.999Z</time></trkpt><trkpt lat="42.29182095222175" lon="2.9759819670569607"><ele>23.0</ele><time>2026-04-22T07:28:29.999Z</time></trkpt><trkpt lat="42.29204334859967" lon="2.9760492029182184"><ele>23.0</ele><time>2026-04-22T07:28:30.999Z</time></trkpt><trkpt lat="42.29226594936376" lon="2.976112914870996"><ele>23.0</ele><time>2026-04-22T07:28:31.999Z</time></trkpt><trkpt lat="42.29249051576121" lon="2.976177120622864"><ele>23.0</ele><time>2026-04-22T07:28:32.999Z</time></trkpt><trkpt lat="42.29271255901899" lon="2.9762523828475036"><ele>23.0</ele><time>2026-04-22T07:28:33.999Z</time></trkpt><trkpt lat="42.29293050917596" lon="2.9763104978484534"><ele>23.0</ele><time>2026-04-22T07:28:34.999Z</time></trkpt><trkpt lat="42.29313430918201" lon="2.976364839841057"><ele>23.0</ele><time>2026-04-22T07:28:35.999Z</time></trkpt><trkpt lat="42.29332929668546" lon="2.976416831992556"><ele>22.666666666666668</ele><time>2026-04-22T07:28:36.999Z</time></trkpt><trkpt lat="42.29352426494541" lon="2.9764688190353303"><ele>22.333333333333332</ele><time>2026-04-22T07:28:37.999Z</time></trkpt><trkpt lat="42.293720101459364" lon="2.976521503736828"><ele>22.0</ele><time>2026-04-22T07:28:38.999Z</time></trkpt><trkpt lat="42.293921559587375" lon="2.976581425754517"><ele>22.0</ele><time>2026-04-22T07:28:39.999Z</time></trkpt><trkpt lat="42.29409614304403" lon="2.9766557982869375"><ele>22.0</ele><time>2026-04-22T07:28:40.999Z</time></trkpt><trkpt lat="42.29453046784084" lon="2.976905493659673"><ele>22.0</ele><time>2026-04-22T07:28:41.999Z</time></trkpt><trkpt lat="42.2947292153277" lon="2.9770125904535703"><ele>22.0</ele><time>2026-04-22T07:28:42.999Z</time></trkpt><trkpt lat="42.294926782076125" lon="2.977132197901667"><ele>22.0</ele><time>2026-04-22T07:28:43.999Z</time></trkpt><trkpt lat="42.29513244880572" lon="2.9772522236758516"><ele>23.0</ele><time>2026-04-22T07:28:44.999Z</time></trkpt><trkpt lat="42.295339836871996" lon="2.977372761106243"><ele>24.0</ele><time>2026-04-22T07:28:45.999Z</time></trkpt><trkpt lat="42.29554864997201" lon="2.9774902072943195"><ele>23.0</ele><time>2026-04-22T07:28:46.999Z</time></trkpt><trkpt lat="42.29575658173069" lon="2.977610738011577"><ele>22.0</ele><time>2026-04-22T07:28:47.999Z</time></trkpt><trkpt lat="42.295972399929916" lon="2.9777118508847846"><ele>22.0</ele><time>2026-04-22T07:28:48.999Z</time></trkpt><trkpt lat="42.29620278562264" lon="2.977789301689913"><ele>22.0</ele><time>2026-04-22T07:28:49.999Z</time></trkpt><trkpt lat="42.29644138240789" lon="2.977859619472726"><ele>21.5</ele><time>2026-04-22T07:28:50.999Z</time></trkpt><trkpt lat="42.29668418876839" lon="2.9779250738095526"><ele>21.0</ele><time>2026-04-22T07:28:51.999Z</time></trkpt><trkpt lat="42.29692705309414" lon="2.977987513777208"><ele>21.0</ele><time>2026-04-22T07:28:52.999Z</time></trkpt><trkpt lat="42.29718152279171" lon="2.9780274906208652"><ele>21.0</ele><time>2026-04-22T07:28:53.999Z</time></trkpt><trkpt lat="42.29744274719711" lon="2.978048077178343"><ele>22.0</ele><time>2026-04-22T07:28:54.999Z</time></trkpt><trkpt lat="42.29771721958811" lon="2.9780401631611833"><ele>23.0</ele><time>2026-04-22T07:28:55.999Z</time></trkpt><trkpt lat="42.297994101781605" lon="2.97801402494348"><ele>23.5</ele><time>2026-04-22T07:28:56.999Z</time></trkpt><trkpt lat="42.298258822137235" lon="2.977995917761526"><ele>24.0</ele><time>2026-04-22T07:28:57.999Z</time></trkpt><trkpt lat="42.29850398963594" lon="2.9779865569760617"><ele>24.0</ele><time>2026-04-22T07:28:58.999Z</time></trkpt><trkpt lat="42.298730406494066" lon="2.9779785034937207"><ele>24.0</ele><time>2026-04-22T07:28:59.999Z</time></trkpt><trkpt lat="42.29895802237608" lon="2.977966234497411"><ele>23.5</ele><time>2026-04-22T07:29:00.999Z</time></trkpt><trkpt lat="42.299183116451765" lon="2.977961573999508"><ele>23.0</ele><time>2026-04-22T07:29:01.999Z</time></trkpt><trkpt lat="42.29941034818539" lon="2.9779572029597214"><ele>23.0</ele><time>2026-04-22T07:29:02.999Z</time></trkpt><trkpt lat="42.29962925963781" lon="2.9779472597283845"><ele>23.0</ele><time>2026-04-22T07:29:03.999Z</time></trkpt><trkpt lat="42.29985187073392" lon="2.9779452542839815"><ele>23.0</ele><time>2026-04-22T07:29:04.999Z</time></trkpt><trkpt lat="42.30007072676862" lon="2.9779413711926983"><ele>23.0</ele><time>2026-04-22T07:29:05.999Z</time></trkpt><trkpt lat="42.30028722919033" lon="2.977935727209918"><ele>23.0</ele><time>2026-04-22T07:29:06.999Z</time></trkpt><trkpt lat="42.30050426885344" lon="2.9779230131145074"><ele>23.0</ele><time>2026-04-22T07:29:07.999Z</time></trkpt><trkpt lat="42.300734789304144" lon="2.977897777314587"><ele>23.0</ele><time>2026-04-22T07:29:08.999Z</time></trkpt><trkpt lat="42.300966570938606" lon="2.9778528557507027"><ele>23.0</ele><time>2026-04-22T07:29:09.999Z</time></trkpt><trkpt lat="42.301197415363056" lon="2.9777859284552366"><ele>22.0</ele><time>2026-04-22T07:29:10.999Z</time></trkpt><trkpt lat="42.301423465770014" lon="2.9776984187212006"><ele>21.0</ele><time>2026-04-22T07:29:11.999Z</time></trkpt><trkpt lat="42.30164263454749" lon="2.97764615439399"><ele>21.0</ele><time>2026-04-22T07:29:12.999Z</time></trkpt><trkpt lat="42.301852276040066" lon="2.977569088116591"><ele>21.0</ele><time>2026-04-22T07:29:13.999Z</time></trkpt><trkpt lat="42.30207965212523" lon="2.977576600650129"><ele>21.0</ele><time>2026-04-22T07:29:14.999Z</time></trkpt><trkpt lat="42.30230956095136" lon="2.9776312768738427"><ele>21.5</ele><time>2026-04-22T07:29:15.999Z</time></trkpt><trkpt lat="42.30254180578199" lon="2.9777267431982657"><ele>22.0</ele><time>2026-04-22T07:29:16.999Z</time></trkpt><trkpt lat="42.302776755405475" lon="2.977830579085428"><ele>22.0</ele><time>2026-04-22T07:29:17.999Z</time></trkpt><trkpt lat="42.303014342742166" lon="2.9779121723926507"><ele>22.0</ele><time>2026-04-22T07:29:18.999Z</time></trkpt><trkpt lat="42.30326082968054" lon="2.97796354548746"><ele>22.0</ele><time>2026-04-22T07:29:19.999Z</time></trkpt><trkpt lat="42.30348913687906" lon="2.977977863974681"><ele>22.0</ele><time>2026-04-22T07:29:20.999Z</time></trkpt><trkpt lat="42.30371064297328" lon="2.9779490499063566"><ele>22.0</ele><time>2026-04-22T07:29:21.999Z</time></trkpt><trkpt lat="42.303937647321305" lon="2.977876276806054"><ele>22.0</ele><time>2026-04-22T07:29:22.999Z</time></trkpt><trkpt lat="42.30417051482583" lon="2.9777711997507006"><ele>22.0</ele><time>2026-04-22T07:29:23.999Z</time></trkpt><trkpt lat="42.30439947691563" lon="2.9776636152745883"><ele>22.0</ele><time>2026-04-22T07:29:24.999Z</time></trkpt><trkpt lat="42.30461324913269" lon="2.9775512035125202"><ele>23.5</ele><time>2026-04-22T07:29:25.999Z</time></trkpt><trkpt lat="42.30480886678969" lon="2.977407025198202"><ele>25.0</ele><time>2026-04-22T07:29:26.999Z</time></trkpt><trkpt lat="42.30499495578419" lon="2.9772152221122186"><ele>25.0</ele><time>2026-04-22T07:29:27.999Z</time></trkpt><trkpt lat="42.305175427565665" lon="2.9769968180797424"><ele>25.0</ele><time>2026-04-22T07:29:28.999Z</time></trkpt><trkpt lat="42.30535302978859" lon="2.976796164596605"><ele>24.666666666666668</ele><time>2026-04-22T07:29:29.999Z</time></trkpt><trkpt lat="42.30552627060862" lon="2.9766140263162413"><ele>24.333333333333336</ele><time>2026-04-22T07:29:30.999Z</time></trkpt><trkpt lat="42.30569549613299" lon="2.9764618194532586"><ele>24.0</ele><time>2026-04-22T07:29:31.999Z</time></trkpt><trkpt lat="42.30586746094914" lon="2.9763667948707626"><ele>25.666666666666664</ele><time>2026-04-22T07:29:32.999Z</time></trkpt><trkpt lat="42.30604880728" lon="2.976307132498629"><ele>27.333333333333332</ele><time>2026-04-22T07:29:33.999Z</time></trkpt><trkpt lat="42.30622455339447" lon="2.9762886802620327"><ele>29.0</ele><time>2026-04-22T07:29:34.998Z</time></trkpt><trkpt lat="42.306392734201616" lon="2.976313990581172"><ele>28.333333333333332</ele><time>2026-04-22T07:29:35.998Z</time></trkpt><trkpt lat="42.30655463263749" lon="2.97636948690014"><ele>27.666666666666664</ele><time>2026-04-22T07:29:36.998Z</time></trkpt><trkpt lat="42.306716328693966" lon="2.976426434376111"><ele>27.0</ele><time>2026-04-22T07:29:37.998Z</time></trkpt><trkpt lat="42.30687528331704" lon="2.9764910812244634"><ele>27.0</ele><time>2026-04-22T07:29:38.998Z</time></trkpt><trkpt lat="42.30701911681963" lon="2.976553961792401"><ele>27.0</ele><time>2026-04-22T07:29:39.998Z</time></trkpt><trkpt lat="42.3071371017316" lon="2.9766094779974077"><ele>27.0</ele><time>2026-04-22T07:29:40.998Z</time></trkpt><trkpt lat="42.30724191444778" lon="2.976640958939103"><ele>27.0</ele><time>2026-04-22T07:29:42Z</time></trkpt><trkpt lat="42.30736043318631" lon="2.9766444380110255"><ele>26.8</ele><time>2026-04-22T07:29:43Z</time></trkpt><trkpt lat="42.30747422271505" lon="2.976632454852385"><ele>26.6</ele><time>2026-04-22T07:29:44Z</time></trkpt><trkpt lat="42.30757965640798" lon="2.976613704639609"><ele>26.400000000000002</ele><time>2026-04-22T07:29:45Z</time></trkpt><trkpt lat="42.30766107646912" lon="2.9766048911240337"><ele>26.200000000000003</ele><time>2026-04-22T07:29:46Z</time></trkpt><trkpt lat="42.30773136920286" lon="2.976588893934532"><ele>26.0</ele><time>2026-04-22T07:29:47Z</time></trkpt><trkpt lat="42.307811546773024" lon="2.976568922957178"><ele>25.999999999999996</ele><time>2026-04-22T07:29:48Z</time></trkpt><trkpt lat="42.307878031862906" lon="2.976553558276118"><ele>26.0</ele><time>2026-04-22T07:29:49Z</time></trkpt><trkpt lat="42.30794345230007" lon="2.9765386362854156"><ele>26.0</ele><time>2026-04-22T07:29:50Z</time></trkpt><trkpt lat="42.308000766728085" lon="2.976398892521157"><ele>26.0</ele><time>2026-04-22T07:29:52Z</time></trkpt><trkpt lat="42.30800003210469" lon="2.9762989540269413"><ele>25.999999999999996</ele><time>2026-04-22T07:29:53Z</time></trkpt><trkpt lat="42.30801731082448" lon="2.9761701183231373"><ele>26.0</ele><time>2026-04-22T07:29:55Z</time></trkpt><trkpt lat="42.30804765571122" lon="2.976082759572407"><ele>25.999999999999996</ele><time>2026-04-22T07:29:57Z</time></trkpt><trkpt lat="42.30807642678628" lon="2.9759845981141098"><ele>26.0</ele><time>2026-04-22T07:29:59Z</time></trkpt><trkpt lat="42.30811640133782" lon="2.975878581109408"><ele>26.0</ele><time>2026-04-22T07:30:01Z</time></trkpt><trkpt lat="42.30816590143652" lon="2.975736316147453"><ele>26.0</ele><time>2026-04-22T07:30:03Z</time></trkpt><trkpt lat="42.308202210925906" lon="2.9756610038117417"><ele>25.999999999999996</ele><time>2026-04-22T07:30:04Z</time></trkpt><trkpt lat="42.308249550639324" lon="2.9755914956985037"><ele>26.0</ele><time>2026-04-22T07:30:05Z</time></trkpt><trkpt lat="42.30830760653546" lon="2.9755164853637686"><ele>25.8</ele><time>2026-04-22T07:30:06Z</time></trkpt><trkpt lat="42.308354647211374" lon="2.975439680942168"><ele>25.6</ele><time>2026-04-22T07:30:07Z</time></trkpt><trkpt lat="42.30841569751096" lon="2.975300166422494"><ele>25.4</ele><time>2026-04-22T07:30:09Z</time></trkpt><trkpt lat="42.30845686350205" lon="2.975194540396241"><ele>25.2</ele><time>2026-04-22T07:30:11Z</time></trkpt><trkpt lat="42.30849807161083" lon="2.9750034797975706"><ele>25.0</ele><time>2026-04-22T07:30:13Z</time></trkpt><trkpt lat="42.308523250878956" lon="2.9748860143258735"><ele>24.833333333333336</ele><time>2026-04-22T07:30:14Z</time></trkpt><trkpt lat="42.30855446176326" lon="2.974766558833922"><ele>24.666666666666668</ele><time>2026-04-22T07:30:15Z</time></trkpt><trkpt lat="42.30858372874489" lon="2.9746587566539917"><ele>24.5</ele><time>2026-04-22T07:30:16Z</time></trkpt><trkpt lat="42.308611830964445" lon="2.974553980598279"><ele>24.333333333333336</ele><time>2026-04-22T07:30:17Z</time></trkpt><trkpt lat="42.308642016488726" lon="2.9744395056448094"><ele>24.166666666666668</ele><time>2026-04-22T07:30:18Z</time></trkpt><trkpt lat="42.30868147115048" lon="2.9743217280933187"><ele>24.0</ele><time>2026-04-22T07:30:19Z</time></trkpt><trkpt lat="42.30873101071722" lon="2.974198173461563"><ele>24.0</ele><time>2026-04-22T07:30:20Z</time></trkpt><trkpt lat="42.308787097196586" lon="2.974061171637314"><ele>24.0</ele><time>2026-04-22T07:30:21Z</time></trkpt><trkpt lat="42.308854367575336" lon="2.973900750445104"><ele>24.0</ele><time>2026-04-22T07:30:22Z</time></trkpt><trkpt lat="42.30891655696976" lon="2.9737450849759104"><ele>24.0</ele><time>2026-04-22T07:30:23Z</time></trkpt><trkpt lat="42.308971309479574" lon="2.9736096720443266"><ele>24.0</ele><time>2026-04-22T07:30:24Z</time></trkpt><trkpt lat="42.30902826281701" lon="2.973474717522833"><ele>24.0</ele><time>2026-04-22T07:30:25Z</time></trkpt><trkpt lat="42.309082688923134" lon="2.97335449697397"><ele>24.0</ele><time>2026-04-22T07:30:26Z</time></trkpt><trkpt lat="42.30913469646229" lon="2.9732192993620443"><ele>24.0</ele><time>2026-04-22T07:30:27Z</time></trkpt><trkpt lat="42.30919715033305" lon="2.973094080516349"><ele>24.0</ele><time>2026-04-22T07:30:28Z</time></trkpt><trkpt lat="42.30927507397351" lon="2.9729583645817184"><ele>24.0</ele><time>2026-04-22T07:30:29Z</time></trkpt><trkpt lat="42.309353485744715" lon="2.9728341478492886"><ele>24.0</ele><time>2026-04-22T07:30:30Z</time></trkpt><trkpt lat="42.30941956688388" lon="2.9727150930588637"><ele>24.0</ele><time>2026-04-22T07:30:31Z</time></trkpt><trkpt lat="42.309482528526395" lon="2.9726037162136096"><ele>24.0</ele><time>2026-04-22T07:30:32Z</time></trkpt><trkpt lat="42.309544340076066" lon="2.9724973421993273"><ele>24.0</ele><time>2026-04-22T07:30:33Z</time></trkpt><trkpt lat="42.309608725563876" lon="2.9723842550635107"><ele>24.0</ele><time>2026-04-22T07:30:34Z</time></trkpt><trkpt lat="42.30967753452948" lon="2.9722740993799994"><ele>24.0</ele><time>2026-04-22T07:30:34.999Z</time></trkpt><trkpt lat="42.30974933555224" lon="2.9721416252329904"><ele>24.0</ele><time>2026-04-22T07:30:35.999Z</time></trkpt><trkpt lat="42.30982121105557" lon="2.972005975075077"><ele>24.0</ele><time>2026-04-22T07:30:36.999Z</time></trkpt><trkpt lat="42.30989076516681" lon="2.971879535058759"><ele>24.166666666666668</ele><time>2026-04-22T07:30:37.999Z</time></trkpt><trkpt lat="42.309951659781774" lon="2.9717963269985517"><ele>24.333333333333336</ele><time>2026-04-22T07:30:38.999Z</time></trkpt><trkpt lat="42.31000545286104" lon="2.971731598515888"><ele>24.5</ele><time>2026-04-22T07:30:39.999Z</time></trkpt><trkpt lat="42.31007007299813" lon="2.9716412340837914"><ele>24.666666666666668</ele><time>2026-04-22T07:30:41.999Z</time></trkpt><trkpt lat="42.31011583152484" lon="2.9715508295269975"><ele>24.833333333333336</ele><time>2026-04-22T07:31:00.999Z</time></trkpt><trkpt lat="42.31016968405202" lon="2.971439432214538"><ele>25.0</ele><time>2026-04-22T07:31:10.999Z</time></trkpt><trkpt lat="42.31014721607009" lon="2.9713227991668387"><ele>25.25</ele><time>2026-04-22T07:31:11.999Z</time></trkpt><trkpt lat="42.31011057010908" lon="2.9711738736528197"><ele>25.5</ele><time>2026-04-22T07:31:12.999Z</time></trkpt><trkpt lat="42.310056121123594" lon="2.970997807343952"><ele>25.75</ele><time>2026-04-22T07:31:13.999Z</time></trkpt><trkpt lat="42.31001450876052" lon="2.9708658551885967"><ele>26.0</ele><time>2026-04-22T07:31:14.999Z</time></trkpt><trkpt lat="42.309962307728675" lon="2.9707230585913926"><ele>26.0</ele><time>2026-04-22T07:31:15.999Z</time></trkpt><trkpt lat="42.309941527350865" lon="2.970545716231324"><ele>26.0</ele><time>2026-04-22T07:31:16.999Z</time></trkpt><trkpt lat="42.30995088155033" lon="2.9703667783960075"><ele>26.0</ele><time>2026-04-22T07:31:17.999Z</time></trkpt><trkpt lat="42.30993555585737" lon="2.97017204282662"><ele>26.0</ele><time>2026-04-22T07:31:18.999Z</time></trkpt><trkpt lat="42.309951662811756" lon="2.9699553173228503"><ele>26.333333333333332</ele><time>2026-04-22T07:31:19.999Z</time></trkpt><trkpt lat="42.30995296600567" lon="2.9697325713992107"><ele>26.666666666666664</ele><time>2026-04-22T07:31:20.999Z</time></trkpt><trkpt lat="42.309954122637755" lon="2.9695208342587778"><ele>27.0</ele><time>2026-04-22T07:31:21.999Z</time></trkpt><trkpt lat="42.30995465284781" lon="2.969320997900148"><ele>26.333333333333336</ele><time>2026-04-22T07:31:22.999Z</time></trkpt><trkpt lat="42.30994471786486" lon="2.969119092074399"><ele>25.666666666666668</ele><time>2026-04-22T07:31:23.999Z</time></trkpt><trkpt lat="42.30994503330041" lon="2.9689051982655026"><ele>25.0</ele><time>2026-04-22T07:31:24.999Z</time></trkpt><trkpt lat="42.309952853225674" lon="2.968694074824224"><ele>25.0</ele><time>2026-04-22T07:31:25.999Z</time></trkpt><trkpt lat="42.30997870181249" lon="2.9685151537255803"><ele>25.0</ele><time>2026-04-22T07:31:26.999Z</time></trkpt><trkpt lat="42.30997864975085" lon="2.968337426558922"><ele>25.0</ele><time>2026-04-22T07:31:27.999Z</time></trkpt><trkpt lat="42.30999247160354" lon="2.968148187755615"><ele>25.0</ele><time>2026-04-22T07:31:28.999Z</time></trkpt><trkpt lat="42.310006810406584" lon="2.967946299653376"><ele>25.0</ele><time>2026-04-22T07:31:29.999Z</time></trkpt><trkpt lat="42.31002696683228" lon="2.9677397464421964"><ele>25.0</ele><time>2026-04-22T07:31:30.999Z</time></trkpt><trkpt lat="42.31004048769575" lon="2.9675373550742408"><ele>25.0</ele><time>2026-04-22T07:31:31.999Z</time></trkpt><trkpt lat="42.31006336351578" lon="2.96733155041102"><ele>24.75</ele><time>2026-04-22T07:31:32.999Z</time></trkpt><trkpt lat="42.310070061182834" lon="2.9671420939741813"><ele>24.5</ele><time>2026-04-22T07:31:33.999Z</time></trkpt><trkpt lat="42.31007964437183" lon="2.9669515728357214"><ele>24.25</ele><time>2026-04-22T07:31:34.999Z</time></trkpt><trkpt lat="42.310083329634075" lon="2.966762251593073"><ele>24.0</ele><time>2026-04-22T07:31:35.999Z</time></trkpt><trkpt lat="42.31009089010437" lon="2.966568889743356"><ele>24.666666666666664</ele><time>2026-04-22T07:31:36.999Z</time></trkpt><trkpt lat="42.31009704053486" lon="2.966355272099677"><ele>25.333333333333332</ele><time>2026-04-22T07:31:37.999Z</time></trkpt><trkpt lat="42.31010748051243" lon="2.966118348507545"><ele>26.0</ele><time>2026-04-22T07:31:38.998Z</time></trkpt><trkpt lat="42.31011576212135" lon="2.9658623394419936"><ele>26.333333333333332</ele><time>2026-04-22T07:31:39.998Z</time></trkpt><trkpt lat="42.310116759650505" lon="2.9655826132003376"><ele>26.666666666666664</ele><time>2026-04-22T07:31:40.998Z</time></trkpt><trkpt lat="42.310128156451576" lon="2.9652876854304644"><ele>27.0</ele><time>2026-04-22T07:31:41.998Z</time></trkpt><trkpt lat="42.31013375025368" lon="2.964987266230999"><ele>27.666666666666664</ele><time>2026-04-22T07:31:42.998Z</time></trkpt><trkpt lat="42.310152290165576" lon="2.9646961240143623"><ele>28.333333333333332</ele><time>2026-04-22T07:31:43.998Z</time></trkpt><trkpt lat="42.310191915748135" lon="2.964389492959236"><ele>29.0</ele><time>2026-04-22T07:31:44.998Z</time></trkpt><trkpt lat="42.31023867753801" lon="2.964066737560135"><ele>29.0</ele><time>2026-04-22T07:31:45.998Z</time></trkpt><trkpt lat="42.310300178252206" lon="2.963731088317459"><ele>29.0</ele><time>2026-04-22T07:31:46.998Z</time></trkpt><trkpt lat="42.31038649982006" lon="2.96339323425603"><ele>29.0</ele><time>2026-04-22T07:31:48Z</time></trkpt><trkpt lat="42.31048242626021" lon="2.9630585014650106"><ele>29.0</ele><time>2026-04-22T07:31:49Z</time></trkpt><trkpt lat="42.310588639452966" lon="2.962730446392739"><ele>29.5</ele><time>2026-04-22T07:31:50Z</time></trkpt><trkpt lat="42.310694559053445" lon="2.962404837218432"><ele>30.0</ele><time>2026-04-22T07:31:51Z</time></trkpt><trkpt lat="42.31078024086265" lon="2.9620797208781595"><ele>30.0</ele><time>2026-04-22T07:31:52Z</time></trkpt><trkpt lat="42.31088268034053" lon="2.96176061366402"><ele>30.0</ele><time>2026-04-22T07:31:53Z</time></trkpt><trkpt lat="42.31100412474413" lon="2.961436593088255"><ele>30.0</ele><time>2026-04-22T07:31:54Z</time></trkpt><trkpt lat="42.311109131730774" lon="2.961106518712772"><ele>30.0</ele><time>2026-04-22T07:31:55Z</time></trkpt><trkpt lat="42.311205084206264" lon="2.960804653319869"><ele>30.0</ele><time>2026-04-22T07:31:56Z</time></trkpt><trkpt lat="42.311297610769216" lon="2.9605144646690627"><ele>30.0</ele><time>2026-04-22T07:31:57Z</time></trkpt><trkpt lat="42.31138837163489" lon="2.9602304215881827"><ele>29.5</ele><time>2026-04-22T07:31:58Z</time></trkpt><trkpt lat="42.31147951755253" lon="2.959943899472484"><ele>29.0</ele><time>2026-04-22T07:31:59Z</time></trkpt><trkpt lat="42.3115601762136" lon="2.9596340761229714"><ele>29.0</ele><time>2026-04-22T07:32:00Z</time></trkpt><trkpt lat="42.31166129287021" lon="2.9593270232330005"><ele>29.0</ele><time>2026-04-22T07:32:01Z</time></trkpt><trkpt lat="42.31176404072862" lon="2.959009729067529"><ele>30.0</ele><time>2026-04-22T07:32:02Z</time></trkpt><trkpt lat="42.311883036556615" lon="2.95869174331769"><ele>31.0</ele><time>2026-04-22T07:32:03Z</time></trkpt><trkpt lat="42.31199948744762" lon="2.9583745717832297"><ele>31.0</ele><time>2026-04-22T07:32:04Z</time></trkpt><trkpt lat="42.31212626540054" lon="2.9580564656814476"><ele>31.0</ele><time>2026-04-22T07:32:05Z</time></trkpt><trkpt lat="42.312246384423524" lon="2.95772882504127"><ele>31.0</ele><time>2026-04-22T07:32:06Z</time></trkpt><trkpt lat="42.31238794023017" lon="2.9574072903525987"><ele>31.0</ele><time>2026-04-22T07:32:07Z</time></trkpt><trkpt lat="42.31252341851866" lon="2.9570822585114005"><ele>31.0</ele><time>2026-04-22T07:32:08Z</time></trkpt><trkpt lat="42.31265948629753" lon="2.9567561293030753"><ele>31.0</ele><time>2026-04-22T07:32:09Z</time></trkpt><trkpt lat="42.31279721721629" lon="2.9564183484470714"><ele>31.5</ele><time>2026-04-22T07:32:10Z</time></trkpt><trkpt lat="42.3129245750218" lon="2.956069435761556"><ele>32.0</ele><time>2026-04-22T07:32:11Z</time></trkpt><trkpt lat="42.31304667682855" lon="2.955712431470595"><ele>32.5</ele><time>2026-04-22T07:32:12Z</time></trkpt><trkpt lat="42.31315458353356" lon="2.9553398432015774"><ele>33.0</ele><time>2026-04-22T07:32:13Z</time></trkpt><trkpt lat="42.31326083642467" lon="2.9549617486259834"><ele>33.0</ele><time>2026-04-22T07:32:14Z</time></trkpt><trkpt lat="42.313344182769484" lon="2.9545687044612747"><ele>33.0</ele><time>2026-04-22T07:32:15Z</time></trkpt><trkpt lat="42.31344990315438" lon="2.9542248880809665"><ele>34.0</ele><time>2026-04-22T07:32:16Z</time></trkpt><trkpt lat="42.31354799569861" lon="2.953897777792897"><ele>35.0</ele><time>2026-04-22T07:32:17Z</time></trkpt><trkpt lat="42.31362869352242" lon="2.9535592926070127"><ele>34.0</ele><time>2026-04-22T07:32:18Z</time></trkpt><trkpt lat="42.31370495550189" lon="2.953210205134147"><ele>33.0</ele><time>2026-04-22T07:32:19Z</time></trkpt><trkpt lat="42.313770956147756" lon="2.9528512196745664"><ele>33.5</ele><time>2026-04-22T07:32:20Z</time></trkpt><trkpt lat="42.31382741421938" lon="2.9524837217445556"><ele>34.0</ele><time>2026-04-22T07:32:21Z</time></trkpt><trkpt lat="42.313879469186894" lon="2.9521116937230816"><ele>34.5</ele><time>2026-04-22T07:32:22Z</time></trkpt><trkpt lat="42.31392835182987" lon="2.9517359560908396"><ele>35.0</ele><time>2026-04-22T07:32:23Z</time></trkpt><trkpt lat="42.31396858198036" lon="2.9513512171187966"><ele>35.0</ele><time>2026-04-22T07:32:24Z</time></trkpt><trkpt lat="42.31400529581261" lon="2.9509611555632054"><ele>35.0</ele><time>2026-04-22T07:32:25Z</time></trkpt><trkpt lat="42.31403771622942" lon="2.950575373778482"><ele>35.0</ele><time>2026-04-22T07:32:26Z</time></trkpt><trkpt lat="42.31406462719816" lon="2.950211138948291"><ele>35.0</ele><time>2026-04-22T07:32:27Z</time></trkpt><trkpt lat="42.314089388121" lon="2.949868292440635"><ele>35.5</ele><time>2026-04-22T07:32:28Z</time></trkpt><trkpt lat="42.3141260957824" lon="2.9495370822308193"><ele>36.0</ele><time>2026-04-22T07:32:29Z</time></trkpt><trkpt lat="42.31417890100214" lon="2.9491997727113666"><ele>36.5</ele><time>2026-04-22T07:32:30Z</time></trkpt><trkpt lat="42.31425579724369" lon="2.9488589410756325"><ele>37.0</ele><time>2026-04-22T07:32:31Z</time></trkpt><trkpt lat="42.31435902247236" lon="2.9485297157438533"><ele>37.0</ele><time>2026-04-22T07:32:32Z</time></trkpt><trkpt lat="42.314468445035224" lon="2.948203121047198"><ele>37.0</ele><time>2026-04-22T07:32:33Z</time></trkpt><trkpt lat="42.314576046730636" lon="2.9478784378636713"><ele>37.0</ele><time>2026-04-22T07:32:34Z</time></trkpt><trkpt lat="42.31467401888797" lon="2.947546957622666"><ele>37.0</ele><time>2026-04-22T07:32:35Z</time></trkpt><trkpt lat="42.31476855626488" lon="2.947212293415611"><ele>37.5</ele><time>2026-04-22T07:32:36Z</time></trkpt><trkpt lat="42.314869855342266" lon="2.946878059537105"><ele>38.0</ele><time>2026-04-22T07:32:37Z</time></trkpt><trkpt lat="42.31496706275671" lon="2.946547175817883"><ele>38.5</ele><time>2026-04-22T07:32:38Z</time></trkpt><trkpt lat="42.31504884424011" lon="2.946245403852917"><ele>39.0</ele><time>2026-04-22T07:32:38.999Z</time></trkpt><trkpt lat="42.31511589055804" lon="2.945948237267665"><ele>39.5</ele><time>2026-04-22T07:32:39.999Z</time></trkpt><trkpt lat="42.31516306437231" lon="2.945635007430242"><ele>40.0</ele><time>2026-04-22T07:32:40.999Z</time></trkpt><trkpt lat="42.31519014415873" lon="2.9453145227965702"><ele>40.5</ele><time>2026-04-22T07:32:41.999Z</time></trkpt><trkpt lat="42.315199253205364" lon="2.944985390029786"><ele>41.0</ele><time>2026-04-22T07:32:42.999Z</time></trkpt><trkpt lat="42.31518647380137" lon="2.94465126614029"><ele>41.0</ele><time>2026-04-22T07:32:43.999Z</time></trkpt><trkpt lat="42.31516870863348" lon="2.944310299473634"><ele>41.0</ele><time>2026-04-22T07:32:44.999Z</time></trkpt><trkpt lat="42.31515185235837" lon="2.943989854793377"><ele>41.0</ele><time>2026-04-22T07:32:45.999Z</time></trkpt><trkpt lat="42.315136156315624" lon="2.9436704742635404"><ele>41.0</ele><time>2026-04-22T07:32:46.999Z</time></trkpt><trkpt lat="42.315122971980536" lon="2.9433392690546247"><ele>41.0</ele><time>2026-04-22T07:32:47.999Z</time></trkpt><trkpt lat="42.31510879505294" lon="2.943012429411818"><ele>41.0</ele><time>2026-04-22T07:32:48.999Z</time></trkpt><trkpt lat="42.31509649361649" lon="2.9426842246746903"><ele>40.5</ele><time>2026-04-22T07:32:49.999Z</time></trkpt><trkpt lat="42.31508524010097" lon="2.94235571795085"><ele>40.0</ele><time>2026-04-22T07:32:50.999Z</time></trkpt><trkpt lat="42.315076132605874" lon="2.9420350827745825"><ele>40.0</ele><time>2026-04-22T07:32:51.999Z</time></trkpt><trkpt lat="42.31507370839612" lon="2.9417172788398123"><ele>40.0</ele><time>2026-04-22T07:32:52.999Z</time></trkpt><trkpt lat="42.31508717269016" lon="2.941398993926033"><ele>40.5</ele><time>2026-04-22T07:32:53.999Z</time></trkpt><trkpt lat="42.315116953054755" lon="2.9410712001678996"><ele>41.0</ele><time>2026-04-22T07:32:54.999Z</time></trkpt><trkpt lat="42.3151491807092" lon="2.940738725514105"><ele>41.5</ele><time>2026-04-22T07:32:55.999Z</time></trkpt><trkpt lat="42.31518558897832" lon="2.940406345502042"><ele>42.0</ele><time>2026-04-22T07:32:56.999Z</time></trkpt><trkpt lat="42.31522658824458" lon="2.940070422984589"><ele>42.0</ele><time>2026-04-22T07:32:57.999Z</time></trkpt><trkpt lat="42.3152730523109" lon="2.939721897910814"><ele>42.0</ele><time>2026-04-22T07:32:58.999Z</time></trkpt><trkpt lat="42.31531837766436" lon="2.939392532958476"><ele>42.0</ele><time>2026-04-22T07:32:59.999Z</time></trkpt><trkpt lat="42.31536219527293" lon="2.939081312577611"><ele>42.0</ele><time>2026-04-22T07:33:00.999Z</time></trkpt><trkpt lat="42.31541427931529" lon="2.938776023567568"><ele>42.0</ele><time>2026-04-22T07:33:01.999Z</time></trkpt><trkpt lat="42.31548029830855" lon="2.938479331349274"><ele>42.0</ele><time>2026-04-22T07:33:02.999Z</time></trkpt><trkpt lat="42.31554753535603" lon="2.9382054475549935"><ele>42.0</ele><time>2026-04-22T07:33:03.999Z</time></trkpt><trkpt lat="42.315617798488496" lon="2.937949180473293"><ele>41.666666666666664</ele><time>2026-04-22T07:33:04.999Z</time></trkpt><trkpt lat="42.31569409983058" lon="2.937691500585568"><ele>41.33333333333333</ele><time>2026-04-22T07:33:05.999Z</time></trkpt><trkpt lat="42.315781601644" lon="2.9374520877810055"><ele>41.0</ele><time>2026-04-22T07:33:06.999Z</time></trkpt><trkpt lat="42.31587571094752" lon="2.937211584836185"><ele>41.0</ele><time>2026-04-22T07:33:07.999Z</time></trkpt><trkpt lat="42.31597531211393" lon="2.936972950843987"><ele>41.0</ele><time>2026-04-22T07:33:08.999Z</time></trkpt><trkpt lat="42.316083472229984" lon="2.9367452919527004"><ele>41.0</ele><time>2026-04-22T07:33:09.999Z</time></trkpt><trkpt lat="42.31619955287385" lon="2.936518895203974"><ele>41.0</ele><time>2026-04-22T07:33:10.999Z</time></trkpt><trkpt lat="42.316319659018916" lon="2.9362996270994257"><ele>41.0</ele><time>2026-04-22T07:33:11.999Z</time></trkpt><trkpt lat="42.31644432264698" lon="2.936080960456897"><ele>41.0</ele><time>2026-04-22T07:33:12.999Z</time></trkpt><trkpt lat="42.31657590228805" lon="2.9358654527572288"><ele>43.0</ele><time>2026-04-22T07:33:13.999Z</time></trkpt><trkpt lat="42.31670154476897" lon="2.9356573094517415"><ele>45.0</ele><time>2026-04-22T07:33:14.999Z</time></trkpt><trkpt lat="42.31682527318167" lon="2.9354414086902105"><ele>47.0</ele><time>2026-04-22T07:33:15.999Z</time></trkpt><trkpt lat="42.316941608741935" lon="2.9352371222318987"><ele>47.0</ele><time>2026-04-22T07:33:16.999Z</time></trkpt><trkpt lat="42.317059007735985" lon="2.9350376706219925"><ele>47.0</ele><time>2026-04-22T07:33:17.999Z</time></trkpt><trkpt lat="42.31717754442344" lon="2.934840691569565"><ele>47.0</ele><time>2026-04-22T07:33:18.999Z</time></trkpt><trkpt lat="42.31729311276857" lon="2.934651845323608"><ele>47.0</ele><time>2026-04-22T07:33:19.999Z</time></trkpt><trkpt lat="42.31740292541059" lon="2.9344709677684038"><ele>47.0</ele><time>2026-04-22T07:33:20.999Z</time></trkpt><trkpt lat="42.317516270337215" lon="2.934282581321311"><ele>47.0</ele><time>2026-04-22T07:33:21.999Z</time></trkpt><trkpt lat="42.31763302919134" lon="2.934084808523266"><ele>46.666666666666664</ele><time>2026-04-22T07:33:22.999Z</time></trkpt><trkpt lat="42.31774798880107" lon="2.9339004853804402"><ele>46.333333333333336</ele><time>2026-04-22T07:33:23.999Z</time></trkpt><trkpt lat="42.31785000919066" lon="2.933729300417673"><ele>46.0</ele><time>2026-04-22T07:33:24.999Z</time></trkpt><trkpt lat="42.31794777098265" lon="2.9335623261475554"><ele>46.0</ele><time>2026-04-22T07:33:25.999Z</time></trkpt><trkpt lat="42.31804774314689" lon="2.933392867502072"><ele>46.0</ele><time>2026-04-22T07:33:26.999Z</time></trkpt><trkpt lat="42.318148756664165" lon="2.9332203977483897"><ele>46.0</ele><time>2026-04-22T07:33:27.999Z</time></trkpt><trkpt lat="42.3182522173004" lon="2.9330422204158624"><ele>46.0</ele><time>2026-04-22T07:33:28.999Z</time></trkpt><trkpt lat="42.31835527463748" lon="2.932860793535013"><ele>46.0</ele><time>2026-04-22T07:33:29.999Z</time></trkpt><trkpt lat="42.31845130119476" lon="2.932695081574191"><ele>46.0</ele><time>2026-04-22T07:33:30.999Z</time></trkpt><trkpt lat="42.31854674694579" lon="2.9325384260513685"><ele>46.4</ele><time>2026-04-22T07:33:31.999Z</time></trkpt><trkpt lat="42.318637767149404" lon="2.932413645970995"><ele>46.8</ele><time>2026-04-22T07:33:32.999Z</time></trkpt><trkpt lat="42.31871250387811" lon="2.9322994852782363"><ele>47.199999999999996</ele><time>2026-04-22T07:33:33.999Z</time></trkpt><trkpt lat="42.318770286832695" lon="2.9322092731952183"><ele>47.599999999999994</ele><time>2026-04-22T07:33:34.999Z</time></trkpt><trkpt lat="42.31881831388569" lon="2.932136668982677"><ele>48.0</ele><time>2026-04-22T07:33:35.999Z</time></trkpt><trkpt lat="42.31886767945612" lon="2.9320583119364994"><ele>48.0</ele><time>2026-04-22T07:33:37.999Z</time></trkpt><trkpt lat="42.318924608913676" lon="2.932011053639048"><ele>48.0</ele><time>2026-04-22T07:33:41.998Z</time></trkpt><trkpt lat="42.31899370987358" lon="2.931953066782086"><ele>48.0</ele><time>2026-04-22T07:33:49.998Z</time></trkpt><trkpt lat="42.319142392120284" lon="2.9319060490182576"><ele>48.0</ele><time>2026-04-22T07:33:51.998Z</time></trkpt><trkpt lat="42.31923997611356" lon="2.9318719992158666"><ele>48.0</ele><time>2026-04-22T07:33:52.998Z</time></trkpt><trkpt lat="42.31932436885718" lon="2.931792415369057"><ele>47.599999999999994</ele><time>2026-04-22T07:33:54Z</time></trkpt><trkpt lat="42.319387904951434" lon="2.9316725149375773"><ele>47.199999999999996</ele><time>2026-04-22T07:33:55Z</time></trkpt><trkpt lat="42.31943904874068" lon="2.9315666550373916"><ele>46.8</ele><time>2026-04-22T07:33:56Z</time></trkpt><trkpt lat="42.31950608401665" lon="2.9314764108421945"><ele>46.4</ele><time>2026-04-22T07:33:57Z</time></trkpt><trkpt lat="42.319593238769684" lon="2.9314103248521146"><ele>46.0</ele><time>2026-04-22T07:33:58Z</time></trkpt><trkpt lat="42.319660828931944" lon="2.9313527740814886"><ele>46.0</ele><time>2026-04-22T07:33:59Z</time></trkpt><trkpt lat="42.31976226292383" lon="2.9313402135647517"><ele>46.0</ele><time>2026-04-22T07:34:00Z</time></trkpt><trkpt lat="42.31985749847948" lon="2.9313263196395445"><ele>46.0</ele><time>2026-04-22T07:34:01Z</time></trkpt><trkpt lat="42.31995744114555" lon="2.931308992659857"><ele>46.0</ele><time>2026-04-22T07:34:02Z</time></trkpt><trkpt lat="42.320057688162485" lon="2.931294913199027"><ele>46.0</ele><time>2026-04-22T07:34:03Z</time></trkpt><trkpt lat="42.32016440949767" lon="2.931284505320889"><ele>46.0</ele><time>2026-04-22T07:34:04Z</time></trkpt><trkpt lat="42.3202878627323" lon="2.9312803646442394"><ele>46.0</ele><time>2026-04-22T07:34:05Z</time></trkpt><trkpt lat="42.32042838966993" lon="2.9312873453656736"><ele>46.0</ele><time>2026-04-22T07:34:06Z</time></trkpt><trkpt lat="42.32058699866018" lon="2.9313158211342354"><ele>46.0</ele><time>2026-04-22T07:34:07Z</time></trkpt><trkpt lat="42.320757993590526" lon="2.9313951466763846"><ele>46.0</ele><time>2026-04-22T07:34:08Z</time></trkpt><trkpt lat="42.32095432755524" lon="2.931471054124628"><ele>46.0</ele><time>2026-04-22T07:34:09Z</time></trkpt><trkpt lat="42.321142567764596" lon="2.931607989982249"><ele>46.0</ele><time>2026-04-22T07:34:10Z</time></trkpt><trkpt lat="42.32133216945476" lon="2.931788661598615"><ele>45.333333333333336</ele><time>2026-04-22T07:34:11Z</time></trkpt><trkpt lat="42.321521071725925" lon="2.9319724243353837"><ele>44.666666666666664</ele><time>2026-04-22T07:34:12Z</time></trkpt><trkpt lat="42.32170302339822" lon="2.932129368795323"><ele>44.0</ele><time>2026-04-22T07:34:13Z</time></trkpt><trkpt lat="42.32188031818547" lon="2.9322537133335445"><ele>44.0</ele><time>2026-04-22T07:34:14Z</time></trkpt><trkpt lat="42.32203942428453" lon="2.9323748160500447"><ele>44.0</ele><time>2026-04-22T07:34:15Z</time></trkpt><trkpt lat="42.32217649537669" lon="2.932496243305116"><ele>44.0</ele><time>2026-04-22T07:34:16Z</time></trkpt><trkpt lat="42.322318909408565" lon="2.932609828384165"><ele>44.33333333333333</ele><time>2026-04-22T07:34:17Z</time></trkpt><trkpt lat="42.32245373705101" lon="2.93271286695376"><ele>44.666666666666664</ele><time>2026-04-22T07:34:18Z</time></trkpt><trkpt lat="42.322589213324825" lon="2.9328096657176017"><ele>45.0</ele><time>2026-04-22T07:34:19Z</time></trkpt><trkpt lat="42.32271691446518" lon="2.9328944068036344"><ele>45.0</ele><time>2026-04-22T07:34:20Z</time></trkpt><trkpt lat="42.322851500278865" lon="2.9329652971336864"><ele>45.0</ele><time>2026-04-22T07:34:21Z</time></trkpt><trkpt lat="42.32299312665778" lon="2.9330203314785472"><ele>45.0</ele><time>2026-04-22T07:34:22Z</time></trkpt><trkpt lat="42.32313975126599" lon="2.933052629061211"><ele>45.0</ele><time>2026-04-22T07:34:23Z</time></trkpt><trkpt lat="42.323292732778135" lon="2.9330740820704913"><ele>44.333333333333336</ele><time>2026-04-22T07:34:24Z</time></trkpt><trkpt lat="42.32344545707326" lon="2.933095658660455"><ele>43.66666666666667</ele><time>2026-04-22T07:34:25Z</time></trkpt><trkpt lat="42.32360061792519" lon="2.9331130600185644"><ele>43.0</ele><time>2026-04-22T07:34:26Z</time></trkpt><trkpt lat="42.32375838655354" lon="2.9331248755364645"><ele>42.0</ele><time>2026-04-22T07:34:27Z</time></trkpt><trkpt lat="42.323921632549784" lon="2.9331483029518806"><ele>41.0</ele><time>2026-04-22T07:34:28Z</time></trkpt><trkpt lat="42.32408745196895" lon="2.9331726954675115"><ele>40.0</ele><time>2026-04-22T07:34:29Z</time></trkpt><trkpt lat="42.32424394312992" lon="2.933194363424008"><ele>40.0</ele><time>2026-04-22T07:34:30Z</time></trkpt><trkpt lat="42.32439749145193" lon="2.933213987626769"><ele>40.0</ele><time>2026-04-22T07:34:31Z</time></trkpt><trkpt lat="42.32454755892899" lon="2.933228560273154"><ele>40.0</ele><time>2026-04-22T07:34:32Z</time></trkpt><trkpt lat="42.32469724179878" lon="2.933240671368922"><ele>41.0</ele><time>2026-04-22T07:34:33Z</time></trkpt><trkpt lat="42.32485104908669" lon="2.933255740409076"><ele>42.0</ele><time>2026-04-22T07:34:34Z</time></trkpt><trkpt lat="42.325003824111036" lon="2.933272824612021"><ele>43.0</ele><time>2026-04-22T07:34:35Z</time></trkpt><trkpt lat="42.325157182839234" lon="2.933284875894539"><ele>43.0</ele><time>2026-04-22T07:34:36Z</time></trkpt><trkpt lat="42.325305324220494" lon="2.9332959588948535"><ele>43.0</ele><time>2026-04-22T07:34:37Z</time></trkpt><trkpt lat="42.32545089511469" lon="2.9333126005033594"><ele>43.0</ele><time>2026-04-22T07:34:38Z</time></trkpt><trkpt lat="42.325593034735085" lon="2.933325990195036"><ele>43.0</ele><time>2026-04-22T07:34:39Z</time></trkpt><trkpt lat="42.32573508657552" lon="2.933336060095878"><ele>42.75</ele><time>2026-04-22T07:34:40Z</time></trkpt><trkpt lat="42.325878421788" lon="2.933339907277405"><ele>42.5</ele><time>2026-04-22T07:34:41Z</time></trkpt><trkpt lat="42.32602310140352" lon="2.933337090624432"><ele>42.25</ele><time>2026-04-22T07:34:41.999Z</time></trkpt><trkpt lat="42.326168850754534" lon="2.9333214555557277"><ele>42.0</ele><time>2026-04-22T07:34:42.999Z</time></trkpt><trkpt lat="42.32631440694613" lon="2.93329745409426"><ele>42.333333333333336</ele><time>2026-04-22T07:34:43.999Z</time></trkpt><trkpt lat="42.32646069047419" lon="2.933258730828427"><ele>42.66666666666667</ele><time>2026-04-22T07:34:44.999Z</time></trkpt><trkpt lat="42.32661307769176" lon="2.933203267058484"><ele>43.0</ele><time>2026-04-22T07:34:45.999Z</time></trkpt><trkpt lat="42.32676689451281" lon="2.9331309857630754"><ele>43.0</ele><time>2026-04-22T07:34:46.999Z</time></trkpt><trkpt lat="42.32691745091376" lon="2.933045246980767"><ele>43.0</ele><time>2026-04-22T07:34:47.999Z</time></trkpt><trkpt lat="42.327062881825235" lon="2.932947540659191"><ele>43.0</ele><time>2026-04-22T07:34:48.999Z</time></trkpt><trkpt lat="42.32720333063797" lon="2.9328297264339227"><ele>42.333333333333336</ele><time>2026-04-22T07:34:49.999Z</time></trkpt><trkpt lat="42.32733715055183" lon="2.932707005342152"><ele>41.666666666666664</ele><time>2026-04-22T07:34:50.999Z</time></trkpt><trkpt lat="42.327458172311495" lon="2.9325738251732214"><ele>41.0</ele><time>2026-04-22T07:34:51.999Z</time></trkpt><trkpt lat="42.32756597364475" lon="2.9324371340087954"><ele>41.0</ele><time>2026-04-22T07:34:52.999Z</time></trkpt><trkpt lat="42.32766700708578" lon="2.9323029382674135"><ele>41.0</ele><time>2026-04-22T07:34:53.999Z</time></trkpt><trkpt lat="42.32776882535846" lon="2.932164933435973"><ele>41.0</ele><time>2026-04-22T07:34:54.999Z</time></trkpt><trkpt lat="42.32786865809804" lon="2.932028732681706"><ele>41.0</ele><time>2026-04-22T07:34:55.999Z</time></trkpt><trkpt lat="42.3279639661752" lon="2.931898621695734"><ele>41.0</ele><time>2026-04-22T07:34:56.999Z</time></trkpt><trkpt lat="42.32805204236575" lon="2.9317790718440477"><ele>41.0</ele><time>2026-04-22T07:34:57.999Z</time></trkpt><trkpt lat="42.32813722015388" lon="2.9316648033856896"><ele>41.0</ele><time>2026-04-22T07:34:58.999Z</time></trkpt><trkpt lat="42.328220480868346" lon="2.9315536265661652"><ele>41.0</ele><time>2026-04-22T07:34:59.999Z</time></trkpt><trkpt lat="42.32830166564112" lon="2.9314470211082093"><ele>41.199999999999996</ele><time>2026-04-22T07:35:00.999Z</time></trkpt><trkpt lat="42.32837250608138" lon="2.9313491778611405"><ele>41.4</ele><time>2026-04-22T07:35:01.999Z</time></trkpt><trkpt lat="42.32843852287058" lon="2.9312583458589403"><ele>41.6</ele><time>2026-04-22T07:35:02.999Z</time></trkpt><trkpt lat="42.32849780977827" lon="2.9311764286592727"><ele>41.8</ele><time>2026-04-22T07:35:03.999Z</time></trkpt><trkpt lat="42.32855670378664" lon="2.9310953666468667"><ele>42.0</ele><time>2026-04-22T07:35:04.999Z</time></trkpt><trkpt lat="42.32861907563671" lon="2.9310098500880417"><ele>42.0</ele><time>2026-04-22T07:35:05.999Z</time></trkpt><trkpt lat="42.32867955697672" lon="2.9309290596817243"><ele>42.0</ele><time>2026-04-22T07:35:06.999Z</time></trkpt><trkpt lat="42.32873974444795" lon="2.9308503855732333"><ele>42.0</ele><time>2026-04-22T07:35:07.999Z</time></trkpt><trkpt lat="42.328803845934345" lon="2.930768270823765"><ele>42.0</ele><time>2026-04-22T07:35:08.999Z</time></trkpt><trkpt lat="42.32886838282191" lon="2.930677553690176"><ele>42.0</ele><time>2026-04-22T07:35:09.999Z</time></trkpt><trkpt lat="42.328940070153976" lon="2.930582671625922"><ele>42.25</ele><time>2026-04-22T07:35:10.999Z</time></trkpt><trkpt lat="42.32901125207612" lon="2.930481587462372"><ele>42.5</ele><time>2026-04-22T07:35:11.999Z</time></trkpt><trkpt lat="42.32909108266995" lon="2.9303700457087443"><ele>42.75</ele><time>2026-04-22T07:35:12.999Z</time></trkpt><trkpt lat="42.32917664961664" lon="2.930259519790521"><ele>43.0</ele><time>2026-04-22T07:35:13.999Z</time></trkpt><trkpt lat="42.329269699705705" lon="2.93013146462328"><ele>43.333333333333336</ele><time>2026-04-22T07:35:14.999Z</time></trkpt><trkpt lat="42.32937227131325" lon="2.92999012421055"><ele>43.666666666666664</ele><time>2026-04-22T07:35:15.999Z</time></trkpt><trkpt lat="42.329486380778235" lon="2.9298412206638575"><ele>44.0</ele><time>2026-04-22T07:35:16.999Z</time></trkpt><trkpt lat="42.32960281803838" lon="2.9296827789007"><ele>44.0</ele><time>2026-04-22T07:35:17.999Z</time></trkpt><trkpt lat="42.329707115669194" lon="2.9295313012702966"><ele>44.0</ele><time>2026-04-22T07:35:18.999Z</time></trkpt><trkpt lat="42.32980051549372" lon="2.9293801486599693"><ele>44.0</ele><time>2026-04-22T07:35:19.999Z</time></trkpt><trkpt lat="42.3298830945585" lon="2.9292326621559654"><ele>44.0</ele><time>2026-04-22T07:35:20.999Z</time></trkpt><trkpt lat="42.329961101513334" lon="2.929093527179219"><ele>44.0</ele><time>2026-04-22T07:35:21.999Z</time></trkpt><trkpt lat="42.33003659354935" lon="2.928957872501602"><ele>44.0</ele><time>2026-04-22T07:35:22.999Z</time></trkpt><trkpt lat="42.330113066396734" lon="2.9288170143557655"><ele>44.0</ele><time>2026-04-22T07:35:23.999Z</time></trkpt><trkpt lat="42.33018844303038" lon="2.928674857914576"><ele>44.0</ele><time>2026-04-22T07:35:24.999Z</time></trkpt><trkpt lat="42.33025734541639" lon="2.928543684779233"><ele>44.0</ele><time>2026-04-22T07:35:25.999Z</time></trkpt><trkpt lat="42.33032658864147" lon="2.9284168268553876"><ele>44.0</ele><time>2026-04-22T07:35:26.999Z</time></trkpt><trkpt lat="42.330394706502375" lon="2.92828954099794"><ele>44.0</ele><time>2026-04-22T07:35:27.999Z</time></trkpt><trkpt lat="42.33046150924443" lon="2.928161519196831"><ele>44.0</ele><time>2026-04-22T07:35:28.999Z</time></trkpt><trkpt lat="42.33053347575746" lon="2.928029342553792"><ele>43.75</ele><time>2026-04-22T07:35:29.999Z</time></trkpt><trkpt lat="42.33060740710254" lon="2.927893784741981"><ele>43.5</ele><time>2026-04-22T07:35:30.999Z</time></trkpt><trkpt lat="42.33068666092544" lon="2.927750792493245"><ele>43.25</ele><time>2026-04-22T07:35:31.999Z</time></trkpt><trkpt lat="42.330766710953135" lon="2.9276038495715926"><ele>43.0</ele><time>2026-04-22T07:35:32.999Z</time></trkpt><trkpt lat="42.33084750923889" lon="2.9274599928571217"><ele>43.0</ele><time>2026-04-22T07:35:33.999Z</time></trkpt><trkpt lat="42.33092832152637" lon="2.9273154885154278"><ele>43.0</ele><time>2026-04-22T07:35:34.999Z</time></trkpt><trkpt lat="42.33102119136013" lon="2.92716298228411"><ele>43.0</ele><time>2026-04-22T07:35:35.999Z</time></trkpt><trkpt lat="42.33111671260502" lon="2.9270112257873118"><ele>43.0</ele><time>2026-04-22T07:35:36.999Z</time></trkpt><trkpt lat="42.33114008152074" lon="2.9269099680290984"><ele>43.0</ele><time>2026-04-22T07:35:37.999Z</time></trkpt><trkpt lat="42.33121636871928" lon="2.9267685127962846"><ele>43.0</ele><time>2026-04-22T07:35:38.999Z</time></trkpt><trkpt lat="42.33129532896889" lon="2.9266156530975653"><ele>43.0</ele><time>2026-04-22T07:35:39.999Z</time></trkpt><trkpt lat="42.331379239043024" lon="2.926454238833891"><ele>43.0</ele><time>2026-04-22T07:35:40.999Z</time></trkpt><trkpt lat="42.33147299335888" lon="2.926285887119657"><ele>43.66666666666667</ele><time>2026-04-22T07:35:41.998Z</time></trkpt><trkpt lat="42.331562093784356" lon="2.926113449941236"><ele>44.333333333333336</ele><time>2026-04-22T07:35:42.998Z</time></trkpt><trkpt lat="42.33165071389388" lon="2.925947891931213"><ele>45.0</ele><time>2026-04-22T07:35:43.998Z</time></trkpt><trkpt lat="42.33173729943609" lon="2.9257797725747166"><ele>45.25</ele><time>2026-04-22T07:35:44.998Z</time></trkpt><trkpt lat="42.331814150001335" lon="2.9256092304435652"><ele>45.5</ele><time>2026-04-22T07:35:45.998Z</time></trkpt><trkpt lat="42.33188937788075" lon="2.92544047679118"><ele>45.75</ele><time>2026-04-22T07:35:46.998Z</time></trkpt><trkpt lat="42.33196192374946" lon="2.9252731482339813"><ele>46.0</ele><time>2026-04-22T07:35:47.998Z</time></trkpt><trkpt lat="42.33203049723945" lon="2.925113709524281"><ele>46.25</ele><time>2026-04-22T07:35:48.998Z</time></trkpt><trkpt lat="42.33209626442524" lon="2.924966761401287"><ele>46.5</ele><time>2026-04-22T07:35:49.998Z</time></trkpt><trkpt lat="42.33216062510424" lon="2.9248181028304505"><ele>46.75</ele><time>2026-04-22T07:35:50.998Z</time></trkpt><trkpt lat="42.3322256582213" lon="2.9246669244464814"><ele>47.0</ele><time>2026-04-22T07:35:51.998Z</time></trkpt><trkpt lat="42.332293728658115" lon="2.9245202055310404"><ele>46.75</ele><time>2026-04-22T07:35:52.998Z</time></trkpt><trkpt lat="42.332361755379765" lon="2.9243777826732282"><ele>46.5</ele><time>2026-04-22T07:35:53.998Z</time></trkpt><trkpt lat="42.33242983794394" lon="2.924233036702939"><ele>46.25</ele><time>2026-04-22T07:35:54.998Z</time></trkpt><trkpt lat="42.33249749907977" lon="2.9240977065764757"><ele>46.0</ele><time>2026-04-22T07:35:55.998Z</time></trkpt><trkpt lat="42.33256629641755" lon="2.923958859188335"><ele>46.0</ele><time>2026-04-22T07:35:56.998Z</time></trkpt><trkpt lat="42.33264186463348" lon="2.9238220594554933"><ele>46.0</ele><time>2026-04-22T07:35:57.998Z</time></trkpt><trkpt lat="42.332723689052784" lon="2.9236828489379083"><ele>46.0</ele><time>2026-04-22T07:35:58.998Z</time></trkpt><trkpt lat="42.332820112372744" lon="2.9235558446398744"><ele>46.0</ele><time>2026-04-22T07:36:00Z</time></trkpt><trkpt lat="42.33291105858212" lon="2.923435274542127"><ele>46.0</ele><time>2026-04-22T07:36:01Z</time></trkpt><trkpt lat="42.33300749361337" lon="2.923310439107648"><ele>46.0</ele><time>2026-04-22T07:36:02Z</time></trkpt><trkpt lat="42.33310523971499" lon="2.9232072340700737"><ele>46.0</ele><time>2026-04-22T07:36:03Z</time></trkpt><trkpt lat="42.33318974994055" lon="2.9230869594830726"><ele>46.0</ele><time>2026-04-22T07:36:04Z</time></trkpt><trkpt lat="42.33327711571259" lon="2.9229967428241306"><ele>45.75</ele><time>2026-04-22T07:36:05Z</time></trkpt><trkpt lat="42.333365922481406" lon="2.922931559782525"><ele>45.5</ele><time>2026-04-22T07:36:06Z</time></trkpt><trkpt lat="42.333448680318014" lon="2.922855125988277"><ele>45.25</ele><time>2026-04-22T07:36:07Z</time></trkpt><trkpt lat="42.333540759077145" lon="2.9227791456508148"><ele>45.0</ele><time>2026-04-22T07:36:08Z</time></trkpt><trkpt lat="42.333511457053156" lon="2.9224356427147953"><ele>45.666666666666664</ele><time>2026-04-22T07:36:09Z</time></trkpt><trkpt lat="42.33354124145307" lon="2.922202159629954"><ele>46.33333333333333</ele><time>2026-04-22T07:36:10Z</time></trkpt><trkpt lat="42.33358946104406" lon="2.9219572148416266"><ele>47.0</ele><time>2026-04-22T07:36:11Z</time></trkpt><trkpt lat="42.33365180449891" lon="2.9217065915163727"><ele>47.0</ele><time>2026-04-22T07:36:12Z</time></trkpt><trkpt lat="42.33371406298622" lon="2.9214503499100175"><ele>47.0</ele><time>2026-04-22T07:36:13Z</time></trkpt><trkpt lat="42.33377883075645" lon="2.9211905990262057"><ele>47.0</ele><time>2026-04-22T07:36:14Z</time></trkpt><trkpt lat="42.333848448655296" lon="2.9209187197974726"><ele>46.5</ele><time>2026-04-22T07:36:15Z</time></trkpt><trkpt lat="42.33391754330907" lon="2.920631558802253"><ele>46.0</ele><time>2026-04-22T07:36:16Z</time></trkpt><trkpt lat="42.33398507598328" lon="2.9203349043418747"><ele>46.0</ele><time>2026-04-22T07:36:17Z</time></trkpt><trkpt lat="42.33405602031595" lon="2.9200226739619057"><ele>46.0</ele><time>2026-04-22T07:36:18Z</time></trkpt><trkpt lat="42.33413182195935" lon="2.9197016208609097"><ele>46.0</ele><time>2026-04-22T07:36:19Z</time></trkpt><trkpt lat="42.33421135910848" lon="2.919376241175967"><ele>46.0</ele><time>2026-04-22T07:36:20Z</time></trkpt><trkpt lat="42.33429267511577" lon="2.9190417457513904"><ele>46.0</ele><time>2026-04-22T07:36:21Z</time></trkpt><trkpt lat="42.334373649249024" lon="2.9186982879957473"><ele>46.0</ele><time>2026-04-22T07:36:22Z</time></trkpt><trkpt lat="42.334456820173" lon="2.918344813061063"><ele>46.0</ele><time>2026-04-22T07:36:23Z</time></trkpt><trkpt lat="42.33454048282752" lon="2.917982831839016"><ele>46.0</ele><time>2026-04-22T07:36:24Z</time></trkpt><trkpt lat="42.33462535307775" lon="2.9176145770335236"><ele>48.0</ele><time>2026-04-22T07:36:25Z</time></trkpt><trkpt lat="42.334711743356465" lon="2.917244355067225"><ele>50.0</ele><time>2026-04-22T07:36:26Z</time></trkpt><trkpt lat="42.334799004358416" lon="2.9168738610987046"><ele>49.5</ele><time>2026-04-22T07:36:27Z</time></trkpt><trkpt lat="42.33488143437306" lon="2.916505160846246"><ele>49.0</ele><time>2026-04-22T07:36:28Z</time></trkpt><trkpt lat="42.33496404394784" lon="2.9161201418811404"><ele>49.5</ele><time>2026-04-22T07:36:29Z</time></trkpt><trkpt lat="42.335047167082266" lon="2.9157364728845816"><ele>50.0</ele><time>2026-04-22T07:36:30Z</time></trkpt><trkpt lat="42.33512688569369" lon="2.9153492893861963"><ele>51.0</ele><time>2026-04-22T07:36:31Z</time></trkpt><trkpt lat="42.335203770652065" lon="2.9149743831983206"><ele>52.0</ele><time>2026-04-22T07:36:32Z</time></trkpt><trkpt lat="42.335275979863425" lon="2.914630285959756"><ele>52.0</ele><time>2026-04-22T07:36:33Z</time></trkpt><trkpt lat="42.33535369087874" lon="2.9142826231543038"><ele>52.0</ele><time>2026-04-22T07:36:34Z</time></trkpt><trkpt lat="42.33543997570685" lon="2.913939316514844"><ele>52.5</ele><time>2026-04-22T07:36:35Z</time></trkpt><trkpt lat="42.33553001815917" lon="2.9136102118613514"><ele>53.0</ele><time>2026-04-22T07:36:36Z</time></trkpt><trkpt lat="42.33561685627997" lon="2.913284014505374"><ele>53.0</ele><time>2026-04-22T07:36:37Z</time></trkpt><trkpt lat="42.335682827079545" lon="2.9129489180217387"><ele>53.0</ele><time>2026-04-22T07:36:38Z</time></trkpt><trkpt lat="42.335728241182004" lon="2.9126109121713797"><ele>55.0</ele><time>2026-04-22T07:36:39Z</time></trkpt><trkpt lat="42.33574982372272" lon="2.912289882922134"><ele>57.0</ele><time>2026-04-22T07:36:40Z</time></trkpt><trkpt lat="42.3357680927953" lon="2.9119684467459157"><ele>56.33333333333333</ele><time>2026-04-22T07:36:41Z</time></trkpt><trkpt lat="42.33578015009757" lon="2.9116735035660324"><ele>55.666666666666664</ele><time>2026-04-22T07:36:42Z</time></trkpt><trkpt lat="42.335815711200894" lon="2.911385859358384"><ele>55.0</ele><time>2026-04-22T07:36:43Z</time></trkpt><trkpt lat="42.335888587399566" lon="2.9111007998569605"><ele>54.666666666666664</ele><time>2026-04-22T07:36:43.999Z</time></trkpt><trkpt lat="42.33599413153151" lon="2.9108337838002916"><ele>54.33333333333333</ele><time>2026-04-22T07:36:44.999Z</time></trkpt><trkpt lat="42.336144327509224" lon="2.9106231446041746"><ele>54.0</ele><time>2026-04-22T07:36:45.999Z</time></trkpt><trkpt lat="42.33630656484719" lon="2.910417407669519"><ele>53.66666666666667</ele><time>2026-04-22T07:36:46.999Z</time></trkpt><trkpt lat="42.336476092583894" lon="2.9102589535036487"><ele>53.333333333333336</ele><time>2026-04-22T07:36:47.999Z</time></trkpt><trkpt lat="42.33664034459711" lon="2.910091153215197"><ele>53.0</ele><time>2026-04-22T07:36:48.999Z</time></trkpt><trkpt lat="42.336779225707225" lon="2.909887452297867"><ele>53.0</ele><time>2026-04-22T07:36:49.999Z</time></trkpt><trkpt lat="42.33689254918316" lon="2.9096265829096772"><ele>53.0</ele><time>2026-04-22T07:36:50.999Z</time></trkpt><trkpt lat="42.33698413079952" lon="2.9093430070963406"><ele>54.0</ele><time>2026-04-22T07:36:51.999Z</time></trkpt><trkpt lat="42.3370450298742" lon="2.90903974908918"><ele>55.0</ele><time>2026-04-22T07:36:52.999Z</time></trkpt><trkpt lat="42.337113820490906" lon="2.908731673717198"><ele>55.0</ele><time>2026-04-22T07:36:53.999Z</time></trkpt><trkpt lat="42.33717247845038" lon="2.908442514751911"><ele>55.0</ele><time>2026-04-22T07:36:54.999Z</time></trkpt><trkpt lat="42.33723429623635" lon="2.9081595475372155"><ele>55.0</ele><time>2026-04-22T07:36:55.999Z</time></trkpt><trkpt lat="42.33728433970039" lon="2.9078725717218736"><ele>57.0</ele><time>2026-04-22T07:36:56.999Z</time></trkpt><trkpt lat="42.337302127484705" lon="2.907580987436229"><ele>59.0</ele><time>2026-04-22T07:36:57.999Z</time></trkpt><trkpt lat="42.3372792606122" lon="2.9072774328365414"><ele>61.0</ele><time>2026-04-22T07:36:58.999Z</time></trkpt><trkpt lat="42.337222841833054" lon="2.90697137025314"><ele>65.0</ele><time>2026-04-22T07:36:59.999Z</time></trkpt><trkpt lat="42.33713457452953" lon="2.9066730032771777"><ele>69.0</ele><time>2026-04-22T07:37:00.999Z</time></trkpt><trkpt lat="42.33705991496053" lon="2.9063834970272175"><ele>69.0</ele><time>2026-04-22T07:37:01.999Z</time></trkpt><trkpt lat="42.3370235006915" lon="2.9060853801888085"><ele>69.0</ele><time>2026-04-22T07:37:02.999Z</time></trkpt><trkpt lat="42.33702814337965" lon="2.905799662578711"><ele>69.0</ele><time>2026-04-22T07:37:03.999Z</time></trkpt><trkpt lat="42.337080362693754" lon="2.905504162046352"><ele>68.0</ele><time>2026-04-22T07:37:04.999Z</time></trkpt><trkpt lat="42.33716018766379" lon="2.905209641454238"><ele>67.0</ele><time>2026-04-22T07:37:05.999Z</time></trkpt><trkpt lat="42.337260941299476" lon="2.904915283777185"><ele>64.0</ele><time>2026-04-22T07:37:06.999Z</time></trkpt><trkpt lat="42.33734827178973" lon="2.9046231113575933"><ele>61.0</ele><time>2026-04-22T07:37:07.999Z</time></trkpt><trkpt lat="42.33741267665964" lon="2.904338939151952"><ele>62.0</ele><time>2026-04-22T07:37:08.999Z</time></trkpt><trkpt lat="42.3374400685004" lon="2.9040293728487807"><ele>63.0</ele><time>2026-04-22T07:37:09.999Z</time></trkpt><trkpt lat="42.33744032377973" lon="2.903715577586594"><ele>64.0</ele><time>2026-04-22T07:37:10.999Z</time></trkpt><trkpt lat="42.33742741799229" lon="2.9033935355479352"><ele>65.0</ele><time>2026-04-22T07:37:11.999Z</time></trkpt><trkpt lat="42.33740222859951" lon="2.9030883826822245"><ele>65.0</ele><time>2026-04-22T07:37:12.999Z</time></trkpt><trkpt lat="42.337394382289894" lon="2.9028177319763295"><ele>65.0</ele><time>2026-04-22T07:37:13.999Z</time></trkpt><trkpt lat="42.337393642385074" lon="2.9025466898707197"><ele>65.0</ele><time>2026-04-22T07:37:14.999Z</time></trkpt><trkpt lat="42.337425743961255" lon="2.902266755678359"><ele>65.66666666666667</ele><time>2026-04-22T07:37:15.999Z</time></trkpt><trkpt lat="42.33748563903363" lon="2.9019856659345136"><ele>66.33333333333333</ele><time>2026-04-22T07:37:16.999Z</time></trkpt><trkpt lat="42.33754940038256" lon="2.9016972558479033"><ele>67.0</ele><time>2026-04-22T07:37:17.999Z</time></trkpt><trkpt lat="42.337592856183726" lon="2.901398165584572"><ele>67.0</ele><time>2026-04-22T07:37:18.999Z</time></trkpt><trkpt lat="42.337611729155896" lon="2.9010998739507836"><ele>67.0</ele><time>2026-04-22T07:37:19.999Z</time></trkpt><trkpt lat="42.33762634647718" lon="2.9008356176423598"><ele>67.0</ele><time>2026-04-22T07:37:20.999Z</time></trkpt><trkpt lat="42.33763546460042" lon="2.9005882115567982"><ele>67.0</ele><time>2026-04-22T07:37:21.999Z</time></trkpt><trkpt lat="42.33763874201973" lon="2.9003485855961086"><ele>67.0</ele><time>2026-04-22T07:37:22.999Z</time></trkpt><trkpt lat="42.33756970421464" lon="2.9001130278787275"><ele>67.0</ele><time>2026-04-22T07:37:23.999Z</time></trkpt><trkpt lat="42.33751600246472" lon="2.8998942972246704"><ele>66.33333333333333</ele><time>2026-04-22T07:37:24.999Z</time></trkpt><trkpt lat="42.33746902222407" lon="2.8996946870191618"><ele>65.66666666666667</ele><time>2026-04-22T07:37:25.999Z</time></trkpt><trkpt lat="42.33742555105205" lon="2.8994982184976728"><ele>65.0</ele><time>2026-04-22T07:37:26.999Z</time></trkpt><trkpt lat="42.33737080713135" lon="2.899291657575577"><ele>64.66666666666667</ele><time>2026-04-22T07:37:27.999Z</time></trkpt><trkpt lat="42.337312489188484" lon="2.8990851740264345"><ele>64.33333333333333</ele><time>2026-04-22T07:37:28.999Z</time></trkpt><trkpt lat="42.337251742074415" lon="2.898880955522149"><ele>64.0</ele><time>2026-04-22T07:37:29.999Z</time></trkpt><trkpt lat="42.33720215372716" lon="2.8987114440009027"><ele>64.33333333333333</ele><time>2026-04-22T07:37:30.999Z</time></trkpt><trkpt lat="42.337162573512" lon="2.8985838806287663"><ele>64.66666666666666</ele><time>2026-04-22T07:37:31.999Z</time></trkpt><trkpt lat="42.337120935125355" lon="2.8984742500505196"><ele>65.0</ele><time>2026-04-22T07:37:32.999Z</time></trkpt><trkpt lat="42.33708417445326" lon="2.8983971962334794"><ele>65.33333333333333</ele><time>2026-04-22T07:37:33.999Z</time></trkpt><trkpt lat="42.33702920754261" lon="2.8983322756971313"><ele>65.66666666666667</ele><time>2026-04-22T07:37:34.999Z</time></trkpt><trkpt lat="42.336960596308" lon="2.8982648635589316"><ele>66.0</ele><time>2026-04-22T07:37:35.999Z</time></trkpt><trkpt lat="42.33688008791943" lon="2.898201716609463"><ele>66.0</ele><time>2026-04-22T07:37:36.999Z</time></trkpt><trkpt lat="42.33679098174408" lon="2.8981441470410823"><ele>66.0</ele><time>2026-04-22T07:37:37.999Z</time></trkpt><trkpt lat="42.336700214066546" lon="2.898065945984971"><ele>66.0</ele><time>2026-04-22T07:37:38.999Z</time></trkpt><trkpt lat="42.33662243112106" lon="2.897934326760006"><ele>66.0</ele><time>2026-04-22T07:37:39.999Z</time></trkpt><trkpt lat="42.3365789933262" lon="2.8977618079248715"><ele>65.0</ele><time>2026-04-22T07:37:40.999Z</time></trkpt><trkpt lat="42.33657712707779" lon="2.897547853113892"><ele>64.0</ele><time>2026-04-22T07:37:41.999Z</time></trkpt><trkpt lat="42.33658954334336" lon="2.897308853434138"><ele>63.0</ele><time>2026-04-22T07:37:42.999Z</time></trkpt><trkpt lat="42.33659022569332" lon="2.8970576430455046"><ele>63.0</ele><time>2026-04-22T07:37:43.998Z</time></trkpt><trkpt lat="42.33658351356742" lon="2.8968316301176706"><ele>63.0</ele><time>2026-04-22T07:37:44.998Z</time></trkpt><trkpt lat="42.33658109661578" lon="2.8966584736907075"><ele>63.0</ele><time>2026-04-22T07:37:45.998Z</time></trkpt><trkpt lat="42.336578449254745" lon="2.8964951685845497"><ele>63.0</ele><time>2026-04-22T07:37:46.998Z</time></trkpt><trkpt lat="42.336577449738776" lon="2.8963329181681496"><ele>63.25</ele><time>2026-04-22T07:37:47.998Z</time></trkpt><trkpt lat="42.3365795419219" lon="2.896146441303018"><ele>63.5</ele><time>2026-04-22T07:37:48.998Z</time></trkpt><trkpt lat="42.33658528542066" lon="2.895955060759362"><ele>63.75</ele><time>2026-04-22T07:37:49.998Z</time></trkpt><trkpt lat="42.3366001978663" lon="2.895748498916348"><ele>64.0</ele><time>2026-04-22T07:37:50.998Z</time></trkpt><trkpt lat="42.336631778935235" lon="2.895535054528608"><ele>64.0</ele><time>2026-04-22T07:37:51.998Z</time></trkpt><trkpt lat="42.33667459095196" lon="2.8953209898975802"><ele>64.0</ele><time>2026-04-22T07:37:52.998Z</time></trkpt><trkpt lat="42.33672073696244" lon="2.8951070274407664"><ele>64.0</ele><time>2026-04-22T07:37:53.998Z</time></trkpt><trkpt lat="42.33677154246573" lon="2.8948883289722414"><ele>65.0</ele><time>2026-04-22T07:37:54.998Z</time></trkpt><trkpt lat="42.33682573517599" lon="2.89468097916475"><ele>66.0</ele><time>2026-04-22T07:37:55.998Z</time></trkpt><trkpt lat="42.336901187701905" lon="2.8944867740511575"><ele>67.0</ele><time>2026-04-22T07:37:56.998Z</time></trkpt><trkpt lat="42.337000329579816" lon="2.894303677488554"><ele>67.75</ele><time>2026-04-22T07:37:57.998Z</time></trkpt><trkpt lat="42.337092651259844" lon="2.8941385287194654"><ele>68.5</ele><time>2026-04-22T07:37:58.998Z</time></trkpt><trkpt lat="42.3371826188227" lon="2.8939755479555584"><ele>69.25</ele><time>2026-04-22T07:37:59.998Z</time></trkpt><trkpt lat="42.337253427811" lon="2.8938259867512"><ele>70.0</ele><time>2026-04-22T07:38:00.998Z</time></trkpt><trkpt lat="42.33730989089286" lon="2.8936744023796703"><ele>70.0</ele><time>2026-04-22T07:38:01.998Z</time></trkpt><trkpt lat="42.337328365411786" lon="2.8935181933154315"><ele>70.0</ele><time>2026-04-22T07:38:02.998Z</time></trkpt><trkpt lat="42.33731347558341" lon="2.893368768010475"><ele>70.0</ele><time>2026-04-22T07:38:03.998Z</time></trkpt><trkpt lat="42.337267058807136" lon="2.8932162116630775"><ele>70.0</ele><time>2026-04-22T07:38:04.998Z</time></trkpt><trkpt lat="42.33720450424633" lon="2.8930408446225644"><ele>71.75</ele><time>2026-04-22T07:38:06Z</time></trkpt><trkpt lat="42.33714622873577" lon="2.892871860781505"><ele>73.5</ele><time>2026-04-22T07:38:07Z</time></trkpt><trkpt lat="42.33712241003498" lon="2.8927134928647336"><ele>75.25</ele><time>2026-04-22T07:38:08Z</time></trkpt><trkpt lat="42.33713143711139" lon="2.89253913530778"><ele>77.0</ele><time>2026-04-22T07:38:09Z</time></trkpt><trkpt lat="42.33721067675195" lon="2.892369334084353"><ele>73.66666666666667</ele><time>2026-04-22T07:38:10Z</time></trkpt><trkpt lat="42.33731430770405" lon="2.892234589995199"><ele>70.33333333333333</ele><time>2026-04-22T07:38:11Z</time></trkpt><trkpt lat="42.33745191005656" lon="2.8921330747443545"><ele>67.0</ele><time>2026-04-22T07:38:12Z</time></trkpt><trkpt lat="42.33761772072861" lon="2.892032029859768"><ele>67.0</ele><time>2026-04-22T07:38:13Z</time></trkpt><trkpt lat="42.33774304864645" lon="2.8919121575381506"><ele>67.0</ele><time>2026-04-22T07:38:14Z</time></trkpt><trkpt lat="42.337857546139006" lon="2.8917517439631344"><ele>67.0</ele><time>2026-04-22T07:38:15Z</time></trkpt><trkpt lat="42.337952496122504" lon="2.891590421374872"><ele>67.0</ele><time>2026-04-22T07:38:16Z</time></trkpt><trkpt lat="42.338040406756114" lon="2.8914361421095935"><ele>67.0</ele><time>2026-04-22T07:38:17Z</time></trkpt><trkpt lat="42.33813125121031" lon="2.891289762145456"><ele>67.0</ele><time>2026-04-22T07:38:18Z</time></trkpt><trkpt lat="42.33822214901143" lon="2.8911301990648703"><ele>67.0</ele><time>2026-04-22T07:38:19Z</time></trkpt><trkpt lat="42.33829745569588" lon="2.890965892066769"><ele>69.0</ele><time>2026-04-22T07:38:20Z</time></trkpt><trkpt lat="42.3383626883181" lon="2.890794608529098"><ele>71.0</ele><time>2026-04-22T07:38:21Z</time></trkpt><trkpt lat="42.33842263031077" lon="2.89063094289572"><ele>73.0</ele><time>2026-04-22T07:38:22Z</time></trkpt><trkpt lat="42.33848436734978" lon="2.8904727045006777"><ele>75.0</ele><time>2026-04-22T07:38:23Z</time></trkpt><trkpt lat="42.33856432023896" lon="2.890330812626785"><ele>75.0</ele><time>2026-04-22T07:38:24Z</time></trkpt><trkpt lat="42.338670129682775" lon="2.8902090915173217"><ele>75.0</ele><time>2026-04-22T07:38:25Z</time></trkpt><trkpt lat="42.33878866077137" lon="2.8901247501429754"><ele>75.0</ele><time>2026-04-22T07:38:26Z</time></trkpt><trkpt lat="42.3389318704305" lon="2.8900567308688134"><ele>75.0</ele><time>2026-04-22T07:38:27Z</time></trkpt><trkpt lat="42.33908311752447" lon="2.889998591667606"><ele>76.0</ele><time>2026-04-22T07:38:28Z</time></trkpt><trkpt lat="42.339237027152244" lon="2.889938531157623"><ele>77.0</ele><time>2026-04-22T07:38:29Z</time></trkpt><trkpt lat="42.33938586997266" lon="2.889886553466163"><ele>78.0</ele><time>2026-04-22T07:38:30Z</time></trkpt><trkpt lat="42.339526559218044" lon="2.889844792117643"><ele>78.0</ele><time>2026-04-22T07:38:31Z</time></trkpt><trkpt lat="42.339653638391255" lon="2.8897976411611457"><ele>78.0</ele><time>2026-04-22T07:38:32Z</time></trkpt><trkpt lat="42.3397795040455" lon="2.8897463279712654"><ele>78.0</ele><time>2026-04-22T07:38:33Z</time></trkpt><trkpt lat="42.33987696405241" lon="2.88959494101129"><ele>78.0</ele><time>2026-04-22T07:38:34Z</time></trkpt><trkpt lat="42.33997243146435" lon="2.889437175545848"><ele>77.25</ele><time>2026-04-22T07:38:35Z</time></trkpt><trkpt lat="42.340085162951524" lon="2.889292433410925"><ele>76.5</ele><time>2026-04-22T07:38:36Z</time></trkpt><trkpt lat="42.3402086684224" lon="2.889181425031795"><ele>75.75</ele><time>2026-04-22T07:38:37Z</time></trkpt><trkpt lat="42.340300239707474" lon="2.8890690463134225"><ele>75.0</ele><time>2026-04-22T07:38:38Z</time></trkpt><trkpt lat="42.34036455907669" lon="2.8889276089053406"><ele>75.0</ele><time>2026-04-22T07:38:39Z</time></trkpt><trkpt lat="42.34040350746476" lon="2.8887506503781637"><ele>75.0</ele><time>2026-04-22T07:38:40Z</time></trkpt><trkpt lat="42.34042057955555" lon="2.888544659660391"><ele>75.0</ele><time>2026-04-22T07:38:41Z</time></trkpt><trkpt lat="42.34043659138453" lon="2.8883240931341576"><ele>72.66666666666667</ele><time>2026-04-22T07:38:42Z</time></trkpt><trkpt lat="42.34045186664846" lon="2.8880889219371877"><ele>70.33333333333334</ele><time>2026-04-22T07:38:43Z</time></trkpt><trkpt lat="42.340474870836466" lon="2.8878456882545533"><ele>68.0</ele><time>2026-04-22T07:38:44Z</time></trkpt><trkpt lat="42.34049929371033" lon="2.887598479842606"><ele>69.0</ele><time>2026-04-22T07:38:45Z</time></trkpt><trkpt lat="42.34052138020736" lon="2.8873428058466795"><ele>70.0</ele><time>2026-04-22T07:38:46Z</time></trkpt><trkpt lat="42.34054458113098" lon="2.8870817161538036"><ele>71.0</ele><time>2026-04-22T07:38:47Z</time></trkpt><trkpt lat="42.340564339144755" lon="2.886812995828559"><ele>73.33333333333334</ele><time>2026-04-22T07:38:48Z</time></trkpt><trkpt lat="42.340584062834075" lon="2.88654362773602"><ele>75.66666666666667</ele><time>2026-04-22T07:38:48.999Z</time></trkpt><trkpt lat="42.340604208582995" lon="2.8862709766147647"><ele>78.0</ele><time>2026-04-22T07:38:49.999Z</time></trkpt><trkpt lat="42.34061728197877" lon="2.8859974550070415"><ele>78.0</ele><time>2026-04-22T07:38:50.999Z</time></trkpt><trkpt lat="42.340625303083996" lon="2.8857185402501035"><ele>78.0</ele><time>2026-04-22T07:38:51.999Z</time></trkpt><trkpt lat="42.34063497371342" lon="2.8854414262162282"><ele>78.0</ele><time>2026-04-22T07:38:52.999Z</time></trkpt><trkpt lat="42.34064663139723" lon="2.8851585340626063"><ele>78.66666666666667</ele><time>2026-04-22T07:38:53.999Z</time></trkpt><trkpt lat="42.340659475025355" lon="2.884874074311414"><ele>79.33333333333334</ele><time>2026-04-22T07:38:54.999Z</time></trkpt><trkpt lat="42.340672490900005" lon="2.884609378948574"><ele>80.0</ele><time>2026-04-22T07:38:55.999Z</time></trkpt><trkpt lat="42.34067697034413" lon="2.8843449251355184"><ele>80.0</ele><time>2026-04-22T07:38:56.999Z</time></trkpt><trkpt lat="42.340688694382976" lon="2.884071589308576"><ele>80.0</ele><time>2026-04-22T07:38:57.999Z</time></trkpt><trkpt lat="42.340720716924956" lon="2.883780176958144"><ele>80.0</ele><time>2026-04-22T07:38:58.999Z</time></trkpt><trkpt lat="42.34077056693107" lon="2.8835074676722585"><ele>80.0</ele><time>2026-04-22T07:38:59.999Z</time></trkpt><trkpt lat="42.340816362805796" lon="2.8832529933937177"><ele>80.0</ele><time>2026-04-22T07:39:00.999Z</time></trkpt><trkpt lat="42.34085808704426" lon="2.8830007906069226"><ele>80.0</ele><time>2026-04-22T07:39:01.999Z</time></trkpt><trkpt lat="42.340897166644794" lon="2.882757504350646"><ele>79.33333333333334</ele><time>2026-04-22T07:39:02.999Z</time></trkpt><trkpt lat="42.34093357545446" lon="2.882518429320114"><ele>78.66666666666667</ele><time>2026-04-22T07:39:03.999Z</time></trkpt><trkpt lat="42.34095602961435" lon="2.8822762738035776"><ele>78.0</ele><time>2026-04-22T07:39:04.999Z</time></trkpt><trkpt lat="42.340951649928684" lon="2.882026705679236"><ele>78.0</ele><time>2026-04-22T07:39:05.999Z</time></trkpt><trkpt lat="42.34092154856467" lon="2.8817893202632483"><ele>78.0</ele><time>2026-04-22T07:39:06.999Z</time></trkpt><trkpt lat="42.340886668069565" lon="2.881591451025304"><ele>78.0</ele><time>2026-04-22T07:39:07.999Z</time></trkpt><trkpt lat="42.34086895130892" lon="2.8814072650486686"><ele>78.0</ele><time>2026-04-22T07:39:08.999Z</time></trkpt><trkpt lat="42.34089016061227" lon="2.8812393781636256"><ele>78.0</ele><time>2026-04-22T07:39:09.999Z</time></trkpt><trkpt lat="42.34094637537786" lon="2.8810890343851008"><ele>78.0</ele><time>2026-04-22T07:39:10.999Z</time></trkpt><trkpt lat="42.34103984799055" lon="2.8809548467128483"><ele>78.0</ele><time>2026-04-22T07:39:11.999Z</time></trkpt><trkpt lat="42.34114339260424" lon="2.880814667599946"><ele>78.25</ele><time>2026-04-22T07:39:12.999Z</time></trkpt><trkpt lat="42.34123276150201" lon="2.880676755336448"><ele>78.5</ele><time>2026-04-22T07:39:13.999Z</time></trkpt><trkpt lat="42.34128663638613" lon="2.880542936220687"><ele>78.75</ele><time>2026-04-22T07:39:14.999Z</time></trkpt><trkpt lat="42.341312833847766" lon="2.8803998501114876"><ele>79.0</ele><time>2026-04-22T07:39:15.999Z</time></trkpt><trkpt lat="42.34128592564831" lon="2.880259685149154"><ele>79.0</ele><time>2026-04-22T07:39:16.999Z</time></trkpt><trkpt lat="42.341165578954524" lon="2.880156563157081"><ele>79.0</ele><time>2026-04-22T07:39:17.999Z</time></trkpt><trkpt lat="42.34104407558684" lon="2.880056856367398"><ele>79.0</ele><time>2026-04-22T07:39:18.999Z</time></trkpt><trkpt lat="42.340907579851155" lon="2.879934353566471"><ele>79.0</ele><time>2026-04-22T07:39:19.999Z</time></trkpt><trkpt lat="42.340760017937875" lon="2.8798292270074684"><ele>79.0</ele><time>2026-04-22T07:39:20.999Z</time></trkpt><trkpt lat="42.34060752004829" lon="2.87969437308625"><ele>79.0</ele><time>2026-04-22T07:39:21.999Z</time></trkpt><trkpt lat="42.34045444735286" lon="2.8795558650762483"><ele>79.0</ele><time>2026-04-22T07:39:22.999Z</time></trkpt><trkpt lat="42.34030400961653" lon="2.879406019270353"><ele>79.66666666666666</ele><time>2026-04-22T07:39:23.999Z</time></trkpt><trkpt lat="42.34016656270118" lon="2.8792401115802835"><ele>80.33333333333333</ele><time>2026-04-22T07:39:24.999Z</time></trkpt><trkpt lat="42.34001469558424" lon="2.8791106829775415"><ele>81.0</ele><time>2026-04-22T07:39:25.999Z</time></trkpt><trkpt lat="42.33985994528955" lon="2.8789987036942017"><ele>81.0</ele><time>2026-04-22T07:39:26.999Z</time></trkpt><trkpt lat="42.33972735164826" lon="2.8788807686396667"><ele>81.0</ele><time>2026-04-22T07:39:27.999Z</time></trkpt><trkpt lat="42.339610379221305" lon="2.878730280421343"><ele>81.0</ele><time>2026-04-22T07:39:28.999Z</time></trkpt><trkpt lat="42.33951723535004" lon="2.878530023057437"><ele>82.66666666666667</ele><time>2026-04-22T07:39:29.999Z</time></trkpt><trkpt lat="42.33945389112313" lon="2.8783023707907107"><ele>84.33333333333334</ele><time>2026-04-22T07:39:30.999Z</time></trkpt><trkpt lat="42.339407983749055" lon="2.8780620786341244"><ele>86.0</ele><time>2026-04-22T07:39:31.999Z</time></trkpt><trkpt lat="42.33938362104313" lon="2.8778122970886173"><ele>87.0</ele><time>2026-04-22T07:39:32.999Z</time></trkpt><trkpt lat="42.339342735066936" lon="2.8775685125915764"><ele>88.0</ele><time>2026-04-22T07:39:33.999Z</time></trkpt><trkpt lat="42.339277677345436" lon="2.877342411820532"><ele>89.0</ele><time>2026-04-22T07:39:34.999Z</time></trkpt><trkpt lat="42.339216970288945" lon="2.8771093577032913"><ele>89.0</ele><time>2026-04-22T07:39:35.999Z</time></trkpt><trkpt lat="42.33918414376174" lon="2.87686130663664"><ele>89.0</ele><time>2026-04-22T07:39:36.999Z</time></trkpt><trkpt lat="42.33915044758554" lon="2.87660848927935"><ele>89.0</ele><time>2026-04-22T07:39:37.999Z</time></trkpt><trkpt lat="42.33911016335843" lon="2.876366695206888"><ele>91.0</ele><time>2026-04-22T07:39:38.999Z</time></trkpt><trkpt lat="42.3390806426023" lon="2.8761351369010666"><ele>93.0</ele><time>2026-04-22T07:39:39.999Z</time></trkpt><trkpt lat="42.339059990202095" lon="2.8759193364053295"><ele>95.0</ele><time>2026-04-22T07:39:40.999Z</time></trkpt><trkpt lat="42.339064967305205" lon="2.8756939570713915"><ele>96.0</ele><time>2026-04-22T07:39:41.999Z</time></trkpt><trkpt lat="42.3390763393856" lon="2.8754663279930845"><ele>97.0</ele><time>2026-04-22T07:39:42.999Z</time></trkpt><trkpt lat="42.33908052551993" lon="2.875251291122929"><ele>98.0</ele><time>2026-04-22T07:39:43.999Z</time></trkpt><trkpt lat="42.33908580295211" lon="2.8750490067282746"><ele>99.0</ele><time>2026-04-22T07:39:44.999Z</time></trkpt><trkpt lat="42.33907547380976" lon="2.8748445095413415"><ele>100.0</ele><time>2026-04-22T07:39:45.999Z</time></trkpt><trkpt lat="42.33903024488889" lon="2.8746331977787594"><ele>101.0</ele><time>2026-04-22T07:39:46.999Z</time></trkpt><trkpt lat="42.33894947530043" lon="2.8744210745485224"><ele>105.33333333333333</ele><time>2026-04-22T07:39:47.999Z</time></trkpt><trkpt lat="42.33885987834028" lon="2.874208691779301"><ele>109.66666666666666</ele><time>2026-04-22T07:39:48.999Z</time></trkpt><trkpt lat="42.33877110253497" lon="2.873996456859677"><ele>114.0</ele><time>2026-04-22T07:39:49.998Z</time></trkpt><trkpt lat="42.33868495064531" lon="2.873783415517347"><ele>114.0</ele><time>2026-04-22T07:39:50.998Z</time></trkpt><trkpt lat="42.33859951449655" lon="2.8735701331342107"><ele>114.0</ele><time>2026-04-22T07:39:51.998Z</time></trkpt><trkpt lat="42.338514091024436" lon="2.873361623681665"><ele>114.0</ele><time>2026-04-22T07:39:52.998Z</time></trkpt><trkpt lat="42.33843191680149" lon="2.8731619074074866"><ele>113.80000000000001</ele><time>2026-04-22T07:39:53.998Z</time></trkpt><trkpt lat="42.338359844921406" lon="2.8729906138929233"><ele>113.60000000000001</ele><time>2026-04-22T07:39:54.998Z</time></trkpt><trkpt lat="42.338299775672894" lon="2.8728567938027543"><ele>113.4</ele><time>2026-04-22T07:39:55.998Z</time></trkpt><trkpt lat="42.33825530024476" lon="2.872754181968138"><ele>113.2</ele><time>2026-04-22T07:39:56.998Z</time></trkpt><trkpt lat="42.338221909573186" lon="2.872666624216949"><ele>113.0</ele><time>2026-04-22T07:39:57.998Z</time></trkpt><trkpt lat="42.3381927968248" lon="2.872551249333863"><ele>113.0</ele><time>2026-04-22T07:39:59.998Z</time></trkpt><trkpt lat="42.33820433598421" lon="2.872467237216273"><ele>113.00000000000001</ele><time>2026-04-22T07:40:07.998Z</time></trkpt><trkpt lat="42.33815827616881" lon="2.872350157638364"><ele>113.00000000000001</ele><time>2026-04-22T07:40:09.998Z</time></trkpt><trkpt lat="42.3380516908834" lon="2.872300613204205"><ele>113.0</ele><time>2026-04-22T07:40:10.998Z</time></trkpt><trkpt lat="42.33794867828432" lon="2.872209619633668"><ele>113.0</ele><time>2026-04-22T07:40:12Z</time></trkpt><trkpt lat="42.33783279881556" lon="2.8720962934293643"><ele>113.0</ele><time>2026-04-22T07:40:13Z</time></trkpt><trkpt lat="42.337697127190616" lon="2.871977850896148"><ele>113.0</ele><time>2026-04-22T07:40:14Z</time></trkpt><trkpt lat="42.337550935741376" lon="2.871846732966368"><ele>113.0</ele><time>2026-04-22T07:40:15Z</time></trkpt><trkpt lat="42.33739077257378" lon="2.8717454399339033"><ele>112.33333333333333</ele><time>2026-04-22T07:40:16Z</time></trkpt><trkpt lat="42.33725991245349" lon="2.871672383825684"><ele>111.66666666666666</ele><time>2026-04-22T07:40:17Z</time></trkpt><trkpt lat="42.337163832548114" lon="2.8716165925358657"><ele>111.0</ele><time>2026-04-22T07:40:18Z</time></trkpt><trkpt lat="42.336959092844985" lon="2.871468829117736"><ele>111.0</ele><time>2026-04-22T07:40:19Z</time></trkpt><trkpt lat="42.33687142793967" lon="2.8713357736547303"><ele>111.0</ele><time>2026-04-22T07:40:20Z</time></trkpt><trkpt lat="42.33681186349856" lon="2.871165246830942"><ele>111.0</ele><time>2026-04-22T07:40:21Z</time></trkpt><trkpt lat="42.336808059965236" lon="2.870977721142576"><ele>111.0</ele><time>2026-04-22T07:40:22Z</time></trkpt><trkpt lat="42.33683084171187" lon="2.8707581039531416"><ele>114.0</ele><time>2026-04-22T07:40:23Z</time></trkpt><trkpt lat="42.33686369465697" lon="2.87050949616587"><ele>117.0</ele><time>2026-04-22T07:40:24Z</time></trkpt><trkpt lat="42.336881366204665" lon="2.87024698326325"><ele>120.0</ele><time>2026-04-22T07:40:25Z</time></trkpt><trkpt lat="42.33690514453203" lon="2.8699908989967735"><ele>120.33333333333334</ele><time>2026-04-22T07:40:26Z</time></trkpt><trkpt lat="42.33690028908833" lon="2.8697455026235077"><ele>120.66666666666667</ele><time>2026-04-22T07:40:27Z</time></trkpt><trkpt lat="42.336896443780034" lon="2.869510954088455"><ele>121.0</ele><time>2026-04-22T07:40:28Z</time></trkpt><trkpt lat="42.33693199814329" lon="2.869265713904011"><ele>121.0</ele><time>2026-04-22T07:40:29Z</time></trkpt><trkpt lat="42.33703457796331" lon="2.869019773181848"><ele>121.0</ele><time>2026-04-22T07:40:30Z</time></trkpt><trkpt lat="42.33705072960399" lon="2.868734019189188"><ele>121.0</ele><time>2026-04-22T07:40:31Z</time></trkpt><trkpt lat="42.33706442098004" lon="2.8684385364852485"><ele>121.33333333333334</ele><time>2026-04-22T07:40:32Z</time></trkpt><trkpt lat="42.337061283040455" lon="2.868170797151694"><ele>121.66666666666666</ele><time>2026-04-22T07:40:33Z</time></trkpt><trkpt lat="42.33702286238051" lon="2.8679166697246643"><ele>122.0</ele><time>2026-04-22T07:40:34Z</time></trkpt><trkpt lat="42.336945902092594" lon="2.867654275190437"><ele>123.66666666666666</ele><time>2026-04-22T07:40:35Z</time></trkpt><trkpt lat="42.33683525265425" lon="2.8674049533041206"><ele>125.33333333333334</ele><time>2026-04-22T07:40:36Z</time></trkpt><trkpt lat="42.33671561687312" lon="2.8671565515619126"><ele>127.0</ele><time>2026-04-22T07:40:37Z</time></trkpt><trkpt lat="42.336605317795545" lon="2.866928042046891"><ele>126.66666666666667</ele><time>2026-04-22T07:40:38Z</time></trkpt><trkpt lat="42.33650877617162" lon="2.8667090491587093"><ele>126.33333333333334</ele><time>2026-04-22T07:40:39Z</time></trkpt><trkpt lat="42.33644024288578" lon="2.8665434733879427"><ele>126.0</ele><time>2026-04-22T07:40:40Z</time></trkpt><trkpt lat="42.33639955520834" lon="2.866362862900829"><ele>126.0</ele><time>2026-04-22T07:40:41Z</time></trkpt><trkpt lat="42.33638761700293" lon="2.866216000790905"><ele>126.0</ele><time>2026-04-22T07:40:42Z</time></trkpt><trkpt lat="42.33642529279378" lon="2.8660192321443696"><ele>126.0</ele><time>2026-04-22T07:40:43Z</time></trkpt><trkpt lat="42.33648317807339" lon="2.8657778014594375"><ele>126.0</ele><time>2026-04-22T07:40:44Z</time></trkpt><trkpt lat="42.336544864808744" lon="2.8655460682261427"><ele>126.0</ele><time>2026-04-22T07:40:45Z</time></trkpt><trkpt lat="42.33656308489763" lon="2.865323964706253"><ele>126.0</ele><time>2026-04-22T07:40:46Z</time></trkpt><trkpt lat="42.33654836153726" lon="2.8650839981297787"><ele>126.0</ele><time>2026-04-22T07:40:47Z</time></trkpt><trkpt lat="42.33649920161403" lon="2.8648111890052634"><ele>125.33333333333334</ele><time>2026-04-22T07:40:48Z</time></trkpt><trkpt lat="42.33647707867071" lon="2.8645341778759326"><ele>124.66666666666667</ele><time>2026-04-22T07:40:49Z</time></trkpt><trkpt lat="42.33645216837323" lon="2.8642762053617306"><ele>124.0</ele><time>2026-04-22T07:40:50Z</time></trkpt><trkpt lat="42.33644357731932" lon="2.864029602126194"><ele>122.66666666666667</ele><time>2026-04-22T07:40:51Z</time></trkpt><trkpt lat="42.33642410461142" lon="2.8637887871694785"><ele>121.33333333333334</ele><time>2026-04-22T07:40:52Z</time></trkpt><trkpt lat="42.336390752252186" lon="2.863551644683262"><ele>120.0</ele><time>2026-04-22T07:40:53Z</time></trkpt><trkpt lat="42.33633003570948" lon="2.863321860797587"><ele>118.25</ele><time>2026-04-22T07:40:53.999Z</time></trkpt><trkpt lat="42.33626525707561" lon="2.863110647982986"><ele>116.5</ele><time>2026-04-22T07:40:54.999Z</time></trkpt><trkpt lat="42.33622887602221" lon="2.862914224383922"><ele>114.75</ele><time>2026-04-22T07:40:55.999Z</time></trkpt><trkpt lat="42.3361817406961" lon="2.862768119071872"><ele>113.0</ele><time>2026-04-22T07:40:56.999Z</time></trkpt><trkpt lat="42.3361546923153" lon="2.8626463763151166"><ele>110.60000000000001</ele><time>2026-04-22T07:40:57.999Z</time></trkpt><trkpt lat="42.336133420855006" lon="2.8625334847039516"><ele>108.20000000000002</ele><time>2026-04-22T07:40:58.999Z</time></trkpt><trkpt lat="42.336138718366556" lon="2.862420757540127"><ele>105.8</ele><time>2026-04-22T07:40:59.999Z</time></trkpt><trkpt lat="42.336180840980845" lon="2.862290532084652"><ele>103.4</ele><time>2026-04-22T07:41:00.999Z</time></trkpt><trkpt lat="42.33622151036478" lon="2.8621106363232425"><ele>101.0</ele><time>2026-04-22T07:41:01.999Z</time></trkpt><trkpt lat="42.33628196844777" lon="2.861915891829727"><ele>101.33333333333333</ele><time>2026-04-22T07:41:02.999Z</time></trkpt><trkpt lat="42.336344034578" lon="2.861696250293398"><ele>101.66666666666666</ele><time>2026-04-22T07:41:03.999Z</time></trkpt><trkpt lat="42.336401984268385" lon="2.8614686352932273"><ele>102.0</ele><time>2026-04-22T07:41:04.999Z</time></trkpt><trkpt lat="42.33646521551093" lon="2.861231737840879"><ele>102.0</ele><time>2026-04-22T07:41:05.999Z</time></trkpt><trkpt lat="42.336526116859204" lon="2.861008306660998"><ele>102.0</ele><time>2026-04-22T07:41:06.999Z</time></trkpt><trkpt lat="42.33658163912915" lon="2.860794385110112"><ele>102.0</ele><time>2026-04-22T07:41:07.999Z</time></trkpt><trkpt lat="42.33663539390035" lon="2.8605752626974583"><ele>99.66666666666667</ele><time>2026-04-22T07:41:08.999Z</time></trkpt><trkpt lat="42.33669251345875" lon="2.8603459917862772"><ele>97.33333333333334</ele><time>2026-04-22T07:41:09.999Z</time></trkpt><trkpt lat="42.33675247657964" lon="2.860122894501769"><ele>95.0</ele><time>2026-04-22T07:41:10.999Z</time></trkpt><trkpt lat="42.33681810893293" lon="2.859889342111013"><ele>94.33333333333334</ele><time>2026-04-22T07:41:11.999Z</time></trkpt><trkpt lat="42.33688470558048" lon="2.859638810387832"><ele>93.66666666666667</ele><time>2026-04-22T07:41:12.999Z</time></trkpt><trkpt lat="42.33695002560152" lon="2.8593740435700097"><ele>93.0</ele><time>2026-04-22T07:41:13.999Z</time></trkpt><trkpt lat="42.33703084593054" lon="2.859111035480871"><ele>93.0</ele><time>2026-04-22T07:41:14.999Z</time></trkpt><trkpt lat="42.337130029067445" lon="2.8588552592156886"><ele>93.0</ele><time>2026-04-22T07:41:15.999Z</time></trkpt><trkpt lat="42.3372370935742" lon="2.8586049447525297"><ele>93.0</ele><time>2026-04-22T07:41:16.999Z</time></trkpt><trkpt lat="42.33733521478289" lon="2.8583689726564967"><ele>94.66666666666666</ele><time>2026-04-22T07:41:17.999Z</time></trkpt><trkpt lat="42.33743467002404" lon="2.8581244814748983"><ele>96.33333333333333</ele><time>2026-04-22T07:41:18.999Z</time></trkpt><trkpt lat="42.33752685654692" lon="2.8578904116438375"><ele>98.0</ele><time>2026-04-22T07:41:19.999Z</time></trkpt><trkpt lat="42.337623079037414" lon="2.857642105905476"><ele>97.66666666666666</ele><time>2026-04-22T07:41:20.999Z</time></trkpt><trkpt lat="42.33772083547337" lon="2.8574005352404717"><ele>97.33333333333334</ele><time>2026-04-22T07:41:21.999Z</time></trkpt><trkpt lat="42.337823600483595" lon="2.857152160181284"><ele>97.0</ele><time>2026-04-22T07:41:22.999Z</time></trkpt><trkpt lat="42.337928268837125" lon="2.856896258300457"><ele>97.66666666666667</ele><time>2026-04-22T07:41:23.999Z</time></trkpt><trkpt lat="42.33803108920269" lon="2.8566387199867727"><ele>98.33333333333334</ele><time>2026-04-22T07:41:24.999Z</time></trkpt><trkpt lat="42.33813975330174" lon="2.8563725009443997"><ele>99.0</ele><time>2026-04-22T07:41:25.999Z</time></trkpt><trkpt lat="42.33824248624411" lon="2.8561054349630606"><ele>100.33333333333334</ele><time>2026-04-22T07:41:26.999Z</time></trkpt><trkpt lat="42.338352031308425" lon="2.8558308007606668"><ele>101.66666666666667</ele><time>2026-04-22T07:41:27.999Z</time></trkpt><trkpt lat="42.33845477664531" lon="2.8555852184128665"><ele>103.0</ele><time>2026-04-22T07:41:28.999Z</time></trkpt><trkpt lat="42.338554327665385" lon="2.8553446751124465"><ele>102.0</ele><time>2026-04-22T07:41:29.999Z</time></trkpt><trkpt lat="42.33864659980788" lon="2.8550895468792854"><ele>101.0</ele><time>2026-04-22T07:41:30.999Z</time></trkpt><trkpt lat="42.33873660202" lon="2.8548075424242985"><ele>100.0</ele><time>2026-04-22T07:41:31.999Z</time></trkpt><trkpt lat="42.338814482173376" lon="2.8545239907670794"><ele>99.0</ele><time>2026-04-22T07:41:32.999Z</time></trkpt><trkpt lat="42.33887767218237" lon="2.854240918728456"><ele>98.0</ele><time>2026-04-22T07:41:33.999Z</time></trkpt><trkpt lat="42.33892767849256" lon="2.853943132940065"><ele>97.0</ele><time>2026-04-22T07:41:34.999Z</time></trkpt><trkpt lat="42.33896519647707" lon="2.8536775243564763"><ele>99.0</ele><time>2026-04-22T07:41:35.999Z</time></trkpt><trkpt lat="42.33899468723265" lon="2.853428817907128"><ele>101.0</ele><time>2026-04-22T07:41:36.999Z</time></trkpt><trkpt lat="42.33902688111469" lon="2.8531782125629914"><ele>103.0</ele><time>2026-04-22T07:41:37.999Z</time></trkpt><trkpt lat="42.33904526060626" lon="2.8529454992666348"><ele>103.0</ele><time>2026-04-22T07:41:38.999Z</time></trkpt><trkpt lat="42.33907705421647" lon="2.8527150693963232"><ele>103.0</ele><time>2026-04-22T07:41:39.999Z</time></trkpt><trkpt lat="42.33915461693388" lon="2.8525109411827216"><ele>103.0</ele><time>2026-04-22T07:41:40.999Z</time></trkpt><trkpt lat="42.3392647548044" lon="2.852324570367284"><ele>102.66666666666667</ele><time>2026-04-22T07:41:41.999Z</time></trkpt><trkpt lat="42.3394004203276" lon="2.8521266233618228"><ele>102.33333333333334</ele><time>2026-04-22T07:41:42.999Z</time></trkpt><trkpt lat="42.33954067875034" lon="2.851920295282848"><ele>102.0</ele><time>2026-04-22T07:41:43.999Z</time></trkpt><trkpt lat="42.33968932418672" lon="2.851721821712018"><ele>104.33333333333334</ele><time>2026-04-22T07:41:44.999Z</time></trkpt><trkpt lat="42.33982959085964" lon="2.851530933733341"><ele>106.66666666666667</ele><time>2026-04-22T07:41:45.999Z</time></trkpt><trkpt lat="42.339970414645705" lon="2.851332029270758"><ele>109.0</ele><time>2026-04-22T07:41:46.999Z</time></trkpt><trkpt lat="42.34010030378794" lon="2.85114854198201"><ele>109.0</ele><time>2026-04-22T07:41:47.999Z</time></trkpt><trkpt lat="42.34021034466268" lon="2.8509674522069126"><ele>109.0</ele><time>2026-04-22T07:41:48.999Z</time></trkpt><trkpt lat="42.34029088824335" lon="2.850760850140936"><ele>109.0</ele><time>2026-04-22T07:41:49.999Z</time></trkpt><trkpt lat="42.34034827610664" lon="2.850525888075035"><ele>108.33333333333334</ele><time>2026-04-22T07:41:50.999Z</time></trkpt><trkpt lat="42.34038789587561" lon="2.850266134145809"><ele>107.66666666666666</ele><time>2026-04-22T07:41:51.999Z</time></trkpt><trkpt lat="42.34042443250331" lon="2.8499944154779495"><ele>107.0</ele><time>2026-04-22T07:41:52.999Z</time></trkpt><trkpt lat="42.34046868798149" lon="2.849718108510525"><ele>108.33333333333333</ele><time>2026-04-22T07:41:53.999Z</time></trkpt><trkpt lat="42.340510973144404" lon="2.8494535598778534"><ele>109.66666666666666</ele><time>2026-04-22T07:41:54.998Z</time></trkpt><trkpt lat="42.34054606880754" lon="2.849204651015733"><ele>111.0</ele><time>2026-04-22T07:41:55.998Z</time></trkpt><trkpt lat="42.3405684977859" lon="2.8489683968447594"><ele>111.0</ele><time>2026-04-22T07:41:56.998Z</time></trkpt><trkpt lat="42.340564787360506" lon="2.8487285240254674"><ele>111.0</ele><time>2026-04-22T07:41:57.998Z</time></trkpt><trkpt lat="42.34054248898299" lon="2.848464407414781"><ele>111.0</ele><time>2026-04-22T07:41:58.998Z</time></trkpt><trkpt lat="42.34051010056278" lon="2.8481910010739706"><ele>111.0</ele><time>2026-04-22T07:41:59.998Z</time></trkpt><trkpt lat="42.34046871295159" lon="2.847908267037738"><ele>111.0</ele><time>2026-04-22T07:42:00.998Z</time></trkpt><trkpt lat="42.34042840645997" lon="2.8476268913067337"><ele>111.0</ele><time>2026-04-22T07:42:01.998Z</time></trkpt><trkpt lat="42.340388810539125" lon="2.8473541286745423"><ele>111.33333333333334</ele><time>2026-04-22T07:42:02.998Z</time></trkpt><trkpt lat="42.340364714143085" lon="2.84706882487398"><ele>111.66666666666667</ele><time>2026-04-22T07:42:03.998Z</time></trkpt><trkpt lat="42.340352357659874" lon="2.846803969246875"><ele>112.0</ele><time>2026-04-22T07:42:04.998Z</time></trkpt><trkpt lat="42.34035603516148" lon="2.846602707821246"><ele>111.5</ele><time>2026-04-22T07:42:05.998Z</time></trkpt><trkpt lat="42.340374185266896" lon="2.8464582300933965"><ele>111.0</ele><time>2026-04-22T07:42:06.998Z</time></trkpt><trkpt lat="42.340407236390845" lon="2.846315283723172"><ele>110.5</ele><time>2026-04-22T07:42:07.998Z</time></trkpt><trkpt lat="42.340469447249525" lon="2.8461599580571018"><ele>110.0</ele><time>2026-04-22T07:42:08.998Z</time></trkpt><trkpt lat="42.340573331004386" lon="2.8460006118707444"><ele>110.33333333333333</ele><time>2026-04-22T07:42:09.998Z</time></trkpt><trkpt lat="42.34071167467284" lon="2.8458555239346643"><ele>110.66666666666666</ele><time>2026-04-22T07:42:10.998Z</time></trkpt><trkpt lat="42.34087351567926" lon="2.8456942102039715"><ele>111.0</ele><time>2026-04-22T07:42:11.998Z</time></trkpt><trkpt lat="42.34102042010751" lon="2.8455364876184484"><ele>111.0</ele><time>2026-04-22T07:42:12.998Z</time></trkpt><trkpt lat="42.341164743595684" lon="2.8453813738213802"><ele>111.0</ele><time>2026-04-22T07:42:13.998Z</time></trkpt><trkpt lat="42.34129425504697" lon="2.8452268931386984"><ele>111.0</ele><time>2026-04-22T07:42:14.998Z</time></trkpt><trkpt lat="42.341439961049595" lon="2.845097495924086"><ele>109.0</ele><time>2026-04-22T07:42:15.998Z</time></trkpt><trkpt lat="42.341621567363184" lon="2.8450263483899136"><ele>107.0</ele><time>2026-04-22T07:42:16.998Z</time></trkpt><trkpt lat="42.341794261610474" lon="2.844914487199244"><ele>105.0</ele><time>2026-04-22T07:42:18Z</time></trkpt><trkpt lat="42.341962064034966" lon="2.8448383506684762"><ele>105.0</ele><time>2026-04-22T07:42:19Z</time></trkpt><trkpt lat="42.342139683696686" lon="2.844777883829791"><ele>105.0</ele><time>2026-04-22T07:42:20Z</time></trkpt><trkpt lat="42.34232150918877" lon="2.84474264545513"><ele>105.0</ele><time>2026-04-22T07:42:21Z</time></trkpt><trkpt lat="42.34250786570952" lon="2.844747160548978"><ele>108.66666666666666</ele><time>2026-04-22T07:42:22Z</time></trkpt><trkpt lat="42.342678534066" lon="2.844746464172979"><ele>112.33333333333333</ele><time>2026-04-22T07:42:23Z</time></trkpt><trkpt lat="42.34284281567798" lon="2.8448036622910893"><ele>116.0</ele><time>2026-04-22T07:42:24Z</time></trkpt><trkpt lat="42.34300063110976" lon="2.844813624895518"><ele>119.66666666666666</ele><time>2026-04-22T07:42:25Z</time></trkpt><trkpt lat="42.34313460580678" lon="2.844772445025253"><ele>123.33333333333334</ele><time>2026-04-22T07:42:26Z</time></trkpt><trkpt lat="42.343269447458844" lon="2.844676019848517"><ele>127.0</ele><time>2026-04-22T07:42:27Z</time></trkpt><trkpt lat="42.34339966673816" lon="2.8445485286175067"><ele>127.0</ele><time>2026-04-22T07:42:28Z</time></trkpt><trkpt lat="42.343521192010144" lon="2.8443818584715457"><ele>127.0</ele><time>2026-04-22T07:42:29Z</time></trkpt><trkpt lat="42.34363637442028" lon="2.8442069667303547"><ele>127.0</ele><time>2026-04-22T07:42:30Z</time></trkpt><trkpt lat="42.34376287510595" lon="2.844027321657017"><ele>132.0</ele><time>2026-04-22T07:42:31Z</time></trkpt><trkpt lat="42.34387260397268" lon="2.8438385640575103"><ele>137.0</ele><time>2026-04-22T07:42:32Z</time></trkpt><trkpt lat="42.34396166840709" lon="2.843661319211302"><ele>142.0</ele><time>2026-04-22T07:42:33Z</time></trkpt><trkpt lat="42.3440260782369" lon="2.8434791081147486"><ele>136.0</ele><time>2026-04-22T07:42:34Z</time></trkpt><trkpt lat="42.34408643753029" lon="2.843273191136276"><ele>130.0</ele><time>2026-04-22T07:42:35Z</time></trkpt><trkpt lat="42.344123780746436" lon="2.8430515514609294"><ele>124.0</ele><time>2026-04-22T07:42:36Z</time></trkpt><trkpt lat="42.34416064885658" lon="2.8428176750165077"><ele>121.66666666666667</ele><time>2026-04-22T07:42:37Z</time></trkpt><trkpt lat="42.344217320811964" lon="2.842573521849475"><ele>119.33333333333334</ele><time>2026-04-22T07:42:38Z</time></trkpt><trkpt lat="42.34426600465088" lon="2.842325575756888"><ele>117.0</ele><time>2026-04-22T07:42:39Z</time></trkpt><trkpt lat="42.344275652115336" lon="2.8420674765044387"><ele>117.0</ele><time>2026-04-22T07:42:40Z</time></trkpt><trkpt lat="42.34426937219624" lon="2.841811573447657"><ele>117.0</ele><time>2026-04-22T07:42:41Z</time></trkpt><trkpt lat="42.34422223833607" lon="2.8415340199890005"><ele>117.0</ele><time>2026-04-22T07:42:42Z</time></trkpt><trkpt lat="42.344154788060926" lon="2.841256016488019"><ele>117.0</ele><time>2026-04-22T07:42:43Z</time></trkpt><trkpt lat="42.34408554823898" lon="2.8409805762653386"><ele>117.0</ele><time>2026-04-22T07:42:44Z</time></trkpt><trkpt lat="42.344008261954045" lon="2.8406953128794354"><ele>117.0</ele><time>2026-04-22T07:42:45Z</time></trkpt><trkpt lat="42.343925174854014" lon="2.84041221424796"><ele>115.33333333333334</ele><time>2026-04-22T07:42:46Z</time></trkpt><trkpt lat="42.34384446447665" lon="2.8401581955957838"><ele>113.66666666666667</ele><time>2026-04-22T07:42:47Z</time></trkpt><trkpt lat="42.34378166638507" lon="2.839913364215436"><ele>112.0</ele><time>2026-04-22T07:42:48Z</time></trkpt><trkpt lat="42.34369642649815" lon="2.8396846827585587"><ele>112.0</ele><time>2026-04-22T07:42:49Z</time></trkpt><trkpt lat="42.34361817909915" lon="2.839472325087906"><ele>112.0</ele><time>2026-04-22T07:42:50Z</time></trkpt><trkpt lat="42.34354253448579" lon="2.8392768906735"><ele>112.0</ele><time>2026-04-22T07:42:51Z</time></trkpt><trkpt lat="42.3435429393325" lon="2.8390591368104863"><ele>115.33333333333334</ele><time>2026-04-22T07:42:52Z</time></trkpt><trkpt lat="42.34356362280257" lon="2.838816321890021"><ele>118.66666666666666</ele><time>2026-04-22T07:42:53Z</time></trkpt><trkpt lat="42.34358995041044" lon="2.838552083672263"><ele>122.0</ele><time>2026-04-22T07:42:54Z</time></trkpt><trkpt lat="42.34361357772523" lon="2.838303209653462"><ele>124.66666666666666</ele><time>2026-04-22T07:42:55Z</time></trkpt><trkpt lat="42.34363329053595" lon="2.8380751272027163"><ele>127.33333333333334</ele><time>2026-04-22T07:42:56Z</time></trkpt><trkpt lat="42.34364699471094" lon="2.837860040632659"><ele>130.0</ele><time>2026-04-22T07:42:57Z</time></trkpt><trkpt lat="42.34363587542402" lon="2.8376438891666522"><ele>133.33333333333334</ele><time>2026-04-22T07:42:58Z</time></trkpt><trkpt lat="42.3435925244527" lon="2.8374174578092926"><ele>136.66666666666666</ele><time>2026-04-22T07:42:59Z</time></trkpt><trkpt lat="42.34352215795614" lon="2.837196761222331"><ele>140.0</ele><time>2026-04-22T07:43:00Z</time></trkpt><trkpt lat="42.34345693679276" lon="2.836970121470532"><ele>144.33333333333331</ele><time>2026-04-22T07:43:01Z</time></trkpt><trkpt lat="42.34340983740304" lon="2.8367505249398324"><ele>148.66666666666666</ele><time>2026-04-22T07:43:01.999Z</time></trkpt><trkpt lat="42.343377113832986" lon="2.8365570060572134"><ele>153.0</ele><time>2026-04-22T07:43:02.999Z</time></trkpt><trkpt lat="42.34335043288234" lon="2.836373941711596"><ele>153.0</ele><time>2026-04-22T07:43:03.999Z</time></trkpt><trkpt lat="42.34334129660706" lon="2.83619972728194"><ele>153.0</ele><time>2026-04-22T07:43:04.999Z</time></trkpt><trkpt lat="42.3433282411683" lon="2.8360341593378013"><ele>153.0</ele><time>2026-04-22T07:43:05.999Z</time></trkpt><trkpt lat="42.34329331436092" lon="2.8358788033437556"><ele>153.0</ele><time>2026-04-22T07:43:06.999Z</time></trkpt><trkpt lat="42.34323342673701" lon="2.8357520625151484"><ele>150.75</ele><time>2026-04-22T07:43:07.999Z</time></trkpt><trkpt lat="42.34314647993993" lon="2.835645819074324"><ele>148.5</ele><time>2026-04-22T07:43:08.999Z</time></trkpt><trkpt lat="42.343055186137214" lon="2.8355681576201883"><ele>146.25</ele><time>2026-04-22T07:43:09.999Z</time></trkpt><trkpt lat="42.342951287176206" lon="2.8354703666050494"><ele>144.0</ele><time>2026-04-22T07:43:10.999Z</time></trkpt><trkpt lat="42.34287258966915" lon="2.8353203010077275"><ele>144.0</ele><time>2026-04-22T07:43:11.999Z</time></trkpt><trkpt lat="42.34282168616037" lon="2.8351650937623445"><ele>144.0</ele><time>2026-04-22T07:43:12.999Z</time></trkpt><trkpt lat="42.342788718010176" lon="2.8350209055131135"><ele>144.0</ele><time>2026-04-22T07:43:13.999Z</time></trkpt><trkpt lat="42.34278622349716" lon="2.8349040911539714"><ele>144.0</ele><time>2026-04-22T07:43:14.999Z</time></trkpt><trkpt lat="42.34282384588037" lon="2.8347941957464347"><ele>144.0</ele><time>2026-04-22T07:43:15.999Z</time></trkpt><trkpt lat="42.34289206432024" lon="2.8347175400272677"><ele>146.33333333333334</ele><time>2026-04-22T07:43:16.999Z</time></trkpt><trkpt lat="42.34297600364987" lon="2.834712530913221"><ele>148.66666666666666</ele><time>2026-04-22T07:43:17.999Z</time></trkpt><trkpt lat="42.34306406394922" lon="2.8347645693856234"><ele>151.0</ele><time>2026-04-22T07:43:18.999Z</time></trkpt><trkpt lat="42.34313824894104" lon="2.8348088532195166"><ele>153.33333333333331</ele><time>2026-04-22T07:43:19.999Z</time></trkpt><trkpt lat="42.34322489750975" lon="2.834821576659461"><ele>155.66666666666666</ele><time>2026-04-22T07:43:20.999Z</time></trkpt><trkpt lat="42.34331164442229" lon="2.83482454310035"><ele>158.0</ele><time>2026-04-22T07:43:21.999Z</time></trkpt><trkpt lat="42.34338712396813" lon="2.8348147527907015"><ele>159.85714285714286</ele><time>2026-04-22T07:43:22.999Z</time></trkpt><trkpt lat="42.34345383333523" lon="2.834810142795905"><ele>161.71428571428572</ele><time>2026-04-22T07:43:23.999Z</time></trkpt><trkpt lat="42.34351883830423" lon="2.8348134757922847"><ele>163.57142857142856</ele><time>2026-04-22T07:43:24.999Z</time></trkpt><trkpt lat="42.34359165232482" lon="2.8348201210817114"><ele>165.42857142857144</ele><time>2026-04-22T07:43:25.999Z</time></trkpt><trkpt lat="42.34366307322191" lon="2.8348309250241783"><ele>167.28571428571428</ele><time>2026-04-22T07:43:26.999Z</time></trkpt><trkpt lat="42.343735522410576" lon="2.8348156419676265"><ele>169.14285714285714</ele><time>2026-04-22T07:43:27.999Z</time></trkpt><trkpt lat="42.343815312585235" lon="2.834792938271056"><ele>171.0</ele><time>2026-04-22T07:43:28.999Z</time></trkpt><trkpt lat="42.34389495658466" lon="2.8347810674050393"><ele>172.16666666666666</ele><time>2026-04-22T07:43:29.999Z</time></trkpt><trkpt lat="42.34397711776054" lon="2.83475845169941"><ele>173.33333333333334</ele><time>2026-04-22T07:43:30.999Z</time></trkpt><trkpt lat="42.34405210878814" lon="2.834737906775767"><ele>174.5</ele><time>2026-04-22T07:43:31.999Z</time></trkpt><trkpt lat="42.34411996815581" lon="2.8347243015601125"><ele>175.66666666666669</ele><time>2026-04-22T07:43:32.999Z</time></trkpt><trkpt lat="42.344185270940976" lon="2.834704040881171"><ele>176.83333333333334</ele><time>2026-04-22T07:43:33.999Z</time></trkpt><trkpt lat="42.344262688673275" lon="2.8346899247727433"><ele>178.0</ele><time>2026-04-22T07:43:34.999Z</time></trkpt><trkpt lat="42.34436566830548" lon="2.8346821355484777"><ele>178.0</ele><time>2026-04-22T07:43:35.999Z</time></trkpt><trkpt lat="42.34448539250834" lon="2.834668822265497"><ele>178.0</ele><time>2026-04-22T07:43:36.999Z</time></trkpt><trkpt lat="42.344620614138954" lon="2.8346470097689624"><ele>178.0</ele><time>2026-04-22T07:43:37.999Z</time></trkpt><trkpt lat="42.34476097385003" lon="2.834621320692564"><ele>178.0</ele><time>2026-04-22T07:43:38.999Z</time></trkpt><trkpt lat="42.3448848101487" lon="2.8346105151376593"><ele>178.4</ele><time>2026-04-22T07:43:39.999Z</time></trkpt><trkpt lat="42.34498389531325" lon="2.834646501211429"><ele>178.8</ele><time>2026-04-22T07:43:40.999Z</time></trkpt><trkpt lat="42.34506414574311" lon="2.834727979124081"><ele>179.2</ele><time>2026-04-22T07:43:41.999Z</time></trkpt><trkpt lat="42.34509499529498" lon="2.8348680951342513"><ele>179.6</ele><time>2026-04-22T07:43:42.999Z</time></trkpt><trkpt lat="42.34511153946398" lon="2.8350187008838823"><ele>180.0</ele><time>2026-04-22T07:43:43.999Z</time></trkpt><trkpt lat="42.34512508119503" lon="2.8351905721535378"><ele>180.0</ele><time>2026-04-22T07:43:44.999Z</time></trkpt><trkpt lat="42.34513134215688" lon="2.8353688934856023"><ele>180.0</ele><time>2026-04-22T07:43:45.999Z</time></trkpt><trkpt lat="42.34513861091573" lon="2.8355655440503753"><ele>180.0</ele><time>2026-04-22T07:43:46.999Z</time></trkpt><trkpt lat="42.345144420616634" lon="2.8357731365738474"><ele>180.0</ele><time>2026-04-22T07:43:47.999Z</time></trkpt><trkpt lat="42.34515247382368" lon="2.8359707063554778"><ele>182.33333333333334</ele><time>2026-04-22T07:43:48.999Z</time></trkpt><trkpt lat="42.34518807759832" lon="2.8361716369380527"><ele>184.66666666666669</ele><time>2026-04-22T07:43:49.999Z</time></trkpt><trkpt lat="42.34527789218975" lon="2.8363706316028483"><ele>187.0</ele><time>2026-04-22T07:43:50.999Z</time></trkpt><trkpt lat="42.345360602872084" lon="2.8365731776812435"><ele>187.0</ele><time>2026-04-22T07:43:51.999Z</time></trkpt><trkpt lat="42.3454485603975" lon="2.8367709031908936"><ele>187.0</ele><time>2026-04-22T07:43:52.999Z</time></trkpt><trkpt lat="42.345549693408984" lon="2.8369476351193983"><ele>187.0</ele><time>2026-04-22T07:43:53.999Z</time></trkpt><trkpt lat="42.34567300645314" lon="2.837106732229018"><ele>183.66666666666669</ele><time>2026-04-22T07:43:54.999Z</time></trkpt><trkpt lat="42.34582099110568" lon="2.837237040179069"><ele>180.33333333333334</ele><time>2026-04-22T07:43:55.999Z</time></trkpt><trkpt lat="42.34597983529166" lon="2.8373442449509536"><ele>177.0</ele><time>2026-04-22T07:43:56.999Z</time></trkpt><trkpt lat="42.346132561894" lon="2.8374538360690593"><ele>177.0</ele><time>2026-04-22T07:43:57.999Z</time></trkpt><trkpt lat="42.346278388118876" lon="2.8375770829076794"><ele>177.0</ele><time>2026-04-22T07:43:58.999Z</time></trkpt><trkpt lat="42.34642491538652" lon="2.83770380842813"><ele>177.0</ele><time>2026-04-22T07:43:59.999Z</time></trkpt><trkpt lat="42.34656702799801" lon="2.8378131842089642"><ele>180.0</ele><time>2026-04-22T07:44:00.999Z</time></trkpt><trkpt lat="42.34671547944358" lon="2.8379033317199243"><ele>183.0</ele><time>2026-04-22T07:44:01.999Z</time></trkpt><trkpt lat="42.34687204998133" lon="2.837954794735843"><ele>186.0</ele><time>2026-04-22T07:44:02.999Z</time></trkpt><trkpt lat="42.34704468719165" lon="2.837972712459869"><ele>186.0</ele><time>2026-04-22T07:44:03.998Z</time></trkpt><trkpt lat="42.34721005849472" lon="2.8379724456953017"><ele>186.0</ele><time>2026-04-22T07:44:04.998Z</time></trkpt><trkpt lat="42.34736678887971" lon="2.8379689316929073"><ele>186.0</ele><time>2026-04-22T07:44:05.998Z</time></trkpt><trkpt lat="42.34751578754509" lon="2.8379885773117204"><ele>184.5</ele><time>2026-04-22T07:44:06.998Z</time></trkpt><trkpt lat="42.34765354128446" lon="2.8380484375288586"><ele>183.0</ele><time>2026-04-22T07:44:07.998Z</time></trkpt><trkpt lat="42.34777794750118" lon="2.838117799876683"><ele>181.5</ele><time>2026-04-22T07:44:08.998Z</time></trkpt><trkpt lat="42.34790303191174" lon="2.838197606064512"><ele>180.0</ele><time>2026-04-22T07:44:09.998Z</time></trkpt><trkpt lat="42.34802385738332" lon="2.83829338571423"><ele>179.25</ele><time>2026-04-22T07:44:10.998Z</time></trkpt><trkpt lat="42.34814931441471" lon="2.838384212814796"><ele>178.5</ele><time>2026-04-22T07:44:11.998Z</time></trkpt><trkpt lat="42.34828283887484" lon="2.8384698967883653"><ele>177.75</ele><time>2026-04-22T07:44:12.998Z</time></trkpt><trkpt lat="42.34841459137857" lon="2.8385586442108357"><ele>177.0</ele><time>2026-04-22T07:44:13.998Z</time></trkpt><trkpt lat="42.34854432023119" lon="2.8386437083874614"><ele>177.0</ele><time>2026-04-22T07:44:14.998Z</time></trkpt><trkpt lat="42.348677769942775" lon="2.838730197731467"><ele>177.0</ele><time>2026-04-22T07:44:15.998Z</time></trkpt><trkpt lat="42.34881477100046" lon="2.8388223243636554"><ele>177.0</ele><time>2026-04-22T07:44:16.998Z</time></trkpt><trkpt lat="42.348951042057735" lon="2.8389198709480565"><ele>177.33333333333334</ele><time>2026-04-22T07:44:17.998Z</time></trkpt><trkpt lat="42.34909456301691" lon="2.8390280967485935"><ele>177.66666666666669</ele><time>2026-04-22T07:44:18.998Z</time></trkpt><trkpt lat="42.349246089596946" lon="2.8391355466642674"><ele>178.0</ele><time>2026-04-22T07:44:19.998Z</time></trkpt><trkpt lat="42.34940505202665" lon="2.839247312013342"><ele>181.0</ele><time>2026-04-22T07:44:20.998Z</time></trkpt><trkpt lat="42.34957455010889" lon="2.839349949530749"><ele>184.0</ele><time>2026-04-22T07:44:21.998Z</time></trkpt><trkpt lat="42.34975300714226" lon="2.8394269704279775"><ele>187.0</ele><time>2026-04-22T07:44:22.998Z</time></trkpt><trkpt lat="42.34992148933025" lon="2.8394867158585204"><ele>190.0</ele><time>2026-04-22T07:44:24Z</time></trkpt><trkpt lat="42.350072738205256" lon="2.8395427640589497"><ele>193.0</ele><time>2026-04-22T07:44:25Z</time></trkpt><trkpt lat="42.35022350596643" lon="2.8396003376214107"><ele>196.0</ele><time>2026-04-22T07:44:26Z</time></trkpt><trkpt lat="42.35037377434215" lon="2.8396561232864377"><ele>196.0</ele><time>2026-04-22T07:44:27Z</time></trkpt><trkpt lat="42.350523073424284" lon="2.8396909665584262"><ele>196.0</ele><time>2026-04-22T07:44:28Z</time></trkpt><trkpt lat="42.35066445432396" lon="2.8396932032573936"><ele>196.0</ele><time>2026-04-22T07:44:29Z</time></trkpt><trkpt lat="42.35080005782637" lon="2.839660935734856"><ele>196.0</ele><time>2026-04-22T07:44:30Z</time></trkpt><trkpt lat="42.35093486562505" lon="2.839601766704504"><ele>196.5</ele><time>2026-04-22T07:44:31Z</time></trkpt><trkpt lat="42.351058080593226" lon="2.839514905104412"><ele>197.0</ele><time>2026-04-22T07:44:32Z</time></trkpt><trkpt lat="42.35118205279467" lon="2.8394280230966302"><ele>197.5</ele><time>2026-04-22T07:44:33Z</time></trkpt><trkpt lat="42.351310605046194" lon="2.8393548117985934"><ele>198.0</ele><time>2026-04-22T07:44:34Z</time></trkpt><trkpt lat="42.351443488701996" lon="2.8392880553459685"><ele>199.0</ele><time>2026-04-22T07:44:35Z</time></trkpt><trkpt lat="42.351573972065296" lon="2.83925127267616"><ele>200.0</ele><time>2026-04-22T07:44:36Z</time></trkpt><trkpt lat="42.35170627322218" lon="2.8392546745055944"><ele>201.0</ele><time>2026-04-22T07:44:37Z</time></trkpt><trkpt lat="42.351841995213306" lon="2.8392928465626617"><ele>202.0</ele><time>2026-04-22T07:44:38Z</time></trkpt><trkpt lat="42.35197749557534" lon="2.839352480320889"><ele>202.66666666666666</ele><time>2026-04-22T07:44:39Z</time></trkpt><trkpt lat="42.35212279385298" lon="2.839417565019751"><ele>203.33333333333331</ele><time>2026-04-22T07:44:40Z</time></trkpt><trkpt lat="42.35227267522466" lon="2.839479628363922"><ele>204.0</ele><time>2026-04-22T07:44:41Z</time></trkpt><trkpt lat="42.35241464764365" lon="2.8395361159072205"><ele>204.25</ele><time>2026-04-22T07:44:42Z</time></trkpt><trkpt lat="42.35254735828789" lon="2.8395905947306406"><ele>204.5</ele><time>2026-04-22T07:44:43Z</time></trkpt><trkpt lat="42.3526778252293" lon="2.8396485164336394"><ele>204.75</ele><time>2026-04-22T07:44:44Z</time></trkpt><trkpt lat="42.35280546377406" lon="2.839708555597304"><ele>205.0</ele><time>2026-04-22T07:44:45Z</time></trkpt><trkpt lat="42.35293113630571" lon="2.839766565979032"><ele>203.25</ele><time>2026-04-22T07:44:46Z</time></trkpt><trkpt lat="42.35305993401202" lon="2.839829362516598"><ele>201.5</ele><time>2026-04-22T07:44:47Z</time></trkpt><trkpt lat="42.35318862410212" lon="2.8398925810859077"><ele>199.75</ele><time>2026-04-22T07:44:48Z</time></trkpt><trkpt lat="42.353317326768924" lon="2.839954807612988"><ele>198.0</ele><time>2026-04-22T07:44:49Z</time></trkpt><trkpt lat="42.35344591345614" lon="2.840013720091254"><ele>198.0</ele><time>2026-04-22T07:44:50Z</time></trkpt><trkpt lat="42.35357214452917" lon="2.8400715284798856"><ele>198.0</ele><time>2026-04-22T07:44:51Z</time></trkpt><trkpt lat="42.353709811363515" lon="2.8401288264616897"><ele>198.0</ele><time>2026-04-22T07:44:52Z</time></trkpt><trkpt lat="42.353861193485194" lon="2.840191163945519"><ele>198.0</ele><time>2026-04-22T07:44:53Z</time></trkpt><trkpt lat="42.35402755509556" lon="2.8402616912075214"><ele>196.0</ele><time>2026-04-22T07:44:54Z</time></trkpt><trkpt lat="42.354205465971035" lon="2.8403450991493444"><ele>194.0</ele><time>2026-04-22T07:44:55Z</time></trkpt><trkpt lat="42.354368599233794" lon="2.8404202408413424"><ele>192.0</ele><time>2026-04-22T07:44:56Z</time></trkpt><trkpt lat="42.35453176079643" lon="2.840492261641937"><ele>192.0</ele><time>2026-04-22T07:44:57Z</time></trkpt><trkpt lat="42.35469682865425" lon="2.8405642120950825"><ele>192.0</ele><time>2026-04-22T07:44:58Z</time></trkpt><trkpt lat="42.35486026911634" lon="2.8406348747121997"><ele>192.0</ele><time>2026-04-22T07:44:59Z</time></trkpt><trkpt lat="42.3550274757108" lon="2.8407066470690654"><ele>189.33333333333334</ele><time>2026-04-22T07:45:00Z</time></trkpt><trkpt lat="42.35518023873129" lon="2.8407827120327953"><ele>186.66666666666669</ele><time>2026-04-22T07:45:01Z</time></trkpt><trkpt lat="42.35532521185336" lon="2.8408866481744224"><ele>184.0</ele><time>2026-04-22T07:45:02Z</time></trkpt><trkpt lat="42.35546061093413" lon="2.8410214534977274"><ele>181.66666666666669</ele><time>2026-04-22T07:45:03Z</time></trkpt><trkpt lat="42.355571979865175" lon="2.84118634014975"><ele>179.33333333333334</ele><time>2026-04-22T07:45:04Z</time></trkpt><trkpt lat="42.355686274537874" lon="2.8413753829108424"><ele>177.0</ele><time>2026-04-22T07:45:05Z</time></trkpt><trkpt lat="42.35579854251843" lon="2.8415733640610297"><ele>177.0</ele><time>2026-04-22T07:45:06Z</time></trkpt><trkpt lat="42.355904490451245" lon="2.8417633201709305"><ele>177.0</ele><time>2026-04-22T07:45:07Z</time></trkpt><trkpt lat="42.356012353932314" lon="2.841961790577896"><ele>177.0</ele><time>2026-04-22T07:45:07.999Z</time></trkpt><trkpt lat="42.3561227104023" lon="2.8421666966368666"><ele>178.0</ele><time>2026-04-22T07:45:08.999Z</time></trkpt><trkpt lat="42.35623528474895" lon="2.842374683653429"><ele>179.0</ele><time>2026-04-22T07:45:09.999Z</time></trkpt><trkpt lat="42.356339292296326" lon="2.84257230616858"><ele>180.0</ele><time>2026-04-22T07:45:10.999Z</time></trkpt><trkpt lat="42.35643439216797" lon="2.842761090119916"><ele>177.0</ele><time>2026-04-22T07:45:11.999Z</time></trkpt><trkpt lat="42.35653482483419" lon="2.842936081227785"><ele>174.0</ele><time>2026-04-22T07:45:12.999Z</time></trkpt><trkpt lat="42.356645747204254" lon="2.8430880789411455"><ele>171.0</ele><time>2026-04-22T07:45:13.999Z</time></trkpt><trkpt lat="42.356772284771495" lon="2.843206464401292"><ele>171.0</ele><time>2026-04-22T07:45:14.999Z</time></trkpt><trkpt lat="42.356915574560034" lon="2.843295614427136"><ele>171.0</ele><time>2026-04-22T07:45:15.999Z</time></trkpt><trkpt lat="42.35706118976819" lon="2.8433483109569306"><ele>171.0</ele><time>2026-04-22T07:45:16.999Z</time></trkpt><trkpt lat="42.35722066645683" lon="2.8433598351682075"><ele>170.66666666666666</ele><time>2026-04-22T07:45:17.999Z</time></trkpt><trkpt lat="42.35738748479411" lon="2.8433286689024895"><ele>170.33333333333331</ele><time>2026-04-22T07:45:18.999Z</time></trkpt><trkpt lat="42.35755257867324" lon="2.843271768864074"><ele>170.0</ele><time>2026-04-22T07:45:19.999Z</time></trkpt><trkpt lat="42.35772700487404" lon="2.8432126832591127"><ele>170.0</ele><time>2026-04-22T07:45:20.999Z</time></trkpt><trkpt lat="42.357910787462565" lon="2.843160905281587"><ele>170.0</ele><time>2026-04-22T07:45:21.999Z</time></trkpt><trkpt lat="42.358104711032986" lon="2.843106547539005"><ele>170.0</ele><time>2026-04-22T07:45:22.999Z</time></trkpt><trkpt lat="42.35829735459887" lon="2.8430451467570883"><ele>170.0</ele><time>2026-04-22T07:45:23.999Z</time></trkpt><trkpt lat="42.358494630081594" lon="2.8429916030459497"><ele>170.0</ele><time>2026-04-22T07:45:24.999Z</time></trkpt><trkpt lat="42.358689704176" lon="2.842928023675622"><ele>170.0</ele><time>2026-04-22T07:45:25.999Z</time></trkpt><trkpt lat="42.35886795940188" lon="2.8428679622187327"><ele>169.33333333333331</ele><time>2026-04-22T07:45:26.999Z</time></trkpt><trkpt lat="42.35903267332855" lon="2.8428045991562048"><ele>168.66666666666666</ele><time>2026-04-22T07:45:27.999Z</time></trkpt><trkpt lat="42.359183050465056" lon="2.842731315257806"><ele>168.0</ele><time>2026-04-22T07:45:28.999Z</time></trkpt><trkpt lat="42.35931777487541" lon="2.8426306772811243"><ele>170.66666666666666</ele><time>2026-04-22T07:45:29.999Z</time></trkpt><trkpt lat="42.35944648527984" lon="2.842498635001328"><ele>173.33333333333331</ele><time>2026-04-22T07:45:30.999Z</time></trkpt><trkpt lat="42.35956743685296" lon="2.8423320250808612"><ele>176.0</ele><time>2026-04-22T07:45:31.999Z</time></trkpt><trkpt lat="42.35968421674344" lon="2.842173747065327"><ele>175.66666666666666</ele><time>2026-04-22T07:45:32.999Z</time></trkpt><trkpt lat="42.359804403429045" lon="2.8420138816033447"><ele>175.33333333333334</ele><time>2026-04-22T07:45:33.999Z</time></trkpt><trkpt lat="42.35992040834509" lon="2.8418453468722853"><ele>175.0</ele><time>2026-04-22T07:45:34.999Z</time></trkpt><trkpt lat="42.360040841802956" lon="2.8416734579724903"><ele>175.0</ele><time>2026-04-22T07:45:35.999Z</time></trkpt><trkpt lat="42.36016140705843" lon="2.841497028154089"><ele>175.0</ele><time>2026-04-22T07:45:36.999Z</time></trkpt><trkpt lat="42.360281063031245" lon="2.8413188958190307"><ele>175.0</ele><time>2026-04-22T07:45:37.999Z</time></trkpt><trkpt lat="42.360394446110114" lon="2.8411364064611133"><ele>174.0</ele><time>2026-04-22T07:45:38.999Z</time></trkpt><trkpt lat="42.3604983626691" lon="2.8409516759585576"><ele>173.0</ele><time>2026-04-22T07:45:39.999Z</time></trkpt><trkpt lat="42.36059591648255" lon="2.8407683650443896"><ele>172.0</ele><time>2026-04-22T07:45:40.999Z</time></trkpt><trkpt lat="42.36068298066853" lon="2.84057792405166"><ele>172.0</ele><time>2026-04-22T07:45:41.999Z</time></trkpt><trkpt lat="42.36076379781712" lon="2.8403861272248485"><ele>172.0</ele><time>2026-04-22T07:45:42.999Z</time></trkpt><trkpt lat="42.36084177429474" lon="2.840211417486397"><ele>172.0</ele><time>2026-04-22T07:45:43.999Z</time></trkpt><trkpt lat="42.36091333138583" lon="2.840035614167259"><ele>174.0</ele><time>2026-04-22T07:45:44.999Z</time></trkpt><trkpt lat="42.36099779920256" lon="2.8398630034588717"><ele>176.0</ele><time>2026-04-22T07:45:45.999Z</time></trkpt><trkpt lat="42.361097729316036" lon="2.8396979074240285"><ele>178.0</ele><time>2026-04-22T07:45:46.999Z</time></trkpt><trkpt lat="42.36122470785658" lon="2.8395421873663946"><ele>179.0</ele><time>2026-04-22T07:45:47.999Z</time></trkpt><trkpt lat="42.361366447441036" lon="2.839396978530868"><ele>180.0</ele><time>2026-04-22T07:45:48.999Z</time></trkpt><trkpt lat="42.361509291049074" lon="2.839243916678299"><ele>181.0</ele><time>2026-04-22T07:45:49.999Z</time></trkpt><trkpt lat="42.36164386155956" lon="2.839093309710307"><ele>181.33333333333334</ele><time>2026-04-22T07:45:50.999Z</time></trkpt><trkpt lat="42.36176917957693" lon="2.838953872789204"><ele>181.66666666666666</ele><time>2026-04-22T07:45:51.999Z</time></trkpt><trkpt lat="42.3618957261519" lon="2.8388200877743395"><ele>182.0</ele><time>2026-04-22T07:45:52.999Z</time></trkpt><trkpt lat="42.36201458783096" lon="2.838692739888044"><ele>182.0</ele><time>2026-04-22T07:45:53.999Z</time></trkpt><trkpt lat="42.36212613927978" lon="2.838571208957814"><ele>182.0</ele><time>2026-04-22T07:45:54.999Z</time></trkpt><trkpt lat="42.36223879081972" lon="2.838451218184052"><ele>182.0</ele><time>2026-04-22T07:45:55.999Z</time></trkpt><trkpt lat="42.36235228514234" lon="2.8383346979075377"><ele>182.0</ele><time>2026-04-22T07:45:56.999Z</time></trkpt><trkpt lat="42.36246936730565" lon="2.8382222820588088"><ele>183.33333333333331</ele><time>2026-04-22T07:45:57.999Z</time></trkpt><trkpt lat="42.36259720956862" lon="2.8381130893676874"><ele>184.66666666666666</ele><time>2026-04-22T07:45:58.999Z</time></trkpt><trkpt lat="42.36273624978755" lon="2.8380099726825607"><ele>186.0</ele><time>2026-04-22T07:45:59.999Z</time></trkpt><trkpt lat="42.362878166205725" lon="2.8379110486181007"><ele>186.0</ele><time>2026-04-22T07:46:00.999Z</time></trkpt><trkpt lat="42.36301500428659" lon="2.83781323450965"><ele>186.0</ele><time>2026-04-22T07:46:01.999Z</time></trkpt><trkpt lat="42.36315303534819" lon="2.8377154209751883"><ele>186.0</ele><time>2026-04-22T07:46:02.999Z</time></trkpt><trkpt lat="42.36329100047507" lon="2.837618826391674"><ele>187.66666666666666</ele><time>2026-04-22T07:46:03.999Z</time></trkpt><trkpt lat="42.36342343054209" lon="2.837509871442594"><ele>189.33333333333331</ele><time>2026-04-22T07:46:04.999Z</time></trkpt><trkpt lat="42.36355170282701" lon="2.837385185651328"><ele>191.0</ele><time>2026-04-22T07:46:05.999Z</time></trkpt><trkpt lat="42.36367172926556" lon="2.837248181026964"><ele>191.0</ele><time>2026-04-22T07:46:06.999Z</time></trkpt><trkpt lat="42.363778940415216" lon="2.8371165802617373"><ele>191.0</ele><time>2026-04-22T07:46:07.999Z</time></trkpt><trkpt lat="42.363888511798116" lon="2.836992608359626"><ele>191.0</ele><time>2026-04-22T07:46:08.998Z</time></trkpt><trkpt lat="42.36399954480517" lon="2.8368793510095864"><ele>191.0</ele><time>2026-04-22T07:46:09.998Z</time></trkpt><trkpt lat="42.36411496509019" lon="2.836745833990253"><ele>191.75</ele><time>2026-04-22T07:46:10.998Z</time></trkpt><trkpt lat="42.36422389180466" lon="2.836622865643961"><ele>192.5</ele><time>2026-04-22T07:46:11.998Z</time></trkpt><trkpt lat="42.3643312418729" lon="2.8365049223721517"><ele>193.25</ele><time>2026-04-22T07:46:12.998Z</time></trkpt><trkpt lat="42.364447221209815" lon="2.8363773033586503"><ele>194.0</ele><time>2026-04-22T07:46:13.998Z</time></trkpt><trkpt lat="42.3645722375095" lon="2.8362413951195777"><ele>193.66666666666669</ele><time>2026-04-22T07:46:14.998Z</time></trkpt><trkpt lat="42.36470093124119" lon="2.8360955226842575"><ele>193.33333333333331</ele><time>2026-04-22T07:46:15.998Z</time></trkpt><trkpt lat="42.36482465844662" lon="2.835929546930995"><ele>193.0</ele><time>2026-04-22T07:46:16.998Z</time></trkpt><trkpt lat="42.36492964661509" lon="2.8357664828342606"><ele>193.0</ele><time>2026-04-22T07:46:17.998Z</time></trkpt><trkpt lat="42.36502197833474" lon="2.835605708211002"><ele>193.0</ele><time>2026-04-22T07:46:18.998Z</time></trkpt><trkpt lat="42.36510852722142" lon="2.8354479152259784"><ele>193.0</ele><time>2026-04-22T07:46:19.998Z</time></trkpt><trkpt lat="42.36519449661786" lon="2.835299044346102"><ele>193.0</ele><time>2026-04-22T07:46:20.998Z</time></trkpt><trkpt lat="42.365277633173896" lon="2.835170999577798"><ele>193.4</ele><time>2026-04-22T07:46:21.998Z</time></trkpt><trkpt lat="42.365367811376544" lon="2.8350750261868867"><ele>193.8</ele><time>2026-04-22T07:46:22.998Z</time></trkpt><trkpt lat="42.365469311789326" lon="2.8350087622448497"><ele>194.2</ele><time>2026-04-22T07:46:23.998Z</time></trkpt><trkpt lat="42.36556270585851" lon="2.8349544021094926"><ele>194.6</ele><time>2026-04-22T07:46:24.998Z</time></trkpt><trkpt lat="42.36565222403665" lon="2.83489230584982"><ele>195.0</ele><time>2026-04-22T07:46:25.998Z</time></trkpt><trkpt lat="42.36571381271239" lon="2.8348349218162285"><ele>195.0</ele><time>2026-04-22T07:46:26.998Z</time></trkpt><trkpt lat="42.365783036806064" lon="2.8347950549497303"><ele>195.0</ele><time>2026-04-22T07:46:30Z</time></trkpt><trkpt lat="42.36587721286035" lon="2.8347692418333814"><ele>195.0</ele><time>2026-04-22T07:46:43Z</time></trkpt><trkpt lat="42.36595822802044" lon="2.8347244355399983"><ele>195.0</ele><time>2026-04-22T07:46:45Z</time></trkpt><trkpt lat="42.36603887842156" lon="2.834702240108579"><ele>195.0</ele><time>2026-04-22T07:46:48Z</time></trkpt><trkpt lat="42.366007940795605" lon="2.8344543790651975"><ele>195.0</ele><time>2026-04-22T07:46:49Z</time></trkpt><trkpt lat="42.36598787386694" lon="2.834313458644945"><ele>195.0</ele><time>2026-04-22T07:46:50Z</time></trkpt><trkpt lat="42.36596973459073" lon="2.8341658056066836"><ele>195.0</ele><time>2026-04-22T07:46:51Z</time></trkpt><trkpt lat="42.36594692652655" lon="2.834005457485431"><ele>195.0</ele><time>2026-04-22T07:46:52Z</time></trkpt><trkpt lat="42.36596920232183" lon="2.8338188132829383"><ele>196.33333333333331</ele><time>2026-04-22T07:46:53Z</time></trkpt><trkpt lat="42.36600373266494" lon="2.83362500139357"><ele>197.66666666666666</ele><time>2026-04-22T07:46:54Z</time></trkpt><trkpt lat="42.36606275309777" lon="2.8334304192660578"><ele>199.0</ele><time>2026-04-22T07:46:55Z</time></trkpt><trkpt lat="42.36609708012972" lon="2.833206038830256"><ele>199.33333333333331</ele><time>2026-04-22T07:46:56Z</time></trkpt><trkpt lat="42.366153286405705" lon="2.832985474544267"><ele>199.66666666666669</ele><time>2026-04-22T07:46:57Z</time></trkpt><trkpt lat="42.36618922032702" lon="2.832755659129706"><ele>200.0</ele><time>2026-04-22T07:46:58Z</time></trkpt><trkpt lat="42.36623343038777" lon="2.8325238739379937"><ele>200.0</ele><time>2026-04-22T07:46:59Z</time></trkpt><trkpt lat="42.36628093056228" lon="2.8322935716324693"><ele>200.0</ele><time>2026-04-22T07:47:00Z</time></trkpt><trkpt lat="42.3663273519174" lon="2.832063064306518"><ele>200.0</ele><time>2026-04-22T07:47:01Z</time></trkpt><trkpt lat="42.366357062400255" lon="2.8318399067212168"><ele>200.0</ele><time>2026-04-22T07:47:02Z</time></trkpt><trkpt lat="42.36636138958196" lon="2.8316226022718194"><ele>200.0</ele><time>2026-04-22T07:47:03Z</time></trkpt><trkpt lat="42.36633119941759" lon="2.831393048407726"><ele>200.0</ele><time>2026-04-22T07:47:04Z</time></trkpt><trkpt lat="42.36628535663311" lon="2.831153303254661"><ele>200.33333333333334</ele><time>2026-04-22T07:47:05Z</time></trkpt><trkpt lat="42.36623836024892" lon="2.830908610022587"><ele>200.66666666666669</ele><time>2026-04-22T07:47:06Z</time></trkpt><trkpt lat="42.36619690353528" lon="2.830675920700709"><ele>201.0</ele><time>2026-04-22T07:47:07Z</time></trkpt><trkpt lat="42.366159617221165" lon="2.8304341398688613"><ele>201.0</ele><time>2026-04-22T07:47:08Z</time></trkpt><trkpt lat="42.36614155605086" lon="2.8301935966956493"><ele>201.0</ele><time>2026-04-22T07:47:09Z</time></trkpt><trkpt lat="42.366149969778675" lon="2.8299695359375403"><ele>201.0</ele><time>2026-04-22T07:47:10Z</time></trkpt><trkpt lat="42.366196910858065" lon="2.8297515227498016"><ele>200.0</ele><time>2026-04-22T07:47:11Z</time></trkpt><trkpt lat="42.366281767878355" lon="2.829540020886629"><ele>199.0</ele><time>2026-04-22T07:47:12Z</time></trkpt><trkpt lat="42.36637582539708" lon="2.8293626764674995"><ele>198.0</ele><time>2026-04-22T07:47:13Z</time></trkpt><trkpt lat="42.36643723821769" lon="2.829198212910478"><ele>198.0</ele><time>2026-04-22T07:47:13.999Z</time></trkpt><trkpt lat="42.366465426140806" lon="2.829034711629975"><ele>198.0</ele><time>2026-04-22T07:47:14.999Z</time></trkpt><trkpt lat="42.36644896221976" lon="2.8288792204772224"><ele>198.0</ele><time>2026-04-22T07:47:15.999Z</time></trkpt><trkpt lat="42.36638478642197" lon="2.8287356101402437"><ele>198.0</ele><time>2026-04-22T07:47:16.999Z</time></trkpt><trkpt lat="42.36628982460906" lon="2.8286050885342466"><ele>199.66666666666669</ele><time>2026-04-22T07:47:17.999Z</time></trkpt><trkpt lat="42.366165228572115" lon="2.828471273477885"><ele>201.33333333333334</ele><time>2026-04-22T07:47:18.999Z</time></trkpt><trkpt lat="42.366048781048114" lon="2.828317652468804"><ele>203.0</ele><time>2026-04-22T07:47:19.999Z</time></trkpt><trkpt lat="42.36594830486596" lon="2.8281376316475937"><ele>203.0</ele><time>2026-04-22T07:47:20.999Z</time></trkpt><trkpt lat="42.36588724478349" lon="2.8279225547504243"><ele>203.0</ele><time>2026-04-22T07:47:21.999Z</time></trkpt><trkpt lat="42.36586318426135" lon="2.8276931818169295"><ele>203.0</ele><time>2026-04-22T07:47:22.999Z</time></trkpt><trkpt lat="42.36588668547266" lon="2.8274455053237944"><ele>201.0</ele><time>2026-04-22T07:47:23.999Z</time></trkpt><trkpt lat="42.365942940938204" lon="2.8272138509635063"><ele>199.0</ele><time>2026-04-22T07:47:24.999Z</time></trkpt><trkpt lat="42.366040737152446" lon="2.8269936777147104"><ele>197.0</ele><time>2026-04-22T07:47:25.999Z</time></trkpt><trkpt lat="42.3661648470347" lon="2.8267856871795902"><ele>196.33333333333334</ele><time>2026-04-22T07:47:26.999Z</time></trkpt><trkpt lat="42.36629242036797" lon="2.8265776078172533"><ele>195.66666666666669</ele><time>2026-04-22T07:47:27.999Z</time></trkpt><trkpt lat="42.36643195603898" lon="2.8263718281557577"><ele>195.0</ele><time>2026-04-22T07:47:28.999Z</time></trkpt><trkpt lat="42.3666015130702" lon="2.826198985065473"><ele>195.0</ele><time>2026-04-22T07:47:29.999Z</time></trkpt><trkpt lat="42.36679387676125" lon="2.8260605582825407"><ele>195.0</ele><time>2026-04-22T07:47:30.999Z</time></trkpt><trkpt lat="42.36698822212176" lon="2.825931966194043"><ele>195.0</ele><time>2026-04-22T07:47:31.999Z</time></trkpt><trkpt lat="42.36717869023275" lon="2.825798700769907"><ele>195.0</ele><time>2026-04-22T07:47:32.999Z</time></trkpt><trkpt lat="42.36736079229886" lon="2.82564038516145"><ele>195.0</ele><time>2026-04-22T07:47:33.999Z</time></trkpt><trkpt lat="42.367529334105285" lon="2.8254446023347524"><ele>195.0</ele><time>2026-04-22T07:47:34.999Z</time></trkpt><trkpt lat="42.36767350345219" lon="2.8252227312622322"><ele>198.66666666666669</ele><time>2026-04-22T07:47:35.999Z</time></trkpt><trkpt lat="42.36778207641981" lon="2.824967226696699"><ele>202.33333333333334</ele><time>2026-04-22T07:47:36.999Z</time></trkpt><trkpt lat="42.36787169752212" lon="2.8246847434178575"><ele>206.0</ele><time>2026-04-22T07:47:37.999Z</time></trkpt><trkpt lat="42.36793720863605" lon="2.8243845894404713"><ele>205.66666666666669</ele><time>2026-04-22T07:47:38.999Z</time></trkpt><trkpt lat="42.36797863460273" lon="2.8241004962523713"><ele>205.33333333333331</ele><time>2026-04-22T07:47:39.999Z</time></trkpt><trkpt lat="42.36801120701111" lon="2.823833710930087"><ele>205.0</ele><time>2026-04-22T07:47:40.999Z</time></trkpt><trkpt lat="42.36808442513522" lon="2.8236181931169795"><ele>207.0</ele><time>2026-04-22T07:47:41.999Z</time></trkpt><trkpt lat="42.36818697871387" lon="2.8234382405549328"><ele>209.0</ele><time>2026-04-22T07:47:42.999Z</time></trkpt><trkpt lat="42.36832025437566" lon="2.8233188301513406"><ele>211.0</ele><time>2026-04-22T07:47:43.999Z</time></trkpt><trkpt lat="42.36846841167899" lon="2.823255301035733"><ele>211.0</ele><time>2026-04-22T07:47:44.999Z</time></trkpt><trkpt lat="42.36861682161293" lon="2.8232415670204647"><ele>211.0</ele><time>2026-04-22T07:47:45.999Z</time></trkpt><trkpt lat="42.36873014513796" lon="2.8231887122967563"><ele>211.0</ele><time>2026-04-22T07:47:46.999Z</time></trkpt><trkpt lat="42.368828655214" lon="2.8230742115612375"><ele>211.0</ele><time>2026-04-22T07:47:47.999Z</time></trkpt><trkpt lat="42.3688955104792" lon="2.822896465118642"><ele>210.33333333333331</ele><time>2026-04-22T07:47:48.999Z</time></trkpt><trkpt lat="42.36892807810741" lon="2.8226818039089068"><ele>209.66666666666669</ele><time>2026-04-22T07:47:49.999Z</time></trkpt><trkpt lat="42.36892581391173" lon="2.8224475727442715"><ele>209.0</ele><time>2026-04-22T07:47:50.999Z</time></trkpt><trkpt lat="42.36888132827481" lon="2.8222374270418706"><ele>210.33333333333334</ele><time>2026-04-22T07:47:51.999Z</time></trkpt><trkpt lat="42.36881110503686" lon="2.822045137985504"><ele>211.66666666666669</ele><time>2026-04-22T07:47:52.999Z</time></trkpt><trkpt lat="42.36878143434001" lon="2.8218488600424503"><ele>213.0</ele><time>2026-04-22T07:47:53.999Z</time></trkpt><trkpt lat="42.36879249978442" lon="2.8216352582453874"><ele>216.0</ele><time>2026-04-22T07:47:54.999Z</time></trkpt><trkpt lat="42.36886277375317" lon="2.821430092554948"><ele>219.0</ele><time>2026-04-22T07:47:55.999Z</time></trkpt><trkpt lat="42.368966106204034" lon="2.821226140595848"><ele>222.0</ele><time>2026-04-22T07:47:56.999Z</time></trkpt><trkpt lat="42.36905799539936" lon="2.8210015653330203"><ele>222.0</ele><time>2026-04-22T07:47:57.999Z</time></trkpt><trkpt lat="42.369166889896654" lon="2.8207708225488717"><ele>222.0</ele><time>2026-04-22T07:47:58.999Z</time></trkpt><trkpt lat="42.369299014911476" lon="2.8205674223014072"><ele>222.0</ele><time>2026-04-22T07:47:59.999Z</time></trkpt><trkpt lat="42.36945981385447" lon="2.820395340549727"><ele>222.0</ele><time>2026-04-22T07:48:00.999Z</time></trkpt><trkpt lat="42.369637518037884" lon="2.820248061945272"><ele>222.0</ele><time>2026-04-22T07:48:01.999Z</time></trkpt><trkpt lat="42.36975182652315" lon="2.820070097112058"><ele>222.0</ele><time>2026-04-22T07:48:02.999Z</time></trkpt><trkpt lat="42.36986717891834" lon="2.819901414445225"><ele>222.33333333333331</ele><time>2026-04-22T07:48:03.999Z</time></trkpt><trkpt lat="42.36996956304211" lon="2.8197363461477396"><ele>222.66666666666666</ele><time>2026-04-22T07:48:04.999Z</time></trkpt><trkpt lat="42.37012203035132" lon="2.8196336916801874"><ele>223.0</ele><time>2026-04-22T07:48:05.999Z</time></trkpt><trkpt lat="42.37030937160561" lon="2.819590910854514"><ele>223.0</ele><time>2026-04-22T07:48:06.999Z</time></trkpt><trkpt lat="42.37048186070968" lon="2.819580564234885"><ele>223.0</ele><time>2026-04-22T07:48:07.999Z</time></trkpt><trkpt lat="42.3706313437898" lon="2.8195501600813873"><ele>223.0</ele><time>2026-04-22T07:48:08.999Z</time></trkpt><trkpt lat="42.370754655314" lon="2.8194742659138607"><ele>221.75</ele><time>2026-04-22T07:48:09.999Z</time></trkpt><trkpt lat="42.37085040831574" lon="2.8193527536370486"><ele>220.5</ele><time>2026-04-22T07:48:10.999Z</time></trkpt><trkpt lat="42.37090865967919" lon="2.8191897635075387"><ele>219.25</ele><time>2026-04-22T07:48:11.999Z</time></trkpt><trkpt lat="42.370962427211246" lon="2.818992938147316"><ele>218.0</ele><time>2026-04-22T07:48:12.999Z</time></trkpt><trkpt lat="42.371043639956795" lon="2.8188073353915484"><ele>220.33333333333334</ele><time>2026-04-22T07:48:13.999Z</time></trkpt><trkpt lat="42.37115678054089" lon="2.8186415090313552"><ele>222.66666666666669</ele><time>2026-04-22T07:48:14.998Z</time></trkpt><trkpt lat="42.37127340541197" lon="2.818503454486755"><ele>225.0</ele><time>2026-04-22T07:48:15.998Z</time></trkpt><trkpt lat="42.371378488915" lon="2.81838052952318"><ele>225.0</ele><time>2026-04-22T07:48:16.998Z</time></trkpt><trkpt lat="42.37144958390663" lon="2.818256360004303"><ele>225.0</ele><time>2026-04-22T07:48:17.998Z</time></trkpt><trkpt lat="42.371498613281545" lon="2.818129214465616"><ele>225.0</ele><time>2026-04-22T07:48:18.998Z</time></trkpt><trkpt lat="42.37149117953945" lon="2.8179713218977707"><ele>225.0</ele><time>2026-04-22T07:48:19.998Z</time></trkpt><trkpt lat="42.37143392328356" lon="2.817782146649255"><ele>231.0</ele><time>2026-04-22T07:48:20.998Z</time></trkpt><trkpt lat="42.371341248206605" lon="2.817605877016311"><ele>237.0</ele><time>2026-04-22T07:48:21.998Z</time></trkpt><trkpt lat="42.37124639364239" lon="2.817453525246705"><ele>243.0</ele><time>2026-04-22T07:48:22.998Z</time></trkpt><trkpt lat="42.37114155630931" lon="2.817297360436381"><ele>243.0</ele><time>2026-04-22T07:48:23.998Z</time></trkpt><trkpt lat="42.371023413903075" lon="2.8171398843764126"><ele>243.0</ele><time>2026-04-22T07:48:24.998Z</time></trkpt><trkpt lat="42.37091052494584" lon="2.816961204119009"><ele>243.0</ele><time>2026-04-22T07:48:25.998Z</time></trkpt><trkpt lat="42.37081467554888" lon="2.81675045596982"><ele>240.66666666666669</ele><time>2026-04-22T07:48:26.998Z</time></trkpt><trkpt lat="42.37074551737364" lon="2.816514464755397"><ele>238.33333333333334</ele><time>2026-04-22T07:48:27.998Z</time></trkpt><trkpt lat="42.37071718366311" lon="2.816262055679184"><ele>236.0</ele><time>2026-04-22T07:48:28.998Z</time></trkpt><trkpt lat="42.37073419753597" lon="2.815995400788247"><ele>237.66666666666669</ele><time>2026-04-22T07:48:29.998Z</time></trkpt><trkpt lat="42.3707816055794" lon="2.81572969469992"><ele>239.33333333333331</ele><time>2026-04-22T07:48:30.998Z</time></trkpt><trkpt lat="42.37086042040667" lon="2.815434344417336"><ele>241.0</ele><time>2026-04-22T07:48:31.998Z</time></trkpt><trkpt lat="42.370916484055414" lon="2.8151260326927514"><ele>245.0</ele><time>2026-04-22T07:48:32.998Z</time></trkpt><trkpt lat="42.37095494636978" lon="2.814811071574895"><ele>249.0</ele><time>2026-04-22T07:48:33.998Z</time></trkpt><trkpt lat="42.3709969288033" lon="2.814489608165377"><ele>248.0</ele><time>2026-04-22T07:48:34.998Z</time></trkpt><trkpt lat="42.37101225578731" lon="2.81417135546892"><ele>247.0</ele><time>2026-04-22T07:48:36Z</time></trkpt><trkpt lat="42.371022866258876" lon="2.8138532031367234"><ele>247.0</ele><time>2026-04-22T07:48:37Z</time></trkpt><trkpt lat="42.37103224534897" lon="2.8135199958631034"><ele>247.0</ele><time>2026-04-22T07:48:38Z</time></trkpt><trkpt lat="42.37104254427577" lon="2.813179745079501"><ele>246.5</ele><time>2026-04-22T07:48:39Z</time></trkpt><trkpt lat="42.37105336323264" lon="2.812852621491838"><ele>246.0</ele><time>2026-04-22T07:48:40Z</time></trkpt><trkpt lat="42.37106257176853" lon="2.81252992211287"><ele>250.0</ele><time>2026-04-22T07:48:41Z</time></trkpt><trkpt lat="42.37107078553312" lon="2.8122262813776246"><ele>254.0</ele><time>2026-04-22T07:48:42Z</time></trkpt><trkpt lat="42.3710649631638" lon="2.8119480394283287"><ele>258.0</ele><time>2026-04-22T07:48:43Z</time></trkpt><trkpt lat="42.37109062643844" lon="2.8116806166657833"><ele>263.5</ele><time>2026-04-22T07:48:44Z</time></trkpt><trkpt lat="42.371158586803986" lon="2.8113952011318513"><ele>269.0</ele><time>2026-04-22T07:48:45Z</time></trkpt><trkpt lat="42.371238932556615" lon="2.8111053960250953"><ele>272.33333333333337</ele><time>2026-04-22T07:48:46Z</time></trkpt><trkpt lat="42.37131757387438" lon="2.8108440661183702"><ele>275.6666666666667</ele><time>2026-04-22T07:48:47Z</time></trkpt><trkpt lat="42.37141565669038" lon="2.810599352706766"><ele>279.0</ele><time>2026-04-22T07:48:48Z</time></trkpt><trkpt lat="42.37152266347115" lon="2.8103769866939614"><ele>274.6666666666667</ele><time>2026-04-22T07:48:49Z</time></trkpt><trkpt lat="42.3715849844455" lon="2.8101068640681444"><ele>270.33333333333337</ele><time>2026-04-22T07:48:50Z</time></trkpt><trkpt lat="42.37162846706118" lon="2.8098172021576517"><ele>266.0</ele><time>2026-04-22T07:48:51Z</time></trkpt><trkpt lat="42.37171998373634" lon="2.809547003689029"><ele>271.0</ele><time>2026-04-22T07:48:52Z</time></trkpt><trkpt lat="42.3718339729706" lon="2.8092860119127505"><ele>276.0</ele><time>2026-04-22T07:48:53Z</time></trkpt><trkpt lat="42.3719594575159" lon="2.809021051898045"><ele>276.0</ele><time>2026-04-22T07:48:54Z</time></trkpt><trkpt lat="42.37207926035181" lon="2.8087556565283505"><ele>276.0</ele><time>2026-04-22T07:48:55Z</time></trkpt><trkpt lat="42.3722033594643" lon="2.8085257578945226"><ele>276.0</ele><time>2026-04-22T07:48:56Z</time></trkpt><trkpt lat="42.37230605896165" lon="2.8082911217541566"><ele>275.6666666666667</ele><time>2026-04-22T07:48:57Z</time></trkpt><trkpt lat="42.37240139823869" lon="2.808074622114774"><ele>275.33333333333337</ele><time>2026-04-22T07:48:58Z</time></trkpt><trkpt lat="42.372497833481276" lon="2.807865249609808"><ele>275.0</ele><time>2026-04-22T07:48:59Z</time></trkpt><trkpt lat="42.372600158721156" lon="2.8076601871293025"><ele>275.0</ele><time>2026-04-22T07:49:00Z</time></trkpt><trkpt lat="42.372697802920655" lon="2.8074569342985054"><ele>275.0</ele><time>2026-04-22T07:49:01Z</time></trkpt><trkpt lat="42.37279181335325" lon="2.807235983336929"><ele>275.0</ele><time>2026-04-22T07:49:02Z</time></trkpt><trkpt lat="42.372880599917174" lon="2.8069943894964484"><ele>275.6666666666667</ele><time>2026-04-22T07:49:03Z</time></trkpt><trkpt lat="42.372983609588175" lon="2.8067787788687055"><ele>276.3333333333333</ele><time>2026-04-22T07:49:04Z</time></trkpt><trkpt lat="42.37308135344255" lon="2.806569668763509"><ele>277.0</ele><time>2026-04-22T07:49:05Z</time></trkpt><trkpt lat="42.37316791712783" lon="2.8063623167851826"><ele>277.0</ele><time>2026-04-22T07:49:06Z</time></trkpt><trkpt lat="42.37324609558638" lon="2.806159509359825"><ele>277.0</ele><time>2026-04-22T07:49:07Z</time></trkpt><trkpt lat="42.37327041675698" lon="2.8059287043909245"><ele>277.0</ele><time>2026-04-22T07:49:08Z</time></trkpt><trkpt lat="42.37325072278163" lon="2.8056877928895574"><ele>274.66666666666663</ele><time>2026-04-22T07:49:09Z</time></trkpt><trkpt lat="42.37321374264708" lon="2.805451209896446"><ele>272.3333333333333</ele><time>2026-04-22T07:49:10Z</time></trkpt><trkpt lat="42.37317394186158" lon="2.805220310970959"><ele>270.0</ele><time>2026-04-22T07:49:11Z</time></trkpt><trkpt lat="42.37319578911322" lon="2.8049778665848444"><ele>268.6666666666667</ele><time>2026-04-22T07:49:12Z</time></trkpt><trkpt lat="42.37326357023228" lon="2.8047298539025904"><ele>267.33333333333337</ele><time>2026-04-22T07:49:13Z</time></trkpt><trkpt lat="42.373375455407874" lon="2.8045118191797056"><ele>266.0</ele><time>2026-04-22T07:49:14Z</time></trkpt><trkpt lat="42.37346959063992" lon="2.8043539031344"><ele>263.6666666666667</ele><time>2026-04-22T07:49:15Z</time></trkpt><trkpt lat="42.373525107534384" lon="2.8041629678005027"><ele>261.3333333333333</ele><time>2026-04-22T07:49:16Z</time></trkpt><trkpt lat="42.37354851081656" lon="2.8039535456816114"><ele>259.0</ele><time>2026-04-22T07:49:17Z</time></trkpt><trkpt lat="42.37353095584198" lon="2.8037576313604036"><ele>259.0</ele><time>2026-04-22T07:49:18Z</time></trkpt><trkpt lat="42.37347134025511" lon="2.8035845403187127"><ele>259.0</ele><time>2026-04-22T07:49:18.999Z</time></trkpt><trkpt lat="42.37335937606719" lon="2.803435510356206"><ele>259.0</ele><time>2026-04-22T07:49:19.999Z</time></trkpt><trkpt lat="42.373215612798795" lon="2.8033081845460277"><ele>258.0</ele><time>2026-04-22T07:49:20.999Z</time></trkpt><trkpt lat="42.373055316501194" lon="2.803183542017474"><ele>257.0</ele><time>2026-04-22T07:49:21.999Z</time></trkpt><trkpt lat="42.37291568464656" lon="2.803020253365171"><ele>256.0</ele><time>2026-04-22T07:49:22.999Z</time></trkpt><trkpt lat="42.37280868551723" lon="2.802810327265285"><ele>254.66666666666666</ele><time>2026-04-22T07:49:23.999Z</time></trkpt><trkpt lat="42.3727506684232" lon="2.802581210258867"><ele>253.33333333333331</ele><time>2026-04-22T07:49:24.999Z</time></trkpt><trkpt lat="42.372742729883505" lon="2.8023412973123087"><ele>252.0</ele><time>2026-04-22T07:49:25.999Z</time></trkpt><trkpt lat="42.37277902572549" lon="2.8020925535248002"><ele>250.33333333333331</ele><time>2026-04-22T07:49:26.999Z</time></trkpt><trkpt lat="42.37284532003658" lon="2.8018293680455253"><ele>248.66666666666666</ele><time>2026-04-22T07:49:27.999Z</time></trkpt><trkpt lat="42.37292890068863" lon="2.8015851250765045"><ele>247.0</ele><time>2026-04-22T07:49:28.999Z</time></trkpt><trkpt lat="42.37299224360164" lon="2.801351763883993"><ele>249.66666666666666</ele><time>2026-04-22T07:49:29.999Z</time></trkpt><trkpt lat="42.37304963790387" lon="2.8011377197624405"><ele>252.33333333333331</ele><time>2026-04-22T07:49:30.999Z</time></trkpt><trkpt lat="42.37314168661816" lon="2.8009799891054996"><ele>255.0</ele><time>2026-04-22T07:49:31.999Z</time></trkpt><trkpt lat="42.37325253421232" lon="2.8008626001775396"><ele>255.0</ele><time>2026-04-22T07:49:32.999Z</time></trkpt><trkpt lat="42.37337288030669" lon="2.800783350255388"><ele>255.0</ele><time>2026-04-22T07:49:33.999Z</time></trkpt><trkpt lat="42.37349836415975" lon="2.800756445019939"><ele>255.0</ele><time>2026-04-22T07:49:34.999Z</time></trkpt><trkpt lat="42.373616841059125" lon="2.8008034427311186"><ele>255.0</ele><time>2026-04-22T07:49:35.999Z</time></trkpt><trkpt lat="42.37371416386895" lon="2.8008565339117157"><ele>255.0</ele><time>2026-04-22T07:49:36.999Z</time></trkpt><trkpt lat="42.37383362644136" lon="2.8008202902279766"><ele>255.0</ele><time>2026-04-22T07:49:37.999Z</time></trkpt><trkpt lat="42.37392554624288" lon="2.8006928354206178"><ele>255.0</ele><time>2026-04-22T07:49:38.999Z</time></trkpt><trkpt lat="42.37402150624447" lon="2.8005795207946833"><ele>255.0</ele><time>2026-04-22T07:49:39.999Z</time></trkpt><trkpt lat="42.37414832455814" lon="2.8005049822132535"><ele>258.0</ele><time>2026-04-22T07:49:40.999Z</time></trkpt><trkpt lat="42.374286129391706" lon="2.800491928410101"><ele>261.0</ele><time>2026-04-22T07:49:41.999Z</time></trkpt><trkpt lat="42.37440284914973" lon="2.800455241906203"><ele>264.0</ele><time>2026-04-22T07:49:42.999Z</time></trkpt><trkpt lat="42.374514700049325" lon="2.800334101940443"><ele>267.0</ele><time>2026-04-22T07:49:43.999Z</time></trkpt><trkpt lat="42.37459857961946" lon="2.800176575688004"><ele>268.0</ele><time>2026-04-22T07:49:44.999Z</time></trkpt><trkpt lat="42.37461772251344" lon="2.7999682377685042"><ele>269.0</ele><time>2026-04-22T07:49:45.999Z</time></trkpt><trkpt lat="42.37463929058456" lon="2.799764931632232"><ele>270.0</ele><time>2026-04-22T07:49:46.999Z</time></trkpt><trkpt lat="42.3747227381189" lon="2.799602191195191"><ele>270.0</ele><time>2026-04-22T07:49:47.999Z</time></trkpt><trkpt lat="42.374836998934825" lon="2.7994332521386935"><ele>270.0</ele><time>2026-04-22T07:49:48.999Z</time></trkpt><trkpt lat="42.37493176744455" lon="2.7992400405308224"><ele>270.0</ele><time>2026-04-22T07:49:49.999Z</time></trkpt><trkpt lat="42.37501421589726" lon="2.7990602856730438"><ele>266.25</ele><time>2026-04-22T07:49:50.999Z</time></trkpt><trkpt lat="42.375087567369064" lon="2.7989035043445876"><ele>262.5</ele><time>2026-04-22T07:49:51.999Z</time></trkpt><trkpt lat="42.37520256105012" lon="2.7987922856542653"><ele>258.75</ele><time>2026-04-22T07:49:52.999Z</time></trkpt><trkpt lat="42.37535020081596" lon="2.7987162413326976"><ele>255.0</ele><time>2026-04-22T07:49:53.999Z</time></trkpt><trkpt lat="42.37551505637516" lon="2.7986753775741575"><ele>255.33333333333331</ele><time>2026-04-22T07:49:54.999Z</time></trkpt><trkpt lat="42.37566327431676" lon="2.7985783330029927"><ele>255.66666666666666</ele><time>2026-04-22T07:49:55.999Z</time></trkpt><trkpt lat="42.37579011837613" lon="2.798449303917878"><ele>256.0</ele><time>2026-04-22T07:49:56.999Z</time></trkpt><trkpt lat="42.37590115087761" lon="2.7983135243692128"><ele>256.0</ele><time>2026-04-22T07:49:57.999Z</time></trkpt><trkpt lat="42.375992263487184" lon="2.7981558114504237"><ele>256.0</ele><time>2026-04-22T07:49:58.999Z</time></trkpt><trkpt lat="42.37604170800226" lon="2.7979801248815095"><ele>256.0</ele><time>2026-04-22T07:49:59.999Z</time></trkpt><trkpt lat="42.37607770333734" lon="2.7977958904747857"><ele>256.0</ele><time>2026-04-22T07:50:00.999Z</time></trkpt><trkpt lat="42.376150959444985" lon="2.7976069803140864"><ele>260.66666666666663</ele><time>2026-04-22T07:50:01.999Z</time></trkpt><trkpt lat="42.37627129148808" lon="2.797443712277537"><ele>265.3333333333333</ele><time>2026-04-22T07:50:02.999Z</time></trkpt><trkpt lat="42.37638835689338" lon="2.7972733471010147"><ele>270.0</ele><time>2026-04-22T07:50:03.999Z</time></trkpt><trkpt lat="42.37648412811089" lon="2.7970740373873593"><ele>270.0</ele><time>2026-04-22T07:50:04.999Z</time></trkpt><trkpt lat="42.376548501190435" lon="2.796865544456519"><ele>270.0</ele><time>2026-04-22T07:50:05.999Z</time></trkpt><trkpt lat="42.376604682482764" lon="2.7966520564324777"><ele>270.0</ele><time>2026-04-22T07:50:06.999Z</time></trkpt><trkpt lat="42.37669853148645" lon="2.796457516208785"><ele>265.75</ele><time>2026-04-22T07:50:07.999Z</time></trkpt><trkpt lat="42.37680628630704" lon="2.796299676836612"><ele>261.5</ele><time>2026-04-22T07:50:08.999Z</time></trkpt><trkpt lat="42.37689230069602" lon="2.7961391278025056"><ele>257.25</ele><time>2026-04-22T07:50:09.999Z</time></trkpt><trkpt lat="42.37696903083989" lon="2.795976891055891"><ele>253.0</ele><time>2026-04-22T07:50:10.999Z</time></trkpt><trkpt lat="42.37699066894269" lon="2.7957912115521957"><ele>255.75</ele><time>2026-04-22T07:50:11.999Z</time></trkpt><trkpt lat="42.3769981705383" lon="2.795625299633149"><ele>258.5</ele><time>2026-04-22T07:50:12.999Z</time></trkpt><trkpt lat="42.37706024928047" lon="2.795479883235289"><ele>261.25</ele><time>2026-04-22T07:50:13.999Z</time></trkpt><trkpt lat="42.37717401714552" lon="2.7953624398002432"><ele>264.0</ele><time>2026-04-22T07:50:14.999Z</time></trkpt><trkpt lat="42.377327126577924" lon="2.7953097985698117"><ele>264.0</ele><time>2026-04-22T07:50:15.999Z</time></trkpt><trkpt lat="42.3774755013896" lon="2.7951907677812358"><ele>264.0</ele><time>2026-04-22T07:50:16.999Z</time></trkpt><trkpt lat="42.377635151717364" lon="2.795056633774526"><ele>264.0</ele><time>2026-04-22T07:50:17.999Z</time></trkpt><trkpt lat="42.37780167698147" lon="2.7949050908768642"><ele>260.3333333333333</ele><time>2026-04-22T07:50:18.999Z</time></trkpt><trkpt lat="42.37797708061082" lon="2.7947462956952345"><ele>256.66666666666663</ele><time>2026-04-22T07:50:19.999Z</time></trkpt><trkpt lat="42.37816440236848" lon="2.7945760330972873"><ele>253.0</ele><time>2026-04-22T07:50:20.998Z</time></trkpt><trkpt lat="42.37834915424572" lon="2.794370418954427"><ele>238.0</ele><time>2026-04-22T07:50:21.998Z</time></trkpt><trkpt lat="42.37852270954904" lon="2.7941360122322116"><ele>223.0</ele><time>2026-04-22T07:50:22.998Z</time></trkpt><trkpt lat="42.37867974287195" lon="2.793874370308667"><ele>223.0</ele><time>2026-04-22T07:50:23.998Z</time></trkpt><trkpt lat="42.37882478587949" lon="2.7935710929649367"><ele>223.0</ele><time>2026-04-22T07:50:24.998Z</time></trkpt><trkpt lat="42.37894942493053" lon="2.793246844759045"><ele>223.5</ele><time>2026-04-22T07:50:25.998Z</time></trkpt><trkpt lat="42.379049515441416" lon="2.7928955488698994"><ele>224.0</ele><time>2026-04-22T07:50:26.998Z</time></trkpt><trkpt lat="42.379111871624644" lon="2.792560251598005"><ele>224.0</ele><time>2026-04-22T07:50:27.998Z</time></trkpt><trkpt lat="42.3791391931309" lon="2.792227809210649"><ele>224.0</ele><time>2026-04-22T07:50:28.998Z</time></trkpt><trkpt lat="42.37913529476162" lon="2.791926020357888"><ele>230.33333333333334</ele><time>2026-04-22T07:50:29.998Z</time></trkpt><trkpt lat="42.37909706671828" lon="2.7917137951753426"><ele>236.66666666666669</ele><time>2026-04-22T07:50:30.998Z</time></trkpt><trkpt lat="42.37908746397766" lon="2.7914242875223425"><ele>243.0</ele><time>2026-04-22T07:50:31.998Z</time></trkpt><trkpt lat="42.3790841407606" lon="2.791150664694911"><ele>245.0</ele><time>2026-04-22T07:50:32.998Z</time></trkpt><trkpt lat="42.379085358344526" lon="2.790892424851823"><ele>247.0</ele><time>2026-04-22T07:50:33.998Z</time></trkpt><trkpt lat="42.37908780981769" lon="2.7906725354387576"><ele>249.0</ele><time>2026-04-22T07:50:34.998Z</time></trkpt><trkpt lat="42.37909259797573" lon="2.790477661097964"><ele>249.0</ele><time>2026-04-22T07:50:35.998Z</time></trkpt><trkpt lat="42.3791380729442" lon="2.7902895684292637"><ele>249.0</ele><time>2026-04-22T07:50:36.998Z</time></trkpt><trkpt lat="42.37924203719924" lon="2.7901714535967694"><ele>249.0</ele><time>2026-04-22T07:50:37.998Z</time></trkpt><trkpt lat="42.3793528928118" lon="2.790000032913819"><ele>248.0</ele><time>2026-04-22T07:50:38.998Z</time></trkpt><trkpt lat="42.37947406372981" lon="2.7898213993407004"><ele>247.0</ele><time>2026-04-22T07:50:39.998Z</time></trkpt><trkpt lat="42.37959375097706" lon="2.789652132695386"><ele>246.0</ele><time>2026-04-22T07:50:40.998Z</time></trkpt><trkpt lat="42.37970647281328" lon="2.789497989266449"><ele>248.0</ele><time>2026-04-22T07:50:42Z</time></trkpt><trkpt lat="42.37981680382543" lon="2.789362594921734"><ele>250.0</ele><time>2026-04-22T07:50:43Z</time></trkpt><trkpt lat="42.37993306779761" lon="2.789260438295647"><ele>252.0</ele><time>2026-04-22T07:50:44Z</time></trkpt><trkpt lat="42.380065465403135" lon="2.78918643019134"><ele>254.0</ele><time>2026-04-22T07:50:45Z</time></trkpt><trkpt lat="42.38022085261609" lon="2.789134238658817"><ele>254.0</ele><time>2026-04-22T07:50:46Z</time></trkpt><trkpt lat="42.38040566268822" lon="2.789061646308346"><ele>254.0</ele><time>2026-04-22T07:50:47Z</time></trkpt><trkpt lat="42.38058615626442" lon="2.7889609141561813"><ele>254.0</ele><time>2026-04-22T07:50:48Z</time></trkpt><trkpt lat="42.38075907708266" lon="2.788816475488275"><ele>254.33333333333334</ele><time>2026-04-22T07:50:49Z</time></trkpt><trkpt lat="42.380952740063485" lon="2.7887044297308274"><ele>254.66666666666669</ele><time>2026-04-22T07:50:50Z</time></trkpt><trkpt lat="42.38114316820176" lon="2.7885499920571983"><ele>255.0</ele><time>2026-04-22T07:50:51Z</time></trkpt><trkpt lat="42.38134403743124" lon="2.788408314633014"><ele>257.5</ele><time>2026-04-22T07:50:52Z</time></trkpt><trkpt lat="42.38155001560257" lon="2.7882654282972252"><ele>260.0</ele><time>2026-04-22T07:50:53Z</time></trkpt><trkpt lat="42.38176875507469" lon="2.7881087022903306"><ele>260.0</ele><time>2026-04-22T07:50:54Z</time></trkpt><trkpt lat="42.38196133049934" lon="2.787971646637228"><ele>260.0</ele><time>2026-04-22T07:50:55Z</time></trkpt><trkpt lat="42.382166227966046" lon="2.787865775525082"><ele>260.0</ele><time>2026-04-22T07:50:56Z</time></trkpt><trkpt lat="42.38235238579909" lon="2.7877498064421493"><ele>257.6666666666667</ele><time>2026-04-22T07:50:57Z</time></trkpt><trkpt lat="42.382541117954226" lon="2.787675823169418"><ele>255.33333333333331</ele><time>2026-04-22T07:50:58Z</time></trkpt><trkpt lat="42.38275186773157" lon="2.7876359043994987"><ele>253.0</ele><time>2026-04-22T07:50:59Z</time></trkpt><trkpt lat="42.38296665480001" lon="2.7876065564218133"><ele>254.33333333333331</ele><time>2026-04-22T07:51:00Z</time></trkpt><trkpt lat="42.383170888348566" lon="2.7875646376765095"><ele>255.66666666666669</ele><time>2026-04-22T07:51:01Z</time></trkpt><trkpt lat="42.38336851696403" lon="2.787523998583652"><ele>257.0</ele><time>2026-04-22T07:51:02Z</time></trkpt><trkpt lat="42.38356116613873" lon="2.7874278412165654"><ele>257.0</ele><time>2026-04-22T07:51:03Z</time></trkpt><trkpt lat="42.38374200566974" lon="2.78726588519065"><ele>257.0</ele><time>2026-04-22T07:51:04Z</time></trkpt><trkpt lat="42.383909048572896" lon="2.7870772842772134"><ele>257.0</ele><time>2026-04-22T07:51:05Z</time></trkpt><trkpt lat="42.38407211191967" lon="2.7868790909421333"><ele>257.0</ele><time>2026-04-22T07:51:06Z</time></trkpt><trkpt lat="42.384253584475815" lon="2.7867321068505477"><ele>257.0</ele><time>2026-04-22T07:51:07Z</time></trkpt><trkpt lat="42.3844422237637" lon="2.7866026344256905"><ele>257.0</ele><time>2026-04-22T07:51:08Z</time></trkpt><trkpt lat="42.38465545743392" lon="2.786514200508222"><ele>263.5</ele><time>2026-04-22T07:51:09Z</time></trkpt><trkpt lat="42.38487763669492" lon="2.7864378339836646"><ele>270.0</ele><time>2026-04-22T07:51:10Z</time></trkpt><trkpt lat="42.38510376279765" lon="2.786348041572159"><ele>270.0</ele><time>2026-04-22T07:51:11Z</time></trkpt><trkpt lat="42.38531591584427" lon="2.786304740951357"><ele>270.0</ele><time>2026-04-22T07:51:12Z</time></trkpt><trkpt lat="42.38550362486168" lon="2.7862518877475786"><ele>270.0</ele><time>2026-04-22T07:51:13Z</time></trkpt><trkpt lat="42.385664459607284" lon="2.7861627422710957"><ele>271.3333333333333</ele><time>2026-04-22T07:51:14Z</time></trkpt><trkpt lat="42.38581764532707" lon="2.7860253450028005"><ele>272.66666666666663</ele><time>2026-04-22T07:51:15Z</time></trkpt><trkpt lat="42.385958968088545" lon="2.7858438693748906"><ele>274.0</ele><time>2026-04-22T07:51:16Z</time></trkpt><trkpt lat="42.38608790085137" lon="2.7856215870176495"><ele>271.66666666666663</ele><time>2026-04-22T07:51:17Z</time></trkpt><trkpt lat="42.38620600835694" lon="2.7853830304921368"><ele>269.3333333333333</ele><time>2026-04-22T07:51:18Z</time></trkpt><trkpt lat="42.38633290871743" lon="2.7851593466265383"><ele>267.0</ele><time>2026-04-22T07:51:19Z</time></trkpt><trkpt lat="42.38650393551293" lon="2.7850082849242925"><ele>267.0</ele><time>2026-04-22T07:51:20Z</time></trkpt><trkpt lat="42.38666516313206" lon="2.7848213688527874"><ele>267.0</ele><time>2026-04-22T07:51:21Z</time></trkpt><trkpt lat="42.386820030502136" lon="2.784616573549078"><ele>267.0</ele><time>2026-04-22T07:51:22Z</time></trkpt><trkpt lat="42.3869582244173" lon="2.7843785182641976"><ele>269.0</ele><time>2026-04-22T07:51:23Z</time></trkpt><trkpt lat="42.38708040816767" lon="2.78411724130432"><ele>271.0</ele><time>2026-04-22T07:51:24Z</time></trkpt><trkpt lat="42.38720059209861" lon="2.783874225264593"><ele>273.0</ele><time>2026-04-22T07:51:25Z</time></trkpt><trkpt lat="42.38732656961716" lon="2.7836460479594773"><ele>266.0</ele><time>2026-04-22T07:51:26Z</time></trkpt><trkpt lat="42.38747727106147" lon="2.783426741009155"><ele>259.0</ele><time>2026-04-22T07:51:26.999Z</time></trkpt><trkpt lat="42.387652600006504" lon="2.7832193471382647"><ele>259.0</ele><time>2026-04-22T07:51:27.999Z</time></trkpt><trkpt lat="42.3878292955857" lon="2.7830183880330415"><ele>259.0</ele><time>2026-04-22T07:51:28.999Z</time></trkpt><trkpt lat="42.38797233309796" lon="2.7828016144472887"><ele>259.0</ele><time>2026-04-22T07:51:29.999Z</time></trkpt><trkpt lat="42.388090328326946" lon="2.782585761416273"><ele>261.3333333333333</ele><time>2026-04-22T07:51:30.999Z</time></trkpt><trkpt lat="42.38820635074203" lon="2.78237672969449"><ele>263.6666666666667</ele><time>2026-04-22T07:51:31.999Z</time></trkpt><trkpt lat="42.388316671815005" lon="2.7821856079391654"><ele>266.0</ele><time>2026-04-22T07:51:32.999Z</time></trkpt><trkpt lat="42.38842335104038" lon="2.7820105231317567"><ele>266.0</ele><time>2026-04-22T07:51:33.999Z</time></trkpt><trkpt lat="42.38853094153587" lon="2.7818516105374216"><ele>266.0</ele><time>2026-04-22T07:51:34.999Z</time></trkpt><trkpt lat="42.38865806864982" lon="2.781728325539164"><ele>266.0</ele><time>2026-04-22T07:51:35.999Z</time></trkpt><trkpt lat="42.388808098822004" lon="2.7816596005926453"><ele>266.0</ele><time>2026-04-22T07:51:36.999Z</time></trkpt><trkpt lat="42.38895431712394" lon="2.7816180022443033"><ele>266.0</ele><time>2026-04-22T07:51:37.999Z</time></trkpt><trkpt lat="42.38906334562468" lon="2.781558359420836"><ele>266.0</ele><time>2026-04-22T07:51:38.999Z</time></trkpt><trkpt lat="42.389131268713385" lon="2.7814641953711168"><ele>266.0</ele><time>2026-04-22T07:51:39.999Z</time></trkpt><trkpt lat="42.3891592737891" lon="2.781322479332456"><ele>266.0</ele><time>2026-04-22T07:51:40.999Z</time></trkpt><trkpt lat="42.38916783918259" lon="2.7811493130347413"><ele>266.0</ele><time>2026-04-22T07:51:41.999Z</time></trkpt><trkpt lat="42.389204342497905" lon="2.780953414975595"><ele>266.0</ele><time>2026-04-22T07:51:42.999Z</time></trkpt><trkpt lat="42.389233962220146" lon="2.7807944582782764"><ele>266.0</ele><time>2026-04-22T07:51:43.999Z</time></trkpt><trkpt lat="42.38908044134554" lon="2.7806296799636434"><ele>264.25</ele><time>2026-04-22T07:51:44.999Z</time></trkpt><trkpt lat="42.38899751241193" lon="2.7805465310504665"><ele>262.5</ele><time>2026-04-22T07:51:45.999Z</time></trkpt><trkpt lat="42.388882271274895" lon="2.7805358461520204"><ele>260.75</ele><time>2026-04-22T07:51:46.999Z</time></trkpt><trkpt lat="42.388756804837804" lon="2.7805632217766467"><ele>259.0</ele><time>2026-04-22T07:51:47.999Z</time></trkpt><trkpt lat="42.38863621722939" lon="2.7805629672492613"><ele>258.0</ele><time>2026-04-22T07:51:48.999Z</time></trkpt><trkpt lat="42.38851429795613" lon="2.780465026222349"><ele>257.0</ele><time>2026-04-22T07:51:49.999Z</time></trkpt><trkpt lat="42.388414817454354" lon="2.78027888782129"><ele>256.0</ele><time>2026-04-22T07:51:50.999Z</time></trkpt><trkpt lat="42.38831036807552" lon="2.7800945377712325"><ele>257.5</ele><time>2026-04-22T07:51:51.999Z</time></trkpt><trkpt lat="42.38817717498559" lon="2.779991898296963"><ele>259.0</ele><time>2026-04-22T07:51:52.999Z</time></trkpt><trkpt lat="42.38803364027177" lon="2.7799554998178353"><ele>260.5</ele><time>2026-04-22T07:51:53.999Z</time></trkpt><trkpt lat="42.3879155498398" lon="2.7798854919991"><ele>262.0</ele><time>2026-04-22T07:51:54.999Z</time></trkpt><trkpt lat="42.38783246892714" lon="2.7797478321007083"><ele>262.0</ele><time>2026-04-22T07:51:55.999Z</time></trkpt><trkpt lat="42.38776811638008" lon="2.7795530637924815"><ele>262.0</ele><time>2026-04-22T07:51:56.999Z</time></trkpt><trkpt lat="42.38769028586183" lon="2.7793495675000357"><ele>262.0</ele><time>2026-04-22T07:51:57.999Z</time></trkpt><trkpt lat="42.387570607084015" lon="2.779168113725635"><ele>265.0</ele><time>2026-04-22T07:51:58.999Z</time></trkpt><trkpt lat="42.387422714058204" lon="2.7790250097664106"><ele>268.0</ele><time>2026-04-22T07:51:59.999Z</time></trkpt><trkpt lat="42.3872473168623" lon="2.778925647715605"><ele>271.0</ele><time>2026-04-22T07:52:00.999Z</time></trkpt><trkpt lat="42.38704563227675" lon="2.778881485303781"><ele>272.66666666666663</ele><time>2026-04-22T07:52:01.999Z</time></trkpt><trkpt lat="42.386835462441425" lon="2.778861803793394"><ele>274.3333333333333</ele><time>2026-04-22T07:52:02.999Z</time></trkpt><trkpt lat="42.3866238279519" lon="2.7788643694960626"><ele>276.0</ele><time>2026-04-22T07:52:03.999Z</time></trkpt><trkpt lat="42.38643198113642" lon="2.7788655763102343"><ele>277.0</ele><time>2026-04-22T07:52:04.999Z</time></trkpt><trkpt lat="42.386252286111215" lon="2.778822204299569"><ele>278.0</ele><time>2026-04-22T07:52:05.999Z</time></trkpt><trkpt lat="42.386083894241345" lon="2.7786943941373456"><ele>279.0</ele><time>2026-04-22T07:52:06.999Z</time></trkpt><trkpt lat="42.38593934941003" lon="2.7785018028082367"><ele>282.0</ele><time>2026-04-22T07:52:07.999Z</time></trkpt><trkpt lat="42.385800635980495" lon="2.7782932373575346"><ele>285.0</ele><time>2026-04-22T07:52:08.999Z</time></trkpt><trkpt lat="42.38563853380174" lon="2.778112355452979"><ele>288.0</ele><time>2026-04-22T07:52:09.999Z</time></trkpt><trkpt lat="42.385458185487366" lon="2.777994619578896"><ele>288.0</ele><time>2026-04-22T07:52:10.999Z</time></trkpt><trkpt lat="42.38526243565891" lon="2.777927694482919"><ele>288.0</ele><time>2026-04-22T07:52:11.999Z</time></trkpt><trkpt lat="42.38506101190815" lon="2.7779119437926165"><ele>288.0</ele><time>2026-04-22T07:52:12.999Z</time></trkpt><trkpt lat="42.38485693185848" lon="2.7779422807912586"><ele>288.6666666666667</ele><time>2026-04-22T07:52:13.999Z</time></trkpt><trkpt lat="42.38466230842656" lon="2.7779698494451606"><ele>289.33333333333337</ele><time>2026-04-22T07:52:14.999Z</time></trkpt><trkpt lat="42.38448059659811" lon="2.777936910828507"><ele>290.0</ele><time>2026-04-22T07:52:15.999Z</time></trkpt><trkpt lat="42.38431184998537" lon="2.77784574376607"><ele>290.0</ele><time>2026-04-22T07:52:16.999Z</time></trkpt><trkpt lat="42.38415091292961" lon="2.7776998047359376"><ele>290.0</ele><time>2026-04-22T07:52:17.999Z</time></trkpt><trkpt lat="42.38401680894612" lon="2.777496098410457"><ele>290.0</ele><time>2026-04-22T07:52:18.999Z</time></trkpt><trkpt lat="42.38391087912489" lon="2.7772716596691334"><ele>293.6666666666667</ele><time>2026-04-22T07:52:19.999Z</time></trkpt><trkpt lat="42.38384861285281" lon="2.777009323061724"><ele>297.3333333333333</ele><time>2026-04-22T07:52:20.999Z</time></trkpt><trkpt lat="42.3838350552849" lon="2.7767408334958223"><ele>301.0</ele><time>2026-04-22T07:52:21.999Z</time></trkpt><trkpt lat="42.38385749254882" lon="2.776470989726849"><ele>304.0</ele><time>2026-04-22T07:52:22.999Z</time></trkpt><trkpt lat="42.38392940302627" lon="2.776214118349243"><ele>307.0</ele><time>2026-04-22T07:52:23.999Z</time></trkpt><trkpt lat="42.384052984102205" lon="2.7759853757858295"><ele>310.0</ele><time>2026-04-22T07:52:24.999Z</time></trkpt><trkpt lat="42.38419121703671" lon="2.7757706656403838"><ele>312.3333333333333</ele><time>2026-04-22T07:52:25.999Z</time></trkpt><trkpt lat="42.384332968301" lon="2.7755556188607513"><ele>314.6666666666667</ele><time>2026-04-22T07:52:26.999Z</time></trkpt><trkpt lat="42.38448168128152" lon="2.7753286286626686"><ele>317.0</ele><time>2026-04-22T07:52:27.999Z</time></trkpt><trkpt lat="42.384619697275625" lon="2.7751048464171557"><ele>318.0</ele><time>2026-04-22T07:52:28.999Z</time></trkpt><trkpt lat="42.384761304939055" lon="2.774887997177286"><ele>319.0</ele><time>2026-04-22T07:52:29.998Z</time></trkpt><trkpt lat="42.38489577868751" lon="2.7746691052080314"><ele>320.0</ele><time>2026-04-22T07:52:30.998Z</time></trkpt><trkpt lat="42.38501891734747" lon="2.7744379915052675"><ele>318.6666666666667</ele><time>2026-04-22T07:52:31.998Z</time></trkpt><trkpt lat="42.385138011250454" lon="2.7741927641506656"><ele>317.3333333333333</ele><time>2026-04-22T07:52:32.998Z</time></trkpt><trkpt lat="42.38525164383267" lon="2.7739323156218427"><ele>316.0</ele><time>2026-04-22T07:52:33.998Z</time></trkpt><trkpt lat="42.38535370154122" lon="2.7736691878594635"><ele>313.0</ele><time>2026-04-22T07:52:34.998Z</time></trkpt><trkpt lat="42.38546196149018" lon="2.77338218075323"><ele>310.0</ele><time>2026-04-22T07:52:35.998Z</time></trkpt><trkpt lat="42.385555579166954" lon="2.7730926396343287"><ele>314.5</ele><time>2026-04-22T07:52:36.998Z</time></trkpt><trkpt lat="42.38564074483528" lon="2.7727831486456447"><ele>319.0</ele><time>2026-04-22T07:52:37.998Z</time></trkpt><trkpt lat="42.38570161708073" lon="2.772474042315322"><ele>319.0</ele><time>2026-04-22T07:52:38.998Z</time></trkpt><trkpt lat="42.385756305347286" lon="2.7721667134480237"><ele>319.0</ele><time>2026-04-22T07:52:39.998Z</time></trkpt><trkpt lat="42.38579956811063" lon="2.771879389219128"><ele>319.0</ele><time>2026-04-22T07:52:40.998Z</time></trkpt><trkpt lat="42.38584009231264" lon="2.771579597801587"><ele>319.0</ele><time>2026-04-22T07:52:41.998Z</time></trkpt><trkpt lat="42.38587910637335" lon="2.771292376108625"><ele>319.0</ele><time>2026-04-22T07:52:42.998Z</time></trkpt><trkpt lat="42.385919378023885" lon="2.771018054183153"><ele>318.3333333333333</ele><time>2026-04-22T07:52:43.998Z</time></trkpt><trkpt lat="42.38600722103974" lon="2.770750374321414"><ele>317.6666666666667</ele><time>2026-04-22T07:52:44.998Z</time></trkpt><trkpt lat="42.38611046486664" lon="2.7704776838816927"><ele>317.0</ele><time>2026-04-22T07:52:45.998Z</time></trkpt><trkpt lat="42.38619596700475" lon="2.770232188306702"><ele>316.0</ele><time>2026-04-22T07:52:46.998Z</time></trkpt><trkpt lat="42.386299588853596" lon="2.770011461602395"><ele>315.0</ele><time>2026-04-22T07:52:48Z</time></trkpt><trkpt lat="42.38644958453255" lon="2.7698717657518106"><ele>314.0</ele><time>2026-04-22T07:52:49Z</time></trkpt><trkpt lat="42.386571508374345" lon="2.7696962924576596"><ele>317.6666666666667</ele><time>2026-04-22T07:52:50Z</time></trkpt><trkpt lat="42.38667365720509" lon="2.769518176419302"><ele>321.3333333333333</ele><time>2026-04-22T07:52:51Z</time></trkpt><trkpt lat="42.38673693020542" lon="2.769288486093988"><ele>325.0</ele><time>2026-04-22T07:52:52Z</time></trkpt><trkpt lat="42.38675905581905" lon="2.769016445032719"><ele>325.0</ele><time>2026-04-22T07:52:53Z</time></trkpt><trkpt lat="42.386774953235296" lon="2.7687574921038136"><ele>325.0</ele><time>2026-04-22T07:52:54Z</time></trkpt><trkpt lat="42.38682301693718" lon="2.768534618790011"><ele>325.0</ele><time>2026-04-22T07:52:55Z</time></trkpt><trkpt lat="42.386929055096445" lon="2.7683359953805087"><ele>322.66666666666663</ele><time>2026-04-22T07:52:56Z</time></trkpt><trkpt lat="42.38709145086113" lon="2.768217677365276"><ele>320.3333333333333</ele><time>2026-04-22T07:52:57Z</time></trkpt><trkpt lat="42.387268840353954" lon="2.768092194191438"><ele>318.0</ele><time>2026-04-22T07:52:58Z</time></trkpt><trkpt lat="42.38745296648094" lon="2.7679556732204014"><ele>324.0</ele><time>2026-04-22T07:52:59Z</time></trkpt><trkpt lat="42.387642610359876" lon="2.767845554047558"><ele>330.0</ele><time>2026-04-22T07:53:00Z</time></trkpt><trkpt lat="42.38784183721881" lon="2.7677282565402117"><ele>336.0</ele><time>2026-04-22T07:53:01Z</time></trkpt><trkpt lat="42.388044492535315" lon="2.767625801185532"><ele>336.0</ele><time>2026-04-22T07:53:02Z</time></trkpt><trkpt lat="42.38825058121426" lon="2.767542001537368"><ele>336.0</ele><time>2026-04-22T07:53:03Z</time></trkpt><trkpt lat="42.38846980086218" lon="2.7674531862429306"><ele>336.0</ele><time>2026-04-22T07:53:04Z</time></trkpt><trkpt lat="42.38868246024704" lon="2.767350241603576"><ele>342.0</ele><time>2026-04-22T07:53:05Z</time></trkpt><trkpt lat="42.388902364495145" lon="2.7672285251883926"><ele>348.0</ele><time>2026-04-22T07:53:06Z</time></trkpt><trkpt lat="42.3891162696046" lon="2.7670972023518905"><ele>348.0</ele><time>2026-04-22T07:53:07Z</time></trkpt><trkpt lat="42.38933867685917" lon="2.7669642906255434"><ele>348.0</ele><time>2026-04-22T07:53:08Z</time></trkpt><trkpt lat="42.389563543478076" lon="2.766862615545485"><ele>345.3333333333333</ele><time>2026-04-22T07:53:09Z</time></trkpt><trkpt lat="42.389773798767926" lon="2.766802067885787"><ele>342.66666666666663</ele><time>2026-04-22T07:53:10Z</time></trkpt><trkpt lat="42.389987404492246" lon="2.7667509366827283"><ele>340.0</ele><time>2026-04-22T07:53:11Z</time></trkpt><trkpt lat="42.390183451504384" lon="2.766682588673161"><ele>340.0</ele><time>2026-04-22T07:53:12Z</time></trkpt><trkpt lat="42.3903561755051" lon="2.7666005886768015"><ele>340.0</ele><time>2026-04-22T07:53:13Z</time></trkpt><trkpt lat="42.3905207304347" lon="2.7664999049338137"><ele>340.0</ele><time>2026-04-22T07:53:14Z</time></trkpt><trkpt lat="42.39066622723573" lon="2.7663637203236937"><ele>340.0</ele><time>2026-04-22T07:53:15Z</time></trkpt><trkpt lat="42.390794016876015" lon="2.7661897254333976"><ele>340.0</ele><time>2026-04-22T07:53:16Z</time></trkpt><trkpt lat="42.390882637304365" lon="2.765991181057595"><ele>340.0</ele><time>2026-04-22T07:53:17Z</time></trkpt><trkpt lat="42.390941338890066" lon="2.7657822373658556"><ele>340.0</ele><time>2026-04-22T07:53:18Z</time></trkpt><trkpt lat="42.39096317199408" lon="2.765561040906068"><ele>340.0</ele><time>2026-04-22T07:53:19Z</time></trkpt><trkpt lat="42.39094018319393" lon="2.76533244465108"><ele>340.0</ele><time>2026-04-22T07:53:20Z</time></trkpt><trkpt lat="42.39087927123174" lon="2.76510632799272"><ele>339.3333333333333</ele><time>2026-04-22T07:53:21Z</time></trkpt><trkpt lat="42.39078186719189" lon="2.764881636010766"><ele>338.6666666666667</ele><time>2026-04-22T07:53:22Z</time></trkpt><trkpt lat="42.390686322792604" lon="2.7646504597459978"><ele>338.0</ele><time>2026-04-22T07:53:23Z</time></trkpt><trkpt lat="42.39058622559734" lon="2.7644363807137813"><ele>339.33333333333337</ele><time>2026-04-22T07:53:24Z</time></trkpt><trkpt lat="42.39046845570111" lon="2.7642627163363422"><ele>340.6666666666667</ele><time>2026-04-22T07:53:25Z</time></trkpt><trkpt lat="42.390332874858345" lon="2.7641403825886375"><ele>342.0</ele><time>2026-04-22T07:53:26Z</time></trkpt><trkpt lat="42.39018312901609" lon="2.7640736560282635"><ele>342.0</ele><time>2026-04-22T07:53:27Z</time></trkpt><trkpt lat="42.390028758615955" lon="2.7640537247150294"><ele>342.0</ele><time>2026-04-22T07:53:28Z</time></trkpt><trkpt lat="42.38986073291344" lon="2.7641003559754536"><ele>342.0</ele><time>2026-04-22T07:53:29Z</time></trkpt><trkpt lat="42.38968623377326" lon="2.7641809272132636"><ele>343.6666666666667</ele><time>2026-04-22T07:53:30Z</time></trkpt><trkpt lat="42.38950123665833" lon="2.7642414846402223"><ele>345.33333333333337</ele><time>2026-04-22T07:53:31Z</time></trkpt><trkpt lat="42.389333976369116" lon="2.764315174121204"><ele>347.0</ele><time>2026-04-22T07:53:32Z</time></trkpt><trkpt lat="42.38918608090417" lon="2.7643329333222653"><ele>347.0</ele><time>2026-04-22T07:53:32.999Z</time></trkpt><trkpt lat="42.3890563158531" lon="2.7642884658296523"><ele>347.0</ele><time>2026-04-22T07:53:33.999Z</time></trkpt><trkpt lat="42.388916825630766" lon="2.764170438122734"><ele>347.0</ele><time>2026-04-22T07:53:34.999Z</time></trkpt><trkpt lat="42.388763426513464" lon="2.7640275019448484"><ele>348.33333333333337</ele><time>2026-04-22T07:53:35.999Z</time></trkpt><trkpt lat="42.38862293861658" lon="2.763849154518151"><ele>349.6666666666667</ele><time>2026-04-22T07:53:36.999Z</time></trkpt><trkpt lat="42.38847928555774" lon="2.7636562771121342"><ele>351.0</ele><time>2026-04-22T07:53:37.999Z</time></trkpt><trkpt lat="42.38833230224222" lon="2.7634576951605947"><ele>351.0</ele><time>2026-04-22T07:53:38.999Z</time></trkpt><trkpt lat="42.38816721229395" lon="2.7632657707641664"><ele>351.0</ele><time>2026-04-22T07:53:39.999Z</time></trkpt><trkpt lat="42.3880022253322" lon="2.7630133319956336"><ele>352.5</ele><time>2026-04-22T07:53:40.999Z</time></trkpt><trkpt lat="42.38785238603349" lon="2.7627309679479284"><ele>354.0</ele><time>2026-04-22T07:53:41.999Z</time></trkpt><trkpt lat="42.3877236097917" lon="2.762460881274967"><ele>354.0</ele><time>2026-04-22T07:53:42.999Z</time></trkpt><trkpt lat="42.387605663531666" lon="2.76221089091701"><ele>354.0</ele><time>2026-04-22T07:53:43.999Z</time></trkpt><trkpt lat="42.387546394612535" lon="2.7622549961588034"><ele>354.0</ele><time>2026-04-22T07:53:44.999Z</time></trkpt><trkpt lat="42.3874726288143" lon="2.762117089495905"><ele>354.0</ele><time>2026-04-22T07:53:45.999Z</time></trkpt><trkpt lat="42.38741442184624" lon="2.761971491942979"><ele>354.5</ele><time>2026-04-22T07:53:46.999Z</time></trkpt><trkpt lat="42.38741175332845" lon="2.761814172183046"><ele>355.0</ele><time>2026-04-22T07:53:47.999Z</time></trkpt><trkpt lat="42.387457110373035" lon="2.761658138748029"><ele>355.5</ele><time>2026-04-22T07:53:48.999Z</time></trkpt><trkpt lat="42.38751542033208" lon="2.7614497555122735"><ele>356.0</ele><time>2026-04-22T07:53:49.999Z</time></trkpt><trkpt lat="42.387581830817545" lon="2.761219772847156"><ele>354.6666666666667</ele><time>2026-04-22T07:53:50.999Z</time></trkpt><trkpt lat="42.387654736675984" lon="2.7609696540158173"><ele>353.3333333333333</ele><time>2026-04-22T07:53:51.999Z</time></trkpt><trkpt lat="42.387729830016575" lon="2.7607120305202106"><ele>352.0</ele><time>2026-04-22T07:53:52.999Z</time></trkpt><trkpt lat="42.387800974323525" lon="2.760477694957705"><ele>352.0</ele><time>2026-04-22T07:53:53.999Z</time></trkpt><trkpt lat="42.38786313808082" lon="2.760252450408509"><ele>352.0</ele><time>2026-04-22T07:53:54.999Z</time></trkpt><trkpt lat="42.3878840627247" lon="2.7600508959169336"><ele>352.0</ele><time>2026-04-22T07:53:55.999Z</time></trkpt><trkpt lat="42.387904908379454" lon="2.7598609059564803"><ele>352.75</ele><time>2026-04-22T07:53:56.999Z</time></trkpt><trkpt lat="42.387893310875434" lon="2.7596752313547537"><ele>353.5</ele><time>2026-04-22T07:53:57.999Z</time></trkpt><trkpt lat="42.38784967133817" lon="2.7595071459451312"><ele>354.25</ele><time>2026-04-22T07:53:58.999Z</time></trkpt><trkpt lat="42.38777451516895" lon="2.7593507356734928"><ele>355.0</ele><time>2026-04-22T07:53:59.999Z</time></trkpt><trkpt lat="42.38766258136277" lon="2.759213734432165"><ele>355.0</ele><time>2026-04-22T07:54:00.999Z</time></trkpt><trkpt lat="42.3875202862405" lon="2.7591009622000504"><ele>355.0</ele><time>2026-04-22T07:54:01.999Z</time></trkpt><trkpt lat="42.38736402236412" lon="2.7590221190596256"><ele>355.0</ele><time>2026-04-22T07:54:02.999Z</time></trkpt><trkpt lat="42.38723050204567" lon="2.7589340439797305"><ele>354.0</ele><time>2026-04-22T07:54:03.999Z</time></trkpt><trkpt lat="42.387130533066056" lon="2.7587906249117577"><ele>353.0</ele><time>2026-04-22T07:54:04.999Z</time></trkpt><trkpt lat="42.38706228750432" lon="2.7586075458022865"><ele>352.0</ele><time>2026-04-22T07:54:05.999Z</time></trkpt><trkpt lat="42.387020726260694" lon="2.7583961316063026"><ele>352.0</ele><time>2026-04-22T07:54:06.999Z</time></trkpt><trkpt lat="42.38699334096515" lon="2.7581224844497405"><ele>352.0</ele><time>2026-04-22T07:54:07.999Z</time></trkpt><trkpt lat="42.38693783509123" lon="2.7578943575768764"><ele>352.0</ele><time>2026-04-22T07:54:08.999Z</time></trkpt><trkpt lat="42.38687720842089" lon="2.7576654396750904"><ele>351.66666666666663</ele><time>2026-04-22T07:54:09.999Z</time></trkpt><trkpt lat="42.38680945545748" lon="2.7574288952306802"><ele>351.3333333333333</ele><time>2026-04-22T07:54:10.999Z</time></trkpt><trkpt lat="42.386741145392804" lon="2.757188254581105"><ele>351.0</ele><time>2026-04-22T07:54:11.999Z</time></trkpt><trkpt lat="42.38668458705415" lon="2.756941491865588"><ele>351.0</ele><time>2026-04-22T07:54:12.999Z</time></trkpt><trkpt lat="42.38661212583231" lon="2.756696498745055"><ele>351.0</ele><time>2026-04-22T07:54:13.999Z</time></trkpt><trkpt lat="42.38650654343306" lon="2.7564582965997637"><ele>351.0</ele><time>2026-04-22T07:54:14.999Z</time></trkpt><trkpt lat="42.38643085077237" lon="2.7562020322688054"><ele>352.0</ele><time>2026-04-22T07:54:15.999Z</time></trkpt><trkpt lat="42.386356397099675" lon="2.7559378594951704"><ele>353.0</ele><time>2026-04-22T07:54:16.999Z</time></trkpt><trkpt lat="42.3862908335392" lon="2.7556783147392383"><ele>354.0</ele><time>2026-04-22T07:54:17.999Z</time></trkpt><trkpt lat="42.386225832792015" lon="2.755445583158526"><ele>351.6666666666667</ele><time>2026-04-22T07:54:18.999Z</time></trkpt><trkpt lat="42.38616117673896" lon="2.755216543305234"><ele>349.33333333333337</ele><time>2026-04-22T07:54:19.999Z</time></trkpt><trkpt lat="42.38609552519193" lon="2.754997437732426"><ele>347.0</ele><time>2026-04-22T07:54:20.999Z</time></trkpt><trkpt lat="42.38607359168902" lon="2.7547722551415057"><ele>347.0</ele><time>2026-04-22T07:54:21.999Z</time></trkpt><trkpt lat="42.3860250903123" lon="2.7545639042536325"><ele>347.0</ele><time>2026-04-22T07:54:22.999Z</time></trkpt><trkpt lat="42.38597541057504" lon="2.7543624633643513"><ele>347.0</ele><time>2026-04-22T07:54:23.999Z</time></trkpt><trkpt lat="42.385917262399516" lon="2.7541531768085705"><ele>347.25</ele><time>2026-04-22T07:54:24.999Z</time></trkpt><trkpt lat="42.385850203745896" lon="2.7539838202671887"><ele>347.5</ele><time>2026-04-22T07:54:25.999Z</time></trkpt><trkpt lat="42.38578875091818" lon="2.753829530111707"><ele>347.75</ele><time>2026-04-22T07:54:26.999Z</time></trkpt><trkpt lat="42.385699340685996" lon="2.7537096000053634"><ele>348.0</ele><time>2026-04-22T07:54:27.999Z</time></trkpt><trkpt lat="42.38556807631728" lon="2.7536267709610764"><ele>347.75</ele><time>2026-04-22T07:54:28.999Z</time></trkpt><trkpt lat="42.385421954310836" lon="2.7535874728544876"><ele>347.5</ele><time>2026-04-22T07:54:29.999Z</time></trkpt><trkpt lat="42.38527919602952" lon="2.753574286181323"><ele>347.25</ele><time>2026-04-22T07:54:30.999Z</time></trkpt><trkpt lat="42.385153221691624" lon="2.7535184092110683"><ele>347.0</ele><time>2026-04-22T07:54:31.999Z</time></trkpt><trkpt lat="42.38503768431435" lon="2.753429189670559"><ele>347.0</ele><time>2026-04-22T07:54:32.999Z</time></trkpt><trkpt lat="42.384947144638446" lon="2.7532995122119197"><ele>347.0</ele><time>2026-04-22T07:54:33.999Z</time></trkpt><trkpt lat="42.38489180219497" lon="2.753121168039902"><ele>347.0</ele><time>2026-04-22T07:54:34.999Z</time></trkpt><trkpt lat="42.3848532829428" lon="2.7529035482826263"><ele>347.0</ele><time>2026-04-22T07:54:35.998Z</time></trkpt><trkpt lat="42.384806241546904" lon="2.752653425102465"><ele>347.6666666666667</ele><time>2026-04-22T07:54:36.998Z</time></trkpt><trkpt lat="42.38476598172525" lon="2.7523942275686903"><ele>348.3333333333333</ele><time>2026-04-22T07:54:37.998Z</time></trkpt><trkpt lat="42.38470414668582" lon="2.752144646539978"><ele>349.0</ele><time>2026-04-22T07:54:38.998Z</time></trkpt><trkpt lat="42.38461112506613" lon="2.7519086015579837"><ele>347.66666666666663</ele><time>2026-04-22T07:54:39.998Z</time></trkpt><trkpt lat="42.38448359399608" lon="2.7516872039079585"><ele>346.3333333333333</ele><time>2026-04-22T07:54:40.998Z</time></trkpt><trkpt lat="42.384337905167285" lon="2.751479753625006"><ele>345.0</ele><time>2026-04-22T07:54:41.998Z</time></trkpt><trkpt lat="42.38417160801021" lon="2.7512963526465435"><ele>345.0</ele><time>2026-04-22T07:54:42.998Z</time></trkpt><trkpt lat="42.383992458771566" lon="2.7511273417383393"><ele>345.0</ele><time>2026-04-22T07:54:43.998Z</time></trkpt><trkpt lat="42.38381353037925" lon="2.7509583381918987"><ele>345.0</ele><time>2026-04-22T07:54:44.998Z</time></trkpt><trkpt lat="42.38363444510856" lon="2.750784467130107"><ele>347.0</ele><time>2026-04-22T07:54:45.998Z</time></trkpt><trkpt lat="42.38345784197354" lon="2.7505976994308905"><ele>349.0</ele><time>2026-04-22T07:54:46.998Z</time></trkpt><trkpt lat="42.383274052197784" lon="2.7504222042887077"><ele>351.0</ele><time>2026-04-22T07:54:47.998Z</time></trkpt><trkpt lat="42.38309369649039" lon="2.7502189641406987"><ele>356.5</ele><time>2026-04-22T07:54:48.998Z</time></trkpt><trkpt lat="42.38290320575843" lon="2.75003489025686"><ele>362.0</ele><time>2026-04-22T07:54:49.998Z</time></trkpt><trkpt lat="42.382728807500776" lon="2.749813970663273"><ele>362.0</ele><time>2026-04-22T07:54:50.998Z</time></trkpt><trkpt lat="42.38260007289533" lon="2.749559334990548"><ele>362.0</ele><time>2026-04-22T07:54:51.998Z</time></trkpt><trkpt lat="42.38248737872952" lon="2.7493056353890224"><ele>362.0</ele><time>2026-04-22T07:54:52.998Z</time></trkpt><trkpt lat="42.38238660136767" lon="2.7490348803999627"><ele>364.0</ele><time>2026-04-22T07:54:54Z</time></trkpt><trkpt lat="42.38231733886639" lon="2.7487373420502075"><ele>366.0</ele><time>2026-04-22T07:54:55Z</time></trkpt><trkpt lat="42.38227470404219" lon="2.748426873397404"><ele>370.0</ele><time>2026-04-22T07:54:56Z</time></trkpt><trkpt lat="42.38226283408684" lon="2.7481168710456467"><ele>374.0</ele><time>2026-04-22T07:54:57Z</time></trkpt><trkpt lat="42.38228541849541" lon="2.7478024791506503"><ele>377.5</ele><time>2026-04-22T07:54:58Z</time></trkpt><trkpt lat="42.38234331702858" lon="2.747496649371201"><ele>381.0</ele><time>2026-04-22T07:54:59Z</time></trkpt><trkpt lat="42.382425101045186" lon="2.7471982991839767"><ele>381.0</ele><time>2026-04-22T07:55:00Z</time></trkpt><trkpt lat="42.38253342803522" lon="2.746914455830873"><ele>381.0</ele><time>2026-04-22T07:55:01Z</time></trkpt><trkpt lat="42.382673599573394" lon="2.7466545001299165"><ele>382.5</ele><time>2026-04-22T07:55:02Z</time></trkpt><trkpt lat="42.38282558327551" lon="2.746419421081657"><ele>384.0</ele><time>2026-04-22T07:55:03Z</time></trkpt><trkpt lat="42.38300426183069" lon="2.7462171470441787"><ele>385.0</ele><time>2026-04-22T07:55:04Z</time></trkpt><trkpt lat="42.383205880017066" lon="2.746048613104228"><ele>386.0</ele><time>2026-04-22T07:55:05Z</time></trkpt><trkpt lat="42.38342168467997" lon="2.7459041494812726"><ele>386.0</ele><time>2026-04-22T07:55:06Z</time></trkpt><trkpt lat="42.38363799318632" lon="2.7457636407783017"><ele>386.0</ele><time>2026-04-22T07:55:07Z</time></trkpt><trkpt lat="42.38385092291499" lon="2.7456120524033922"><ele>386.5</ele><time>2026-04-22T07:55:08Z</time></trkpt><trkpt lat="42.38406193663153" lon="2.7454540497764675"><ele>387.0</ele><time>2026-04-22T07:55:09Z</time></trkpt><trkpt lat="42.384271463547336" lon="2.745296218011546"><ele>389.0</ele><time>2026-04-22T07:55:10Z</time></trkpt><trkpt lat="42.384488855016144" lon="2.745141220483147"><ele>391.0</ele><time>2026-04-22T07:55:11Z</time></trkpt><trkpt lat="42.384700286473354" lon="2.7449908134734504"><ele>391.0</ele><time>2026-04-22T07:55:12Z</time></trkpt><trkpt lat="42.38489312535946" lon="2.7448378136402938"><ele>391.0</ele><time>2026-04-22T07:55:13Z</time></trkpt><trkpt lat="42.3850685651542" lon="2.7446510021855244"><ele>391.0</ele><time>2026-04-22T07:55:14Z</time></trkpt><trkpt lat="42.38522372526615" lon="2.7444251411591076"><ele>398.0</ele><time>2026-04-22T07:55:15Z</time></trkpt><trkpt lat="42.38535154030125" lon="2.744163794548577"><ele>405.0</ele><time>2026-04-22T07:55:16Z</time></trkpt><trkpt lat="42.385460246350085" lon="2.7438808536079016"><ele>403.5</ele><time>2026-04-22T07:55:17Z</time></trkpt><trkpt lat="42.385541962459364" lon="2.7435785288981824"><ele>402.0</ele><time>2026-04-22T07:55:18Z</time></trkpt><trkpt lat="42.38561959348188" lon="2.7432622783296217"><ele>407.5</ele><time>2026-04-22T07:55:19Z</time></trkpt><trkpt lat="42.38569699741301" lon="2.7429537152383765"><ele>413.0</ele><time>2026-04-22T07:55:20Z</time></trkpt><trkpt lat="42.38577449276471" lon="2.7426374009385306"><ele>415.5</ele><time>2026-04-22T07:55:21Z</time></trkpt><trkpt lat="42.38585166066446" lon="2.7423182121081173"><ele>418.0</ele><time>2026-04-22T07:55:22Z</time></trkpt><trkpt lat="42.38593427034414" lon="2.741994514693438"><ele>421.5</ele><time>2026-04-22T07:55:23Z</time></trkpt><trkpt lat="42.38601981003583" lon="2.7416683532161117"><ele>425.0</ele><time>2026-04-22T07:55:24Z</time></trkpt><trkpt lat="42.3861082740459" lon="2.7413477332003704"><ele>426.5</ele><time>2026-04-22T07:55:25Z</time></trkpt><trkpt lat="42.38617920502146" lon="2.741043193696983"><ele>428.0</ele><time>2026-04-22T07:55:26Z</time></trkpt><trkpt lat="42.38623685916374" lon="2.7407445052842894"><ele>428.0</ele><time>2026-04-22T07:55:27Z</time></trkpt><trkpt lat="42.38627058812866" lon="2.740461177505856"><ele>428.0</ele><time>2026-04-22T07:55:28Z</time></trkpt><trkpt lat="42.386265307947056" lon="2.7401784537916165"><ele>428.0</ele><time>2026-04-22T07:55:29Z</time></trkpt><trkpt lat="42.38621573235624" lon="2.7399030121316907"><ele>429.66666666666663</ele><time>2026-04-22T07:55:30Z</time></trkpt><trkpt lat="42.38613498784793" lon="2.7396344304196867"><ele>431.33333333333337</ele><time>2026-04-22T07:55:31Z</time></trkpt><trkpt lat="42.38601798532767" lon="2.739382943898467"><ele>433.0</ele><time>2026-04-22T07:55:32Z</time></trkpt><trkpt lat="42.38587523468499" lon="2.7391473401688797"><ele>436.0</ele><time>2026-04-22T07:55:33Z</time></trkpt><trkpt lat="42.38572442854314" lon="2.7389097201030923"><ele>439.0</ele><time>2026-04-22T07:55:34Z</time></trkpt><trkpt lat="42.385585967212116" lon="2.738652532899766"><ele>441.0</ele><time>2026-04-22T07:55:35Z</time></trkpt><trkpt lat="42.385451255955445" lon="2.73837515741023"><ele>443.0</ele><time>2026-04-22T07:55:36Z</time></trkpt><trkpt lat="42.38532265209741" lon="2.738098880429808"><ele>443.0</ele><time>2026-04-22T07:55:37Z</time></trkpt><trkpt lat="42.38521423173502" lon="2.7378153479807845"><ele>443.0</ele><time>2026-04-22T07:55:37.999Z</time></trkpt><trkpt lat="42.385130247843875" lon="2.7375088159333796"><ele>442.5</ele><time>2026-04-22T07:55:38.999Z</time></trkpt><trkpt lat="42.385073516173144" lon="2.737180692642049"><ele>442.0</ele><time>2026-04-22T07:55:39.999Z</time></trkpt><trkpt lat="42.38502720729778" lon="2.7368325382586853"><ele>441.5</ele><time>2026-04-22T07:55:40.999Z</time></trkpt><trkpt lat="42.384982555830796" lon="2.7364812981442297"><ele>441.0</ele><time>2026-04-22T07:55:41.999Z</time></trkpt><trkpt lat="42.384934648750246" lon="2.736133376814923"><ele>441.0</ele><time>2026-04-22T07:55:42.999Z</time></trkpt><trkpt lat="42.3848899349942" lon="2.7358125594753955"><ele>441.0</ele><time>2026-04-22T07:55:43.999Z</time></trkpt><trkpt lat="42.38484573779794" lon="2.735497962860624"><ele>439.0</ele><time>2026-04-22T07:55:44.999Z</time></trkpt><trkpt lat="42.3848093391729" lon="2.7352011552702216"><ele>437.0</ele><time>2026-04-22T07:55:45.999Z</time></trkpt><trkpt lat="42.38478366538385" lon="2.7349061080987505"><ele>435.0</ele><time>2026-04-22T07:55:46.999Z</time></trkpt><trkpt lat="42.38479045845478" lon="2.73460892646828"><ele>431.5</ele><time>2026-04-22T07:55:47.999Z</time></trkpt><trkpt lat="42.384833585920134" lon="2.7343040211167584"><ele>428.0</ele><time>2026-04-22T07:55:48.999Z</time></trkpt><trkpt lat="42.38492313180321" lon="2.7340041798197956"><ele>428.0</ele><time>2026-04-22T07:55:49.999Z</time></trkpt><trkpt lat="42.38503927989853" lon="2.7337326275182634"><ele>428.0</ele><time>2026-04-22T07:55:50.999Z</time></trkpt><trkpt lat="42.3851593891451" lon="2.733491417193047"><ele>428.0</ele><time>2026-04-22T07:55:51.999Z</time></trkpt><trkpt lat="42.385260330164016" lon="2.733251950744377"><ele>427.0</ele><time>2026-04-22T07:55:52.999Z</time></trkpt><trkpt lat="42.38534628003745" lon="2.7330059170921572"><ele>426.0</ele><time>2026-04-22T07:55:53.999Z</time></trkpt><trkpt lat="42.38539679740761" lon="2.732740596766305"><ele>425.0</ele><time>2026-04-22T07:55:54.999Z</time></trkpt><trkpt lat="42.38539941347684" lon="2.7324588954771354"><ele>425.0</ele><time>2026-04-22T07:55:55.999Z</time></trkpt><trkpt lat="42.38534389796529" lon="2.7322054936939364"><ele>425.0</ele><time>2026-04-22T07:55:56.999Z</time></trkpt><trkpt lat="42.38524256160792" lon="2.731976675076142"><ele>425.0</ele><time>2026-04-22T07:55:57.999Z</time></trkpt><trkpt lat="42.38510140093641" lon="2.73178224183043"><ele>429.66666666666663</ele><time>2026-04-22T07:55:58.999Z</time></trkpt><trkpt lat="42.38493525518767" lon="2.731633330688501"><ele>434.33333333333337</ele><time>2026-04-22T07:55:59.999Z</time></trkpt><trkpt lat="42.384746295413784" lon="2.7315361765554904"><ele>439.0</ele><time>2026-04-22T07:56:00.999Z</time></trkpt><trkpt lat="42.38453446985797" lon="2.7315143727985127"><ele>441.33333333333337</ele><time>2026-04-22T07:56:01.999Z</time></trkpt><trkpt lat="42.384330674158704" lon="2.73154703787719"><ele>443.66666666666663</ele><time>2026-04-22T07:56:02.999Z</time></trkpt><trkpt lat="42.38413469265824" lon="2.7316552936780587"><ele>446.0</ele><time>2026-04-22T07:56:03.999Z</time></trkpt><trkpt lat="42.383961924709546" lon="2.731831417122701"><ele>449.66666666666663</ele><time>2026-04-22T07:56:04.999Z</time></trkpt><trkpt lat="42.38380594798873" lon="2.732045906671714"><ele>453.33333333333337</ele><time>2026-04-22T07:56:05.999Z</time></trkpt><trkpt lat="42.38367491572559" lon="2.732296811676917"><ele>457.0</ele><time>2026-04-22T07:56:06.999Z</time></trkpt><trkpt lat="42.38353546368815" lon="2.7325552468668253"><ele>447.0</ele><time>2026-04-22T07:56:07.999Z</time></trkpt><trkpt lat="42.383375871549156" lon="2.7327760841268076"><ele>437.0</ele><time>2026-04-22T07:56:08.999Z</time></trkpt><trkpt lat="42.38318185479977" lon="2.7329534923617826"><ele>445.0</ele><time>2026-04-22T07:56:09.999Z</time></trkpt><trkpt lat="42.38296800528136" lon="2.7330809671515324"><ele>453.0</ele><time>2026-04-22T07:56:10.999Z</time></trkpt><trkpt lat="42.3827262415263" lon="2.733149433736622"><ele>453.0</ele><time>2026-04-22T07:56:11.999Z</time></trkpt><trkpt lat="42.3824816645374" lon="2.7331674938566413"><ele>453.0</ele><time>2026-04-22T07:56:12.999Z</time></trkpt><trkpt lat="42.38223518130175" lon="2.7331161346831894"><ele>449.5</ele><time>2026-04-22T07:56:13.999Z</time></trkpt><trkpt lat="42.38201661154409" lon="2.7330173571691256"><ele>446.0</ele><time>2026-04-22T07:56:14.999Z</time></trkpt><trkpt lat="42.381813482056934" lon="2.7328654052251475"><ele>454.0</ele><time>2026-04-22T07:56:15.999Z</time></trkpt><trkpt lat="42.38161407301934" lon="2.7326787390418894"><ele>462.0</ele><time>2026-04-22T07:56:16.999Z</time></trkpt><trkpt lat="42.38141698980683" lon="2.732492758905571"><ele>458.66666666666663</ele><time>2026-04-22T07:56:17.999Z</time></trkpt><trkpt lat="42.38124629472675" lon="2.7323436789480566"><ele>455.3333333333333</ele><time>2026-04-22T07:56:18.999Z</time></trkpt><trkpt lat="42.38108337151836" lon="2.732185998838369"><ele>452.0</ele><time>2026-04-22T07:56:19.999Z</time></trkpt><trkpt lat="42.380941593370075" lon="2.7320162632682905"><ele>454.3333333333333</ele><time>2026-04-22T07:56:20.999Z</time></trkpt><trkpt lat="42.380824741628096" lon="2.731812607289479"><ele>456.66666666666663</ele><time>2026-04-22T07:56:21.999Z</time></trkpt><trkpt lat="42.38074965385569" lon="2.731566828143054"><ele>459.0</ele><time>2026-04-22T07:56:22.999Z</time></trkpt><trkpt lat="42.38072033070049" lon="2.731319327040472"><ele>459.0</ele><time>2026-04-22T07:56:23.999Z</time></trkpt><trkpt lat="42.38073937840139" lon="2.731086841253065"><ele>459.0</ele><time>2026-04-22T07:56:24.999Z</time></trkpt><trkpt lat="42.380801571548254" lon="2.730873144277122"><ele>459.0</ele><time>2026-04-22T07:56:25.999Z</time></trkpt><trkpt lat="42.38091841474716" lon="2.7306723619453406"><ele>459.66666666666663</ele><time>2026-04-22T07:56:26.999Z</time></trkpt><trkpt lat="42.381075388314784" lon="2.73049972660889"><ele>460.3333333333333</ele><time>2026-04-22T07:56:27.999Z</time></trkpt><trkpt lat="42.381270319583884" lon="2.730360959821955"><ele>461.0</ele><time>2026-04-22T07:56:28.999Z</time></trkpt><trkpt lat="42.38147501947611" lon="2.730237694400306"><ele>457.5</ele><time>2026-04-22T07:56:29.999Z</time></trkpt><trkpt lat="42.38169394618736" lon="2.7301036635651537"><ele>454.0</ele><time>2026-04-22T07:56:30.999Z</time></trkpt><trkpt lat="42.38190309030476" lon="2.7299646486104105"><ele>454.0</ele><time>2026-04-22T07:56:31.999Z</time></trkpt><trkpt lat="42.38209948322229" lon="2.729838833214279"><ele>454.0</ele><time>2026-04-22T07:56:32.999Z</time></trkpt><trkpt lat="42.3822904667882" lon="2.7297219403006463"><ele>454.0</ele><time>2026-04-22T07:56:33.999Z</time></trkpt><trkpt lat="42.382464785117634" lon="2.729586058447724"><ele>456.33333333333337</ele><time>2026-04-22T07:56:34.999Z</time></trkpt><trkpt lat="42.38261184039535" lon="2.7294363882413566"><ele>458.66666666666663</ele><time>2026-04-22T07:56:35.999Z</time></trkpt><trkpt lat="42.38273843195065" lon="2.7292614557928583"><ele>461.0</ele><time>2026-04-22T07:56:36.999Z</time></trkpt><trkpt lat="42.38282015212096" lon="2.729046434823408"><ele>457.0</ele><time>2026-04-22T07:56:37.999Z</time></trkpt><trkpt lat="42.382869514660705" lon="2.728835340008731"><ele>453.0</ele><time>2026-04-22T07:56:38.999Z</time></trkpt><trkpt lat="42.38287680455619" lon="2.7286082457265177"><ele>449.0</ele><time>2026-04-22T07:56:39.999Z</time></trkpt><trkpt lat="42.382826633249984" lon="2.7283683246312993"><ele>449.0</ele><time>2026-04-22T07:56:40.999Z</time></trkpt><trkpt lat="42.38273244519929" lon="2.728128113959744"><ele>449.0</ele><time>2026-04-22T07:56:41.998Z</time></trkpt><trkpt lat="42.382606960603" lon="2.727909235757493"><ele>449.0</ele><time>2026-04-22T07:56:42.998Z</time></trkpt><trkpt lat="42.38243980747326" lon="2.727728512762148"><ele>452.5</ele><time>2026-04-22T07:56:43.998Z</time></trkpt><trkpt lat="42.3822510198668" lon="2.7275696092383037"><ele>456.0</ele><time>2026-04-22T07:56:44.998Z</time></trkpt><trkpt lat="42.38204728130527" lon="2.727419055868075"><ele>456.0</ele><time>2026-04-22T07:56:45.998Z</time></trkpt><trkpt lat="42.38186135563318" lon="2.7272668789990075"><ele>456.0</ele><time>2026-04-22T07:56:46.998Z</time></trkpt><trkpt lat="42.381700271567475" lon="2.727101643261206"><ele>456.0</ele><time>2026-04-22T07:56:47.998Z</time></trkpt><trkpt lat="42.38156292633593" lon="2.7268889329379395"><ele>459.0</ele><time>2026-04-22T07:56:48.998Z</time></trkpt><trkpt lat="42.38147695238948" lon="2.7266552326809794"><ele>462.0</ele><time>2026-04-22T07:56:49.998Z</time></trkpt><trkpt lat="42.38143962706266" lon="2.72639188494918"><ele>465.0</ele><time>2026-04-22T07:56:50.998Z</time></trkpt><trkpt lat="42.38144739905129" lon="2.7260961177576646"><ele>467.0</ele><time>2026-04-22T07:56:51.998Z</time></trkpt><trkpt lat="42.38148794822157" lon="2.7257876882568306"><ele>469.0</ele><time>2026-04-22T07:56:52.998Z</time></trkpt><trkpt lat="42.38153684696821" lon="2.725470145545519"><ele>468.5</ele><time>2026-04-22T07:56:53.998Z</time></trkpt><trkpt lat="42.38159096408807" lon="2.725145260535404"><ele>468.0</ele><time>2026-04-22T07:56:54.998Z</time></trkpt><trkpt lat="42.38167388756016" lon="2.724815291815025"><ele>468.0</ele><time>2026-04-22T07:56:55.998Z</time></trkpt><trkpt lat="42.38177071370938" lon="2.724488154061173"><ele>468.0</ele><time>2026-04-22T07:56:56.998Z</time></trkpt><trkpt lat="42.38188614551352" lon="2.724184395180378"><ele>467.0</ele><time>2026-04-22T07:56:57.998Z</time></trkpt><trkpt lat="42.38206560387344" lon="2.723914499711004"><ele>466.0</ele><time>2026-04-22T07:56:58.998Z</time></trkpt><trkpt lat="42.3822330162491" lon="2.723655957494486"><ele>466.5</ele><time>2026-04-22T07:57:01Z</time></trkpt><trkpt lat="42.38240821132145" lon="2.7234016342243197"><ele>467.0</ele><time>2026-04-22T07:57:02Z</time></trkpt><trkpt lat="42.382577640295715" lon="2.723168077763029"><ele>467.0</ele><time>2026-04-22T07:57:03Z</time></trkpt><trkpt lat="42.3827584030773" lon="2.7229654914796457"><ele>467.0</ele><time>2026-04-22T07:57:04Z</time></trkpt><trkpt lat="42.382960153455684" lon="2.7227881050583425"><ele>463.0</ele><time>2026-04-22T07:57:05Z</time></trkpt><trkpt lat="42.383191877128176" lon="2.722632010821739"><ele>459.0</ele><time>2026-04-22T07:57:06Z</time></trkpt><trkpt lat="42.383438794898126" lon="2.7224950523673312"><ele>459.0</ele><time>2026-04-22T07:57:07Z</time></trkpt><trkpt lat="42.383701989642475" lon="2.722374053426693"><ele>459.0</ele><time>2026-04-22T07:57:08Z</time></trkpt><trkpt lat="42.38397395373577" lon="2.7222532949336204"><ele>462.5</ele><time>2026-04-22T07:57:09Z</time></trkpt><trkpt lat="42.384244470923235" lon="2.7221117645319426"><ele>466.0</ele><time>2026-04-22T07:57:10Z</time></trkpt><trkpt lat="42.38451124722218" lon="2.721939852519991"><ele>460.5</ele><time>2026-04-22T07:57:11Z</time></trkpt><trkpt lat="42.38478152353706" lon="2.7217630352990696"><ele>455.0</ele><time>2026-04-22T07:57:12Z</time></trkpt><trkpt lat="42.3850479851585" lon="2.7215747412296576"><ele>455.0</ele><time>2026-04-22T07:57:13Z</time></trkpt><trkpt lat="42.38529236872935" lon="2.7213849678395894"><ele>455.0</ele><time>2026-04-22T07:57:14Z</time></trkpt><trkpt lat="42.385520059965835" lon="2.721198051017747"><ele>453.5</ele><time>2026-04-22T07:57:15Z</time></trkpt><trkpt lat="42.38573667245562" lon="2.7210311483614977"><ele>452.0</ele><time>2026-04-22T07:57:16Z</time></trkpt><trkpt lat="42.38593943979251" lon="2.7208726024906804"><ele>452.0</ele><time>2026-04-22T07:57:17Z</time></trkpt><trkpt lat="42.386129677934" lon="2.7207180715002015"><ele>452.0</ele><time>2026-04-22T07:57:18Z</time></trkpt><trkpt lat="42.38629526754688" lon="2.7205695029196697"><ele>452.0</ele><time>2026-04-22T07:57:19Z</time></trkpt><trkpt lat="42.386427876672094" lon="2.7204263703968876"><ele>453.3333333333333</ele><time>2026-04-22T07:57:20Z</time></trkpt><trkpt lat="42.386526783002" lon="2.7202606208688676"><ele>454.66666666666663</ele><time>2026-04-22T07:57:21Z</time></trkpt><trkpt lat="42.38654865710464" lon="2.720051195498536"><ele>456.0</ele><time>2026-04-22T07:57:22Z</time></trkpt><trkpt lat="42.38649946398226" lon="2.7198263300865326"><ele>456.0</ele><time>2026-04-22T07:57:23Z</time></trkpt><trkpt lat="42.38642851947695" lon="2.7195979175723854"><ele>456.0</ele><time>2026-04-22T07:57:24Z</time></trkpt><trkpt lat="42.386327345173456" lon="2.719379860900392"><ele>456.0</ele><time>2026-04-22T07:57:25Z</time></trkpt><trkpt lat="42.38629496898378" lon="2.7191418596890378"><ele>453.0</ele><time>2026-04-22T07:57:26Z</time></trkpt><trkpt lat="42.38630657496814" lon="2.7188784939129795"><ele>450.0</ele><time>2026-04-22T07:57:27Z</time></trkpt><trkpt lat="42.38632028802609" lon="2.718598274191364"><ele>447.0</ele><time>2026-04-22T07:57:28Z</time></trkpt><trkpt lat="42.38636633862407" lon="2.7182914324560516"><ele>450.66666666666663</ele><time>2026-04-22T07:57:29Z</time></trkpt><trkpt lat="42.38637999289051" lon="2.7179960765892655"><ele>454.3333333333333</ele><time>2026-04-22T07:57:30Z</time></trkpt><trkpt lat="42.38634382114074" lon="2.7177330887805375"><ele>458.0</ele><time>2026-04-22T07:57:31Z</time></trkpt><trkpt lat="42.38626705402331" lon="2.7175009348558143"><ele>458.0</ele><time>2026-04-22T07:57:32Z</time></trkpt><trkpt lat="42.38615888321129" lon="2.717281801726128"><ele>458.0</ele><time>2026-04-22T07:57:33Z</time></trkpt><trkpt lat="42.38601285703555" lon="2.717075710097079"><ele>458.0</ele><time>2026-04-22T07:57:34Z</time></trkpt><trkpt lat="42.385840343645896" lon="2.7168948771129435"><ele>460.0</ele><time>2026-04-22T07:57:35Z</time></trkpt><trkpt lat="42.38565854513823" lon="2.7167309313779344"><ele>462.0</ele><time>2026-04-22T07:57:36Z</time></trkpt><trkpt lat="42.38547789789108" lon="2.716555019315026"><ele>464.0</ele><time>2026-04-22T07:57:37Z</time></trkpt><trkpt lat="42.38531031097785" lon="2.716347681565026"><ele>465.0</ele><time>2026-04-22T07:57:38Z</time></trkpt><trkpt lat="42.385155474137704" lon="2.7161106307026235"><ele>466.0</ele><time>2026-04-22T07:57:39Z</time></trkpt><trkpt lat="42.38503153467057" lon="2.71584377517263"><ele>469.5</ele><time>2026-04-22T07:57:40Z</time></trkpt><trkpt lat="42.38494060380301" lon="2.7155363796342806"><ele>473.0</ele><time>2026-04-22T07:57:41Z</time></trkpt><trkpt lat="42.38487438061792" lon="2.7152206504319283"><ele>477.0</ele><time>2026-04-22T07:57:42Z</time></trkpt><trkpt lat="42.3848573545115" lon="2.714884516861516"><ele>481.0</ele><time>2026-04-22T07:57:43Z</time></trkpt><trkpt lat="42.38482332182127" lon="2.714538209848192"><ele>486.0</ele><time>2026-04-22T07:57:44Z</time></trkpt><trkpt lat="42.38479174863634" lon="2.7142190760111125"><ele>491.0</ele><time>2026-04-22T07:57:45Z</time></trkpt><trkpt lat="42.38476883780492" lon="2.713921459187628"><ele>491.0</ele><time>2026-04-22T07:57:45.999Z</time></trkpt><trkpt lat="42.38474424557934" lon="2.713633061868217"><ele>491.0</ele><time>2026-04-22T07:57:46.999Z</time></trkpt><trkpt lat="42.38473479901029" lon="2.713349373285292"><ele>491.0</ele><time>2026-04-22T07:57:47.999Z</time></trkpt><trkpt lat="42.38476535851961" lon="2.713078811691293"><ele>491.66666666666663</ele><time>2026-04-22T07:57:48.999Z</time></trkpt><trkpt lat="42.384838031310736" lon="2.712820861401727"><ele>492.33333333333337</ele><time>2026-04-22T07:57:49.999Z</time></trkpt><trkpt lat="42.384954506418474" lon="2.712585356692109"><ele>493.0</ele><time>2026-04-22T07:57:50.999Z</time></trkpt><trkpt lat="42.38512266741477" lon="2.7123734396481143"><ele>486.0</ele><time>2026-04-22T07:57:51.999Z</time></trkpt><trkpt lat="42.38532196412423" lon="2.712191903751472"><ele>479.0</ele><time>2026-04-22T07:57:52.999Z</time></trkpt><trkpt lat="42.385527880667425" lon="2.7119994219870587"><ele>483.5</ele><time>2026-04-22T07:57:53.999Z</time></trkpt><trkpt lat="42.38572316519639" lon="2.7117752034123823"><ele>488.0</ele><time>2026-04-22T07:57:54.999Z</time></trkpt><trkpt lat="42.38588442463872" lon="2.711534787896429"><ele>488.0</ele><time>2026-04-22T07:57:55.999Z</time></trkpt><trkpt lat="42.38602002266501" lon="2.711284561546851"><ele>488.0</ele><time>2026-04-22T07:57:56.999Z</time></trkpt><trkpt lat="42.386135269742255" lon="2.7110149071840848"><ele>478.5</ele><time>2026-04-22T07:57:57.999Z</time></trkpt><trkpt lat="42.386212949067385" lon="2.7107112616872024"><ele>469.0</ele><time>2026-04-22T07:57:58.999Z</time></trkpt><trkpt lat="42.38626298723334" lon="2.710366765797576"><ele>467.0</ele><time>2026-04-22T07:57:59.999Z</time></trkpt><trkpt lat="42.38627971932058" lon="2.710007477484218"><ele>465.0</ele><time>2026-04-22T07:58:00.999Z</time></trkpt><trkpt lat="42.38627396519509" lon="2.7096362010996597"><ele>465.0</ele><time>2026-04-22T07:58:01.999Z</time></trkpt><trkpt lat="42.38627292683377" lon="2.7092421211065085"><ele>465.0</ele><time>2026-04-22T07:58:02.999Z</time></trkpt><trkpt lat="42.38627158608294" lon="2.7088520292099405"><ele>463.0</ele><time>2026-04-22T07:58:03.999Z</time></trkpt><trkpt lat="42.386272814184615" lon="2.7084562655905002"><ele>461.0</ele><time>2026-04-22T07:58:04.999Z</time></trkpt><trkpt lat="42.38627010371031" lon="2.7080621221258903"><ele>464.0</ele><time>2026-04-22T07:58:05.999Z</time></trkpt><trkpt lat="42.38626482795053" lon="2.7076653123540675"><ele>467.0</ele><time>2026-04-22T07:58:06.999Z</time></trkpt><trkpt lat="42.386264327546385" lon="2.7073065614832927"><ele>467.0</ele><time>2026-04-22T07:58:07.999Z</time></trkpt><trkpt lat="42.38626220441637" lon="2.707002524147714"><ele>467.0</ele><time>2026-04-22T07:58:08.999Z</time></trkpt><trkpt lat="42.38625241491211" lon="2.7067522756131526"><ele>467.0</ele><time>2026-04-22T07:58:09.999Z</time></trkpt><trkpt lat="42.386221915588926" lon="2.706515784637168"><ele>469.0</ele><time>2026-04-22T07:58:10.999Z</time></trkpt><trkpt lat="42.38614995857088" lon="2.7062929429201565"><ele>471.0</ele><time>2026-04-22T07:58:11.999Z</time></trkpt><trkpt lat="42.38603459056411" lon="2.7061005327382666"><ele>473.0</ele><time>2026-04-22T07:58:12.999Z</time></trkpt><trkpt lat="42.385887501289396" lon="2.705933932867421"><ele>473.66666666666663</ele><time>2026-04-22T07:58:13.999Z</time></trkpt><trkpt lat="42.3857095740997" lon="2.7058217838782403"><ele>474.33333333333337</ele><time>2026-04-22T07:58:14.999Z</time></trkpt><trkpt lat="42.38551446000439" lon="2.7057856923470145"><ele>475.0</ele><time>2026-04-22T07:58:15.999Z</time></trkpt><trkpt lat="42.385322489114415" lon="2.7058056094490595"><ele>478.6666666666667</ele><time>2026-04-22T07:58:16.999Z</time></trkpt><trkpt lat="42.38514365474481" lon="2.7059115800373092"><ele>482.33333333333337</ele><time>2026-04-22T07:58:17.999Z</time></trkpt><trkpt lat="42.38498738309453" lon="2.7060661045087846"><ele>486.0</ele><time>2026-04-22T07:58:18.999Z</time></trkpt><trkpt lat="42.384866380323125" lon="2.706273618943353"><ele>486.0</ele><time>2026-04-22T07:58:19.999Z</time></trkpt><trkpt lat="42.38476967662714" lon="2.7065146563803233"><ele>486.0</ele><time>2026-04-22T07:58:20.999Z</time></trkpt><trkpt lat="42.384725294107355" lon="2.706792733301231"><ele>486.0</ele><time>2026-04-22T07:58:21.999Z</time></trkpt><trkpt lat="42.38469250488978" lon="2.707081848966243"><ele>496.33333333333337</ele><time>2026-04-22T07:58:22.999Z</time></trkpt><trkpt lat="42.384635763880446" lon="2.7073380835386"><ele>506.6666666666667</ele><time>2026-04-22T07:58:23.999Z</time></trkpt><trkpt lat="42.3845324088485" lon="2.7075560252002013"><ele>517.0</ele><time>2026-04-22T07:58:24.999Z</time></trkpt><trkpt lat="42.3843759494897" lon="2.7077231407373716"><ele>520.0</ele><time>2026-04-22T07:58:25.999Z</time></trkpt><trkpt lat="42.38419844580637" lon="2.7078526208961997"><ele>523.0</ele><time>2026-04-22T07:58:26.999Z</time></trkpt><trkpt lat="42.383994101134306" lon="2.7079636175557877"><ele>526.0</ele><time>2026-04-22T07:58:27.999Z</time></trkpt><trkpt lat="42.38379999032372" lon="2.708092276745462"><ele>526.0</ele><time>2026-04-22T07:58:28.999Z</time></trkpt><trkpt lat="42.38362329044041" lon="2.7082655605667187"><ele>526.0</ele><time>2026-04-22T07:58:29.999Z</time></trkpt><trkpt lat="42.383450679935734" lon="2.7084650454142705"><ele>526.0</ele><time>2026-04-22T07:58:30.999Z</time></trkpt><trkpt lat="42.38329162982908" lon="2.7086927306229023"><ele>522.5</ele><time>2026-04-22T07:58:31.999Z</time></trkpt><trkpt lat="42.383143620592435" lon="2.708947850979778"><ele>519.0</ele><time>2026-04-22T07:58:32.999Z</time></trkpt><trkpt lat="42.38299344331038" lon="2.709202110814986"><ele>521.5</ele><time>2026-04-22T07:58:33.999Z</time></trkpt><trkpt lat="42.38283101510509" lon="2.709447082945695"><ele>524.0</ele><time>2026-04-22T07:58:34.999Z</time></trkpt><trkpt lat="42.38263703560652" lon="2.709643275194692"><ele>524.0</ele><time>2026-04-22T07:58:35.999Z</time></trkpt><trkpt lat="42.382414074299575" lon="2.7097948417144604"><ele>524.0</ele><time>2026-04-22T07:58:36.999Z</time></trkpt><trkpt lat="42.382177734688554" lon="2.709912310991964"><ele>529.0</ele><time>2026-04-22T07:58:37.999Z</time></trkpt><trkpt lat="42.38193264073874" lon="2.7099815351168273"><ele>534.0</ele><time>2026-04-22T07:58:38.999Z</time></trkpt><trkpt lat="42.38168254042528" lon="2.710008017116124"><ele>534.0</ele><time>2026-04-22T07:58:39.999Z</time></trkpt><trkpt lat="42.381434183290644" lon="2.709984629976213"><ele>534.0</ele><time>2026-04-22T07:58:40.999Z</time></trkpt><trkpt lat="42.38118912450491" lon="2.709923911935903"><ele>540.0</ele><time>2026-04-22T07:58:41.999Z</time></trkpt><trkpt lat="42.38095436085834" lon="2.709818818665102"><ele>546.0</ele><time>2026-04-22T07:58:42.999Z</time></trkpt><trkpt lat="42.38073105733904" lon="2.7096686643224883"><ele>546.0</ele><time>2026-04-22T07:58:43.999Z</time></trkpt><trkpt lat="42.380528340977015" lon="2.709469596669895"><ele>546.0</ele><time>2026-04-22T07:58:44.999Z</time></trkpt><trkpt lat="42.38034114664136" lon="2.7092418941297987"><ele>538.5</ele><time>2026-04-22T07:58:45.999Z</time></trkpt><trkpt lat="42.38018945701764" lon="2.7089864800718724"><ele>531.0</ele><time>2026-04-22T07:58:46.999Z</time></trkpt><trkpt lat="42.38007785197014" lon="2.7087125123818714"><ele>535.6666666666666</ele><time>2026-04-22T07:58:47.999Z</time></trkpt><trkpt lat="42.37999022262471" lon="2.708435861928879"><ele>540.3333333333333</ele><time>2026-04-22T07:58:48.999Z</time></trkpt><trkpt lat="42.379923235763584" lon="2.708173716454465"><ele>545.0</ele><time>2026-04-22T07:58:49.999Z</time></trkpt><trkpt lat="42.379894854758376" lon="2.70791212379736"><ele>548.3333333333333</ele><time>2026-04-22T07:58:50.998Z</time></trkpt><trkpt lat="42.379908962294515" lon="2.7076313643140857"><ele>551.6666666666666</ele><time>2026-04-22T07:58:51.998Z</time></trkpt><trkpt lat="42.37998954310653" lon="2.707368152543016"><ele>555.0</ele><time>2026-04-22T07:58:52.998Z</time></trkpt><trkpt lat="42.3801332303388" lon="2.7071535137454585"><ele>555.0</ele><time>2026-04-22T07:58:53.998Z</time></trkpt><trkpt lat="42.38027429112367" lon="2.706925400496357"><ele>555.0</ele><time>2026-04-22T07:58:54.998Z</time></trkpt><trkpt lat="42.38041771630528" lon="2.7066927634648774"><ele>555.0</ele><time>2026-04-22T07:58:55.998Z</time></trkpt><trkpt lat="42.380575965213175" lon="2.706470832515306"><ele>560.0</ele><time>2026-04-22T07:58:56.998Z</time></trkpt><trkpt lat="42.38073346417748" lon="2.7062363754171055"><ele>565.0</ele><time>2026-04-22T07:58:57.998Z</time></trkpt><trkpt lat="42.380893899474444" lon="2.7059970584851127"><ele>565.0</ele><time>2026-04-22T07:58:58.998Z</time></trkpt><trkpt lat="42.38105836398701" lon="2.7057648772902754"><ele>565.0</ele><time>2026-04-22T07:58:59.998Z</time></trkpt><trkpt lat="42.381221186457054" lon="2.7055224237474005"><ele>570.6666666666667</ele><time>2026-04-22T07:59:00.998Z</time></trkpt><trkpt lat="42.381365710362864" lon="2.7052911814870653"><ele>576.3333333333334</ele><time>2026-04-22T07:59:01.998Z</time></trkpt><trkpt lat="42.381477734263186" lon="2.7050656017351176"><ele>582.0</ele><time>2026-04-22T07:59:02.998Z</time></trkpt><trkpt lat="42.381542070752396" lon="2.704824787720966"><ele>582.0</ele><time>2026-04-22T07:59:03.998Z</time></trkpt><trkpt lat="42.38156366338684" lon="2.704570921455903"><ele>582.0</ele><time>2026-04-22T07:59:04.998Z</time></trkpt><trkpt lat="42.38154563753883" lon="2.704311018853804"><ele>582.0</ele><time>2026-04-22T07:59:06Z</time></trkpt><trkpt lat="42.38147555769764" lon="2.7040522591654406"><ele>581.6666666666666</ele><time>2026-04-22T07:59:07Z</time></trkpt><trkpt lat="42.381358127421045" lon="2.7038001113710988"><ele>581.3333333333333</ele><time>2026-04-22T07:59:08Z</time></trkpt><trkpt lat="42.38121733829815" lon="2.703575703763526"><ele>581.0</ele><time>2026-04-22T07:59:09Z</time></trkpt><trkpt lat="42.38106600205124" lon="2.703356479807569"><ele>580.3333333333333</ele><time>2026-04-22T07:59:10Z</time></trkpt><trkpt lat="42.38092171209776" lon="2.7031384582875493"><ele>579.6666666666666</ele><time>2026-04-22T07:59:11Z</time></trkpt><trkpt lat="42.38080260654759" lon="2.7029327478743936"><ele>579.0</ele><time>2026-04-22T07:59:12Z</time></trkpt><trkpt lat="42.380695193286755" lon="2.7027354336541265"><ele>579.0</ele><time>2026-04-22T07:59:13Z</time></trkpt><trkpt lat="42.38058647550443" lon="2.7025524074883167"><ele>579.0</ele><time>2026-04-22T07:59:14Z</time></trkpt><trkpt lat="42.380482408769" lon="2.7023827209473836"><ele>579.0</ele><time>2026-04-22T07:59:15Z</time></trkpt><trkpt lat="42.380382155789285" lon="2.7022306791770103"><ele>578.6</ele><time>2026-04-22T07:59:16Z</time></trkpt><trkpt lat="42.380288966819606" lon="2.7020876075421247"><ele>578.2</ele><time>2026-04-22T07:59:17Z</time></trkpt><trkpt lat="42.380215730908404" lon="2.7019679986392617"><ele>577.8000000000001</ele><time>2026-04-22T07:59:18Z</time></trkpt><trkpt lat="42.38017866081416" lon="2.701889775214447"><ele>577.4</ele><time>2026-04-22T07:59:19Z</time></trkpt><trkpt lat="42.380175198466496" lon="2.7017870388677525"><ele>577.0</ele><time>2026-04-22T07:59:22Z</time></trkpt><trkpt lat="42.38008854301987" lon="2.701705296169521"><ele>577.0</ele><time>2026-04-22T08:02:32.999Z</time></trkpt><trkpt lat="42.380000768585276" lon="2.7016048683190617"><ele>577.0</ele><time>2026-04-22T08:02:34.999Z</time></trkpt><trkpt lat="42.37997426629162" lon="2.701493286395819"><ele>577.0</ele><time>2026-04-22T08:02:35.999Z</time></trkpt><trkpt lat="42.37994337988709" lon="2.7013704641229896"><ele>577.0</ele><time>2026-04-22T08:02:36.999Z</time></trkpt><trkpt lat="42.37991084403252" lon="2.701206582836495"><ele>577.0</ele><time>2026-04-22T08:02:37.999Z</time></trkpt><trkpt lat="42.37992701608863" lon="2.7010328785075073"><ele>578.3333333333334</ele><time>2026-04-22T08:02:38.999Z</time></trkpt><trkpt lat="42.379977459815336" lon="2.700850299093739"><ele>579.6666666666666</ele><time>2026-04-22T08:02:39.999Z</time></trkpt><trkpt lat="42.38004380140953" lon="2.700657156620061"><ele>581.0</ele><time>2026-04-22T08:02:40.999Z</time></trkpt><trkpt lat="42.38012353308301" lon="2.700457299109411"><ele>579.0</ele><time>2026-04-22T08:02:41.999Z</time></trkpt><trkpt lat="42.38020210804104" lon="2.7002448390982265"><ele>577.0</ele><time>2026-04-22T08:02:42.999Z</time></trkpt><trkpt lat="42.38025881880851" lon="2.7000352795598075"><ele>575.0</ele><time>2026-04-22T08:02:43.999Z</time></trkpt><trkpt lat="42.38028859723309" lon="2.6997999338735776"><ele>575.0</ele><time>2026-04-22T08:02:44.999Z</time></trkpt><trkpt lat="42.380286403094516" lon="2.699555779677389"><ele>575.0</ele><time>2026-04-22T08:02:45.999Z</time></trkpt><trkpt lat="42.38025635910893" lon="2.6993118191592274"><ele>575.0</ele><time>2026-04-22T08:02:46.999Z</time></trkpt><trkpt lat="42.38018955674766" lon="2.699067798712737"><ele>576.6666666666666</ele><time>2026-04-22T08:02:47.999Z</time></trkpt><trkpt lat="42.38010579792123" lon="2.698817366203994"><ele>578.3333333333334</ele><time>2026-04-22T08:02:48.999Z</time></trkpt><trkpt lat="42.38004612371974" lon="2.698556285209913"><ele>580.0</ele><time>2026-04-22T08:02:49.999Z</time></trkpt><trkpt lat="42.37998821554647" lon="2.6982976651521735"><ele>585.0</ele><time>2026-04-22T08:02:50.999Z</time></trkpt><trkpt lat="42.379984333992674" lon="2.698023638303393"><ele>590.0</ele><time>2026-04-22T08:02:51.999Z</time></trkpt><trkpt lat="42.38000254491148" lon="2.6977621419523516"><ele>595.0</ele><time>2026-04-22T08:02:52.999Z</time></trkpt><trkpt lat="42.380010964321194" lon="2.697516382361849"><ele>597.3333333333334</ele><time>2026-04-22T08:02:53.999Z</time></trkpt><trkpt lat="42.379978860779545" lon="2.697261624228735"><ele>599.6666666666666</ele><time>2026-04-22T08:02:54.999Z</time></trkpt><trkpt lat="42.3799040628062" lon="2.6970255361864313"><ele>602.0</ele><time>2026-04-22T08:02:55.999Z</time></trkpt><trkpt lat="42.37980253309386" lon="2.6968197155400975"><ele>597.0</ele><time>2026-04-22T08:02:56.999Z</time></trkpt><trkpt lat="42.37971300909881" lon="2.696607721328911"><ele>592.0</ele><time>2026-04-22T08:02:57.999Z</time></trkpt><trkpt lat="42.379668696974" lon="2.6963736531898848"><ele>587.0</ele><time>2026-04-22T08:02:58.999Z</time></trkpt><trkpt lat="42.37966479899302" lon="2.6961158364353524"><ele>598.3333333333333</ele><time>2026-04-22T08:02:59.999Z</time></trkpt><trkpt lat="42.37970539209561" lon="2.6958697404541523"><ele>609.6666666666666</ele><time>2026-04-22T08:03:00.999Z</time></trkpt><trkpt lat="42.37978016864854" lon="2.6956727879759446"><ele>621.0</ele><time>2026-04-22T08:03:01.998Z</time></trkpt><trkpt lat="42.379910964018116" lon="2.6955054900150173"><ele>621.0</ele><time>2026-04-22T08:03:02.998Z</time></trkpt><trkpt lat="42.38007381176964" lon="2.6953802603924317"><ele>621.0</ele><time>2026-04-22T08:03:03.998Z</time></trkpt><trkpt lat="42.38025310275259" lon="2.6952862434217453"><ele>621.0</ele><time>2026-04-22T08:03:04.998Z</time></trkpt><trkpt lat="42.380429085016246" lon="2.6951886912966634"><ele>623.3333333333334</ele><time>2026-04-22T08:03:05.998Z</time></trkpt><trkpt lat="42.38060714534158" lon="2.6950894971702875"><ele>625.6666666666667</ele><time>2026-04-22T08:03:06.998Z</time></trkpt><trkpt lat="42.38076976726019" lon="2.695007166924323"><ele>628.0</ele><time>2026-04-22T08:03:07.998Z</time></trkpt><trkpt lat="42.380903671516485" lon="2.6948975802438717"><ele>628.0</ele><time>2026-04-22T08:03:08.998Z</time></trkpt><trkpt lat="42.381004345366804" lon="2.6947562612812996"><ele>628.0</ele><time>2026-04-22T08:03:09.998Z</time></trkpt><trkpt lat="42.38105020685606" lon="2.694582056459125"><ele>628.0</ele><time>2026-04-22T08:03:10.998Z</time></trkpt><trkpt lat="42.38105781654194" lon="2.6943993667911195"><ele>628.0</ele><time>2026-04-22T08:03:11.998Z</time></trkpt><trkpt lat="42.38100959664706" lon="2.6942297819656362"><ele>628.3333333333334</ele><time>2026-04-22T08:03:12.998Z</time></trkpt><trkpt lat="42.38092076661549" lon="2.6940797997105626"><ele>628.6666666666666</ele><time>2026-04-22T08:03:13.998Z</time></trkpt><trkpt lat="42.380803714604895" lon="2.693934906963744"><ele>629.0</ele><time>2026-04-22T08:03:14.998Z</time></trkpt><trkpt lat="42.38069084357469" lon="2.693777523168773"><ele>631.6666666666666</ele><time>2026-04-22T08:03:15.998Z</time></trkpt><trkpt lat="42.380619632257805" lon="2.693583106495741"><ele>634.3333333333334</ele><time>2026-04-22T08:03:16.998Z</time></trkpt><trkpt lat="42.380608504279415" lon="2.6933850368894543"><ele>637.0</ele><time>2026-04-22T08:03:18Z</time></trkpt><trkpt lat="42.38065213849867" lon="2.6931698994124273"><ele>637.0</ele><time>2026-04-22T08:03:19Z</time></trkpt><trkpt lat="42.380728377132314" lon="2.692976817152539"><ele>637.0</ele><time>2026-04-22T08:03:20Z</time></trkpt><trkpt lat="42.3808453444189" lon="2.6927844051314467"><ele>637.0</ele><time>2026-04-22T08:03:21Z</time></trkpt><trkpt lat="42.380957396151786" lon="2.6925693785787597"><ele>635.3333333333334</ele><time>2026-04-22T08:03:22Z</time></trkpt><trkpt lat="42.38102206482013" lon="2.6923138522019388"><ele>633.6666666666666</ele><time>2026-04-22T08:03:23Z</time></trkpt><trkpt lat="42.38106045328555" lon="2.6920335269907887"><ele>632.0</ele><time>2026-04-22T08:03:24Z</time></trkpt><trkpt lat="42.381086376490885" lon="2.6917564822827287"><ele>631.3333333333333</ele><time>2026-04-22T08:03:25Z</time></trkpt><trkpt lat="42.38110469955436" lon="2.69149325160516"><ele>630.6666666666666</ele><time>2026-04-22T08:03:26Z</time></trkpt><trkpt lat="42.381109948926806" lon="2.691243762962569"><ele>630.0</ele><time>2026-04-22T08:03:27Z</time></trkpt><trkpt lat="42.38108233016575" lon="2.69099049236237"><ele>630.0</ele><time>2026-04-22T08:03:28Z</time></trkpt><trkpt lat="42.38100764274844" lon="2.6907628119583027"><ele>630.0</ele><time>2026-04-22T08:03:29Z</time></trkpt><trkpt lat="42.38089794493776" lon="2.690563855946947"><ele>630.0</ele><time>2026-04-22T08:03:30Z</time></trkpt><trkpt lat="42.38078619990949" lon="2.690383864049828"><ele>633.0</ele><time>2026-04-22T08:03:31Z</time></trkpt><trkpt lat="42.38068794815049" lon="2.690204148806726"><ele>636.0</ele><time>2026-04-22T08:03:32Z</time></trkpt><trkpt lat="42.380626829745026" lon="2.689993301704119"><ele>639.0</ele><time>2026-04-22T08:03:33Z</time></trkpt><trkpt lat="42.38061153590548" lon="2.689747493424037"><ele>639.0</ele><time>2026-04-22T08:03:34Z</time></trkpt><trkpt lat="42.380634200938914" lon="2.689485057708666"><ele>639.0</ele><time>2026-04-22T08:03:35Z</time></trkpt><trkpt lat="42.38066415621879" lon="2.6892129564298584"><ele>639.0</ele><time>2026-04-22T08:03:36Z</time></trkpt><trkpt lat="42.38069364224395" lon="2.688932590945363"><ele>638.0</ele><time>2026-04-22T08:03:37Z</time></trkpt><trkpt lat="42.380726232433425" lon="2.6886274748582535"><ele>637.0</ele><time>2026-04-22T08:03:38Z</time></trkpt><trkpt lat="42.38076775017857" lon="2.6883023493541764"><ele>637.0</ele><time>2026-04-22T08:03:39Z</time></trkpt><trkpt lat="42.38081804130674" lon="2.687968694467194"><ele>637.0</ele><time>2026-04-22T08:03:40Z</time></trkpt><trkpt lat="42.38086457312748" lon="2.687653309062455"><ele>640.0</ele><time>2026-04-22T08:03:41Z</time></trkpt><trkpt lat="42.3808490851273" lon="2.6873328917511894"><ele>643.0</ele><time>2026-04-22T08:03:42Z</time></trkpt><trkpt lat="42.380793373613166" lon="2.687024041372115"><ele>646.3333333333334</ele><time>2026-04-22T08:03:43Z</time></trkpt><trkpt lat="42.38073190463285" lon="2.6868960865325136"><ele>649.6666666666666</ele><time>2026-04-22T08:03:44Z</time></trkpt><trkpt lat="42.38064401905882" lon="2.6866269501818145"><ele>653.0</ele><time>2026-04-22T08:03:45Z</time></trkpt><trkpt lat="42.380539605302374" lon="2.6863882961940995"><ele>656.3333333333333</ele><time>2026-04-22T08:03:46Z</time></trkpt><trkpt lat="42.380416221020006" lon="2.6862015475953362"><ele>659.6666666666666</ele><time>2026-04-22T08:03:47Z</time></trkpt><trkpt lat="42.38026972773103" lon="2.686056905953048"><ele>663.0</ele><time>2026-04-22T08:03:48Z</time></trkpt><trkpt lat="42.3800909757367" lon="2.6859784839187713"><ele>663.0</ele><time>2026-04-22T08:03:49Z</time></trkpt><trkpt lat="42.3798980382005" lon="2.6859106326107605"><ele>663.0</ele><time>2026-04-22T08:03:50Z</time></trkpt><trkpt lat="42.37969137164835" lon="2.6859030149853065"><ele>663.0</ele><time>2026-04-22T08:03:51Z</time></trkpt><trkpt lat="42.3794956208687" lon="2.6858681523775636"><ele>661.0</ele><time>2026-04-22T08:03:52Z</time></trkpt><trkpt lat="42.379323795292834" lon="2.6857498769883312"><ele>659.0</ele><time>2026-04-22T08:03:53Z</time></trkpt><trkpt lat="42.379166602324865" lon="2.685578294848426"><ele>657.0</ele><time>2026-04-22T08:03:54Z</time></trkpt><trkpt lat="42.37900522180029" lon="2.6854205361051537"><ele>659.0</ele><time>2026-04-22T08:03:55Z</time></trkpt><trkpt lat="42.378819226233354" lon="2.685324370946677"><ele>661.0</ele><time>2026-04-22T08:03:56Z</time></trkpt><trkpt lat="42.37861230181578" lon="2.6852911981886707"><ele>663.0</ele><time>2026-04-22T08:03:57Z</time></trkpt><trkpt lat="42.37840077519333" lon="2.68529465952485"><ele>663.0</ele><time>2026-04-22T08:03:58Z</time></trkpt><trkpt lat="42.37820695895369" lon="2.6853227647771"><ele>663.0</ele><time>2026-04-22T08:03:59Z</time></trkpt><trkpt lat="42.37803592219686" lon="2.6853706571081064"><ele>663.0</ele><time>2026-04-22T08:04:00Z</time></trkpt><trkpt lat="42.37789669179717" lon="2.68543948268543"><ele>669.0</ele><time>2026-04-22T08:04:01Z</time></trkpt><trkpt lat="42.37779194167069" lon="2.6855693771158866"><ele>675.0</ele><time>2026-04-22T08:04:02Z</time></trkpt><trkpt lat="42.37772185149514" lon="2.6857453327079464"><ele>681.0</ele><time>2026-04-22T08:04:03Z</time></trkpt><trkpt lat="42.37770782936226" lon="2.685947695448286"><ele>687.0</ele><time>2026-04-22T08:04:04Z</time></trkpt><trkpt lat="42.37775040981073" lon="2.6861580760712487"><ele>690.3333333333334</ele><time>2026-04-22T08:04:05Z</time></trkpt><trkpt lat="42.37791914779651" lon="2.686368618651128"><ele>693.6666666666667</ele><time>2026-04-22T08:04:06Z</time></trkpt><trkpt lat="42.37805643554748" lon="2.6864894615078483"><ele>697.0</ele><time>2026-04-22T08:04:06.999Z</time></trkpt><trkpt lat="42.37818660197556" lon="2.686592716258365"><ele>689.0</ele><time>2026-04-22T08:04:07.999Z</time></trkpt><trkpt lat="42.378249757538555" lon="2.6867486176928534"><ele>681.0</ele><time>2026-04-22T08:04:08.999Z</time></trkpt><trkpt lat="42.378260036772225" lon="2.6869390232315142"><ele>673.0</ele><time>2026-04-22T08:04:09.999Z</time></trkpt><trkpt lat="42.378208595203695" lon="2.687130230522204"><ele>665.0</ele><time>2026-04-22T08:04:10.999Z</time></trkpt><trkpt lat="42.37810724252131" lon="2.6872680942619924"><ele>667.75</ele><time>2026-04-22T08:04:11.999Z</time></trkpt><trkpt lat="42.377976085599684" lon="2.687340448916866"><ele>670.5</ele><time>2026-04-22T08:04:12.999Z</time></trkpt><trkpt lat="42.37783258188482" lon="2.6873425389786654"><ele>673.25</ele><time>2026-04-22T08:04:13.999Z</time></trkpt><trkpt lat="42.37767036159791" lon="2.6873585580998633"><ele>676.0</ele><time>2026-04-22T08:04:14.999Z</time></trkpt><trkpt lat="42.377499863865836" lon="2.687351595923296"><ele>676.0</ele><time>2026-04-22T08:04:15.999Z</time></trkpt><trkpt lat="42.37731831177609" lon="2.6874037308389145"><ele>676.0</ele><time>2026-04-22T08:04:16.999Z</time></trkpt><trkpt lat="42.37714289579402" lon="2.6875011866964233"><ele>676.0</ele><time>2026-04-22T08:04:17.999Z</time></trkpt><trkpt lat="42.37697350066476" lon="2.687643473585304"><ele>674.3333333333334</ele><time>2026-04-22T08:04:18.999Z</time></trkpt><trkpt lat="42.376810871735" lon="2.6878108208165834"><ele>672.6666666666666</ele><time>2026-04-22T08:04:19.999Z</time></trkpt><trkpt lat="42.37663315036336" lon="2.6879514818288337"><ele>671.0</ele><time>2026-04-22T08:04:20.999Z</time></trkpt><trkpt lat="42.376462122358795" lon="2.688078747560398"><ele>677.0</ele><time>2026-04-22T08:04:21.999Z</time></trkpt><trkpt lat="42.37629371308434" lon="2.6881890905111"><ele>683.0</ele><time>2026-04-22T08:04:22.999Z</time></trkpt><trkpt lat="42.37612993281266" lon="2.6882768183572194"><ele>689.0</ele><time>2026-04-22T08:04:23.999Z</time></trkpt><trkpt lat="42.37597646777449" lon="2.6883162290901823"><ele>689.0</ele><time>2026-04-22T08:04:24.999Z</time></trkpt><trkpt lat="42.37583369192579" lon="2.688309787263295"><ele>689.0</ele><time>2026-04-22T08:04:25.999Z</time></trkpt><trkpt lat="42.37571362012245" lon="2.688179806711082"><ele>689.0</ele><time>2026-04-22T08:04:26.999Z</time></trkpt><trkpt lat="42.37564076225608" lon="2.6880209656988074"><ele>689.0</ele><time>2026-04-22T08:04:27.999Z</time></trkpt><trkpt lat="42.37560968670853" lon="2.6878363653314086"><ele>694.3333333333333</ele><time>2026-04-22T08:04:28.999Z</time></trkpt><trkpt lat="42.375594526783395" lon="2.6876183362645385"><ele>699.6666666666666</ele><time>2026-04-22T08:04:29.999Z</time></trkpt><trkpt lat="42.375614480890725" lon="2.687388316702717"><ele>705.0</ele><time>2026-04-22T08:04:30.999Z</time></trkpt><trkpt lat="42.37561323087303" lon="2.6871413100549364"><ele>707.3333333333334</ele><time>2026-04-22T08:04:31.999Z</time></trkpt><trkpt lat="42.37560590057886" lon="2.6868843402061664"><ele>709.6666666666667</ele><time>2026-04-22T08:04:32.999Z</time></trkpt><trkpt lat="42.37560526085553" lon="2.6866206844259226"><ele>712.0</ele><time>2026-04-22T08:04:33.999Z</time></trkpt><trkpt lat="42.375606343240435" lon="2.68634474573423"><ele>713.6666666666667</ele><time>2026-04-22T08:04:34.999Z</time></trkpt><trkpt lat="42.3756110547207" lon="2.6860640435009757"><ele>715.3333333333334</ele><time>2026-04-22T08:04:35.999Z</time></trkpt><trkpt lat="42.37562688365803" lon="2.6857732789282776"><ele>717.0</ele><time>2026-04-22T08:04:36.999Z</time></trkpt><trkpt lat="42.375667862510014" lon="2.685478814966059"><ele>717.3333333333334</ele><time>2026-04-22T08:04:37.999Z</time></trkpt><trkpt lat="42.37572902748354" lon="2.6851948131211567"><ele>717.6666666666667</ele><time>2026-04-22T08:04:38.999Z</time></trkpt><trkpt lat="42.375786025170406" lon="2.6849336716807555"><ele>718.0</ele><time>2026-04-22T08:04:39.999Z</time></trkpt><trkpt lat="42.37582509350116" lon="2.684701285501493"><ele>718.0</ele><time>2026-04-22T08:04:40.999Z</time></trkpt><trkpt lat="42.37582625477943" lon="2.684488189701361"><ele>718.0</ele><time>2026-04-22T08:04:41.999Z</time></trkpt><trkpt lat="42.37578328115636" lon="2.6842996984990126"><ele>718.0</ele><time>2026-04-22T08:04:42.999Z</time></trkpt><trkpt lat="42.375693958885336" lon="2.684149595580509"><ele>718.0</ele><time>2026-04-22T08:04:43.999Z</time></trkpt><trkpt lat="42.375571962325715" lon="2.684052593276266"><ele>719.0</ele><time>2026-04-22T08:04:44.999Z</time></trkpt><trkpt lat="42.375424372005085" lon="2.684017005445482"><ele>720.0</ele><time>2026-04-22T08:04:45.999Z</time></trkpt><trkpt lat="42.37526006531171" lon="2.684042680045719"><ele>721.0</ele><time>2026-04-22T08:04:46.999Z</time></trkpt><trkpt lat="42.37509378379928" lon="2.6841111878421593"><ele>721.0</ele><time>2026-04-22T08:04:47.999Z</time></trkpt><trkpt lat="42.37491840760554" lon="2.6841804423181648"><ele>721.0</ele><time>2026-04-22T08:04:48.999Z</time></trkpt><trkpt lat="42.374734230693456" lon="2.6842151055476866"><ele>721.0</ele><time>2026-04-22T08:04:49.999Z</time></trkpt><trkpt lat="42.374546930789705" lon="2.6841912253998768"><ele>719.6666666666667</ele><time>2026-04-22T08:04:50.999Z</time></trkpt><trkpt lat="42.37437112919252" lon="2.684164091076931"><ele>718.3333333333334</ele><time>2026-04-22T08:04:51.999Z</time></trkpt><trkpt lat="42.37422674726845" lon="2.6841799150971966"><ele>717.0</ele><time>2026-04-22T08:04:52.999Z</time></trkpt><trkpt lat="42.374067087529454" lon="2.6838621907485924"><ele>717.0</ele><time>2026-04-22T08:04:53.999Z</time></trkpt><trkpt lat="42.37392063947262" lon="2.6837048469958678"><ele>717.0</ele><time>2026-04-22T08:04:54.999Z</time></trkpt><trkpt lat="42.37377531739694" lon="2.683604384274738"><ele>717.0</ele><time>2026-04-22T08:04:55.999Z</time></trkpt><trkpt lat="42.3736237957664" lon="2.6835757457122895"><ele>716.6666666666666</ele><time>2026-04-22T08:04:56.999Z</time></trkpt><trkpt lat="42.37347457366137" lon="2.683615039642584"><ele>716.3333333333333</ele><time>2026-04-22T08:04:57.999Z</time></trkpt><trkpt lat="42.37332857406402" lon="2.6837140414407723"><ele>716.0</ele><time>2026-04-22T08:04:58.999Z</time></trkpt><trkpt lat="42.373186818586916" lon="2.6838570408563744"><ele>716.0</ele><time>2026-04-22T08:04:59.999Z</time></trkpt><trkpt lat="42.373032907547994" lon="2.6839798908490233"><ele>716.0</ele><time>2026-04-22T08:05:00.999Z</time></trkpt><trkpt lat="42.37286214268422" lon="2.6840485777205667"><ele>716.0</ele><time>2026-04-22T08:05:01.999Z</time></trkpt><trkpt lat="42.372686239498954" lon="2.684085252521234"><ele>717.0</ele><time>2026-04-22T08:05:02.999Z</time></trkpt><trkpt lat="42.37250866649507" lon="2.684069487855728"><ele>718.0</ele><time>2026-04-22T08:05:03.999Z</time></trkpt><trkpt lat="42.37233212114901" lon="2.68399313129534"><ele>719.0</ele><time>2026-04-22T08:05:04.999Z</time></trkpt><trkpt lat="42.372170689942415" lon="2.6838406662439445"><ele>719.0</ele><time>2026-04-22T08:05:05.999Z</time></trkpt><trkpt lat="42.37198845325669" lon="2.68372184950306"><ele>719.0</ele><time>2026-04-22T08:05:06.999Z</time></trkpt><trkpt lat="42.37180747351687" lon="2.683627573358509"><ele>719.0</ele><time>2026-04-22T08:05:07.999Z</time></trkpt><trkpt lat="42.371657918290346" lon="2.6835206737522577"><ele>725.3333333333333</ele><time>2026-04-22T08:05:08.999Z</time></trkpt><trkpt lat="42.37155292023598" lon="2.6833723693410603"><ele>731.6666666666666</ele><time>2026-04-22T08:05:09.999Z</time></trkpt><trkpt lat="42.37145905123394" lon="2.6832084882370353"><ele>738.0</ele><time>2026-04-22T08:05:10.998Z</time></trkpt><trkpt lat="42.371454622999366" lon="2.682984133713139"><ele>742.6666666666666</ele><time>2026-04-22T08:05:11.998Z</time></trkpt><trkpt lat="42.37145937486309" lon="2.6827519044915196"><ele>747.3333333333333</ele><time>2026-04-22T08:05:12.998Z</time></trkpt><trkpt lat="42.37145243643089" lon="2.6825087589898433"><ele>752.0</ele><time>2026-04-22T08:05:13.998Z</time></trkpt><trkpt lat="42.371424995693175" lon="2.682276146012415"><ele>741.3333333333333</ele><time>2026-04-22T08:05:14.998Z</time></trkpt><trkpt lat="42.37134736179974" lon="2.682053709952733"><ele>730.6666666666666</ele><time>2026-04-22T08:05:15.998Z</time></trkpt><trkpt lat="42.37125370910985" lon="2.6818412250087746"><ele>720.0</ele><time>2026-04-22T08:05:16.998Z</time></trkpt><trkpt lat="42.37118539176731" lon="2.68162571846244"><ele>720.0</ele><time>2026-04-22T08:05:17.998Z</time></trkpt><trkpt lat="42.37119929875602" lon="2.681402747737907"><ele>720.0</ele><time>2026-04-22T08:05:18.998Z</time></trkpt><trkpt lat="42.37121181543423" lon="2.6811639216185363"><ele>720.0</ele><time>2026-04-22T08:05:19.998Z</time></trkpt><trkpt lat="42.371256146774066" lon="2.6809117227457095"><ele>720.3333333333334</ele><time>2026-04-22T08:05:20.998Z</time></trkpt><trkpt lat="42.371298197603984" lon="2.680649130972421"><ele>720.6666666666667</ele><time>2026-04-22T08:05:21.998Z</time></trkpt><trkpt lat="42.37134599455801" lon="2.680386367387219"><ele>721.0</ele><time>2026-04-22T08:05:22.998Z</time></trkpt><trkpt lat="42.37139923465818" lon="2.680120477745862"><ele>732.3333333333334</ele><time>2026-04-22T08:05:24Z</time></trkpt><trkpt lat="42.3714476084799" lon="2.67987114824047"><ele>743.6666666666666</ele><time>2026-04-22T08:05:25Z</time></trkpt><trkpt lat="42.37147085411961" lon="2.679627226964913"><ele>755.0</ele><time>2026-04-22T08:05:26Z</time></trkpt><trkpt lat="42.37145899489484" lon="2.679365343581509"><ele>755.0</ele><time>2026-04-22T08:05:27Z</time></trkpt><trkpt lat="42.37141972964672" lon="2.6790956590899726"><ele>755.0</ele><time>2026-04-22T08:05:28Z</time></trkpt><trkpt lat="42.37135925533841" lon="2.678846622203075"><ele>755.0</ele><time>2026-04-22T08:05:29Z</time></trkpt><trkpt lat="42.371310783614305" lon="2.678613995838647"><ele>754.0</ele><time>2026-04-22T08:05:30Z</time></trkpt><trkpt lat="42.37131169273141" lon="2.6783875324712696"><ele>753.0</ele><time>2026-04-22T08:05:31Z</time></trkpt><trkpt lat="42.37136342758781" lon="2.67815533079825"><ele>752.0</ele><time>2026-04-22T08:05:32Z</time></trkpt><trkpt lat="42.37146081436724" lon="2.677929737116972"><ele>748.3333333333333</ele><time>2026-04-22T08:05:33Z</time></trkpt><trkpt lat="42.371580274371226" lon="2.6777208544374207"><ele>744.6666666666666</ele><time>2026-04-22T08:05:34Z</time></trkpt><trkpt lat="42.371686351849746" lon="2.6775279465358137"><ele>741.0</ele><time>2026-04-22T08:05:35Z</time></trkpt><trkpt lat="42.37176721185221" lon="2.6773441504464226"><ele>741.0</ele><time>2026-04-22T08:05:36Z</time></trkpt><trkpt lat="42.37181660825878" lon="2.6771615443910517"><ele>741.0</ele><time>2026-04-22T08:05:37Z</time></trkpt><trkpt lat="42.37183415230929" lon="2.676970676383843"><ele>741.0</ele><time>2026-04-22T08:05:38Z</time></trkpt><trkpt lat="42.37180735541386" lon="2.676784883257647"><ele>741.0</ele><time>2026-04-22T08:05:39Z</time></trkpt><trkpt lat="42.371730104024415" lon="2.676626086748353"><ele>742.0</ele><time>2026-04-22T08:05:40Z</time></trkpt><trkpt lat="42.37160933223933" lon="2.6765084427362567"><ele>743.0</ele><time>2026-04-22T08:05:41Z</time></trkpt><trkpt lat="42.37145087552422" lon="2.6764266897613993"><ele>744.0</ele><time>2026-04-22T08:05:42Z</time></trkpt><trkpt lat="42.3712726676124" lon="2.6763615338071536"><ele>740.6666666666666</ele><time>2026-04-22T08:05:43Z</time></trkpt><trkpt lat="42.37108395090318" lon="2.676335103889809"><ele>737.3333333333333</ele><time>2026-04-22T08:05:44Z</time></trkpt><trkpt lat="42.370878709943575" lon="2.67635590390239"><ele>734.0</ele><time>2026-04-22T08:05:45Z</time></trkpt><trkpt lat="42.370678303928955" lon="2.6764409818994945"><ele>741.0</ele><time>2026-04-22T08:05:46Z</time></trkpt><trkpt lat="42.37047819126318" lon="2.676562064790675"><ele>748.0</ele><time>2026-04-22T08:05:47Z</time></trkpt><trkpt lat="42.370277691605956" lon="2.6766983866863567"><ele>755.0</ele><time>2026-04-22T08:05:48Z</time></trkpt><trkpt lat="42.37007169050434" lon="2.6768385307333453"><ele>756.0</ele><time>2026-04-22T08:05:49Z</time></trkpt><trkpt lat="42.3698655495377" lon="2.6769723904613265"><ele>757.0</ele><time>2026-04-22T08:05:50Z</time></trkpt><trkpt lat="42.36968445598166" lon="2.677101335693217"><ele>758.0</ele><time>2026-04-22T08:05:51Z</time></trkpt><trkpt lat="42.36952848466811" lon="2.6772665722372033"><ele>758.0</ele><time>2026-04-22T08:05:52Z</time></trkpt><trkpt lat="42.36937881092557" lon="2.677486189518528"><ele>758.0</ele><time>2026-04-22T08:05:53Z</time></trkpt><trkpt lat="42.36925606780415" lon="2.6777406819426126"><ele>758.0</ele><time>2026-04-22T08:05:54Z</time></trkpt><trkpt lat="42.36913445373958" lon="2.677986001872392"><ele>763.5</ele><time>2026-04-22T08:05:55Z</time></trkpt><trkpt lat="42.36894997429779" lon="2.6781593288459384"><ele>769.0</ele><time>2026-04-22T08:05:56Z</time></trkpt><trkpt lat="42.368770884500194" lon="2.6783559699268364"><ele>769.0</ele><time>2026-04-22T08:05:57Z</time></trkpt><trkpt lat="42.3685837631193" lon="2.6785325347104263"><ele>769.0</ele><time>2026-04-22T08:05:58Z</time></trkpt><trkpt lat="42.368431357753" lon="2.6787435711382384"><ele>769.0</ele><time>2026-04-22T08:05:59Z</time></trkpt><trkpt lat="42.36831780357531" lon="2.6789660168008527"><ele>764.0</ele><time>2026-04-22T08:06:00Z</time></trkpt><trkpt lat="42.368228172741276" lon="2.679180440646892"><ele>759.0</ele><time>2026-04-22T08:06:01Z</time></trkpt><trkpt lat="42.36814705955322" lon="2.6793708061931047"><ele>754.0</ele><time>2026-04-22T08:06:02Z</time></trkpt><trkpt lat="42.36803675766573" lon="2.6795038751019575"><ele>755.75</ele><time>2026-04-22T08:06:03Z</time></trkpt><trkpt lat="42.36790571907711" lon="2.6795932524429142"><ele>757.5</ele><time>2026-04-22T08:06:04Z</time></trkpt><trkpt lat="42.36775741158434" lon="2.6795986370426084"><ele>759.25</ele><time>2026-04-22T08:06:05Z</time></trkpt><trkpt lat="42.36761178938232" lon="2.679551938088398"><ele>761.0</ele><time>2026-04-22T08:06:06Z</time></trkpt><trkpt lat="42.367512726552775" lon="2.6793878090223187"><ele>761.0</ele><time>2026-04-22T08:06:07Z</time></trkpt><trkpt lat="42.367430343766905" lon="2.679216484661199"><ele>761.0</ele><time>2026-04-22T08:06:08Z</time></trkpt><trkpt lat="42.36746585502864" lon="2.6789938508373417"><ele>761.0</ele><time>2026-04-22T08:06:09Z</time></trkpt><trkpt lat="42.3675106755061" lon="2.6787435219309317"><ele>760.6666666666666</ele><time>2026-04-22T08:06:10Z</time></trkpt><trkpt lat="42.36754924804583" lon="2.6784877128802225"><ele>760.3333333333334</ele><time>2026-04-22T08:06:11Z</time></trkpt><trkpt lat="42.367588668171145" lon="2.6782443066357495"><ele>760.0</ele><time>2026-04-22T08:06:12Z</time></trkpt><trkpt lat="42.36756478331588" lon="2.6779855390912757"><ele>763.0</ele><time>2026-04-22T08:06:12.999Z</time></trkpt><trkpt lat="42.36749872294738" lon="2.6777336804095757"><ele>766.0</ele><time>2026-04-22T08:06:13.999Z</time></trkpt><trkpt lat="42.3673871504609" lon="2.677519439689559"><ele>769.0</ele><time>2026-04-22T08:06:14.999Z</time></trkpt><trkpt lat="42.367226133311014" lon="2.6773653661819456"><ele>761.6666666666666</ele><time>2026-04-22T08:06:15.999Z</time></trkpt><trkpt lat="42.36705531168874" lon="2.677249187120022"><ele>754.3333333333333</ele><time>2026-04-22T08:06:16.999Z</time></trkpt><trkpt lat="42.366886994522865" lon="2.677151023693841"><ele>747.0</ele><time>2026-04-22T08:06:17.999Z</time></trkpt><trkpt lat="42.36675146263713" lon="2.677017389616538"><ele>751.0</ele><time>2026-04-22T08:06:18.999Z</time></trkpt><trkpt lat="42.366650991262205" lon="2.6768330518252754"><ele>755.0</ele><time>2026-04-22T08:06:19.999Z</time></trkpt><trkpt lat="42.366601636124706" lon="2.6766066167434386"><ele>759.0</ele><time>2026-04-22T08:06:20.999Z</time></trkpt><trkpt lat="42.36657964748684" lon="2.6763509275542487"><ele>759.0</ele><time>2026-04-22T08:06:21.999Z</time></trkpt><trkpt lat="42.36655294430558" lon="2.676114970570769"><ele>759.0</ele><time>2026-04-22T08:06:22.999Z</time></trkpt><trkpt lat="42.36648723049271" lon="2.675906146890692"><ele>759.0</ele><time>2026-04-22T08:06:23.999Z</time></trkpt><trkpt lat="42.36637945762816" lon="2.675736901206642"><ele>756.6666666666666</ele><time>2026-04-22T08:06:24.999Z</time></trkpt><trkpt lat="42.36623271838392" lon="2.6755956538728642"><ele>754.3333333333333</ele><time>2026-04-22T08:06:25.999Z</time></trkpt><trkpt lat="42.36605231023412" lon="2.675489993818715"><ele>752.0</ele><time>2026-04-22T08:06:26.999Z</time></trkpt><trkpt lat="42.36584837589694" lon="2.675430251918606"><ele>752.0</ele><time>2026-04-22T08:06:27.999Z</time></trkpt><trkpt lat="42.36563419222479" lon="2.6753882132530853"><ele>752.0</ele><time>2026-04-22T08:06:28.999Z</time></trkpt><trkpt lat="42.36540393541287" lon="2.675340373960888"><ele>752.0</ele><time>2026-04-22T08:06:29.999Z</time></trkpt><trkpt lat="42.36517101314553" lon="2.675295539885202"><ele>759.5</ele><time>2026-04-22T08:06:30.999Z</time></trkpt><trkpt lat="42.364931683114385" lon="2.6752567914034806"><ele>767.0</ele><time>2026-04-22T08:06:31.999Z</time></trkpt><trkpt lat="42.36470086158422" lon="2.6752150971465474"><ele>761.5</ele><time>2026-04-22T08:06:32.999Z</time></trkpt><trkpt lat="42.36446588218977" lon="2.675160636965358"><ele>756.0</ele><time>2026-04-22T08:06:33.999Z</time></trkpt><trkpt lat="42.36422880501754" lon="2.6750826384077104"><ele>756.0</ele><time>2026-04-22T08:06:34.999Z</time></trkpt><trkpt lat="42.36400154454035" lon="2.6749818816646735"><ele>756.0</ele><time>2026-04-22T08:06:35.999Z</time></trkpt><trkpt lat="42.36382515652877" lon="2.6748512543325313"><ele>756.0</ele><time>2026-04-22T08:06:36.999Z</time></trkpt><trkpt lat="42.36366355114039" lon="2.6747560435597904"><ele>753.0</ele><time>2026-04-22T08:06:37.999Z</time></trkpt><trkpt lat="42.36353159091296" lon="2.6746182707541615"><ele>750.0</ele><time>2026-04-22T08:06:38.999Z</time></trkpt><trkpt lat="42.36343874589014" lon="2.6744343785817315"><ele>747.0</ele><time>2026-04-22T08:06:39.999Z</time></trkpt><trkpt lat="42.36336513864934" lon="2.6741834248121115"><ele>747.0</ele><time>2026-04-22T08:06:40.999Z</time></trkpt><trkpt lat="42.36335789074526" lon="2.6739464846864145"><ele>747.0</ele><time>2026-04-22T08:06:41.999Z</time></trkpt><trkpt lat="42.3634036748255" lon="2.6737145704084218"><ele>747.0</ele><time>2026-04-22T08:06:42.999Z</time></trkpt><trkpt lat="42.36348642337973" lon="2.67351506808713"><ele>745.0</ele><time>2026-04-22T08:06:43.999Z</time></trkpt><trkpt lat="42.36360987593889" lon="2.673355558969661"><ele>743.0</ele><time>2026-04-22T08:06:44.999Z</time></trkpt><trkpt lat="42.36376779204331" lon="2.6732340637061993"><ele>741.0</ele><time>2026-04-22T08:06:45.999Z</time></trkpt><trkpt lat="42.363921443676524" lon="2.6731745283203012"><ele>746.3333333333334</ele><time>2026-04-22T08:06:46.999Z</time></trkpt><trkpt lat="42.36413475715519" lon="2.67314540395353"><ele>751.6666666666667</ele><time>2026-04-22T08:06:47.999Z</time></trkpt><trkpt lat="42.364355043406036" lon="2.673104634244205"><ele>757.0</ele><time>2026-04-22T08:06:48.999Z</time></trkpt><trkpt lat="42.36459627543735" lon="2.6730409295317434"><ele>759.5</ele><time>2026-04-22T08:06:49.999Z</time></trkpt><trkpt lat="42.36483602310745" lon="2.672975600014257"><ele>762.0</ele><time>2026-04-22T08:06:50.999Z</time></trkpt><trkpt lat="42.36507937513129" lon="2.6729136964544202"><ele>762.0</ele><time>2026-04-22T08:06:51.999Z</time></trkpt><trkpt lat="42.36531317636207" lon="2.6728654514790136"><ele>762.0</ele><time>2026-04-22T08:06:52.999Z</time></trkpt><trkpt lat="42.36554797782641" lon="2.6728220619302236"><ele>762.3333333333334</ele><time>2026-04-22T08:06:53.999Z</time></trkpt><trkpt lat="42.36576684345775" lon="2.672811321942291"><ele>762.6666666666667</ele><time>2026-04-22T08:06:54.999Z</time></trkpt><trkpt lat="42.365960709300836" lon="2.6728135335169334"><ele>763.0</ele><time>2026-04-22T08:06:55.999Z</time></trkpt><trkpt lat="42.366134926662944" lon="2.6728176025665564"><ele>763.0</ele><time>2026-04-22T08:06:56.999Z</time></trkpt><trkpt lat="42.366302581429885" lon="2.672779677177194"><ele>763.0</ele><time>2026-04-22T08:06:57.999Z</time></trkpt><trkpt lat="42.36645963619276" lon="2.6726850546802523"><ele>763.0</ele><time>2026-04-22T08:06:58.999Z</time></trkpt><trkpt lat="42.36659287223096" lon="2.672545124041135"><ele>757.0</ele><time>2026-04-22T08:06:59.999Z</time></trkpt><trkpt lat="42.36668776865337" lon="2.672342946755364"><ele>751.0</ele><time>2026-04-22T08:07:00.999Z</time></trkpt><trkpt lat="42.36673803305204" lon="2.672127811654948"><ele>745.0</ele><time>2026-04-22T08:07:01.999Z</time></trkpt><trkpt lat="42.36674260852856" lon="2.6718696832055375"><ele>740.0</ele><time>2026-04-22T08:07:02.999Z</time></trkpt><trkpt lat="42.366717422508984" lon="2.67159729606448"><ele>735.0</ele><time>2026-04-22T08:07:03.999Z</time></trkpt><trkpt lat="42.36669061026524" lon="2.671301063302657"><ele>730.0</ele><time>2026-04-22T08:07:04.999Z</time></trkpt><trkpt lat="42.366654707096934" lon="2.671009581416868"><ele>728.5</ele><time>2026-04-22T08:07:05.999Z</time></trkpt><trkpt lat="42.36660572811265" lon="2.6707215307543413"><ele>727.0</ele><time>2026-04-22T08:07:06.999Z</time></trkpt><trkpt lat="42.36659946412839" lon="2.6703956874631567"><ele>726.0</ele><time>2026-04-22T08:07:07.999Z</time></trkpt><trkpt lat="42.3665650404675" lon="2.670044008248837"><ele>725.0</ele><time>2026-04-22T08:07:08.999Z</time></trkpt><trkpt lat="42.36653977302721" lon="2.669681520289526"><ele>725.5</ele><time>2026-04-22T08:07:09.999Z</time></trkpt><trkpt lat="42.36652178514445" lon="2.669306878034455"><ele>726.0</ele><time>2026-04-22T08:07:10.999Z</time></trkpt><trkpt lat="42.36650086755323" lon="2.668924152604462"><ele>721.0</ele><time>2026-04-22T08:07:11.999Z</time></trkpt><trkpt lat="42.366479326804516" lon="2.668528655266785"><ele>716.0</ele><time>2026-04-22T08:07:12.999Z</time></trkpt><trkpt lat="42.36645750246893" lon="2.668124441516373"><ele>716.5</ele><time>2026-04-22T08:07:13.999Z</time></trkpt><trkpt lat="42.3664396009456" lon="2.667734852674713"><ele>717.0</ele><time>2026-04-22T08:07:14.998Z</time></trkpt><trkpt lat="42.36642647667071" lon="2.6673687636507886"><ele>717.0</ele><time>2026-04-22T08:07:15.998Z</time></trkpt><trkpt lat="42.366414090020434" lon="2.667017699860416"><ele>717.0</ele><time>2026-04-22T08:07:16.998Z</time></trkpt><trkpt lat="42.36641714959111" lon="2.6666653090506998"><ele>718.0</ele><time>2026-04-22T08:07:17.998Z</time></trkpt><trkpt lat="42.36647501773955" lon="2.666324971703926"><ele>719.0</ele><time>2026-04-22T08:07:18.998Z</time></trkpt><trkpt lat="42.366526484142426" lon="2.665985294354857"><ele>715.0</ele><time>2026-04-22T08:07:19.998Z</time></trkpt><trkpt lat="42.366560961173356" lon="2.6656456787104026"><ele>711.0</ele><time>2026-04-22T08:07:20.998Z</time></trkpt><trkpt lat="42.366613234197104" lon="2.6653253383909403"><ele>712.0</ele><time>2026-04-22T08:07:21.998Z</time></trkpt><trkpt lat="42.366656346378676" lon="2.6650188576190623"><ele>713.0</ele><time>2026-04-22T08:07:22.998Z</time></trkpt><trkpt lat="42.36671912259373" lon="2.6647342566922374"><ele>713.0</ele><time>2026-04-22T08:07:23.998Z</time></trkpt><trkpt lat="42.366774396655565" lon="2.664474633806062"><ele>713.0</ele><time>2026-04-22T08:07:24.998Z</time></trkpt><trkpt lat="42.36686829412461" lon="2.6642638151249027"><ele>713.0</ele><time>2026-04-22T08:07:25.998Z</time></trkpt><trkpt lat="42.36698664581998" lon="2.6640822171824956"><ele>713.3333333333333</ele><time>2026-04-22T08:07:26.998Z</time></trkpt><trkpt lat="42.36710396936509" lon="2.663894092723889"><ele>713.6666666666666</ele><time>2026-04-22T08:07:27.998Z</time></trkpt><trkpt lat="42.36718068504765" lon="2.663675979000129"><ele>714.0</ele><time>2026-04-22T08:07:28.998Z</time></trkpt><trkpt lat="42.36721516694952" lon="2.6634706609560475"><ele>714.0</ele><time>2026-04-22T08:07:30Z</time></trkpt><trkpt lat="42.36721749898347" lon="2.6631926989346884"><ele>714.0</ele><time>2026-04-22T08:07:31Z</time></trkpt><trkpt lat="42.36720462709138" lon="2.662917380680848"><ele>714.0</ele><time>2026-04-22T08:07:32Z</time></trkpt><trkpt lat="42.36719918749068" lon="2.6626668211155438"><ele>711.6666666666666</ele><time>2026-04-22T08:07:33Z</time></trkpt><trkpt lat="42.367236272195555" lon="2.6624371348200735"><ele>709.3333333333333</ele><time>2026-04-22T08:07:34Z</time></trkpt><trkpt lat="42.36730338233077" lon="2.662215341715944"><ele>707.0</ele><time>2026-04-22T08:07:35Z</time></trkpt><trkpt lat="42.3674391113976" lon="2.6619905751927573"><ele>701.3333333333333</ele><time>2026-04-22T08:07:36Z</time></trkpt><trkpt lat="42.36760014970378" lon="2.6618005014541577"><ele>695.6666666666666</ele><time>2026-04-22T08:07:37Z</time></trkpt><trkpt lat="42.36775841426792" lon="2.6616110307102168"><ele>690.0</ele><time>2026-04-22T08:07:38Z</time></trkpt><trkpt lat="42.367876627047394" lon="2.661412657950407"><ele>690.0</ele><time>2026-04-22T08:07:39Z</time></trkpt><trkpt lat="42.367957020833074" lon="2.661199610570649"><ele>690.0</ele><time>2026-04-22T08:07:40Z</time></trkpt><trkpt lat="42.367993368982866" lon="2.66095398828165"><ele>690.0</ele><time>2026-04-22T08:07:41Z</time></trkpt><trkpt lat="42.367995363850504" lon="2.6606888594663465"><ele>689.0</ele><time>2026-04-22T08:07:42Z</time></trkpt><trkpt lat="42.36796414277868" lon="2.660420494955194"><ele>688.0</ele><time>2026-04-22T08:07:43Z</time></trkpt><trkpt lat="42.36789648569154" lon="2.6601636705782195"><ele>687.0</ele><time>2026-04-22T08:07:44Z</time></trkpt><trkpt lat="42.36783240127871" lon="2.6599101293245666"><ele>690.0</ele><time>2026-04-22T08:07:45Z</time></trkpt><trkpt lat="42.367845325794235" lon="2.659651651059882"><ele>693.0</ele><time>2026-04-22T08:07:46Z</time></trkpt><trkpt lat="42.36785798843149" lon="2.6593702837492725"><ele>696.0</ele><time>2026-04-22T08:07:47Z</time></trkpt><trkpt lat="42.367898147273515" lon="2.6590916295736573"><ele>698.6666666666666</ele><time>2026-04-22T08:07:48Z</time></trkpt><trkpt lat="42.367904972933985" lon="2.6588099532136322"><ele>701.3333333333333</ele><time>2026-04-22T08:07:49Z</time></trkpt><trkpt lat="42.36789492281827" lon="2.65852890964177"><ele>704.0</ele><time>2026-04-22T08:07:50Z</time></trkpt><trkpt lat="42.367890250415606" lon="2.6582429806979673"><ele>707.0</ele><time>2026-04-22T08:07:51Z</time></trkpt><trkpt lat="42.367882574427526" lon="2.657968371992605"><ele>710.0</ele><time>2026-04-22T08:07:52Z</time></trkpt><trkpt lat="42.36787882596781" lon="2.6576935621338844"><ele>713.0</ele><time>2026-04-22T08:07:53Z</time></trkpt><trkpt lat="42.36786917839248" lon="2.6574216302046785"><ele>715.6666666666666</ele><time>2026-04-22T08:07:54Z</time></trkpt><trkpt lat="42.36787057716559" lon="2.6571518499135096"><ele>718.3333333333334</ele><time>2026-04-22T08:07:55Z</time></trkpt><trkpt lat="42.36789265395174" lon="2.656886302424443"><ele>721.0</ele><time>2026-04-22T08:07:56Z</time></trkpt><trkpt lat="42.367909202705235" lon="2.6566242355833167"><ele>723.3333333333334</ele><time>2026-04-22T08:07:57Z</time></trkpt><trkpt lat="42.367924249463634" lon="2.6563530329075298"><ele>725.6666666666666</ele><time>2026-04-22T08:07:58Z</time></trkpt><trkpt lat="42.36793915412852" lon="2.656072877582964"><ele>728.0</ele><time>2026-04-22T08:07:59Z</time></trkpt><trkpt lat="42.367952076958765" lon="2.65579835515376"><ele>731.0</ele><time>2026-04-22T08:08:00Z</time></trkpt><trkpt lat="42.367960860821654" lon="2.6555216137147295"><ele>734.0</ele><time>2026-04-22T08:08:01Z</time></trkpt><trkpt lat="42.367959379963395" lon="2.655241145104829"><ele>737.0</ele><time>2026-04-22T08:08:02Z</time></trkpt><trkpt lat="42.36795166811897" lon="2.6549627365323003"><ele>740.0</ele><time>2026-04-22T08:08:03Z</time></trkpt><trkpt lat="42.367941327610126" lon="2.654685358991454"><ele>743.0</ele><time>2026-04-22T08:08:04Z</time></trkpt><trkpt lat="42.36792916644774" lon="2.6544322487716316"><ele>746.0</ele><time>2026-04-22T08:08:05Z</time></trkpt><trkpt lat="42.36790944842631" lon="2.654212260331807"><ele>749.0</ele><time>2026-04-22T08:08:06Z</time></trkpt><trkpt lat="42.36787582824568" lon="2.654035501969118"><ele>752.0</ele><time>2026-04-22T08:08:07Z</time></trkpt><trkpt lat="42.36782292142174" lon="2.653921940108318"><ele>755.0</ele><time>2026-04-22T08:08:08Z</time></trkpt><trkpt lat="42.36775269668875" lon="2.6538519952702324"><ele>758.0</ele><time>2026-04-22T08:08:09Z</time></trkpt><trkpt lat="42.36767652523852" lon="2.6538399335472973"><ele>761.0</ele><time>2026-04-22T08:08:10Z</time></trkpt><trkpt lat="42.367589552876346" lon="2.65388952265966"><ele>761.0</ele><time>2026-04-22T08:08:11Z</time></trkpt><trkpt lat="42.36750551197844" lon="2.654009594183245"><ele>761.0</ele><time>2026-04-22T08:08:12Z</time></trkpt><trkpt lat="42.36742953260194" lon="2.6541630166510153"><ele>761.0</ele><time>2026-04-22T08:08:13Z</time></trkpt><trkpt lat="42.367349747632204" lon="2.6543463726247687"><ele>761.0</ele><time>2026-04-22T08:08:14Z</time></trkpt><trkpt lat="42.367249441876645" lon="2.6545216452165006"><ele>766.3333333333333</ele><time>2026-04-22T08:08:15Z</time></trkpt><trkpt lat="42.36713583547879" lon="2.6547038176929516"><ele>771.6666666666666</ele><time>2026-04-22T08:08:15.999Z</time></trkpt><trkpt lat="42.367005847177715" lon="2.6548907170983638"><ele>777.0</ele><time>2026-04-22T08:08:16.999Z</time></trkpt><trkpt lat="42.36686097765908" lon="2.6550801909211885"><ele>777.0</ele><time>2026-04-22T08:08:17.999Z</time></trkpt><trkpt lat="42.366718914580694" lon="2.655272422742179"><ele>777.0</ele><time>2026-04-22T08:08:18.999Z</time></trkpt><trkpt lat="42.366598787283415" lon="2.65548872340968"><ele>777.0</ele><time>2026-04-22T08:08:19.999Z</time></trkpt><trkpt lat="42.366492686043934" lon="2.6557470644606824"><ele>780.3333333333333</ele><time>2026-04-22T08:08:20.999Z</time></trkpt><trkpt lat="42.36640074741426" lon="2.65601861373439"><ele>783.6666666666666</ele><time>2026-04-22T08:08:21.999Z</time></trkpt><trkpt lat="42.36630776298361" lon="2.656294838850178"><ele>787.0</ele><time>2026-04-22T08:08:22.999Z</time></trkpt><trkpt lat="42.36619850661683" lon="2.656563253238894"><ele>787.0</ele><time>2026-04-22T08:08:23.999Z</time></trkpt><trkpt lat="42.366094535281455" lon="2.656812903808354"><ele>787.0</ele><time>2026-04-22T08:08:24.999Z</time></trkpt><trkpt lat="42.36599724582908" lon="2.657034073077513"><ele>787.0</ele><time>2026-04-22T08:08:25.999Z</time></trkpt><trkpt lat="42.36591736659242" lon="2.657218875185539"><ele>786.3333333333333</ele><time>2026-04-22T08:08:26.999Z</time></trkpt><trkpt lat="42.36581788004464" lon="2.6573555292041773"><ele>785.6666666666667</ele><time>2026-04-22T08:08:27.999Z</time></trkpt><trkpt lat="42.365684775259375" lon="2.6574377108464207"><ele>785.0</ele><time>2026-04-22T08:08:28.999Z</time></trkpt><trkpt lat="42.36552693818073" lon="2.6574855577557264"><ele>785.0</ele><time>2026-04-22T08:08:29.999Z</time></trkpt><trkpt lat="42.36535930292807" lon="2.6574793706691002"><ele>785.0</ele><time>2026-04-22T08:08:30.999Z</time></trkpt><trkpt lat="42.36518415927938" lon="2.657474378483433"><ele>785.0</ele><time>2026-04-22T08:08:31.999Z</time></trkpt><trkpt lat="42.36501383781255" lon="2.657524459767226"><ele>785.0</ele><time>2026-04-22T08:08:32.999Z</time></trkpt><trkpt lat="42.36485752085861" lon="2.6576330511786623"><ele>785.0</ele><time>2026-04-22T08:08:33.999Z</time></trkpt><trkpt lat="42.36470177839151" lon="2.657766838593826"><ele>785.0</ele><time>2026-04-22T08:08:34.999Z</time></trkpt><trkpt lat="42.36454681165882" lon="2.6579099043496104"><ele>784.6666666666667</ele><time>2026-04-22T08:08:35.999Z</time></trkpt><trkpt lat="42.364395272028" lon="2.6580588526062403"><ele>784.3333333333333</ele><time>2026-04-22T08:08:36.999Z</time></trkpt><trkpt lat="42.36425620253195" lon="2.6581863237841565"><ele>784.0</ele><time>2026-04-22T08:08:37.999Z</time></trkpt><trkpt lat="42.364137277893505" lon="2.658284607657466"><ele>784.0</ele><time>2026-04-22T08:08:38.999Z</time></trkpt><trkpt lat="42.3640635300299" lon="2.6583222819432444"><ele>784.0</ele><time>2026-04-22T08:08:39.999Z</time></trkpt><trkpt lat="42.36396328096747" lon="2.6582379679026893"><ele>784.0</ele><time>2026-04-22T08:08:41.999Z</time></trkpt><trkpt lat="42.36397091982667" lon="2.658140131698232"><ele>784.0</ele><time>2026-04-22T08:08:42.999Z</time></trkpt><trkpt lat="42.36403740800191" lon="2.658048332715515"><ele>784.0</ele><time>2026-04-22T08:08:43.999Z</time></trkpt><trkpt lat="42.364143595738284" lon="2.657979216414246"><ele>784.0</ele><time>2026-04-22T08:08:44.999Z</time></trkpt><trkpt lat="42.36427236708265" lon="2.6579210653058833"><ele>784.0</ele><time>2026-04-22T08:08:45.999Z</time></trkpt><trkpt lat="42.36439286410288" lon="2.657862719666952"><ele>784.0</ele><time>2026-04-22T08:08:46.999Z</time></trkpt><trkpt lat="42.36449810643384" lon="2.657760428979396"><ele>784.0</ele><time>2026-04-22T08:08:47.999Z</time></trkpt><trkpt lat="42.36459578584419" lon="2.6576107340554866"><ele>784.3333333333333</ele><time>2026-04-22T08:08:48.999Z</time></trkpt><trkpt lat="42.36468883538839" lon="2.657427850366593"><ele>784.6666666666667</ele><time>2026-04-22T08:08:49.999Z</time></trkpt><trkpt lat="42.364779551871905" lon="2.65724130936302"><ele>785.0</ele><time>2026-04-22T08:08:50.999Z</time></trkpt><trkpt lat="42.36489423179102" lon="2.657103498755745"><ele>785.0</ele><time>2026-04-22T08:08:51.999Z</time></trkpt><trkpt lat="42.36504657380264" lon="2.657028891673133"><ele>785.0</ele><time>2026-04-22T08:08:52.999Z</time></trkpt><trkpt lat="42.365191982283385" lon="2.6569088484741394"><ele>785.0</ele><time>2026-04-22T08:08:53.999Z</time></trkpt><trkpt lat="42.36534191496051" lon="2.656772154805949"><ele>785.5</ele><time>2026-04-22T08:08:54.999Z</time></trkpt><trkpt lat="42.36545282978043" lon="2.6566229099416594"><ele>786.0</ele><time>2026-04-22T08:08:55.999Z</time></trkpt><trkpt lat="42.365516694230976" lon="2.6564551207319984"><ele>786.5</ele><time>2026-04-22T08:08:56.999Z</time></trkpt><trkpt lat="42.36554464529406" lon="2.6562732099113244"><ele>787.0</ele><time>2026-04-22T08:08:57.999Z</time></trkpt><trkpt lat="42.36554781756343" lon="2.6560831544146617"><ele>792.3333333333333</ele><time>2026-04-22T08:08:58.999Z</time></trkpt><trkpt lat="42.36556883881955" lon="2.655887993218813"><ele>797.6666666666667</ele><time>2026-04-22T08:08:59.999Z</time></trkpt><trkpt lat="42.36564133775288" lon="2.6557115271846703"><ele>803.0</ele><time>2026-04-22T08:09:00.999Z</time></trkpt><trkpt lat="42.365761935917504" lon="2.6555537504099744"><ele>803.0</ele><time>2026-04-22T08:09:01.999Z</time></trkpt><trkpt lat="42.36586410335073" lon="2.6553833728877567"><ele>803.0</ele><time>2026-04-22T08:09:02.999Z</time></trkpt><trkpt lat="42.3659375550671" lon="2.6551740913712907"><ele>803.0</ele><time>2026-04-22T08:09:03.999Z</time></trkpt><trkpt lat="42.365995484202045" lon="2.6549439082380455"><ele>804.3333333333334</ele><time>2026-04-22T08:09:04.999Z</time></trkpt><trkpt lat="42.3660545994683" lon="2.6547226958601464"><ele>805.6666666666667</ele><time>2026-04-22T08:09:05.999Z</time></trkpt><trkpt lat="42.36612345387232" lon="2.654504146923745"><ele>807.0</ele><time>2026-04-22T08:09:06.999Z</time></trkpt><trkpt lat="42.366192246840754" lon="2.6542900203553192"><ele>807.0</ele><time>2026-04-22T08:09:07.999Z</time></trkpt><trkpt lat="42.36625122452702" lon="2.654083492930661"><ele>807.0</ele><time>2026-04-22T08:09:08.999Z</time></trkpt><trkpt lat="42.36630670946566" lon="2.65387283817174"><ele>807.0</ele><time>2026-04-22T08:09:09.999Z</time></trkpt><trkpt lat="42.36635274926018" lon="2.6536624350330436"><ele>807.0</ele><time>2026-04-22T08:09:10.999Z</time></trkpt><trkpt lat="42.36637744691249" lon="2.6534738081728206"><ele>807.0</ele><time>2026-04-22T08:09:11.999Z</time></trkpt><trkpt lat="42.36638368793336" lon="2.6532819971231505"><ele>807.0</ele><time>2026-04-22T08:09:12.999Z</time></trkpt><trkpt lat="42.366375185550574" lon="2.6530863092219303"><ele>807.0</ele><time>2026-04-22T08:09:13.999Z</time></trkpt><trkpt lat="42.366353789921604" lon="2.652882708362485"><ele>807.0</ele><time>2026-04-22T08:09:14.999Z</time></trkpt><trkpt lat="42.36633536012534" lon="2.6526670921170408"><ele>807.0</ele><time>2026-04-22T08:09:15.999Z</time></trkpt><trkpt lat="42.36632364176318" lon="2.6524508051624656"><ele>807.0</ele><time>2026-04-22T08:09:16.999Z</time></trkpt><trkpt lat="42.366331478129325" lon="2.65223177201276"><ele>811.0</ele><time>2026-04-22T08:09:17.999Z</time></trkpt><trkpt lat="42.36637860428784" lon="2.6520238102770457"><ele>815.0</ele><time>2026-04-22T08:09:18.998Z</time></trkpt><trkpt lat="42.36642935503048" lon="2.651808237629823"><ele>819.0</ele><time>2026-04-22T08:09:19.998Z</time></trkpt><trkpt lat="42.36647437143562" lon="2.6515808105742473"><ele>819.0</ele><time>2026-04-22T08:09:20.998Z</time></trkpt><trkpt lat="42.36653859659309" lon="2.6513839197916678"><ele>819.0</ele><time>2026-04-22T08:09:21.998Z</time></trkpt><trkpt lat="42.3665926209912" lon="2.651200576021289"><ele>819.0</ele><time>2026-04-22T08:09:22.998Z</time></trkpt><trkpt lat="42.3666433591055" lon="2.6510294215042154"><ele>819.0</ele><time>2026-04-22T08:09:23.998Z</time></trkpt><trkpt lat="42.36668889076105" lon="2.6508661040689825"><ele>819.0</ele><time>2026-04-22T08:09:24.998Z</time></trkpt><trkpt lat="42.36673074630544" lon="2.6507073111824013"><ele>819.0</ele><time>2026-04-22T08:09:25.998Z</time></trkpt><trkpt lat="42.366768019857346" lon="2.6505516028262646"><ele>819.0</ele><time>2026-04-22T08:09:26.998Z</time></trkpt><trkpt lat="42.366805317364395" lon="2.650413043297867"><ele>819.0</ele><time>2026-04-22T08:09:27.998Z</time></trkpt><trkpt lat="42.36684202700183" lon="2.650284769814505"><ele>819.2</ele><time>2026-04-22T08:09:28.998Z</time></trkpt><trkpt lat="42.366881473913814" lon="2.650160734228941"><ele>819.4000000000001</ele><time>2026-04-22T08:09:29.998Z</time></trkpt><trkpt lat="42.36692909469142" lon="2.6500348498278927"><ele>819.6</ele><time>2026-04-22T08:09:30.998Z</time></trkpt><trkpt lat="42.36697881611989" lon="2.649917303826854"><ele>819.8</ele><time>2026-04-22T08:09:31.998Z</time></trkpt><trkpt lat="42.36703031366039" lon="2.649806700675803"><ele>820.0</ele><time>2026-04-22T08:09:32.998Z</time></trkpt><trkpt lat="42.36708392933283" lon="2.6496919643173755"><ele>820.0</ele><time>2026-04-22T08:09:33.998Z</time></trkpt><trkpt lat="42.36713047797595" lon="2.6495912636253287"><ele>820.0</ele><time>2026-04-22T08:09:34.998Z</time></trkpt><trkpt lat="42.36717360232726" lon="2.6494900217114696"><ele>820.0</ele><time>2026-04-22T08:09:36Z</time></trkpt><trkpt lat="42.36721995292733" lon="2.649396562002034"><ele>820.0</ele><time>2026-04-22T08:09:37Z</time></trkpt><trkpt lat="42.36727472343203" lon="2.649250497344194"><ele>820.0</ele><time>2026-04-22T08:09:38Z</time></trkpt><trkpt lat="42.36732701033666" lon="2.649124594476898"><ele>820.25</ele><time>2026-04-22T08:09:39Z</time></trkpt><trkpt lat="42.367388102002636" lon="2.6489857709942566"><ele>820.5</ele><time>2026-04-22T08:09:40Z</time></trkpt><trkpt lat="42.36746049692366" lon="2.6488491716034037"><ele>820.75</ele><time>2026-04-22T08:09:41Z</time></trkpt><trkpt lat="42.36754046440871" lon="2.6487292868641545"><ele>821.0</ele><time>2026-04-22T08:09:42Z</time></trkpt><trkpt lat="42.367618075122486" lon="2.6486302454020674"><ele>819.75</ele><time>2026-04-22T08:09:43Z</time></trkpt><trkpt lat="42.36768679770662" lon="2.6485091949390998"><ele>818.5</ele><time>2026-04-22T08:09:44Z</time></trkpt><trkpt lat="42.36776497265544" lon="2.648420928373817"><ele>817.25</ele><time>2026-04-22T08:09:45Z</time></trkpt><trkpt lat="42.36780905061708" lon="2.648276665500052"><ele>816.0</ele><time>2026-04-22T08:09:46Z</time></trkpt><trkpt lat="42.36786347139531" lon="2.6481174300841346"><ele>816.0</ele><time>2026-04-22T08:09:47Z</time></trkpt><trkpt lat="42.36792181425208" lon="2.6479363367470965"><ele>816.0</ele><time>2026-04-22T08:09:48Z</time></trkpt><trkpt lat="42.36797568107879" lon="2.6477366512341924"><ele>816.0</ele><time>2026-04-22T08:09:49Z</time></trkpt><trkpt lat="42.3680123218135" lon="2.6475254802728045"><ele>816.3333333333333</ele><time>2026-04-22T08:09:50Z</time></trkpt><trkpt lat="42.368025454968894" lon="2.64730568570462"><ele>816.6666666666666</ele><time>2026-04-22T08:09:51Z</time></trkpt><trkpt lat="42.368035585710864" lon="2.6470960769474696"><ele>817.0</ele><time>2026-04-22T08:09:52Z</time></trkpt><trkpt lat="42.3680850654915" lon="2.6469179016538806"><ele>813.6666666666666</ele><time>2026-04-22T08:09:53Z</time></trkpt><trkpt lat="42.36815388731372" lon="2.6467539728743397"><ele>810.3333333333333</ele><time>2026-04-22T08:09:54Z</time></trkpt><trkpt lat="42.368251775352356" lon="2.6465878068343986"><ele>807.0</ele><time>2026-04-22T08:09:55Z</time></trkpt><trkpt lat="42.36835447336682" lon="2.646399702332393"><ele>807.0</ele><time>2026-04-22T08:09:56Z</time></trkpt><trkpt lat="42.36846268944094" lon="2.6462279660811774"><ele>807.0</ele><time>2026-04-22T08:09:57Z</time></trkpt><trkpt lat="42.36854274927303" lon="2.6460367716400666"><ele>807.0</ele><time>2026-04-22T08:09:58Z</time></trkpt><trkpt lat="42.368586942902276" lon="2.645815184188048"><ele>803.6666666666667</ele><time>2026-04-22T08:09:59Z</time></trkpt><trkpt lat="42.368610898414154" lon="2.6455793040487916"><ele>800.3333333333334</ele><time>2026-04-22T08:10:00Z</time></trkpt><trkpt lat="42.36863382219103" lon="2.645334644874257"><ele>797.0</ele><time>2026-04-22T08:10:01Z</time></trkpt><trkpt lat="42.368668818027835" lon="2.645109081737604"><ele>795.0</ele><time>2026-04-22T08:10:02Z</time></trkpt><trkpt lat="42.36873035847852" lon="2.6448836594963923"><ele>793.0</ele><time>2026-04-22T08:10:03Z</time></trkpt><trkpt lat="42.368777220884" lon="2.6446713813858658"><ele>791.0</ele><time>2026-04-22T08:10:04Z</time></trkpt><trkpt lat="42.36879362045667" lon="2.6444541920127502"><ele>788.6666666666667</ele><time>2026-04-22T08:10:05Z</time></trkpt><trkpt lat="42.36877436759799" lon="2.644223947206833"><ele>786.3333333333333</ele><time>2026-04-22T08:10:06Z</time></trkpt><trkpt lat="42.36873569707731" lon="2.644002935276654"><ele>784.0</ele><time>2026-04-22T08:10:07Z</time></trkpt><trkpt lat="42.36869829621394" lon="2.643800924329142"><ele>781.3333333333333</ele><time>2026-04-22T08:10:08Z</time></trkpt><trkpt lat="42.36869622896426" lon="2.6436092165571865"><ele>778.6666666666667</ele><time>2026-04-22T08:10:09Z</time></trkpt><trkpt lat="42.36874301120302" lon="2.6434212780612465"><ele>776.0</ele><time>2026-04-22T08:10:10Z</time></trkpt><trkpt lat="42.36881170194447" lon="2.643216952635953"><ele>777.5</ele><time>2026-04-22T08:10:11Z</time></trkpt><trkpt lat="42.368877352289765" lon="2.6430197338874635"><ele>779.0</ele><time>2026-04-22T08:10:12Z</time></trkpt><trkpt lat="42.3689451297173" lon="2.642838243143829"><ele>780.5</ele><time>2026-04-22T08:10:13Z</time></trkpt><trkpt lat="42.36901760528452" lon="2.6426950421856326"><ele>782.0</ele><time>2026-04-22T08:10:14Z</time></trkpt><trkpt lat="42.36912335406659" lon="2.642585773557338"><ele>782.0</ele><time>2026-04-22T08:10:15Z</time></trkpt><trkpt lat="42.369254761784994" lon="2.642504253674919"><ele>782.0</ele><time>2026-04-22T08:10:16Z</time></trkpt><trkpt lat="42.36937034659545" lon="2.642441187249026"><ele>782.0</ele><time>2026-04-22T08:10:17Z</time></trkpt><trkpt lat="42.36946533263344" lon="2.6423714481754823"><ele>782.0</ele><time>2026-04-22T08:10:17.999Z</time></trkpt><trkpt lat="42.36954051423443" lon="2.642286178017184"><ele>782.0</ele><time>2026-04-22T08:10:18.999Z</time></trkpt><trkpt lat="42.36959860952653" lon="2.6421897934022724"><ele>782.0</ele><time>2026-04-22T08:10:19.999Z</time></trkpt><trkpt lat="42.369580557536985" lon="2.6420497049303933"><ele>782.0</ele><time>2026-04-22T08:10:20.999Z</time></trkpt><trkpt lat="42.369557953849096" lon="2.641936099355805"><ele>782.0</ele><time>2026-04-22T08:10:21.999Z</time></trkpt><trkpt lat="42.369445714719156" lon="2.6418312232338828"><ele>782.0</ele><time>2026-04-22T08:10:22.999Z</time></trkpt><trkpt lat="42.3693285850639" lon="2.641771153403432"><ele>780.25</ele><time>2026-04-22T08:10:23.999Z</time></trkpt><trkpt lat="42.36922037891498" lon="2.6417064412945908"><ele>778.5</ele><time>2026-04-22T08:10:24.999Z</time></trkpt><trkpt lat="42.36913407585162" lon="2.6415862695938648"><ele>776.75</ele><time>2026-04-22T08:10:25.999Z</time></trkpt><trkpt lat="42.36904755732306" lon="2.6414154874188807"><ele>775.0</ele><time>2026-04-22T08:10:26.999Z</time></trkpt><trkpt lat="42.36894182708575" lon="2.6412318482937875"><ele>771.0</ele><time>2026-04-22T08:10:27.999Z</time></trkpt><trkpt lat="42.36884167521232" lon="2.641025334095353"><ele>767.0</ele><time>2026-04-22T08:10:28.999Z</time></trkpt><trkpt lat="42.36877459893758" lon="2.640792913463334"><ele>763.0</ele><time>2026-04-22T08:10:29.999Z</time></trkpt><trkpt lat="42.368702778149775" lon="2.640582987288374"><ele>763.0</ele><time>2026-04-22T08:10:30.999Z</time></trkpt><trkpt lat="42.36862735032739" lon="2.6404113862500918"><ele>763.0</ele><time>2026-04-22T08:10:31.999Z</time></trkpt><trkpt lat="42.36859392276693" lon="2.6402538635161714"><ele>763.0</ele><time>2026-04-22T08:10:32.999Z</time></trkpt><trkpt lat="42.36858746862984" lon="2.640089586901086"><ele>763.0</ele><time>2026-04-22T08:10:33.999Z</time></trkpt><trkpt lat="42.368628949611804" lon="2.6399080790089324"><ele>762.6666666666667</ele><time>2026-04-22T08:10:34.999Z</time></trkpt><trkpt lat="42.36867067296842" lon="2.6397064786512274"><ele>762.3333333333334</ele><time>2026-04-22T08:10:35.999Z</time></trkpt><trkpt lat="42.368691919824876" lon="2.639475955615162"><ele>762.0</ele><time>2026-04-22T08:10:36.999Z</time></trkpt><trkpt lat="42.36869322090084" lon="2.6392517873599255"><ele>760.6666666666666</ele><time>2026-04-22T08:10:37.999Z</time></trkpt><trkpt lat="42.3686735107742" lon="2.6390116575468836"><ele>759.3333333333333</ele><time>2026-04-22T08:10:38.999Z</time></trkpt><trkpt lat="42.36862415858344" lon="2.6387565458984974"><ele>758.0</ele><time>2026-04-22T08:10:39.999Z</time></trkpt><trkpt lat="42.36855162618717" lon="2.638511653924355"><ele>757.6666666666666</ele><time>2026-04-22T08:10:40.999Z</time></trkpt><trkpt lat="42.36850744562223" lon="2.6382709440830587"><ele>757.3333333333334</ele><time>2026-04-22T08:10:41.999Z</time></trkpt><trkpt lat="42.36847133225476" lon="2.6380359238617648"><ele>757.0</ele><time>2026-04-22T08:10:42.999Z</time></trkpt><trkpt lat="42.368443098048544" lon="2.637792317929649"><ele>756.0</ele><time>2026-04-22T08:10:43.999Z</time></trkpt><trkpt lat="42.36843651042806" lon="2.6375556806412717"><ele>755.0</ele><time>2026-04-22T08:10:44.999Z</time></trkpt><trkpt lat="42.368410532193906" lon="2.637332217694093"><ele>754.0</ele><time>2026-04-22T08:10:45.999Z</time></trkpt><trkpt lat="42.36839929603539" lon="2.637135061979874"><ele>754.0</ele><time>2026-04-22T08:10:46.999Z</time></trkpt><trkpt lat="42.36836079066217" lon="2.636973683272131"><ele>754.0</ele><time>2026-04-22T08:10:47.999Z</time></trkpt><trkpt lat="42.36837414393736" lon="2.6368136256886747"><ele>754.0</ele><time>2026-04-22T08:10:48.999Z</time></trkpt><trkpt lat="42.36844563482664" lon="2.636665864123049"><ele>754.0</ele><time>2026-04-22T08:10:49.999Z</time></trkpt><trkpt lat="42.368540027215055" lon="2.636522731684844"><ele>753.0</ele><time>2026-04-22T08:10:50.999Z</time></trkpt><trkpt lat="42.3686089136461" lon="2.636351475474611"><ele>752.0</ele><time>2026-04-22T08:10:51.999Z</time></trkpt><trkpt lat="42.36861583828359" lon="2.6361229102760317"><ele>751.0</ele><time>2026-04-22T08:10:52.999Z</time></trkpt><trkpt lat="42.36862119074778" lon="2.635879724122538"><ele>749.0</ele><time>2026-04-22T08:10:53.999Z</time></trkpt><trkpt lat="42.36861886347551" lon="2.6356359887450345"><ele>747.0</ele><time>2026-04-22T08:10:54.999Z</time></trkpt><trkpt lat="42.36860761628588" lon="2.635411665937816"><ele>745.0</ele><time>2026-04-22T08:10:55.999Z</time></trkpt><trkpt lat="42.368591476926085" lon="2.635177628710602"><ele>743.0</ele><time>2026-04-22T08:10:56.999Z</time></trkpt><trkpt lat="42.36859450694062" lon="2.6349345785339766"><ele>741.0</ele><time>2026-04-22T08:10:57.999Z</time></trkpt><trkpt lat="42.36863401638387" lon="2.6346990336197904"><ele>739.0</ele><time>2026-04-22T08:10:58.999Z</time></trkpt><trkpt lat="42.368722188120046" lon="2.6344613503921166"><ele>738.0</ele><time>2026-04-22T08:10:59.999Z</time></trkpt><trkpt lat="42.36875056515129" lon="2.6341983263904365"><ele>737.0</ele><time>2026-04-22T08:11:00.999Z</time></trkpt><trkpt lat="42.368784113408594" lon="2.6339491960824595"><ele>736.0</ele><time>2026-04-22T08:11:01.999Z</time></trkpt><trkpt lat="42.368832765917105" lon="2.633695117067213"><ele>741.6666666666667</ele><time>2026-04-22T08:11:02.999Z</time></trkpt><trkpt lat="42.368861180691056" lon="2.6334405068903024"><ele>747.3333333333334</ele><time>2026-04-22T08:11:03.999Z</time></trkpt><trkpt lat="42.36886185122373" lon="2.6331882598902348"><ele>753.0</ele><time>2026-04-22T08:11:04.999Z</time></trkpt><trkpt lat="42.3688782661369" lon="2.6329238332619798"><ele>751.0</ele><time>2026-04-22T08:11:05.999Z</time></trkpt><trkpt lat="42.36891648174353" lon="2.632659647393379"><ele>749.0</ele><time>2026-04-22T08:11:06.999Z</time></trkpt><trkpt lat="42.368953999810884" lon="2.6323856309144524"><ele>747.0</ele><time>2026-04-22T08:11:07.999Z</time></trkpt><trkpt lat="42.36899033824322" lon="2.632118042200635"><ele>743.6666666666666</ele><time>2026-04-22T08:11:08.999Z</time></trkpt><trkpt lat="42.36902288958715" lon="2.631848388274519"><ele>740.3333333333333</ele><time>2026-04-22T08:11:09.999Z</time></trkpt><trkpt lat="42.369046461863206" lon="2.631582398206852"><ele>737.0</ele><time>2026-04-22T08:11:10.999Z</time></trkpt><trkpt lat="42.369051505820416" lon="2.631306845552807"><ele>735.6666666666666</ele><time>2026-04-22T08:11:11.999Z</time></trkpt><trkpt lat="42.369041228505196" lon="2.631021673831184"><ele>734.3333333333334</ele><time>2026-04-22T08:11:12.999Z</time></trkpt><trkpt lat="42.36901749909087" lon="2.6307379026195963"><ele>733.0</ele><time>2026-04-22T08:11:13.999Z</time></trkpt><trkpt lat="42.36899100432827" lon="2.630466721727903"><ele>733.0</ele><time>2026-04-22T08:11:14.999Z</time></trkpt><trkpt lat="42.36897515568185" lon="2.6302023395639877"><ele>733.0</ele><time>2026-04-22T08:11:15.999Z</time></trkpt><trkpt lat="42.36898427003513" lon="2.6299515301334755"><ele>733.0</ele><time>2026-04-22T08:11:16.999Z</time></trkpt><trkpt lat="42.36902083827178" lon="2.6296895848355577"><ele>731.3333333333334</ele><time>2026-04-22T08:11:17.999Z</time></trkpt><trkpt lat="42.36907193564243" lon="2.629415632266457"><ele>729.6666666666666</ele><time>2026-04-22T08:11:18.999Z</time></trkpt><trkpt lat="42.36910850685529" lon="2.6291331136268705"><ele>728.0</ele><time>2026-04-22T08:11:19.999Z</time></trkpt><trkpt lat="42.369133060448185" lon="2.628869935367041"><ele>726.6666666666666</ele><time>2026-04-22T08:11:20.999Z</time></trkpt><trkpt lat="42.36915909690474" lon="2.628627912729504"><ele>725.3333333333334</ele><time>2026-04-22T08:11:21.999Z</time></trkpt><trkpt lat="42.36919393388589" lon="2.6283920140204806"><ele>724.0</ele><time>2026-04-22T08:11:22.998Z</time></trkpt><trkpt lat="42.3691629406777" lon="2.6281401139935836"><ele>724.0</ele><time>2026-04-22T08:11:23.998Z</time></trkpt><trkpt lat="42.36912812498083" lon="2.6278735974275222"><ele>724.0</ele><time>2026-04-22T08:11:24.998Z</time></trkpt><trkpt lat="42.36910538116424" lon="2.627588636166501"><ele>724.0</ele><time>2026-04-22T08:11:25.998Z</time></trkpt><trkpt lat="42.369055885573076" lon="2.6273222139292844"><ele>723.3333333333334</ele><time>2026-04-22T08:11:26.998Z</time></trkpt><trkpt lat="42.369037361600704" lon="2.6270611753634006"><ele>722.6666666666666</ele><time>2026-04-22T08:11:27.998Z</time></trkpt><trkpt lat="42.36900591909856" lon="2.6268120381814533"><ele>722.0</ele><time>2026-04-22T08:11:28.998Z</time></trkpt><trkpt lat="42.36899288929234" lon="2.6265775100303688"><ele>721.0</ele><time>2026-04-22T08:11:29.998Z</time></trkpt><trkpt lat="42.369006962933646" lon="2.626340519391211"><ele>720.0</ele><time>2026-04-22T08:11:30.998Z</time></trkpt><trkpt lat="42.369030368856016" lon="2.6260909349312396"><ele>719.0</ele><time>2026-04-22T08:11:31.998Z</time></trkpt><trkpt lat="42.3690835569295" lon="2.62585971982609"><ele>717.3333333333333</ele><time>2026-04-22T08:11:32.998Z</time></trkpt><trkpt lat="42.36914128181317" lon="2.6256220028299806"><ele>715.6666666666666</ele><time>2026-04-22T08:11:33.998Z</time></trkpt><trkpt lat="42.36923413841277" lon="2.6253896331673197"><ele>714.0</ele><time>2026-04-22T08:11:34.998Z</time></trkpt><trkpt lat="42.369347204505004" lon="2.6251582126590125"><ele>713.0</ele><time>2026-04-22T08:11:35.998Z</time></trkpt><trkpt lat="42.369462768926795" lon="2.624915184211976"><ele>712.0</ele><time>2026-04-22T08:11:36.998Z</time></trkpt><trkpt lat="42.36958343491309" lon="2.6246618495265635"><ele>711.0</ele><time>2026-04-22T08:11:37.998Z</time></trkpt><trkpt lat="42.36970509605355" lon="2.624405299655805"><ele>711.0</ele><time>2026-04-22T08:11:38.998Z</time></trkpt><trkpt lat="42.369819451190594" lon="2.6241603520289245"><ele>711.0</ele><time>2026-04-22T08:11:39.998Z</time></trkpt><trkpt lat="42.36992025725522" lon="2.623943526221896"><ele>711.0</ele><time>2026-04-22T08:11:40.998Z</time></trkpt><trkpt lat="42.37000486954514" lon="2.6237619028694907"><ele>709.0</ele><time>2026-04-22T08:11:42Z</time></trkpt><trkpt lat="42.37008253946049" lon="2.6235967007958214"><ele>707.0</ele><time>2026-04-22T08:11:43Z</time></trkpt><trkpt lat="42.37015213439424" lon="2.62345267154806"><ele>705.0</ele><time>2026-04-22T08:11:44Z</time></trkpt><trkpt lat="42.37022580425296" lon="2.623321390118013"><ele>703.0</ele><time>2026-04-22T08:11:45Z</time></trkpt><trkpt lat="42.37032094299542" lon="2.6232197445750556"><ele>703.0</ele><time>2026-04-22T08:11:46Z</time></trkpt><trkpt lat="42.37044195453577" lon="2.623171528395053"><ele>703.0</ele><time>2026-04-22T08:11:47Z</time></trkpt><trkpt lat="42.37058788391258" lon="2.6231821233137653"><ele>703.0</ele><time>2026-04-22T08:11:48Z</time></trkpt><trkpt lat="42.37074158611523" lon="2.6232473999581054"><ele>703.0</ele><time>2026-04-22T08:11:49Z</time></trkpt><trkpt lat="42.37090035511658" lon="2.6233456229309606"><ele>703.0</ele><time>2026-04-22T08:11:50Z</time></trkpt><trkpt lat="42.37106564674251" lon="2.623438804269863"><ele>703.0</ele><time>2026-04-22T08:11:51Z</time></trkpt><trkpt lat="42.371231666902986" lon="2.6235073718328468"><ele>703.0</ele><time>2026-04-22T08:11:52Z</time></trkpt><trkpt lat="42.37138712856731" lon="2.623537727307008"><ele>702.75</ele><time>2026-04-22T08:11:53Z</time></trkpt><trkpt lat="42.371524906583666" lon="2.6235137798192927"><ele>702.5</ele><time>2026-04-22T08:11:54Z</time></trkpt><trkpt lat="42.371654921892926" lon="2.623441742314082"><ele>702.25</ele><time>2026-04-22T08:11:55Z</time></trkpt><trkpt lat="42.37178223854787" lon="2.623320814466161"><ele>702.0</ele><time>2026-04-22T08:11:56Z</time></trkpt><trkpt lat="42.37191536495568" lon="2.6231806673391826"><ele>702.0</ele><time>2026-04-22T08:11:57Z</time></trkpt><trkpt lat="42.37206494848196" lon="2.62305342419645"><ele>702.0</ele><time>2026-04-22T08:11:58Z</time></trkpt><trkpt lat="42.37222231485358" lon="2.6229329493955613"><ele>702.0</ele><time>2026-04-22T08:11:59Z</time></trkpt><trkpt lat="42.372356553394894" lon="2.622789133093776"><ele>700.0</ele><time>2026-04-22T08:12:00Z</time></trkpt><trkpt lat="42.372489764435535" lon="2.622656168445069"><ele>698.0</ele><time>2026-04-22T08:12:01Z</time></trkpt><trkpt lat="42.37263756526347" lon="2.6226049865077266"><ele>696.0</ele><time>2026-04-22T08:12:02Z</time></trkpt><trkpt lat="42.37276771028942" lon="2.6225777176235394"><ele>696.0</ele><time>2026-04-22T08:12:03Z</time></trkpt><trkpt lat="42.37288879541119" lon="2.6226323944640333"><ele>696.0</ele><time>2026-04-22T08:12:04Z</time></trkpt><trkpt lat="42.3730171855053" lon="2.622701784154031"><ele>696.0</ele><time>2026-04-22T08:12:05Z</time></trkpt><trkpt lat="42.37314734237465" lon="2.6227969008609486"><ele>696.0</ele><time>2026-04-22T08:12:06Z</time></trkpt><trkpt lat="42.37328830221319" lon="2.6228878229397568"><ele>697.25</ele><time>2026-04-22T08:12:07Z</time></trkpt><trkpt lat="42.3734401621397" lon="2.622926122840894"><ele>698.5</ele><time>2026-04-22T08:12:08Z</time></trkpt><trkpt lat="42.37358044090904" lon="2.622949011984424"><ele>699.75</ele><time>2026-04-22T08:12:09Z</time></trkpt><trkpt lat="42.373716927100816" lon="2.6229133648374643"><ele>701.0</ele><time>2026-04-22T08:12:10Z</time></trkpt><trkpt lat="42.37384009108805" lon="2.622909911363274"><ele>703.0</ele><time>2026-04-22T08:12:11Z</time></trkpt><trkpt lat="42.37395401693035" lon="2.622837669694852"><ele>705.0</ele><time>2026-04-22T08:12:12Z</time></trkpt><trkpt lat="42.374043396831425" lon="2.622694185057454"><ele>707.0</ele><time>2026-04-22T08:12:13Z</time></trkpt><trkpt lat="42.3741287605675" lon="2.622547869933775"><ele>709.0</ele><time>2026-04-22T08:12:14Z</time></trkpt><trkpt lat="42.37422741846917" lon="2.622432494178259"><ele>704.75</ele><time>2026-04-22T08:12:15Z</time></trkpt><trkpt lat="42.374307603274374" lon="2.6223092553537626"><ele>700.5</ele><time>2026-04-22T08:12:16Z</time></trkpt><trkpt lat="42.37438848775685" lon="2.622188573616009"><ele>696.25</ele><time>2026-04-22T08:12:17Z</time></trkpt><trkpt lat="42.37446649343971" lon="2.622057788506213"><ele>692.0</ele><time>2026-04-22T08:12:18Z</time></trkpt><trkpt lat="42.37454152841781" lon="2.6219141282401157"><ele>692.0</ele><time>2026-04-22T08:12:19Z</time></trkpt><trkpt lat="42.37461000078276" lon="2.621758951678845"><ele>692.0</ele><time>2026-04-22T08:12:20Z</time></trkpt><trkpt lat="42.374667075078044" lon="2.6215992868246674"><ele>692.0</ele><time>2026-04-22T08:12:21Z</time></trkpt><trkpt lat="42.37472673789596" lon="2.6214330012351117"><ele>692.0</ele><time>2026-04-22T08:12:22Z</time></trkpt><trkpt lat="42.3747815330626" lon="2.621264408054051"><ele>690.25</ele><time>2026-04-22T08:12:22.999Z</time></trkpt><trkpt lat="42.37484234516226" lon="2.621103086391719"><ele>688.5</ele><time>2026-04-22T08:12:23.999Z</time></trkpt><trkpt lat="42.37489287846857" lon="2.6209428499193037"><ele>686.75</ele><time>2026-04-22T08:12:24.999Z</time></trkpt><trkpt lat="42.3749431826991" lon="2.6207873450109918"><ele>685.0</ele><time>2026-04-22T08:12:25.999Z</time></trkpt><trkpt lat="42.37498825302465" lon="2.6206359551492246"><ele>685.0</ele><time>2026-04-22T08:12:26.999Z</time></trkpt><trkpt lat="42.37503387663982" lon="2.6204911855384623"><ele>685.0</ele><time>2026-04-22T08:12:27.999Z</time></trkpt><trkpt lat="42.37508655881908" lon="2.6203568295672004"><ele>685.0</ele><time>2026-04-22T08:12:28.999Z</time></trkpt><trkpt lat="42.37516216423798" lon="2.6202525734764843"><ele>685.0</ele><time>2026-04-22T08:12:29.999Z</time></trkpt><trkpt lat="42.37526249465126" lon="2.6202249584919697"><ele>685.0</ele><time>2026-04-22T08:12:30.999Z</time></trkpt><trkpt lat="42.37535717872311" lon="2.6202323686893303"><ele>683.8</ele><time>2026-04-22T08:12:31.999Z</time></trkpt><trkpt lat="42.375457958929516" lon="2.6202077770530945"><ele>682.6</ele><time>2026-04-22T08:12:32.999Z</time></trkpt><trkpt lat="42.3755530016016" lon="2.620190037832743"><ele>681.4000000000001</ele><time>2026-04-22T08:12:33.999Z</time></trkpt><trkpt lat="42.375641481291964" lon="2.620150548490027"><ele>680.2</ele><time>2026-04-22T08:12:34.999Z</time></trkpt><trkpt lat="42.375724391103944" lon="2.6200827107145117"><ele>679.0</ele><time>2026-04-22T08:12:35.999Z</time></trkpt><trkpt lat="42.375807964493745" lon="2.6200341531496822"><ele>679.0</ele><time>2026-04-22T08:12:36.999Z</time></trkpt><trkpt lat="42.37588380369624" lon="2.6199671063490695"><ele>679.0</ele><time>2026-04-22T08:12:37.999Z</time></trkpt><trkpt lat="42.37597434226061" lon="2.6198953519828647"><ele>679.0</ele><time>2026-04-22T08:12:38.999Z</time></trkpt><trkpt lat="42.37606930038494" lon="2.6198113168120356"><ele>679.0</ele><time>2026-04-22T08:12:39.999Z</time></trkpt><trkpt lat="42.37618631948368" lon="2.619773384458223"><ele>679.0</ele><time>2026-04-22T08:12:40.999Z</time></trkpt><trkpt lat="42.37631921312879" lon="2.6197957030492787"><ele>678.25</ele><time>2026-04-22T08:12:41.999Z</time></trkpt><trkpt lat="42.37644772066575" lon="2.6197837945885825"><ele>677.5</ele><time>2026-04-22T08:12:42.999Z</time></trkpt><trkpt lat="42.37657917878887" lon="2.6197831982862567"><ele>676.75</ele><time>2026-04-22T08:12:43.999Z</time></trkpt><trkpt lat="42.376706443410455" lon="2.619767269076923"><ele>676.0</ele><time>2026-04-22T08:12:44.999Z</time></trkpt><trkpt lat="42.376831186653526" lon="2.6197683072673144"><ele>676.0</ele><time>2026-04-22T08:12:45.999Z</time></trkpt><trkpt lat="42.376952382270964" lon="2.6197345220110653"><ele>676.0</ele><time>2026-04-22T08:12:46.999Z</time></trkpt><trkpt lat="42.37706864715725" lon="2.6196993804800237"><ele>676.0</ele><time>2026-04-22T08:12:47.999Z</time></trkpt><trkpt lat="42.377176131390094" lon="2.6196668474034968"><ele>676.0</ele><time>2026-04-22T08:12:48.999Z</time></trkpt><trkpt lat="42.377261365323456" lon="2.6196242670277448"><ele>676.0</ele><time>2026-04-22T08:12:49.999Z</time></trkpt><trkpt lat="42.37733827942337" lon="2.619602330218252"><ele>674.6666666666667</ele><time>2026-04-22T08:12:50.999Z</time></trkpt><trkpt lat="42.37740933914604" lon="2.6195823259521935"><ele>673.3333333333334</ele><time>2026-04-22T08:12:51.999Z</time></trkpt><trkpt lat="42.37748075249083" lon="2.6195729177519813"><ele>672.0</ele><time>2026-04-22T08:12:52.999Z</time></trkpt><trkpt lat="42.377555371487496" lon="2.61957945671311"><ele>670.6666666666666</ele><time>2026-04-22T08:12:53.999Z</time></trkpt><trkpt lat="42.37764067293737" lon="2.6195943156768524"><ele>669.3333333333333</ele><time>2026-04-22T08:12:54.999Z</time></trkpt><trkpt lat="42.37773703649065" lon="2.619609898435645"><ele>668.0</ele><time>2026-04-22T08:12:55.999Z</time></trkpt><trkpt lat="42.37784544877092" lon="2.619620611994339"><ele>668.0</ele><time>2026-04-22T08:12:56.999Z</time></trkpt><trkpt lat="42.37796753407594" lon="2.61961527052888"><ele>668.0</ele><time>2026-04-22T08:12:57.999Z</time></trkpt><trkpt lat="42.37808255427547" lon="2.619588087367429"><ele>668.0</ele><time>2026-04-22T08:12:58.999Z</time></trkpt><trkpt lat="42.37817897846594" lon="2.619557908010953"><ele>668.0</ele><time>2026-04-22T08:12:59.999Z</time></trkpt><trkpt lat="42.3782565649247" lon="2.6195328094796553"><ele>668.0</ele><time>2026-04-22T08:13:00.999Z</time></trkpt><trkpt lat="42.37833351168082" lon="2.6195048572728106"><ele>668.8333333333333</ele><time>2026-04-22T08:13:01.999Z</time></trkpt><trkpt lat="42.37841661994675" lon="2.6194766388430253"><ele>669.6666666666666</ele><time>2026-04-22T08:13:02.999Z</time></trkpt><trkpt lat="42.37849323764244" lon="2.619451419200461"><ele>670.5</ele><time>2026-04-22T08:13:03.999Z</time></trkpt><trkpt lat="42.378582113701405" lon="2.6194146606180255"><ele>671.3333333333334</ele><time>2026-04-22T08:13:04.999Z</time></trkpt><trkpt lat="42.37866623239862" lon="2.619386345940149"><ele>672.1666666666667</ele><time>2026-04-22T08:13:05.999Z</time></trkpt><trkpt lat="42.3787469203683" lon="2.6193585290605967"><ele>673.0</ele><time>2026-04-22T08:13:06.999Z</time></trkpt><trkpt lat="42.37882533520871" lon="2.6193269305373574"><ele>672.1666666666667</ele><time>2026-04-22T08:13:07.999Z</time></trkpt><trkpt lat="42.37890033037209" lon="2.6192941325604093"><ele>671.3333333333334</ele><time>2026-04-22T08:13:08.999Z</time></trkpt><trkpt lat="42.37896930136308" lon="2.619263533372373"><ele>670.5</ele><time>2026-04-22T08:13:09.999Z</time></trkpt><trkpt lat="42.379042666178854" lon="2.6192244222725773"><ele>669.6666666666666</ele><time>2026-04-22T08:13:10.999Z</time></trkpt><trkpt lat="42.37912477700478" lon="2.6191949827455443"><ele>668.8333333333333</ele><time>2026-04-22T08:13:11.999Z</time></trkpt><trkpt lat="42.37920256270802" lon="2.6191202534614595"><ele>668.0</ele><time>2026-04-22T08:13:12.999Z</time></trkpt><trkpt lat="42.37927680221784" lon="2.6190182070330854"><ele>668.0</ele><time>2026-04-22T08:13:13.999Z</time></trkpt><trkpt lat="42.3793347976093" lon="2.618893626172633"><ele>668.0</ele><time>2026-04-22T08:13:14.999Z</time></trkpt><trkpt lat="42.379399635553206" lon="2.6187849255285855"><ele>668.0</ele><time>2026-04-22T08:13:15.999Z</time></trkpt><trkpt lat="42.37947063507616" lon="2.6186857238920456"><ele>668.0</ele><time>2026-04-22T08:13:16.999Z</time></trkpt><trkpt lat="42.37953432786369" lon="2.6185815137662014"><ele>668.0</ele><time>2026-04-22T08:13:17.999Z</time></trkpt><trkpt lat="42.37959493970228" lon="2.618488275216023"><ele>667.0</ele><time>2026-04-22T08:13:18.999Z</time></trkpt><trkpt lat="42.37965064649643" lon="2.6184009079952433"><ele>666.0</ele><time>2026-04-22T08:13:19.999Z</time></trkpt><trkpt lat="42.37972027533567" lon="2.618346677725967"><ele>665.0</ele><time>2026-04-22T08:13:20.999Z</time></trkpt><trkpt lat="42.37980810796164" lon="2.618360459484381"><ele>664.0</ele><time>2026-04-22T08:13:21.999Z</time></trkpt><trkpt lat="42.379903982842876" lon="2.61836533523712"><ele>663.0</ele><time>2026-04-22T08:13:22.999Z</time></trkpt><trkpt lat="42.38000406202152" lon="2.618355798379011"><ele>663.0</ele><time>2026-04-22T08:13:23.999Z</time></trkpt><trkpt lat="42.3800962727854" lon="2.6183455270477842"><ele>663.0</ele><time>2026-04-22T08:13:24.999Z</time></trkpt><trkpt lat="42.38018543855123" lon="2.618311128949197"><ele>663.0</ele><time>2026-04-22T08:13:25.999Z</time></trkpt><trkpt lat="42.38027714426526" lon="2.6182617501314587"><ele>663.0</ele><time>2026-04-22T08:13:26.999Z</time></trkpt><trkpt lat="42.38037336371914" lon="2.618193562579815"><ele>663.0</ele><time>2026-04-22T08:13:27.999Z</time></trkpt><trkpt lat="42.38045076709536" lon="2.618112944249928"><ele>662.8333333333334</ele><time>2026-04-22T08:13:28.999Z</time></trkpt><trkpt lat="42.380526651313104" lon="2.618015269918108"><ele>662.6666666666666</ele><time>2026-04-22T08:13:29.998Z</time></trkpt><trkpt lat="42.380601601680674" lon="2.6179264510017024"><ele>662.5</ele><time>2026-04-22T08:13:30.998Z</time></trkpt><trkpt lat="42.380663786123236" lon="2.617847251149305"><ele>662.3333333333333</ele><time>2026-04-22T08:13:31.998Z</time></trkpt><trkpt lat="42.3807217161691" lon="2.6177723686228584"><ele>662.1666666666666</ele><time>2026-04-22T08:13:32.998Z</time></trkpt><trkpt lat="42.38077324436817" lon="2.6176984682724216"><ele>662.0</ele><time>2026-04-22T08:13:33.998Z</time></trkpt><trkpt lat="42.38082211259143" lon="2.617625421860771"><ele>662.0</ele><time>2026-04-22T08:13:34.998Z</time></trkpt><trkpt lat="42.38087812411558" lon="2.617545687570826"><ele>662.0</ele><time>2026-04-22T08:13:35.998Z</time></trkpt><trkpt lat="42.38094135968404" lon="2.617454015630496"><ele>662.0</ele><time>2026-04-22T08:13:36.998Z</time></trkpt><trkpt lat="42.38101392518292" lon="2.61735128101561"><ele>662.0</ele><time>2026-04-22T08:13:37.998Z</time></trkpt><trkpt lat="42.38108575985259" lon="2.617251074675416"><ele>662.0</ele><time>2026-04-22T08:13:38.998Z</time></trkpt><trkpt lat="42.38115367342664" lon="2.6171555227521965"><ele>662.0</ele><time>2026-04-22T08:13:39.998Z</time></trkpt><trkpt lat="42.3812330087959" lon="2.617048204574754"><ele>662.0</ele><time>2026-04-22T08:13:40.998Z</time></trkpt><trkpt lat="42.38130495498037" lon="2.616945113751558"><ele>662.0</ele><time>2026-04-22T08:13:41.998Z</time></trkpt><trkpt lat="42.381374083695356" lon="2.6168548868759585"><ele>662.0</ele><time>2026-04-22T08:13:42.998Z</time></trkpt><trkpt lat="42.38144258705487" lon="2.6167745558421815"><ele>662.0</ele><time>2026-04-22T08:13:43.998Z</time></trkpt><trkpt lat="42.381504248117416" lon="2.616696550440181"><ele>662.5</ele><time>2026-04-22T08:13:44.998Z</time></trkpt><trkpt lat="42.3815574712663" lon="2.616629303509718"><ele>663.0</ele><time>2026-04-22T08:13:45.998Z</time></trkpt><trkpt lat="42.381607802232836" lon="2.6165632265154293"><ele>663.5</ele><time>2026-04-22T08:13:46.998Z</time></trkpt><trkpt lat="42.381686214640816" lon="2.61644861642661"><ele>664.0</ele><time>2026-04-22T08:13:49Z</time></trkpt><trkpt lat="42.38174290348419" lon="2.6163840281192363"><ele>664.5</ele><time>2026-04-22T08:13:52Z</time></trkpt><trkpt lat="42.38182193548394" lon="2.6162698022142035"><ele>665.0</ele><time>2026-04-22T08:14:05Z</time></trkpt><trkpt lat="42.38188396081835" lon="2.6161869176670844"><ele>665.4285714285714</ele><time>2026-04-22T08:14:07Z</time></trkpt><trkpt lat="42.38195742744793" lon="2.6160778986220388"><ele>665.8571428571429</ele><time>2026-04-22T08:14:09Z</time></trkpt><trkpt lat="42.382001492409664" lon="2.616014365654684"><ele>666.2857142857142</ele><time>2026-04-22T08:14:10Z</time></trkpt><trkpt lat="42.38204783211912" lon="2.6159484684800103"><ele>666.7142857142858</ele><time>2026-04-22T08:14:11Z</time></trkpt><trkpt lat="42.38209258619522" lon="2.615886276109537"><ele>667.1428571428571</ele><time>2026-04-22T08:14:12Z</time></trkpt><trkpt lat="42.382136236543836" lon="2.6158171661056753"><ele>667.5714285714286</ele><time>2026-04-22T08:14:13Z</time></trkpt><trkpt lat="42.382173952097496" lon="2.6157446563279265"><ele>668.0</ele><time>2026-04-22T08:14:14Z</time></trkpt><trkpt lat="42.38221748637968" lon="2.6156696692490695"><ele>668.0</ele><time>2026-04-22T08:14:15Z</time></trkpt><trkpt lat="42.38224483189499" lon="2.6155794433491177"><ele>668.0</ele><time>2026-04-22T08:14:16Z</time></trkpt><trkpt lat="42.38226177746049" lon="2.615489826923376"><ele>668.0</ele><time>2026-04-22T08:14:17Z</time></trkpt><trkpt lat="42.38226877258119" lon="2.615398767954015"><ele>668.0</ele><time>2026-04-22T08:14:18Z</time></trkpt><trkpt lat="42.3822816025165" lon="2.6153106060400653"><ele>668.0</ele><time>2026-04-22T08:14:19Z</time></trkpt><trkpt lat="42.38229719063044" lon="2.6152274914773463"><ele>668.0</ele><time>2026-04-22T08:14:20Z</time></trkpt><trkpt lat="42.38233842527749" lon="2.61507574599211"><ele>667.3333333333333</ele><time>2026-04-22T08:14:22Z</time></trkpt><trkpt lat="42.382375489075365" lon="2.6149130356938017"><ele>666.6666666666666</ele><time>2026-04-22T08:14:24Z</time></trkpt><trkpt lat="42.382432082401365" lon="2.614851463631864"><ele>666.0</ele><time>2026-04-22T08:14:25Z</time></trkpt><trkpt lat="42.38246207117889" lon="2.6147514209480147"><ele>665.3333333333334</ele><time>2026-04-22T08:14:26Z</time></trkpt><trkpt lat="42.3825043870423" lon="2.6146711026806577"><ele>664.6666666666667</ele><time>2026-04-22T08:14:27Z</time></trkpt><trkpt lat="42.38255245431952" lon="2.6145796983180847"><ele>664.0</ele><time>2026-04-22T08:14:28Z</time></trkpt><trkpt lat="42.38260931670275" lon="2.614521959950157"><ele>664.0</ele><time>2026-04-22T08:14:29Z</time></trkpt><trkpt lat="42.38267153267581" lon="2.614483848084988"><ele>664.0</ele><time>2026-04-22T08:14:29.999Z</time></trkpt><trkpt lat="42.382740985148736" lon="2.614471334160541"><ele>664.0</ele><time>2026-04-22T08:14:30.999Z</time></trkpt><trkpt lat="42.38281167361219" lon="2.614496329525912"><ele>664.0</ele><time>2026-04-22T08:14:31.999Z</time></trkpt><trkpt lat="42.38289251002705" lon="2.6146197830128277"><ele>664.0</ele><time>2026-04-22T08:14:33.999Z</time></trkpt><trkpt lat="42.38291532867702" lon="2.6147042519391084"><ele>664.0</ele><time>2026-04-22T08:14:34.999Z</time></trkpt><trkpt lat="42.3829423356381" lon="2.614866623305084"><ele>664.0</ele><time>2026-04-22T08:14:36.999Z</time></trkpt><trkpt lat="42.382973127606526" lon="2.6149452713844403"><ele>664.0</ele><time>2026-04-22T08:14:37.999Z</time></trkpt><trkpt lat="42.383023404063735" lon="2.6150206175356274"><ele>664.0</ele><time>2026-04-22T08:14:38.999Z</time></trkpt><trkpt lat="42.383089120227204" lon="2.6150723442851302"><ele>664.0</ele><time>2026-04-22T08:14:39.999Z</time></trkpt><trkpt lat="42.38315655666777" lon="2.615089542999652"><ele>664.0</ele><time>2026-04-22T08:14:40.999Z</time></trkpt><trkpt lat="42.38323322192667" lon="2.615096544230437"><ele>664.0</ele><time>2026-04-22T08:14:41.999Z</time></trkpt><trkpt lat="42.38330423369653" lon="2.615107587370099"><ele>664.0</ele><time>2026-04-22T08:14:42.999Z</time></trkpt><trkpt lat="42.38337421747846" lon="2.6151157992513268"><ele>663.5</ele><time>2026-04-22T08:14:43.999Z</time></trkpt><trkpt lat="42.3834993189484" lon="2.6151158086498527"><ele>663.0</ele><time>2026-04-22T08:14:45.999Z</time></trkpt><trkpt lat="42.38361034829359" lon="2.6151048099435563"><ele>662.5</ele><time>2026-04-22T08:14:47.999Z</time></trkpt><trkpt lat="42.383672370532956" lon="2.615084729260901"><ele>662.0</ele><time>2026-04-22T08:14:48.999Z</time></trkpt><trkpt lat="42.38373872073236" lon="2.615048671672642"><ele>661.5</ele><time>2026-04-22T08:14:49.999Z</time></trkpt><trkpt lat="42.38380188912252" lon="2.614994050817934"><ele>661.0</ele><time>2026-04-22T08:14:50.999Z</time></trkpt><trkpt lat="42.38385249072589" lon="2.61493860343984"><ele>661.0</ele><time>2026-04-22T08:14:51.999Z</time></trkpt><trkpt lat="42.383893936339284" lon="2.614863783578258"><ele>661.0</ele><time>2026-04-22T08:14:54.999Z</time></trkpt><trkpt lat="42.3839403269611" lon="2.614777946961821"><ele>661.0</ele><time>2026-04-22T08:14:56.999Z</time></trkpt><trkpt lat="42.38396710232319" lon="2.61468225749496"><ele>661.0</ele><time>2026-04-22T08:14:57.999Z</time></trkpt><trkpt lat="42.383990943797464" lon="2.6145644077566015"><ele>661.0</ele><time>2026-04-22T08:14:58.999Z</time></trkpt><trkpt lat="42.38399555283264" lon="2.6144296305458186"><ele>661.0</ele><time>2026-04-22T08:14:59.999Z</time></trkpt><trkpt lat="42.383965699616795" lon="2.614266942415748"><ele>662.1999999999999</ele><time>2026-04-22T08:15:00.999Z</time></trkpt><trkpt lat="42.38394029608293" lon="2.6141409845733654"><ele>663.4</ele><time>2026-04-22T08:15:01.999Z</time></trkpt><trkpt lat="42.38391585181571" lon="2.614007703271157"><ele>664.6</ele><time>2026-04-22T08:15:02.999Z</time></trkpt><trkpt lat="42.38388711437829" lon="2.613857233570248"><ele>665.8</ele><time>2026-04-22T08:15:03.999Z</time></trkpt><trkpt lat="42.38386457069655" lon="2.613710190378497"><ele>667.0</ele><time>2026-04-22T08:15:04.999Z</time></trkpt><trkpt lat="42.38384951446817" lon="2.613587036943214"><ele>668.5714285714287</ele><time>2026-04-22T08:15:05.999Z</time></trkpt><trkpt lat="42.38384640336032" lon="2.613468609539116"><ele>670.1428571428571</ele><time>2026-04-22T08:15:06.999Z</time></trkpt><trkpt lat="42.38384869820181" lon="2.6133745377061346"><ele>671.7142857142858</ele><time>2026-04-22T08:15:07.999Z</time></trkpt><trkpt lat="42.383851903531074" lon="2.613283186148085"><ele>673.2857142857143</ele><time>2026-04-22T08:15:08.999Z</time></trkpt><trkpt lat="42.38385790208392" lon="2.613189850448616"><ele>674.8571428571429</ele><time>2026-04-22T08:15:09.999Z</time></trkpt><trkpt lat="42.383864283291366" lon="2.613103642287442"><ele>676.4285714285714</ele><time>2026-04-22T08:15:10.999Z</time></trkpt><trkpt lat="42.38387721236302" lon="2.613003186141818"><ele>678.0</ele><time>2026-04-22T08:15:11.999Z</time></trkpt><trkpt lat="42.383900001931856" lon="2.612897644604378"><ele>677.0</ele><time>2026-04-22T08:15:12.999Z</time></trkpt><trkpt lat="42.383928381089206" lon="2.612786916071753"><ele>676.0</ele><time>2026-04-22T08:15:13.999Z</time></trkpt><trkpt lat="42.38393426873787" lon="2.612673440027971"><ele>675.0</ele><time>2026-04-22T08:15:14.999Z</time></trkpt><trkpt lat="42.38395902750843" lon="2.612583074602395"><ele>674.0</ele><time>2026-04-22T08:15:15.999Z</time></trkpt><trkpt lat="42.38398033656255" lon="2.6124830352413966"><ele>673.0</ele><time>2026-04-22T08:15:16.999Z</time></trkpt><trkpt lat="42.3840063186171" lon="2.612379793371881"><ele>672.0</ele><time>2026-04-22T08:15:17.999Z</time></trkpt><trkpt lat="42.38405695190997" lon="2.612295706787749"><ele>672.0</ele><time>2026-04-22T08:15:18.999Z</time></trkpt><trkpt lat="42.38408383820542" lon="2.612199191892275"><ele>672.0</ele><time>2026-04-22T08:15:19.999Z</time></trkpt><trkpt lat="42.384111997732525" lon="2.6121039806970385"><ele>672.0</ele><time>2026-04-22T08:15:20.999Z</time></trkpt><trkpt lat="42.38413774042805" lon="2.6120098361592654"><ele>672.0</ele><time>2026-04-22T08:15:21.999Z</time></trkpt><trkpt lat="42.384198608024604" lon="2.611958567559374"><ele>672.0</ele><time>2026-04-22T08:15:22.999Z</time></trkpt><trkpt lat="42.38426303562108" lon="2.611902350889211"><ele>672.0</ele><time>2026-04-22T08:15:23.999Z</time></trkpt><trkpt lat="42.38437018213295" lon="2.6117963481452535"><ele>671.8333333333334</ele><time>2026-04-22T08:15:25.999Z</time></trkpt><trkpt lat="42.38443020799095" lon="2.6117369629982097"><ele>671.6666666666666</ele><time>2026-04-22T08:15:26.999Z</time></trkpt><trkpt lat="42.38449237950617" lon="2.611677772394678"><ele>671.5</ele><time>2026-04-22T08:15:27.999Z</time></trkpt><trkpt lat="42.384554953652724" lon="2.611619979835018"><ele>671.3333333333333</ele><time>2026-04-22T08:15:28.999Z</time></trkpt><trkpt lat="42.38461867442495" lon="2.6115401117730523"><ele>671.1666666666666</ele><time>2026-04-22T08:15:29.999Z</time></trkpt><trkpt lat="42.38468725214808" lon="2.611504689744634"><ele>671.0</ele><time>2026-04-22T08:15:30.999Z</time></trkpt><trkpt lat="42.38476821178639" lon="2.6114998118587223"><ele>671.0</ele><time>2026-04-22T08:15:31.999Z</time></trkpt><trkpt lat="42.38483853409812" lon="2.6115129737055147"><ele>671.0</ele><time>2026-04-22T08:15:32.999Z</time></trkpt><trkpt lat="42.38491029121546" lon="2.611543635595124"><ele>671.0</ele><time>2026-04-22T08:15:33.999Z</time></trkpt><trkpt lat="42.384968364795526" lon="2.611600258581842"><ele>671.0</ele><time>2026-04-22T08:15:34.999Z</time></trkpt><trkpt lat="42.38500464093721" lon="2.611678548966609"><ele>671.0</ele><time>2026-04-22T08:15:35.999Z</time></trkpt><trkpt lat="42.38498324294294" lon="2.6117693706695984"><ele>671.0</ele><time>2026-04-22T08:15:36.999Z</time></trkpt><trkpt lat="42.38507912258017" lon="2.611828968420808"><ele>671.0</ele><time>2026-04-22T08:15:37.999Z</time></trkpt><trkpt lat="42.38515022972443" lon="2.6118686676299006"><ele>671.0</ele><time>2026-04-22T08:15:38.999Z</time></trkpt><trkpt lat="42.38520151027512" lon="2.6119355334436603"><ele>671.0</ele><time>2026-04-22T08:15:39.998Z</time></trkpt><trkpt lat="42.385254773901025" lon="2.611992930174129"><ele>671.0</ele><time>2026-04-22T08:15:40.998Z</time></trkpt><trkpt lat="42.38531259901241" lon="2.6120546746774003"><ele>671.0</ele><time>2026-04-22T08:15:41.998Z</time></trkpt><trkpt lat="42.38537579629174" lon="2.6121042816640556"><ele>671.0</ele><time>2026-04-22T08:15:42.998Z</time></trkpt><trkpt lat="42.38544876612321" lon="2.6121419645293678"><ele>671.0</ele><time>2026-04-22T08:15:43.998Z</time></trkpt><trkpt lat="42.38551614966219" lon="2.6121719813543125"><ele>672.7142857142857</ele><time>2026-04-22T08:15:44.998Z</time></trkpt><trkpt lat="42.385586472737884" lon="2.6121428275455196"><ele>674.4285714285714</ele><time>2026-04-22T08:15:45.998Z</time></trkpt><trkpt lat="42.38565788393146" lon="2.6121250896866224"><ele>676.1428571428571</ele><time>2026-04-22T08:15:46.998Z</time></trkpt><trkpt lat="42.38572909450834" lon="2.6121047566083084"><ele>677.8571428571429</ele><time>2026-04-22T08:15:47.998Z</time></trkpt><trkpt lat="42.38579185097847" lon="2.6120870728718733"><ele>679.5714285714286</ele><time>2026-04-22T08:15:48.998Z</time></trkpt><trkpt lat="42.385858891849075" lon="2.612073085440886"><ele>681.2857142857143</ele><time>2026-04-22T08:15:49.998Z</time></trkpt><trkpt lat="42.38592335872112" lon="2.61205037698923"><ele>683.0</ele><time>2026-04-22T08:15:50.998Z</time></trkpt><trkpt lat="42.385988829117395" lon="2.6120379142127743"><ele>683.0</ele><time>2026-04-22T08:15:51.998Z</time></trkpt><trkpt lat="42.38605622836736" lon="2.6120177019235067"><ele>683.0</ele><time>2026-04-22T08:15:52.998Z</time></trkpt><trkpt lat="42.386155069478974" lon="2.6119971799481467"><ele>683.0</ele><time>2026-04-22T08:15:54Z</time></trkpt><trkpt lat="42.386243260541576" lon="2.611966959421934"><ele>683.0</ele><time>2026-04-22T08:15:55Z</time></trkpt><trkpt lat="42.3863328765529" lon="2.611931477442761"><ele>683.0</ele><time>2026-04-22T08:15:56Z</time></trkpt><trkpt lat="42.38642536626089" lon="2.6118899926091994"><ele>681.5999999999999</ele><time>2026-04-22T08:15:57Z</time></trkpt><trkpt lat="42.38652149115784" lon="2.6118557506757205"><ele>680.1999999999999</ele><time>2026-04-22T08:15:58Z</time></trkpt><trkpt lat="42.386619145314434" lon="2.6118190859058794"><ele>678.8</ele><time>2026-04-22T08:15:59Z</time></trkpt><trkpt lat="42.386711841682036" lon="2.6117821903437637"><ele>677.4</ele><time>2026-04-22T08:16:00Z</time></trkpt><trkpt lat="42.38679737061708" lon="2.6117506455131436"><ele>676.0</ele><time>2026-04-22T08:16:01Z</time></trkpt><trkpt lat="42.38688360643599" lon="2.611729725807834"><ele>676.0</ele><time>2026-04-22T08:16:02Z</time></trkpt><trkpt lat="42.38695157631785" lon="2.6116283584064153"><ele>676.0</ele><time>2026-04-22T08:16:03Z</time></trkpt><trkpt lat="42.38700893653776" lon="2.611513697210387"><ele>676.0</ele><time>2026-04-22T08:16:04Z</time></trkpt><trkpt lat="42.38705528583246" lon="2.6114010400886922"><ele>676.0</ele><time>2026-04-22T08:16:05Z</time></trkpt><trkpt lat="42.38710229268759" lon="2.611310026877128"><ele>676.0</ele><time>2026-04-22T08:16:06Z</time></trkpt><trkpt lat="42.38716131442642" lon="2.6112123153949605"><ele>676.0</ele><time>2026-04-22T08:16:07Z</time></trkpt><trkpt lat="42.38723461645345" lon="2.6111262476809545"><ele>676.0</ele><time>2026-04-22T08:16:08Z</time></trkpt><trkpt lat="42.3873130696823" lon="2.6110514493261623"><ele>676.0</ele><time>2026-04-22T08:16:09Z</time></trkpt><trkpt lat="42.387391558791826" lon="2.6109696574716605"><ele>676.0</ele><time>2026-04-22T08:16:10Z</time></trkpt><trkpt lat="42.387469357950145" lon="2.610898809413217"><ele>676.0</ele><time>2026-04-22T08:16:11Z</time></trkpt><trkpt lat="42.38754518983378" lon="2.6108262114916343"><ele>676.0</ele><time>2026-04-22T08:16:12Z</time></trkpt><trkpt lat="42.38763200936337" lon="2.610783819042088"><ele>676.0</ele><time>2026-04-22T08:16:13Z</time></trkpt><trkpt lat="42.387712870604844" lon="2.6107346039349557"><ele>676.0</ele><time>2026-04-22T08:16:14Z</time></trkpt><trkpt lat="42.38779896874452" lon="2.610711412672082"><ele>676.0</ele><time>2026-04-22T08:16:15Z</time></trkpt><trkpt lat="42.38788760227973" lon="2.6106872947323447"><ele>676.0</ele><time>2026-04-22T08:16:16Z</time></trkpt><trkpt lat="42.38799018816341" lon="2.610636672175887"><ele>674.8</ele><time>2026-04-22T08:16:17Z</time></trkpt><trkpt lat="42.38808252176856" lon="2.6105762390699754"><ele>673.5999999999999</ele><time>2026-04-22T08:16:18Z</time></trkpt><trkpt lat="42.38815854898021" lon="2.6104736529066774"><ele>672.4</ele><time>2026-04-22T08:16:19Z</time></trkpt><trkpt lat="42.38822374355591" lon="2.6103488360117653"><ele>671.2</ele><time>2026-04-22T08:16:20Z</time></trkpt><trkpt lat="42.388264319599436" lon="2.610219551885042"><ele>670.0</ele><time>2026-04-22T08:16:21Z</time></trkpt><trkpt lat="42.38830808399119" lon="2.610095633062428"><ele>670.0</ele><time>2026-04-22T08:16:22Z</time></trkpt><trkpt lat="42.38837914815004" lon="2.61000415637137"><ele>670.0</ele><time>2026-04-22T08:16:23Z</time></trkpt><trkpt lat="42.388442146031586" lon="2.609902017305989"><ele>670.0</ele><time>2026-04-22T08:16:24Z</time></trkpt><trkpt lat="42.38854743307456" lon="2.6098506416083893"><ele>670.0</ele><time>2026-04-22T08:16:25Z</time></trkpt><trkpt lat="42.388650177183806" lon="2.6097924307633065"><ele>670.0</ele><time>2026-04-22T08:16:26Z</time></trkpt><trkpt lat="42.38874367826025" lon="2.6097256545295093"><ele>670.0</ele><time>2026-04-22T08:16:27Z</time></trkpt><trkpt lat="42.38882756000258" lon="2.6096794772657588"><ele>670.0</ele><time>2026-04-22T08:16:28Z</time></trkpt><trkpt lat="42.38888987709753" lon="2.6095539041398372"><ele>670.0</ele><time>2026-04-22T08:16:29Z</time></trkpt><trkpt lat="42.38892019597758" lon="2.6094317880807774"><ele>670.0</ele><time>2026-04-22T08:16:30Z</time></trkpt><trkpt lat="42.38891158384035" lon="2.609255533869859"><ele>670.0</ele><time>2026-04-22T08:16:31Z</time></trkpt><trkpt lat="42.388878065654296" lon="2.609094069667514"><ele>670.2</ele><time>2026-04-22T08:16:32Z</time></trkpt><trkpt lat="42.38886384125938" lon="2.6089553532807415"><ele>670.4</ele><time>2026-04-22T08:16:33Z</time></trkpt><trkpt lat="42.38885393291057" lon="2.608812448084534"><ele>670.5999999999999</ele><time>2026-04-22T08:16:34Z</time></trkpt><trkpt lat="42.38884761396946" lon="2.6086872878433587"><ele>670.8</ele><time>2026-04-22T08:16:35Z</time></trkpt><trkpt lat="42.3888437954431" lon="2.6085606315932495"><ele>671.0</ele><time>2026-04-22T08:16:36Z</time></trkpt><trkpt lat="42.388848480029104" lon="2.608440431579223"><ele>671.0</ele><time>2026-04-22T08:16:37Z</time></trkpt><trkpt lat="42.388883063122435" lon="2.6083330908301754"><ele>671.0</ele><time>2026-04-22T08:16:38Z</time></trkpt><trkpt lat="42.38894789574129" lon="2.6082321811844613"><ele>671.0</ele><time>2026-04-22T08:16:38.999Z</time></trkpt><trkpt lat="42.389007481797776" lon="2.608126915212618"><ele>671.0</ele><time>2026-04-22T08:16:39.999Z</time></trkpt><trkpt lat="42.38906761319553" lon="2.608015036066249"><ele>671.0</ele><time>2026-04-22T08:16:40.999Z</time></trkpt><trkpt lat="42.389102567267905" lon="2.607849282823149"><ele>668.25</ele><time>2026-04-22T08:16:41.999Z</time></trkpt><trkpt lat="42.38912856188266" lon="2.6076626092703545"><ele>665.5</ele><time>2026-04-22T08:16:42.999Z</time></trkpt><trkpt lat="42.389116895306685" lon="2.6074918178759785"><ele>662.75</ele><time>2026-04-22T08:16:43.999Z</time></trkpt><trkpt lat="42.3890815934884" lon="2.607340316608857"><ele>660.0</ele><time>2026-04-22T08:16:44.999Z</time></trkpt><trkpt lat="42.389073559555435" lon="2.6072323477923516"><ele>660.0</ele><time>2026-04-22T08:16:45.999Z</time></trkpt><trkpt lat="42.389062856954006" lon="2.607142512159345"><ele>660.0</ele><time>2026-04-22T08:16:46.999Z</time></trkpt><trkpt lat="42.38906610578864" lon="2.607038137728067"><ele>660.0</ele><time>2026-04-22T08:16:47.999Z</time></trkpt><trkpt lat="42.38908241039068" lon="2.6069156627789978"><ele>660.0</ele><time>2026-04-22T08:16:48.999Z</time></trkpt><trkpt lat="42.3891064751491" lon="2.6067786956240995"><ele>660.0</ele><time>2026-04-22T08:16:49.999Z</time></trkpt><trkpt lat="42.38912172396284" lon="2.606645298172886"><ele>660.0</ele><time>2026-04-22T08:16:50.999Z</time></trkpt><trkpt lat="42.38917869245711" lon="2.606519891444797"><ele>657.8</ele><time>2026-04-22T08:16:51.999Z</time></trkpt><trkpt lat="42.38925502882128" lon="2.60637813624277"><ele>655.6</ele><time>2026-04-22T08:16:52.999Z</time></trkpt><trkpt lat="42.3893426273589" lon="2.6062710063474843"><ele>653.4000000000001</ele><time>2026-04-22T08:16:53.999Z</time></trkpt><trkpt lat="42.38939308334375" lon="2.6061866243540215"><ele>651.2</ele><time>2026-04-22T08:16:54.999Z</time></trkpt><trkpt lat="42.389465795061504" lon="2.6061009056812874"><ele>649.0</ele><time>2026-04-22T08:16:55.999Z</time></trkpt><trkpt lat="42.38951526339961" lon="2.6059728812142295"><ele>645.6666666666667</ele><time>2026-04-22T08:16:56.999Z</time></trkpt><trkpt lat="42.389544648308096" lon="2.6057764805264716"><ele>642.3333333333334</ele><time>2026-04-22T08:16:57.999Z</time></trkpt><trkpt lat="42.389566649165566" lon="2.6055569344099028"><ele>639.0</ele><time>2026-04-22T08:16:58.999Z</time></trkpt><trkpt lat="42.38958741562061" lon="2.605363247694893"><ele>638.0</ele><time>2026-04-22T08:16:59.999Z</time></trkpt><trkpt lat="42.389581439545054" lon="2.6051709251068575"><ele>637.0</ele><time>2026-04-22T08:17:00.999Z</time></trkpt><trkpt lat="42.389532124239196" lon="2.6049553869581654"><ele>636.0</ele><time>2026-04-22T08:17:01.999Z</time></trkpt><trkpt lat="42.38945007683419" lon="2.6047369331339505"><ele>636.0</ele><time>2026-04-22T08:17:02.999Z</time></trkpt><trkpt lat="42.389363100994245" lon="2.6045471225725407"><ele>636.0</ele><time>2026-04-22T08:17:03.999Z</time></trkpt><trkpt lat="42.38929880330427" lon="2.6043788037166418"><ele>636.0</ele><time>2026-04-22T08:17:04.999Z</time></trkpt><trkpt lat="42.38926392641608" lon="2.6042096189844224"><ele>636.0</ele><time>2026-04-22T08:17:05.999Z</time></trkpt><trkpt lat="42.389276710352306" lon="2.604017976082447"><ele>636.0</ele><time>2026-04-22T08:17:06.999Z</time></trkpt><trkpt lat="42.389272067641706" lon="2.6038115054287596"><ele>636.0</ele><time>2026-04-22T08:17:07.999Z</time></trkpt><trkpt lat="42.389314025009554" lon="2.6036452555883045"><ele>636.0</ele><time>2026-04-22T08:17:08.999Z</time></trkpt><trkpt lat="42.38937550055102" lon="2.60351177398135"><ele>636.0</ele><time>2026-04-22T08:17:09.999Z</time></trkpt><trkpt lat="42.38946446942629" lon="2.603403525554012"><ele>636.75</ele><time>2026-04-22T08:17:10.999Z</time></trkpt><trkpt lat="42.38960045243292" lon="2.6033777037338264"><ele>637.5</ele><time>2026-04-22T08:17:11.999Z</time></trkpt><trkpt lat="42.389743795260934" lon="2.603383939988507"><ele>638.25</ele><time>2026-04-22T08:17:12.999Z</time></trkpt><trkpt lat="42.38990750392268" lon="2.603393264817303"><ele>639.0</ele><time>2026-04-22T08:17:13.999Z</time></trkpt><trkpt lat="42.390059122942304" lon="2.60334593902742"><ele>639.0</ele><time>2026-04-22T08:17:14.999Z</time></trkpt><trkpt lat="42.39020827116582" lon="2.603255881433007"><ele>639.0</ele><time>2026-04-22T08:17:15.999Z</time></trkpt><trkpt lat="42.39035983329208" lon="2.6031182798186947"><ele>639.0</ele><time>2026-04-22T08:17:16.999Z</time></trkpt><trkpt lat="42.39051491724095" lon="2.602961720491515"><ele>635.3333333333334</ele><time>2026-04-22T08:17:17.999Z</time></trkpt><trkpt lat="42.39065620210475" lon="2.6028147486867055"><ele>631.6666666666667</ele><time>2026-04-22T08:17:18.999Z</time></trkpt><trkpt lat="42.39080520285532" lon="2.602708997193245"><ele>628.0</ele><time>2026-04-22T08:17:19.999Z</time></trkpt><trkpt lat="42.39097073158877" lon="2.6026441434509766"><ele>628.0</ele><time>2026-04-22T08:17:20.999Z</time></trkpt><trkpt lat="42.39111594025103" lon="2.6025946426076283"><ele>628.0</ele><time>2026-04-22T08:17:21.999Z</time></trkpt><trkpt lat="42.39124906860554" lon="2.60253499632855"><ele>628.0</ele><time>2026-04-22T08:17:22.999Z</time></trkpt><trkpt lat="42.39135119622449" lon="2.602430570442005"><ele>628.0</ele><time>2026-04-22T08:17:23.999Z</time></trkpt><trkpt lat="42.39142371702831" lon="2.60226723508115"><ele>629.3333333333334</ele><time>2026-04-22T08:17:24.999Z</time></trkpt><trkpt lat="42.391489450825986" lon="2.6020808646016413"><ele>630.6666666666666</ele><time>2026-04-22T08:17:25.999Z</time></trkpt><trkpt lat="42.391567487447496" lon="2.6018744682446706"><ele>632.0</ele><time>2026-04-22T08:17:26.999Z</time></trkpt><trkpt lat="42.39167285734162" lon="2.6016709733919114"><ele>632.0</ele><time>2026-04-22T08:17:27.999Z</time></trkpt><trkpt lat="42.39177744782389" lon="2.601472209167165"><ele>632.0</ele><time>2026-04-22T08:17:28.999Z</time></trkpt><trkpt lat="42.391858953967244" lon="2.601294482963952"><ele>632.0</ele><time>2026-04-22T08:17:29.999Z</time></trkpt><trkpt lat="42.39192589772267" lon="2.601137894057887"><ele>630.5</ele><time>2026-04-22T08:17:30.999Z</time></trkpt><trkpt lat="42.39200039979353" lon="2.6010088947780874"><ele>629.0</ele><time>2026-04-22T08:17:31.999Z</time></trkpt><trkpt lat="42.392091128900475" lon="2.6009062801160314"><ele>627.5</ele><time>2026-04-22T08:17:32.999Z</time></trkpt><trkpt lat="42.3922124209807" lon="2.600856531398796"><ele>626.0</ele><time>2026-04-22T08:17:33.999Z</time></trkpt><trkpt lat="42.39233097565613" lon="2.6008605439605637"><ele>626.0</ele><time>2026-04-22T08:17:34.999Z</time></trkpt><trkpt lat="42.39244758894159" lon="2.600933278939668"><ele>626.0</ele><time>2026-04-22T08:17:35.999Z</time></trkpt><trkpt lat="42.39252573789685" lon="2.601079684490403"><ele>626.0</ele><time>2026-04-22T08:17:36.999Z</time></trkpt><trkpt lat="42.39264228549308" lon="2.6011634746635774"><ele>626.0</ele><time>2026-04-22T08:17:37.999Z</time></trkpt><trkpt lat="42.392777900470655" lon="2.601222533787326"><ele>627.0</ele><time>2026-04-22T08:17:38.999Z</time></trkpt><trkpt lat="42.39293517262339" lon="2.601228271805617"><ele>628.0</ele><time>2026-04-22T08:17:39.999Z</time></trkpt><trkpt lat="42.39308955557112" lon="2.601200074424353"><ele>629.0</ele><time>2026-04-22T08:17:40.999Z</time></trkpt><trkpt lat="42.393234733364515" lon="2.601139925562551"><ele>629.0</ele><time>2026-04-22T08:17:41.999Z</time></trkpt><trkpt lat="42.393372980955974" lon="2.601033863516988"><ele>629.0</ele><time>2026-04-22T08:17:42.999Z</time></trkpt><trkpt lat="42.39348230667718" lon="2.6008841737204604"><ele>629.0</ele><time>2026-04-22T08:17:43.999Z</time></trkpt><trkpt lat="42.39357615534157" lon="2.6007020449860683"><ele>629.0</ele><time>2026-04-22T08:17:44.999Z</time></trkpt><trkpt lat="42.39366204315644" lon="2.6004887019311393"><ele>629.0</ele><time>2026-04-22T08:17:45.999Z</time></trkpt><trkpt lat="42.393734158053526" lon="2.6002588280695487"><ele>629.0</ele><time>2026-04-22T08:17:46.999Z</time></trkpt><trkpt lat="42.39379271169233" lon="2.6000064816774238"><ele>631.0</ele><time>2026-04-22T08:17:47.999Z</time></trkpt><trkpt lat="42.393837220616184" lon="2.5997778780541627"><ele>633.0</ele><time>2026-04-22T08:17:48.998Z</time></trkpt><trkpt lat="42.393908534580454" lon="2.5996131850898125"><ele>635.0</ele><time>2026-04-22T08:17:49.998Z</time></trkpt><trkpt lat="42.393993395375915" lon="2.599473218465398"><ele>637.0</ele><time>2026-04-22T08:17:50.998Z</time></trkpt><trkpt lat="42.39410578484859" lon="2.5993476958760784"><ele>633.0</ele><time>2026-04-22T08:17:51.998Z</time></trkpt><trkpt lat="42.39422144546827" lon="2.599251221718332"><ele>629.0</ele><time>2026-04-22T08:17:52.998Z</time></trkpt><trkpt lat="42.39433780567614" lon="2.599204966950567"><ele>625.0</ele><time>2026-04-22T08:17:53.998Z</time></trkpt><trkpt lat="42.39444964899723" lon="2.59923043662577"><ele>621.0</ele><time>2026-04-22T08:17:54.998Z</time></trkpt><trkpt lat="42.39456417197646" lon="2.5992941577986213"><ele>621.0</ele><time>2026-04-22T08:17:55.998Z</time></trkpt><trkpt lat="42.39468507526484" lon="2.5993656653685986"><ele>621.0</ele><time>2026-04-22T08:17:56.998Z</time></trkpt><trkpt lat="42.39484271009174" lon="2.599412016438101"><ele>621.0</ele><time>2026-04-22T08:17:57.998Z</time></trkpt><trkpt lat="42.39500298703994" lon="2.599424378624816"><ele>621.0</ele><time>2026-04-22T08:17:58.998Z</time></trkpt><trkpt lat="42.39516754165094" lon="2.599378870266243"><ele>621.0</ele><time>2026-04-22T08:18:00Z</time></trkpt><trkpt lat="42.39532621806129" lon="2.599325245031516"><ele>621.0</ele><time>2026-04-22T08:18:01Z</time></trkpt><trkpt lat="42.39547636816158" lon="2.599373961026651"><ele>621.0</ele><time>2026-04-22T08:18:02Z</time></trkpt><trkpt lat="42.3956432488505" lon="2.599420995693956"><ele>621.0</ele><time>2026-04-22T08:18:03Z</time></trkpt><trkpt lat="42.39582185206847" lon="2.5994746434341947"><ele>621.0</ele><time>2026-04-22T08:18:04Z</time></trkpt><trkpt lat="42.39599838028163" lon="2.599540623873559"><ele>624.6666666666666</ele><time>2026-04-22T08:18:05Z</time></trkpt><trkpt lat="42.39617351108323" lon="2.5995968518320582"><ele>628.3333333333333</ele><time>2026-04-22T08:18:06Z</time></trkpt><trkpt lat="42.396327159646255" lon="2.599598375979783"><ele>632.0</ele><time>2026-04-22T08:18:07Z</time></trkpt><trkpt lat="42.39647732510636" lon="2.599579381069991"><ele>632.0</ele><time>2026-04-22T08:18:08Z</time></trkpt><trkpt lat="42.39661120940026" lon="2.599600585097275"><ele>632.0</ele><time>2026-04-22T08:18:09Z</time></trkpt><trkpt lat="42.39671074552055" lon="2.5996513817846614"><ele>632.0</ele><time>2026-04-22T08:18:10Z</time></trkpt><trkpt lat="42.39679258746601" lon="2.5997399658172973"><ele>632.0</ele><time>2026-04-22T08:18:11Z</time></trkpt><trkpt lat="42.396883947431505" lon="2.5998633440992824"><ele>632.0</ele><time>2026-04-22T08:18:12Z</time></trkpt><trkpt lat="42.39697842822502" lon="2.5999772904024683"><ele>632.0</ele><time>2026-04-22T08:18:13Z</time></trkpt><trkpt lat="42.39707722723212" lon="2.6000273929930926"><ele>632.0</ele><time>2026-04-22T08:18:14Z</time></trkpt><trkpt lat="42.39718117394049" lon="2.5999850982246637"><ele>632.0</ele><time>2026-04-22T08:18:15Z</time></trkpt><trkpt lat="42.39727590665185" lon="2.5998896403295673"><ele>630.5</ele><time>2026-04-22T08:18:16Z</time></trkpt><trkpt lat="42.397349668903296" lon="2.5997519433464875"><ele>629.0</ele><time>2026-04-22T08:18:17Z</time></trkpt><trkpt lat="42.397455730235585" lon="2.599634831909368"><ele>627.5</ele><time>2026-04-22T08:18:18Z</time></trkpt><trkpt lat="42.397577729626434" lon="2.5995771820403886"><ele>626.0</ele><time>2026-04-22T08:18:19Z</time></trkpt><trkpt lat="42.397729182461724" lon="2.599536809638705"><ele>623.6666666666666</ele><time>2026-04-22T08:18:20Z</time></trkpt><trkpt lat="42.397894458114834" lon="2.5994875768777477"><ele>621.3333333333334</ele><time>2026-04-22T08:18:21Z</time></trkpt><trkpt lat="42.398067576697166" lon="2.5994254420644296"><ele>619.0</ele><time>2026-04-22T08:18:22Z</time></trkpt><trkpt lat="42.39823106287351" lon="2.599314167175888"><ele>619.0</ele><time>2026-04-22T08:18:23Z</time></trkpt><trkpt lat="42.39839794860416" lon="2.599222538692654"><ele>619.0</ele><time>2026-04-22T08:18:24Z</time></trkpt><trkpt lat="42.39854330113038" lon="2.599130778910611"><ele>619.0</ele><time>2026-04-22T08:18:25Z</time></trkpt><trkpt lat="42.39867063963061" lon="2.599018496687438"><ele>619.0</ele><time>2026-04-22T08:18:26Z</time></trkpt><trkpt lat="42.398779909712616" lon="2.5988658742794066"><ele>619.0</ele><time>2026-04-22T08:18:27Z</time></trkpt><trkpt lat="42.39887298790154" lon="2.598679177520285"><ele>619.0</ele><time>2026-04-22T08:18:28Z</time></trkpt><trkpt lat="42.39898252780135" lon="2.598504307787374"><ele>619.6666666666667</ele><time>2026-04-22T08:18:29Z</time></trkpt><trkpt lat="42.399086007237" lon="2.5983186278595856"><ele>620.3333333333334</ele><time>2026-04-22T08:18:30Z</time></trkpt><trkpt lat="42.39919104352915" lon="2.5981313380469566"><ele>621.0</ele><time>2026-04-22T08:18:31Z</time></trkpt><trkpt lat="42.39929792476897" lon="2.597970843499958"><ele>621.0</ele><time>2026-04-22T08:18:32Z</time></trkpt><trkpt lat="42.399419699876006" lon="2.5978482350397427"><ele>621.0</ele><time>2026-04-22T08:18:33Z</time></trkpt><trkpt lat="42.39955563827847" lon="2.5977794292008642"><ele>621.0</ele><time>2026-04-22T08:18:34Z</time></trkpt><trkpt lat="42.399717073213665" lon="2.597737707787386"><ele>619.6666666666666</ele><time>2026-04-22T08:18:35Z</time></trkpt><trkpt lat="42.39990157057536" lon="2.597674812348113"><ele>618.3333333333333</ele><time>2026-04-22T08:18:36Z</time></trkpt><trkpt lat="42.40006784384563" lon="2.5975652750110654"><ele>617.0</ele><time>2026-04-22T08:18:37Z</time></trkpt><trkpt lat="42.40022107557085" lon="2.5974395563416337"><ele>617.0</ele><time>2026-04-22T08:18:38Z</time></trkpt><trkpt lat="42.400349694984406" lon="2.597323128634224"><ele>617.0</ele><time>2026-04-22T08:18:39Z</time></trkpt><trkpt lat="42.40046196637736" lon="2.597260743853088"><ele>617.0</ele><time>2026-04-22T08:18:40Z</time></trkpt><trkpt lat="42.40057478421996" lon="2.59726409305528"><ele>617.0</ele><time>2026-04-22T08:18:41Z</time></trkpt><trkpt lat="42.400687794093706" lon="2.5973621515443868"><ele>615.6666666666666</ele><time>2026-04-22T08:18:42Z</time></trkpt><trkpt lat="42.400804353158904" lon="2.59749041606946"><ele>614.3333333333334</ele><time>2026-04-22T08:18:43Z</time></trkpt><trkpt lat="42.40093628006081" lon="2.5976615946355497"><ele>613.0</ele><time>2026-04-22T08:18:44Z</time></trkpt><trkpt lat="42.40107299640204" lon="2.5978400961679102"><ele>610.0</ele><time>2026-04-22T08:18:45Z</time></trkpt><trkpt lat="42.401216032693455" lon="2.5980268486735145"><ele>607.0</ele><time>2026-04-22T08:18:46Z</time></trkpt><trkpt lat="42.40134608209192" lon="2.59819788015849"><ele>604.0</ele><time>2026-04-22T08:18:47Z</time></trkpt><trkpt lat="42.40146793476245" lon="2.5983470092906003"><ele>604.0</ele><time>2026-04-22T08:18:48Z</time></trkpt><trkpt lat="42.40155320820507" lon="2.5985564576396123"><ele>604.0</ele><time>2026-04-22T08:18:49Z</time></trkpt><trkpt lat="42.40161950285702" lon="2.5987953423822145"><ele>604.0</ele><time>2026-04-22T08:18:49.999Z</time></trkpt><trkpt lat="42.401678537781464" lon="2.5990203590115675"><ele>607.0</ele><time>2026-04-22T08:18:50.999Z</time></trkpt><trkpt lat="42.40176943058791" lon="2.5992431884437557"><ele>610.0</ele><time>2026-04-22T08:18:51.999Z</time></trkpt><trkpt lat="42.4018619284886" lon="2.5994432927521895"><ele>613.0</ele><time>2026-04-22T08:18:52.999Z</time></trkpt><trkpt lat="42.401951065713334" lon="2.59961280162963"><ele>613.75</ele><time>2026-04-22T08:18:53.999Z</time></trkpt><trkpt lat="42.402044085153214" lon="2.599754021747817"><ele>614.5</ele><time>2026-04-22T08:18:54.999Z</time></trkpt><trkpt lat="42.40216359439056" lon="2.59985514386382"><ele>615.25</ele><time>2026-04-22T08:18:55.999Z</time></trkpt><trkpt lat="42.402311438699215" lon="2.599923811416297"><ele>616.0</ele><time>2026-04-22T08:18:56.999Z</time></trkpt><trkpt lat="42.40246858905708" lon="2.599930423904372"><ele>616.0</ele><time>2026-04-22T08:18:57.999Z</time></trkpt><trkpt lat="42.40263454445639" lon="2.599923376451968"><ele>616.0</ele><time>2026-04-22T08:18:58.999Z</time></trkpt><trkpt lat="42.40280262642911" lon="2.5998972756759917"><ele>616.0</ele><time>2026-04-22T08:18:59.999Z</time></trkpt><trkpt lat="42.402955219948424" lon="2.599874905528294"><ele>615.0</ele><time>2026-04-22T08:19:00.999Z</time></trkpt><trkpt lat="42.40310490646623" lon="2.5998543443512885"><ele>614.0</ele><time>2026-04-22T08:19:01.999Z</time></trkpt><trkpt lat="42.40324789172773" lon="2.599819998972878"><ele>613.0</ele><time>2026-04-22T08:19:02.999Z</time></trkpt><trkpt lat="42.403383440692856" lon="2.5998032681423227"><ele>612.0</ele><time>2026-04-22T08:19:03.999Z</time></trkpt><trkpt lat="42.40350333683443" lon="2.5997867633829177"><ele>612.0</ele><time>2026-04-22T08:19:04.999Z</time></trkpt><trkpt lat="42.403617281882035" lon="2.5997720022340602"><ele>612.0</ele><time>2026-04-22T08:19:05.999Z</time></trkpt><trkpt lat="42.403736630790725" lon="2.599755540357954"><ele>612.0</ele><time>2026-04-22T08:19:06.999Z</time></trkpt><trkpt lat="42.4038588630252" lon="2.5997472839538323"><ele>612.0</ele><time>2026-04-22T08:19:07.999Z</time></trkpt><trkpt lat="42.40397128051096" lon="2.5997537540080993"><ele>612.0</ele><time>2026-04-22T08:19:08.999Z</time></trkpt><trkpt lat="42.40408432984156" lon="2.5997716095108165"><ele>612.0</ele><time>2026-04-22T08:19:09.999Z</time></trkpt><trkpt lat="42.40419112640564" lon="2.599789433722217"><ele>612.0</ele><time>2026-04-22T08:19:10.999Z</time></trkpt><trkpt lat="42.404288165226546" lon="2.5998167142248447"><ele>612.0</ele><time>2026-04-22T08:19:11.999Z</time></trkpt><trkpt lat="42.40437358916151" lon="2.5998410613775613"><ele>612.0</ele><time>2026-04-22T08:19:12.999Z</time></trkpt><trkpt lat="42.40444024357973" lon="2.599883281387877"><ele>612.0</ele><time>2026-04-22T08:19:13.999Z</time></trkpt><trkpt lat="42.4045080178369" lon="2.5999158912601366"><ele>612.0</ele><time>2026-04-22T08:19:14.999Z</time></trkpt><trkpt lat="42.404564460943845" lon="2.5999545420833408"><ele>612.0</ele><time>2026-04-22T08:19:15.999Z</time></trkpt><trkpt lat="42.40465591022726" lon="2.6000108074490424"><ele>612.0</ele><time>2026-04-22T08:19:17.999Z</time></trkpt><trkpt lat="42.404749066032025" lon="2.600066979726551"><ele>612.0</ele><time>2026-04-22T08:19:19.999Z</time></trkpt><trkpt lat="42.404858034935955" lon="2.6001163651411803"><ele>611.4</ele><time>2026-04-22T08:19:21.999Z</time></trkpt><trkpt lat="42.40497120627775" lon="2.6001087694672034"><ele>610.8000000000001</ele><time>2026-04-22T08:19:23.999Z</time></trkpt><trkpt lat="42.40503994196623" lon="2.6000995610340545"><ele>610.2</ele><time>2026-04-22T08:19:24.999Z</time></trkpt><trkpt lat="42.40512401571119" lon="2.6000690619287257"><ele>609.6</ele><time>2026-04-22T08:19:25.999Z</time></trkpt><trkpt lat="42.405203646734755" lon="2.5999696375184027"><ele>609.0</ele><time>2026-04-22T08:19:26.999Z</time></trkpt><trkpt lat="42.405293723358525" lon="2.599876965025812"><ele>609.0</ele><time>2026-04-22T08:19:27.999Z</time></trkpt><trkpt lat="42.40535812658324" lon="2.5998027033448614"><ele>609.0</ele><time>2026-04-22T08:19:28.999Z</time></trkpt><trkpt lat="42.405415873942935" lon="2.5997358355529983"><ele>609.0</ele><time>2026-04-22T08:19:29.999Z</time></trkpt><trkpt lat="42.405506613147274" lon="2.599627219773328"><ele>609.0</ele><time>2026-04-22T08:19:31.999Z</time></trkpt><trkpt lat="42.40561927938133" lon="2.5995826555522425"><ele>609.0</ele><time>2026-04-22T08:19:33.999Z</time></trkpt><trkpt lat="42.40572304697409" lon="2.59954500671868"><ele>609.8</ele><time>2026-04-22T08:19:35.999Z</time></trkpt><trkpt lat="42.40582537639123" lon="2.5995568660670996"><ele>610.5999999999999</ele><time>2026-04-22T08:19:37.999Z</time></trkpt><trkpt lat="42.40592862787623" lon="2.5996056749928447"><ele>611.4</ele><time>2026-04-22T08:19:39.999Z</time></trkpt><trkpt lat="42.406056714015456" lon="2.5996352620783107"><ele>612.1999999999999</ele><time>2026-04-22T08:19:41.999Z</time></trkpt><trkpt lat="42.406139229014066" lon="2.59961462504032"><ele>613.0</ele><time>2026-04-22T08:19:42.999Z</time></trkpt><trkpt lat="42.4062304462427" lon="2.5996123959236788"><ele>614.6</ele><time>2026-04-22T08:19:43.999Z</time></trkpt><trkpt lat="42.40633729638395" lon="2.5995815009602583"><ele>616.1999999999999</ele><time>2026-04-22T08:19:44.999Z</time></trkpt><trkpt lat="42.406439495347016" lon="2.5995402570795934"><ele>617.8</ele><time>2026-04-22T08:19:45.999Z</time></trkpt><trkpt lat="42.40654150491395" lon="2.599485206188765"><ele>619.4</ele><time>2026-04-22T08:19:46.999Z</time></trkpt><trkpt lat="42.40664976442323" lon="2.5994258355476174"><ele>621.0</ele><time>2026-04-22T08:19:47.999Z</time></trkpt><trkpt lat="42.40675539979099" lon="2.5993491660122894"><ele>619.4</ele><time>2026-04-22T08:19:48.999Z</time></trkpt><trkpt lat="42.40685132303819" lon="2.5992771037265845"><ele>617.8</ele><time>2026-04-22T08:19:49.999Z</time></trkpt><trkpt lat="42.40693913769212" lon="2.599189146157829"><ele>616.1999999999999</ele><time>2026-04-22T08:19:50.999Z</time></trkpt><trkpt lat="42.407024151930436" lon="2.599098807271426"><ele>614.6</ele><time>2026-04-22T08:19:51.999Z</time></trkpt><trkpt lat="42.40709366870968" lon="2.5989972870850924"><ele>613.0</ele><time>2026-04-22T08:19:52.999Z</time></trkpt><trkpt lat="42.40717000730566" lon="2.598902834754261"><ele>613.0</ele><time>2026-04-22T08:19:53.999Z</time></trkpt><trkpt lat="42.40724203308585" lon="2.5988149075245923"><ele>613.0</ele><time>2026-04-22T08:19:54.999Z</time></trkpt><trkpt lat="42.407335162528554" lon="2.59874444357158"><ele>613.0</ele><time>2026-04-22T08:19:55.999Z</time></trkpt><trkpt lat="42.40743197583429" lon="2.5987127392738736"><ele>613.0</ele><time>2026-04-22T08:19:56.999Z</time></trkpt><trkpt lat="42.40756470315882" lon="2.5987025053290362"><ele>613.0</ele><time>2026-04-22T08:19:57.999Z</time></trkpt><trkpt lat="42.407689444042674" lon="2.598614280805"><ele>613.0</ele><time>2026-04-22T08:19:58.999Z</time></trkpt><trkpt lat="42.40782205702246" lon="2.598497868042628"><ele>613.0</ele><time>2026-04-22T08:19:59.998Z</time></trkpt><trkpt lat="42.40795060962029" lon="2.5983649533770525"><ele>613.0</ele><time>2026-04-22T08:20:00.998Z</time></trkpt><trkpt lat="42.40811163835484" lon="2.5982423433098845"><ele>613.0</ele><time>2026-04-22T08:20:01.998Z</time></trkpt><trkpt lat="42.408262245792535" lon="2.598110793604153"><ele>613.0</ele><time>2026-04-22T08:20:02.998Z</time></trkpt><trkpt lat="42.408392369697495" lon="2.5979708210548127"><ele>613.0</ele><time>2026-04-22T08:20:03.998Z</time></trkpt><trkpt lat="42.408511748856284" lon="2.5978109188520553"><ele>609.6666666666667</ele><time>2026-04-22T08:20:04.998Z</time></trkpt><trkpt lat="42.40861155128123" lon="2.597629803233393"><ele>606.3333333333334</ele><time>2026-04-22T08:20:06Z</time></trkpt><trkpt lat="42.4086951669085" lon="2.597448607054306"><ele>603.0</ele><time>2026-04-22T08:20:07Z</time></trkpt><trkpt lat="42.408763210320856" lon="2.5972379769585823"><ele>604.0</ele><time>2026-04-22T08:20:08Z</time></trkpt><trkpt lat="42.408802866603736" lon="2.5969825711656407"><ele>605.0</ele><time>2026-04-22T08:20:09Z</time></trkpt><trkpt lat="42.40884145159284" lon="2.5967297419933013"><ele>606.0</ele><time>2026-04-22T08:20:10Z</time></trkpt><trkpt lat="42.40888011362133" lon="2.596501758909988"><ele>607.3333333333334</ele><time>2026-04-22T08:20:11Z</time></trkpt><trkpt lat="42.40892536780747" lon="2.596302638272508"><ele>608.6666666666667</ele><time>2026-04-22T08:20:12Z</time></trkpt><trkpt lat="42.40901374989141" lon="2.596138570956318"><ele>610.0</ele><time>2026-04-22T08:20:13Z</time></trkpt><trkpt lat="42.40911010115908" lon="2.595984728743327"><ele>605.0</ele><time>2026-04-22T08:20:14Z</time></trkpt><trkpt lat="42.40922869737026" lon="2.595860762450424"><ele>600.0</ele><time>2026-04-22T08:20:15Z</time></trkpt><trkpt lat="42.409381252268055" lon="2.5957399623397244"><ele>595.0</ele><time>2026-04-22T08:20:16Z</time></trkpt><trkpt lat="42.409559956282614" lon="2.5956660670161447"><ele>596.5</ele><time>2026-04-22T08:20:17Z</time></trkpt><trkpt lat="42.40969564328073" lon="2.595553800447655"><ele>598.0</ele><time>2026-04-22T08:20:18Z</time></trkpt><trkpt lat="42.40981733283928" lon="2.5955020191156297"><ele>599.5</ele><time>2026-04-22T08:20:19Z</time></trkpt><trkpt lat="42.409968675681725" lon="2.595528143071486"><ele>601.0</ele><time>2026-04-22T08:20:20Z</time></trkpt><trkpt lat="42.41012288585421" lon="2.5955559881362493"><ele>601.0</ele><time>2026-04-22T08:20:21Z</time></trkpt><trkpt lat="42.410246901597006" lon="2.5955826215163578"><ele>601.0</ele><time>2026-04-22T08:20:22Z</time></trkpt><trkpt lat="42.41035004348429" lon="2.5956642896456397"><ele>601.0</ele><time>2026-04-22T08:20:23Z</time></trkpt><trkpt lat="42.4104402344699" lon="2.5958017407562797"><ele>601.0</ele><time>2026-04-22T08:20:24Z</time></trkpt><trkpt lat="42.410496447558174" lon="2.5959868083350854"><ele>604.0</ele><time>2026-04-22T08:20:25Z</time></trkpt><trkpt lat="42.41052240218468" lon="2.596189899831299"><ele>607.0</ele><time>2026-04-22T08:20:26Z</time></trkpt><trkpt lat="42.410526471991226" lon="2.5963862370659427"><ele>610.0</ele><time>2026-04-22T08:20:27Z</time></trkpt><trkpt lat="42.41047792462084" lon="2.5965817602552748"><ele>613.0</ele><time>2026-04-22T08:20:28Z</time></trkpt><trkpt lat="42.410424158818266" lon="2.5968061179534994"><ele>613.0</ele><time>2026-04-22T08:20:29Z</time></trkpt><trkpt lat="42.41036000729242" lon="2.597037535196698"><ele>613.0</ele><time>2026-04-22T08:20:30Z</time></trkpt><trkpt lat="42.410306895223066" lon="2.5972633906045566"><ele>613.0</ele><time>2026-04-22T08:20:31Z</time></trkpt><trkpt lat="42.410265264549516" lon="2.5974829801358243"><ele>613.0</ele><time>2026-04-22T08:20:32Z</time></trkpt><trkpt lat="42.41023950420325" lon="2.5976839921810657"><ele>613.0</ele><time>2026-04-22T08:20:33Z</time></trkpt><trkpt lat="42.41023242896629" lon="2.5978880623675886"><ele>613.0</ele><time>2026-04-22T08:20:34Z</time></trkpt><trkpt lat="42.41024250896422" lon="2.598088913948761"><ele>612.25</ele><time>2026-04-22T08:20:35Z</time></trkpt><trkpt lat="42.410289091897496" lon="2.5982799572630273"><ele>611.5</ele><time>2026-04-22T08:20:36Z</time></trkpt><trkpt lat="42.41032397651356" lon="2.5984568174368383"><ele>610.75</ele><time>2026-04-22T08:20:37Z</time></trkpt><trkpt lat="42.41032663604818" lon="2.5986394277889775"><ele>610.0</ele><time>2026-04-22T08:20:38Z</time></trkpt><trkpt lat="42.41030403577506" lon="2.5988075823352172"><ele>610.0</ele><time>2026-04-22T08:20:39Z</time></trkpt><trkpt lat="42.41028264575161" lon="2.5989638405458733"><ele>610.0</ele><time>2026-04-22T08:20:40Z</time></trkpt><trkpt lat="42.41028941390548" lon="2.599107540384301"><ele>610.0</ele><time>2026-04-22T08:20:41Z</time></trkpt><trkpt lat="42.41037546563122" lon="2.5992360131701413"><ele>610.0</ele><time>2026-04-22T08:20:42Z</time></trkpt><trkpt lat="42.41048246876475" lon="2.5993215783235466"><ele>603.0</ele><time>2026-04-22T08:20:43Z</time></trkpt><trkpt lat="42.41061249716965" lon="2.599385540696536"><ele>596.0</ele><time>2026-04-22T08:20:44Z</time></trkpt><trkpt lat="42.41074568209726" lon="2.599414581735727"><ele>589.0</ele><time>2026-04-22T08:20:45Z</time></trkpt><trkpt lat="42.41085586951434" lon="2.5994161459195233"><ele>582.0</ele><time>2026-04-22T08:20:46Z</time></trkpt><trkpt lat="42.410963837467264" lon="2.5994210749799285"><ele>582.0</ele><time>2026-04-22T08:20:47Z</time></trkpt><trkpt lat="42.41106248022997" lon="2.5994865535880276"><ele>582.0</ele><time>2026-04-22T08:20:48Z</time></trkpt><trkpt lat="42.41114101698027" lon="2.599622620296395"><ele>582.0</ele><time>2026-04-22T08:20:49Z</time></trkpt><trkpt lat="42.41119270456705" lon="2.5997541434611677"><ele>582.0</ele><time>2026-04-22T08:20:50Z</time></trkpt><trkpt lat="42.41126261996609" lon="2.5998471574812503"><ele>582.0</ele><time>2026-04-22T08:20:51Z</time></trkpt><trkpt lat="42.411341464166846" lon="2.5999267828236516"><ele>583.25</ele><time>2026-04-22T08:20:52Z</time></trkpt><trkpt lat="42.411478381306075" lon="2.5998910128806147"><ele>584.5</ele><time>2026-04-22T08:20:52.999Z</time></trkpt><trkpt lat="42.41159066934494" lon="2.599854418999938"><ele>585.75</ele><time>2026-04-22T08:20:53.999Z</time></trkpt><trkpt lat="42.41167089097286" lon="2.5997652136018337"><ele>587.0</ele><time>2026-04-22T08:20:54.999Z</time></trkpt><trkpt lat="42.4116852136213" lon="2.599590582467705"><ele>584.25</ele><time>2026-04-22T08:20:55.999Z</time></trkpt><trkpt lat="42.41169607354923" lon="2.5994174593496666"><ele>581.5</ele><time>2026-04-22T08:20:56.999Z</time></trkpt><trkpt lat="42.41173131959284" lon="2.5992398092863844"><ele>578.75</ele><time>2026-04-22T08:20:57.999Z</time></trkpt><trkpt lat="42.411831578415224" lon="2.5991195702083703"><ele>576.0</ele><time>2026-04-22T08:20:58.999Z</time></trkpt><trkpt lat="42.411933446333926" lon="2.5989653278366127"><ele>576.0</ele><time>2026-04-22T08:20:59.999Z</time></trkpt><trkpt lat="42.41205848409789" lon="2.5988634078241604"><ele>576.0</ele><time>2026-04-22T08:21:00.999Z</time></trkpt><trkpt lat="42.4121923692105" lon="2.598800759877327"><ele>576.0</ele><time>2026-04-22T08:21:01.999Z</time></trkpt><trkpt lat="42.41235373719505" lon="2.598825148245585"><ele>581.0</ele><time>2026-04-22T08:21:02.999Z</time></trkpt><trkpt lat="42.412526140240445" lon="2.598824503778673"><ele>586.0</ele><time>2026-04-22T08:21:03.999Z</time></trkpt><trkpt lat="42.41271470404237" lon="2.598772063277815"><ele>591.0</ele><time>2026-04-22T08:21:04.999Z</time></trkpt><trkpt lat="42.41289125842693" lon="2.5986778639499724"><ele>584.5</ele><time>2026-04-22T08:21:05.999Z</time></trkpt><trkpt lat="42.41302427025061" lon="2.598601552546854"><ele>578.0</ele><time>2026-04-22T08:21:06.999Z</time></trkpt><trkpt lat="42.41313328252599" lon="2.598554052707959"><ele>571.5</ele><time>2026-04-22T08:21:07.999Z</time></trkpt><trkpt lat="42.413244961844775" lon="2.598527974555856"><ele>565.0</ele><time>2026-04-22T08:21:08.999Z</time></trkpt><trkpt lat="42.413362617538205" lon="2.598606661532018"><ele>575.0</ele><time>2026-04-22T08:21:09.999Z</time></trkpt><trkpt lat="42.41348496661787" lon="2.5987465928689697"><ele>585.0</ele><time>2026-04-22T08:21:10.999Z</time></trkpt><trkpt lat="42.413629813248605" lon="2.5988572727908505"><ele>595.0</ele><time>2026-04-22T08:21:11.999Z</time></trkpt><trkpt lat="42.413784755132916" lon="2.5989740500584784"><ele>589.3333333333334</ele><time>2026-04-22T08:21:12.999Z</time></trkpt><trkpt lat="42.41396486938057" lon="2.599060933639218"><ele>583.6666666666666</ele><time>2026-04-22T08:21:13.999Z</time></trkpt><trkpt lat="42.414160262406135" lon="2.5990899786978203"><ele>578.0</ele><time>2026-04-22T08:21:14.999Z</time></trkpt><trkpt lat="42.414337001259085" lon="2.5991467807610613"><ele>578.0</ele><time>2026-04-22T08:21:15.999Z</time></trkpt><trkpt lat="42.41447920536038" lon="2.5992325328060852"><ele>578.0</ele><time>2026-04-22T08:21:16.999Z</time></trkpt><trkpt lat="42.4146066766456" lon="2.5993555778555693"><ele>578.0</ele><time>2026-04-22T08:21:17.999Z</time></trkpt><trkpt lat="42.41477728134874" lon="2.5993476910482243"><ele>573.0</ele><time>2026-04-22T08:21:18.999Z</time></trkpt><trkpt lat="42.41495667569292" lon="2.5993713689367377"><ele>568.0</ele><time>2026-04-22T08:21:19.999Z</time></trkpt><trkpt lat="42.4151406966102" lon="2.599371056481995"><ele>563.0</ele><time>2026-04-22T08:21:20.999Z</time></trkpt><trkpt lat="42.415310351495556" lon="2.5993560640207862"><ele>563.0</ele><time>2026-04-22T08:21:21.999Z</time></trkpt><trkpt lat="42.415475152589025" lon="2.599323510324649"><ele>563.0</ele><time>2026-04-22T08:21:22.999Z</time></trkpt><trkpt lat="42.41564798805769" lon="2.5992596306551095"><ele>563.0</ele><time>2026-04-22T08:21:23.999Z</time></trkpt><trkpt lat="42.41583690793038" lon="2.5992072328018363"><ele>562.6666666666666</ele><time>2026-04-22T08:21:24.999Z</time></trkpt><trkpt lat="42.41604447670187" lon="2.599182903541568"><ele>562.3333333333334</ele><time>2026-04-22T08:21:25.999Z</time></trkpt><trkpt lat="42.41626359049547" lon="2.5991527908911807"><ele>562.0</ele><time>2026-04-22T08:21:26.999Z</time></trkpt><trkpt lat="42.416452687149565" lon="2.599112340155496"><ele>560.0</ele><time>2026-04-22T08:21:27.999Z</time></trkpt><trkpt lat="42.41661944464927" lon="2.599059258493405"><ele>558.0</ele><time>2026-04-22T08:21:28.999Z</time></trkpt><trkpt lat="42.416779309741" lon="2.5990609149337778"><ele>556.0</ele><time>2026-04-22T08:21:29.999Z</time></trkpt><trkpt lat="42.41689909682243" lon="2.5990806038123826"><ele>556.0</ele><time>2026-04-22T08:21:30.999Z</time></trkpt><trkpt lat="42.41700441195537" lon="2.5991451637326013"><ele>556.0</ele><time>2026-04-22T08:21:31.999Z</time></trkpt><trkpt lat="42.41705138571845" lon="2.5992725922127815"><ele>556.0</ele><time>2026-04-22T08:21:32.999Z</time></trkpt><trkpt lat="42.417044045604044" lon="2.5993703446641"><ele>556.0</ele><time>2026-04-22T08:21:33.999Z</time></trkpt><trkpt lat="42.4170049045294" lon="2.5995153791500067"><ele>556.0</ele><time>2026-04-22T08:21:34.999Z</time></trkpt><trkpt lat="42.41695209351089" lon="2.599722715876202"><ele>557.6666666666667</ele><time>2026-04-22T08:21:35.999Z</time></trkpt><trkpt lat="42.41687627879604" lon="2.5999253409336833"><ele>559.3333333333334</ele><time>2026-04-22T08:21:36.999Z</time></trkpt><trkpt lat="42.41676715902872" lon="2.600116995247323"><ele>561.0</ele><time>2026-04-22T08:21:37.999Z</time></trkpt><trkpt lat="42.416642299440895" lon="2.6002621207390733"><ele>561.5</ele><time>2026-04-22T08:21:38.999Z</time></trkpt><trkpt lat="42.41653421614347" lon="2.6004046137066577"><ele>562.0</ele><time>2026-04-22T08:21:39.999Z</time></trkpt><trkpt lat="42.41645148902911" lon="2.6005300558174547"><ele>562.5</ele><time>2026-04-22T08:21:40.999Z</time></trkpt><trkpt lat="42.41639379366471" lon="2.600670331805467"><ele>563.0</ele><time>2026-04-22T08:21:41.999Z</time></trkpt><trkpt lat="42.41638802839642" lon="2.6008470354286444"><ele>563.0</ele><time>2026-04-22T08:21:42.999Z</time></trkpt><trkpt lat="42.416476175421835" lon="2.600988693615551"><ele>563.0</ele><time>2026-04-22T08:21:43.999Z</time></trkpt><trkpt lat="42.416556930816064" lon="2.6011085019078375"><ele>563.0</ele><time>2026-04-22T08:21:44.999Z</time></trkpt><trkpt lat="42.41666433744332" lon="2.6011024332526302"><ele>563.0</ele><time>2026-04-22T08:21:45.999Z</time></trkpt><trkpt lat="42.41673540137609" lon="2.601035135786554"><ele>563.0</ele><time>2026-04-22T08:21:46.999Z</time></trkpt><trkpt lat="42.41682320254332" lon="2.600968039014389"><ele>563.0</ele><time>2026-04-22T08:21:47.999Z</time></trkpt><trkpt lat="42.41692300889254" lon="2.6008700998055296"><ele>563.0</ele><time>2026-04-22T08:21:48.999Z</time></trkpt><trkpt lat="42.417124975032365" lon="2.6007490552178787"><ele>563.0</ele><time>2026-04-22T08:21:49.999Z</time></trkpt><trkpt lat="42.41728892923385" lon="2.600594475224621"><ele>566.5</ele><time>2026-04-22T08:21:50.999Z</time></trkpt><trkpt lat="42.41742888562867" lon="2.600354904334699"><ele>570.0</ele><time>2026-04-22T08:21:51.999Z</time></trkpt><trkpt lat="42.41758769617714" lon="2.600132201822218"><ele>572.0</ele><time>2026-04-22T08:21:52.999Z</time></trkpt><trkpt lat="42.41770150376821" lon="2.5998681898391984"><ele>574.0</ele><time>2026-04-22T08:21:53.999Z</time></trkpt><trkpt lat="42.41787050872167" lon="2.5996729492498587"><ele>576.0</ele><time>2026-04-22T08:21:54.999Z</time></trkpt><trkpt lat="42.41804900461452" lon="2.599511660906252"><ele>569.0</ele><time>2026-04-22T08:21:55.999Z</time></trkpt><trkpt lat="42.41818137711094" lon="2.599320244197201"><ele>562.0</ele><time>2026-04-22T08:21:56.999Z</time></trkpt><trkpt lat="42.41832065017257" lon="2.599106556970368"><ele>555.0</ele><time>2026-04-22T08:21:57.999Z</time></trkpt><trkpt lat="42.41842548137956" lon="2.5988474598869207"><ele>549.3333333333334</ele><time>2026-04-22T08:21:58.999Z</time></trkpt><trkpt lat="42.418524608476865" lon="2.5985692088623926"><ele>543.6666666666667</ele><time>2026-04-22T08:21:59.999Z</time></trkpt><trkpt lat="42.41859353919967" lon="2.598304577212388"><ele>538.0</ele><time>2026-04-22T08:22:00.999Z</time></trkpt><trkpt lat="42.418654174617195" lon="2.5980428230518546"><ele>535.6666666666667</ele><time>2026-04-22T08:22:01.999Z</time></trkpt><trkpt lat="42.41869669173537" lon="2.597782468112271"><ele>533.3333333333334</ele><time>2026-04-22T08:22:02.998Z</time></trkpt><trkpt lat="42.41870354202063" lon="2.5975101369459446"><ele>531.0</ele><time>2026-04-22T08:22:03.998Z</time></trkpt><trkpt lat="42.418668878980704" lon="2.597254498989751"><ele>531.0</ele><time>2026-04-22T08:22:04.998Z</time></trkpt><trkpt lat="42.41861164436295" lon="2.5970402139153936"><ele>531.0</ele><time>2026-04-22T08:22:05.998Z</time></trkpt><trkpt lat="42.418543754737094" lon="2.596910483289694"><ele>531.0</ele><time>2026-04-22T08:22:06.998Z</time></trkpt><trkpt lat="42.41845327785133" lon="2.596782044657226"><ele>531.0</ele><time>2026-04-22T08:22:07.998Z</time></trkpt><trkpt lat="42.41839043320577" lon="2.5966422013584367"><ele>530.5</ele><time>2026-04-22T08:22:08.998Z</time></trkpt><trkpt lat="42.418362448541636" lon="2.596502170187654"><ele>530.0</ele><time>2026-04-22T08:22:09.998Z</time></trkpt><trkpt lat="42.41841332445001" lon="2.596332559582052"><ele>529.5</ele><time>2026-04-22T08:22:10.998Z</time></trkpt><trkpt lat="42.41851672406209" lon="2.5961555489138086"><ele>529.0</ele><time>2026-04-22T08:22:12Z</time></trkpt><trkpt lat="42.418643054176066" lon="2.5959887128195387"><ele>527.0</ele><time>2026-04-22T08:22:13Z</time></trkpt><trkpt lat="42.41878774946523" lon="2.595833101121519"><ele>525.0</ele><time>2026-04-22T08:22:14Z</time></trkpt><trkpt lat="42.4189453212969" lon="2.5956919774409415"><ele>523.0</ele><time>2026-04-22T08:22:15Z</time></trkpt><trkpt lat="42.41908584285437" lon="2.595627016972183"><ele>530.6666666666667</ele><time>2026-04-22T08:22:16Z</time></trkpt><trkpt lat="42.41925876496096" lon="2.5955509893779203"><ele>538.3333333333334</ele><time>2026-04-22T08:22:17Z</time></trkpt><trkpt lat="42.41941232687699" lon="2.5954880026726133"><ele>546.0</ele><time>2026-04-22T08:22:18Z</time></trkpt><trkpt lat="42.4195625245071" lon="2.595485559147411"><ele>543.75</ele><time>2026-04-22T08:22:19Z</time></trkpt><trkpt lat="42.41969263995723" lon="2.595495037524042"><ele>541.5</ele><time>2026-04-22T08:22:20Z</time></trkpt><trkpt lat="42.419808080706886" lon="2.595477357024176"><ele>539.25</ele><time>2026-04-22T08:22:21Z</time></trkpt><trkpt lat="42.41991227431775" lon="2.5954237033691268"><ele>537.0</ele><time>2026-04-22T08:22:22Z</time></trkpt><trkpt lat="42.41999705307917" lon="2.5953216956215592"><ele>537.0</ele><time>2026-04-22T08:22:23Z</time></trkpt><trkpt lat="42.4200387819796" lon="2.595197658542642"><ele>537.0</ele><time>2026-04-22T08:22:24Z</time></trkpt><trkpt lat="42.42002180246416" lon="2.595024332257229"><ele>537.0</ele><time>2026-04-22T08:22:25Z</time></trkpt><trkpt lat="42.41999512419703" lon="2.5948002694261336"><ele>537.0</ele><time>2026-04-22T08:22:26Z</time></trkpt><trkpt lat="42.42004699471326" lon="2.5945923652712426"><ele>531.0</ele><time>2026-04-22T08:22:27Z</time></trkpt><trkpt lat="42.42014869476826" lon="2.5943691504587894"><ele>525.0</ele><time>2026-04-22T08:22:28Z</time></trkpt><trkpt lat="42.42019568970968" lon="2.594116158264921"><ele>519.0</ele><time>2026-04-22T08:22:29Z</time></trkpt><trkpt lat="42.42022499614115" lon="2.5938703533109857"><ele>519.0</ele><time>2026-04-22T08:22:30Z</time></trkpt><trkpt lat="42.42022658582373" lon="2.5936744944735017"><ele>519.0</ele><time>2026-04-22T08:22:31Z</time></trkpt><trkpt lat="42.420211977472626" lon="2.5935018115449986"><ele>519.0</ele><time>2026-04-22T08:22:32Z</time></trkpt><trkpt lat="42.42018290180797" lon="2.5933274936494497"><ele>519.0</ele><time>2026-04-22T08:22:33Z</time></trkpt><trkpt lat="42.420186129611466" lon="2.593181638757871"><ele>520.0</ele><time>2026-04-22T08:22:34Z</time></trkpt><trkpt lat="42.420199590662854" lon="2.5930468758692724"><ele>521.0</ele><time>2026-04-22T08:22:35Z</time></trkpt><trkpt lat="42.420290400361864" lon="2.592931580540082"><ele>522.0</ele><time>2026-04-22T08:22:36Z</time></trkpt><trkpt lat="42.420423907889536" lon="2.5928542250498876"><ele>523.0</ele><time>2026-04-22T08:22:37Z</time></trkpt><trkpt lat="42.420579279894824" lon="2.592808676916744"><ele>523.0</ele><time>2026-04-22T08:22:38Z</time></trkpt><trkpt lat="42.42071356742926" lon="2.5927484524716022"><ele>523.0</ele><time>2026-04-22T08:22:39Z</time></trkpt><trkpt lat="42.42083234959181" lon="2.5926320190258"><ele>523.0</ele><time>2026-04-22T08:22:40Z</time></trkpt><trkpt lat="42.420919009197725" lon="2.592509040918763"><ele>523.0</ele><time>2026-04-22T08:22:41Z</time></trkpt><trkpt lat="42.42096239598131" lon="2.5923628131357104"><ele>523.0</ele><time>2026-04-22T08:22:42Z</time></trkpt><trkpt lat="42.42096177534612" lon="2.592176925454473"><ele>523.0</ele><time>2026-04-22T08:22:43Z</time></trkpt><trkpt lat="42.42097017483643" lon="2.5919958705560093"><ele>523.0</ele><time>2026-04-22T08:22:44Z</time></trkpt><trkpt lat="42.42103167799413" lon="2.59182510965123"><ele>523.0</ele><time>2026-04-22T08:22:45Z</time></trkpt><trkpt lat="42.421138886902725" lon="2.59167604889276"><ele>515.6666666666667</ele><time>2026-04-22T08:22:46Z</time></trkpt><trkpt lat="42.42123283791673" lon="2.5915062044252606"><ele>508.33333333333337</ele><time>2026-04-22T08:22:47Z</time></trkpt><trkpt lat="42.42127167217648" lon="2.591305519431526"><ele>501.0</ele><time>2026-04-22T08:22:48Z</time></trkpt><trkpt lat="42.421265053790435" lon="2.591085907520342"><ele>493.66666666666663</ele><time>2026-04-22T08:22:49Z</time></trkpt><trkpt lat="42.42124586237882" lon="2.5908503822386715"><ele>486.3333333333333</ele><time>2026-04-22T08:22:50Z</time></trkpt><trkpt lat="42.42122379755197" lon="2.590631707987586"><ele>479.0</ele><time>2026-04-22T08:22:51Z</time></trkpt><trkpt lat="42.42122350189492" lon="2.5904507365493377"><ele>476.0</ele><time>2026-04-22T08:22:52Z</time></trkpt><trkpt lat="42.42126000379505" lon="2.5902709029284536"><ele>473.0</ele><time>2026-04-22T08:22:53Z</time></trkpt><trkpt lat="42.42134164607186" lon="2.590103463605246"><ele>470.0</ele><time>2026-04-22T08:22:54Z</time></trkpt><trkpt lat="42.42143168936536" lon="2.5899362669710673"><ele>467.0</ele><time>2026-04-22T08:22:55Z</time></trkpt><trkpt lat="42.42151370423313" lon="2.5897838540503506"><ele>475.75</ele><time>2026-04-22T08:22:56Z</time></trkpt><trkpt lat="42.42160655723376" lon="2.5896662834173307"><ele>484.5</ele><time>2026-04-22T08:22:57Z</time></trkpt><trkpt lat="42.42172169407678" lon="2.5895997610063017"><ele>493.25</ele><time>2026-04-22T08:22:58Z</time></trkpt><trkpt lat="42.421864547460224" lon="2.589613873316992"><ele>502.0</ele><time>2026-04-22T08:22:59Z</time></trkpt><trkpt lat="42.42202237736714" lon="2.589608906700973"><ele>502.0</ele><time>2026-04-22T08:23:00Z</time></trkpt><trkpt lat="42.4221839028113" lon="2.5896533685753504"><ele>502.0</ele><time>2026-04-22T08:23:00.999Z</time></trkpt><trkpt lat="42.42232329778957" lon="2.5897361353011092"><ele>502.0</ele><time>2026-04-22T08:23:01.999Z</time></trkpt><trkpt lat="42.422443146338914" lon="2.5898588112334315"><ele>502.0</ele><time>2026-04-22T08:23:02.999Z</time></trkpt><trkpt lat="42.422532137501044" lon="2.5900440340730846"><ele>502.0</ele><time>2026-04-22T08:23:03.999Z</time></trkpt><trkpt lat="42.422650322450274" lon="2.5902094527376924"><ele>502.0</ele><time>2026-04-22T08:23:04.999Z</time></trkpt><trkpt lat="42.422780862226816" lon="2.5903812581754866"><ele>500.33333333333337</ele><time>2026-04-22T08:23:05.999Z</time></trkpt><trkpt lat="42.42291364650575" lon="2.5905376930479247"><ele>498.66666666666663</ele><time>2026-04-22T08:23:06.999Z</time></trkpt><trkpt lat="42.423039947921986" lon="2.5907034932304462"><ele>497.0</ele><time>2026-04-22T08:23:07.999Z</time></trkpt><trkpt lat="42.42321414141507" lon="2.5908451877506375"><ele>497.0</ele><time>2026-04-22T08:23:08.999Z</time></trkpt><trkpt lat="42.423422523956695" lon="2.5909220398482997"><ele>497.0</ele><time>2026-04-22T08:23:09.999Z</time></trkpt><trkpt lat="42.423598433590435" lon="2.591060101532961"><ele>497.0</ele><time>2026-04-22T08:23:10.999Z</time></trkpt><trkpt lat="42.423739866478535" lon="2.5912407281267686"><ele>498.66666666666663</ele><time>2026-04-22T08:23:11.999Z</time></trkpt><trkpt lat="42.42390159937831" lon="2.5913972443933866"><ele>500.33333333333337</ele><time>2026-04-22T08:23:12.999Z</time></trkpt><trkpt lat="42.42409173546078" lon="2.591525825168339"><ele>502.0</ele><time>2026-04-22T08:23:13.999Z</time></trkpt><trkpt lat="42.42426099223015" lon="2.5916373582953556"><ele>502.0</ele><time>2026-04-22T08:23:14.999Z</time></trkpt><trkpt lat="42.42441178673665" lon="2.591731877353825"><ele>502.0</ele><time>2026-04-22T08:23:15.999Z</time></trkpt><trkpt lat="42.42453797943925" lon="2.591839204768956"><ele>502.0</ele><time>2026-04-22T08:23:16.999Z</time></trkpt><trkpt lat="42.42466450789097" lon="2.5919496706727045"><ele>490.33333333333337</ele><time>2026-04-22T08:23:17.999Z</time></trkpt><trkpt lat="42.424840276931015" lon="2.591977381672047"><ele>478.66666666666663</ele><time>2026-04-22T08:23:18.999Z</time></trkpt><trkpt lat="42.42502597226361" lon="2.591962931930064"><ele>467.0</ele><time>2026-04-22T08:23:19.999Z</time></trkpt><trkpt lat="42.42522840711776" lon="2.591959538018993"><ele>467.0</ele><time>2026-04-22T08:23:20.999Z</time></trkpt><trkpt lat="42.42543555675437" lon="2.5919668190127103"><ele>467.0</ele><time>2026-04-22T08:23:21.999Z</time></trkpt><trkpt lat="42.42564207883037" lon="2.591945296726573"><ele>467.0</ele><time>2026-04-22T08:23:22.999Z</time></trkpt><trkpt lat="42.4258455473136" lon="2.591854916797956"><ele>465.66666666666663</ele><time>2026-04-22T08:23:23.999Z</time></trkpt><trkpt lat="42.42604310452178" lon="2.5918582177878635"><ele>464.33333333333337</ele><time>2026-04-22T08:23:24.999Z</time></trkpt><trkpt lat="42.42624675921508" lon="2.591831557037365"><ele>463.0</ele><time>2026-04-22T08:23:25.999Z</time></trkpt><trkpt lat="42.426433355362484" lon="2.59183384762923"><ele>461.0</ele><time>2026-04-22T08:23:26.999Z</time></trkpt><trkpt lat="42.42659084130456" lon="2.591863041732594"><ele>459.0</ele><time>2026-04-22T08:23:27.999Z</time></trkpt><trkpt lat="42.42673917460444" lon="2.591860390616847"><ele>457.0</ele><time>2026-04-22T08:23:28.999Z</time></trkpt><trkpt lat="42.42688242158228" lon="2.5919110042404485"><ele>455.75</ele><time>2026-04-22T08:23:29.999Z</time></trkpt><trkpt lat="42.42701926466322" lon="2.5920068349959116"><ele>454.5</ele><time>2026-04-22T08:23:30.999Z</time></trkpt><trkpt lat="42.42713035171893" lon="2.5921087977865085"><ele>453.25</ele><time>2026-04-22T08:23:31.999Z</time></trkpt><trkpt lat="42.42722105180614" lon="2.5922228036465302"><ele>452.0</ele><time>2026-04-22T08:23:32.999Z</time></trkpt><trkpt lat="42.427274851882615" lon="2.5923592533498003"><ele>452.0</ele><time>2026-04-22T08:23:33.999Z</time></trkpt><trkpt lat="42.42728300913606" lon="2.5925471948876884"><ele>452.0</ele><time>2026-04-22T08:23:34.999Z</time></trkpt><trkpt lat="42.4272747057571" lon="2.5927521081194054"><ele>452.0</ele><time>2026-04-22T08:23:35.999Z</time></trkpt><trkpt lat="42.42727378887859" lon="2.5929449905752904"><ele>452.0</ele><time>2026-04-22T08:23:36.999Z</time></trkpt><trkpt lat="42.42729677602812" lon="2.5931495289275306"><ele>455.66666666666663</ele><time>2026-04-22T08:23:37.999Z</time></trkpt><trkpt lat="42.4273738661399" lon="2.5933415085093334"><ele>459.33333333333337</ele><time>2026-04-22T08:23:38.999Z</time></trkpt><trkpt lat="42.4274421047944" lon="2.593547179752756"><ele>463.0</ele><time>2026-04-22T08:23:39.999Z</time></trkpt><trkpt lat="42.427482171388085" lon="2.593725495593496"><ele>470.6666666666667</ele><time>2026-04-22T08:23:40.999Z</time></trkpt><trkpt lat="42.427567432179444" lon="2.5938886800246976"><ele>478.33333333333337</ele><time>2026-04-22T08:23:41.999Z</time></trkpt><trkpt lat="42.427742454014925" lon="2.593980751265836"><ele>486.0</ele><time>2026-04-22T08:23:42.999Z</time></trkpt><trkpt lat="42.42788609874036" lon="2.5941168742192393"><ele>479.66666666666663</ele><time>2026-04-22T08:23:43.999Z</time></trkpt><trkpt lat="42.42799277565236" lon="2.5942933343801577"><ele>473.3333333333333</ele><time>2026-04-22T08:23:44.999Z</time></trkpt><trkpt lat="42.42811120360031" lon="2.5944604032219414"><ele>467.0</ele><time>2026-04-22T08:23:45.999Z</time></trkpt><trkpt lat="42.428219838164864" lon="2.5946082690084324"><ele>467.0</ele><time>2026-04-22T08:23:46.999Z</time></trkpt><trkpt lat="42.428310850195366" lon="2.5947163461885374"><ele>467.0</ele><time>2026-04-22T08:23:47.999Z</time></trkpt><trkpt lat="42.42838538332788" lon="2.594862394611815"><ele>467.0</ele><time>2026-04-22T08:23:48.999Z</time></trkpt><trkpt lat="42.42843546458664" lon="2.5950190495296916"><ele>467.0</ele><time>2026-04-22T08:23:49.999Z</time></trkpt><trkpt lat="42.42846767356937" lon="2.5951543262703605"><ele>467.0</ele><time>2026-04-22T08:23:50.999Z</time></trkpt><trkpt lat="42.42852241401894" lon="2.5952515146202577"><ele>467.00000000000006</ele><time>2026-04-22T08:23:51.999Z</time></trkpt><trkpt lat="42.4286041113736" lon="2.595304711338404"><ele>467.00000000000006</ele><time>2026-04-22T08:23:52.999Z</time></trkpt><trkpt lat="42.42869007378475" lon="2.5952874648847417"><ele>467.0</ele><time>2026-04-22T08:23:53.999Z</time></trkpt><trkpt lat="42.42876574002819" lon="2.59520127105874"><ele>467.0</ele><time>2026-04-22T08:23:54.999Z</time></trkpt><trkpt lat="42.4288319965119" lon="2.595065276751767"><ele>466.75</ele><time>2026-04-22T08:23:55.999Z</time></trkpt><trkpt lat="42.42892408843603" lon="2.5949377069158306"><ele>466.5</ele><time>2026-04-22T08:23:56.999Z</time></trkpt><trkpt lat="42.42904758247073" lon="2.594841723067333"><ele>466.25</ele><time>2026-04-22T08:23:57.999Z</time></trkpt><trkpt lat="42.42918782378417" lon="2.594749089410818"><ele>466.0</ele><time>2026-04-22T08:23:58.999Z</time></trkpt><trkpt lat="42.42933449107704" lon="2.594635888933291"><ele>460.6666666666667</ele><time>2026-04-22T08:23:59.999Z</time></trkpt><trkpt lat="42.42946433567165" lon="2.5944999139656266"><ele>455.33333333333337</ele><time>2026-04-22T08:24:00.999Z</time></trkpt><trkpt lat="42.429602449401486" lon="2.594401028644671"><ele>450.0</ele><time>2026-04-22T08:24:01.999Z</time></trkpt><trkpt lat="42.4297283153879" lon="2.5943196739977217"><ele>450.0</ele><time>2026-04-22T08:24:02.999Z</time></trkpt><trkpt lat="42.42982389791177" lon="2.594155081386246"><ele>450.0</ele><time>2026-04-22T08:24:03.999Z</time></trkpt><trkpt lat="42.42990930845567" lon="2.593966500431514"><ele>450.0</ele><time>2026-04-22T08:24:04.999Z</time></trkpt><trkpt lat="42.42996370102347" lon="2.5937326925213973"><ele>440.0</ele><time>2026-04-22T08:24:05.999Z</time></trkpt><trkpt lat="42.430010130575916" lon="2.593482052931285"><ele>430.0</ele><time>2026-04-22T08:24:06.999Z</time></trkpt><trkpt lat="42.43008096458419" lon="2.593241791769103"><ele>420.0</ele><time>2026-04-22T08:24:07.999Z</time></trkpt><trkpt lat="42.430168556962" lon="2.5930361000405364"><ele>420.0</ele><time>2026-04-22T08:24:08.999Z</time></trkpt><trkpt lat="42.43024948541453" lon="2.59287155032736"><ele>420.0</ele><time>2026-04-22T08:24:09.999Z</time></trkpt><trkpt lat="42.43032821386458" lon="2.592750544951068"><ele>420.0</ele><time>2026-04-22T08:24:10.998Z</time></trkpt><trkpt lat="42.43042183746998" lon="2.5926818876802837"><ele>420.0</ele><time>2026-04-22T08:24:11.998Z</time></trkpt><trkpt lat="42.43052430290997" lon="2.5926812335464025"><ele>417.0</ele><time>2026-04-22T08:24:12.998Z</time></trkpt><trkpt lat="42.43060909095996" lon="2.5927507326829082"><ele>414.0</ele><time>2026-04-22T08:24:13.998Z</time></trkpt><trkpt lat="42.43065042228242" lon="2.5928744904634624"><ele>411.0</ele><time>2026-04-22T08:24:14.998Z</time></trkpt><trkpt lat="42.430695492792225" lon="2.59305615444896"><ele>408.0</ele><time>2026-04-22T08:24:15.998Z</time></trkpt><trkpt lat="42.43078936390172" lon="2.5932224289803467"><ele>416.66666666666663</ele><time>2026-04-22T08:24:16.998Z</time></trkpt><trkpt lat="42.43090734742494" lon="2.593394497228134"><ele>425.3333333333333</ele><time>2026-04-22T08:24:18Z</time></trkpt><trkpt lat="42.43102840225082" lon="2.593583189566626"><ele>434.0</ele><time>2026-04-22T08:24:19Z</time></trkpt><trkpt lat="42.43112545051085" lon="2.5938212219893955"><ele>440.66666666666663</ele><time>2026-04-22T08:24:20Z</time></trkpt><trkpt lat="42.43125529610263" lon="2.594016978009997"><ele>447.33333333333337</ele><time>2026-04-22T08:24:21Z</time></trkpt><trkpt lat="42.43136148392268" lon="2.5942175068142186"><ele>454.0</ele><time>2026-04-22T08:24:22Z</time></trkpt><trkpt lat="42.4314311022089" lon="2.5944111117738915"><ele>444.6666666666667</ele><time>2026-04-22T08:24:23Z</time></trkpt><trkpt lat="42.43145844107123" lon="2.5946116159165364"><ele>435.33333333333337</ele><time>2026-04-22T08:24:24Z</time></trkpt><trkpt lat="42.431527610772456" lon="2.5948100334550164"><ele>426.0</ele><time>2026-04-22T08:24:25Z</time></trkpt><trkpt lat="42.431674743852966" lon="2.5949456845770325"><ele>426.0</ele><time>2026-04-22T08:24:26Z</time></trkpt><trkpt lat="42.431804196625556" lon="2.595121138978701"><ele>426.0</ele><time>2026-04-22T08:24:27Z</time></trkpt><trkpt lat="42.43188925753205" lon="2.595338113951756"><ele>426.0</ele><time>2026-04-22T08:24:28Z</time></trkpt><trkpt lat="42.431986383648685" lon="2.5955628613400488"><ele>430.5</ele><time>2026-04-22T08:24:29Z</time></trkpt><trkpt lat="42.43209122051389" lon="2.595717701418683"><ele>435.0</ele><time>2026-04-22T08:24:30Z</time></trkpt><trkpt lat="42.43218754770096" lon="2.595831668295489"><ele>439.5</ele><time>2026-04-22T08:24:31Z</time></trkpt><trkpt lat="42.43223104594977" lon="2.595965545247696"><ele>444.0</ele><time>2026-04-22T08:24:32Z</time></trkpt><trkpt lat="42.43221462769923" lon="2.596119732927242"><ele>437.0</ele><time>2026-04-22T08:24:33Z</time></trkpt><trkpt lat="42.43226187787143" lon="2.596266448853761"><ele>430.0</ele><time>2026-04-22T08:24:34Z</time></trkpt><trkpt lat="42.43237001207636" lon="2.5963527723727045"><ele>423.0</ele><time>2026-04-22T08:24:35Z</time></trkpt><trkpt lat="42.432488115628686" lon="2.5964064424574946"><ele>416.0</ele><time>2026-04-22T08:24:36Z</time></trkpt><trkpt lat="42.43261429634872" lon="2.5964379767725014"><ele>416.0</ele><time>2026-04-22T08:24:37Z</time></trkpt><trkpt lat="42.43272308902873" lon="2.5965276246855016"><ele>416.0</ele><time>2026-04-22T08:24:38Z</time></trkpt><trkpt lat="42.43279912479055" lon="2.5966677656237476"><ele>416.0</ele><time>2026-04-22T08:24:39Z</time></trkpt><trkpt lat="42.432813015358924" lon="2.5968318488407647"><ele>416.0</ele><time>2026-04-22T08:24:40Z</time></trkpt><trkpt lat="42.43280466691838" lon="2.596934936815343"><ele>417.0</ele><time>2026-04-22T08:24:41Z</time></trkpt><trkpt lat="42.43280935471292" lon="2.597056253977085"><ele>418.0</ele><time>2026-04-22T08:24:42Z</time></trkpt><trkpt lat="42.43285730427237" lon="2.5971404630313852"><ele>419.0</ele><time>2026-04-22T08:24:43Z</time></trkpt><trkpt lat="42.432931551127275" lon="2.5972080383746974"><ele>420.0</ele><time>2026-04-22T08:24:44Z</time></trkpt><trkpt lat="42.433058248001025" lon="2.5971934813388673"><ele>421.0</ele><time>2026-04-22T08:24:45Z</time></trkpt><trkpt lat="42.43319564533294" lon="2.5970973334171"><ele>421.0</ele><time>2026-04-22T08:24:46Z</time></trkpt><trkpt lat="42.43332929304601" lon="2.5970364122111342"><ele>421.0</ele><time>2026-04-22T08:24:47Z</time></trkpt><trkpt lat="42.433478309129505" lon="2.5970143728215906"><ele>421.0</ele><time>2026-04-22T08:24:48Z</time></trkpt><trkpt lat="42.43366404096689" lon="2.5970056559804178"><ele>406.6666666666667</ele><time>2026-04-22T08:24:49Z</time></trkpt><trkpt lat="42.43386184256775" lon="2.5969958007120946"><ele>392.33333333333337</ele><time>2026-04-22T08:24:50Z</time></trkpt><trkpt lat="42.43403687483892" lon="2.59689220980756"><ele>378.0</ele><time>2026-04-22T08:24:51Z</time></trkpt><trkpt lat="42.43411727350242" lon="2.5968362225036326"><ele>378.0</ele><time>2026-04-22T08:24:52Z</time></trkpt><trkpt lat="42.43422903194172" lon="2.5967824699223874"><ele>378.0</ele><time>2026-04-22T08:24:53Z</time></trkpt><trkpt lat="42.43445013210906" lon="2.596866517749697"><ele>378.0</ele><time>2026-04-22T08:24:55Z</time></trkpt><trkpt lat="42.434691983635" lon="2.5969009302787387"><ele>376.3333333333333</ele><time>2026-04-22T08:24:56Z</time></trkpt><trkpt lat="42.434878700363335" lon="2.5968418179658856"><ele>374.66666666666663</ele><time>2026-04-22T08:24:57Z</time></trkpt><trkpt lat="42.4350291414788" lon="2.5968092678261065"><ele>373.0</ele><time>2026-04-22T08:24:58Z</time></trkpt><trkpt lat="42.435179491850725" lon="2.5968394601710707"><ele>373.0</ele><time>2026-04-22T08:24:59Z</time></trkpt><trkpt lat="42.435332615754604" lon="2.596855020751581"><ele>373.0</ele><time>2026-04-22T08:25:00Z</time></trkpt><trkpt lat="42.435492653353705" lon="2.5968156333081533"><ele>373.0</ele><time>2026-04-22T08:25:01Z</time></trkpt><trkpt lat="42.435663186339454" lon="2.596761571844825"><ele>372.5</ele><time>2026-04-22T08:25:02Z</time></trkpt><trkpt lat="42.4358074212836" lon="2.596693174657679"><ele>372.0</ele><time>2026-04-22T08:25:03Z</time></trkpt><trkpt lat="42.43593818539272" lon="2.596626394214874"><ele>371.5</ele><time>2026-04-22T08:25:04Z</time></trkpt><trkpt lat="42.43605899979602" lon="2.5965713374435064"><ele>371.0</ele><time>2026-04-22T08:25:05Z</time></trkpt><trkpt lat="42.436163434986256" lon="2.5965243197839016"><ele>371.0</ele><time>2026-04-22T08:25:05.999Z</time></trkpt><trkpt lat="42.43625656664322" lon="2.5964894373968863"><ele>371.0</ele><time>2026-04-22T08:25:06.999Z</time></trkpt><trkpt lat="42.43633384544158" lon="2.5964226172169966"><ele>371.0</ele><time>2026-04-22T08:25:07.999Z</time></trkpt><trkpt lat="42.43634893131103" lon="2.596279810196305"><ele>371.0</ele><time>2026-04-22T08:25:08.999Z</time></trkpt><trkpt lat="42.436344443620385" lon="2.5961502672579515"><ele>371.0</ele><time>2026-04-22T08:25:09.999Z</time></trkpt><trkpt lat="42.43630227889612" lon="2.5960371010578815"><ele>368.0</ele><time>2026-04-22T08:25:10.999Z</time></trkpt><trkpt lat="42.436224141621004" lon="2.595960690423677"><ele>365.0</ele><time>2026-04-22T08:25:11.999Z</time></trkpt><trkpt lat="42.4361215320792" lon="2.595932323675996"><ele>362.0</ele><time>2026-04-22T08:25:12.999Z</time></trkpt><trkpt lat="42.43602120770534" lon="2.595971911435487"><ele>359.0</ele><time>2026-04-22T08:25:13.999Z</time></trkpt><trkpt lat="42.435903942993775" lon="2.596060281338105"><ele>356.0</ele><time>2026-04-22T08:25:14.999Z</time></trkpt><trkpt lat="42.43577249339521" lon="2.596168508682369"><ele>361.0</ele><time>2026-04-22T08:25:15.999Z</time></trkpt><trkpt lat="42.4356205882745" lon="2.5962504716029886"><ele>366.0</ele><time>2026-04-22T08:25:16.999Z</time></trkpt><trkpt lat="42.4354618908144" lon="2.5962805942126352"><ele>371.0</ele><time>2026-04-22T08:25:17.999Z</time></trkpt><trkpt lat="42.43530155554805" lon="2.5962767914455056"><ele>371.5</ele><time>2026-04-22T08:25:18.999Z</time></trkpt><trkpt lat="42.435155146916365" lon="2.596319827743337"><ele>372.0</ele><time>2026-04-22T08:25:19.999Z</time></trkpt><trkpt lat="42.43505066486729" lon="2.5964040424658434"><ele>372.5</ele><time>2026-04-22T08:25:20.999Z</time></trkpt><trkpt lat="42.43495432003297" lon="2.5964182331266827"><ele>373.0</ele><time>2026-04-22T08:25:21.999Z</time></trkpt><trkpt lat="42.43486648911111" lon="2.596384035946325"><ele>373.0</ele><time>2026-04-22T08:25:22.999Z</time></trkpt><trkpt lat="42.43480593667554" lon="2.5963020954837486"><ele>373.0</ele><time>2026-04-22T08:25:23.999Z</time></trkpt><trkpt lat="42.434814242099556" lon="2.5961890918771986"><ele>373.0</ele><time>2026-04-22T08:25:24.999Z</time></trkpt><trkpt lat="42.434792122946405" lon="2.596052458277788"><ele>373.0</ele><time>2026-04-22T08:25:25.999Z</time></trkpt><trkpt lat="42.43478504312715" lon="2.5959356568164687"><ele>373.0</ele><time>2026-04-22T08:25:26.999Z</time></trkpt><trkpt lat="42.434778360947995" lon="2.5958311439561403"><ele>373.0</ele><time>2026-04-22T08:25:27.999Z</time></trkpt><trkpt lat="42.434769615222635" lon="2.5957286832442197"><ele>371.59999999999997</ele><time>2026-04-22T08:25:28.999Z</time></trkpt><trkpt lat="42.434764171565746" lon="2.5956254028538566"><ele>370.2</ele><time>2026-04-22T08:25:29.999Z</time></trkpt><trkpt lat="42.43476383981948" lon="2.595506870021001"><ele>368.8</ele><time>2026-04-22T08:25:30.999Z</time></trkpt><trkpt lat="42.434789356049095" lon="2.5953905409070357"><ele>367.4</ele><time>2026-04-22T08:25:31.999Z</time></trkpt><trkpt lat="42.43486344147396" lon="2.595291718880837"><ele>366.0</ele><time>2026-04-22T08:25:32.999Z</time></trkpt><trkpt lat="42.434966263230436" lon="2.595187392997879"><ele>366.0</ele><time>2026-04-22T08:25:33.999Z</time></trkpt><trkpt lat="42.43507991987462" lon="2.5950683368141756"><ele>366.0</ele><time>2026-04-22T08:25:34.999Z</time></trkpt><trkpt lat="42.435192064708836" lon="2.5949390900242304"><ele>366.0</ele><time>2026-04-22T08:25:35.999Z</time></trkpt><trkpt lat="42.43530345511716" lon="2.5948241089596995"><ele>366.0</ele><time>2026-04-22T08:25:36.999Z</time></trkpt><trkpt lat="42.43543544591772" lon="2.59472566760923"><ele>365.6</ele><time>2026-04-22T08:25:37.999Z</time></trkpt><trkpt lat="42.43554664491415" lon="2.5946168027582357"><ele>365.20000000000005</ele><time>2026-04-22T08:25:38.999Z</time></trkpt><trkpt lat="42.43562741661059" lon="2.5945160102880873"><ele>364.79999999999995</ele><time>2026-04-22T08:25:39.999Z</time></trkpt><trkpt lat="42.435698332252976" lon="2.594434294513422"><ele>364.4</ele><time>2026-04-22T08:25:40.999Z</time></trkpt><trkpt lat="42.43576213030992" lon="2.5943772877959463"><ele>364.0</ele><time>2026-04-22T08:25:41.999Z</time></trkpt><trkpt lat="42.435803283760954" lon="2.594304184268074"><ele>364.0</ele><time>2026-04-22T08:25:42.999Z</time></trkpt><trkpt lat="42.43581711873145" lon="2.5941790180457103"><ele>364.0</ele><time>2026-04-22T08:25:44.999Z</time></trkpt><trkpt lat="42.43578530749714" lon="2.594079401757546"><ele>364.0</ele><time>2026-04-22T08:26:44Z</time></trkpt><trkpt lat="42.43565853762506" lon="2.5941383190365395"><ele>364.0</ele><time>2026-04-22T08:26:45Z</time></trkpt><trkpt lat="42.43558625597398" lon="2.594220806627868"><ele>364.0</ele><time>2026-04-22T08:26:46Z</time></trkpt><trkpt lat="42.43551019775205" lon="2.5943113298911524"><ele>364.5</ele><time>2026-04-22T08:26:47Z</time></trkpt><trkpt lat="42.435433773075644" lon="2.594417671639927"><ele>365.0</ele><time>2026-04-22T08:26:48Z</time></trkpt><trkpt lat="42.43535518368231" lon="2.594538500998433"><ele>365.5</ele><time>2026-04-22T08:26:49Z</time></trkpt><trkpt lat="42.43526480863529" lon="2.594657492527941"><ele>366.0</ele><time>2026-04-22T08:26:50Z</time></trkpt><trkpt lat="42.43516190870459" lon="2.594765763524736"><ele>366.0</ele><time>2026-04-22T08:26:51Z</time></trkpt><trkpt lat="42.435044886595804" lon="2.5948914235046976"><ele>366.0</ele><time>2026-04-22T08:26:52Z</time></trkpt><trkpt lat="42.43493282183859" lon="2.595025928956755"><ele>366.0</ele><time>2026-04-22T08:26:53Z</time></trkpt><trkpt lat="42.434835494274495" lon="2.5951561231820306"><ele>366.0</ele><time>2026-04-22T08:26:54Z</time></trkpt><trkpt lat="42.43473663939333" lon="2.595273550354317"><ele>366.5</ele><time>2026-04-22T08:26:55Z</time></trkpt><trkpt lat="42.43462193047878" lon="2.5953392759797125"><ele>367.0</ele><time>2026-04-22T08:26:56Z</time></trkpt><trkpt lat="42.43450028893529" lon="2.5953514141568714"><ele>367.5</ele><time>2026-04-22T08:26:57Z</time></trkpt><trkpt lat="42.434391823771875" lon="2.59529705942563"><ele>368.0</ele><time>2026-04-22T08:26:58Z</time></trkpt><trkpt lat="42.434290999145546" lon="2.5951834005864414"><ele>368.0</ele><time>2026-04-22T08:26:59Z</time></trkpt><trkpt lat="42.43420524134798" lon="2.595022221651826"><ele>368.0</ele><time>2026-04-22T08:27:00Z</time></trkpt><trkpt lat="42.43412502735121" lon="2.59484990868032"><ele>368.0</ele><time>2026-04-22T08:27:01Z</time></trkpt><trkpt lat="42.434016574241234" lon="2.5946689815683985"><ele>368.6666666666667</ele><time>2026-04-22T08:27:02Z</time></trkpt><trkpt lat="42.43390510902569" lon="2.5944790314619324"><ele>369.3333333333333</ele><time>2026-04-22T08:27:03Z</time></trkpt><trkpt lat="42.433793361775706" lon="2.594280077355318"><ele>370.0</ele><time>2026-04-22T08:27:04Z</time></trkpt><trkpt lat="42.43367634102641" lon="2.594074276716991"><ele>370.0</ele><time>2026-04-22T08:27:05Z</time></trkpt><trkpt lat="42.43356456969001" lon="2.593871506417878"><ele>370.0</ele><time>2026-04-22T08:27:06Z</time></trkpt><trkpt lat="42.433452248886695" lon="2.5936626220948895"><ele>370.0</ele><time>2026-04-22T08:27:07Z</time></trkpt><trkpt lat="42.433346864071375" lon="2.5934480563305895"><ele>374.66666666666663</ele><time>2026-04-22T08:27:08Z</time></trkpt><trkpt lat="42.43327020287669" lon="2.59323705973519"><ele>379.3333333333333</ele><time>2026-04-22T08:27:09Z</time></trkpt><trkpt lat="42.43318434903502" lon="2.593047100011721"><ele>384.0</ele><time>2026-04-22T08:27:10Z</time></trkpt><trkpt lat="42.43312694215184" lon="2.592857372801975"><ele>387.0</ele><time>2026-04-22T08:27:11Z</time></trkpt><trkpt lat="42.43311699307424" lon="2.5926590334664628"><ele>390.0</ele><time>2026-04-22T08:27:12Z</time></trkpt><trkpt lat="42.43314627834134" lon="2.5924497094718455"><ele>393.0</ele><time>2026-04-22T08:27:12.999Z</time></trkpt><trkpt lat="42.43320801667301" lon="2.5922356273336367"><ele>393.0</ele><time>2026-04-22T08:27:13.999Z</time></trkpt><trkpt lat="42.433279054054786" lon="2.5920128933646387"><ele>393.0</ele><time>2026-04-22T08:27:14.999Z</time></trkpt><trkpt lat="42.433341216723015" lon="2.591781799240133"><ele>393.0</ele><time>2026-04-22T08:27:15.999Z</time></trkpt><trkpt lat="42.43338993999758" lon="2.5915701347959543"><ele>393.5</ele><time>2026-04-22T08:27:16.999Z</time></trkpt><trkpt lat="42.43341630695996" lon="2.5913666488819143"><ele>394.0</ele><time>2026-04-22T08:27:17.999Z</time></trkpt><trkpt lat="42.433403944876154" lon="2.5911807058970564"><ele>394.5</ele><time>2026-04-22T08:27:18.999Z</time></trkpt><trkpt lat="42.43335951658234" lon="2.5910111206332584"><ele>395.0</ele><time>2026-04-22T08:27:19.999Z</time></trkpt><trkpt lat="42.4332843193017" lon="2.590856582027322"><ele>395.0</ele><time>2026-04-22T08:27:20.999Z</time></trkpt><trkpt lat="42.43317784463696" lon="2.5907442144971946"><ele>395.0</ele><time>2026-04-22T08:27:21.999Z</time></trkpt><trkpt lat="42.43304753376005" lon="2.590673512938609"><ele>395.0</ele><time>2026-04-22T08:27:22.999Z</time></trkpt><trkpt lat="42.43290045940336" lon="2.5906506922052643"><ele>395.0</ele><time>2026-04-22T08:27:23.999Z</time></trkpt><trkpt lat="42.43274094080297" lon="2.590670508657614"><ele>391.66666666666663</ele><time>2026-04-22T08:27:24.999Z</time></trkpt><trkpt lat="42.43256839996351" lon="2.5906919683301277"><ele>388.33333333333337</ele><time>2026-04-22T08:27:25.999Z</time></trkpt><trkpt lat="42.43238608160281" lon="2.590698122560021"><ele>385.0</ele><time>2026-04-22T08:27:26.999Z</time></trkpt><trkpt lat="42.43219299411657" lon="2.5906786831985973"><ele>386.0</ele><time>2026-04-22T08:27:27.999Z</time></trkpt><trkpt lat="42.43199138857646" lon="2.59064257902282"><ele>387.0</ele><time>2026-04-22T08:27:28.999Z</time></trkpt><trkpt lat="42.4317824619167" lon="2.5906371605662977"><ele>388.0</ele><time>2026-04-22T08:27:29.999Z</time></trkpt><trkpt lat="42.43156078920468" lon="2.590646233512915"><ele>388.0</ele><time>2026-04-22T08:27:30.999Z</time></trkpt><trkpt lat="42.43133409145407" lon="2.5906497250826956"><ele>388.0</ele><time>2026-04-22T08:27:31.999Z</time></trkpt><trkpt lat="42.43110534988968" lon="2.590719083376745"><ele>395.5</ele><time>2026-04-22T08:27:32.999Z</time></trkpt><trkpt lat="42.43086783448613" lon="2.5907416649429824"><ele>403.0</ele><time>2026-04-22T08:27:33.999Z</time></trkpt><trkpt lat="42.430626195489154" lon="2.5907392638879543"><ele>406.0</ele><time>2026-04-22T08:27:34.999Z</time></trkpt><trkpt lat="42.43040172380049" lon="2.5907247553827766"><ele>409.0</ele><time>2026-04-22T08:27:35.999Z</time></trkpt><trkpt lat="42.430285040047266" lon="2.590774468564506"><ele>412.0</ele><time>2026-04-22T08:27:36.999Z</time></trkpt><trkpt lat="42.430091356785724" lon="2.5908195085552252"><ele>412.0</ele><time>2026-04-22T08:27:37.999Z</time></trkpt><trkpt lat="42.4299022680619" lon="2.590908367219957"><ele>412.0</ele><time>2026-04-22T08:27:38.999Z</time></trkpt><trkpt lat="42.429728304308036" lon="2.5910204526502087"><ele>412.0</ele><time>2026-04-22T08:27:39.999Z</time></trkpt><trkpt lat="42.42958525170465" lon="2.5911587190399414"><ele>409.0</ele><time>2026-04-22T08:27:40.999Z</time></trkpt><trkpt lat="42.42947476221553" lon="2.5913172452093205"><ele>406.0</ele><time>2026-04-22T08:27:41.999Z</time></trkpt><trkpt lat="42.42939133833172" lon="2.591460810122801"><ele>403.0</ele><time>2026-04-22T08:27:42.999Z</time></trkpt><trkpt lat="42.4293166613599" lon="2.591573358015084"><ele>400.0</ele><time>2026-04-22T08:27:43.999Z</time></trkpt><trkpt lat="42.42920848328506" lon="2.591618963930443"><ele>400.0</ele><time>2026-04-22T08:27:44.999Z</time></trkpt><trkpt lat="42.42910627738066" lon="2.591587818578695"><ele>400.0</ele><time>2026-04-22T08:27:45.999Z</time></trkpt><trkpt lat="42.42903009063666" lon="2.5915241045253423"><ele>400.0</ele><time>2026-04-22T08:27:46.999Z</time></trkpt><trkpt lat="42.42896413393541" lon="2.5914129780170487"><ele>400.0</ele><time>2026-04-22T08:27:47.999Z</time></trkpt><trkpt lat="42.42897260737812" lon="2.5912558134679444"><ele>400.0</ele><time>2026-04-22T08:27:48.999Z</time></trkpt><trkpt lat="42.428989559558936" lon="2.591111184376208"><ele>404.6666666666667</ele><time>2026-04-22T08:27:49.999Z</time></trkpt><trkpt lat="42.429027385311294" lon="2.5909280585350465"><ele>409.33333333333337</ele><time>2026-04-22T08:27:50.999Z</time></trkpt><trkpt lat="42.42903126092411" lon="2.5907114872923898"><ele>414.0</ele><time>2026-04-22T08:27:51.999Z</time></trkpt><trkpt lat="42.42902285531356" lon="2.5904813361656265"><ele>421.0</ele><time>2026-04-22T08:27:52.999Z</time></trkpt><trkpt lat="42.42902069800487" lon="2.590250124971062"><ele>428.0</ele><time>2026-04-22T08:27:53.999Z</time></trkpt><trkpt lat="42.429021608954564" lon="2.590048531325864"><ele>435.0</ele><time>2026-04-22T08:27:54.999Z</time></trkpt><trkpt lat="42.42898178569232" lon="2.5898774216331506"><ele>435.0</ele><time>2026-04-22T08:27:55.999Z</time></trkpt><trkpt lat="42.428930132464586" lon="2.5897014295296157"><ele>435.0</ele><time>2026-04-22T08:27:56.999Z</time></trkpt><trkpt lat="42.42884776834756" lon="2.5895492851619437"><ele>435.0</ele><time>2026-04-22T08:27:57.999Z</time></trkpt><trkpt lat="42.42874112431334" lon="2.58944113079987"><ele>435.0</ele><time>2026-04-22T08:27:58.999Z</time></trkpt><trkpt lat="42.42857990172067" lon="2.589390075287361"><ele>436.33333333333337</ele><time>2026-04-22T08:27:59.999Z</time></trkpt><trkpt lat="42.42841284378402" lon="2.589368090811862"><ele>437.6666666666667</ele><time>2026-04-22T08:28:00.999Z</time></trkpt><trkpt lat="42.42823610217618" lon="2.589362490597473"><ele>439.0</ele><time>2026-04-22T08:28:01.999Z</time></trkpt><trkpt lat="42.42804786009652" lon="2.5893742733780036"><ele>439.0</ele><time>2026-04-22T08:28:02.999Z</time></trkpt><trkpt lat="42.42785225523898" lon="2.5893875058180096"><ele>439.0</ele><time>2026-04-22T08:28:03.999Z</time></trkpt><trkpt lat="42.427651014164006" lon="2.589403329998377"><ele>439.0</ele><time>2026-04-22T08:28:04.999Z</time></trkpt><trkpt lat="42.42743820391068" lon="2.5894257471547406"><ele>439.0</ele><time>2026-04-22T08:28:05.999Z</time></trkpt><trkpt lat="42.427211443606005" lon="2.5894747474209963"><ele>439.0</ele><time>2026-04-22T08:28:06.999Z</time></trkpt><trkpt lat="42.426989258897386" lon="2.5895231841245643"><ele>429.33333333333337</ele><time>2026-04-22T08:28:07.999Z</time></trkpt><trkpt lat="42.426781896530514" lon="2.5895645223312367"><ele>419.66666666666663</ele><time>2026-04-22T08:28:08.999Z</time></trkpt><trkpt lat="42.42660906614366" lon="2.5895979262478286"><ele>410.0</ele><time>2026-04-22T08:28:09.999Z</time></trkpt><trkpt lat="42.42645967272585" lon="2.589615982447225"><ele>410.0</ele><time>2026-04-22T08:28:10.999Z</time></trkpt><trkpt lat="42.426315217879335" lon="2.589598189977286"><ele>410.0</ele><time>2026-04-22T08:28:11.999Z</time></trkpt><trkpt lat="42.42616531633244" lon="2.58949556416618"><ele>410.0</ele><time>2026-04-22T08:28:12.999Z</time></trkpt><trkpt lat="42.4259880911133" lon="2.5894367638265803"><ele>410.0</ele><time>2026-04-22T08:28:13.999Z</time></trkpt><trkpt lat="42.42579966533951" lon="2.5894616466325746"><ele>410.0</ele><time>2026-04-22T08:28:14.999Z</time></trkpt><trkpt lat="42.42561238911654" lon="2.589514339937391"><ele>410.0</ele><time>2026-04-22T08:28:15.999Z</time></trkpt><trkpt lat="42.42543575207945" lon="2.589551340268118"><ele>408.0</ele><time>2026-04-22T08:28:16.999Z</time></trkpt><trkpt lat="42.42528129177846" lon="2.5895690675618646"><ele>406.0</ele><time>2026-04-22T08:28:17.999Z</time></trkpt><trkpt lat="42.42516693573651" lon="2.5895024909072633"><ele>404.0</ele><time>2026-04-22T08:28:18.999Z</time></trkpt><trkpt lat="42.42507916500511" lon="2.589405932443386"><ele>402.0</ele><time>2026-04-22T08:28:19.999Z</time></trkpt><trkpt lat="42.42502127824028" lon="2.5892619589233608"><ele>408.66666666666663</ele><time>2026-04-22T08:28:20.999Z</time></trkpt><trkpt lat="42.424959950614856" lon="2.5890919280627287"><ele>415.3333333333333</ele><time>2026-04-22T08:28:21.999Z</time></trkpt><trkpt lat="42.42491486040502" lon="2.5888856930856616"><ele>422.0</ele><time>2026-04-22T08:28:22.999Z</time></trkpt><trkpt lat="42.424874031644976" lon="2.5886626726214113"><ele>429.3333333333333</ele><time>2026-04-22T08:28:23.998Z</time></trkpt><trkpt lat="42.42483670818648" lon="2.5884426000465037"><ele>436.66666666666663</ele><time>2026-04-22T08:28:24.998Z</time></trkpt><trkpt lat="42.42480201147677" lon="2.588185744110217"><ele>444.0</ele><time>2026-04-22T08:28:25.998Z</time></trkpt><trkpt lat="42.42473637885609" lon="2.587964175765211"><ele>450.66666666666663</ele><time>2026-04-22T08:28:26.998Z</time></trkpt><trkpt lat="42.42466776373297" lon="2.587742488607914"><ele>457.3333333333333</ele><time>2026-04-22T08:28:27.998Z</time></trkpt><trkpt lat="42.42459950078091" lon="2.587544821924696"><ele>464.0</ele><time>2026-04-22T08:28:28.998Z</time></trkpt><trkpt lat="42.42453779246472" lon="2.5873530231398973"><ele>462.0</ele><time>2026-04-22T08:28:30Z</time></trkpt><trkpt lat="42.424462044078616" lon="2.5871923782559616"><ele>460.0</ele><time>2026-04-22T08:28:31Z</time></trkpt><trkpt lat="42.424345252430186" lon="2.587071662608069"><ele>458.0</ele><time>2026-04-22T08:28:32Z</time></trkpt><trkpt lat="42.424210089026154" lon="2.5869543539623874"><ele>456.0</ele><time>2026-04-22T08:28:33Z</time></trkpt><trkpt lat="42.42408073768863" lon="2.586798059429742"><ele>456.0</ele><time>2026-04-22T08:28:34Z</time></trkpt><trkpt lat="42.42396842280784" lon="2.5866118793848845"><ele>456.0</ele><time>2026-04-22T08:28:35Z</time></trkpt><trkpt lat="42.42383175842085" lon="2.5864600083301563"><ele>456.0</ele><time>2026-04-22T08:28:36Z</time></trkpt><trkpt lat="42.42368800964627" lon="2.5863858249725884"><ele>454.25</ele><time>2026-04-22T08:28:37Z</time></trkpt><trkpt lat="42.42354575760149" lon="2.5863371371892887"><ele>452.5</ele><time>2026-04-22T08:28:38Z</time></trkpt><trkpt lat="42.42344138082409" lon="2.5862071542932776"><ele>450.75</ele><time>2026-04-22T08:28:39Z</time></trkpt><trkpt lat="42.42332583156588" lon="2.5860593432506884"><ele>449.0</ele><time>2026-04-22T08:28:40Z</time></trkpt><trkpt lat="42.42322502433149" lon="2.585859739836142"><ele>449.0</ele><time>2026-04-22T08:28:41Z</time></trkpt><trkpt lat="42.42311197265818" lon="2.5856906889917854"><ele>449.0</ele><time>2026-04-22T08:28:42Z</time></trkpt><trkpt lat="42.42298053279543" lon="2.585570253436052"><ele>449.0</ele><time>2026-04-22T08:28:43Z</time></trkpt><trkpt lat="42.422836768857444" lon="2.585499752736739"><ele>443.75</ele><time>2026-04-22T08:28:44Z</time></trkpt><trkpt lat="42.42271415100662" lon="2.5854322835622807"><ele>438.5</ele><time>2026-04-22T08:28:45Z</time></trkpt><trkpt lat="42.4226307038846" lon="2.585316642052422"><ele>433.25</ele><time>2026-04-22T08:28:46Z</time></trkpt><trkpt lat="42.42261065106474" lon="2.585146947181359"><ele>428.0</ele><time>2026-04-22T08:28:47Z</time></trkpt><trkpt lat="42.42260560488763" lon="2.584989481865466"><ele>428.0</ele><time>2026-04-22T08:28:48Z</time></trkpt><trkpt lat="42.422638601606735" lon="2.584818488890899"><ele>428.0</ele><time>2026-04-22T08:28:49Z</time></trkpt><trkpt lat="42.4226573150657" lon="2.584617108411344"><ele>428.0</ele><time>2026-04-22T08:28:50Z</time></trkpt><trkpt lat="42.4226946394455" lon="2.5844019849671094"><ele>428.0</ele><time>2026-04-22T08:28:51Z</time></trkpt><trkpt lat="42.422724536482576" lon="2.5841779889592207"><ele>427.75</ele><time>2026-04-22T08:28:52Z</time></trkpt><trkpt lat="42.42277774257496" lon="2.5839919351417007"><ele>427.5</ele><time>2026-04-22T08:28:53Z</time></trkpt><trkpt lat="42.42283278728613" lon="2.5838158843175862"><ele>427.25</ele><time>2026-04-22T08:28:54Z</time></trkpt><trkpt lat="42.422937075148425" lon="2.583687386858301"><ele>427.0</ele><time>2026-04-22T08:28:55Z</time></trkpt><trkpt lat="42.4230612566639" lon="2.5835490526117657"><ele>434.33333333333337</ele><time>2026-04-22T08:28:56Z</time></trkpt><trkpt lat="42.423176406454886" lon="2.583394086170244"><ele>441.66666666666663</ele><time>2026-04-22T08:28:57Z</time></trkpt><trkpt lat="42.423271626779226" lon="2.583212660186078"><ele>449.0</ele><time>2026-04-22T08:28:58Z</time></trkpt><trkpt lat="42.4233454465604" lon="2.5830342897706444"><ele>449.0</ele><time>2026-04-22T08:28:59Z</time></trkpt><trkpt lat="42.42343798797522" lon="2.5828766796234666"><ele>449.0</ele><time>2026-04-22T08:29:00Z</time></trkpt><trkpt lat="42.42358066230469" lon="2.5827652528642706"><ele>449.0</ele><time>2026-04-22T08:29:01Z</time></trkpt><trkpt lat="42.423687633586674" lon="2.5825993905711946"><ele>451.75</ele><time>2026-04-22T08:29:02Z</time></trkpt><trkpt lat="42.42381208241277" lon="2.5825194135784812"><ele>454.5</ele><time>2026-04-22T08:29:03Z</time></trkpt><trkpt lat="42.4239294313936" lon="2.582486530963723"><ele>457.25</ele><time>2026-04-22T08:29:04Z</time></trkpt><trkpt lat="42.42404193996088" lon="2.5824316734413815"><ele>460.0</ele><time>2026-04-22T08:29:05Z</time></trkpt><trkpt lat="42.42412328941472" lon="2.5823032711048706"><ele>460.0</ele><time>2026-04-22T08:29:06Z</time></trkpt><trkpt lat="42.42416687051033" lon="2.5821427682770706"><ele>460.0</ele><time>2026-04-22T08:29:07Z</time></trkpt><trkpt lat="42.42418659534837" lon="2.581975086273428"><ele>460.0</ele><time>2026-04-22T08:29:08Z</time></trkpt><trkpt lat="42.424122847813635" lon="2.5817800425964954"><ele>460.0</ele><time>2026-04-22T08:29:09Z</time></trkpt><trkpt lat="42.42405095416909" lon="2.581577182724422"><ele>459.0</ele><time>2026-04-22T08:29:10Z</time></trkpt><trkpt lat="42.42398633356982" lon="2.5813660314942424"><ele>458.0</ele><time>2026-04-22T08:29:11Z</time></trkpt><trkpt lat="42.42395623045346" lon="2.581138076697145"><ele>457.0</ele><time>2026-04-22T08:29:12Z</time></trkpt><trkpt lat="42.423993815115566" lon="2.580899940650648"><ele>457.0</ele><time>2026-04-22T08:29:13Z</time></trkpt><trkpt lat="42.424001421209645" lon="2.580669620250242"><ele>457.0</ele><time>2026-04-22T08:29:14Z</time></trkpt><trkpt lat="42.42400054694196" lon="2.580463255474424"><ele>457.0</ele><time>2026-04-22T08:29:15Z</time></trkpt><trkpt lat="42.423941128562525" lon="2.580266474135264"><ele>458.33333333333337</ele><time>2026-04-22T08:29:16Z</time></trkpt><trkpt lat="42.423845353931384" lon="2.5800838893533666"><ele>459.66666666666663</ele><time>2026-04-22T08:29:17Z</time></trkpt><trkpt lat="42.42377578985197" lon="2.579893578410425"><ele>461.0</ele><time>2026-04-22T08:29:18Z</time></trkpt><trkpt lat="42.42374000156661" lon="2.5796915200519286"><ele>460.66666666666663</ele><time>2026-04-22T08:29:19Z</time></trkpt><trkpt lat="42.423751251070925" lon="2.57948674259895"><ele>460.33333333333337</ele><time>2026-04-22T08:29:20Z</time></trkpt><trkpt lat="42.42379486184711" lon="2.5792707777011796"><ele>460.0</ele><time>2026-04-22T08:29:21Z</time></trkpt><trkpt lat="42.42386763321556" lon="2.579054139798932"><ele>460.0</ele><time>2026-04-22T08:29:22Z</time></trkpt><trkpt lat="42.42397190261967" lon="2.578848383064122"><ele>460.0</ele><time>2026-04-22T08:29:23Z</time></trkpt><trkpt lat="42.42410320087403" lon="2.578649540713796"><ele>460.0</ele><time>2026-04-22T08:29:24Z</time></trkpt><trkpt lat="42.42424202438439" lon="2.5784571767008524"><ele>456.0</ele><time>2026-04-22T08:29:24.999Z</time></trkpt><trkpt lat="42.424378021163164" lon="2.5782516109033353"><ele>452.0</ele><time>2026-04-22T08:29:25.999Z</time></trkpt><trkpt lat="42.424503301918506" lon="2.5780423424090544"><ele>448.0</ele><time>2026-04-22T08:29:26.999Z</time></trkpt><trkpt lat="42.42460569323453" lon="2.57781053361712"><ele>457.33333333333337</ele><time>2026-04-22T08:29:27.999Z</time></trkpt><trkpt lat="42.42468203326613" lon="2.5775666928759176"><ele>466.66666666666663</ele><time>2026-04-22T08:29:28.999Z</time></trkpt><trkpt lat="42.424733028329875" lon="2.5772947961991433"><ele>476.0</ele><time>2026-04-22T08:29:29.999Z</time></trkpt><trkpt lat="42.42477249866283" lon="2.5770056360964366"><ele>476.0</ele><time>2026-04-22T08:29:30.999Z</time></trkpt><trkpt lat="42.42481336477502" lon="2.576719787076576"><ele>476.0</ele><time>2026-04-22T08:29:31.999Z</time></trkpt><trkpt lat="42.4248632416015" lon="2.5764610031224064"><ele>476.0</ele><time>2026-04-22T08:29:32.999Z</time></trkpt><trkpt lat="42.42489391496516" lon="2.576246231304692"><ele>475.75</ele><time>2026-04-22T08:29:33.999Z</time></trkpt><trkpt lat="42.424890743510424" lon="2.576044002871491"><ele>475.5</ele><time>2026-04-22T08:29:34.999Z</time></trkpt><trkpt lat="42.424844058537346" lon="2.5758451149632418"><ele>475.25</ele><time>2026-04-22T08:29:35.999Z</time></trkpt><trkpt lat="42.42476920542103" lon="2.5756858340807924"><ele>475.0</ele><time>2026-04-22T08:29:36.999Z</time></trkpt><trkpt lat="42.42467495902716" lon="2.57557750658518"><ele>471.75</ele><time>2026-04-22T08:29:37.999Z</time></trkpt><trkpt lat="42.42455841092091" lon="2.575525203001848"><ele>468.5</ele><time>2026-04-22T08:29:38.999Z</time></trkpt><trkpt lat="42.424417855445505" lon="2.5755141964173656"><ele>465.25</ele><time>2026-04-22T08:29:39.999Z</time></trkpt><trkpt lat="42.42425724011648" lon="2.5755253300597483"><ele>462.0</ele><time>2026-04-22T08:29:40.999Z</time></trkpt><trkpt lat="42.424093130453336" lon="2.5755410286472693"><ele>462.0</ele><time>2026-04-22T08:29:41.999Z</time></trkpt><trkpt lat="42.42393944079809" lon="2.575566165048318"><ele>462.0</ele><time>2026-04-22T08:29:42.999Z</time></trkpt><trkpt lat="42.42378371134539" lon="2.575595147481341"><ele>462.0</ele><time>2026-04-22T08:29:43.999Z</time></trkpt><trkpt lat="42.42363864165567" lon="2.5756048220361123"><ele>458.33333333333337</ele><time>2026-04-22T08:29:44.999Z</time></trkpt><trkpt lat="42.423501962509604" lon="2.575568362904109"><ele>454.6666666666667</ele><time>2026-04-22T08:29:45.999Z</time></trkpt><trkpt lat="42.423371844372284" lon="2.5754448162961014"><ele>451.0</ele><time>2026-04-22T08:29:46.999Z</time></trkpt><trkpt lat="42.42321966132899" lon="2.5753198470650545"><ele>454.0</ele><time>2026-04-22T08:29:47.999Z</time></trkpt><trkpt lat="42.42307571469887" lon="2.5751502790313987"><ele>457.0</ele><time>2026-04-22T08:29:48.999Z</time></trkpt><trkpt lat="42.422916068763875" lon="2.5749859455631774"><ele>460.0</ele><time>2026-04-22T08:29:49.999Z</time></trkpt><trkpt lat="42.42275026582202" lon="2.574824056649358"><ele>460.0</ele><time>2026-04-22T08:29:50.999Z</time></trkpt><trkpt lat="42.422587195832435" lon="2.5746686242679746"><ele>460.0</ele><time>2026-04-22T08:29:51.999Z</time></trkpt><trkpt lat="42.42243710940894" lon="2.574537691837821"><ele>460.0</ele><time>2026-04-22T08:29:52.999Z</time></trkpt><trkpt lat="42.42228858901079" lon="2.574454444454649"><ele>468.0</ele><time>2026-04-22T08:29:53.999Z</time></trkpt><trkpt lat="42.42211997323446" lon="2.5744131694229875"><ele>476.0</ele><time>2026-04-22T08:29:54.999Z</time></trkpt><trkpt lat="42.42193306885188" lon="2.5744148579261728"><ele>484.0</ele><time>2026-04-22T08:29:55.999Z</time></trkpt><trkpt lat="42.42174922329213" lon="2.574428260122474"><ele>484.0</ele><time>2026-04-22T08:29:56.999Z</time></trkpt><trkpt lat="42.42158381167496" lon="2.574448914245912"><ele>484.0</ele><time>2026-04-22T08:29:57.999Z</time></trkpt><trkpt lat="42.42143923951533" lon="2.57445840890576"><ele>484.0</ele><time>2026-04-22T08:29:58.999Z</time></trkpt><trkpt lat="42.42131399653201" lon="2.5744218360601385"><ele>484.0</ele><time>2026-04-22T08:29:59.999Z</time></trkpt><trkpt lat="42.4212111157191" lon="2.5743134515161303"><ele>474.6666666666667</ele><time>2026-04-22T08:30:00.999Z</time></trkpt><trkpt lat="42.421161839111086" lon="2.574133034209878"><ele>465.33333333333337</ele><time>2026-04-22T08:30:01.999Z</time></trkpt><trkpt lat="42.42111358631334" lon="2.5739291526738994"><ele>456.0</ele><time>2026-04-22T08:30:02.999Z</time></trkpt><trkpt lat="42.42104981221753" lon="2.573706705396301"><ele>461.66666666666663</ele><time>2026-04-22T08:30:03.999Z</time></trkpt><trkpt lat="42.420990869658496" lon="2.573472679321033"><ele>467.3333333333333</ele><time>2026-04-22T08:30:04.999Z</time></trkpt><trkpt lat="42.42091707919834" lon="2.573232724469923"><ele>473.0</ele><time>2026-04-22T08:30:05.999Z</time></trkpt><trkpt lat="42.420838819850154" lon="2.572997888413094"><ele>480.66666666666663</ele><time>2026-04-22T08:30:06.999Z</time></trkpt><trkpt lat="42.42075651389181" lon="2.5727945895418425"><ele>488.33333333333337</ele><time>2026-04-22T08:30:07.999Z</time></trkpt><trkpt lat="42.42065892784132" lon="2.5726310884252372"><ele>496.0</ele><time>2026-04-22T08:30:08.999Z</time></trkpt><trkpt lat="42.42054206828714" lon="2.5725288852821278"><ele>490.5</ele><time>2026-04-22T08:30:09.999Z</time></trkpt><trkpt lat="42.42040682885166" lon="2.5724445958514774"><ele>485.0</ele><time>2026-04-22T08:30:10.999Z</time></trkpt><trkpt lat="42.420269749389334" lon="2.5723702506366837"><ele>479.5</ele><time>2026-04-22T08:30:11.999Z</time></trkpt><trkpt lat="42.42014267774599" lon="2.572275574590306"><ele>474.0</ele><time>2026-04-22T08:30:12.999Z</time></trkpt><trkpt lat="42.4200393254219" lon="2.572123985862539"><ele>478.5</ele><time>2026-04-22T08:30:13.999Z</time></trkpt><trkpt lat="42.419972070784844" lon="2.5719357463393298"><ele>483.0</ele><time>2026-04-22T08:30:14.999Z</time></trkpt><trkpt lat="42.419896737680716" lon="2.571767187824414"><ele>487.5</ele><time>2026-04-22T08:30:15.999Z</time></trkpt><trkpt lat="42.41979324815933" lon="2.5716450881969557"><ele>492.0</ele><time>2026-04-22T08:30:16.999Z</time></trkpt><trkpt lat="42.419672242792345" lon="2.5715546692456"><ele>491.25</ele><time>2026-04-22T08:30:17.999Z</time></trkpt><trkpt lat="42.41954157464921" lon="2.571498084308541"><ele>490.5</ele><time>2026-04-22T08:30:18.999Z</time></trkpt><trkpt lat="42.41939773144394" lon="2.5715403170573996"><ele>489.75</ele><time>2026-04-22T08:30:19.999Z</time></trkpt><trkpt lat="42.419249489092245" lon="2.5716115736574805"><ele>489.0</ele><time>2026-04-22T08:30:20.999Z</time></trkpt><trkpt lat="42.419106591364546" lon="2.5717219240709794"><ele>489.0</ele><time>2026-04-22T08:30:21.999Z</time></trkpt><trkpt lat="42.41897559374282" lon="2.571810928246298"><ele>489.0</ele><time>2026-04-22T08:30:22.999Z</time></trkpt><trkpt lat="42.41883185558889" lon="2.571847060723607"><ele>489.0</ele><time>2026-04-22T08:30:23.999Z</time></trkpt><trkpt lat="42.41869772447803" lon="2.57183207116245"><ele>489.0</ele><time>2026-04-22T08:30:24.999Z</time></trkpt><trkpt lat="42.41857140206885" lon="2.5717565809198177"><ele>487.0</ele><time>2026-04-22T08:30:25.999Z</time></trkpt><trkpt lat="42.4184482329307" lon="2.571624192568461"><ele>485.0</ele><time>2026-04-22T08:30:26.999Z</time></trkpt><trkpt lat="42.41833876102753" lon="2.571450110563902"><ele>483.0</ele><time>2026-04-22T08:30:27.999Z</time></trkpt><trkpt lat="42.41822121967668" lon="2.571269233978032"><ele>477.33333333333337</ele><time>2026-04-22T08:30:28.999Z</time></trkpt><trkpt lat="42.418092552621694" lon="2.5710898893002967"><ele>471.6666666666667</ele><time>2026-04-22T08:30:29.999Z</time></trkpt><trkpt lat="42.41798857022365" lon="2.57090977883281"><ele>466.0</ele><time>2026-04-22T08:30:30.999Z</time></trkpt><trkpt lat="42.41788758885411" lon="2.570732640106461"><ele>466.0</ele><time>2026-04-22T08:30:31.999Z</time></trkpt><trkpt lat="42.41783757176807" lon="2.570534409829012"><ele>466.0</ele><time>2026-04-22T08:30:32.998Z</time></trkpt><trkpt lat="42.41782712897656" lon="2.570317216090276"><ele>466.0</ele><time>2026-04-22T08:30:33.998Z</time></trkpt><trkpt lat="42.417859053156754" lon="2.57010024533821"><ele>471.33333333333337</ele><time>2026-04-22T08:30:34.998Z</time></trkpt><trkpt lat="42.417844908732604" lon="2.569880959287668"><ele>476.66666666666663</ele><time>2026-04-22T08:30:36Z</time></trkpt><trkpt lat="42.41776982620697" lon="2.5696637459582363"><ele>482.0</ele><time>2026-04-22T08:30:37Z</time></trkpt><trkpt lat="42.41770423993015" lon="2.5694430306757963"><ele>485.5</ele><time>2026-04-22T08:30:38Z</time></trkpt><trkpt lat="42.41763410345117" lon="2.569254518270016"><ele>489.0</ele><time>2026-04-22T08:30:39Z</time></trkpt><trkpt lat="42.41753594536523" lon="2.5691030468306706"><ele>492.5</ele><time>2026-04-22T08:30:40Z</time></trkpt><trkpt lat="42.41741831552991" lon="2.569004506509852"><ele>496.0</ele><time>2026-04-22T08:30:41Z</time></trkpt><trkpt lat="42.417275998198434" lon="2.5689534525808257"><ele>492.33333333333337</ele><time>2026-04-22T08:30:42Z</time></trkpt><trkpt lat="42.4171169460147" lon="2.5689519294674463"><ele>488.66666666666663</ele><time>2026-04-22T08:30:43Z</time></trkpt><trkpt lat="42.41695688938539" lon="2.5689783371519663"><ele>485.0</ele><time>2026-04-22T08:30:44Z</time></trkpt><trkpt lat="42.416808072649246" lon="2.5689670888025526"><ele>485.0</ele><time>2026-04-22T08:30:45Z</time></trkpt><trkpt lat="42.41667782231855" lon="2.568879336125068"><ele>485.0</ele><time>2026-04-22T08:30:46Z</time></trkpt><trkpt lat="42.41657276995056" lon="2.56872540498013"><ele>485.0</ele><time>2026-04-22T08:30:47Z</time></trkpt><trkpt lat="42.41643528653152" lon="2.5685953949263296"><ele>492.66666666666663</ele><time>2026-04-22T08:30:48Z</time></trkpt><trkpt lat="42.41627919197546" lon="2.5684938870012197"><ele>500.33333333333337</ele><time>2026-04-22T08:30:49Z</time></trkpt><trkpt lat="42.41611000933217" lon="2.5684055099808285"><ele>508.0</ele><time>2026-04-22T08:30:50Z</time></trkpt><trkpt lat="42.41594671859321" lon="2.5683326500726964"><ele>508.0</ele><time>2026-04-22T08:30:51Z</time></trkpt><trkpt lat="42.4158085475669" lon="2.5682736408341955"><ele>508.0</ele><time>2026-04-22T08:30:52Z</time></trkpt><trkpt lat="42.41570502107458" lon="2.5682197199478223"><ele>508.0</ele><time>2026-04-22T08:30:53Z</time></trkpt><trkpt lat="42.41562705175865" lon="2.568098030898262"><ele>508.0</ele><time>2026-04-22T08:30:54Z</time></trkpt><trkpt lat="42.41558393085656" lon="2.567956149581492"><ele>510.75</ele><time>2026-04-22T08:30:55Z</time></trkpt><trkpt lat="42.41553078842563" lon="2.567795559039201"><ele>513.5</ele><time>2026-04-22T08:30:56Z</time></trkpt><trkpt lat="42.415453198694294" lon="2.567635871195851"><ele>516.25</ele><time>2026-04-22T08:30:57Z</time></trkpt><trkpt lat="42.415364266448584" lon="2.567457180317341"><ele>519.0</ele><time>2026-04-22T08:30:58Z</time></trkpt><trkpt lat="42.41526156684198" lon="2.5672704950658796"><ele>513.3333333333334</ele><time>2026-04-22T08:30:59Z</time></trkpt><trkpt lat="42.415158051102736" lon="2.567092650745574"><ele>507.6666666666667</ele><time>2026-04-22T08:31:00Z</time></trkpt><trkpt lat="42.41506880341909" lon="2.5669347156390354"><ele>502.0</ele><time>2026-04-22T08:31:01Z</time></trkpt><trkpt lat="42.4150039681079" lon="2.566770931098199"><ele>502.0</ele><time>2026-04-22T08:31:02Z</time></trkpt><trkpt lat="42.41497533063281" lon="2.566582701868707"><ele>502.0</ele><time>2026-04-22T08:31:03Z</time></trkpt><trkpt lat="42.41498779850958" lon="2.5663894656228727"><ele>502.0</ele><time>2026-04-22T08:31:04Z</time></trkpt><trkpt lat="42.41501510592692" lon="2.5662253876697494"><ele>502.0</ele><time>2026-04-22T08:31:05Z</time></trkpt><trkpt lat="42.41500400002136" lon="2.566058127739211"><ele>503.5</ele><time>2026-04-22T08:31:06Z</time></trkpt><trkpt lat="42.4149529041245" lon="2.56588514973203"><ele>505.0</ele><time>2026-04-22T08:31:07Z</time></trkpt><trkpt lat="42.41486724570838" lon="2.565736848788689"><ele>506.5</ele><time>2026-04-22T08:31:08Z</time></trkpt><trkpt lat="42.41478400828219" lon="2.56559830102411"><ele>508.0</ele><time>2026-04-22T08:31:09Z</time></trkpt><trkpt lat="42.41474364834195" lon="2.5654352135672953"><ele>510.0</ele><time>2026-04-22T08:31:10Z</time></trkpt><trkpt lat="42.414740652207065" lon="2.565260907139797"><ele>512.0</ele><time>2026-04-22T08:31:11Z</time></trkpt><trkpt lat="42.414768362664134" lon="2.5650755776384657"><ele>514.0</ele><time>2026-04-22T08:31:12Z</time></trkpt><trkpt lat="42.41478668836763" lon="2.564896470972716"><ele>516.0</ele><time>2026-04-22T08:31:13Z</time></trkpt><trkpt lat="42.414755217217646" lon="2.5647033617563317"><ele>520.6666666666666</ele><time>2026-04-22T08:31:14Z</time></trkpt><trkpt lat="42.414682400906855" lon="2.56449340422047"><ele>525.3333333333333</ele><time>2026-04-22T08:31:15Z</time></trkpt><trkpt lat="42.4146073345033" lon="2.564278574654923"><ele>530.0</ele><time>2026-04-22T08:31:16Z</time></trkpt><trkpt lat="42.41452922853852" lon="2.56404391297225"><ele>518.6666666666666</ele><time>2026-04-22T08:31:17Z</time></trkpt><trkpt lat="42.41444983121973" lon="2.5637881070046586"><ele>507.33333333333337</ele><time>2026-04-22T08:31:18Z</time></trkpt><trkpt lat="42.414361609524335" lon="2.5635379900767763"><ele>496.0</ele><time>2026-04-22T08:31:19Z</time></trkpt><trkpt lat="42.41428166726328" lon="2.563304907079323"><ele>496.0</ele><time>2026-04-22T08:31:20Z</time></trkpt><trkpt lat="42.414209826524406" lon="2.56307514215164"><ele>496.0</ele><time>2026-04-22T08:31:21Z</time></trkpt><trkpt lat="42.41416115190712" lon="2.5628306285717497"><ele>496.0</ele><time>2026-04-22T08:31:22Z</time></trkpt><trkpt lat="42.41413459973687" lon="2.5625642916807134"><ele>498.33333333333337</ele><time>2026-04-22T08:31:23Z</time></trkpt><trkpt lat="42.414121863190346" lon="2.5622956250503477"><ele>500.66666666666663</ele><time>2026-04-22T08:31:24Z</time></trkpt><trkpt lat="42.414095584133015" lon="2.5620612404584167"><ele>503.0</ele><time>2026-04-22T08:31:25Z</time></trkpt><trkpt lat="42.41408818307361" lon="2.5618623656948696"><ele>504.0</ele><time>2026-04-22T08:31:26Z</time></trkpt><trkpt lat="42.41411783620432" lon="2.5616994742245613"><ele>505.0</ele><time>2026-04-22T08:31:27Z</time></trkpt><trkpt lat="42.41420831739406" lon="2.5615673210554255"><ele>506.0</ele><time>2026-04-22T08:31:28Z</time></trkpt><trkpt lat="42.41424908219798" lon="2.5613979188623706"><ele>507.0</ele><time>2026-04-22T08:31:29Z</time></trkpt><trkpt lat="42.41421629739501" lon="2.5612142532781412"><ele>509.75</ele><time>2026-04-22T08:31:30Z</time></trkpt><trkpt lat="42.414128776237284" lon="2.561062326433361"><ele>512.5</ele><time>2026-04-22T08:31:30.999Z</time></trkpt><trkpt lat="42.41399646209967" lon="2.5609641392565825"><ele>515.25</ele><time>2026-04-22T08:31:31.999Z</time></trkpt><trkpt lat="42.413934826134906" lon="2.5607841446280104"><ele>518.0</ele><time>2026-04-22T08:31:32.999Z</time></trkpt><trkpt lat="42.413877565524686" lon="2.5605741361075776"><ele>510.3333333333333</ele><time>2026-04-22T08:31:33.999Z</time></trkpt><trkpt lat="42.41378539599514" lon="2.5603728805124355"><ele>502.66666666666663</ele><time>2026-04-22T08:31:34.999Z</time></trkpt><trkpt lat="42.4137058300721" lon="2.5601775164507043"><ele>495.0</ele><time>2026-04-22T08:31:35.999Z</time></trkpt><trkpt lat="42.413654008634964" lon="2.5599778594722267"><ele>495.0</ele><time>2026-04-22T08:31:36.999Z</time></trkpt><trkpt lat="42.41363933078794" lon="2.5597445652992317"><ele>495.0</ele><time>2026-04-22T08:31:37.999Z</time></trkpt><trkpt lat="42.413618944478515" lon="2.5594957139789503"><ele>495.0</ele><time>2026-04-22T08:31:38.999Z</time></trkpt><trkpt lat="42.413576664707236" lon="2.5592464973451814"><ele>496.0</ele><time>2026-04-22T08:31:39.999Z</time></trkpt><trkpt lat="42.413551991212756" lon="2.558998805459792"><ele>497.0</ele><time>2026-04-22T08:31:40.999Z</time></trkpt><trkpt lat="42.4134998423767" lon="2.5587751820718467"><ele>498.0</ele><time>2026-04-22T08:31:41.999Z</time></trkpt><trkpt lat="42.413481455930565" lon="2.5585531335247387"><ele>498.5</ele><time>2026-04-22T08:31:42.999Z</time></trkpt><trkpt lat="42.41344977238824" lon="2.5583510387011263"><ele>499.0</ele><time>2026-04-22T08:31:43.999Z</time></trkpt><trkpt lat="42.41341063551912" lon="2.5581678622869366"><ele>499.5</ele><time>2026-04-22T08:31:44.999Z</time></trkpt><trkpt lat="42.413401736093505" lon="2.5579850847877346"><ele>500.0</ele><time>2026-04-22T08:31:45.999Z</time></trkpt><trkpt lat="42.4134075774384" lon="2.5578164178704554"><ele>500.8</ele><time>2026-04-22T08:31:46.999Z</time></trkpt><trkpt lat="42.41342652791645" lon="2.5576726631471103"><ele>501.6</ele><time>2026-04-22T08:31:47.999Z</time></trkpt><trkpt lat="42.41346312816177" lon="2.5575366445921706"><ele>502.4</ele><time>2026-04-22T08:31:48.999Z</time></trkpt><trkpt lat="42.41350304223899" lon="2.5574027803272013"><ele>503.2</ele><time>2026-04-22T08:31:49.999Z</time></trkpt><trkpt lat="42.4135145189306" lon="2.557263373175495"><ele>504.0</ele><time>2026-04-22T08:31:50.999Z</time></trkpt><trkpt lat="42.4134883329397" lon="2.5571324087552814"><ele>506.4</ele><time>2026-04-22T08:31:51.999Z</time></trkpt><trkpt lat="42.413455781557424" lon="2.557024855105749"><ele>508.79999999999995</ele><time>2026-04-22T08:31:52.999Z</time></trkpt><trkpt lat="42.41338197331283" lon="2.556927688241488"><ele>511.20000000000005</ele><time>2026-04-22T08:31:53.999Z</time></trkpt><trkpt lat="42.413287866224934" lon="2.556863470397343"><ele>513.6</ele><time>2026-04-22T08:31:54.999Z</time></trkpt><trkpt lat="42.413195447191185" lon="2.5567986565538763"><ele>516.0</ele><time>2026-04-22T08:31:55.999Z</time></trkpt><trkpt lat="42.41310005467506" lon="2.556716328769429"><ele>516.0</ele><time>2026-04-22T08:31:56.999Z</time></trkpt><trkpt lat="42.413016476717765" lon="2.556586268792376"><ele>516.0</ele><time>2026-04-22T08:31:57.999Z</time></trkpt><trkpt lat="42.412961547451765" lon="2.5564006679675937"><ele>516.0</ele><time>2026-04-22T08:31:58.999Z</time></trkpt><trkpt lat="42.41287064007801" lon="2.5562394233702137"><ele>516.0</ele><time>2026-04-22T08:31:59.999Z</time></trkpt><trkpt lat="42.412790320355285" lon="2.556111323903147"><ele>516.25</ele><time>2026-04-22T08:32:00.999Z</time></trkpt><trkpt lat="42.412728766216" lon="2.5559892349161712"><ele>516.5</ele><time>2026-04-22T08:32:01.999Z</time></trkpt><trkpt lat="42.41266539649715" lon="2.555875337420298"><ele>516.75</ele><time>2026-04-22T08:32:02.999Z</time></trkpt><trkpt lat="42.41259836280216" lon="2.555756113714029"><ele>517.0</ele><time>2026-04-22T08:32:03.999Z</time></trkpt><trkpt lat="42.41249646718973" lon="2.555627611411349"><ele>517.0</ele><time>2026-04-22T08:32:04.999Z</time></trkpt><trkpt lat="42.41235280228636" lon="2.5555204127336326"><ele>517.0</ele><time>2026-04-22T08:32:05.999Z</time></trkpt><trkpt lat="42.41219422399307" lon="2.555421957822607"><ele>517.0</ele><time>2026-04-22T08:32:06.999Z</time></trkpt><trkpt lat="42.4120396554169" lon="2.555267655054742"><ele>515.25</ele><time>2026-04-22T08:32:07.999Z</time></trkpt><trkpt lat="42.41190186123143" lon="2.555123572957049"><ele>513.5</ele><time>2026-04-22T08:32:08.999Z</time></trkpt><trkpt lat="42.411801875949145" lon="2.5550085789715244"><ele>511.75</ele><time>2026-04-22T08:32:09.999Z</time></trkpt><trkpt lat="42.4117535874885" lon="2.554886669484332"><ele>510.0</ele><time>2026-04-22T08:32:10.999Z</time></trkpt><trkpt lat="42.41175778301074" lon="2.5547680520645484"><ele>514.5</ele><time>2026-04-22T08:32:11.999Z</time></trkpt><trkpt lat="42.41168397120064" lon="2.5543990462784154"><ele>519.0</ele><time>2026-04-22T08:32:12.999Z</time></trkpt><trkpt lat="42.411711037900915" lon="2.5541704460551307"><ele>519.0</ele><time>2026-04-22T08:32:13.999Z</time></trkpt><trkpt lat="42.411759220838285" lon="2.5539268954695613"><ele>519.0</ele><time>2026-04-22T08:32:14.999Z</time></trkpt><trkpt lat="42.41181611237095" lon="2.5536750322662045"><ele>519.0</ele><time>2026-04-22T08:32:15.999Z</time></trkpt><trkpt lat="42.41185753845148" lon="2.553451770774909"><ele>519.3333333333334</ele><time>2026-04-22T08:32:16.999Z</time></trkpt><trkpt lat="42.41186341114476" lon="2.553211135450944"><ele>519.6666666666667</ele><time>2026-04-22T08:32:17.999Z</time></trkpt><trkpt lat="42.41184421053822" lon="2.552976292101176"><ele>520.0</ele><time>2026-04-22T08:32:18.999Z</time></trkpt><trkpt lat="42.41176249730951" lon="2.5527585138209576"><ele>520.3333333333334</ele><time>2026-04-22T08:32:19.999Z</time></trkpt><trkpt lat="42.411705632196735" lon="2.5525499368399283"><ele>520.6666666666666</ele><time>2026-04-22T08:32:20.999Z</time></trkpt><trkpt lat="42.411671462276075" lon="2.5523398233464527"><ele>521.0</ele><time>2026-04-22T08:32:21.999Z</time></trkpt><trkpt lat="42.4116557199844" lon="2.552122649457774"><ele>526.75</ele><time>2026-04-22T08:32:22.999Z</time></trkpt><trkpt lat="42.411628537627806" lon="2.551938880367065"><ele>532.5</ele><time>2026-04-22T08:32:23.999Z</time></trkpt><trkpt lat="42.41156926948668" lon="2.5517693908589965"><ele>538.25</ele><time>2026-04-22T08:32:24.999Z</time></trkpt><trkpt lat="42.41146705988436" lon="2.5516263419953593"><ele>544.0</ele><time>2026-04-22T08:32:25.999Z</time></trkpt><trkpt lat="42.41133501564816" lon="2.551507781237288"><ele>535.3333333333334</ele><time>2026-04-22T08:32:26.999Z</time></trkpt><trkpt lat="42.41117640309736" lon="2.551389954718706"><ele>526.6666666666666</ele><time>2026-04-22T08:32:27.999Z</time></trkpt><trkpt lat="42.411006991842456" lon="2.551285029243613"><ele>518.0</ele><time>2026-04-22T08:32:28.999Z</time></trkpt><trkpt lat="42.410822445408144" lon="2.5512248559656245"><ele>518.0</ele><time>2026-04-22T08:32:29.999Z</time></trkpt><trkpt lat="42.410632269652226" lon="2.5512107558971304"><ele>518.0</ele><time>2026-04-22T08:32:30.999Z</time></trkpt><trkpt lat="42.41046414628056" lon="2.551189845905734"><ele>518.0</ele><time>2026-04-22T08:32:31.999Z</time></trkpt><trkpt lat="42.41032724560291" lon="2.5511262588310593"><ele>517.6666666666666</ele><time>2026-04-22T08:32:32.999Z</time></trkpt><trkpt lat="42.410213390161765" lon="2.5509896441039466"><ele>517.3333333333334</ele><time>2026-04-22T08:32:33.999Z</time></trkpt><trkpt lat="42.41015407504969" lon="2.5508205039038847"><ele>517.0</ele><time>2026-04-22T08:32:34.999Z</time></trkpt><trkpt lat="42.41013442742943" lon="2.5506030888505613"><ele>517.0</ele><time>2026-04-22T08:32:35.998Z</time></trkpt><trkpt lat="42.41016016675112" lon="2.5503774928209695"><ele>517.0</ele><time>2026-04-22T08:32:36.998Z</time></trkpt><trkpt lat="42.41020054405831" lon="2.5501224815914068"><ele>517.0</ele><time>2026-04-22T08:32:37.998Z</time></trkpt><trkpt lat="42.41022823818967" lon="2.5498558643494342"><ele>518.6666666666667</ele><time>2026-04-22T08:32:38.998Z</time></trkpt><trkpt lat="42.410201868300454" lon="2.5495668422366187"><ele>520.3333333333334</ele><time>2026-04-22T08:32:39.998Z</time></trkpt><trkpt lat="42.41017774725336" lon="2.549266102904135"><ele>522.0</ele><time>2026-04-22T08:32:40.998Z</time></trkpt><trkpt lat="42.41014830983368" lon="2.548962810252899"><ele>524.0</ele><time>2026-04-22T08:32:42Z</time></trkpt><trkpt lat="42.41012937065112" lon="2.5486501679223976"><ele>526.0</ele><time>2026-04-22T08:32:43Z</time></trkpt><trkpt lat="42.41013576772281" lon="2.5483511546072624"><ele>526.0</ele><time>2026-04-22T08:32:44Z</time></trkpt><trkpt lat="42.41009741134026" lon="2.548078074148289"><ele>526.0</ele><time>2026-04-22T08:32:45Z</time></trkpt><trkpt lat="42.41005009905344" lon="2.547823521814696"><ele>526.0</ele><time>2026-04-22T08:32:46Z</time></trkpt><trkpt lat="42.4099749509231" lon="2.547565575782726"><ele>526.6666666666667</ele><time>2026-04-22T08:32:47Z</time></trkpt><trkpt lat="42.40988378689752" lon="2.547333088335979"><ele>527.3333333333334</ele><time>2026-04-22T08:32:48Z</time></trkpt><trkpt lat="42.40980700418002" lon="2.547157058290153"><ele>528.0</ele><time>2026-04-22T08:32:49Z</time></trkpt><trkpt lat="42.40974720515567" lon="2.5470196184492795"><ele>530.0</ele><time>2026-04-22T08:32:50Z</time></trkpt><trkpt lat="42.40972008659776" lon="2.546867703458798"><ele>532.0</ele><time>2026-04-22T08:32:51Z</time></trkpt><trkpt lat="42.40972316414892" lon="2.5467047136524825"><ele>534.0</ele><time>2026-04-22T08:32:52Z</time></trkpt><trkpt lat="42.4097256888264" lon="2.546508785513537"><ele>536.0</ele><time>2026-04-22T08:32:53Z</time></trkpt><trkpt lat="42.40971229330477" lon="2.546293192861126"><ele>534.6</ele><time>2026-04-22T08:32:54Z</time></trkpt><trkpt lat="42.40974510421725" lon="2.546121010953547"><ele>533.2</ele><time>2026-04-22T08:32:55Z</time></trkpt><trkpt lat="42.40980367546237" lon="2.5460093948903335"><ele>531.8</ele><time>2026-04-22T08:32:56Z</time></trkpt><trkpt lat="42.40988322405092" lon="2.5459247129806077"><ele>530.4</ele><time>2026-04-22T08:32:57Z</time></trkpt><trkpt lat="42.40999313960904" lon="2.5458865923931584"><ele>529.0</ele><time>2026-04-22T08:32:58Z</time></trkpt><trkpt lat="42.41011596695348" lon="2.5457923445885413"><ele>529.0</ele><time>2026-04-22T08:32:59Z</time></trkpt><trkpt lat="42.41022593385848" lon="2.5456859216034493"><ele>529.0</ele><time>2026-04-22T08:33:00Z</time></trkpt><trkpt lat="42.410319310555046" lon="2.5455359407218414"><ele>529.0</ele><time>2026-04-22T08:33:01Z</time></trkpt><trkpt lat="42.41041058058681" lon="2.5454081206326826"><ele>529.0</ele><time>2026-04-22T08:33:02Z</time></trkpt><trkpt lat="42.41048170291326" lon="2.5452808135727776"><ele>531.75</ele><time>2026-04-22T08:33:03Z</time></trkpt><trkpt lat="42.410555343583496" lon="2.5451652540790315"><ele>534.5</ele><time>2026-04-22T08:33:04Z</time></trkpt><trkpt lat="42.41064665785901" lon="2.5450514072570956"><ele>537.25</ele><time>2026-04-22T08:33:05Z</time></trkpt><trkpt lat="42.41072113354211" lon="2.544929978036963"><ele>540.0</ele><time>2026-04-22T08:33:06Z</time></trkpt><trkpt lat="42.410794443583846" lon="2.544838780689795"><ele>540.0</ele><time>2026-04-22T08:33:07Z</time></trkpt><trkpt lat="42.410834210553645" lon="2.544741925253096"><ele>540.0</ele><time>2026-04-22T08:33:08Z</time></trkpt><trkpt lat="42.41083605978097" lon="2.544631818557387"><ele>540.0</ele><time>2026-04-22T08:33:09Z</time></trkpt><trkpt lat="42.41081204270318" lon="2.5445319132699034"><ele>540.0</ele><time>2026-04-22T08:33:10Z</time></trkpt><trkpt lat="42.410766475985255" lon="2.5444477324427823"><ele>540.0</ele><time>2026-04-22T08:33:11Z</time></trkpt><trkpt lat="42.41070237683135" lon="2.5443855723588276"><ele>540.0</ele><time>2026-04-22T08:33:12Z</time></trkpt><trkpt lat="42.410621940046774" lon="2.5443163771381414"><ele>538.0</ele><time>2026-04-22T08:33:13Z</time></trkpt><trkpt lat="42.41054295636737" lon="2.5442522982670366"><ele>536.0</ele><time>2026-04-22T08:33:15Z</time></trkpt><trkpt lat="42.41045833980835" lon="2.544327695673438"><ele>534.0</ele><time>2026-04-22T08:33:19Z</time></trkpt><trkpt lat="42.4104686982919" lon="2.5444793729683504"><ele>532.0</ele><time>2026-04-22T08:33:21Z</time></trkpt><trkpt lat="42.41044247819818" lon="2.544597055384097"><ele>530.0</ele><time>2026-04-22T08:33:23Z</time></trkpt><trkpt lat="42.41041904393501" lon="2.5447202155604627"><ele>528.1666666666666</ele><time>2026-04-22T08:33:25Z</time></trkpt><trkpt lat="42.41036825975295" lon="2.5448310325503267"><ele>526.3333333333333</ele><time>2026-04-22T08:33:27Z</time></trkpt><trkpt lat="42.41031383127587" lon="2.54494508587364"><ele>524.5</ele><time>2026-04-22T08:33:29Z</time></trkpt><trkpt lat="42.41024157717351" lon="2.545033479668641"><ele>522.6666666666666</ele><time>2026-04-22T08:33:31Z</time></trkpt><trkpt lat="42.41017059740217" lon="2.545080704691604"><ele>520.8333333333334</ele><time>2026-04-22T08:33:32.999Z</time></trkpt><trkpt lat="42.41010378792186" lon="2.545065418755313"><ele>519.0</ele><time>2026-04-22T08:33:34.999Z</time></trkpt><trkpt lat="42.41008666795229" lon="2.5449424312181246"><ele>519.0</ele><time>2026-04-22T08:33:57.999Z</time></trkpt><trkpt lat="42.410139632058595" lon="2.5448156179583474"><ele>519.0</ele><time>2026-04-22T08:33:59.999Z</time></trkpt><trkpt lat="42.410221992550795" lon="2.5447566520168543"><ele>519.0</ele><time>2026-04-22T08:34:01.999Z</time></trkpt><trkpt lat="42.41031134895559" lon="2.544682267801936"><ele>519.0</ele><time>2026-04-22T08:34:04.999Z</time></trkpt><trkpt lat="42.41033450825466" lon="2.544599915007116"><ele>519.0</ele><time>2026-04-22T08:34:06.999Z</time></trkpt><trkpt lat="42.41031983855292" lon="2.544512572051632"><ele>519.0</ele><time>2026-04-22T08:34:07.999Z</time></trkpt><trkpt lat="42.41023930550898" lon="2.5444423400330933"><ele>519.0</ele><time>2026-04-22T08:34:09.999Z</time></trkpt><trkpt lat="42.41013306710452" lon="2.5444457816715005"><ele>519.0</ele><time>2026-04-22T08:34:11.999Z</time></trkpt><trkpt lat="42.41005944373553" lon="2.5444439938318433"><ele>519.0</ele><time>2026-04-22T08:34:13.999Z</time></trkpt><trkpt lat="42.40997941318282" lon="2.5444393966409677"><ele>519.0</ele><time>2026-04-22T08:34:15.999Z</time></trkpt><trkpt lat="42.40988530780188" lon="2.544421042199289"><ele>519.0</ele><time>2026-04-22T08:34:17.999Z</time></trkpt><trkpt lat="42.40983448604189" lon="2.5443665557040873"><ele>519.0</ele><time>2026-04-22T08:34:19.999Z</time></trkpt><trkpt lat="42.409820982489705" lon="2.544280641321061"><ele>519.0</ele><time>2026-04-22T08:59:02.999Z</time></trkpt><trkpt lat="42.409763001770905" lon="2.5443420746142795"><ele>519.0</ele><time>2026-04-22T09:01:42.999Z</time></trkpt><trkpt lat="42.40983034408262" lon="2.5444033712380145"><ele>519.0</ele><time>2026-04-22T09:01:46.998Z</time></trkpt><trkpt lat="42.40993920032079" lon="2.5444173614823637"><ele>519.0</ele><time>2026-04-22T09:01:48.998Z</time></trkpt><trkpt lat="42.41001853191514" lon="2.5444425343141845"><ele>519.0</ele><time>2026-04-22T09:01:50.998Z</time></trkpt><trkpt lat="42.410155220062336" lon="2.544456017675172"><ele>519.0</ele><time>2026-04-22T09:01:52.998Z</time></trkpt><trkpt lat="42.410219435573694" lon="2.5444557681173743"><ele>519.0</ele><time>2026-04-22T09:01:53.998Z</time></trkpt><trkpt lat="42.41028248557439" lon="2.544540584822935"><ele>519.0</ele><time>2026-04-22T09:01:55.998Z</time></trkpt><trkpt lat="42.41031608557879" lon="2.5446242418938034"><ele>519.0</ele><time>2026-04-22T09:01:57.998Z</time></trkpt><trkpt lat="42.4102808637835" lon="2.5446960515731893"><ele>519.0</ele><time>2026-04-22T09:01:58.998Z</time></trkpt><trkpt lat="42.41022032279185" lon="2.544762817219441"><ele>519.0</ele><time>2026-04-22T09:01:59.998Z</time></trkpt><trkpt lat="42.410117667666796" lon="2.5448176386682557"><ele>519.0</ele><time>2026-04-22T09:02:01.998Z</time></trkpt><trkpt lat="42.410049826044364" lon="2.5449446358180396"><ele>519.0</ele><time>2026-04-22T09:02:03.998Z</time></trkpt><trkpt lat="42.41007183079782" lon="2.5450477404965857"><ele>519.0</ele><time>2026-04-22T09:02:04.998Z</time></trkpt><trkpt lat="42.410121908104294" lon="2.5451076893834625"><ele>519.0</ele><time>2026-04-22T09:02:05.999Z</time></trkpt><trkpt lat="42.4101887026865" lon="2.5451329270220775"><ele>519.0</ele><time>2026-04-22T09:02:06.999Z</time></trkpt><trkpt lat="42.41024822589241" lon="2.5450649808440193"><ele>519.0</ele><time>2026-04-22T09:02:07.999Z</time></trkpt><trkpt lat="42.41032245456526" lon="2.5449443153883196"><ele>519.0</ele><time>2026-04-22T09:02:09.999Z</time></trkpt><trkpt lat="42.41037954499665" lon="2.544842963714227"><ele>519.0</ele><time>2026-04-22T09:02:11.999Z</time></trkpt><trkpt lat="42.4104284069301" lon="2.5447521982669983"><ele>519.0</ele><time>2026-04-22T09:02:13.999Z</time></trkpt><trkpt lat="42.41046406497123" lon="2.5446472544554917"><ele>519.0</ele><time>2026-04-22T09:02:16.999Z</time></trkpt><trkpt lat="42.410489068216066" lon="2.544550766886184"><ele>519.0</ele><time>2026-04-22T09:02:19.999Z</time></trkpt><trkpt lat="42.41051045843696" lon="2.5444237013241784"><ele>519.0</ele><time>2026-04-22T09:02:21.999Z</time></trkpt><trkpt lat="42.41052476577956" lon="2.544289144303282"><ele>519.0</ele><time>2026-04-22T09:02:23.999Z</time></trkpt><trkpt lat="42.410547447718464" lon="2.544174867435675"><ele>519.0</ele><time>2026-04-22T09:02:26.999Z</time></trkpt><trkpt lat="42.41037604673295" lon="2.5440672712513694"><ele>519.0</ele><time>2026-04-22T09:02:27.999Z</time></trkpt><trkpt lat="42.410304751634264" lon="2.543985521665834"><ele>519.0</ele><time>2026-04-22T09:02:28.999Z</time></trkpt><trkpt lat="42.410235503118415" lon="2.543874320080893"><ele>519.0</ele><time>2026-04-22T09:02:29.999Z</time></trkpt><trkpt lat="42.41019993588568" lon="2.5437426817809414"><ele>519.0</ele><time>2026-04-22T09:02:30.999Z</time></trkpt><trkpt lat="42.41018920581661" lon="2.5435893527196294"><ele>519.0</ele><time>2026-04-22T09:02:31.999Z</time></trkpt><trkpt lat="42.41020499623772" lon="2.543438667437982"><ele>519.0</ele><time>2026-04-22T09:02:32.999Z</time></trkpt><trkpt lat="42.41022442179437" lon="2.543274103336282"><ele>520.5</ele><time>2026-04-22T09:02:33.999Z</time></trkpt><trkpt lat="42.41023172613497" lon="2.543127776866903"><ele>522.0</ele><time>2026-04-22T09:02:34.999Z</time></trkpt><trkpt lat="42.41021184514211" lon="2.542971944084334"><ele>523.5</ele><time>2026-04-22T09:02:35.999Z</time></trkpt><trkpt lat="42.41017472269593" lon="2.542820439525806"><ele>525.0</ele><time>2026-04-22T09:02:36.999Z</time></trkpt><trkpt lat="42.410139191586204" lon="2.542653482877763"><ele>528.3333333333334</ele><time>2026-04-22T09:02:37.999Z</time></trkpt><trkpt lat="42.41008638940127" lon="2.542477753542818"><ele>531.6666666666667</ele><time>2026-04-22T09:02:38.999Z</time></trkpt><trkpt lat="42.41003762186145" lon="2.542277806505217"><ele>535.0</ele><time>2026-04-22T09:02:39.999Z</time></trkpt><trkpt lat="42.409929402045414" lon="2.542099310008461"><ele>539.3333333333334</ele><time>2026-04-22T09:02:40.999Z</time></trkpt><trkpt lat="42.40984170628282" lon="2.541893378436056"><ele>543.6666666666666</ele><time>2026-04-22T09:02:41.999Z</time></trkpt><trkpt lat="42.40975898687493" lon="2.541675022121251"><ele>548.0</ele><time>2026-04-22T09:02:42.999Z</time></trkpt><trkpt lat="42.4096820272394" lon="2.5414469097722465"><ele>545.6666666666666</ele><time>2026-04-22T09:02:43.999Z</time></trkpt><trkpt lat="42.4095974327777" lon="2.541253343014986"><ele>543.3333333333334</ele><time>2026-04-22T09:02:44.999Z</time></trkpt><trkpt lat="42.40949979841955" lon="2.541058689522054"><ele>541.0</ele><time>2026-04-22T09:02:45.999Z</time></trkpt><trkpt lat="42.40939464080827" lon="2.540872690907975"><ele>541.0</ele><time>2026-04-22T09:02:46.999Z</time></trkpt><trkpt lat="42.409272559285654" lon="2.5406995142701105"><ele>541.0</ele><time>2026-04-22T09:02:47.999Z</time></trkpt><trkpt lat="42.40912999063082" lon="2.5405405948135553"><ele>541.0</ele><time>2026-04-22T09:02:48.999Z</time></trkpt><trkpt lat="42.408981417277445" lon="2.540387752542882"><ele>542.6666666666667</ele><time>2026-04-22T09:02:49.999Z</time></trkpt><trkpt lat="42.40883455452804" lon="2.5402454596097503"><ele>544.3333333333334</ele><time>2026-04-22T09:02:50.999Z</time></trkpt><trkpt lat="42.40869522159944" lon="2.5401163962278597"><ele>546.0</ele><time>2026-04-22T09:02:51.999Z</time></trkpt><trkpt lat="42.4085561578157" lon="2.5400072523253474"><ele>546.0</ele><time>2026-04-22T09:02:52.999Z</time></trkpt><trkpt lat="42.40841595698136" lon="2.539930692413738"><ele>546.0</ele><time>2026-04-22T09:02:53.999Z</time></trkpt><trkpt lat="42.40827621597328" lon="2.5398566135284892"><ele>546.0</ele><time>2026-04-22T09:02:54.999Z</time></trkpt><trkpt lat="42.40814159298208" lon="2.539755161142206"><ele>546.0</ele><time>2026-04-22T09:02:55.999Z</time></trkpt><trkpt lat="42.40801066336944" lon="2.539638818672611"><ele>546.0</ele><time>2026-04-22T09:02:56.999Z</time></trkpt><trkpt lat="42.40789911313278" lon="2.5395062721386203"><ele>546.0</ele><time>2026-04-22T09:02:57.999Z</time></trkpt><trkpt lat="42.407803582147054" lon="2.5393604323692056"><ele>546.0</ele><time>2026-04-22T09:02:58.999Z</time></trkpt><trkpt lat="42.407745961849315" lon="2.5391987605687723"><ele>544.75</ele><time>2026-04-22T09:02:59.999Z</time></trkpt><trkpt lat="42.40772434059139" lon="2.5390151006558868"><ele>543.5</ele><time>2026-04-22T09:03:00.999Z</time></trkpt><trkpt lat="42.4077347709605" lon="2.5388182603035268"><ele>542.25</ele><time>2026-04-22T09:03:01.999Z</time></trkpt><trkpt lat="42.407731489851486" lon="2.5386342152737824"><ele>541.0</ele><time>2026-04-22T09:03:02.999Z</time></trkpt><trkpt lat="42.40768364313105" lon="2.5384723590515517"><ele>547.0</ele><time>2026-04-22T09:03:03.999Z</time></trkpt><trkpt lat="42.407602834206386" lon="2.5383010664499457"><ele>553.0</ele><time>2026-04-22T09:03:04.999Z</time></trkpt><trkpt lat="42.40751005404437" lon="2.5381201346273676"><ele>559.0</ele><time>2026-04-22T09:03:05.999Z</time></trkpt><trkpt lat="42.40739269703439" lon="2.537954849113293"><ele>557.0</ele><time>2026-04-22T09:03:06.999Z</time></trkpt><trkpt lat="42.407262554491474" lon="2.537817302095654"><ele>555.0</ele><time>2026-04-22T09:03:07.999Z</time></trkpt><trkpt lat="42.40712094397409" lon="2.5376931887902376"><ele>553.0</ele><time>2026-04-22T09:03:08.999Z</time></trkpt><trkpt lat="42.40699349337321" lon="2.537549749900479"><ele>553.0</ele><time>2026-04-22T09:03:09.999Z</time></trkpt><trkpt lat="42.40689455575848" lon="2.537366448094103"><ele>553.0</ele><time>2026-04-22T09:03:10.999Z</time></trkpt><trkpt lat="42.40681514061098" lon="2.5371854920861385"><ele>553.0</ele><time>2026-04-22T09:03:11.999Z</time></trkpt><trkpt lat="42.40675190249262" lon="2.536984807898859"><ele>556.6666666666667</ele><time>2026-04-22T09:03:12.999Z</time></trkpt><trkpt lat="42.4067131805944" lon="2.536753982026575"><ele>560.3333333333334</ele><time>2026-04-22T09:03:13.999Z</time></trkpt><trkpt lat="42.4066845781699" lon="2.5365138730903274"><ele>564.0</ele><time>2026-04-22T09:03:14.999Z</time></trkpt><trkpt lat="42.40666839187899" lon="2.536270794680709"><ele>566.6666666666666</ele><time>2026-04-22T09:03:15.999Z</time></trkpt><trkpt lat="42.40659356486349" lon="2.536038085893384"><ele>569.3333333333333</ele><time>2026-04-22T09:03:16.999Z</time></trkpt><trkpt lat="42.406560637565995" lon="2.535788085887916"><ele>572.0</ele><time>2026-04-22T09:03:17.999Z</time></trkpt><trkpt lat="42.406494213927914" lon="2.535549368609697"><ele>569.0</ele><time>2026-04-22T09:03:18.999Z</time></trkpt><trkpt lat="42.406411262138256" lon="2.535346384275556"><ele>566.0</ele><time>2026-04-22T09:03:19.999Z</time></trkpt><trkpt lat="42.406355351530024" lon="2.5351395739039972"><ele>563.0</ele><time>2026-04-22T09:03:20.999Z</time></trkpt><trkpt lat="42.406327302800264" lon="2.5349355550651507"><ele>565.3333333333333</ele><time>2026-04-22T09:03:21.999Z</time></trkpt><trkpt lat="42.40633346657509" lon="2.534711608765278"><ele>567.6666666666666</ele><time>2026-04-22T09:03:22.999Z</time></trkpt><trkpt lat="42.40638109247159" lon="2.5344929417992605"><ele>570.0</ele><time>2026-04-22T09:03:23.999Z</time></trkpt><trkpt lat="42.40646628660721" lon="2.534294340813165"><ele>570.0</ele><time>2026-04-22T09:03:24.999Z</time></trkpt><trkpt lat="42.40659026449201" lon="2.5341507772322824"><ele>570.0</ele><time>2026-04-22T09:03:25.999Z</time></trkpt><trkpt lat="42.40672138109544" lon="2.5340385360268916"><ele>570.0</ele><time>2026-04-22T09:03:26.999Z</time></trkpt><trkpt lat="42.40685067964664" lon="2.533943991576543"><ele>570.0</ele><time>2026-04-22T09:03:27.999Z</time></trkpt><trkpt lat="42.40695313649584" lon="2.533856514658313"><ele>570.0</ele><time>2026-04-22T09:03:28.999Z</time></trkpt><trkpt lat="42.407018448203125" lon="2.5337057349613343"><ele>570.0</ele><time>2026-04-22T09:03:29.999Z</time></trkpt><trkpt lat="42.40702031920231" lon="2.53353085505105"><ele>570.0</ele><time>2026-04-22T09:03:30.999Z</time></trkpt><trkpt lat="42.40703123443579" lon="2.533332480649967"><ele>571.0</ele><time>2026-04-22T09:03:31.999Z</time></trkpt><trkpt lat="42.407052033926625" lon="2.5331233224379135"><ele>572.0</ele><time>2026-04-22T09:03:32.999Z</time></trkpt><trkpt lat="42.407050517547624" lon="2.5329027520398784"><ele>573.0</ele><time>2026-04-22T09:03:33.999Z</time></trkpt><trkpt lat="42.40703209762286" lon="2.532673434048179"><ele>573.0</ele><time>2026-04-22T09:03:34.999Z</time></trkpt><trkpt lat="42.40704535302424" lon="2.532426938023673"><ele>573.0</ele><time>2026-04-22T09:03:35.999Z</time></trkpt><trkpt lat="42.407049933970946" lon="2.53216970056465"><ele>573.0</ele><time>2026-04-22T09:03:36.999Z</time></trkpt><trkpt lat="42.407081464925646" lon="2.5319096025910675"><ele>573.6666666666666</ele><time>2026-04-22T09:03:37.999Z</time></trkpt><trkpt lat="42.40712548718297" lon="2.5316407297922803"><ele>574.3333333333333</ele><time>2026-04-22T09:03:38.999Z</time></trkpt><trkpt lat="42.40717313229144" lon="2.531387029427795"><ele>575.0</ele><time>2026-04-22T09:03:39.999Z</time></trkpt><trkpt lat="42.407235628735485" lon="2.531167561580828"><ele>579.3333333333333</ele><time>2026-04-22T09:03:40.999Z</time></trkpt><trkpt lat="42.40731477287427" lon="2.5309794968190378"><ele>583.6666666666666</ele><time>2026-04-22T09:03:41.999Z</time></trkpt><trkpt lat="42.407350843867775" lon="2.5307525178109085"><ele>588.0</ele><time>2026-04-22T09:03:42.999Z</time></trkpt><trkpt lat="42.40734268357808" lon="2.530517141049457"><ele>591.0</ele><time>2026-04-22T09:03:43.999Z</time></trkpt><trkpt lat="42.407293507178395" lon="2.530290708863832"><ele>594.0</ele><time>2026-04-22T09:03:44.999Z</time></trkpt><trkpt lat="42.40721130290922" lon="2.530066643706137"><ele>597.0</ele><time>2026-04-22T09:03:45.999Z</time></trkpt><trkpt lat="42.4071006530661" lon="2.5298453264557925"><ele>593.0</ele><time>2026-04-22T09:03:46.999Z</time></trkpt><trkpt lat="42.40697381683978" lon="2.5296501410886227"><ele>589.0</ele><time>2026-04-22T09:03:47.999Z</time></trkpt><trkpt lat="42.406866317034336" lon="2.5294700531961345"><ele>585.0</ele><time>2026-04-22T09:03:48.999Z</time></trkpt><trkpt lat="42.40675278956199" lon="2.529319496733587"><ele>585.0</ele><time>2026-04-22T09:03:49.999Z</time></trkpt><trkpt lat="42.40659883607528" lon="2.5291989536968194"><ele>585.0</ele><time>2026-04-22T09:03:50.999Z</time></trkpt><trkpt lat="42.40642369458363" lon="2.5291001775380653"><ele>585.0</ele><time>2026-04-22T09:03:51.999Z</time></trkpt><trkpt lat="42.40623547060571" lon="2.5290061559616035"><ele>589.3333333333334</ele><time>2026-04-22T09:03:52.999Z</time></trkpt><trkpt lat="42.406048263912766" lon="2.5289089232198405"><ele>593.6666666666667</ele><time>2026-04-22T09:03:53.999Z</time></trkpt><trkpt lat="42.40585165735695" lon="2.5287964728206167"><ele>598.0</ele><time>2026-04-22T09:03:54.999Z</time></trkpt><trkpt lat="42.405671239090225" lon="2.5286627414899696"><ele>598.0</ele><time>2026-04-22T09:03:55.999Z</time></trkpt><trkpt lat="42.405502478433974" lon="2.528497232704724"><ele>598.0</ele><time>2026-04-22T09:03:56.998Z</time></trkpt><trkpt lat="42.405347733494395" lon="2.528340889983928"><ele>598.0</ele><time>2026-04-22T09:03:57.998Z</time></trkpt><trkpt lat="42.40520988290854" lon="2.5282205589855233"><ele>597.25</ele><time>2026-04-22T09:03:58.998Z</time></trkpt><trkpt lat="42.40508853159086" lon="2.528098406653287"><ele>596.5</ele><time>2026-04-22T09:03:59.998Z</time></trkpt><trkpt lat="42.40497303278651" lon="2.528009816873092"><ele>595.75</ele><time>2026-04-22T09:04:00.998Z</time></trkpt><trkpt lat="42.40486171244376" lon="2.527918652804287"><ele>595.0</ele><time>2026-04-22T09:04:01.998Z</time></trkpt><trkpt lat="42.404766381391525" lon="2.527848057961529"><ele>571.0</ele><time>2026-04-22T09:04:02.998Z</time></trkpt><trkpt lat="42.404290334229636" lon="2.527474676294108"><ele>571.0</ele><time>2026-04-22T09:04:04.998Z</time></trkpt><trkpt lat="42.404270585500356" lon="2.5273256109942497"><ele>571.0</ele><time>2026-04-22T09:04:05.998Z</time></trkpt><trkpt lat="42.40432650757281" lon="2.5271911400713223"><ele>571.0</ele><time>2026-04-22T09:04:06.998Z</time></trkpt><trkpt lat="42.404415234254465" lon="2.5270914663187707"><ele>571.0</ele><time>2026-04-22T09:04:07.998Z</time></trkpt><trkpt lat="42.40453502945482" lon="2.5270189245578316"><ele>575.0</ele><time>2026-04-22T09:04:08.998Z</time></trkpt><trkpt lat="42.40467928596716" lon="2.526976114513316"><ele>579.0</ele><time>2026-04-22T09:04:09.998Z</time></trkpt><trkpt lat="42.40485504106549" lon="2.526997512382014"><ele>583.0</ele><time>2026-04-22T09:04:10.998Z</time></trkpt><trkpt lat="42.40504387161405" lon="2.526972034318684"><ele>583.0</ele><time>2026-04-22T09:04:11.999Z</time></trkpt><trkpt lat="42.405235273641274" lon="2.5268997498203474"><ele>583.0</ele><time>2026-04-22T09:04:12.999Z</time></trkpt><trkpt lat="42.40542239551884" lon="2.5268127782156227"><ele>583.0</ele><time>2026-04-22T09:04:13.999Z</time></trkpt><trkpt lat="42.40561053511166" lon="2.526725741005306"><ele>590.6666666666667</ele><time>2026-04-22T09:04:14.999Z</time></trkpt><trkpt lat="42.405791161670585" lon="2.52662276534382"><ele>598.3333333333334</ele><time>2026-04-22T09:04:15.999Z</time></trkpt><trkpt lat="42.405944269231895" lon="2.526460701833601"><ele>606.0</ele><time>2026-04-22T09:04:16.999Z</time></trkpt><trkpt lat="42.406098060251416" lon="2.5262826095964765"><ele>598.6666666666666</ele><time>2026-04-22T09:04:17.999Z</time></trkpt><trkpt lat="42.406219844406465" lon="2.526103278051605"><ele>591.3333333333333</ele><time>2026-04-22T09:04:18.999Z</time></trkpt><trkpt lat="42.406323484636445" lon="2.525925924226168"><ele>584.0</ele><time>2026-04-22T09:04:19.999Z</time></trkpt><trkpt lat="42.40641490414109" lon="2.5257219279134695"><ele>597.0</ele><time>2026-04-22T09:04:20.999Z</time></trkpt><trkpt lat="42.40646599092174" lon="2.5254729019607223"><ele>610.0</ele><time>2026-04-22T09:04:21.999Z</time></trkpt><trkpt lat="42.406484504448166" lon="2.525207979212433"><ele>623.0</ele><time>2026-04-22T09:04:22.999Z</time></trkpt><trkpt lat="42.40651399775898" lon="2.524932451180782"><ele>623.0</ele><time>2026-04-22T09:04:23.999Z</time></trkpt><trkpt lat="42.40658443415943" lon="2.5246749238493478"><ele>623.0</ele><time>2026-04-22T09:04:24.999Z</time></trkpt><trkpt lat="42.406654399239926" lon="2.5244038187268973"><ele>623.0</ele><time>2026-04-22T09:04:25.999Z</time></trkpt><trkpt lat="42.40670301396787" lon="2.5241211794013116"><ele>618.0</ele><time>2026-04-22T09:04:26.999Z</time></trkpt><trkpt lat="42.40675608820996" lon="2.5238209735966053"><ele>613.0</ele><time>2026-04-22T09:04:27.999Z</time></trkpt><trkpt lat="42.40680025411647" lon="2.5235383546978234"><ele>608.0</ele><time>2026-04-22T09:04:28.999Z</time></trkpt><trkpt lat="42.406869942902375" lon="2.5232484913473066"><ele>607.6666666666666</ele><time>2026-04-22T09:04:29.999Z</time></trkpt><trkpt lat="42.40693457411966" lon="2.522959598276781"><ele>607.3333333333334</ele><time>2026-04-22T09:04:30.999Z</time></trkpt><trkpt lat="42.40697039236733" lon="2.522683878834531"><ele>607.0</ele><time>2026-04-22T09:04:31.999Z</time></trkpt><trkpt lat="42.40698778908478" lon="2.5224252622300583"><ele>606.6666666666667</ele><time>2026-04-22T09:04:32.999Z</time></trkpt><trkpt lat="42.406985689696754" lon="2.5222066561476195"><ele>606.3333333333334</ele><time>2026-04-22T09:04:33.999Z</time></trkpt><trkpt lat="42.406993914487536" lon="2.5220102150034998"><ele>606.0</ele><time>2026-04-22T09:04:34.999Z</time></trkpt><trkpt lat="42.407056235627934" lon="2.5218313772301446"><ele>607.0</ele><time>2026-04-22T09:04:35.999Z</time></trkpt><trkpt lat="42.407146122895405" lon="2.521652431918991"><ele>608.0</ele><time>2026-04-22T09:04:36.999Z</time></trkpt><trkpt lat="42.407237179239424" lon="2.521439985375926"><ele>609.0</ele><time>2026-04-22T09:04:37.999Z</time></trkpt><trkpt lat="42.40735265537782" lon="2.521230680128942"><ele>610.0</ele><time>2026-04-22T09:04:38.999Z</time></trkpt><trkpt lat="42.40746937499382" lon="2.5210140522045794"><ele>611.0</ele><time>2026-04-22T09:04:39.999Z</time></trkpt><trkpt lat="42.40758429418363" lon="2.520785857372292"><ele>612.0</ele><time>2026-04-22T09:04:40.999Z</time></trkpt><trkpt lat="42.407700292240186" lon="2.5205594908022064"><ele>614.25</ele><time>2026-04-22T09:04:41.999Z</time></trkpt><trkpt lat="42.40780769272475" lon="2.5203670504585443"><ele>616.5</ele><time>2026-04-22T09:04:42.999Z</time></trkpt><trkpt lat="42.407886688725526" lon="2.5202139252991573"><ele>618.75</ele><time>2026-04-22T09:04:43.999Z</time></trkpt><trkpt lat="42.40793992378356" lon="2.5200590766751727"><ele>621.0</ele><time>2026-04-22T09:04:44.999Z</time></trkpt><trkpt lat="42.407952436885836" lon="2.5198837404494445"><ele>621.0</ele><time>2026-04-22T09:04:45.999Z</time></trkpt><trkpt lat="42.407919779101505" lon="2.5196944297326236"><ele>621.0</ele><time>2026-04-22T09:04:46.999Z</time></trkpt><trkpt lat="42.407853732909544" lon="2.5194940384635434"><ele>621.0</ele><time>2026-04-22T09:04:47.999Z</time></trkpt><trkpt lat="42.40778768923825" lon="2.51927753436635"><ele>630.6666666666666</ele><time>2026-04-22T09:04:48.999Z</time></trkpt><trkpt lat="42.407741232561605" lon="2.5190452997948527"><ele>640.3333333333333</ele><time>2026-04-22T09:04:49.999Z</time></trkpt><trkpt lat="42.407716780542536" lon="2.5187882629044376"><ele>650.0</ele><time>2026-04-22T09:04:50.999Z</time></trkpt><trkpt lat="42.40768719130039" lon="2.518549316338011"><ele>653.5</ele><time>2026-04-22T09:04:51.999Z</time></trkpt><trkpt lat="42.407650020802684" lon="2.5183518733324997"><ele>657.0</ele><time>2026-04-22T09:04:52.999Z</time></trkpt><trkpt lat="42.40760074730334" lon="2.518170381217621"><ele>660.5</ele><time>2026-04-22T09:04:53.999Z</time></trkpt><trkpt lat="42.4075502972631" lon="2.518036070686911"><ele>664.0</ele><time>2026-04-22T09:04:54.999Z</time></trkpt><trkpt lat="42.407504154344274" lon="2.5179178766268047"><ele>663.0</ele><time>2026-04-22T09:04:55.999Z</time></trkpt><trkpt lat="42.40745930849379" lon="2.5178115902557785"><ele>662.0</ele><time>2026-04-22T09:04:56.999Z</time></trkpt><trkpt lat="42.40745311128618" lon="2.517705010241179"><ele>661.0</ele><time>2026-04-22T09:04:57.999Z</time></trkpt><trkpt lat="42.40744122962415" lon="2.517608565390622"><ele>660.0</ele><time>2026-04-22T09:04:58.999Z</time></trkpt><trkpt lat="42.40743732239491" lon="2.5175019725149514"><ele>659.0</ele><time>2026-04-22T09:04:59.999Z</time></trkpt><trkpt lat="42.40749361377388" lon="2.517372884134897"><ele>658.0</ele><time>2026-04-22T09:05:00.999Z</time></trkpt><trkpt lat="42.407545361534936" lon="2.517204966249533"><ele>667.6666666666667</ele><time>2026-04-22T09:05:01.999Z</time></trkpt><trkpt lat="42.40760268885861" lon="2.5170156792442007"><ele>677.3333333333334</ele><time>2026-04-22T09:05:02.999Z</time></trkpt><trkpt lat="42.40766678927536" lon="2.516804028939756"><ele>687.0</ele><time>2026-04-22T09:05:03.999Z</time></trkpt><trkpt lat="42.40772552381432" lon="2.5165719932948085"><ele>687.0</ele><time>2026-04-22T09:05:04.999Z</time></trkpt><trkpt lat="42.40781359782159" lon="2.5163724547528648"><ele>687.0</ele><time>2026-04-22T09:05:05.999Z</time></trkpt><trkpt lat="42.40791532238474" lon="2.5162215227371556"><ele>687.0</ele><time>2026-04-22T09:05:06.999Z</time></trkpt><trkpt lat="42.40800772886952" lon="2.5160706606833583"><ele>684.75</ele><time>2026-04-22T09:05:07.999Z</time></trkpt><trkpt lat="42.40810879732556" lon="2.5159363419514453"><ele>682.5</ele><time>2026-04-22T09:05:08.999Z</time></trkpt><trkpt lat="42.408203153887534" lon="2.515892320202917"><ele>680.25</ele><time>2026-04-22T09:05:09.999Z</time></trkpt><trkpt lat="42.40834304969178" lon="2.5158454141571718"><ele>678.0</ele><time>2026-04-22T09:05:10.999Z</time></trkpt><trkpt lat="42.40850609420442" lon="2.51578399662557"><ele>678.0</ele><time>2026-04-22T09:05:11.999Z</time></trkpt><trkpt lat="42.40867118350301" lon="2.515706725133662"><ele>678.0</ele><time>2026-04-22T09:05:12.999Z</time></trkpt><trkpt lat="42.408834203350004" lon="2.5155900524473167"><ele>678.0</ele><time>2026-04-22T09:05:13.999Z</time></trkpt><trkpt lat="42.40899410506698" lon="2.5154690290575"><ele>678.5</ele><time>2026-04-22T09:05:14.999Z</time></trkpt><trkpt lat="42.409121951687126" lon="2.5153549362455534"><ele>679.0</ele><time>2026-04-22T09:05:15.999Z</time></trkpt><trkpt lat="42.409226218069804" lon="2.515233392579377"><ele>679.5</ele><time>2026-04-22T09:05:16.999Z</time></trkpt><trkpt lat="42.4092938766088" lon="2.5150652864758376"><ele>680.0</ele><time>2026-04-22T09:05:17.999Z</time></trkpt><trkpt lat="42.40934136993638" lon="2.514858869644204"><ele>680.0</ele><time>2026-04-22T09:05:18.999Z</time></trkpt><trkpt lat="42.40937048395402" lon="2.5146321660757995"><ele>680.0</ele><time>2026-04-22T09:05:19.999Z</time></trkpt><trkpt lat="42.409431476105055" lon="2.514440226535394"><ele>680.0</ele><time>2026-04-22T09:05:20.999Z</time></trkpt><trkpt lat="42.409492062923256" lon="2.5142657193487623"><ele>674.5</ele><time>2026-04-22T09:05:21.999Z</time></trkpt><trkpt lat="42.409563990586314" lon="2.514122948288649"><ele>669.0</ele><time>2026-04-22T09:05:22.999Z</time></trkpt><trkpt lat="42.4096337711628" lon="2.513988836701083"><ele>663.5</ele><time>2026-04-22T09:05:23.999Z</time></trkpt><trkpt lat="42.40969806580091" lon="2.513866050551042"><ele>658.0</ele><time>2026-04-22T09:05:24.999Z</time></trkpt><trkpt lat="42.40975598546495" lon="2.513755439104812"><ele>662.1666666666667</ele><time>2026-04-22T09:05:25.999Z</time></trkpt><trkpt lat="42.40979681460359" lon="2.5136441795842543"><ele>666.3333333333334</ele><time>2026-04-22T09:05:26.999Z</time></trkpt><trkpt lat="42.40985395969157" lon="2.5135596314540276"><ele>670.5</ele><time>2026-04-22T09:05:27.999Z</time></trkpt><trkpt lat="42.409889068444656" lon="2.513477782747376"><ele>674.6666666666666</ele><time>2026-04-22T09:05:28.999Z</time></trkpt><trkpt lat="42.40992872500913" lon="2.5134012229665026"><ele>678.8333333333333</ele><time>2026-04-22T09:05:29.999Z</time></trkpt><trkpt lat="42.40997463611291" lon="2.513309115048999"><ele>683.0</ele><time>2026-04-22T09:05:30.999Z</time></trkpt><trkpt lat="42.41002894712888" lon="2.513194346589234"><ele>683.0</ele><time>2026-04-22T09:05:31.999Z</time></trkpt><trkpt lat="42.41005192984259" lon="2.5130455252584323"><ele>683.0</ele><time>2026-04-22T09:05:32.999Z</time></trkpt><trkpt lat="42.41005350191152" lon="2.512901883867594"><ele>683.0</ele><time>2026-04-22T09:05:33.999Z</time></trkpt><trkpt lat="42.41001443047717" lon="2.5127579993921465"><ele>683.0</ele><time>2026-04-22T09:05:34.999Z</time></trkpt><trkpt lat="42.40995265735278" lon="2.5126388909625947"><ele>683.0</ele><time>2026-04-22T09:05:35.999Z</time></trkpt><trkpt lat="42.40987830170024" lon="2.5125589475263337"><ele>681.4</ele><time>2026-04-22T09:05:36.999Z</time></trkpt><trkpt lat="42.409792449363515" lon="2.512514681196358"><ele>679.8</ele><time>2026-04-22T09:05:37.999Z</time></trkpt><trkpt lat="42.40967686770829" lon="2.512489799784862"><ele>678.2</ele><time>2026-04-22T09:05:38.999Z</time></trkpt><trkpt lat="42.40954724141513" lon="2.5124783534045867"><ele>676.6</ele><time>2026-04-22T09:05:39.999Z</time></trkpt><trkpt lat="42.40943988458664" lon="2.51247239303858"><ele>675.0</ele><time>2026-04-22T09:05:40.999Z</time></trkpt><trkpt lat="42.409342417873596" lon="2.5124533642394775"><ele>678.8</ele><time>2026-04-22T09:05:41.999Z</time></trkpt><trkpt lat="42.40924589923974" lon="2.512427638173724"><ele>682.6</ele><time>2026-04-22T09:05:42.999Z</time></trkpt><trkpt lat="42.40914669216676" lon="2.512402340707981"><ele>686.4000000000001</ele><time>2026-04-22T09:05:43.999Z</time></trkpt><trkpt lat="42.409062600648355" lon="2.512369478542365"><ele>690.2</ele><time>2026-04-22T09:05:44.999Z</time></trkpt><trkpt lat="42.408991519624486" lon="2.5123243303448692"><ele>694.0</ele><time>2026-04-22T09:05:45.999Z</time></trkpt><trkpt lat="42.40892337712938" lon="2.512257054314478"><ele>694.0</ele><time>2026-04-22T09:05:46.999Z</time></trkpt><trkpt lat="42.40886985956728" lon="2.5121696683730286"><ele>694.0</ele><time>2026-04-22T09:05:47.999Z</time></trkpt><trkpt lat="42.408838319939264" lon="2.5120641836482505"><ele>694.0</ele><time>2026-04-22T09:05:48.999Z</time></trkpt><trkpt lat="42.40881960357017" lon="2.511904411874132"><ele>694.0</ele><time>2026-04-22T09:05:49.999Z</time></trkpt><trkpt lat="42.408779465254106" lon="2.511709606783788"><ele>694.0</ele><time>2026-04-22T09:05:50.999Z</time></trkpt><trkpt lat="42.40873536709379" lon="2.5114955832846557"><ele>689.3333333333334</ele><time>2026-04-22T09:05:51.999Z</time></trkpt><trkpt lat="42.408670660641135" lon="2.5112601977148485"><ele>684.6666666666666</ele><time>2026-04-22T09:05:52.999Z</time></trkpt><trkpt lat="42.4086291470331" lon="2.5110060525705125"><ele>680.0</ele><time>2026-04-22T09:05:53.999Z</time></trkpt><trkpt lat="42.40857764814112" lon="2.5107324681706404"><ele>676.3333333333333</ele><time>2026-04-22T09:05:54.999Z</time></trkpt><trkpt lat="42.4085132730529" lon="2.5104450519447044"><ele>672.6666666666666</ele><time>2026-04-22T09:05:55.999Z</time></trkpt><trkpt lat="42.40845148837503" lon="2.510157309970251"><ele>669.0</ele><time>2026-04-22T09:05:56.999Z</time></trkpt><trkpt lat="42.40839233497996" lon="2.5098835595967426"><ele>669.0</ele><time>2026-04-22T09:05:57.999Z</time></trkpt><trkpt lat="42.40833921026373" lon="2.5096343592087003"><ele>669.0</ele><time>2026-04-22T09:05:58.999Z</time></trkpt><trkpt lat="42.40829319930958" lon="2.509387770774432"><ele>669.0</ele><time>2026-04-22T09:05:59.999Z</time></trkpt><trkpt lat="42.408296174931564" lon="2.509141143416226"><ele>673.6666666666666</ele><time>2026-04-22T09:06:00.999Z</time></trkpt><trkpt lat="42.4083095433836" lon="2.5088754794006967"><ele>678.3333333333333</ele><time>2026-04-22T09:06:01.999Z</time></trkpt><trkpt lat="42.40829979377842" lon="2.5085938647243466"><ele>683.0</ele><time>2026-04-22T09:06:02.999Z</time></trkpt><trkpt lat="42.4082966517299" lon="2.5083032735243544"><ele>686.6666666666666</ele><time>2026-04-22T09:06:03.999Z</time></trkpt><trkpt lat="42.408278957481286" lon="2.508007522791157"><ele>690.3333333333334</ele><time>2026-04-22T09:06:04.999Z</time></trkpt><trkpt lat="42.4082505783986" lon="2.507698144696772"><ele>694.0</ele><time>2026-04-22T09:06:05.999Z</time></trkpt><trkpt lat="42.40820600039152" lon="2.5073817587917"><ele>694.0</ele><time>2026-04-22T09:06:06.999Z</time></trkpt><trkpt lat="42.40815262625348" lon="2.5070804862696856"><ele>694.0</ele><time>2026-04-22T09:06:07.999Z</time></trkpt><trkpt lat="42.40811544739543" lon="2.506787402037004"><ele>694.0</ele><time>2026-04-22T09:06:08.999Z</time></trkpt><trkpt lat="42.408057907723034" lon="2.506511038151164"><ele>689.6666666666667</ele><time>2026-04-22T09:06:09.999Z</time></trkpt><trkpt lat="42.40801761135596" lon="2.5062299907275096"><ele>685.3333333333334</ele><time>2026-04-22T09:06:10.999Z</time></trkpt><trkpt lat="42.40792751814583" lon="2.5059440640111887"><ele>681.0</ele><time>2026-04-22T09:06:11.999Z</time></trkpt><trkpt lat="42.40783409026729" lon="2.5056461061290727"><ele>686.0</ele><time>2026-04-22T09:06:12.999Z</time></trkpt><trkpt lat="42.407723896513815" lon="2.505355291990585"><ele>691.0</ele><time>2026-04-22T09:06:13.999Z</time></trkpt><trkpt lat="42.40758970184064" lon="2.5050784227527605"><ele>691.0</ele><time>2026-04-22T09:06:14.999Z</time></trkpt><trkpt lat="42.40744181204572" lon="2.50483180122799"><ele>691.0</ele><time>2026-04-22T09:06:15.999Z</time></trkpt><trkpt lat="42.40730549175234" lon="2.5046178504145606"><ele>691.0</ele><time>2026-04-22T09:06:16.999Z</time></trkpt><trkpt lat="42.40718728340833" lon="2.504405852717174"><ele>689.3333333333334</ele><time>2026-04-22T09:06:18Z</time></trkpt><trkpt lat="42.40708886322463" lon="2.504191639262043"><ele>687.6666666666666</ele><time>2026-04-22T09:06:19Z</time></trkpt><trkpt lat="42.40699869872357" lon="2.5039704771692435"><ele>686.0</ele><time>2026-04-22T09:06:20Z</time></trkpt><trkpt lat="42.406914396477234" lon="2.503741131571649"><ele>686.0</ele><time>2026-04-22T09:06:21Z</time></trkpt><trkpt lat="42.40684329244736" lon="2.5034951217085553"><ele>686.0</ele><time>2026-04-22T09:06:22Z</time></trkpt><trkpt lat="42.406808681115436" lon="2.5032338190546692"><ele>686.0</ele><time>2026-04-22T09:06:23Z</time></trkpt><trkpt lat="42.406755435686584" lon="2.502977018367428"><ele>688.6666666666666</ele><time>2026-04-22T09:06:24Z</time></trkpt><trkpt lat="42.40672445802047" lon="2.502713952448102"><ele>691.3333333333334</ele><time>2026-04-22T09:06:25Z</time></trkpt><trkpt lat="42.40668828394869" lon="2.502458541892456"><ele>694.0</ele><time>2026-04-22T09:06:26Z</time></trkpt><trkpt lat="42.40664349993231" lon="2.5022272438948128"><ele>699.0</ele><time>2026-04-22T09:06:27Z</time></trkpt><trkpt lat="42.406599334383316" lon="2.5020102335856147"><ele>704.0</ele><time>2026-04-22T09:06:28Z</time></trkpt><trkpt lat="42.4065280264761" lon="2.5018240451847107"><ele>709.0</ele><time>2026-04-22T09:06:29Z</time></trkpt><trkpt lat="42.40642849749818" lon="2.5016413585777513"><ele>704.3333333333334</ele><time>2026-04-22T09:06:30Z</time></trkpt><trkpt lat="42.40630512505047" lon="2.501479019103754"><ele>699.6666666666666</ele><time>2026-04-22T09:06:31Z</time></trkpt><trkpt lat="42.40616533479477" lon="2.501305645121573"><ele>695.0</ele><time>2026-04-22T09:06:32Z</time></trkpt><trkpt lat="42.406021689218754" lon="2.5011405823313306"><ele>695.0</ele><time>2026-04-22T09:06:33Z</time></trkpt><trkpt lat="42.40586833068859" lon="2.500986206811587"><ele>695.0</ele><time>2026-04-22T09:06:34Z</time></trkpt><trkpt lat="42.40574156428516" lon="2.500821753377896"><ele>695.0</ele><time>2026-04-22T09:06:35Z</time></trkpt><trkpt lat="42.40563730385656" lon="2.5006576555261044"><ele>695.0</ele><time>2026-04-22T09:06:36Z</time></trkpt><trkpt lat="42.40556111059034" lon="2.5004562477817087"><ele>695.0</ele><time>2026-04-22T09:06:37Z</time></trkpt><trkpt lat="42.40551241778954" lon="2.500237399048617"><ele>695.0</ele><time>2026-04-22T09:06:38Z</time></trkpt><trkpt lat="42.40550085980243" lon="2.5000137120308312"><ele>699.3333333333333</ele><time>2026-04-22T09:06:39Z</time></trkpt><trkpt lat="42.40551546375694" lon="2.49979581388833"><ele>703.6666666666666</ele><time>2026-04-22T09:06:40Z</time></trkpt><trkpt lat="42.40557282626278" lon="2.4995826324353976"><ele>708.0</ele><time>2026-04-22T09:06:41Z</time></trkpt><trkpt lat="42.40564586331279" lon="2.499348118424261"><ele>709.0</ele><time>2026-04-22T09:06:42Z</time></trkpt><trkpt lat="42.40568963802163" lon="2.4991274010858175"><ele>710.0</ele><time>2026-04-22T09:06:43Z</time></trkpt><trkpt lat="42.40569522210266" lon="2.498896477683819"><ele>711.0</ele><time>2026-04-22T09:06:44Z</time></trkpt><trkpt lat="42.405657835651006" lon="2.4986534460583316"><ele>711.3333333333334</ele><time>2026-04-22T09:06:45Z</time></trkpt><trkpt lat="42.40561349150612" lon="2.4984034255567433"><ele>711.6666666666667</ele><time>2026-04-22T09:06:46Z</time></trkpt><trkpt lat="42.4055770891831" lon="2.498140727424267"><ele>712.0</ele><time>2026-04-22T09:06:47Z</time></trkpt><trkpt lat="42.40554376442086" lon="2.49787535705416"><ele>713.6666666666667</ele><time>2026-04-22T09:06:48Z</time></trkpt><trkpt lat="42.40550832544451" lon="2.497623051194071"><ele>715.3333333333334</ele><time>2026-04-22T09:06:49Z</time></trkpt><trkpt lat="42.40547619069629" lon="2.497366189530925"><ele>717.0</ele><time>2026-04-22T09:06:50Z</time></trkpt><trkpt lat="42.40542702588736" lon="2.497128615680133"><ele>712.0</ele><time>2026-04-22T09:06:51Z</time></trkpt><trkpt lat="42.4053508975677" lon="2.4968987358673385"><ele>707.0</ele><time>2026-04-22T09:06:52Z</time></trkpt><trkpt lat="42.40524735513693" lon="2.4966766319870453"><ele>702.0</ele><time>2026-04-22T09:06:53Z</time></trkpt><trkpt lat="42.4051688120458" lon="2.496436692876669"><ele>704.6666666666666</ele><time>2026-04-22T09:06:54Z</time></trkpt><trkpt lat="42.4051215874693" lon="2.4962213167181915"><ele>707.3333333333333</ele><time>2026-04-22T09:06:55Z</time></trkpt><trkpt lat="42.40506807685644" lon="2.496017387290359"><ele>710.0</ele><time>2026-04-22T09:06:56Z</time></trkpt><trkpt lat="42.40503590276914" lon="2.4958198320420055"><ele>710.0</ele><time>2026-04-22T09:06:57Z</time></trkpt><trkpt lat="42.40496191065655" lon="2.4956521260455187"><ele>710.0</ele><time>2026-04-22T09:06:58Z</time></trkpt><trkpt lat="42.4048555358619" lon="2.495525608779256"><ele>710.0</ele><time>2026-04-22T09:06:59Z</time></trkpt><trkpt lat="42.40472564546205" lon="2.4954146650428344"><ele>710.0</ele><time>2026-04-22T09:07:00Z</time></trkpt><trkpt lat="42.40462484619703" lon="2.495277921213876"><ele>707.0</ele><time>2026-04-22T09:07:01Z</time></trkpt><trkpt lat="42.404548267552514" lon="2.4950877984697453"><ele>704.0</ele><time>2026-04-22T09:07:02Z</time></trkpt><trkpt lat="42.4044655876803" lon="2.494873640423871"><ele>701.0</ele><time>2026-04-22T09:07:03Z</time></trkpt><trkpt lat="42.40438744926527" lon="2.4946672234792557"><ele>704.3333333333333</ele><time>2026-04-22T09:07:04Z</time></trkpt><trkpt lat="42.40430246937152" lon="2.4944743558283546"><ele>707.6666666666666</ele><time>2026-04-22T09:07:05Z</time></trkpt><trkpt lat="42.40424995096364" lon="2.4942701813956654"><ele>711.0</ele><time>2026-04-22T09:07:06Z</time></trkpt><trkpt lat="42.40421624663793" lon="2.4940489173965346"><ele>711.0</ele><time>2026-04-22T09:07:07Z</time></trkpt><trkpt lat="42.40419249225643" lon="2.493822123957861"><ele>711.0</ele><time>2026-04-22T09:07:08Z</time></trkpt><trkpt lat="42.40418573511064" lon="2.49357331635722"><ele>711.0</ele><time>2026-04-22T09:07:09Z</time></trkpt><trkpt lat="42.40418165798516" lon="2.4933073525776104"><ele>712.6666666666666</ele><time>2026-04-22T09:07:10Z</time></trkpt><trkpt lat="42.40419948733818" lon="2.4930456923541238"><ele>714.3333333333333</ele><time>2026-04-22T09:07:11Z</time></trkpt><trkpt lat="42.4041979526207" lon="2.492785181422533"><ele>716.0</ele><time>2026-04-22T09:07:12Z</time></trkpt><trkpt lat="42.404197539712804" lon="2.4925540860773188"><ele>716.75</ele><time>2026-04-22T09:07:13Z</time></trkpt><trkpt lat="42.40418094011576" lon="2.4923440635038943"><ele>717.5</ele><time>2026-04-22T09:07:14Z</time></trkpt><trkpt lat="42.40417988997034" lon="2.492146896376874"><ele>718.25</ele><time>2026-04-22T09:07:15Z</time></trkpt><trkpt lat="42.404166691739036" lon="2.491966626384445"><ele>719.0</ele><time>2026-04-22T09:07:16Z</time></trkpt><trkpt lat="42.40419429405831" lon="2.4917896436828455"><ele>721.0</ele><time>2026-04-22T09:07:17Z</time></trkpt><trkpt lat="42.40407485911593" lon="2.491637121544511"><ele>723.0</ele><time>2026-04-22T09:07:18Z</time></trkpt><trkpt lat="42.403996319965394" lon="2.491466529977896"><ele>725.0</ele><time>2026-04-22T09:07:19Z</time></trkpt><trkpt lat="42.403927410331775" lon="2.491300379866654"><ele>726.75</ele><time>2026-04-22T09:07:20Z</time></trkpt><trkpt lat="42.40387232120658" lon="2.491140103891463"><ele>728.5</ele><time>2026-04-22T09:07:21Z</time></trkpt><trkpt lat="42.4038428281128" lon="2.490987149316415"><ele>730.25</ele><time>2026-04-22T09:07:22Z</time></trkpt><trkpt lat="42.40382677404429" lon="2.490822153943086"><ele>732.0</ele><time>2026-04-22T09:07:23Z</time></trkpt><trkpt lat="42.40382325601174" lon="2.4906519733502592"><ele>728.4000000000001</ele><time>2026-04-22T09:07:24Z</time></trkpt><trkpt lat="42.40382481165153" lon="2.4904931732064437"><ele>724.8000000000001</ele><time>2026-04-22T09:07:25Z</time></trkpt><trkpt lat="42.40382471561163" lon="2.490352133824744"><ele>721.2</ele><time>2026-04-22T09:07:26Z</time></trkpt><trkpt lat="42.403820738197034" lon="2.490225151157893"><ele>717.6</ele><time>2026-04-22T09:07:27Z</time></trkpt><trkpt lat="42.40382165328356" lon="2.490097527331541"><ele>714.0</ele><time>2026-04-22T09:07:28Z</time></trkpt><trkpt lat="42.40382277656131" lon="2.489968203330838"><ele>714.0</ele><time>2026-04-22T09:07:29Z</time></trkpt><trkpt lat="42.403810423622794" lon="2.4898026840627256"><ele>714.0</ele><time>2026-04-22T09:07:30Z</time></trkpt><trkpt lat="42.40379755554063" lon="2.489639755091238"><ele>714.0</ele><time>2026-04-22T09:07:31Z</time></trkpt><trkpt lat="42.40377122240736" lon="2.489460658798143"><ele>714.0</ele><time>2026-04-22T09:07:32Z</time></trkpt><trkpt lat="42.403740718034" lon="2.489255059575711"><ele>713.3333333333334</ele><time>2026-04-22T09:07:33Z</time></trkpt><trkpt lat="42.40371112478299" lon="2.489044623281319"><ele>712.6666666666667</ele><time>2026-04-22T09:07:33.999Z</time></trkpt><trkpt lat="42.40368138065724" lon="2.4888203402061198"><ele>712.0</ele><time>2026-04-22T09:07:34.999Z</time></trkpt><trkpt lat="42.40364526595528" lon="2.488589881397916"><ele>713.3333333333334</ele><time>2026-04-22T09:07:35.999Z</time></trkpt><trkpt lat="42.40360878890123" lon="2.488361828657432"><ele>714.6666666666666</ele><time>2026-04-22T09:07:36.999Z</time></trkpt><trkpt lat="42.40358093695802" lon="2.4881580434512327"><ele>716.0</ele><time>2026-04-22T09:07:37.999Z</time></trkpt><trkpt lat="42.403561879729736" lon="2.4879698278713884"><ele>718.25</ele><time>2026-04-22T09:07:38.999Z</time></trkpt><trkpt lat="42.40355279204909" lon="2.487807891999717"><ele>720.5</ele><time>2026-04-22T09:07:39.999Z</time></trkpt><trkpt lat="42.40356417446175" lon="2.48764998637008"><ele>722.75</ele><time>2026-04-22T09:07:40.999Z</time></trkpt><trkpt lat="42.40360886732151" lon="2.487482737638318"><ele>725.0</ele><time>2026-04-22T09:07:41.999Z</time></trkpt><trkpt lat="42.40366341743442" lon="2.487288949292233"><ele>725.0</ele><time>2026-04-22T09:07:42.999Z</time></trkpt><trkpt lat="42.40368996671338" lon="2.4871055356633796"><ele>725.0</ele><time>2026-04-22T09:07:43.999Z</time></trkpt><trkpt lat="42.40366730182872" lon="2.4869230915833835"><ele>725.0</ele><time>2026-04-22T09:07:44.999Z</time></trkpt><trkpt lat="42.40360695241667" lon="2.486728754286591"><ele>725.0</ele><time>2026-04-22T09:07:45.999Z</time></trkpt><trkpt lat="42.40353140474193" lon="2.4865128408367387"><ele>726.0</ele><time>2026-04-22T09:07:46.999Z</time></trkpt><trkpt lat="42.40347625915564" lon="2.4862764755200395"><ele>727.0</ele><time>2026-04-22T09:07:47.999Z</time></trkpt><trkpt lat="42.403426827475506" lon="2.486053211125446"><ele>728.0</ele><time>2026-04-22T09:07:48.999Z</time></trkpt><trkpt lat="42.403387832957755" lon="2.485848766265269"><ele>729.5</ele><time>2026-04-22T09:07:49.999Z</time></trkpt><trkpt lat="42.40338327354504" lon="2.4856720124292626"><ele>731.0</ele><time>2026-04-22T09:07:50.999Z</time></trkpt><trkpt lat="42.40336571226674" lon="2.485483526043924"><ele>732.5</ele><time>2026-04-22T09:07:51.999Z</time></trkpt><trkpt lat="42.40338612911024" lon="2.4852717479654425"><ele>734.0</ele><time>2026-04-22T09:07:52.999Z</time></trkpt><trkpt lat="42.40342217455059" lon="2.485044125307838"><ele>735.0</ele><time>2026-04-22T09:07:53.999Z</time></trkpt><trkpt lat="42.403459027090236" lon="2.484811443877853"><ele>736.0</ele><time>2026-04-22T09:07:54.999Z</time></trkpt><trkpt lat="42.403494091207385" lon="2.4845943761161826"><ele>737.0</ele><time>2026-04-22T09:07:55.999Z</time></trkpt><trkpt lat="42.40352320140042" lon="2.484400522240562"><ele>737.25</ele><time>2026-04-22T09:07:56.999Z</time></trkpt><trkpt lat="42.403547884955955" lon="2.4841975173605846"><ele>737.5</ele><time>2026-04-22T09:07:57.999Z</time></trkpt><trkpt lat="42.403573982301445" lon="2.483992109285396"><ele>737.75</ele><time>2026-04-22T09:07:58.999Z</time></trkpt><trkpt lat="42.403598613909" lon="2.483803871782029"><ele>738.0</ele><time>2026-04-22T09:07:59.999Z</time></trkpt><trkpt lat="42.40364185265785" lon="2.4836368723579474"><ele>737.0</ele><time>2026-04-22T09:08:00.999Z</time></trkpt><trkpt lat="42.40363764164815" lon="2.48344849804278"><ele>736.0</ele><time>2026-04-22T09:08:01.999Z</time></trkpt><trkpt lat="42.40366380067991" lon="2.4832847656205654"><ele>735.0</ele><time>2026-04-22T09:08:02.999Z</time></trkpt><trkpt lat="42.403685397595794" lon="2.4831326833776575"><ele>734.0</ele><time>2026-04-22T09:08:03.999Z</time></trkpt><trkpt lat="42.4037128799501" lon="2.4829814021433245"><ele>734.0</ele><time>2026-04-22T09:08:04.999Z</time></trkpt><trkpt lat="42.40373650252666" lon="2.482837231600723"><ele>734.0</ele><time>2026-04-22T09:08:05.999Z</time></trkpt><trkpt lat="42.40374750003224" lon="2.482693718042954"><ele>734.0</ele><time>2026-04-22T09:08:06.999Z</time></trkpt><trkpt lat="42.403749693678954" lon="2.4825711389300777"><ele>734.0</ele><time>2026-04-22T09:08:07.999Z</time></trkpt><trkpt lat="42.40375402168935" lon="2.4824366209685"><ele>734.0</ele><time>2026-04-22T09:08:08.999Z</time></trkpt><trkpt lat="42.40374666287002" lon="2.48231434162267"><ele>734.0</ele><time>2026-04-22T09:08:09.999Z</time></trkpt><trkpt lat="42.403743876492655" lon="2.4821979362526734"><ele>734.0</ele><time>2026-04-22T09:08:10.999Z</time></trkpt><trkpt lat="42.40373943085052" lon="2.4820835386599955"><ele>734.0</ele><time>2026-04-22T09:08:11.999Z</time></trkpt><trkpt lat="42.403741772511296" lon="2.481987151481152"><ele>734.0</ele><time>2026-04-22T09:08:12.999Z</time></trkpt><trkpt lat="42.40376901946236" lon="2.4818975042008242"><ele>734.0</ele><time>2026-04-22T09:08:13.999Z</time></trkpt><trkpt lat="42.403803392498105" lon="2.4817926590500594"><ele>734.0</ele><time>2026-04-22T09:08:14.999Z</time></trkpt><trkpt lat="42.403851766794766" lon="2.481690724602718"><ele>736.0</ele><time>2026-04-22T09:08:15.999Z</time></trkpt><trkpt lat="42.403894938787246" lon="2.481576127450959"><ele>738.0</ele><time>2026-04-22T09:08:16.999Z</time></trkpt><trkpt lat="42.40391335461846" lon="2.4814523279001803"><ele>740.0</ele><time>2026-04-22T09:08:17.999Z</time></trkpt><trkpt lat="42.40392719132984" lon="2.4813487665420197"><ele>742.0</ele><time>2026-04-22T09:08:18.999Z</time></trkpt><trkpt lat="42.40394828799692" lon="2.4812509458120733"><ele>744.0</ele><time>2026-04-22T09:08:19.999Z</time></trkpt><trkpt lat="42.40396392030718" lon="2.481156313467142"><ele>746.0</ele><time>2026-04-22T09:08:20.999Z</time></trkpt><trkpt lat="42.40396504704471" lon="2.48106030675845"><ele>746.0</ele><time>2026-04-22T09:08:21.999Z</time></trkpt><trkpt lat="42.40393382689938" lon="2.480954885183314"><ele>746.0</ele><time>2026-04-22T09:08:22.999Z</time></trkpt><trkpt lat="42.403922250831975" lon="2.4808595584307978"><ele>746.0</ele><time>2026-04-22T09:08:24.001Z</time></trkpt><trkpt lat="42.40391429044531" lon="2.4807577776674803"><ele>746.0</ele><time>2026-04-22T09:08:25.001Z</time></trkpt><trkpt lat="42.403907691333636" lon="2.4806566388485587"><ele>746.0</ele><time>2026-04-22T09:08:26.001Z</time></trkpt><trkpt lat="42.40389830192988" lon="2.480542531362564"><ele>746.0</ele><time>2026-04-22T09:08:27.001Z</time></trkpt><trkpt lat="42.4038880386775" lon="2.480436778809679"><ele>746.5</ele><time>2026-04-22T09:08:28.001Z</time></trkpt><trkpt lat="42.40387811114178" lon="2.4803333849284215"><ele>747.0</ele><time>2026-04-22T09:08:29.001Z</time></trkpt><trkpt lat="42.40386939971537" lon="2.480211881498951"><ele>747.5</ele><time>2026-04-22T09:08:30.001Z</time></trkpt><trkpt lat="42.40385609678573" lon="2.480097794712061"><ele>748.0</ele><time>2026-04-22T09:08:31.001Z</time></trkpt><trkpt lat="42.40381948414642" lon="2.4800119653587824"><ele>748.5</ele><time>2026-04-22T09:08:32.001Z</time></trkpt><trkpt lat="42.40375263262959" lon="2.4799354729421967"><ele>749.0</ele><time>2026-04-22T09:08:33.001Z</time></trkpt><trkpt lat="42.403683619787095" lon="2.4798723140362244"><ele>745.8000000000001</ele><time>2026-04-22T09:08:34.001Z</time></trkpt><trkpt lat="42.40360492699739" lon="2.4798201362910475"><ele>742.6</ele><time>2026-04-22T09:08:35.001Z</time></trkpt><trkpt lat="42.40351727481866" lon="2.4797840242428086"><ele>739.4</ele><time>2026-04-22T09:08:36.001Z</time></trkpt><trkpt lat="42.403413125913055" lon="2.4797676583888664"><ele>736.2</ele><time>2026-04-22T09:08:37.001Z</time></trkpt><trkpt lat="42.403309870800285" lon="2.479746472311379"><ele>733.0</ele><time>2026-04-22T09:08:38.001Z</time></trkpt><trkpt lat="42.403206974137724" lon="2.4797172992999448"><ele>733.0</ele><time>2026-04-22T09:08:39.001Z</time></trkpt><trkpt lat="42.40309615361414" lon="2.479688343197997"><ele>733.0</ele><time>2026-04-22T09:08:40.001Z</time></trkpt><trkpt lat="42.402989850876025" lon="2.4796597801386433"><ele>733.0</ele><time>2026-04-22T09:08:41.001Z</time></trkpt><trkpt lat="42.402884549219095" lon="2.479629243846138"><ele>733.0</ele><time>2026-04-22T09:08:42.001Z</time></trkpt><trkpt lat="42.40277531545877" lon="2.4796005462621986"><ele>733.0</ele><time>2026-04-22T09:08:43Z</time></trkpt><trkpt lat="42.40265167232111" lon="2.4795651873548716"><ele>733.8</ele><time>2026-04-22T09:08:44Z</time></trkpt><trkpt lat="42.402537418639625" lon="2.4795331527840814"><ele>734.5999999999999</ele><time>2026-04-22T09:08:45Z</time></trkpt><trkpt lat="42.40244419556969" lon="2.4794985639981793"><ele>735.4000000000001</ele><time>2026-04-22T09:08:46Z</time></trkpt><trkpt lat="42.402362907910415" lon="2.479450652167829"><ele>736.2</ele><time>2026-04-22T09:08:47Z</time></trkpt><trkpt lat="42.40230122619585" lon="2.4793972356637966"><ele>737.0</ele><time>2026-04-22T09:08:48Z</time></trkpt><trkpt lat="42.40220549244056" lon="2.479313100014784"><ele>741.8</ele><time>2026-04-22T09:08:50Z</time></trkpt><trkpt lat="42.4021074763055" lon="2.4792807721302057"><ele>746.6</ele><time>2026-04-22T09:08:52Z</time></trkpt><trkpt lat="42.40203895245704" lon="2.4793833526667286"><ele>751.4</ele><time>2026-04-22T09:08:53Z</time></trkpt><trkpt lat="42.401968854422435" lon="2.479442574014331"><ele>756.1999999999999</ele><time>2026-04-22T09:08:54Z</time></trkpt><trkpt lat="42.40187055620979" lon="2.479465513963206"><ele>761.0</ele><time>2026-04-22T09:08:55Z</time></trkpt><trkpt lat="42.4017756017898" lon="2.4795290638355554"><ele>761.0</ele><time>2026-04-22T09:08:56Z</time></trkpt><trkpt lat="42.401669742096004" lon="2.4795908254139416"><ele>761.0</ele><time>2026-04-22T09:08:57Z</time></trkpt><trkpt lat="42.40157384410895" lon="2.4796653500398476"><ele>761.0</ele><time>2026-04-22T09:08:58Z</time></trkpt><trkpt lat="42.401470898301454" lon="2.479736358610386"><ele>761.0</ele><time>2026-04-22T09:08:59Z</time></trkpt><trkpt lat="42.40135907747686" lon="2.4797903086560766"><ele>761.5</ele><time>2026-04-22T09:09:00Z</time></trkpt><trkpt lat="42.40123029972411" lon="2.479805194783208"><ele>762.0</ele><time>2026-04-22T09:09:01Z</time></trkpt><trkpt lat="42.40110172400808" lon="2.479770652348262"><ele>762.5</ele><time>2026-04-22T09:09:02Z</time></trkpt><trkpt lat="42.40096640382789" lon="2.47969229078032"><ele>763.0</ele><time>2026-04-22T09:09:03Z</time></trkpt><trkpt lat="42.400859101311156" lon="2.479570959552148"><ele>763.0</ele><time>2026-04-22T09:09:04Z</time></trkpt><trkpt lat="42.40076665208735" lon="2.4793999639477833"><ele>763.0</ele><time>2026-04-22T09:09:05Z</time></trkpt><trkpt lat="42.40066983808434" lon="2.479221233719489"><ele>763.0</ele><time>2026-04-22T09:09:06Z</time></trkpt><trkpt lat="42.4005624644303" lon="2.4790418022123197"><ele>762.0</ele><time>2026-04-22T09:09:07Z</time></trkpt><trkpt lat="42.40045233689469" lon="2.478861591800304"><ele>761.0</ele><time>2026-04-22T09:09:08Z</time></trkpt><trkpt lat="42.40033770305886" lon="2.4786758777202054"><ele>760.0</ele><time>2026-04-22T09:09:09Z</time></trkpt><trkpt lat="42.40023469925253" lon="2.478490016126822"><ele>760.0</ele><time>2026-04-22T09:09:10Z</time></trkpt><trkpt lat="42.40015482299303" lon="2.4782832938125603"><ele>760.0</ele><time>2026-04-22T09:09:11Z</time></trkpt><trkpt lat="42.4001034450153" lon="2.478033977941217"><ele>760.0</ele><time>2026-04-22T09:09:12Z</time></trkpt><trkpt lat="42.40005329364321" lon="2.4777788923045945"><ele>765.3333333333334</ele><time>2026-04-22T09:09:13Z</time></trkpt><trkpt lat="42.399981747751916" lon="2.477530142783766"><ele>770.6666666666667</ele><time>2026-04-22T09:09:14Z</time></trkpt><trkpt lat="42.399932608760956" lon="2.4772766071853303"><ele>776.0</ele><time>2026-04-22T09:09:15Z</time></trkpt><trkpt lat="42.39991185304451" lon="2.4770214523964666"><ele>779.0</ele><time>2026-04-22T09:09:16Z</time></trkpt><trkpt lat="42.39990537673049" lon="2.4767822886711905"><ele>782.0</ele><time>2026-04-22T09:09:17Z</time></trkpt><trkpt lat="42.399890780212445" lon="2.4765617656473333"><ele>785.0</ele><time>2026-04-22T09:09:18Z</time></trkpt><trkpt lat="42.399854567158854" lon="2.476337247748394"><ele>791.0</ele><time>2026-04-22T09:09:19Z</time></trkpt><trkpt lat="42.39980063959423" lon="2.476116070426424"><ele>797.0</ele><time>2026-04-22T09:09:20Z</time></trkpt><trkpt lat="42.39974733642039" lon="2.4759053131570727"><ele>803.0</ele><time>2026-04-22T09:09:21Z</time></trkpt><trkpt lat="42.39968864902601" lon="2.475709944221638"><ele>795.6666666666667</ele><time>2026-04-22T09:09:22Z</time></trkpt><trkpt lat="42.39963448753943" lon="2.4755064060945613"><ele>788.3333333333333</ele><time>2026-04-22T09:09:23Z</time></trkpt><trkpt lat="42.39952999644162" lon="2.4753256349141513"><ele>781.0</ele><time>2026-04-22T09:09:24Z</time></trkpt><trkpt lat="42.39942541152655" lon="2.475138156030972"><ele>781.0</ele><time>2026-04-22T09:09:25Z</time></trkpt><trkpt lat="42.399310917885515" lon="2.474949669576676"><ele>781.0</ele><time>2026-04-22T09:09:26Z</time></trkpt><trkpt lat="42.39918622475036" lon="2.4747629941916123"><ele>781.0</ele><time>2026-04-22T09:09:27Z</time></trkpt><trkpt lat="42.39906044534691" lon="2.4745781602471744"><ele>780.6666666666666</ele><time>2026-04-22T09:09:28Z</time></trkpt><trkpt lat="42.39894668620349" lon="2.4744000431820434"><ele>780.3333333333333</ele><time>2026-04-22T09:09:29Z</time></trkpt><trkpt lat="42.39883524249748" lon="2.4742394493628836"><ele>780.0</ele><time>2026-04-22T09:09:30Z</time></trkpt><trkpt lat="42.398733087776115" lon="2.4740906089713564"><ele>780.0</ele><time>2026-04-22T09:09:31Z</time></trkpt><trkpt lat="42.398628574905864" lon="2.473932893240909"><ele>780.0</ele><time>2026-04-22T09:09:32Z</time></trkpt><trkpt lat="42.398514675653495" lon="2.4737721045764265"><ele>780.0</ele><time>2026-04-22T09:09:33Z</time></trkpt><trkpt lat="42.398412281281615" lon="2.473623451176871"><ele>787.25</ele><time>2026-04-22T09:09:34Z</time></trkpt><trkpt lat="42.39832294464333" lon="2.4734901455115095"><ele>794.5</ele><time>2026-04-22T09:09:35Z</time></trkpt><trkpt lat="42.39823726731816" lon="2.473352419566044"><ele>801.75</ele><time>2026-04-22T09:09:36Z</time></trkpt><trkpt lat="42.398145548394666" lon="2.4732123568927156"><ele>809.0</ele><time>2026-04-22T09:09:37Z</time></trkpt><trkpt lat="42.398039146341524" lon="2.4731018836883223"><ele>807.0</ele><time>2026-04-22T09:09:38Z</time></trkpt><trkpt lat="42.39793078081577" lon="2.4730493968299165"><ele>805.0</ele><time>2026-04-22T09:09:39Z</time></trkpt><trkpt lat="42.39780639816418" lon="2.4730347461161353"><ele>803.0</ele><time>2026-04-22T09:09:40Z</time></trkpt><trkpt lat="42.39767895447163" lon="2.4730747457441407"><ele>801.0</ele><time>2026-04-22T09:09:41Z</time></trkpt><trkpt lat="42.39754055369262" lon="2.4731532815978055"><ele>801.0</ele><time>2026-04-22T09:09:42Z</time></trkpt><trkpt lat="42.397379015001064" lon="2.4732350309368685"><ele>801.0</ele><time>2026-04-22T09:09:42.999Z</time></trkpt><trkpt lat="42.39720661360344" lon="2.47330716546939"><ele>801.0</ele><time>2026-04-22T09:09:43.999Z</time></trkpt><trkpt lat="42.39703290200388" lon="2.4733955355214174"><ele>808.6666666666667</ele><time>2026-04-22T09:09:44.999Z</time></trkpt><trkpt lat="42.39684975606996" lon="2.473480945411004"><ele>816.3333333333334</ele><time>2026-04-22T09:09:45.999Z</time></trkpt><trkpt lat="42.396658080108196" lon="2.4735710083273905"><ele>824.0</ele><time>2026-04-22T09:09:46.999Z</time></trkpt><trkpt lat="42.39645810134546" lon="2.4736680072759714"><ele>818.6666666666667</ele><time>2026-04-22T09:09:47.999Z</time></trkpt><trkpt lat="42.39626647353555" lon="2.473731797387853"><ele>813.3333333333333</ele><time>2026-04-22T09:09:48.999Z</time></trkpt><trkpt lat="42.39608643308012" lon="2.4738101809950175"><ele>808.0</ele><time>2026-04-22T09:09:49.999Z</time></trkpt><trkpt lat="42.395909767289304" lon="2.473869635118435"><ele>808.0</ele><time>2026-04-22T09:09:50.999Z</time></trkpt><trkpt lat="42.395730453059784" lon="2.473842362058401"><ele>808.0</ele><time>2026-04-22T09:09:51.999Z</time></trkpt><trkpt lat="42.39555937530201" lon="2.4738363923961084"><ele>808.0</ele><time>2026-04-22T09:09:52.999Z</time></trkpt><trkpt lat="42.39540403318538" lon="2.4738250782908358"><ele>808.3333333333333</ele><time>2026-04-22T09:09:53.999Z</time></trkpt><trkpt lat="42.39524445222487" lon="2.473841358165622"><ele>808.6666666666667</ele><time>2026-04-22T09:09:54.999Z</time></trkpt><trkpt lat="42.39508312259864" lon="2.4738459115667055"><ele>809.0</ele><time>2026-04-22T09:09:55.999Z</time></trkpt><trkpt lat="42.3949246994579" lon="2.4737890820870545"><ele>814.6666666666667</ele><time>2026-04-22T09:09:56.999Z</time></trkpt><trkpt lat="42.394755720856985" lon="2.4737193169270038"><ele>820.3333333333333</ele><time>2026-04-22T09:09:57.999Z</time></trkpt><trkpt lat="42.39457792123458" lon="2.473645719622098"><ele>826.0</ele><time>2026-04-22T09:09:58.999Z</time></trkpt><trkpt lat="42.39441426578297" lon="2.4735151538116287"><ele>826.0</ele><time>2026-04-22T09:09:59.999Z</time></trkpt><trkpt lat="42.39425250067361" lon="2.4733687200177124"><ele>826.0</ele><time>2026-04-22T09:10:00.999Z</time></trkpt><trkpt lat="42.39409693833024" lon="2.473235101316381"><ele>826.0</ele><time>2026-04-22T09:10:01.999Z</time></trkpt><trkpt lat="42.39393727552513" lon="2.4731369403926764"><ele>825.0</ele><time>2026-04-22T09:10:02.999Z</time></trkpt><trkpt lat="42.393767697982284" lon="2.4730650374025522"><ele>824.0</ele><time>2026-04-22T09:10:03.999Z</time></trkpt><trkpt lat="42.393616078170034" lon="2.4730218758566047"><ele>823.0</ele><time>2026-04-22T09:10:04.999Z</time></trkpt><trkpt lat="42.3934708167969" lon="2.472999182349972"><ele>823.0</ele><time>2026-04-22T09:10:05.999Z</time></trkpt><trkpt lat="42.39333147632032" lon="2.4730179277774846"><ele>823.0</ele><time>2026-04-22T09:10:06.999Z</time></trkpt><trkpt lat="42.39321136523872" lon="2.4730874100046476"><ele>823.0</ele><time>2026-04-22T09:10:07.999Z</time></trkpt><trkpt lat="42.39310150926528" lon="2.4732033873463473"><ele>823.0</ele><time>2026-04-22T09:10:08.999Z</time></trkpt><trkpt lat="42.39303124252426" lon="2.4733407080837666"><ele>823.0</ele><time>2026-04-22T09:10:09.999Z</time></trkpt><trkpt lat="42.39299692720851" lon="2.473486122631165"><ele>823.0</ele><time>2026-04-22T09:10:10.999Z</time></trkpt><trkpt lat="42.39301010345863" lon="2.4736169554253737"><ele>823.0</ele><time>2026-04-22T09:10:11.999Z</time></trkpt><trkpt lat="42.39306572351053" lon="2.47375817420931"><ele>823.0</ele><time>2026-04-22T09:10:12.999Z</time></trkpt><trkpt lat="42.39314906153505" lon="2.473906510515449"><ele>826.0</ele><time>2026-04-22T09:10:13.999Z</time></trkpt><trkpt lat="42.393270508936304" lon="2.4740544631635846"><ele>829.0</ele><time>2026-04-22T09:10:14.999Z</time></trkpt><trkpt lat="42.393408230387" lon="2.4741888573635755"><ele>832.0</ele><time>2026-04-22T09:10:15.999Z</time></trkpt><trkpt lat="42.393553056706494" lon="2.474321741726029"><ele>832.0</ele><time>2026-04-22T09:10:16.999Z</time></trkpt><trkpt lat="42.39370404549816" lon="2.4744897160253645"><ele>832.0</ele><time>2026-04-22T09:10:17.999Z</time></trkpt><trkpt lat="42.39385508251663" lon="2.4746568209270254"><ele>832.0</ele><time>2026-04-22T09:10:18.999Z</time></trkpt><trkpt lat="42.39401501208404" lon="2.474840071984783"><ele>831.6666666666666</ele><time>2026-04-22T09:10:19.999Z</time></trkpt><trkpt lat="42.394182943976595" lon="2.4750237135878366"><ele>831.3333333333333</ele><time>2026-04-22T09:10:20.999Z</time></trkpt><trkpt lat="42.39435703940122" lon="2.4752106944369516"><ele>831.0</ele><time>2026-04-22T09:10:21.999Z</time></trkpt><trkpt lat="42.394549371439965" lon="2.4753902512470773"><ele>835.3333333333333</ele><time>2026-04-22T09:10:22.999Z</time></trkpt><trkpt lat="42.39468003215908" lon="2.475522136460988"><ele>839.6666666666666</ele><time>2026-04-22T09:10:23.999Z</time></trkpt><trkpt lat="42.39487412814217" lon="2.4756743076627177"><ele>844.0</ele><time>2026-04-22T09:10:24.999Z</time></trkpt><trkpt lat="42.395079176369016" lon="2.475804201079361"><ele>844.0</ele><time>2026-04-22T09:10:25.999Z</time></trkpt><trkpt lat="42.395276665371696" lon="2.4759202728399665"><ele>844.0</ele><time>2026-04-22T09:10:26.999Z</time></trkpt><trkpt lat="42.39546857198415" lon="2.47599497815652"><ele>844.0</ele><time>2026-04-22T09:10:27.999Z</time></trkpt><trkpt lat="42.39567662703732" lon="2.476048030416341"><ele>841.6666666666666</ele><time>2026-04-22T09:10:28.999Z</time></trkpt><trkpt lat="42.395902851334874" lon="2.4760621473953397"><ele>839.3333333333333</ele><time>2026-04-22T09:10:30.001Z</time></trkpt><trkpt lat="42.396105660382965" lon="2.476070105559486"><ele>837.0</ele><time>2026-04-22T09:10:31.001Z</time></trkpt><trkpt lat="42.39629594632327" lon="2.476082374754575"><ele>837.0</ele><time>2026-04-22T09:10:32.001Z</time></trkpt><trkpt lat="42.39646693338265" lon="2.4761199719333438"><ele>837.0</ele><time>2026-04-22T09:10:33.001Z</time></trkpt><trkpt lat="42.396599831716635" lon="2.4762262280771545"><ele>837.0</ele><time>2026-04-22T09:10:34.001Z</time></trkpt><trkpt lat="42.396707504557035" lon="2.476335366627199"><ele>840.75</ele><time>2026-04-22T09:10:35.001Z</time></trkpt><trkpt lat="42.39678535809167" lon="2.476491707808879"><ele>844.5</ele><time>2026-04-22T09:10:36.001Z</time></trkpt><trkpt lat="42.39684062616985" lon="2.476668580649497"><ele>848.25</ele><time>2026-04-22T09:10:37.001Z</time></trkpt><trkpt lat="42.39689079854806" lon="2.476883176417396"><ele>852.0</ele><time>2026-04-22T09:10:38.001Z</time></trkpt><trkpt lat="42.39693378933673" lon="2.4771168552862406"><ele>853.0</ele><time>2026-04-22T09:10:39.001Z</time></trkpt><trkpt lat="42.39692942167548" lon="2.4773109553004935"><ele>854.0</ele><time>2026-04-22T09:10:40.001Z</time></trkpt><trkpt lat="42.39689211241287" lon="2.477466240044687"><ele>855.0</ele><time>2026-04-22T09:10:41.001Z</time></trkpt><trkpt lat="42.396818648092086" lon="2.4775838383644135"><ele>856.0</ele><time>2026-04-22T09:10:42.001Z</time></trkpt><trkpt lat="42.39671774582129" lon="2.4776949083193927"><ele>856.0</ele><time>2026-04-22T09:10:43.001Z</time></trkpt><trkpt lat="42.396586135520785" lon="2.4777703400883513"><ele>856.0</ele><time>2026-04-22T09:10:44.001Z</time></trkpt><trkpt lat="42.39642909872148" lon="2.4777928110094023"><ele>856.0</ele><time>2026-04-22T09:10:45.001Z</time></trkpt><trkpt lat="42.39618844779481" lon="2.477853344286099"><ele>853.6666666666666</ele><time>2026-04-22T09:10:46.001Z</time></trkpt><trkpt lat="42.39599437334948" lon="2.4778150102584418"><ele>851.3333333333333</ele><time>2026-04-22T09:10:47Z</time></trkpt><trkpt lat="42.39581642412303" lon="2.477891071258475"><ele>849.0</ele><time>2026-04-22T09:10:48Z</time></trkpt><trkpt lat="42.39561795739022" lon="2.4779537452786355"><ele>857.6666666666667</ele><time>2026-04-22T09:10:49Z</time></trkpt><trkpt lat="42.39545128564772" lon="2.477999973410314"><ele>866.3333333333334</ele><time>2026-04-22T09:10:50Z</time></trkpt><trkpt lat="42.395325274451906" lon="2.4780686274657144"><ele>875.0</ele><time>2026-04-22T09:10:51Z</time></trkpt><trkpt lat="42.39521527764911" lon="2.478193546972566"><ele>875.0</ele><time>2026-04-22T09:10:52Z</time></trkpt><trkpt lat="42.39510738494599" lon="2.4783390296317958"><ele>875.0</ele><time>2026-04-22T09:10:53Z</time></trkpt><trkpt lat="42.39497004743679" lon="2.478535805020171"><ele>875.0</ele><time>2026-04-22T09:10:54Z</time></trkpt><trkpt lat="42.39483076217929" lon="2.4786985964111214"><ele>880.3333333333334</ele><time>2026-04-22T09:10:55Z</time></trkpt><trkpt lat="42.3946982012858" lon="2.4788713943022795"><ele>885.6666666666667</ele><time>2026-04-22T09:10:56Z</time></trkpt><trkpt lat="42.39458365163269" lon="2.4790399943654835"><ele>891.0</ele><time>2026-04-22T09:10:57Z</time></trkpt><trkpt lat="42.39445291848996" lon="2.4791475885748797"><ele>891.0</ele><time>2026-04-22T09:10:58Z</time></trkpt><trkpt lat="42.39431378246997" lon="2.479221830103918"><ele>891.0</ele><time>2026-04-22T09:10:59Z</time></trkpt><trkpt lat="42.394161914959454" lon="2.4792178461838565"><ele>891.0</ele><time>2026-04-22T09:11:00Z</time></trkpt><trkpt lat="42.39399134241611" lon="2.4792588197453633"><ele>891.0</ele><time>2026-04-22T09:11:01Z</time></trkpt><trkpt lat="42.39384512935989" lon="2.4793094079006512"><ele>891.0</ele><time>2026-04-22T09:11:02Z</time></trkpt><trkpt lat="42.393732623335644" lon="2.4793988347379634"><ele>891.0</ele><time>2026-04-22T09:11:03Z</time></trkpt><trkpt lat="42.39366651103164" lon="2.479522676904077"><ele>891.0</ele><time>2026-04-22T09:11:04Z</time></trkpt><trkpt lat="42.39364668762428" lon="2.479662658182397"><ele>888.25</ele><time>2026-04-22T09:11:05Z</time></trkpt><trkpt lat="42.39367799117092" lon="2.479824793102911"><ele>885.5</ele><time>2026-04-22T09:11:06Z</time></trkpt><trkpt lat="42.39375561501038" lon="2.479979410906438"><ele>882.75</ele><time>2026-04-22T09:11:07Z</time></trkpt><trkpt lat="42.393857298777235" lon="2.480134913525953"><ele>880.0</ele><time>2026-04-22T09:11:08Z</time></trkpt><trkpt lat="42.39395995311592" lon="2.480293245403949"><ele>885.6666666666666</ele><time>2026-04-22T09:11:09Z</time></trkpt><trkpt lat="42.39403055854997" lon="2.4805021357845387"><ele>891.3333333333333</ele><time>2026-04-22T09:11:10Z</time></trkpt><trkpt lat="42.39411649837999" lon="2.480697583910152"><ele>897.0</ele><time>2026-04-22T09:11:11Z</time></trkpt><trkpt lat="42.39418394793792" lon="2.480920512715707"><ele>897.0</ele><time>2026-04-22T09:11:12Z</time></trkpt><trkpt lat="42.39427158785895" lon="2.4811302013504806"><ele>897.0</ele><time>2026-04-22T09:11:13Z</time></trkpt><trkpt lat="42.394366522536416" lon="2.481291488512345"><ele>897.0</ele><time>2026-04-22T09:11:14Z</time></trkpt><trkpt lat="42.39448101453107" lon="2.4813966004431545"><ele>900.25</ele><time>2026-04-22T09:11:15Z</time></trkpt><trkpt lat="42.394606457872314" lon="2.4814356259390498"><ele>903.5</ele><time>2026-04-22T09:11:16Z</time></trkpt><trkpt lat="42.394752738009046" lon="2.481419992496069"><ele>906.75</ele><time>2026-04-22T09:11:17Z</time></trkpt><trkpt lat="42.394909666624194" lon="2.481356923788839"><ele>910.0</ele><time>2026-04-22T09:11:18Z</time></trkpt><trkpt lat="42.39507168707311" lon="2.481305817686161"><ele>910.0</ele><time>2026-04-22T09:11:19Z</time></trkpt><trkpt lat="42.3952255508979" lon="2.4812865162267643"><ele>910.0</ele><time>2026-04-22T09:11:20Z</time></trkpt><trkpt lat="42.39537163597038" lon="2.48132829584447"><ele>910.0</ele><time>2026-04-22T09:11:21Z</time></trkpt><trkpt lat="42.39549236874076" lon="2.481404725660417"><ele>910.0</ele><time>2026-04-22T09:11:22Z</time></trkpt><trkpt lat="42.395615669958644" lon="2.4815362507127765"><ele>907.3333333333333</ele><time>2026-04-22T09:11:23Z</time></trkpt><trkpt lat="42.39575269017597" lon="2.4816687610564414"><ele>904.6666666666667</ele><time>2026-04-22T09:11:24Z</time></trkpt><trkpt lat="42.39591558786138" lon="2.4818057519574293"><ele>902.0</ele><time>2026-04-22T09:11:25Z</time></trkpt><trkpt lat="42.396059354101254" lon="2.4819686846998503"><ele>904.3333333333334</ele><time>2026-04-22T09:11:26Z</time></trkpt><trkpt lat="42.39621558632126" lon="2.482114932355342"><ele>906.6666666666667</ele><time>2026-04-22T09:11:27Z</time></trkpt><trkpt lat="42.3963698012175" lon="2.4822689979285606"><ele>909.0</ele><time>2026-04-22T09:11:28Z</time></trkpt><trkpt lat="42.39649940397744" lon="2.4823836286287375"><ele>909.0</ele><time>2026-04-22T09:11:29Z</time></trkpt><trkpt lat="42.39660314837159" lon="2.482489357137735"><ele>909.0</ele><time>2026-04-22T09:11:30Z</time></trkpt><trkpt lat="42.39667165141331" lon="2.482601510384041"><ele>909.0</ele><time>2026-04-22T09:11:31Z</time></trkpt><trkpt lat="42.39672035192441" lon="2.482734865135649"><ele>909.0</ele><time>2026-04-22T09:11:32Z</time></trkpt><trkpt lat="42.396765715522015" lon="2.4829093456668545"><ele>914.0</ele><time>2026-04-22T09:11:33Z</time></trkpt><trkpt lat="42.39678861183802" lon="2.483108244547237"><ele>919.0</ele><time>2026-04-22T09:11:34Z</time></trkpt><trkpt lat="42.39681802801408" lon="2.483316871527765"><ele>924.0</ele><time>2026-04-22T09:11:35Z</time></trkpt><trkpt lat="42.39686110810461" lon="2.48352632223029"><ele>924.0</ele><time>2026-04-22T09:11:36Z</time></trkpt><trkpt lat="42.39690521322916" lon="2.483748841011028"><ele>924.0</ele><time>2026-04-22T09:11:36.999Z</time></trkpt><trkpt lat="42.396953183467495" lon="2.483972996934874"><ele>924.0</ele><time>2026-04-22T09:11:37.999Z</time></trkpt><trkpt lat="42.396979832747675" lon="2.48421523881735"><ele>928.0</ele><time>2026-04-22T09:11:38.999Z</time></trkpt><trkpt lat="42.397015803666434" lon="2.4844251435522047"><ele>932.0</ele><time>2026-04-22T09:11:39.999Z</time></trkpt><trkpt lat="42.39704295639917" lon="2.4846040095877986"><ele>936.0</ele><time>2026-04-22T09:11:40.999Z</time></trkpt><trkpt lat="42.39705415633598" lon="2.4847757760025226"><ele>940.0</ele><time>2026-04-22T09:11:41.999Z</time></trkpt><trkpt lat="42.39703742988542" lon="2.4849519862860436"><ele>941.5</ele><time>2026-04-22T09:11:42.999Z</time></trkpt><trkpt lat="42.39698589740978" lon="2.4850982017615855"><ele>943.0</ele><time>2026-04-22T09:11:43.999Z</time></trkpt><trkpt lat="42.3969116761148" lon="2.485234595384939"><ele>944.5</ele><time>2026-04-22T09:11:44.999Z</time></trkpt><trkpt lat="42.396812742837675" lon="2.4853561280864955"><ele>946.0</ele><time>2026-04-22T09:11:45.999Z</time></trkpt><trkpt lat="42.396685312752105" lon="2.485504840902918"><ele>946.0</ele><time>2026-04-22T09:11:46.999Z</time></trkpt><trkpt lat="42.39661983054998" lon="2.4856078846994287"><ele>945.9999999999999</ele><time>2026-04-22T09:11:47.999Z</time></trkpt><trkpt lat="42.396607309458616" lon="2.4857262089226224"><ele>945.9999999999999</ele><time>2026-04-22T09:11:48.999Z</time></trkpt><trkpt lat="42.39662142918248" lon="2.4858595965166543"><ele>946.0</ele><time>2026-04-22T09:11:49.999Z</time></trkpt><trkpt lat="42.39666945011935" lon="2.4860105733882407"><ele>946.0</ele><time>2026-04-22T09:11:50.999Z</time></trkpt><trkpt lat="42.39675343236995" lon="2.486161628456293"><ele>945.25</ele><time>2026-04-22T09:11:51.999Z</time></trkpt><trkpt lat="42.396804008076636" lon="2.486344193260753"><ele>944.5</ele><time>2026-04-22T09:11:52.999Z</time></trkpt><trkpt lat="42.39682350129855" lon="2.4865013394256255"><ele>943.75</ele><time>2026-04-22T09:11:53.999Z</time></trkpt><trkpt lat="42.39680452813132" lon="2.486670709868781"><ele>943.0</ele><time>2026-04-22T09:11:54.999Z</time></trkpt><trkpt lat="42.396762857430204" lon="2.4868858342996916"><ele>942.0</ele><time>2026-04-22T09:11:55.999Z</time></trkpt><trkpt lat="42.396715364018284" lon="2.487110247665645"><ele>941.0</ele><time>2026-04-22T09:11:56.999Z</time></trkpt><trkpt lat="42.39666640462345" lon="2.4873208062960046"><ele>940.0</ele><time>2026-04-22T09:11:57.999Z</time></trkpt><trkpt lat="42.39659895370847" lon="2.487520224756819"><ele>940.0</ele><time>2026-04-22T09:11:58.999Z</time></trkpt><trkpt lat="42.39650590335933" lon="2.4876778926868424"><ele>940.0</ele><time>2026-04-22T09:11:59.999Z</time></trkpt><trkpt lat="42.396397576531115" lon="2.487830283674494"><ele>940.0</ele><time>2026-04-22T09:12:00.999Z</time></trkpt><trkpt lat="42.39627799883242" lon="2.487942695146441"><ele>949.0</ele><time>2026-04-22T09:12:01.999Z</time></trkpt><trkpt lat="42.39621031631962" lon="2.488076303554168"><ele>958.0</ele><time>2026-04-22T09:12:02.999Z</time></trkpt><trkpt lat="42.39617888327658" lon="2.4882360581231864"><ele>967.0</ele><time>2026-04-22T09:12:03.999Z</time></trkpt><trkpt lat="42.396228726717794" lon="2.488412741369297"><ele>976.0</ele><time>2026-04-22T09:12:04.999Z</time></trkpt><trkpt lat="42.3962981712271" lon="2.48860163904093"><ele>976.0</ele><time>2026-04-22T09:12:05.999Z</time></trkpt><trkpt lat="42.396334748230665" lon="2.4888052053652157"><ele>976.0</ele><time>2026-04-22T09:12:06.999Z</time></trkpt><trkpt lat="42.39635903439675" lon="2.48901279092917"><ele>976.0</ele><time>2026-04-22T09:12:07.999Z</time></trkpt><trkpt lat="42.39635726156534" lon="2.4892295868804273"><ele>976.0</ele><time>2026-04-22T09:12:08.999Z</time></trkpt><trkpt lat="42.39631234786637" lon="2.4894424194325055"><ele>976.0</ele><time>2026-04-22T09:12:09.999Z</time></trkpt><trkpt lat="42.39625859111416" lon="2.4896541319243557"><ele>976.0</ele><time>2026-04-22T09:12:10.999Z</time></trkpt><trkpt lat="42.39620275725492" lon="2.489876172843124"><ele>974.3333333333333</ele><time>2026-04-22T09:12:11.999Z</time></trkpt><trkpt lat="42.396149584887475" lon="2.490105308525453"><ele>972.6666666666667</ele><time>2026-04-22T09:12:12.999Z</time></trkpt><trkpt lat="42.396097803403045" lon="2.4903323367862353"><ele>971.0</ele><time>2026-04-22T09:12:13.999Z</time></trkpt><trkpt lat="42.39604697975967" lon="2.4905584298893397"><ele>970.3333333333334</ele><time>2026-04-22T09:12:14.999Z</time></trkpt><trkpt lat="42.39598558634653" lon="2.4907922846516812"><ele>969.6666666666667</ele><time>2026-04-22T09:12:15.999Z</time></trkpt><trkpt lat="42.39593445081877" lon="2.4910262088982105"><ele>969.0</ele><time>2026-04-22T09:12:16.999Z</time></trkpt><trkpt lat="42.39586299544249" lon="2.4912579809158886"><ele>966.6666666666667</ele><time>2026-04-22T09:12:17.999Z</time></trkpt><trkpt lat="42.3958038899731" lon="2.4914910027324906"><ele>964.3333333333334</ele><time>2026-04-22T09:12:18.999Z</time></trkpt><trkpt lat="42.395741805724136" lon="2.491731114904171"><ele>962.0</ele><time>2026-04-22T09:12:19.999Z</time></trkpt><trkpt lat="42.395697323803276" lon="2.4919530042641758"><ele>959.75</ele><time>2026-04-22T09:12:20.999Z</time></trkpt><trkpt lat="42.39564753938341" lon="2.4921289333715335"><ele>957.5</ele><time>2026-04-22T09:12:21.999Z</time></trkpt><trkpt lat="42.395593221121956" lon="2.492264855616846"><ele>955.25</ele><time>2026-04-22T09:12:22.999Z</time></trkpt><trkpt lat="42.39552033689358" lon="2.492369176661207"><ele>953.0</ele><time>2026-04-22T09:12:23.999Z</time></trkpt><trkpt lat="42.39540095738926" lon="2.492392728338555"><ele>956.5999999999999</ele><time>2026-04-22T09:12:24.999Z</time></trkpt><trkpt lat="42.39530007431921" lon="2.4923544949717646"><ele>960.1999999999999</ele><time>2026-04-22T09:12:25.999Z</time></trkpt><trkpt lat="42.39522988481045" lon="2.4922239999860443"><ele>963.8</ele><time>2026-04-22T09:12:26.999Z</time></trkpt><trkpt lat="42.395207514989984" lon="2.492094219687218"><ele>967.4</ele><time>2026-04-22T09:12:27.999Z</time></trkpt><trkpt lat="42.395238398355986" lon="2.4919470599426643"><ele>971.0</ele><time>2026-04-22T09:12:28.999Z</time></trkpt><trkpt lat="42.39530641041476" lon="2.4917839741848256"><ele>977.3333333333334</ele><time>2026-04-22T09:12:29.999Z</time></trkpt><trkpt lat="42.395359721784196" lon="2.4916058419425933"><ele>983.6666666666667</ele><time>2026-04-22T09:12:30.999Z</time></trkpt><trkpt lat="42.3954232308005" lon="2.491416959301279"><ele>990.0</ele><time>2026-04-22T09:12:31.999Z</time></trkpt><trkpt lat="42.395476345089214" lon="2.4912049370794738"><ele>983.0</ele><time>2026-04-22T09:12:32.999Z</time></trkpt><trkpt lat="42.3955184042717" lon="2.4909717869990526"><ele>976.0</ele><time>2026-04-22T09:12:33.999Z</time></trkpt><trkpt lat="42.395528297682446" lon="2.490735716146137"><ele>969.0</ele><time>2026-04-22T09:12:34.999Z</time></trkpt><trkpt lat="42.39551027234119" lon="2.4904806608862393"><ele>981.0</ele><time>2026-04-22T09:12:36Z</time></trkpt><trkpt lat="42.39548783650165" lon="2.4902242811294903"><ele>993.0</ele><time>2026-04-22T09:12:37Z</time></trkpt><trkpt lat="42.395479558871905" lon="2.489963888720237"><ele>1005.0</ele><time>2026-04-22T09:12:38Z</time></trkpt><trkpt lat="42.39548583336329" lon="2.489714164688035"><ele>1005.6666666666667</ele><time>2026-04-22T09:12:39Z</time></trkpt><trkpt lat="42.39549934622271" lon="2.4894781128509718"><ele>1006.3333333333334</ele><time>2026-04-22T09:12:40Z</time></trkpt><trkpt lat="42.39553642323481" lon="2.4892578297284347"><ele>1007.0</ele><time>2026-04-22T09:12:41Z</time></trkpt><trkpt lat="42.395580728632275" lon="2.4890657011262927"><ele>1006.0</ele><time>2026-04-22T09:12:42Z</time></trkpt><trkpt lat="42.39562385700048" lon="2.488906570031022"><ele>1005.0</ele><time>2026-04-22T09:12:43Z</time></trkpt><trkpt lat="42.39562212375821" lon="2.4887617314416484"><ele>1004.0</ele><time>2026-04-22T09:12:44Z</time></trkpt><trkpt lat="42.395567802295695" lon="2.4886342096199456"><ele>1003.0</ele><time>2026-04-22T09:12:45Z</time></trkpt><trkpt lat="42.395469877193385" lon="2.4885360822764375"><ele>1003.0</ele><time>2026-04-22T09:12:46Z</time></trkpt><trkpt lat="42.39535058765285" lon="2.4885176707147156"><ele>1003.0</ele><time>2026-04-22T09:12:47Z</time></trkpt><trkpt lat="42.3952314434579" lon="2.4885703953949245"><ele>1003.0</ele><time>2026-04-22T09:12:48Z</time></trkpt><trkpt lat="42.39515772168064" lon="2.4886888978788546"><ele>1003.0</ele><time>2026-04-22T09:12:49Z</time></trkpt><trkpt lat="42.39512714491275" lon="2.4888318010601655"><ele>1004.0</ele><time>2026-04-22T09:12:50Z</time></trkpt><trkpt lat="42.39511888866837" lon="2.488977010475511"><ele>1005.0</ele><time>2026-04-22T09:12:51Z</time></trkpt><trkpt lat="42.39512726517625" lon="2.489141748542489"><ele>1006.0</ele><time>2026-04-22T09:12:52Z</time></trkpt><trkpt lat="42.39514126228443" lon="2.4893052737903707"><ele>1007.0</ele><time>2026-04-22T09:12:53Z</time></trkpt><trkpt lat="42.395126200940155" lon="2.4894792610473884"><ele>1006.3333333333334</ele><time>2026-04-22T09:12:54Z</time></trkpt><trkpt lat="42.395113346126074" lon="2.489689690980585"><ele>1005.6666666666667</ele><time>2026-04-22T09:12:55Z</time></trkpt><trkpt lat="42.39508257712864" lon="2.489912874763289"><ele>1005.0</ele><time>2026-04-22T09:12:56Z</time></trkpt><trkpt lat="42.39503438089582" lon="2.4901445930677277"><ele>1005.0</ele><time>2026-04-22T09:12:57Z</time></trkpt><trkpt lat="42.3949653514428" lon="2.4903697616976492"><ele>1005.0</ele><time>2026-04-22T09:12:58Z</time></trkpt><trkpt lat="42.39487579535864" lon="2.490601891101055"><ele>1005.0</ele><time>2026-04-22T09:12:59Z</time></trkpt><trkpt lat="42.39478090395865" lon="2.49082910083878"><ele>1007.3333333333333</ele><time>2026-04-22T09:13:00Z</time></trkpt><trkpt lat="42.39466756786194" lon="2.4910211194074265"><ele>1009.6666666666666</ele><time>2026-04-22T09:13:01Z</time></trkpt><trkpt lat="42.39452794540967" lon="2.4911817316660714"><ele>1012.0</ele><time>2026-04-22T09:13:02Z</time></trkpt><trkpt lat="42.3943792755147" lon="2.4913596162402722"><ele>1012.0</ele><time>2026-04-22T09:13:03Z</time></trkpt><trkpt lat="42.39420526481996" lon="2.4915050080718326"><ele>1012.0</ele><time>2026-04-22T09:13:04Z</time></trkpt><trkpt lat="42.39401133382089" lon="2.4916172686708835"><ele>1012.0</ele><time>2026-04-22T09:13:05Z</time></trkpt><trkpt lat="42.39382693541128" lon="2.491742345471572"><ele>1015.0</ele><time>2026-04-22T09:13:06Z</time></trkpt><trkpt lat="42.39365003361424" lon="2.4918662499560047"><ele>1018.0</ele><time>2026-04-22T09:13:07Z</time></trkpt><trkpt lat="42.393459260832984" lon="2.4920011479099142"><ele>1021.0</ele><time>2026-04-22T09:13:08Z</time></trkpt><trkpt lat="42.39326668307511" lon="2.4921420406159114"><ele>1021.0</ele><time>2026-04-22T09:13:09Z</time></trkpt><trkpt lat="42.39307748666004" lon="2.4922802888303535"><ele>1021.0</ele><time>2026-04-22T09:13:10Z</time></trkpt><trkpt lat="42.39290120614231" lon="2.492407414166176"><ele>1021.0</ele><time>2026-04-22T09:13:11Z</time></trkpt><trkpt lat="42.39273950132059" lon="2.492527694428287"><ele>1026.6666666666665</ele><time>2026-04-22T09:13:12Z</time></trkpt><trkpt lat="42.392577710122325" lon="2.492584917282338"><ele>1032.3333333333333</ele><time>2026-04-22T09:13:13Z</time></trkpt><trkpt lat="42.39240500240391" lon="2.4925959074694584"><ele>1038.0</ele><time>2026-04-22T09:13:14Z</time></trkpt><trkpt lat="42.392226893292175" lon="2.4925734332525913"><ele>1040.0</ele><time>2026-04-22T09:13:15Z</time></trkpt><trkpt lat="42.39204421295055" lon="2.4925179088155778"><ele>1042.0</ele><time>2026-04-22T09:13:16Z</time></trkpt><trkpt lat="42.39186476354339" lon="2.4924453066068857"><ele>1044.0</ele><time>2026-04-22T09:13:17Z</time></trkpt><trkpt lat="42.39166921814413" lon="2.4923920381604456"><ele>1044.0</ele><time>2026-04-22T09:13:18Z</time></trkpt><trkpt lat="42.39147335006474" lon="2.4923390032051778"><ele>1044.0</ele><time>2026-04-22T09:13:19Z</time></trkpt><trkpt lat="42.391282112927854" lon="2.492307435368724"><ele>1044.0</ele><time>2026-04-22T09:13:20Z</time></trkpt><trkpt lat="42.391101651421565" lon="2.492315039349666"><ele>1046.6666666666667</ele><time>2026-04-22T09:13:21Z</time></trkpt><trkpt lat="42.390911771028655" lon="2.4923537140174417"><ele>1049.3333333333335</ele><time>2026-04-22T09:13:22Z</time></trkpt><trkpt lat="42.39072226949004" lon="2.4924260490533685"><ele>1052.0</ele><time>2026-04-22T09:13:23Z</time></trkpt><trkpt lat="42.39053415852756" lon="2.4925185186205154"><ele>1056.6666666666667</ele><time>2026-04-22T09:13:24Z</time></trkpt><trkpt lat="42.39032358648195" lon="2.4926003647128034"><ele>1061.3333333333333</ele><time>2026-04-22T09:13:25Z</time></trkpt><trkpt lat="42.390116724669035" lon="2.4926687609179528"><ele>1066.0</ele><time>2026-04-22T09:13:26Z</time></trkpt><trkpt lat="42.389903876955515" lon="2.4927577608534377"><ele>1066.0</ele><time>2026-04-22T09:13:27Z</time></trkpt><trkpt lat="42.38970673740981" lon="2.492861880306937"><ele>1066.0</ele><time>2026-04-22T09:13:28Z</time></trkpt><trkpt lat="42.38950340974501" lon="2.493003870412517"><ele>1066.0</ele><time>2026-04-22T09:13:29Z</time></trkpt><trkpt lat="42.389322103305055" lon="2.4931150742194363"><ele>1066.3333333333333</ele><time>2026-04-22T09:13:30Z</time></trkpt><trkpt lat="42.38916335966016" lon="2.493211198726501"><ele>1066.6666666666667</ele><time>2026-04-22T09:13:31Z</time></trkpt><trkpt lat="42.38902197149044" lon="2.493314967898984"><ele>1067.0</ele><time>2026-04-22T09:13:32Z</time></trkpt><trkpt lat="42.38888993680722" lon="2.4934089317987618"><ele>1072.0</ele><time>2026-04-22T09:13:32.999Z</time></trkpt><trkpt lat="42.3887521488663" lon="2.49352875594392"><ele>1077.0</ele><time>2026-04-22T09:13:33.999Z</time></trkpt><trkpt lat="42.38864325648351" lon="2.493708496467274"><ele>1082.0</ele><time>2026-04-22T09:13:34.999Z</time></trkpt><trkpt lat="42.388536386743354" lon="2.493912516176329"><ele>1082.0</ele><time>2026-04-22T09:13:35.999Z</time></trkpt><trkpt lat="42.38843001350722" lon="2.494126110031258"><ele>1082.0</ele><time>2026-04-22T09:13:36.999Z</time></trkpt><trkpt lat="42.38830985599457" lon="2.494335312199168"><ele>1082.0</ele><time>2026-04-22T09:13:37.999Z</time></trkpt><trkpt lat="42.388173644793206" lon="2.494531590271595"><ele>1078.0</ele><time>2026-04-22T09:13:38.999Z</time></trkpt><trkpt lat="42.3880384921806" lon="2.49474974949103"><ele>1074.0</ele><time>2026-04-22T09:13:39.999Z</time></trkpt><trkpt lat="42.387920712747444" lon="2.4949670765635843"><ele>1070.0</ele><time>2026-04-22T09:13:40.999Z</time></trkpt><trkpt lat="42.387790279920374" lon="2.4951937934438626"><ele>1077.6666666666667</ele><time>2026-04-22T09:13:41.999Z</time></trkpt><trkpt lat="42.38766191612699" lon="2.495427232939567"><ele>1085.3333333333333</ele><time>2026-04-22T09:13:42.999Z</time></trkpt><trkpt lat="42.387530002379314" lon="2.495662271100283"><ele>1093.0</ele><time>2026-04-22T09:13:43.999Z</time></trkpt><trkpt lat="42.387402147850125" lon="2.4958903783438955"><ele>1093.0</ele><time>2026-04-22T09:13:44.999Z</time></trkpt><trkpt lat="42.387277560648904" lon="2.496077501925685"><ele>1093.0</ele><time>2026-04-22T09:13:45.999Z</time></trkpt><trkpt lat="42.38716909511524" lon="2.4961987155066248"><ele>1093.0</ele><time>2026-04-22T09:13:46.999Z</time></trkpt><trkpt lat="42.38705069056729" lon="2.496277846591167"><ele>1090.75</ele><time>2026-04-22T09:13:47.999Z</time></trkpt><trkpt lat="42.386939331485735" lon="2.496307930972075"><ele>1088.5</ele><time>2026-04-22T09:13:48.999Z</time></trkpt><trkpt lat="42.3868211243054" lon="2.4962710174795353"><ele>1086.25</ele><time>2026-04-22T09:13:49.999Z</time></trkpt><trkpt lat="42.38671398594144" lon="2.4961676464467075"><ele>1084.0</ele><time>2026-04-22T09:13:50.999Z</time></trkpt><trkpt lat="42.38658662037407" lon="2.4960617447391003"><ele>1090.6666666666665</ele><time>2026-04-22T09:13:51.999Z</time></trkpt><trkpt lat="42.38646758734673" lon="2.495920801615698"><ele>1097.3333333333333</ele><time>2026-04-22T09:13:52.999Z</time></trkpt><trkpt lat="42.3863350639066" lon="2.4957976580552677"><ele>1104.0</ele><time>2026-04-22T09:13:53.999Z</time></trkpt><trkpt lat="42.38621256069908" lon="2.495713513990978"><ele>1107.0</ele><time>2026-04-22T09:13:54.999Z</time></trkpt><trkpt lat="42.38609843327362" lon="2.49565458440657"><ele>1110.0</ele><time>2026-04-22T09:13:55.999Z</time></trkpt><trkpt lat="42.38598256839343" lon="2.495666398569568"><ele>1113.0</ele><time>2026-04-22T09:13:56.999Z</time></trkpt><trkpt lat="42.38585779196934" lon="2.4957578777113096"><ele>1116.0</ele><time>2026-04-22T09:13:57.999Z</time></trkpt><trkpt lat="42.38573345739566" lon="2.4958860244440086"><ele>1116.0</ele><time>2026-04-22T09:13:58.999Z</time></trkpt><trkpt lat="42.38559401000457" lon="2.4959904336204533"><ele>1116.0</ele><time>2026-04-22T09:13:59.999Z</time></trkpt><trkpt lat="42.38544684651467" lon="2.4960920469573726"><ele>1116.0</ele><time>2026-04-22T09:14:00.999Z</time></trkpt><trkpt lat="42.385305666995094" lon="2.4961761220305463"><ele>1118.5</ele><time>2026-04-22T09:14:01.999Z</time></trkpt><trkpt lat="42.38517849270078" lon="2.4962398834261457"><ele>1121.0</ele><time>2026-04-22T09:14:02.999Z</time></trkpt><trkpt lat="42.38503503123021" lon="2.496269740546747"><ele>1123.5</ele><time>2026-04-22T09:14:03.999Z</time></trkpt><trkpt lat="42.384907701504815" lon="2.4962107273605603"><ele>1126.0</ele><time>2026-04-22T09:14:04.999Z</time></trkpt><trkpt lat="42.38480364648742" lon="2.496132155406579"><ele>1126.0</ele><time>2026-04-22T09:14:05.999Z</time></trkpt><trkpt lat="42.38472914837723" lon="2.496009959498792"><ele>1126.0</ele><time>2026-04-22T09:14:06.999Z</time></trkpt><trkpt lat="42.38464620028537" lon="2.4958551186052804"><ele>1126.0</ele><time>2026-04-22T09:14:07.999Z</time></trkpt><trkpt lat="42.384553129018336" lon="2.4956936570401873"><ele>1126.0</ele><time>2026-04-22T09:14:08.999Z</time></trkpt><trkpt lat="42.38446414859615" lon="2.4955555651464323"><ele>1126.75</ele><time>2026-04-22T09:14:09.999Z</time></trkpt><trkpt lat="42.384375887963465" lon="2.4954833967459336"><ele>1127.5</ele><time>2026-04-22T09:14:10.999Z</time></trkpt><trkpt lat="42.38427768635813" lon="2.4954554096256163"><ele>1128.25</ele><time>2026-04-22T09:14:11.999Z</time></trkpt><trkpt lat="42.38417816954106" lon="2.4954881768440713"><ele>1129.0</ele><time>2026-04-22T09:14:12.999Z</time></trkpt><trkpt lat="42.38405549495311" lon="2.495595193085579"><ele>1129.0</ele><time>2026-04-22T09:14:13.999Z</time></trkpt><trkpt lat="42.383954692789835" lon="2.4957282589536334"><ele>1129.0</ele><time>2026-04-22T09:14:14.999Z</time></trkpt><trkpt lat="42.383861578185154" lon="2.495893959845914"><ele>1129.0</ele><time>2026-04-22T09:14:15.999Z</time></trkpt><trkpt lat="42.383760046502886" lon="2.4960533742100313"><ele>1129.25</ele><time>2026-04-22T09:14:16.999Z</time></trkpt><trkpt lat="42.383644963245104" lon="2.4961870632461243"><ele>1129.5</ele><time>2026-04-22T09:14:17.999Z</time></trkpt><trkpt lat="42.383509073011396" lon="2.4962607220428437"><ele>1129.75</ele><time>2026-04-22T09:14:18.999Z</time></trkpt><trkpt lat="42.38337725328931" lon="2.4962911822915492"><ele>1130.0</ele><time>2026-04-22T09:14:19.999Z</time></trkpt><trkpt lat="42.3832301684298" lon="2.496298266994159"><ele>1130.0</ele><time>2026-04-22T09:14:20.999Z</time></trkpt><trkpt lat="42.38306054413076" lon="2.496303702811197"><ele>1130.0</ele><time>2026-04-22T09:14:21.999Z</time></trkpt><trkpt lat="42.38288972903906" lon="2.496269589343916"><ele>1130.0</ele><time>2026-04-22T09:14:22.999Z</time></trkpt><trkpt lat="42.382725162812754" lon="2.496255111042429"><ele>1139.0</ele><time>2026-04-22T09:14:23.999Z</time></trkpt><trkpt lat="42.38257226124238" lon="2.496226288165522"><ele>1148.0</ele><time>2026-04-22T09:14:24.999Z</time></trkpt><trkpt lat="42.38241788899495" lon="2.496136440455629"><ele>1157.0</ele><time>2026-04-22T09:14:25.999Z</time></trkpt><trkpt lat="42.38227161812176" lon="2.496067163858091"><ele>1157.25</ele><time>2026-04-22T09:14:26.999Z</time></trkpt><trkpt lat="42.38214572810034" lon="2.4959604445816366"><ele>1157.5</ele><time>2026-04-22T09:14:27.999Z</time></trkpt><trkpt lat="42.382019808508915" lon="2.4958639740864643"><ele>1157.75</ele><time>2026-04-22T09:14:28.999Z</time></trkpt><trkpt lat="42.3818921938202" lon="2.495801611451634"><ele>1158.0</ele><time>2026-04-22T09:14:29.999Z</time></trkpt><trkpt lat="42.38176195461673" lon="2.495780334751555"><ele>1158.0</ele><time>2026-04-22T09:14:30.999Z</time></trkpt><trkpt lat="42.38164021725259" lon="2.495826640934908"><ele>1158.0</ele><time>2026-04-22T09:14:31.999Z</time></trkpt><trkpt lat="42.38153416079567" lon="2.4959391141008114"><ele>1158.0</ele><time>2026-04-22T09:14:32.999Z</time></trkpt><trkpt lat="42.38145706195347" lon="2.4960771093770235"><ele>1158.0</ele><time>2026-04-22T09:14:33.999Z</time></trkpt><trkpt lat="42.38142726680046" lon="2.4962424022648153"><ele>1157.75</ele><time>2026-04-22T09:14:34.998Z</time></trkpt><trkpt lat="42.381439683208825" lon="2.496434385620947"><ele>1157.5</ele><time>2026-04-22T09:14:35.998Z</time></trkpt><trkpt lat="42.38149859191991" lon="2.4966134554739168"><ele>1157.25</ele><time>2026-04-22T09:14:36.998Z</time></trkpt><trkpt lat="42.381592208425594" lon="2.496787576005688"><ele>1157.0</ele><time>2026-04-22T09:14:37.998Z</time></trkpt><trkpt lat="42.38170944418872" lon="2.4969467202611053"><ele>1163.0</ele><time>2026-04-22T09:14:38.998Z</time></trkpt><trkpt lat="42.3818228611247" lon="2.4971248637963566"><ele>1169.0</ele><time>2026-04-22T09:14:39.998Z</time></trkpt><trkpt lat="42.38193559294827" lon="2.49731159559872"><ele>1175.0</ele><time>2026-04-22T09:14:40.998Z</time></trkpt><trkpt lat="42.382065586510095" lon="2.4975023577141364"><ele>1175.0</ele><time>2026-04-22T09:14:42Z</time></trkpt><trkpt lat="42.38221213557906" lon="2.4976924954990296"><ele>1175.0</ele><time>2026-04-22T09:14:43Z</time></trkpt><trkpt lat="42.382367101702684" lon="2.4978714288349333"><ele>1175.0</ele><time>2026-04-22T09:14:44Z</time></trkpt><trkpt lat="42.3825291798475" lon="2.498038887271896"><ele>1175.0</ele><time>2026-04-22T09:14:45Z</time></trkpt><trkpt lat="42.3826913462392" lon="2.4982257288241554"><ele>1175.0</ele><time>2026-04-22T09:14:46Z</time></trkpt><trkpt lat="42.38284208650883" lon="2.4984170090495863"><ele>1175.0</ele><time>2026-04-22T09:14:47Z</time></trkpt><trkpt lat="42.38298475582759" lon="2.4986077931692794"><ele>1176.0</ele><time>2026-04-22T09:14:48Z</time></trkpt><trkpt lat="42.383103475791636" lon="2.4987800102248623"><ele>1177.0</ele><time>2026-04-22T09:14:49Z</time></trkpt><trkpt lat="42.3832620620263" lon="2.498871443859382"><ele>1178.0</ele><time>2026-04-22T09:14:50Z</time></trkpt><trkpt lat="42.383438875156656" lon="2.4989266194469164"><ele>1178.0</ele><time>2026-04-22T09:14:51Z</time></trkpt><trkpt lat="42.38362757002831" lon="2.498953962390295"><ele>1178.0</ele><time>2026-04-22T09:14:52Z</time></trkpt><trkpt lat="42.38378774697264" lon="2.4989933948051215"><ele>1178.0</ele><time>2026-04-22T09:14:53Z</time></trkpt><trkpt lat="42.38391525311474" lon="2.4990455303401107"><ele>1176.8</ele><time>2026-04-22T09:14:54Z</time></trkpt><trkpt lat="42.3840004017549" lon="2.4991494582244345"><ele>1175.6</ele><time>2026-04-22T09:14:55Z</time></trkpt><trkpt lat="42.384038549508396" lon="2.499279286744688"><ele>1174.4</ele><time>2026-04-22T09:14:56Z</time></trkpt><trkpt lat="42.38403566842135" lon="2.4994245084408693"><ele>1173.2</ele><time>2026-04-22T09:14:57Z</time></trkpt><trkpt lat="42.38398125722672" lon="2.4995748162108016"><ele>1172.0</ele><time>2026-04-22T09:14:58Z</time></trkpt><trkpt lat="42.38394023705865" lon="2.499774533288188"><ele>1172.0</ele><time>2026-04-22T09:14:59Z</time></trkpt><trkpt lat="42.38389531307139" lon="2.4999854234353562"><ele>1172.0</ele><time>2026-04-22T09:15:00Z</time></trkpt><trkpt lat="42.38390512595609" lon="2.500204016289582"><ele>1172.0</ele><time>2026-04-22T09:15:01Z</time></trkpt><trkpt lat="42.38392795139778" lon="2.5004398402799066"><ele>1174.3333333333335</ele><time>2026-04-22T09:15:02Z</time></trkpt><trkpt lat="42.38398080201264" lon="2.5006603319097866"><ele>1176.6666666666667</ele><time>2026-04-22T09:15:03Z</time></trkpt><trkpt lat="42.38402651867993" lon="2.5008981452487045"><ele>1179.0</ele><time>2026-04-22T09:15:04Z</time></trkpt><trkpt lat="42.384073299038214" lon="2.5011420485980054"><ele>1181.3333333333333</ele><time>2026-04-22T09:15:05Z</time></trkpt><trkpt lat="42.38410637395514" lon="2.5013516922424976"><ele>1183.6666666666665</ele><time>2026-04-22T09:15:06Z</time></trkpt><trkpt lat="42.38415347168662" lon="2.501544518788011"><ele>1186.0</ele><time>2026-04-22T09:15:07Z</time></trkpt><trkpt lat="42.384251294328294" lon="2.5017288458662876"><ele>1186.0</ele><time>2026-04-22T09:15:08Z</time></trkpt><trkpt lat="42.384354445065625" lon="2.5018854252214884"><ele>1186.0</ele><time>2026-04-22T09:15:09Z</time></trkpt><trkpt lat="42.384435916251526" lon="2.502023958645176"><ele>1186.0</ele><time>2026-04-22T09:15:10Z</time></trkpt><trkpt lat="42.384484675510045" lon="2.502178118337955"><ele>1186.0</ele><time>2026-04-22T09:15:11Z</time></trkpt><trkpt lat="42.38448348063133" lon="2.5023357562501403"><ele>1185.3999999999999</ele><time>2026-04-22T09:15:12Z</time></trkpt><trkpt lat="42.3844361945945" lon="2.502498803026766"><ele>1184.8</ele><time>2026-04-22T09:15:13Z</time></trkpt><trkpt lat="42.38435596633157" lon="2.5026255805497213"><ele>1184.1999999999998</ele><time>2026-04-22T09:15:14Z</time></trkpt><trkpt lat="42.384271007757484" lon="2.5026984308848337"><ele>1183.6</ele><time>2026-04-22T09:15:15Z</time></trkpt><trkpt lat="42.38418000143407" lon="2.502703925366196"><ele>1183.0</ele><time>2026-04-22T09:15:17Z</time></trkpt><trkpt lat="42.38410645692646" lon="2.5027253003953955"><ele>1183.0</ele><time>2026-04-22T09:15:33.999Z</time></trkpt><trkpt lat="42.38403881616135" lon="2.5027009887545817"><ele>1183.0</ele><time>2026-04-22T09:15:36.999Z</time></trkpt><trkpt lat="42.38394411006982" lon="2.5026425493190105"><ele>1183.0</ele><time>2026-04-22T09:15:38.999Z</time></trkpt><trkpt lat="42.38387217944941" lon="2.5025891082807425"><ele>1183.0</ele><time>2026-04-22T09:15:39.999Z</time></trkpt><trkpt lat="42.38381838023807" lon="2.502469719423563"><ele>1183.0</ele><time>2026-04-22T09:15:40.999Z</time></trkpt><trkpt lat="42.38378794057248" lon="2.5023210166149483"><ele>1183.75</ele><time>2026-04-22T09:15:41.999Z</time></trkpt><trkpt lat="42.38378959743355" lon="2.502143128143728"><ele>1184.5</ele><time>2026-04-22T09:15:42.999Z</time></trkpt><trkpt lat="42.38384170702821" lon="2.501971855147706"><ele>1185.25</ele><time>2026-04-22T09:15:43.999Z</time></trkpt><trkpt lat="42.383880271602145" lon="2.5017956607994725"><ele>1186.0</ele><time>2026-04-22T09:15:44.999Z</time></trkpt><trkpt lat="42.383927532764005" lon="2.501624715562321"><ele>1186.0</ele><time>2026-04-22T09:15:45.999Z</time></trkpt><trkpt lat="42.38393185534098" lon="2.5014332376047843"><ele>1186.0</ele><time>2026-04-22T09:15:46.999Z</time></trkpt><trkpt lat="42.383896026939624" lon="2.5012290762742424"><ele>1186.0</ele><time>2026-04-22T09:15:47.999Z</time></trkpt><trkpt lat="42.38382378115759" lon="2.50102299899027"><ele>1187.6666666666665</ele><time>2026-04-22T09:15:48.999Z</time></trkpt><trkpt lat="42.38374095553516" lon="2.5008332240219273"><ele>1189.3333333333333</ele><time>2026-04-22T09:15:49.999Z</time></trkpt><trkpt lat="42.38365417955046" lon="2.5006276613794314"><ele>1191.0</ele><time>2026-04-22T09:15:50.999Z</time></trkpt><trkpt lat="42.38357359361893" lon="2.5004048523252544"><ele>1191.0</ele><time>2026-04-22T09:15:51.999Z</time></trkpt><trkpt lat="42.383504872404515" lon="2.5001972598819644"><ele>1191.0</ele><time>2026-04-22T09:15:52.999Z</time></trkpt><trkpt lat="42.38343421727051" lon="2.5000006886747643"><ele>1191.0</ele><time>2026-04-22T09:15:53.999Z</time></trkpt><trkpt lat="42.383328135675356" lon="2.499819276492688"><ele>1191.0</ele><time>2026-04-22T09:15:54.999Z</time></trkpt><trkpt lat="42.383192282037655" lon="2.4996412807156156"><ele>1191.0</ele><time>2026-04-22T09:15:55.999Z</time></trkpt><trkpt lat="42.38303282555659" lon="2.4994861781597"><ele>1191.0</ele><time>2026-04-22T09:15:56.999Z</time></trkpt><trkpt lat="42.382855819020385" lon="2.499348489464159"><ele>1192.3333333333333</ele><time>2026-04-22T09:15:57.999Z</time></trkpt><trkpt lat="42.38267155358022" lon="2.4992092394010403"><ele>1193.6666666666665</ele><time>2026-04-22T09:15:58.999Z</time></trkpt><trkpt lat="42.38248411556535" lon="2.499066187085893"><ele>1195.0</ele><time>2026-04-22T09:15:59.999Z</time></trkpt><trkpt lat="42.3823068724759" lon="2.4989250976590127"><ele>1194.0</ele><time>2026-04-22T09:16:00.999Z</time></trkpt><trkpt lat="42.382127460467316" lon="2.498780114536035"><ele>1193.0</ele><time>2026-04-22T09:16:01.999Z</time></trkpt><trkpt lat="42.38194073877513" lon="2.498633289088458"><ele>1192.0</ele><time>2026-04-22T09:16:02.999Z</time></trkpt><trkpt lat="42.38175968791914" lon="2.498479070253418"><ele>1192.0</ele><time>2026-04-22T09:16:03.999Z</time></trkpt><trkpt lat="42.38157125314433" lon="2.498309665750984"><ele>1192.0</ele><time>2026-04-22T09:16:04.999Z</time></trkpt><trkpt lat="42.38138868162947" lon="2.4981023015342045"><ele>1193.5</ele><time>2026-04-22T09:16:05.999Z</time></trkpt><trkpt lat="42.38122697988843" lon="2.4978989852723577"><ele>1195.0</ele><time>2026-04-22T09:16:06.999Z</time></trkpt><trkpt lat="42.38105060928305" lon="2.497694179892435"><ele>1195.0</ele><time>2026-04-22T09:16:07.999Z</time></trkpt><trkpt lat="42.38087523737316" lon="2.4975000889336854"><ele>1195.0</ele><time>2026-04-22T09:16:08.999Z</time></trkpt><trkpt lat="42.38070842450453" lon="2.4973029355664886"><ele>1195.0</ele><time>2026-04-22T09:16:09.999Z</time></trkpt><trkpt lat="42.380548107708925" lon="2.497115982861192"><ele>1193.6666666666665</ele><time>2026-04-22T09:16:10.999Z</time></trkpt><trkpt lat="42.38038096476672" lon="2.4969372741945812"><ele>1192.3333333333333</ele><time>2026-04-22T09:16:11.999Z</time></trkpt><trkpt lat="42.38024059123301" lon="2.496779963445609"><ele>1191.0</ele><time>2026-04-22T09:16:12.999Z</time></trkpt><trkpt lat="42.38010086238507" lon="2.4966043508639513"><ele>1191.0</ele><time>2026-04-22T09:16:13.999Z</time></trkpt><trkpt lat="42.37998805639794" lon="2.496391173111385"><ele>1191.0</ele><time>2026-04-22T09:16:14.999Z</time></trkpt><trkpt lat="42.37989769012577" lon="2.496140411105424"><ele>1191.0</ele><time>2026-04-22T09:16:15.999Z</time></trkpt><trkpt lat="42.379829646642705" lon="2.4958655829380514"><ele>1190.0</ele><time>2026-04-22T09:16:16.999Z</time></trkpt><trkpt lat="42.37975301890201" lon="2.4955955375499053"><ele>1189.0</ele><time>2026-04-22T09:16:17.999Z</time></trkpt><trkpt lat="42.379671434879796" lon="2.495337648948228"><ele>1188.0</ele><time>2026-04-22T09:16:18.999Z</time></trkpt><trkpt lat="42.37958428202604" lon="2.495080450932421"><ele>1188.0</ele><time>2026-04-22T09:16:19.999Z</time></trkpt><trkpt lat="42.37949878222028" lon="2.4948232465981524"><ele>1188.0</ele><time>2026-04-22T09:16:20.999Z</time></trkpt><trkpt lat="42.37942170057413" lon="2.4945761172783794"><ele>1188.0</ele><time>2026-04-22T09:16:21.999Z</time></trkpt><trkpt lat="42.379357527067405" lon="2.4943784016215265"><ele>1192.25</ele><time>2026-04-22T09:16:22.999Z</time></trkpt><trkpt lat="42.37932727203524" lon="2.4941834058601575"><ele>1196.5</ele><time>2026-04-22T09:16:23.999Z</time></trkpt><trkpt lat="42.37933629503686" lon="2.4939990678377395"><ele>1200.75</ele><time>2026-04-22T09:16:24.999Z</time></trkpt><trkpt lat="42.37939575665456" lon="2.4938432781996553"><ele>1205.0</ele><time>2026-04-22T09:16:25.999Z</time></trkpt><trkpt lat="42.37948248550157" lon="2.4937033366199497"><ele>1205.0</ele><time>2026-04-22T09:16:26.999Z</time></trkpt><trkpt lat="42.379600791940604" lon="2.4935667823739296"><ele>1205.0</ele><time>2026-04-22T09:16:27.999Z</time></trkpt><trkpt lat="42.37973236247515" lon="2.4934222236898993"><ele>1205.0</ele><time>2026-04-22T09:16:28.999Z</time></trkpt><trkpt lat="42.37985806114457" lon="2.4932622316322415"><ele>1209.0</ele><time>2026-04-22T09:16:29.999Z</time></trkpt><trkpt lat="42.37998225952854" lon="2.4930963500471894"><ele>1213.0</ele><time>2026-04-22T09:16:30.998Z</time></trkpt><trkpt lat="42.38007890699771" lon="2.4928996669060033"><ele>1217.0</ele><time>2026-04-22T09:16:31.998Z</time></trkpt><trkpt lat="42.38015360215462" lon="2.492660515744681"><ele>1217.3333333333335</ele><time>2026-04-22T09:16:32.998Z</time></trkpt><trkpt lat="42.38019266221333" lon="2.492422444201561"><ele>1217.6666666666667</ele><time>2026-04-22T09:16:33.998Z</time></trkpt><trkpt lat="42.38019182882974" lon="2.492166775779463"><ele>1218.0</ele><time>2026-04-22T09:16:34.998Z</time></trkpt><trkpt lat="42.38014818494172" lon="2.4919247995648734"><ele>1218.3333333333333</ele><time>2026-04-22T09:16:35.998Z</time></trkpt><trkpt lat="42.38010655377377" lon="2.4916782254569183"><ele>1218.6666666666665</ele><time>2026-04-22T09:16:36.998Z</time></trkpt><trkpt lat="42.38010290645628" lon="2.491440119303716"><ele>1219.0</ele><time>2026-04-22T09:16:37.998Z</time></trkpt><trkpt lat="42.38012986527492" lon="2.491175042600028"><ele>1219.0</ele><time>2026-04-22T09:16:38.998Z</time></trkpt><trkpt lat="42.38016478695313" lon="2.4908987820314556"><ele>1219.0</ele><time>2026-04-22T09:16:39.998Z</time></trkpt><trkpt lat="42.380170773294246" lon="2.4906204577774997"><ele>1219.0</ele><time>2026-04-22T09:16:40.998Z</time></trkpt><trkpt lat="42.38018191029765" lon="2.4903233908453077"><ele>1220.6666666666665</ele><time>2026-04-22T09:16:41.998Z</time></trkpt><trkpt lat="42.38018020412729" lon="2.4900192625785396"><ele>1222.3333333333333</ele><time>2026-04-22T09:16:42.998Z</time></trkpt><trkpt lat="42.38018944098938" lon="2.489734243248115"><ele>1224.0</ele><time>2026-04-22T09:16:43.998Z</time></trkpt><trkpt lat="42.38020506988584" lon="2.4894636103834653"><ele>1228.0</ele><time>2026-04-22T09:16:44.998Z</time></trkpt><trkpt lat="42.38021840811675" lon="2.48923186002827"><ele>1232.0</ele><time>2026-04-22T09:16:45.998Z</time></trkpt><trkpt lat="42.38021468048137" lon="2.489035487346366"><ele>1236.0</ele><time>2026-04-22T09:16:46.998Z</time></trkpt><trkpt lat="42.38017768407268" lon="2.4888604650779205"><ele>1233.75</ele><time>2026-04-22T09:16:48Z</time></trkpt><trkpt lat="42.38009395519353" lon="2.488717786336114"><ele>1231.5</ele><time>2026-04-22T09:16:49Z</time></trkpt><trkpt lat="42.379970201964646" lon="2.4886191202224235"><ele>1229.25</ele><time>2026-04-22T09:16:50Z</time></trkpt><trkpt lat="42.379813651498786" lon="2.4885469877420734"><ele>1227.0</ele><time>2026-04-22T09:16:51Z</time></trkpt><trkpt lat="42.379650468118285" lon="2.4884716562603715"><ele>1227.0</ele><time>2026-04-22T09:16:52Z</time></trkpt><trkpt lat="42.379514877442425" lon="2.4883525416045598"><ele>1227.0</ele><time>2026-04-22T09:16:53Z</time></trkpt><trkpt lat="42.37943386671588" lon="2.488170103157859"><ele>1227.0</ele><time>2026-04-22T09:16:54Z</time></trkpt><trkpt lat="42.37939089253932" lon="2.4879757635977517"><ele>1229.6666666666667</ele><time>2026-04-22T09:16:55Z</time></trkpt><trkpt lat="42.379371743933376" lon="2.487770248924778"><ele>1232.3333333333335</ele><time>2026-04-22T09:16:56Z</time></trkpt><trkpt lat="42.37937242245972" lon="2.4875383960711854"><ele>1235.0</ele><time>2026-04-22T09:16:57Z</time></trkpt><trkpt lat="42.37936542877504" lon="2.4872867949106814"><ele>1233.6666666666667</ele><time>2026-04-22T09:16:58Z</time></trkpt><trkpt lat="42.379365678016605" lon="2.487022621177965"><ele>1232.3333333333333</ele><time>2026-04-22T09:16:59Z</time></trkpt><trkpt lat="42.37936659656143" lon="2.4867526155365476"><ele>1231.0</ele><time>2026-04-22T09:17:00Z</time></trkpt><trkpt lat="42.37937542058999" lon="2.4864872912501377"><ele>1230.0</ele><time>2026-04-22T09:17:01Z</time></trkpt><trkpt lat="42.37939884703631" lon="2.4862137624299665"><ele>1229.0</ele><time>2026-04-22T09:17:02Z</time></trkpt><trkpt lat="42.37945617257355" lon="2.4859438836715895"><ele>1228.0</ele><time>2026-04-22T09:17:03Z</time></trkpt><trkpt lat="42.379454061947804" lon="2.485676358689156"><ele>1232.3333333333333</ele><time>2026-04-22T09:17:04Z</time></trkpt><trkpt lat="42.37943965940271" lon="2.485384309573944"><ele>1236.6666666666667</ele><time>2026-04-22T09:17:05Z</time></trkpt><trkpt lat="42.3794025765768" lon="2.4851092994744497"><ele>1241.0</ele><time>2026-04-22T09:17:06Z</time></trkpt><trkpt lat="42.37936451806217" lon="2.484879852948586"><ele>1241.0</ele><time>2026-04-22T09:17:07Z</time></trkpt><trkpt lat="42.379296944601684" lon="2.484678301574808"><ele>1241.0</ele><time>2026-04-22T09:17:08Z</time></trkpt><trkpt lat="42.37918354216418" lon="2.4844869101352596"><ele>1241.0</ele><time>2026-04-22T09:17:09Z</time></trkpt><trkpt lat="42.379021298695626" lon="2.4843170609430554"><ele>1240.0</ele><time>2026-04-22T09:17:10Z</time></trkpt><trkpt lat="42.378852053062126" lon="2.4841627924872496"><ele>1239.0</ele><time>2026-04-22T09:17:11Z</time></trkpt><trkpt lat="42.37867489959463" lon="2.4840125999966225"><ele>1238.0</ele><time>2026-04-22T09:17:12Z</time></trkpt><trkpt lat="42.37850550616947" lon="2.4838770647097133"><ele>1245.0</ele><time>2026-04-22T09:17:13Z</time></trkpt><trkpt lat="42.378363216073204" lon="2.4837573029355386"><ele>1252.0</ele><time>2026-04-22T09:17:14Z</time></trkpt><trkpt lat="42.378283059181015" lon="2.483586121374322"><ele>1259.0</ele><time>2026-04-22T09:17:15Z</time></trkpt><trkpt lat="42.378226269015336" lon="2.483396568093668"><ele>1259.0</ele><time>2026-04-22T09:17:16Z</time></trkpt><trkpt lat="42.37819378730989" lon="2.4831584373180187"><ele>1259.0</ele><time>2026-04-22T09:17:17Z</time></trkpt><trkpt lat="42.37816053958233" lon="2.4829004090943925"><ele>1259.0</ele><time>2026-04-22T09:17:18Z</time></trkpt><trkpt lat="42.37812584016809" lon="2.4826229937601894"><ele>1260.0</ele><time>2026-04-22T09:17:19Z</time></trkpt><trkpt lat="42.37808355234204" lon="2.4823451273286747"><ele>1261.0</ele><time>2026-04-22T09:17:20Z</time></trkpt><trkpt lat="42.37803842632538" lon="2.4820570963973227"><ele>1262.0</ele><time>2026-04-22T09:17:21Z</time></trkpt><trkpt lat="42.37800609018276" lon="2.48175462281623"><ele>1253.3333333333335</ele><time>2026-04-22T09:17:22Z</time></trkpt><trkpt lat="42.377959583175915" lon="2.4814580321502255"><ele>1244.6666666666667</ele><time>2026-04-22T09:17:23Z</time></trkpt><trkpt lat="42.37792550081887" lon="2.4811748954840818"><ele>1236.0</ele><time>2026-04-22T09:17:24Z</time></trkpt><trkpt lat="42.37786106267552" lon="2.480868323999577"><ele>1236.0</ele><time>2026-04-22T09:17:25Z</time></trkpt><trkpt lat="42.37776648645548" lon="2.4805778999304384"><ele>1236.0</ele><time>2026-04-22T09:17:26Z</time></trkpt><trkpt lat="42.37766680165435" lon="2.4802879099965534"><ele>1239.6666666666667</ele><time>2026-04-22T09:17:27Z</time></trkpt><trkpt lat="42.37757519358614" lon="2.4800454286132556"><ele>1243.3333333333335</ele><time>2026-04-22T09:17:28Z</time></trkpt><trkpt lat="42.37749734055145" lon="2.479840767722774"><ele>1247.0</ele><time>2026-04-22T09:17:29Z</time></trkpt><trkpt lat="42.37742281053646" lon="2.479650930302746"><ele>1247.75</ele><time>2026-04-22T09:17:29.999Z</time></trkpt><trkpt lat="42.3773409857472" lon="2.4794961014757964"><ele>1248.5</ele><time>2026-04-22T09:17:30.999Z</time></trkpt><trkpt lat="42.3772376093344" lon="2.4793676388822434"><ele>1249.25</ele><time>2026-04-22T09:17:31.999Z</time></trkpt><trkpt lat="42.37710867619407" lon="2.4792721715825254"><ele>1250.0</ele><time>2026-04-22T09:17:32.999Z</time></trkpt><trkpt lat="42.37695525645128" lon="2.4792208514543623"><ele>1250.0</ele><time>2026-04-22T09:17:33.999Z</time></trkpt><trkpt lat="42.37678322887725" lon="2.4791941229915357"><ele>1250.0</ele><time>2026-04-22T09:17:34.999Z</time></trkpt><trkpt lat="42.37660927898568" lon="2.479166609092614"><ele>1250.0</ele><time>2026-04-22T09:17:35.999Z</time></trkpt><trkpt lat="42.37647782322211" lon="2.479134895164729"><ele>1250.0</ele><time>2026-04-22T09:17:36.999Z</time></trkpt><trkpt lat="42.37636954911979" lon="2.479035573722372"><ele>1250.0</ele><time>2026-04-22T09:17:37.999Z</time></trkpt><trkpt lat="42.37628786167375" lon="2.47890616691663"><ele>1250.0</ele><time>2026-04-22T09:17:38.999Z</time></trkpt><trkpt lat="42.37625138553964" lon="2.4787440949008186"><ele>1250.0</ele><time>2026-04-22T09:17:39.999Z</time></trkpt><trkpt lat="42.37626447435179" lon="2.4785488684748875"><ele>1254.0</ele><time>2026-04-22T09:17:40.999Z</time></trkpt><trkpt lat="42.37632216338686" lon="2.4783500826622378"><ele>1258.0</ele><time>2026-04-22T09:17:41.999Z</time></trkpt><trkpt lat="42.376401459009685" lon="2.478157953074894"><ele>1262.0</ele><time>2026-04-22T09:17:42.999Z</time></trkpt><trkpt lat="42.37648065163719" lon="2.4779543942660394"><ele>1260.3333333333335</ele><time>2026-04-22T09:17:43.999Z</time></trkpt><trkpt lat="42.37656541210286" lon="2.477738727772401"><ele>1258.6666666666667</ele><time>2026-04-22T09:17:44.999Z</time></trkpt><trkpt lat="42.37665184665004" lon="2.477506929293624"><ele>1257.0</ele><time>2026-04-22T09:17:45.999Z</time></trkpt><trkpt lat="42.37673557305991" lon="2.477264752606611"><ele>1255.3333333333333</ele><time>2026-04-22T09:17:46.999Z</time></trkpt><trkpt lat="42.3768167343155" lon="2.477003838641516"><ele>1253.6666666666665</ele><time>2026-04-22T09:17:47.999Z</time></trkpt><trkpt lat="42.3768818675262" lon="2.476734099373786"><ele>1252.0</ele><time>2026-04-22T09:17:48.999Z</time></trkpt><trkpt lat="42.376948052519296" lon="2.476457728518398"><ele>1253.0</ele><time>2026-04-22T09:17:49.999Z</time></trkpt><trkpt lat="42.37698072864338" lon="2.4761771115060407"><ele>1254.0</ele><time>2026-04-22T09:17:50.999Z</time></trkpt><trkpt lat="42.376992349292514" lon="2.475883521895945"><ele>1255.0</ele><time>2026-04-22T09:17:51.999Z</time></trkpt><trkpt lat="42.37699722589822" lon="2.4755881342723063"><ele>1258.5</ele><time>2026-04-22T09:17:52.999Z</time></trkpt><trkpt lat="42.376990442591186" lon="2.475301576805817"><ele>1262.0</ele><time>2026-04-22T09:17:53.999Z</time></trkpt><trkpt lat="42.37698497177108" lon="2.474889552247715"><ele>1264.0</ele><time>2026-04-22T09:17:54.999Z</time></trkpt><trkpt lat="42.37696757725064" lon="2.4745917719256885"><ele>1266.0</ele><time>2026-04-22T09:17:55.999Z</time></trkpt><trkpt lat="42.37694901763594" lon="2.4743110529645373"><ele>1268.0</ele><time>2026-04-22T09:17:56.999Z</time></trkpt><trkpt lat="42.37694480544237" lon="2.474017424320339"><ele>1269.3333333333335</ele><time>2026-04-22T09:17:57.999Z</time></trkpt><trkpt lat="42.37697555395386" lon="2.4737411480008302"><ele>1270.6666666666667</ele><time>2026-04-22T09:17:58.999Z</time></trkpt><trkpt lat="42.37701569561611" lon="2.473493739543863"><ele>1272.0</ele><time>2026-04-22T09:17:59.999Z</time></trkpt><trkpt lat="42.377052756546256" lon="2.473264147704607"><ele>1272.0</ele><time>2026-04-22T09:18:00.999Z</time></trkpt><trkpt lat="42.37706747035896" lon="2.4730580834414884"><ele>1272.0</ele><time>2026-04-22T09:18:01.999Z</time></trkpt><trkpt lat="42.377060040130395" lon="2.4728852554049396"><ele>1272.0</ele><time>2026-04-22T09:18:02.999Z</time></trkpt><trkpt lat="42.37703506858449" lon="2.4727289898250726"><ele>1272.0</ele><time>2026-04-22T09:18:03.999Z</time></trkpt><trkpt lat="42.37697996226771" lon="2.4725817014306024"><ele>1275.25</ele><time>2026-04-22T09:18:04.999Z</time></trkpt><trkpt lat="42.37689839983746" lon="2.4724639033123896"><ele>1278.5</ele><time>2026-04-22T09:18:05.999Z</time></trkpt><trkpt lat="42.376796324767625" lon="2.4723602239736677"><ele>1281.75</ele><time>2026-04-22T09:18:06.999Z</time></trkpt><trkpt lat="42.376668428550296" lon="2.472258989726657"><ele>1285.0</ele><time>2026-04-22T09:18:07.999Z</time></trkpt><trkpt lat="42.376547337613076" lon="2.472156943974909"><ele>1287.25</ele><time>2026-04-22T09:18:08.999Z</time></trkpt><trkpt lat="42.376458243280815" lon="2.472022188763904"><ele>1289.5</ele><time>2026-04-22T09:18:09.999Z</time></trkpt><trkpt lat="42.37639313102498" lon="2.471853549726362"><ele>1291.75</ele><time>2026-04-22T09:18:10.999Z</time></trkpt><trkpt lat="42.37636359573754" lon="2.47169272490081"><ele>1294.0</ele><time>2026-04-22T09:18:11.999Z</time></trkpt><trkpt lat="42.37640368408429" lon="2.4715393301561774"><ele>1294.0</ele><time>2026-04-22T09:18:12.999Z</time></trkpt><trkpt lat="42.376471493120484" lon="2.4713765593352375"><ele>1294.0</ele><time>2026-04-22T09:18:13.999Z</time></trkpt><trkpt lat="42.3765599858507" lon="2.471215023545903"><ele>1294.0</ele><time>2026-04-22T09:18:14.999Z</time></trkpt><trkpt lat="42.376630022691124" lon="2.4710238783103318"><ele>1294.0</ele><time>2026-04-22T09:18:15.999Z</time></trkpt><trkpt lat="42.37671090197624" lon="2.4708274933079855"><ele>1296.3333333333333</ele><time>2026-04-22T09:18:16.999Z</time></trkpt><trkpt lat="42.37677208707637" lon="2.47061320861073"><ele>1298.6666666666667</ele><time>2026-04-22T09:18:17.999Z</time></trkpt><trkpt lat="42.37680360370607" lon="2.470384030474246"><ele>1301.0</ele><time>2026-04-22T09:18:18.999Z</time></trkpt><trkpt lat="42.37680698924949" lon="2.4701561930455584"><ele>1303.3333333333335</ele><time>2026-04-22T09:18:19.999Z</time></trkpt><trkpt lat="42.37677258340528" lon="2.4699350241624427"><ele>1305.6666666666667</ele><time>2026-04-22T09:18:20.999Z</time></trkpt><trkpt lat="42.37669519835848" lon="2.469728607880794"><ele>1308.0</ele><time>2026-04-22T09:18:21.999Z</time></trkpt><trkpt lat="42.37658615371517" lon="2.469541604805609"><ele>1308.6666666666667</ele><time>2026-04-22T09:18:22.999Z</time></trkpt><trkpt lat="42.37645696927095" lon="2.4693717246977194"><ele>1309.3333333333335</ele><time>2026-04-22T09:18:23.999Z</time></trkpt><trkpt lat="42.37630841645924" lon="2.469215823518159"><ele>1310.0</ele><time>2026-04-22T09:18:24.999Z</time></trkpt><trkpt lat="42.376139565986406" lon="2.469081016738032"><ele>1310.0</ele><time>2026-04-22T09:18:25.999Z</time></trkpt><trkpt lat="42.37597999262652" lon="2.46893743744884"><ele>1310.0</ele><time>2026-04-22T09:18:26.999Z</time></trkpt><trkpt lat="42.3758470040838" lon="2.468784390428123"><ele>1310.0</ele><time>2026-04-22T09:18:27.999Z</time></trkpt><trkpt lat="42.37575847725832" lon="2.4685934436783508"><ele>1314.6666666666667</ele><time>2026-04-22T09:18:28.999Z</time></trkpt><trkpt lat="42.37569579314468" lon="2.468370382591943"><ele>1319.3333333333333</ele><time>2026-04-22T09:18:29.999Z</time></trkpt><trkpt lat="42.37563250587264" lon="2.4681365555250294"><ele>1324.0</ele><time>2026-04-22T09:18:30.999Z</time></trkpt><trkpt lat="42.37559288036125" lon="2.4678951232793946"><ele>1322.6666666666665</ele><time>2026-04-22T09:18:31.999Z</time></trkpt><trkpt lat="42.37554132362173" lon="2.467642050470912"><ele>1321.3333333333333</ele><time>2026-04-22T09:18:32.999Z</time></trkpt><trkpt lat="42.3754772868789" lon="2.4674147343769657"><ele>1320.0</ele><time>2026-04-22T09:18:33.998Z</time></trkpt><trkpt lat="42.375384337573685" lon="2.4672115206290113"><ele>1329.0</ele><time>2026-04-22T09:18:34.998Z</time></trkpt><trkpt lat="42.37526638243349" lon="2.4670288961081908"><ele>1338.0</ele><time>2026-04-22T09:18:35.998Z</time></trkpt><trkpt lat="42.3751173989137" lon="2.4668790959129403"><ele>1347.0</ele><time>2026-04-22T09:18:36.998Z</time></trkpt><trkpt lat="42.37495307973981" lon="2.4667535622037287"><ele>1347.0</ele><time>2026-04-22T09:18:37.998Z</time></trkpt><trkpt lat="42.374788094201314" lon="2.466631504259911"><ele>1347.0</ele><time>2026-04-22T09:18:38.998Z</time></trkpt><trkpt lat="42.374619835205415" lon="2.466510986458923"><ele>1347.0</ele><time>2026-04-22T09:18:39.998Z</time></trkpt><trkpt lat="42.37444505160754" lon="2.466401982486849"><ele>1346.6666666666667</ele><time>2026-04-22T09:18:40.998Z</time></trkpt><trkpt lat="42.37425350702744" lon="2.4663103760852545"><ele>1346.3333333333335</ele><time>2026-04-22T09:18:41.998Z</time></trkpt><trkpt lat="42.37405395244509" lon="2.4662576282914808"><ele>1346.0</ele><time>2026-04-22T09:18:42.998Z</time></trkpt><trkpt lat="42.373852035789206" lon="2.4662190121259133"><ele>1356.6666666666667</ele><time>2026-04-22T09:18:43.998Z</time></trkpt><trkpt lat="42.373645941741444" lon="2.466188972897685"><ele>1367.3333333333333</ele><time>2026-04-22T09:18:44.998Z</time></trkpt><trkpt lat="42.373430989870826" lon="2.466155827999676"><ele>1378.0</ele><time>2026-04-22T09:18:45.998Z</time></trkpt><trkpt lat="42.37321637311999" lon="2.4661223104030534"><ele>1377.3333333333333</ele><time>2026-04-22T09:18:46.998Z</time></trkpt><trkpt lat="42.37300014755528" lon="2.466101074372822"><ele>1376.6666666666667</ele><time>2026-04-22T09:18:47.998Z</time></trkpt><trkpt lat="42.37278662533012" lon="2.466100379401407"><ele>1376.0</ele><time>2026-04-22T09:18:48.998Z</time></trkpt><trkpt lat="42.372580759623034" lon="2.466101594837487"><ele>1376.0</ele><time>2026-04-22T09:18:49.998Z</time></trkpt><trkpt lat="42.37239784705322" lon="2.466113207826178"><ele>1376.0</ele><time>2026-04-22T09:18:50.998Z</time></trkpt><trkpt lat="42.372211646643066" lon="2.4660824339221445"><ele>1376.0</ele><time>2026-04-22T09:18:51.998Z</time></trkpt><trkpt lat="42.372031158248426" lon="2.466018351782863"><ele>1374.3333333333335</ele><time>2026-04-22T09:18:52.998Z</time></trkpt><trkpt lat="42.37187343771852" lon="2.4659180265361105"><ele>1372.6666666666667</ele><time>2026-04-22T09:18:54Z</time></trkpt><trkpt lat="42.37172067114842" lon="2.465790569207515"><ele>1371.0</ele><time>2026-04-22T09:18:55Z</time></trkpt><trkpt lat="42.371574487041755" lon="2.465629916012323"><ele>1372.0</ele><time>2026-04-22T09:18:56Z</time></trkpt><trkpt lat="42.37143879586637" lon="2.4654322657656484"><ele>1373.0</ele><time>2026-04-22T09:18:57Z</time></trkpt><trkpt lat="42.37129055204291" lon="2.4652603531431914"><ele>1374.0</ele><time>2026-04-22T09:18:58Z</time></trkpt><trkpt lat="42.37112639157882" lon="2.4650953044564603"><ele>1374.0</ele><time>2026-04-22T09:18:59Z</time></trkpt><trkpt lat="42.37097194792296" lon="2.4649270859257415"><ele>1374.0</ele><time>2026-04-22T09:19:00Z</time></trkpt><trkpt lat="42.37085246851824" lon="2.464783001691586"><ele>1374.0</ele><time>2026-04-22T09:19:01Z</time></trkpt><trkpt lat="42.37074889845732" lon="2.4646486658801527"><ele>1375.6</ele><time>2026-04-22T09:19:02Z</time></trkpt><trkpt lat="42.370688768380006" lon="2.464527504444693"><ele>1377.2</ele><time>2026-04-22T09:19:03Z</time></trkpt><trkpt lat="42.370671318375855" lon="2.4643988252407576"><ele>1378.8</ele><time>2026-04-22T09:19:04Z</time></trkpt><trkpt lat="42.37070421845943" lon="2.464279441500301"><ele>1380.3999999999999</ele><time>2026-04-22T09:19:05Z</time></trkpt><trkpt lat="42.37077654781967" lon="2.464197722890053"><ele>1382.0</ele><time>2026-04-22T09:19:06Z</time></trkpt><trkpt lat="42.37088578976944" lon="2.4641753724259394"><ele>1382.0</ele><time>2026-04-22T09:19:07Z</time></trkpt><trkpt lat="42.370996495638806" lon="2.464264845514078"><ele>1382.0</ele><time>2026-04-22T09:19:08Z</time></trkpt><trkpt lat="42.371117507926364" lon="2.4643575917255"><ele>1382.0</ele><time>2026-04-22T09:19:09Z</time></trkpt><trkpt lat="42.37124914797527" lon="2.4644475589838244"><ele>1382.0</ele><time>2026-04-22T09:19:10Z</time></trkpt><trkpt lat="42.371394369463104" lon="2.464586080638523"><ele>1384.0</ele><time>2026-04-22T09:19:11Z</time></trkpt><trkpt lat="42.37154526120362" lon="2.464693687686839"><ele>1386.0</ele><time>2026-04-22T09:19:12Z</time></trkpt><trkpt lat="42.37171326088151" lon="2.464798574006787"><ele>1388.0</ele><time>2026-04-22T09:19:13Z</time></trkpt><trkpt lat="42.37189378164035" lon="2.464910718288437"><ele>1388.0</ele><time>2026-04-22T09:19:14Z</time></trkpt><trkpt lat="42.37207634166127" lon="2.4650340691390618"><ele>1388.0</ele><time>2026-04-22T09:19:15Z</time></trkpt><trkpt lat="42.37228104781974" lon="2.465101003152159"><ele>1388.0</ele><time>2026-04-22T09:19:16Z</time></trkpt><trkpt lat="42.372484861316416" lon="2.4651768164748216"><ele>1390.3333333333335</ele><time>2026-04-22T09:19:17Z</time></trkpt><trkpt lat="42.37267315441611" lon="2.4651999388528085"><ele>1392.6666666666667</ele><time>2026-04-22T09:19:18Z</time></trkpt><trkpt lat="42.37287992416435" lon="2.465193346322955"><ele>1395.0</ele><time>2026-04-22T09:19:19Z</time></trkpt><trkpt lat="42.37308131445457" lon="2.4651450748986568"><ele>1397.0</ele><time>2026-04-22T09:19:20Z</time></trkpt><trkpt lat="42.373282413760606" lon="2.4650590225974978"><ele>1399.0</ele><time>2026-04-22T09:19:21Z</time></trkpt><trkpt lat="42.37347210572572" lon="2.464941570856666"><ele>1401.0</ele><time>2026-04-22T09:19:22Z</time></trkpt><trkpt lat="42.373665513388765" lon="2.464819481040069"><ele>1401.0</ele><time>2026-04-22T09:19:23Z</time></trkpt><trkpt lat="42.37385028689416" lon="2.464703674468704"><ele>1401.0</ele><time>2026-04-22T09:19:24Z</time></trkpt><trkpt lat="42.374016843804945" lon="2.464589944002002"><ele>1401.0</ele><time>2026-04-22T09:19:25Z</time></trkpt><trkpt lat="42.3741545558044" lon="2.4644675649586736"><ele>1403.75</ele><time>2026-04-22T09:19:26Z</time></trkpt><trkpt lat="42.37425959107769" lon="2.4643269669404932"><ele>1406.5</ele><time>2026-04-22T09:19:27Z</time></trkpt><trkpt lat="42.374316509068755" lon="2.464159153475562"><ele>1409.25</ele><time>2026-04-22T09:19:28Z</time></trkpt><trkpt lat="42.374332122596606" lon="2.463982428798235"><ele>1412.0</ele><time>2026-04-22T09:19:29Z</time></trkpt><trkpt lat="42.37430516378795" lon="2.463790145502038"><ele>1416.5</ele><time>2026-04-22T09:19:30Z</time></trkpt><trkpt lat="42.37423857349739" lon="2.46362090901091"><ele>1421.0</ele><time>2026-04-22T09:19:31Z</time></trkpt><trkpt lat="42.37413664968559" lon="2.463495893333556"><ele>1425.5</ele><time>2026-04-22T09:19:32Z</time></trkpt><trkpt lat="42.37399539221543" lon="2.46341586695169"><ele>1430.0</ele><time>2026-04-22T09:19:33Z</time></trkpt><trkpt lat="42.37384293792888" lon="2.4633701870457223"><ele>1430.0</ele><time>2026-04-22T09:19:34Z</time></trkpt><trkpt lat="42.37368073344665" lon="2.4633646583254487"><ele>1430.0</ele><time>2026-04-22T09:19:35Z</time></trkpt><trkpt lat="42.37350846127859" lon="2.4633870426650155"><ele>1430.0</ele><time>2026-04-22T09:19:36Z</time></trkpt><trkpt lat="42.373332573616224" lon="2.4634071058634506"><ele>1430.0</ele><time>2026-04-22T09:19:37Z</time></trkpt><trkpt lat="42.373142278967244" lon="2.4634056937272515"><ele>1430.0</ele><time>2026-04-22T09:19:37.999Z</time></trkpt><trkpt lat="42.372953935818245" lon="2.4633778954332826"><ele>1430.0</ele><time>2026-04-22T09:19:38.999Z</time></trkpt><trkpt lat="42.37277081182645" lon="2.4633105051893827"><ele>1429.3333333333335</ele><time>2026-04-22T09:19:39.999Z</time></trkpt><trkpt lat="42.37257798250534" lon="2.463216048861691"><ele>1428.6666666666667</ele><time>2026-04-22T09:19:40.999Z</time></trkpt><trkpt lat="42.37238567147338" lon="2.4631241973274474"><ele>1428.0</ele><time>2026-04-22T09:19:41.999Z</time></trkpt><trkpt lat="42.37220026615781" lon="2.463042519442249"><ele>1426.0</ele><time>2026-04-22T09:19:42.999Z</time></trkpt><trkpt lat="42.37201105062251" lon="2.4629575365403555"><ele>1424.0</ele><time>2026-04-22T09:19:43.999Z</time></trkpt><trkpt lat="42.37183655292279" lon="2.4628881883468243"><ele>1422.0</ele><time>2026-04-22T09:19:44.999Z</time></trkpt><trkpt lat="42.371691821171126" lon="2.462812854311498"><ele>1425.3999999999999</ele><time>2026-04-22T09:19:45.999Z</time></trkpt><trkpt lat="42.37158779840158" lon="2.462722393716647"><ele>1428.8</ele><time>2026-04-22T09:19:46.999Z</time></trkpt><trkpt lat="42.371527398775214" lon="2.462598822442758"><ele>1432.2</ele><time>2026-04-22T09:19:47.999Z</time></trkpt><trkpt lat="42.371522243619125" lon="2.4624523121735944"><ele>1435.6</ele><time>2026-04-22T09:19:48.999Z</time></trkpt><trkpt lat="42.37157074527209" lon="2.462331954215534"><ele>1439.0</ele><time>2026-04-22T09:19:49.999Z</time></trkpt><trkpt lat="42.371663650147426" lon="2.4622403398011925"><ele>1439.0</ele><time>2026-04-22T09:19:50.999Z</time></trkpt><trkpt lat="42.37180234316341" lon="2.4622433976846434"><ele>1439.0</ele><time>2026-04-22T09:19:51.999Z</time></trkpt><trkpt lat="42.37193181548226" lon="2.462285395116952"><ele>1439.0</ele><time>2026-04-22T09:19:52.999Z</time></trkpt><trkpt lat="42.372086976094685" lon="2.4623042440758773"><ele>1439.0</ele><time>2026-04-22T09:19:53.999Z</time></trkpt><trkpt lat="42.372241435737315" lon="2.4623486188449433"><ele>1442.0</ele><time>2026-04-22T09:19:54.999Z</time></trkpt><trkpt lat="42.37241069257399" lon="2.4623789596769665"><ele>1445.0</ele><time>2026-04-22T09:19:55.999Z</time></trkpt><trkpt lat="42.372579255274815" lon="2.4624004501757035"><ele>1448.0</ele><time>2026-04-22T09:19:56.999Z</time></trkpt><trkpt lat="42.37276604480279" lon="2.462410556577019"><ele>1448.0</ele><time>2026-04-22T09:19:57.999Z</time></trkpt><trkpt lat="42.372953784684434" lon="2.46240311670663"><ele>1448.0</ele><time>2026-04-22T09:19:58.999Z</time></trkpt><trkpt lat="42.373145033081016" lon="2.4623831304000814"><ele>1448.0</ele><time>2026-04-22T09:19:59.999Z</time></trkpt><trkpt lat="42.37334303070774" lon="2.462354071154241"><ele>1449.6666666666667</ele><time>2026-04-22T09:20:00.999Z</time></trkpt><trkpt lat="42.373541874032256" lon="2.46232450322322"><ele>1451.3333333333333</ele><time>2026-04-22T09:20:01.999Z</time></trkpt><trkpt lat="42.37374396872915" lon="2.46227552238418"><ele>1453.0</ele><time>2026-04-22T09:20:02.999Z</time></trkpt><trkpt lat="42.37393547281498" lon="2.462212130779797"><ele>1453.6666666666665</ele><time>2026-04-22T09:20:03.999Z</time></trkpt><trkpt lat="42.37414102103913" lon="2.4621504448211575"><ele>1454.3333333333333</ele><time>2026-04-22T09:20:04.999Z</time></trkpt><trkpt lat="42.37431624512727" lon="2.4620858722480925"><ele>1455.0</ele><time>2026-04-22T09:20:05.999Z</time></trkpt><trkpt lat="42.374472957259016" lon="2.4620597460417653"><ele>1458.0</ele><time>2026-04-22T09:20:06.999Z</time></trkpt><trkpt lat="42.37460504332295" lon="2.461975526829541"><ele>1461.0</ele><time>2026-04-22T09:20:07.999Z</time></trkpt><trkpt lat="42.37470722085467" lon="2.46189992151056"><ele>1464.0</ele><time>2026-04-22T09:20:08.999Z</time></trkpt><trkpt lat="42.374784253407086" lon="2.461787336167287"><ele>1467.0</ele><time>2026-04-22T09:20:09.999Z</time></trkpt><trkpt lat="42.37481462084104" lon="2.461638125464014"><ele>1467.0</ele><time>2026-04-22T09:20:10.999Z</time></trkpt><trkpt lat="42.374779984455145" lon="2.461500587211542"><ele>1467.0</ele><time>2026-04-22T09:20:11.999Z</time></trkpt><trkpt lat="42.37469191345923" lon="2.461393847536576"><ele>1467.0</ele><time>2026-04-22T09:20:12.999Z</time></trkpt><trkpt lat="42.37458315960239" lon="2.4613444221490495"><ele>1467.0</ele><time>2026-04-22T09:20:13.999Z</time></trkpt><trkpt lat="42.37444474874404" lon="2.4613401407999436"><ele>1468.6666666666667</ele><time>2026-04-22T09:20:14.999Z</time></trkpt><trkpt lat="42.37430422390967" lon="2.461395200585611"><ele>1470.3333333333335</ele><time>2026-04-22T09:20:15.999Z</time></trkpt><trkpt lat="42.37415513934417" lon="2.4614722925125356"><ele>1472.0</ele><time>2026-04-22T09:20:16.999Z</time></trkpt><trkpt lat="42.37399088369662" lon="2.461559795920998"><ele>1472.6666666666667</ele><time>2026-04-22T09:20:17.999Z</time></trkpt><trkpt lat="42.37382283469205" lon="2.461613806511179"><ele>1473.3333333333333</ele><time>2026-04-22T09:20:18.999Z</time></trkpt><trkpt lat="42.37363725955241" lon="2.4616201009606637"><ele>1474.0</ele><time>2026-04-22T09:20:19.999Z</time></trkpt><trkpt lat="42.37344591293364" lon="2.4615787258283652"><ele>1474.0</ele><time>2026-04-22T09:20:20.999Z</time></trkpt><trkpt lat="42.37325378863021" lon="2.461526170561839"><ele>1474.0</ele><time>2026-04-22T09:20:21.999Z</time></trkpt><trkpt lat="42.373065056389166" lon="2.4614473796146945"><ele>1474.0</ele><time>2026-04-22T09:20:22.999Z</time></trkpt><trkpt lat="42.37288242639683" lon="2.4613451960977573"><ele>1480.6666666666665</ele><time>2026-04-22T09:20:23.999Z</time></trkpt><trkpt lat="42.37268997018043" lon="2.4612238972275304"><ele>1487.3333333333333</ele><time>2026-04-22T09:20:24.999Z</time></trkpt><trkpt lat="42.37248616796072" lon="2.461124745433252"><ele>1494.0</ele><time>2026-04-22T09:20:25.999Z</time></trkpt><trkpt lat="42.372288358082514" lon="2.461031607756701"><ele>1491.0</ele><time>2026-04-22T09:20:26.999Z</time></trkpt><trkpt lat="42.37210155686962" lon="2.460928408887801"><ele>1488.0</ele><time>2026-04-22T09:20:27.999Z</time></trkpt><trkpt lat="42.371935024032986" lon="2.460805059312331"><ele>1485.0</ele><time>2026-04-22T09:20:28.999Z</time></trkpt><trkpt lat="42.3717842698531" lon="2.4606569334551254"><ele>1485.0</ele><time>2026-04-22T09:20:29.999Z</time></trkpt><trkpt lat="42.37164447639211" lon="2.460475186324148"><ele>1485.0</ele><time>2026-04-22T09:20:30.999Z</time></trkpt><trkpt lat="42.37150311100845" lon="2.460275507636397"><ele>1485.0</ele><time>2026-04-22T09:20:31.999Z</time></trkpt><trkpt lat="42.3713716789716" lon="2.4600611837035493"><ele>1483.3333333333333</ele><time>2026-04-22T09:20:32.999Z</time></trkpt><trkpt lat="42.37122910209109" lon="2.4598550734217235"><ele>1481.6666666666665</ele><time>2026-04-22T09:20:33.999Z</time></trkpt><trkpt lat="42.37109067346149" lon="2.4596498858377625"><ele>1480.0</ele><time>2026-04-22T09:20:34.999Z</time></trkpt><trkpt lat="42.370949796097214" lon="2.4594330859365674"><ele>1488.6666666666665</ele><time>2026-04-22T09:20:35.999Z</time></trkpt><trkpt lat="42.37081814440109" lon="2.45922713694377"><ele>1497.3333333333333</ele><time>2026-04-22T09:20:36.999Z</time></trkpt><trkpt lat="42.37068660753845" lon="2.4590293451165324"><ele>1506.0</ele><time>2026-04-22T09:20:37.999Z</time></trkpt><trkpt lat="42.370580085963645" lon="2.4588103824589735"><ele>1503.3333333333333</ele><time>2026-04-22T09:20:38.999Z</time></trkpt><trkpt lat="42.37047984324371" lon="2.458554975497232"><ele>1500.6666666666665</ele><time>2026-04-22T09:20:39.999Z</time></trkpt><trkpt lat="42.37039336798648" lon="2.4583013486455187"><ele>1498.0</ele><time>2026-04-22T09:20:40.998Z</time></trkpt><trkpt lat="42.37029912993511" lon="2.458046880132353"><ele>1505.0</ele><time>2026-04-22T09:20:41.998Z</time></trkpt><trkpt lat="42.37018399248789" lon="2.4578350492090792"><ele>1512.0</ele><time>2026-04-22T09:20:42.998Z</time></trkpt><trkpt lat="42.3700364512037" lon="2.4576464386376045"><ele>1519.0</ele><time>2026-04-22T09:20:43.998Z</time></trkpt><trkpt lat="42.36987064586394" lon="2.4575018436364853"><ele>1519.0</ele><time>2026-04-22T09:20:44.998Z</time></trkpt><trkpt lat="42.369702260504674" lon="2.4573806526675583"><ele>1519.0</ele><time>2026-04-22T09:20:45.998Z</time></trkpt><trkpt lat="42.369515657652514" lon="2.4572645743841823"><ele>1519.0</ele><time>2026-04-22T09:20:46.998Z</time></trkpt><trkpt lat="42.3693264945162" lon="2.4571476974481494"><ele>1519.6666666666665</ele><time>2026-04-22T09:20:47.998Z</time></trkpt><trkpt lat="42.369123731287615" lon="2.457021246085273"><ele>1520.3333333333333</ele><time>2026-04-22T09:20:48.998Z</time></trkpt><trkpt lat="42.36892043286332" lon="2.4569057771889216"><ele>1521.0</ele><time>2026-04-22T09:20:49.998Z</time></trkpt><trkpt lat="42.36870260139711" lon="2.456823492511556"><ele>1521.0</ele><time>2026-04-22T09:20:50.998Z</time></trkpt><trkpt lat="42.36848047344728" lon="2.456771795072962"><ele>1521.0</ele><time>2026-04-22T09:20:51.998Z</time></trkpt><trkpt lat="42.36826486436113" lon="2.45676466212821"><ele>1521.0</ele><time>2026-04-22T09:20:52.998Z</time></trkpt><trkpt lat="42.3680547135525" lon="2.4567476015217586"><ele>1520.0</ele><time>2026-04-22T09:20:53.998Z</time></trkpt><trkpt lat="42.36786399541872" lon="2.4567485225105554"><ele>1519.0</ele><time>2026-04-22T09:20:54.998Z</time></trkpt><trkpt lat="42.36768947289625" lon="2.456742469011202"><ele>1518.0</ele><time>2026-04-22T09:20:55.998Z</time></trkpt><trkpt lat="42.36754614945092" lon="2.456737484708113"><ele>1518.0</ele><time>2026-04-22T09:20:56.998Z</time></trkpt><trkpt lat="42.36743392574795" lon="2.4567202979351137"><ele>1518.0</ele><time>2026-04-22T09:20:57.998Z</time></trkpt><trkpt lat="42.36734259528236" lon="2.456706902131159"><ele>1518.0</ele><time>2026-04-22T09:20:58.998Z</time></trkpt><trkpt lat="42.367273579224936" lon="2.4566638914381818"><ele>1518.0</ele><time>2026-04-22T09:21:00Z</time></trkpt><trkpt lat="42.36721374817827" lon="2.4566004790855995"><ele>1518.0</ele><time>2026-04-22T09:21:01Z</time></trkpt><trkpt lat="42.36716131329356" lon="2.4565214217749523"><ele>1518.0</ele><time>2026-04-22T09:21:02Z</time></trkpt><trkpt lat="42.367114114126736" lon="2.456445933542154"><ele>1518.0</ele><time>2026-04-22T09:21:03Z</time></trkpt><trkpt lat="42.36707928388437" lon="2.456369009444444"><ele>1518.0</ele><time>2026-04-22T09:21:04Z</time></trkpt><trkpt lat="42.36704448172304" lon="2.456218514605176"><ele>1518.0</ele><time>2026-04-22T09:21:06Z</time></trkpt><trkpt lat="42.36703945787802" lon="2.4560775006638824"><ele>1518.0</ele><time>2026-04-22T09:21:08Z</time></trkpt><trkpt lat="42.367054397405774" lon="2.4559783435377978"><ele>1518.0</ele><time>2026-04-22T09:21:10Z</time></trkpt><trkpt lat="42.36681354390239" lon="2.4561531705905706"><ele>1518.0</ele><time>2026-04-22T09:25:48Z</time></trkpt><trkpt lat="42.36687016461621" lon="2.456207505529767"><ele>1518.0</ele><time>2026-04-22T09:25:50Z</time></trkpt><trkpt lat="42.36693804511993" lon="2.4561625524382813"><ele>1518.0</ele><time>2026-04-22T09:25:52Z</time></trkpt><trkpt lat="42.366981668972684" lon="2.456269226128564"><ele>1518.0</ele><time>2026-04-22T09:25:54Z</time></trkpt><trkpt lat="42.36699750194339" lon="2.456361721618448"><ele>1518.0</ele><time>2026-04-22T09:25:54.999Z</time></trkpt><trkpt lat="42.36702606322924" lon="2.4564518879292234"><ele>1518.0</ele><time>2026-04-22T09:25:55.999Z</time></trkpt><trkpt lat="42.36707101992185" lon="2.4565588843450845"><ele>1518.0</ele><time>2026-04-22T09:25:56.999Z</time></trkpt><trkpt lat="42.36712110676824" lon="2.456644159678412"><ele>1518.0</ele><time>2026-04-22T09:25:57.999Z</time></trkpt><trkpt lat="42.36717643399409" lon="2.456718673437486"><ele>1518.0</ele><time>2026-04-22T09:25:58.999Z</time></trkpt><trkpt lat="42.367265487004026" lon="2.4567693591922146"><ele>1518.0</ele><time>2026-04-22T09:26:00.999Z</time></trkpt><trkpt lat="42.36728112051488" lon="2.4566609790288143"><ele>1518.0</ele><time>2026-04-22T09:26:03.999Z</time></trkpt><trkpt lat="42.36712835489969" lon="2.456500945053084"><ele>1518.0</ele><time>2026-04-22T09:26:05.999Z</time></trkpt><trkpt lat="42.367050098297" lon="2.45639046409638"><ele>1518.0</ele><time>2026-04-22T09:26:06.999Z</time></trkpt><trkpt lat="42.36701359129534" lon="2.456236890816667"><ele>1518.0</ele><time>2026-04-22T09:26:07.999Z</time></trkpt><trkpt lat="42.36703920950491" lon="2.456084914820799"><ele>1518.0</ele><time>2026-04-22T09:26:08.999Z</time></trkpt><trkpt lat="42.36706676009329" lon="2.455920080915554"><ele>1517.25</ele><time>2026-04-22T09:26:09.999Z</time></trkpt><trkpt lat="42.367107609229684" lon="2.4557326385585414"><ele>1516.5</ele><time>2026-04-22T09:26:10.999Z</time></trkpt><trkpt lat="42.36718040231582" lon="2.4555506385841412"><ele>1515.75</ele><time>2026-04-22T09:26:11.999Z</time></trkpt><trkpt lat="42.367245213716274" lon="2.4554183013356012"><ele>1515.0</ele><time>2026-04-22T09:26:12.999Z</time></trkpt><trkpt lat="42.36729201755119" lon="2.4553123607503196"><ele>1515.0</ele><time>2026-04-22T09:26:13.999Z</time></trkpt><trkpt lat="42.36718853165584" lon="2.4554161944695285"><ele>1515.0</ele><time>2026-04-22T09:26:19.999Z</time></trkpt><trkpt lat="42.36715856869123" lon="2.455565258854141"><ele>1515.0</ele><time>2026-04-22T09:26:20.999Z</time></trkpt><trkpt lat="42.36709959742807" lon="2.455725140759077"><ele>1515.0</ele><time>2026-04-22T09:26:21.999Z</time></trkpt><trkpt lat="42.367046053969375" lon="2.455869551494359"><ele>1515.0</ele><time>2026-04-22T09:26:22.999Z</time></trkpt><trkpt lat="42.36700682254133" lon="2.4559737415860403"><ele>1515.0</ele><time>2026-04-22T09:26:23.999Z</time></trkpt><trkpt lat="42.36693814853758" lon="2.4560196317768774"><ele>1515.0</ele><time>2026-04-22T09:26:25.999Z</time></trkpt><trkpt lat="42.36697889975794" lon="2.455862681697805"><ele>1515.0</ele><time>2026-04-22T09:31:07.999Z</time></trkpt><trkpt lat="42.36702627712684" lon="2.45579803636005"><ele>1515.0</ele><time>2026-04-22T09:31:16.999Z</time></trkpt><trkpt lat="42.36700178105681" lon="2.4558783642205295"><ele>1515.0</ele><time>2026-04-22T09:34:07Z</time></trkpt><trkpt lat="42.366946709695185" lon="2.4559252131258043"><ele>1515.0</ele><time>2026-04-22T09:34:14Z</time></trkpt><trkpt lat="42.36688735883614" lon="2.455889743560406"><ele>1515.0</ele><time>2026-04-22T09:34:28.999Z</time></trkpt><trkpt lat="42.36692750131311" lon="2.4559591435563215"><ele>1515.0</ele><time>2026-04-22T09:36:34.999Z</time></trkpt><trkpt lat="42.36690817044863" lon="2.4560681902339634"><ele>1515.0</ele><time>2026-04-22T09:41:49.999Z</time></trkpt><trkpt lat="42.366961709441384" lon="2.45619749605578"><ele>1515.0</ele><time>2026-04-22T09:41:51.999Z</time></trkpt><trkpt lat="42.367001846898006" lon="2.4563491812028304"><ele>1515.0</ele><time>2026-04-22T09:41:53.999Z</time></trkpt><trkpt lat="42.36702837662211" lon="2.456435114694887"><ele>1515.6</ele><time>2026-04-22T09:41:54.999Z</time></trkpt><trkpt lat="42.36707090610955" lon="2.4565195065828505"><ele>1516.2</ele><time>2026-04-22T09:41:55.999Z</time></trkpt><trkpt lat="42.36711785628305" lon="2.4565896789567048"><ele>1516.8000000000002</ele><time>2026-04-22T09:41:56.999Z</time></trkpt><trkpt lat="42.36721665719006" lon="2.456691900160073"><ele>1517.4</ele><time>2026-04-22T09:41:58.999Z</time></trkpt><trkpt lat="42.36732762031684" lon="2.456760170499034"><ele>1518.0</ele><time>2026-04-22T09:42:00.999Z</time></trkpt><trkpt lat="42.367391837502126" lon="2.4567722948411723"><ele>1518.0</ele><time>2026-04-22T09:42:01.999Z</time></trkpt><trkpt lat="42.367470744599316" lon="2.456784722216969"><ele>1518.0</ele><time>2026-04-22T09:42:02.999Z</time></trkpt><trkpt lat="42.36756343730442" lon="2.4567938186914238"><ele>1518.0</ele><time>2026-04-22T09:42:03.999Z</time></trkpt><trkpt lat="42.36766863307893" lon="2.4567960044758186"><ele>1518.0</ele><time>2026-04-22T09:42:04.999Z</time></trkpt><trkpt lat="42.36778553278014" lon="2.4568060912330254"><ele>1518.0</ele><time>2026-04-22T09:42:05.999Z</time></trkpt><trkpt lat="42.36791530495897" lon="2.4568113372850053"><ele>1519.0</ele><time>2026-04-22T09:42:06.999Z</time></trkpt><trkpt lat="42.36805367198635" lon="2.4568176618144535"><ele>1520.0</ele><time>2026-04-22T09:42:07.999Z</time></trkpt><trkpt lat="42.368204314493944" lon="2.456825840834736"><ele>1521.0</ele><time>2026-04-22T09:42:08.999Z</time></trkpt><trkpt lat="42.36836798268364" lon="2.4568363125514185"><ele>1521.0</ele><time>2026-04-22T09:42:09.999Z</time></trkpt><trkpt lat="42.368519438948795" lon="2.456848746131897"><ele>1521.0</ele><time>2026-04-22T09:42:10.999Z</time></trkpt><trkpt lat="42.368702164331424" lon="2.456883003879238"><ele>1521.0</ele><time>2026-04-22T09:42:11.999Z</time></trkpt><trkpt lat="42.368869634365545" lon="2.4569406651305283"><ele>1524.0</ele><time>2026-04-22T09:42:12.999Z</time></trkpt><trkpt lat="42.36904015172293" lon="2.4570247620655645"><ele>1527.0</ele><time>2026-04-22T09:42:13.999Z</time></trkpt><trkpt lat="42.36919892688791" lon="2.457128005188882"><ele>1530.0</ele><time>2026-04-22T09:42:14.999Z</time></trkpt><trkpt lat="42.369360970068804" lon="2.4572329509874518"><ele>1526.3333333333333</ele><time>2026-04-22T09:42:15.999Z</time></trkpt><trkpt lat="42.369520107264094" lon="2.457335029033614"><ele>1522.6666666666665</ele><time>2026-04-22T09:42:16.999Z</time></trkpt><trkpt lat="42.36967046437353" lon="2.457440143688152"><ele>1519.0</ele><time>2026-04-22T09:42:17.999Z</time></trkpt><trkpt lat="42.36981073024886" lon="2.4575434615150207"><ele>1519.0</ele><time>2026-04-22T09:42:18.999Z</time></trkpt><trkpt lat="42.369952498212335" lon="2.457655339581903"><ele>1519.0</ele><time>2026-04-22T09:42:19.999Z</time></trkpt><trkpt lat="42.37009504094412" lon="2.4577919258396226"><ele>1519.0</ele><time>2026-04-22T09:42:20.999Z</time></trkpt><trkpt lat="42.37021707051974" lon="2.457966618618713"><ele>1512.0</ele><time>2026-04-22T09:42:21.999Z</time></trkpt><trkpt lat="42.37031050056446" lon="2.4581745032860174"><ele>1505.0</ele><time>2026-04-22T09:42:22.999Z</time></trkpt><trkpt lat="42.37039522108764" lon="2.458410829541755"><ele>1498.0</ele><time>2026-04-22T09:42:23.999Z</time></trkpt><trkpt lat="42.370476502977986" lon="2.4586527714108675"><ele>1500.6666666666665</ele><time>2026-04-22T09:42:24.999Z</time></trkpt><trkpt lat="42.37056220255941" lon="2.4588745134428613"><ele>1503.3333333333333</ele><time>2026-04-22T09:42:25.999Z</time></trkpt><trkpt lat="42.370673708468786" lon="2.459099785653072"><ele>1506.0</ele><time>2026-04-22T09:42:26.999Z</time></trkpt><trkpt lat="42.370810583997" lon="2.4593203523631018"><ele>1506.0</ele><time>2026-04-22T09:42:27.999Z</time></trkpt><trkpt lat="42.370970386641964" lon="2.459550711575703"><ele>1506.0</ele><time>2026-04-22T09:42:28.999Z</time></trkpt><trkpt lat="42.37112858490907" lon="2.4597835191594233"><ele>1507.0</ele><time>2026-04-22T09:42:29.999Z</time></trkpt><trkpt lat="42.37128189864444" lon="2.4600128012261337"><ele>1508.0</ele><time>2026-04-22T09:42:30.999Z</time></trkpt><trkpt lat="42.37142608404002" lon="2.4602266070723857"><ele>1509.0</ele><time>2026-04-22T09:42:31.999Z</time></trkpt><trkpt lat="42.37156414450754" lon="2.460432794536195"><ele>1501.0</ele><time>2026-04-22T09:42:32.999Z</time></trkpt><trkpt lat="42.37170424916384" lon="2.4606237166127456"><ele>1493.0</ele><time>2026-04-22T09:42:33.999Z</time></trkpt><trkpt lat="42.37185699016931" lon="2.460799981242886"><ele>1485.0</ele><time>2026-04-22T09:42:34.999Z</time></trkpt><trkpt lat="42.372040446216964" lon="2.460940655465279"><ele>1489.5</ele><time>2026-04-22T09:42:35.999Z</time></trkpt><trkpt lat="42.37224544183694" lon="2.4610665293477125"><ele>1494.0</ele><time>2026-04-22T09:42:36.999Z</time></trkpt><trkpt lat="42.37247070331749" lon="2.4611861188733317"><ele>1482.5</ele><time>2026-04-22T09:42:37.999Z</time></trkpt><trkpt lat="42.372683630612585" lon="2.4613020528815515"><ele>1471.0</ele><time>2026-04-22T09:42:38.999Z</time></trkpt><trkpt lat="42.3728894815709" lon="2.4614111846451037"><ele>1472.0</ele><time>2026-04-22T09:42:39.999Z</time></trkpt><trkpt lat="42.37309730817368" lon="2.461513069192764"><ele>1473.0</ele><time>2026-04-22T09:42:40.999Z</time></trkpt><trkpt lat="42.373282125674706" lon="2.461577776933204"><ele>1474.0</ele><time>2026-04-22T09:42:41.999Z</time></trkpt><trkpt lat="42.37347178132113" lon="2.461627846566819"><ele>1474.0</ele><time>2026-04-22T09:42:42.999Z</time></trkpt><trkpt lat="42.37365183550514" lon="2.461656374361528"><ele>1474.0</ele><time>2026-04-22T09:42:43.999Z</time></trkpt><trkpt lat="42.37383396987167" lon="2.46166410330003"><ele>1474.0</ele><time>2026-04-22T09:42:44.999Z</time></trkpt><trkpt lat="42.37400226298813" lon="2.4616303967920676"><ele>1473.3333333333333</ele><time>2026-04-22T09:42:45.999Z</time></trkpt><trkpt lat="42.374164408167644" lon="2.4615608335268706"><ele>1472.6666666666667</ele><time>2026-04-22T09:42:46.999Z</time></trkpt><trkpt lat="42.37430874589908" lon="2.461490670288098"><ele>1472.0</ele><time>2026-04-22T09:42:47.999Z</time></trkpt><trkpt lat="42.37443516168462" lon="2.461445303781621"><ele>1472.0</ele><time>2026-04-22T09:42:48.999Z</time></trkpt><trkpt lat="42.37455475832762" lon="2.461441607968533"><ele>1472.0</ele><time>2026-04-22T09:42:49.999Z</time></trkpt><trkpt lat="42.37464904950709" lon="2.461482068266503"><ele>1472.0</ele><time>2026-04-22T09:42:50.999Z</time></trkpt><trkpt lat="42.37473035915093" lon="2.4615640978831594"><ele>1472.0</ele><time>2026-04-22T09:42:51.999Z</time></trkpt><trkpt lat="42.374766159287844" lon="2.4616859587448783"><ele>1472.0</ele><time>2026-04-22T09:42:52.999Z</time></trkpt><trkpt lat="42.374741379205624" lon="2.4618168146704367"><ele>1472.0</ele><time>2026-04-22T09:42:53.999Z</time></trkpt><trkpt lat="42.37466524664665" lon="2.461924051306595"><ele>1472.0</ele><time>2026-04-22T09:42:54.999Z</time></trkpt><trkpt lat="42.37454263781728" lon="2.4619828630615337"><ele>1472.0</ele><time>2026-04-22T09:42:55.999Z</time></trkpt><trkpt lat="42.37439392459924" lon="2.4620523086444237"><ele>1472.0</ele><time>2026-04-22T09:42:56.999Z</time></trkpt><trkpt lat="42.374242714736205" lon="2.4621039386513406"><ele>1466.3333333333335</ele><time>2026-04-22T09:42:57.999Z</time></trkpt><trkpt lat="42.37407473137657" lon="2.4621595670817022"><ele>1460.6666666666667</ele><time>2026-04-22T09:42:58.999Z</time></trkpt><trkpt lat="42.3738916951885" lon="2.4622136550445366"><ele>1455.0</ele><time>2026-04-22T09:42:59.999Z</time></trkpt><trkpt lat="42.37369255781888" lon="2.4622668605161353"><ele>1454.3333333333333</ele><time>2026-04-22T09:43:00.999Z</time></trkpt><trkpt lat="42.37349004396041" lon="2.462317865471188"><ele>1453.6666666666665</ele><time>2026-04-22T09:43:01.999Z</time></trkpt><trkpt lat="42.37329639242169" lon="2.462356613161744"><ele>1453.0</ele><time>2026-04-22T09:43:02.999Z</time></trkpt><trkpt lat="42.373096497462534" lon="2.4623645399516647"><ele>1451.3333333333333</ele><time>2026-04-22T09:43:03.999Z</time></trkpt><trkpt lat="42.372893633712685" lon="2.4623767171087363"><ele>1449.6666666666667</ele><time>2026-04-22T09:43:04.999Z</time></trkpt><trkpt lat="42.37267445871689" lon="2.462380649847612"><ele>1448.0</ele><time>2026-04-22T09:43:05.999Z</time></trkpt><trkpt lat="42.37246621570755" lon="2.46238406475633"><ele>1448.0</ele><time>2026-04-22T09:43:06.999Z</time></trkpt><trkpt lat="42.3722780319334" lon="2.4623398613257637"><ele>1448.0</ele><time>2026-04-22T09:43:07.999Z</time></trkpt><trkpt lat="42.37209028546222" lon="2.4622913490895493"><ele>1448.0</ele><time>2026-04-22T09:43:08.999Z</time></trkpt><trkpt lat="42.371941589332955" lon="2.462245848465574"><ele>1445.75</ele><time>2026-04-22T09:43:09.999Z</time></trkpt><trkpt lat="42.37181532771615" lon="2.4622191227419465"><ele>1443.5</ele><time>2026-04-22T09:43:10.999Z</time></trkpt><trkpt lat="42.37168997216564" lon="2.462214954030786"><ele>1441.25</ele><time>2026-04-22T09:43:11.999Z</time></trkpt><trkpt lat="42.37158375802376" lon="2.462258890121586"><ele>1439.0</ele><time>2026-04-22T09:43:12.999Z</time></trkpt><trkpt lat="42.37149743108651" lon="2.462351246519744"><ele>1439.0</ele><time>2026-04-22T09:43:13.999Z</time></trkpt><trkpt lat="42.37146090111344" lon="2.4624926029686742"><ele>1439.0</ele><time>2026-04-22T09:43:14.999Z</time></trkpt><trkpt lat="42.371466402168785" lon="2.4626392395306618"><ele>1439.0</ele><time>2026-04-22T09:43:15.999Z</time></trkpt><trkpt lat="42.37152775324451" lon="2.462771875553311"><ele>1439.0</ele><time>2026-04-22T09:43:16.999Z</time></trkpt><trkpt lat="42.37163663314734" lon="2.462880963414602"><ele>1433.3333333333335</ele><time>2026-04-22T09:43:17.999Z</time></trkpt><trkpt lat="42.3717857518618" lon="2.462957309331759"><ele>1427.6666666666667</ele><time>2026-04-22T09:43:18.999Z</time></trkpt><trkpt lat="42.37195134500702" lon="2.4630141321995285"><ele>1422.0</ele><time>2026-04-22T09:43:19.999Z</time></trkpt><trkpt lat="42.37212556983164" lon="2.463076342927221"><ele>1424.0</ele><time>2026-04-22T09:43:20.999Z</time></trkpt><trkpt lat="42.372310277941494" lon="2.4631542402653874"><ele>1426.0</ele><time>2026-04-22T09:43:21.999Z</time></trkpt><trkpt lat="42.37249485989363" lon="2.4632423992497428"><ele>1428.0</ele><time>2026-04-22T09:43:22.999Z</time></trkpt><trkpt lat="42.37268059093805" lon="2.463332480245906"><ele>1428.0</ele><time>2026-04-22T09:43:23.999Z</time></trkpt><trkpt lat="42.37287014571197" lon="2.4634016823142626"><ele>1428.0</ele><time>2026-04-22T09:43:24.999Z</time></trkpt><trkpt lat="42.37306649039214" lon="2.46345148069684"><ele>1428.0</ele><time>2026-04-22T09:43:25.999Z</time></trkpt><trkpt lat="42.3732607300215" lon="2.4634605576421564"><ele>1428.6666666666667</ele><time>2026-04-22T09:43:26.999Z</time></trkpt><trkpt lat="42.373447233932055" lon="2.463454104922879"><ele>1429.3333333333335</ele><time>2026-04-22T09:43:27.999Z</time></trkpt><trkpt lat="42.373631840641316" lon="2.4634381406281625"><ele>1430.0</ele><time>2026-04-22T09:43:28.999Z</time></trkpt><trkpt lat="42.3737973063411" lon="2.4634332757836614"><ele>1431.0</ele><time>2026-04-22T09:43:29.999Z</time></trkpt><trkpt lat="42.37394502820229" lon="2.46346231558303"><ele>1432.0</ele><time>2026-04-22T09:43:30.999Z</time></trkpt><trkpt lat="42.374082132216685" lon="2.4635354344162343"><ele>1433.0</ele><time>2026-04-22T09:43:31.999Z</time></trkpt><trkpt lat="42.374194248783695" lon="2.463645851496793"><ele>1434.0</ele><time>2026-04-22T09:43:32.999Z</time></trkpt><trkpt lat="42.37425682872588" lon="2.4637982231753064"><ele>1426.6666666666667</ele><time>2026-04-22T09:43:33.999Z</time></trkpt><trkpt lat="42.37428297468988" lon="2.4639739544943606"><ele>1419.3333333333335</ele><time>2026-04-22T09:43:34.999Z</time></trkpt><trkpt lat="42.37426765511013" lon="2.4641719071911417"><ele>1412.0</ele><time>2026-04-22T09:43:35.999Z</time></trkpt><trkpt lat="42.37417290472247" lon="2.4643677256447276"><ele>1412.0</ele><time>2026-04-22T09:43:36.999Z</time></trkpt><trkpt lat="42.3740452225547" lon="2.464501222932838"><ele>1412.0</ele><time>2026-04-22T09:43:37.999Z</time></trkpt><trkpt lat="42.373894641544695" lon="2.464645278959129"><ele>1412.0</ele><time>2026-04-22T09:43:38.999Z</time></trkpt><trkpt lat="42.37371172002227" lon="2.4647528520574493"><ele>1408.3333333333335</ele><time>2026-04-22T09:43:39.999Z</time></trkpt><trkpt lat="42.37352305380659" lon="2.4648712451809076"><ele>1404.6666666666667</ele><time>2026-04-22T09:43:40.999Z</time></trkpt><trkpt lat="42.373338095149954" lon="2.464981885760968"><ele>1401.0</ele><time>2026-04-22T09:43:41.999Z</time></trkpt><trkpt lat="42.37315906264354" lon="2.465069308770893"><ele>1399.0</ele><time>2026-04-22T09:43:42.999Z</time></trkpt><trkpt lat="42.37297667349889" lon="2.4651244824162997"><ele>1397.0</ele><time>2026-04-22T09:43:43.999Z</time></trkpt><trkpt lat="42.37278728222272" lon="2.4651569748082136"><ele>1395.0</ele><time>2026-04-22T09:43:44.999Z</time></trkpt><trkpt lat="42.372582610097496" lon="2.4651485084517795"><ele>1395.0</ele><time>2026-04-22T09:43:45.999Z</time></trkpt><trkpt lat="42.37238415328236" lon="2.465112780236387"><ele>1395.0</ele><time>2026-04-22T09:43:46.999Z</time></trkpt><trkpt lat="42.372180073096416" lon="2.4650487618951344"><ele>1395.0</ele><time>2026-04-22T09:43:47.999Z</time></trkpt><trkpt lat="42.371977461550976" lon="2.4649452008738484"><ele>1392.6666666666667</ele><time>2026-04-22T09:43:48.999Z</time></trkpt><trkpt lat="42.37177703938645" lon="2.464812394540653"><ele>1390.3333333333335</ele><time>2026-04-22T09:43:49.999Z</time></trkpt><trkpt lat="42.371587869677356" lon="2.464680873731538"><ele>1388.0</ele><time>2026-04-22T09:43:50.999Z</time></trkpt><trkpt lat="42.371409974053016" lon="2.4645443310130215"><ele>1386.0</ele><time>2026-04-22T09:43:51.999Z</time></trkpt><trkpt lat="42.37125972865365" lon="2.4644149095631347"><ele>1384.0</ele><time>2026-04-22T09:43:52.999Z</time></trkpt><trkpt lat="42.37113358969066" lon="2.464300280363328"><ele>1382.0</ele><time>2026-04-22T09:43:53.999Z</time></trkpt><trkpt lat="42.37101205061327" lon="2.464219943257518"><ele>1382.0</ele><time>2026-04-22T09:43:54.999Z</time></trkpt><trkpt lat="42.37089872561573" lon="2.4641664799492395"><ele>1382.0</ele><time>2026-04-22T09:43:55.999Z</time></trkpt><trkpt lat="42.37080377828316" lon="2.464167495904028"><ele>1382.0</ele><time>2026-04-22T09:43:56.999Z</time></trkpt><trkpt lat="42.37071586041461" lon="2.4642247336304064"><ele>1382.0</ele><time>2026-04-22T09:43:57.999Z</time></trkpt><trkpt lat="42.3706574884119" lon="2.46433958828452"><ele>1382.0</ele><time>2026-04-22T09:43:58.999Z</time></trkpt><trkpt lat="42.37064373930347" lon="2.46448179598676"><ele>1382.0</ele><time>2026-04-22T09:43:59.999Z</time></trkpt><trkpt lat="42.37067400720237" lon="2.4646068509016636"><ele>1382.0</ele><time>2026-04-22T09:44:00.999Z</time></trkpt><trkpt lat="42.37075865266526" lon="2.4647437842482445"><ele>1382.0</ele><time>2026-04-22T09:44:01.999Z</time></trkpt><trkpt lat="42.37086431308506" lon="2.464876581073522"><ele>1382.0</ele><time>2026-04-22T09:44:02.999Z</time></trkpt><trkpt lat="42.37098969014828" lon="2.4650182446365543"><ele>1379.3333333333335</ele><time>2026-04-22T09:44:03.999Z</time></trkpt><trkpt lat="42.37113564268313" lon="2.465173754973744"><ele>1376.6666666666667</ele><time>2026-04-22T09:44:04.999Z</time></trkpt><trkpt lat="42.37128686138944" lon="2.465344875796511"><ele>1374.0</ele><time>2026-04-22T09:44:06Z</time></trkpt><trkpt lat="42.37144144398447" lon="2.4655214014682962"><ele>1373.0</ele><time>2026-04-22T09:44:07Z</time></trkpt><trkpt lat="42.37158972174633" lon="2.465701805126538"><ele>1372.0</ele><time>2026-04-22T09:44:08Z</time></trkpt><trkpt lat="42.37174074673902" lon="2.4658668207065864"><ele>1371.0</ele><time>2026-04-22T09:44:09Z</time></trkpt><trkpt lat="42.371906828400185" lon="2.4660071227597626"><ele>1371.0</ele><time>2026-04-22T09:44:10Z</time></trkpt><trkpt lat="42.3720963690532" lon="2.4661018084169197"><ele>1371.0</ele><time>2026-04-22T09:44:11Z</time></trkpt><trkpt lat="42.372302055475345" lon="2.4661569200836544"><ele>1371.0</ele><time>2026-04-22T09:44:12Z</time></trkpt><trkpt lat="42.372523152987206" lon="2.466163633687772"><ele>1373.5</ele><time>2026-04-22T09:44:13Z</time></trkpt><trkpt lat="42.372771100650176" lon="2.466163955014201"><ele>1376.0</ele><time>2026-04-22T09:44:14Z</time></trkpt><trkpt lat="42.37302224203759" lon="2.4661690648633443"><ele>1377.0</ele><time>2026-04-22T09:44:15Z</time></trkpt><trkpt lat="42.37325280630501" lon="2.4661981766230228"><ele>1378.0</ele><time>2026-04-22T09:44:16Z</time></trkpt><trkpt lat="42.37348324086153" lon="2.4662333216050207"><ele>1378.0</ele><time>2026-04-22T09:44:17Z</time></trkpt><trkpt lat="42.373700944236276" lon="2.466263437184757"><ele>1378.0</ele><time>2026-04-22T09:44:18Z</time></trkpt><trkpt lat="42.373902200270116" lon="2.4663031050601667"><ele>1378.0</ele><time>2026-04-22T09:44:19Z</time></trkpt><trkpt lat="42.37410396199355" lon="2.46634297234423"><ele>1367.6666666666665</ele><time>2026-04-22T09:44:20Z</time></trkpt><trkpt lat="42.37430914547028" lon="2.466412519976808"><ele>1357.3333333333333</ele><time>2026-04-22T09:44:21Z</time></trkpt><trkpt lat="42.374511141561364" lon="2.466517230455034"><ele>1347.0</ele><time>2026-04-22T09:44:22Z</time></trkpt><trkpt lat="42.37471730618734" lon="2.4666504281281982"><ele>1347.0</ele><time>2026-04-22T09:44:23Z</time></trkpt><trkpt lat="42.3749050230477" lon="2.466789516744278"><ele>1347.0</ele><time>2026-04-22T09:44:24Z</time></trkpt><trkpt lat="42.375075309031466" lon="2.4669252263822163"><ele>1347.0</ele><time>2026-04-22T09:44:25Z</time></trkpt><trkpt lat="42.375234437980005" lon="2.4670879498632425"><ele>1344.0</ele><time>2026-04-22T09:44:26Z</time></trkpt><trkpt lat="42.37537427442429" lon="2.467268041840411"><ele>1341.0</ele><time>2026-04-22T09:44:27Z</time></trkpt><trkpt lat="42.37547883452273" lon="2.4674662129780174"><ele>1338.0</ele><time>2026-04-22T09:44:28Z</time></trkpt><trkpt lat="42.37552776010444" lon="2.4677215469327276"><ele>1333.3333333333333</ele><time>2026-04-22T09:44:29Z</time></trkpt><trkpt lat="42.375578265502114" lon="2.4679843078392314"><ele>1328.6666666666665</ele><time>2026-04-22T09:44:30Z</time></trkpt><trkpt lat="42.37563998195616" lon="2.468250036288233"><ele>1324.0</ele><time>2026-04-22T09:44:31Z</time></trkpt><trkpt lat="42.3756958540446" lon="2.468516840030665"><ele>1324.0</ele><time>2026-04-22T09:44:32Z</time></trkpt><trkpt lat="42.375777425400734" lon="2.468744044911303"><ele>1324.0</ele><time>2026-04-22T09:44:33Z</time></trkpt><trkpt lat="42.3758849601169" lon="2.4689437878071807"><ele>1324.0</ele><time>2026-04-22T09:44:34Z</time></trkpt><trkpt lat="42.37603915539382" lon="2.4691169454312862"><ele>1319.3333333333333</ele><time>2026-04-22T09:44:35Z</time></trkpt><trkpt lat="42.37623104990564" lon="2.469251633210791"><ele>1314.6666666666667</ele><time>2026-04-22T09:44:36Z</time></trkpt><trkpt lat="42.376385684767264" lon="2.469413110948135"><ele>1310.0</ele><time>2026-04-22T09:44:37Z</time></trkpt><trkpt lat="42.37651824309543" lon="2.4695868464837796"><ele>1309.3333333333335</ele><time>2026-04-22T09:44:38Z</time></trkpt><trkpt lat="42.37662636548998" lon="2.4697734186899356"><ele>1308.6666666666667</ele><time>2026-04-22T09:44:39Z</time></trkpt><trkpt lat="42.37671403973778" lon="2.4699897582945227"><ele>1308.0</ele><time>2026-04-22T09:44:40Z</time></trkpt><trkpt lat="42.37676112209839" lon="2.470224487294361"><ele>1305.6666666666667</ele><time>2026-04-22T09:44:41Z</time></trkpt><trkpt lat="42.37676792729897" lon="2.470463419635279"><ele>1303.3333333333335</ele><time>2026-04-22T09:44:42Z</time></trkpt><trkpt lat="42.376724485662514" lon="2.4707038406767934"><ele>1301.0</ele><time>2026-04-22T09:44:43Z</time></trkpt><trkpt lat="42.376654907588524" lon="2.4709291294601465"><ele>1301.0</ele><time>2026-04-22T09:44:44Z</time></trkpt><trkpt lat="42.37656544955417" lon="2.471120150781564"><ele>1301.0</ele><time>2026-04-22T09:44:45Z</time></trkpt><trkpt lat="42.37647609110503" lon="2.4712953915830322"><ele>1301.0</ele><time>2026-04-22T09:44:46Z</time></trkpt><trkpt lat="42.376403617331306" lon="2.4714711468415858"><ele>1299.25</ele><time>2026-04-22T09:44:47Z</time></trkpt><trkpt lat="42.37636686761118" lon="2.4716398117030973"><ele>1297.5</ele><time>2026-04-22T09:44:48Z</time></trkpt><trkpt lat="42.3763659552024" lon="2.4718142087050015"><ele>1295.75</ele><time>2026-04-22T09:44:49Z</time></trkpt><trkpt lat="42.376401255335196" lon="2.471984715782935"><ele>1294.0</ele><time>2026-04-22T09:44:50Z</time></trkpt><trkpt lat="42.37647771842144" lon="2.472139040451307"><ele>1291.0</ele><time>2026-04-22T09:44:51Z</time></trkpt><trkpt lat="42.376588462859786" lon="2.47227576929664"><ele>1288.0</ele><time>2026-04-22T09:44:52Z</time></trkpt><trkpt lat="42.37671331424183" lon="2.4724031300836113"><ele>1285.0</ele><time>2026-04-22T09:44:53Z</time></trkpt><trkpt lat="42.37684961323502" lon="2.4725229901766306"><ele>1285.0</ele><time>2026-04-22T09:44:54Z</time></trkpt><trkpt lat="42.37694799026526" lon="2.4726804900756467"><ele>1285.0</ele><time>2026-04-22T09:44:55Z</time></trkpt><trkpt lat="42.37701614124983" lon="2.472859172140098"><ele>1285.0</ele><time>2026-04-22T09:44:56Z</time></trkpt><trkpt lat="42.37705930735516" lon="2.4730649695413067"><ele>1280.6666666666665</ele><time>2026-04-22T09:44:57Z</time></trkpt><trkpt lat="42.37701862333258" lon="2.473267965009623"><ele>1276.3333333333333</ele><time>2026-04-22T09:44:58Z</time></trkpt><trkpt lat="42.376987117489385" lon="2.4734604870639236"><ele>1272.0</ele><time>2026-04-22T09:44:59Z</time></trkpt><trkpt lat="42.37695340242263" lon="2.4736683091156215"><ele>1270.6666666666667</ele><time>2026-04-22T09:45:00Z</time></trkpt><trkpt lat="42.37692877684031" lon="2.473904369101579"><ele>1269.3333333333335</ele><time>2026-04-22T09:45:01Z</time></trkpt><trkpt lat="42.376929652934564" lon="2.4741438730950702"><ele>1268.0</ele><time>2026-04-22T09:45:02Z</time></trkpt><trkpt lat="42.37693675202275" lon="2.4743934597003427"><ele>1266.0</ele><time>2026-04-22T09:45:03Z</time></trkpt><trkpt lat="42.37694791189624" lon="2.474656512764663"><ele>1264.0</ele><time>2026-04-22T09:45:04Z</time></trkpt><trkpt lat="42.376961084819236" lon="2.4749334040331643"><ele>1262.0</ele><time>2026-04-22T09:45:05Z</time></trkpt><trkpt lat="42.376963876953894" lon="2.475230731493503"><ele>1258.5</ele><time>2026-04-22T09:45:06Z</time></trkpt><trkpt lat="42.3769756908021" lon="2.4755400389100664"><ele>1255.0</ele><time>2026-04-22T09:45:07Z</time></trkpt><trkpt lat="42.37695941806692" lon="2.4758624576476738"><ele>1255.0</ele><time>2026-04-22T09:45:08Z</time></trkpt><trkpt lat="42.376960752136846" lon="2.476169287827696"><ele>1255.0</ele><time>2026-04-22T09:45:09Z</time></trkpt><trkpt lat="42.376927315526224" lon="2.4764590030193325"><ele>1255.0</ele><time>2026-04-22T09:45:10Z</time></trkpt><trkpt lat="42.37687439106905" lon="2.476735638875243"><ele>1255.6666666666665</ele><time>2026-04-22T09:45:11Z</time></trkpt><trkpt lat="42.37680281943756" lon="2.4769957032694"><ele>1256.3333333333333</ele><time>2026-04-22T09:45:12Z</time></trkpt><trkpt lat="42.376727579465395" lon="2.4772533336329348"><ele>1257.0</ele><time>2026-04-22T09:45:13Z</time></trkpt><trkpt lat="42.3766305619373" lon="2.477505924772658"><ele>1257.0</ele><time>2026-04-22T09:45:14Z</time></trkpt><trkpt lat="42.376546547174556" lon="2.47775053092766"><ele>1257.0</ele><time>2026-04-22T09:45:15Z</time></trkpt><trkpt lat="42.37644817580081" lon="2.477980123894167"><ele>1257.0</ele><time>2026-04-22T09:45:16Z</time></trkpt><trkpt lat="42.3763533188107" lon="2.4781927114015985"><ele>1253.3333333333333</ele><time>2026-04-22T09:45:17Z</time></trkpt><trkpt lat="42.37628842337057" lon="2.4784011229764262"><ele>1249.6666666666665</ele><time>2026-04-22T09:45:18Z</time></trkpt><trkpt lat="42.37624535084514" lon="2.478592600921857"><ele>1246.0</ele><time>2026-04-22T09:45:19Z</time></trkpt><trkpt lat="42.37623814508116" lon="2.4787820545923998"><ele>1246.0</ele><time>2026-04-22T09:45:20Z</time></trkpt><trkpt lat="42.37627336266401" lon="2.478940262189581"><ele>1246.0</ele><time>2026-04-22T09:45:21Z</time></trkpt><trkpt lat="42.37634619804805" lon="2.479067775957107"><ele>1246.0</ele><time>2026-04-22T09:45:22Z</time></trkpt><trkpt lat="42.37644277468474" lon="2.4791685243214268"><ele>1246.0</ele><time>2026-04-22T09:45:23Z</time></trkpt><trkpt lat="42.3765886003305" lon="2.4792010376768956"><ele>1247.3333333333333</ele><time>2026-04-22T09:45:24Z</time></trkpt><trkpt lat="42.376740799039574" lon="2.479220486938668"><ele>1248.6666666666667</ele><time>2026-04-22T09:45:25Z</time></trkpt><trkpt lat="42.37689612820151" lon="2.4792739941049793"><ele>1250.0</ele><time>2026-04-22T09:45:26Z</time></trkpt><trkpt lat="42.377045361946955" lon="2.479289090889796"><ele>1250.0</ele><time>2026-04-22T09:45:27Z</time></trkpt><trkpt lat="42.37717376175566" lon="2.479359780323278"><ele>1250.0</ele><time>2026-04-22T09:45:28Z</time></trkpt><trkpt lat="42.37728561661779" lon="2.479469429438307"><ele>1250.0</ele><time>2026-04-22T09:45:29Z</time></trkpt><trkpt lat="42.37738383837949" lon="2.4796395400698343"><ele>1250.0</ele><time>2026-04-22T09:45:30Z</time></trkpt><trkpt lat="42.37746894929009" lon="2.479844543189381"><ele>1249.0</ele><time>2026-04-22T09:45:31Z</time></trkpt><trkpt lat="42.377549232885954" lon="2.480065087648394"><ele>1248.0</ele><time>2026-04-22T09:45:32Z</time></trkpt><trkpt lat="42.37763899599505" lon="2.480297932617393"><ele>1247.0</ele><time>2026-04-22T09:45:33Z</time></trkpt><trkpt lat="42.377735046581094" lon="2.480533178180356"><ele>1243.3333333333335</ele><time>2026-04-22T09:45:34Z</time></trkpt><trkpt lat="42.37780019189178" lon="2.4807698174901525"><ele>1239.6666666666667</ele><time>2026-04-22T09:45:35Z</time></trkpt><trkpt lat="42.37788092115777" lon="2.4810218350801914"><ele>1236.0</ele><time>2026-04-22T09:45:36Z</time></trkpt><trkpt lat="42.377921616844084" lon="2.4813035059389383"><ele>1233.6666666666667</ele><time>2026-04-22T09:45:37Z</time></trkpt><trkpt lat="42.377954981704484" lon="2.481595118821554"><ele>1231.3333333333335</ele><time>2026-04-22T09:45:38Z</time></trkpt><trkpt lat="42.377991576975376" lon="2.481896633500228"><ele>1229.0</ele><time>2026-04-22T09:45:39Z</time></trkpt><trkpt lat="42.378035611163845" lon="2.482201093900332"><ele>1239.0</ele><time>2026-04-22T09:45:40Z</time></trkpt><trkpt lat="42.378082257412125" lon="2.4825012281719796"><ele>1249.0</ele><time>2026-04-22T09:45:41Z</time></trkpt><trkpt lat="42.378120851445516" lon="2.482784971624333"><ele>1259.0</ele><time>2026-04-22T09:45:42Z</time></trkpt><trkpt lat="42.378148195143524" lon="2.4830450103571025"><ele>1259.0</ele><time>2026-04-22T09:45:43Z</time></trkpt><trkpt lat="42.37817648439198" lon="2.4832831917247575"><ele>1259.0</ele><time>2026-04-22T09:45:44Z</time></trkpt><trkpt lat="42.37821995045485" lon="2.483493811185108"><ele>1259.0</ele><time>2026-04-22T09:45:45Z</time></trkpt><trkpt lat="42.37829633155784" lon="2.4836789640989383"><ele>1252.0</ele><time>2026-04-22T09:45:46Z</time></trkpt><trkpt lat="42.37840996146749" lon="2.4838360710999554"><ele>1245.0</ele><time>2026-04-22T09:45:47Z</time></trkpt><trkpt lat="42.3785560955687" lon="2.4839763485108644"><ele>1238.0</ele><time>2026-04-22T09:45:48Z</time></trkpt><trkpt lat="42.37872399072919" lon="2.4841062256536834"><ele>1246.0</ele><time>2026-04-22T09:45:49Z</time></trkpt><trkpt lat="42.378882303619214" lon="2.4842525743620287"><ele>1254.0</ele><time>2026-04-22T09:45:50Z</time></trkpt><trkpt lat="42.37901596605286" lon="2.484409491904507"><ele>1262.0</ele><time>2026-04-22T09:45:51Z</time></trkpt><trkpt lat="42.379149289876764" lon="2.484562553672289"><ele>1255.0</ele><time>2026-04-22T09:45:52Z</time></trkpt><trkpt lat="42.379254622097534" lon="2.4847392814467697"><ele>1248.0</ele><time>2026-04-22T09:45:53Z</time></trkpt><trkpt lat="42.37933090312274" lon="2.484951711149981"><ele>1241.0</ele><time>2026-04-22T09:45:54Z</time></trkpt><trkpt lat="42.37938007148075" lon="2.485198046710586"><ele>1236.6666666666667</ele><time>2026-04-22T09:45:55Z</time></trkpt><trkpt lat="42.37941087561435" lon="2.485468774645751"><ele>1232.3333333333333</ele><time>2026-04-22T09:45:56Z</time></trkpt><trkpt lat="42.37944723523333" lon="2.485706028123604"><ele>1228.0</ele><time>2026-04-22T09:45:57Z</time></trkpt><trkpt lat="42.37942868450675" lon="2.485977199759998"><ele>1228.0</ele><time>2026-04-22T09:45:58Z</time></trkpt><trkpt lat="42.37938959782106" lon="2.4862588331733906"><ele>1228.0</ele><time>2026-04-22T09:45:59Z</time></trkpt><trkpt lat="42.37936374249857" lon="2.486552252519275"><ele>1228.0</ele><time>2026-04-22T09:46:00Z</time></trkpt><trkpt lat="42.379354012394145" lon="2.4868553957510775"><ele>1230.3333333333333</ele><time>2026-04-22T09:46:01Z</time></trkpt><trkpt lat="42.37935208720545" lon="2.487153770656629"><ele>1232.6666666666667</ele><time>2026-04-22T09:46:02Z</time></trkpt><trkpt lat="42.37933967143143" lon="2.4874281566014536"><ele>1235.0</ele><time>2026-04-22T09:46:03Z</time></trkpt><trkpt lat="42.37933746230893" lon="2.487679500566739"><ele>1235.0</ele><time>2026-04-22T09:46:04Z</time></trkpt><trkpt lat="42.37935669254901" lon="2.4879031575202606"><ele>1235.0</ele><time>2026-04-22T09:46:05Z</time></trkpt><trkpt lat="42.379401875876084" lon="2.48812067643908"><ele>1235.0</ele><time>2026-04-22T09:46:06Z</time></trkpt><trkpt lat="42.3794805603812" lon="2.4883109467590505"><ele>1232.3333333333335</ele><time>2026-04-22T09:46:07Z</time></trkpt><trkpt lat="42.3795935271383" lon="2.488455765402916"><ele>1229.6666666666667</ele><time>2026-04-22T09:46:08Z</time></trkpt><trkpt lat="42.37972918156954" lon="2.4885621174959733"><ele>1227.0</ele><time>2026-04-22T09:46:09Z</time></trkpt><trkpt lat="42.379866569525326" lon="2.4886577773004364"><ele>1229.25</ele><time>2026-04-22T09:46:10Z</time></trkpt><trkpt lat="42.38000748851925" lon="2.488714762154063"><ele>1231.5</ele><time>2026-04-22T09:46:11Z</time></trkpt><trkpt lat="42.38011387784744" lon="2.4888350207172643"><ele>1233.75</ele><time>2026-04-22T09:46:12.001Z</time></trkpt><trkpt lat="42.38016684947469" lon="2.4890057919214397"><ele>1236.0</ele><time>2026-04-22T09:46:13.001Z</time></trkpt><trkpt lat="42.380182943466075" lon="2.4892054481102313"><ele>1236.0</ele><time>2026-04-22T09:46:14.001Z</time></trkpt><trkpt lat="42.38016771554521" lon="2.4894421224728007"><ele>1236.0</ele><time>2026-04-22T09:46:15.001Z</time></trkpt><trkpt lat="42.38015166426929" lon="2.489692239010408"><ele>1236.0</ele><time>2026-04-22T09:46:16.001Z</time></trkpt><trkpt lat="42.38014017588419" lon="2.4899594053807403"><ele>1232.0</ele><time>2026-04-22T09:46:17.001Z</time></trkpt><trkpt lat="42.38014214058748" lon="2.490246665862128"><ele>1228.0</ele><time>2026-04-22T09:46:18.001Z</time></trkpt><trkpt lat="42.38014593149448" lon="2.4905338791266507"><ele>1224.0</ele><time>2026-04-22T09:46:19.001Z</time></trkpt><trkpt lat="42.38013480261336" lon="2.4908017339244437"><ele>1222.3333333333333</ele><time>2026-04-22T09:46:20.001Z</time></trkpt><trkpt lat="42.38010222689802" lon="2.491060200370877"><ele>1220.6666666666665</ele><time>2026-04-22T09:46:21.001Z</time></trkpt><trkpt lat="42.38007250006967" lon="2.491308801116229"><ele>1219.0</ele><time>2026-04-22T09:46:22.001Z</time></trkpt><trkpt lat="42.380074330656306" lon="2.4915737599395866"><ele>1219.0</ele><time>2026-04-22T09:46:23.001Z</time></trkpt><trkpt lat="42.38010424708647" lon="2.4918463070401393"><ele>1219.0</ele><time>2026-04-22T09:46:24.001Z</time></trkpt><trkpt lat="42.380139786179974" lon="2.4921035476026834"><ele>1219.0</ele><time>2026-04-22T09:46:25.001Z</time></trkpt><trkpt lat="42.38015219325668" lon="2.492357368613786"><ele>1218.6666666666665</ele><time>2026-04-22T09:46:26.001Z</time></trkpt><trkpt lat="42.380126396364695" lon="2.4925983396785685"><ele>1218.3333333333333</ele><time>2026-04-22T09:46:27.001Z</time></trkpt><trkpt lat="42.3800827890412" lon="2.4928164252368576"><ele>1218.0</ele><time>2026-04-22T09:46:28.001Z</time></trkpt><trkpt lat="42.380006722470725" lon="2.493013799498213"><ele>1217.6666666666667</ele><time>2026-04-22T09:46:29.001Z</time></trkpt><trkpt lat="42.3798972070133" lon="2.49318610777847"><ele>1217.3333333333335</ele><time>2026-04-22T09:46:30.001Z</time></trkpt><trkpt lat="42.3797666053143" lon="2.4933383018799993"><ele>1217.0</ele><time>2026-04-22T09:46:31.001Z</time></trkpt><trkpt lat="42.37962751136838" lon="2.493469817765414"><ele>1214.0</ele><time>2026-04-22T09:46:32.001Z</time></trkpt><trkpt lat="42.37950349060174" lon="2.493603945119409"><ele>1211.0</ele><time>2026-04-22T09:46:33.001Z</time></trkpt><trkpt lat="42.37940529266953" lon="2.4937562879643322"><ele>1208.0</ele><time>2026-04-22T09:46:34.001Z</time></trkpt><trkpt lat="42.37933415241696" lon="2.4939345049866435"><ele>1208.0</ele><time>2026-04-22T09:46:35.001Z</time></trkpt><trkpt lat="42.37929469253805" lon="2.4941154250268296"><ele>1208.0</ele><time>2026-04-22T09:46:36.001Z</time></trkpt><trkpt lat="42.37930616706347" lon="2.494300169069795"><ele>1208.0</ele><time>2026-04-22T09:46:37.001Z</time></trkpt><trkpt lat="42.379352539413006" lon="2.4944753653734786"><ele>1208.0</ele><time>2026-04-22T09:46:38.001Z</time></trkpt><trkpt lat="42.379431717893624" lon="2.494670591894968"><ele>1201.3333333333335</ele><time>2026-04-22T09:46:39.001Z</time></trkpt><trkpt lat="42.37951374156066" lon="2.494901433239042"><ele>1194.6666666666667</ele><time>2026-04-22T09:46:40.001Z</time></trkpt><trkpt lat="42.37959086131792" lon="2.495155868669193"><ele>1188.0</ele><time>2026-04-22T09:46:41.001Z</time></trkpt><trkpt lat="42.379669252875814" lon="2.495412650827371"><ele>1192.0</ele><time>2026-04-22T09:46:42.001Z</time></trkpt><trkpt lat="42.37974478525975" lon="2.495659410612628"><ele>1196.0</ele><time>2026-04-22T09:46:43.001Z</time></trkpt><trkpt lat="42.37981729867477" lon="2.4958948962338052"><ele>1200.0</ele><time>2026-04-22T09:46:44.001Z</time></trkpt><trkpt lat="42.37988555397052" lon="2.4961240072398176"><ele>1197.0</ele><time>2026-04-22T09:46:45Z</time></trkpt><trkpt lat="42.37996014444682" lon="2.4963564078231073"><ele>1194.0</ele><time>2026-04-22T09:46:46Z</time></trkpt><trkpt lat="42.38005658125087" lon="2.496565572007764"><ele>1191.0</ele><time>2026-04-22T09:46:47Z</time></trkpt><trkpt lat="42.38018926460349" lon="2.496777091488691"><ele>1191.0</ele><time>2026-04-22T09:46:48Z</time></trkpt><trkpt lat="42.38034367852491" lon="2.496970178837352"><ele>1191.0</ele><time>2026-04-22T09:46:49Z</time></trkpt><trkpt lat="42.38051920981519" lon="2.497158614415652"><ele>1191.0</ele><time>2026-04-22T09:46:50Z</time></trkpt><trkpt lat="42.38070180813449" lon="2.497352045731503"><ele>1192.3333333333333</ele><time>2026-04-22T09:46:51Z</time></trkpt><trkpt lat="42.38087922950059" lon="2.4975525111429913"><ele>1193.6666666666665</ele><time>2026-04-22T09:46:52Z</time></trkpt><trkpt lat="42.38104230090845" lon="2.4977360039069976"><ele>1195.0</ele><time>2026-04-22T09:46:53Z</time></trkpt><trkpt lat="42.38120394937235" lon="2.4979310871567364"><ele>1194.0</ele><time>2026-04-22T09:46:54Z</time></trkpt><trkpt lat="42.381367406736906" lon="2.498127362890281"><ele>1193.0</ele><time>2026-04-22T09:46:55Z</time></trkpt><trkpt lat="42.381541634146416" lon="2.4983189646294184"><ele>1192.0</ele><time>2026-04-22T09:46:56Z</time></trkpt><trkpt lat="42.381729081607396" lon="2.498499506509708"><ele>1192.0</ele><time>2026-04-22T09:46:57Z</time></trkpt><trkpt lat="42.381925483035666" lon="2.49867036540353"><ele>1192.0</ele><time>2026-04-22T09:46:58Z</time></trkpt><trkpt lat="42.38212932586599" lon="2.498825137895592"><ele>1193.0</ele><time>2026-04-22T09:46:59Z</time></trkpt><trkpt lat="42.3823223076696" lon="2.4989685720301704"><ele>1194.0</ele><time>2026-04-22T09:47:00Z</time></trkpt><trkpt lat="42.38249081969037" lon="2.4991221808375803"><ele>1195.0</ele><time>2026-04-22T09:47:01Z</time></trkpt><trkpt lat="42.38266361713865" lon="2.4992555750917953"><ele>1195.0</ele><time>2026-04-22T09:47:02Z</time></trkpt><trkpt lat="42.382830523810235" lon="2.4993845697600134"><ele>1195.0</ele><time>2026-04-22T09:47:03Z</time></trkpt><trkpt lat="42.382998001795215" lon="2.4995158987293986"><ele>1195.0</ele><time>2026-04-22T09:47:04Z</time></trkpt><trkpt lat="42.38314559167675" lon="2.499643171956128"><ele>1193.6666666666665</ele><time>2026-04-22T09:47:05Z</time></trkpt><trkpt lat="42.383274080637314" lon="2.499792675239125"><ele>1192.3333333333333</ele><time>2026-04-22T09:47:06Z</time></trkpt><trkpt lat="42.383378456951995" lon="2.499977426552001"><ele>1191.0</ele><time>2026-04-22T09:47:07Z</time></trkpt><trkpt lat="42.38347007501484" lon="2.5002017144253155"><ele>1193.3333333333333</ele><time>2026-04-22T09:47:08Z</time></trkpt><trkpt lat="42.383565841837864" lon="2.5004290469989168"><ele>1195.6666666666665</ele><time>2026-04-22T09:47:09Z</time></trkpt><trkpt lat="42.383651683519" lon="2.5006799890044853"><ele>1198.0</ele><time>2026-04-22T09:47:10Z</time></trkpt><trkpt lat="42.38374877865381" lon="2.5009087296001797"><ele>1198.0</ele><time>2026-04-22T09:47:11Z</time></trkpt><trkpt lat="42.38383563559001" lon="2.50111275147163"><ele>1198.0</ele><time>2026-04-22T09:47:12Z</time></trkpt><trkpt lat="42.38389551926448" lon="2.5012993521960656"><ele>1198.0</ele><time>2026-04-22T09:47:13Z</time></trkpt><trkpt lat="42.38392258803081" lon="2.501483279187518"><ele>1196.5</ele><time>2026-04-22T09:47:14Z</time></trkpt><trkpt lat="42.38390938785573" lon="2.501667306078081"><ele>1195.0</ele><time>2026-04-22T09:47:15Z</time></trkpt><trkpt lat="42.38385460019006" lon="2.501852270358366"><ele>1193.5</ele><time>2026-04-22T09:47:16Z</time></trkpt><trkpt lat="42.38378786424685" lon="2.502046193393143"><ele>1192.0</ele><time>2026-04-22T09:47:17Z</time></trkpt><trkpt lat="42.383752195598056" lon="2.5022233323627607"><ele>1189.75</ele><time>2026-04-22T09:47:18Z</time></trkpt><trkpt lat="42.38375741732024" lon="2.5023987535018897"><ele>1187.5</ele><time>2026-04-22T09:47:19Z</time></trkpt><trkpt lat="42.383817936448466" lon="2.502555327475604"><ele>1185.25</ele><time>2026-04-22T09:47:20Z</time></trkpt><trkpt lat="42.38390227724279" lon="2.502685107215253"><ele>1183.0</ele><time>2026-04-22T09:47:21Z</time></trkpt><trkpt lat="42.384015213101335" lon="2.502753914964581"><ele>1183.0</ele><time>2026-04-22T09:47:22Z</time></trkpt><trkpt lat="42.38414041113916" lon="2.5027789624003467"><ele>1183.0</ele><time>2026-04-22T09:47:23Z</time></trkpt><trkpt lat="42.38426642757146" lon="2.5027431299267344"><ele>1183.0</ele><time>2026-04-22T09:47:24Z</time></trkpt><trkpt lat="42.38437679270542" lon="2.502661917576332"><ele>1183.0</ele><time>2026-04-22T09:47:25Z</time></trkpt><trkpt lat="42.38446635143698" lon="2.5025378910669245"><ele>1183.0</ele><time>2026-04-22T09:47:26Z</time></trkpt><trkpt lat="42.38450975078685" lon="2.5023708791987804"><ele>1183.0</ele><time>2026-04-22T09:47:27Z</time></trkpt><trkpt lat="42.38451694182643" lon="2.502194947050951"><ele>1183.0</ele><time>2026-04-22T09:47:28Z</time></trkpt><trkpt lat="42.38446654868257" lon="2.5020290043648035"><ele>1183.0</ele><time>2026-04-22T09:47:29Z</time></trkpt><trkpt lat="42.384381732396065" lon="2.501861503458601"><ele>1184.0</ele><time>2026-04-22T09:47:30Z</time></trkpt><trkpt lat="42.38426983736658" lon="2.5016958625469736"><ele>1185.0</ele><time>2026-04-22T09:47:31Z</time></trkpt><trkpt lat="42.384174987651825" lon="2.501531466134894"><ele>1186.0</ele><time>2026-04-22T09:47:32Z</time></trkpt><trkpt lat="42.3841318068923" lon="2.5013305276811324"><ele>1183.6666666666665</ele><time>2026-04-22T09:47:33Z</time></trkpt><trkpt lat="42.38409772719494" lon="2.50109097031827"><ele>1181.3333333333333</ele><time>2026-04-22T09:47:34Z</time></trkpt><trkpt lat="42.38404236443005" lon="2.5008433350073846"><ele>1179.0</ele><time>2026-04-22T09:47:35Z</time></trkpt><trkpt lat="42.383998841661395" lon="2.5005865356504056"><ele>1176.6666666666667</ele><time>2026-04-22T09:47:36Z</time></trkpt><trkpt lat="42.383946875411304" lon="2.500351681139482"><ele>1174.3333333333335</ele><time>2026-04-22T09:47:37Z</time></trkpt><trkpt lat="42.3839263067013" lon="2.500116778736326"><ele>1172.0</ele><time>2026-04-22T09:47:38Z</time></trkpt><trkpt lat="42.383940892181506" lon="2.4998896916291806"><ele>1172.0</ele><time>2026-04-22T09:47:39Z</time></trkpt><trkpt lat="42.38398854451001" lon="2.499678193741987"><ele>1172.0</ele><time>2026-04-22T09:47:40Z</time></trkpt><trkpt lat="42.38404592373962" lon="2.4995054582990646"><ele>1172.0</ele><time>2026-04-22T09:47:41Z</time></trkpt><trkpt lat="42.38406610314545" lon="2.4993529097433536"><ele>1172.0</ele><time>2026-04-22T09:47:42Z</time></trkpt><trkpt lat="42.384057191849415" lon="2.499209305795305"><ele>1173.5</ele><time>2026-04-22T09:47:43Z</time></trkpt><trkpt lat="42.38399873668827" lon="2.4990939466883217"><ele>1175.0</ele><time>2026-04-22T09:47:44Z</time></trkpt><trkpt lat="42.383894638209966" lon="2.4990010210329365"><ele>1176.5</ele><time>2026-04-22T09:47:45Z</time></trkpt><trkpt lat="42.383754032911504" lon="2.4989419000480617"><ele>1178.0</ele><time>2026-04-22T09:47:46Z</time></trkpt><trkpt lat="42.38359316247362" lon="2.4989021174094286"><ele>1178.0</ele><time>2026-04-22T09:47:47Z</time></trkpt><trkpt lat="42.38342287670123" lon="2.49886540996246"><ele>1178.0</ele><time>2026-04-22T09:47:48Z</time></trkpt><trkpt lat="42.383262372527234" lon="2.4988104438721885"><ele>1178.0</ele><time>2026-04-22T09:47:49Z</time></trkpt><trkpt lat="42.38310898141425" lon="2.4987135817007773"><ele>1177.0</ele><time>2026-04-22T09:47:50Z</time></trkpt><trkpt lat="42.38296856449748" lon="2.498549991077486"><ele>1176.0</ele><time>2026-04-22T09:47:51Z</time></trkpt><trkpt lat="42.382834706880736" lon="2.4983413206287532"><ele>1175.0</ele><time>2026-04-22T09:47:52Z</time></trkpt><trkpt lat="42.382669245860434" lon="2.4981651418634967"><ele>1175.0</ele><time>2026-04-22T09:47:53Z</time></trkpt><trkpt lat="42.38250488107721" lon="2.4979793288458154"><ele>1175.0</ele><time>2026-04-22T09:47:54Z</time></trkpt><trkpt lat="42.382340435060364" lon="2.497800435363349"><ele>1175.0</ele><time>2026-04-22T09:47:55Z</time></trkpt><trkpt lat="42.382179149969595" lon="2.4976258058795633"><ele>1175.0</ele><time>2026-04-22T09:47:56Z</time></trkpt><trkpt lat="42.382037249079296" lon="2.497435628552713"><ele>1175.0</ele><time>2026-04-22T09:47:57Z</time></trkpt><trkpt lat="42.38191240827081" lon="2.497233514007089"><ele>1175.0</ele><time>2026-04-22T09:47:58Z</time></trkpt><trkpt lat="42.38179787985968" lon="2.4970370575628347"><ele>1170.5</ele><time>2026-04-22T09:47:59Z</time></trkpt><trkpt lat="42.381696796916586" lon="2.496864918980912"><ele>1166.0</ele><time>2026-04-22T09:48:00Z</time></trkpt><trkpt lat="42.38160647268262" lon="2.496715143315861"><ele>1161.5</ele><time>2026-04-22T09:48:01Z</time></trkpt><trkpt lat="42.381531539242296" lon="2.496566914360506"><ele>1157.0</ele><time>2026-04-22T09:48:02Z</time></trkpt><trkpt lat="42.38148306616244" lon="2.4963968416647107"><ele>1157.25</ele><time>2026-04-22T09:48:03Z</time></trkpt><trkpt lat="42.381482065251426" lon="2.496222184816395"><ele>1157.5</ele><time>2026-04-22T09:48:04Z</time></trkpt><trkpt lat="42.38152470081663" lon="2.496066353584271"><ele>1157.75</ele><time>2026-04-22T09:48:05Z</time></trkpt><trkpt lat="42.381612874076595" lon="2.4959342470322783"><ele>1158.0</ele><time>2026-04-22T09:48:06Z</time></trkpt><trkpt lat="42.3817232751403" lon="2.4958556232304723"><ele>1158.0</ele><time>2026-04-22T09:48:07Z</time></trkpt><trkpt lat="42.38184981728067" lon="2.4958488278909323"><ele>1158.0</ele><time>2026-04-22T09:48:08Z</time></trkpt><trkpt lat="42.381994309861014" lon="2.495902124318798"><ele>1158.0</ele><time>2026-04-22T09:48:09Z</time></trkpt><trkpt lat="42.38214605426673" lon="2.4960049521467615"><ele>1158.0</ele><time>2026-04-22T09:48:10Z</time></trkpt><trkpt lat="42.38229481931276" lon="2.496117414132858"><ele>1157.6666666666667</ele><time>2026-04-22T09:48:11Z</time></trkpt><trkpt lat="42.38245292844554" lon="2.4962085678454944"><ele>1157.3333333333335</ele><time>2026-04-22T09:48:12Z</time></trkpt><trkpt lat="42.38263684253575" lon="2.496278062495962"><ele>1157.0</ele><time>2026-04-22T09:48:13Z</time></trkpt><trkpt lat="42.38283214992482" lon="2.49632218527218"><ele>1148.0</ele><time>2026-04-22T09:48:14Z</time></trkpt><trkpt lat="42.38302657510229" lon="2.496348028506333"><ele>1139.0</ele><time>2026-04-22T09:48:15Z</time></trkpt><trkpt lat="42.38319601972986" lon="2.496356393475614"><ele>1130.0</ele><time>2026-04-22T09:48:16Z</time></trkpt><trkpt lat="42.383362153613405" lon="2.496342633188056"><ele>1130.0</ele><time>2026-04-22T09:48:17Z</time></trkpt><trkpt lat="42.38351173102582" lon="2.4963020136369924"><ele>1130.0</ele><time>2026-04-22T09:48:18.001Z</time></trkpt><trkpt lat="42.383648403257354" lon="2.4962180914305243"><ele>1130.0</ele><time>2026-04-22T09:48:19.001Z</time></trkpt><trkpt lat="42.38377182466835" lon="2.496100273568431"><ele>1129.75</ele><time>2026-04-22T09:48:20.001Z</time></trkpt><trkpt lat="42.383879229147006" lon="2.4959548152217206"><ele>1129.5</ele><time>2026-04-22T09:48:21.001Z</time></trkpt><trkpt lat="42.383968685251034" lon="2.495795627446083"><ele>1129.25</ele><time>2026-04-22T09:48:22.001Z</time></trkpt><trkpt lat="42.3840579026682" lon="2.4956606767157257"><ele>1129.0</ele><time>2026-04-22T09:48:23.001Z</time></trkpt><trkpt lat="42.38416077878944" lon="2.495556973049063"><ele>1129.0</ele><time>2026-04-22T09:48:24.001Z</time></trkpt><trkpt lat="42.38427611083795" lon="2.4954976830157385"><ele>1129.0</ele><time>2026-04-22T09:48:25.001Z</time></trkpt><trkpt lat="42.38439320984181" lon="2.4955011010850603"><ele>1129.0</ele><time>2026-04-22T09:48:26.001Z</time></trkpt><trkpt lat="42.38449409096955" lon="2.495627725578627"><ele>1129.0</ele><time>2026-04-22T09:48:27.001Z</time></trkpt><trkpt lat="42.384565215544725" lon="2.495785168644767"><ele>1129.0</ele><time>2026-04-22T09:48:28.001Z</time></trkpt><trkpt lat="42.38465850659469" lon="2.4959515284650693"><ele>1129.0</ele><time>2026-04-22T09:48:29.001Z</time></trkpt><trkpt lat="42.38474493949987" lon="2.496084336999484"><ele>1129.0</ele><time>2026-04-22T09:48:30.001Z</time></trkpt><trkpt lat="42.3848423584493" lon="2.496211005371283"><ele>1129.0</ele><time>2026-04-22T09:48:31.001Z</time></trkpt><trkpt lat="42.38496531202607" lon="2.4962888022884258"><ele>1128.0</ele><time>2026-04-22T09:48:32.001Z</time></trkpt><trkpt lat="42.38510677867916" lon="2.4963116753789807"><ele>1127.0</ele><time>2026-04-22T09:48:33.001Z</time></trkpt><trkpt lat="42.385254938850856" lon="2.49628424693851"><ele>1126.0</ele><time>2026-04-22T09:48:34.001Z</time></trkpt><trkpt lat="42.385405524372295" lon="2.4961878543932765"><ele>1122.6666666666665</ele><time>2026-04-22T09:48:35.001Z</time></trkpt><trkpt lat="42.38555620321604" lon="2.4960760430540514"><ele>1119.3333333333333</ele><time>2026-04-22T09:48:36.001Z</time></trkpt><trkpt lat="42.385710201930785" lon="2.4959470517223314"><ele>1116.0</ele><time>2026-04-22T09:48:37.001Z</time></trkpt><trkpt lat="42.38586157147629" lon="2.495856229018602"><ele>1116.0</ele><time>2026-04-22T09:48:38.001Z</time></trkpt><trkpt lat="42.38598837505812" lon="2.4957752544370884"><ele>1116.0</ele><time>2026-04-22T09:48:39.001Z</time></trkpt><trkpt lat="42.38610665933188" lon="2.49572923685671"><ele>1116.0</ele><time>2026-04-22T09:48:40.001Z</time></trkpt><trkpt lat="42.38622590527051" lon="2.495707847524136"><ele>1116.0</ele><time>2026-04-22T09:48:41.001Z</time></trkpt><trkpt lat="42.3863188003089" lon="2.4958520021469908"><ele>1112.0</ele><time>2026-04-22T09:48:42.001Z</time></trkpt><trkpt lat="42.38645120218182" lon="2.495977286196363"><ele>1108.0</ele><time>2026-04-22T09:48:43.001Z</time></trkpt><trkpt lat="42.38658888021808" lon="2.496096290162754"><ele>1104.0</ele><time>2026-04-22T09:48:44.001Z</time></trkpt><trkpt lat="42.38670727031428" lon="2.496207719112124"><ele>1099.0</ele><time>2026-04-22T09:48:45.001Z</time></trkpt><trkpt lat="42.38681860854435" lon="2.4962991311804394"><ele>1094.0</ele><time>2026-04-22T09:48:46.001Z</time></trkpt><trkpt lat="42.38693432742708" lon="2.4963504639977803"><ele>1089.0</ele><time>2026-04-22T09:48:47.001Z</time></trkpt><trkpt lat="42.387059220626185" lon="2.496357753767"><ele>1084.0</ele><time>2026-04-22T09:48:48.001Z</time></trkpt><trkpt lat="42.38717572930957" lon="2.496283095765532"><ele>1086.25</ele><time>2026-04-22T09:48:49.001Z</time></trkpt><trkpt lat="42.38728451139777" lon="2.4961828442856175"><ele>1088.5</ele><time>2026-04-22T09:48:50.001Z</time></trkpt><trkpt lat="42.38738263997216" lon="2.4960398023984434"><ele>1090.75</ele><time>2026-04-22T09:48:51.001Z</time></trkpt><trkpt lat="42.38747707007751" lon="2.4958605389679116"><ele>1093.0</ele><time>2026-04-22T09:48:52.001Z</time></trkpt><trkpt lat="42.38757069072094" lon="2.4956636876138187"><ele>1093.0</ele><time>2026-04-22T09:48:53.001Z</time></trkpt><trkpt lat="42.38767969874644" lon="2.4954717292127286"><ele>1093.0</ele><time>2026-04-22T09:48:54.001Z</time></trkpt><trkpt lat="42.387797348994646" lon="2.4952798435299637"><ele>1093.0</ele><time>2026-04-22T09:48:55Z</time></trkpt><trkpt lat="42.387913109427444" lon="2.495073616371109"><ele>1089.3333333333333</ele><time>2026-04-22T09:48:56Z</time></trkpt><trkpt lat="42.38802766413044" lon="2.4948625914543947"><ele>1085.6666666666667</ele><time>2026-04-22T09:48:57Z</time></trkpt><trkpt lat="42.38814523090896" lon="2.4946536190833504"><ele>1082.0</ele><time>2026-04-22T09:48:58Z</time></trkpt><trkpt lat="42.388262558444595" lon="2.494441731627282"><ele>1082.0</ele><time>2026-04-22T09:48:59Z</time></trkpt><trkpt lat="42.38838573922722" lon="2.494234229133054"><ele>1082.0</ele><time>2026-04-22T09:49:00Z</time></trkpt><trkpt lat="42.388514974364355" lon="2.494014437165014"><ele>1082.0</ele><time>2026-04-22T09:49:01Z</time></trkpt><trkpt lat="42.38862953889549" lon="2.4938127906295193"><ele>1086.6666666666667</ele><time>2026-04-22T09:49:02Z</time></trkpt><trkpt lat="42.38873756378444" lon="2.493625173202893"><ele>1091.3333333333333</ele><time>2026-04-22T09:49:03Z</time></trkpt><trkpt lat="42.38884634746048" lon="2.4934693333256877"><ele>1096.0</ele><time>2026-04-22T09:49:04Z</time></trkpt><trkpt lat="42.388996692128195" lon="2.493371735038675"><ele>1086.3333333333333</ele><time>2026-04-22T09:49:05Z</time></trkpt><trkpt lat="42.38916996701361" lon="2.493242388914667"><ele>1076.6666666666667</ele><time>2026-04-22T09:49:06Z</time></trkpt><trkpt lat="42.38934605233408" lon="2.493145592654675"><ele>1067.0</ele><time>2026-04-22T09:49:07Z</time></trkpt><trkpt lat="42.38951768291781" lon="2.4930401604913186"><ele>1066.6666666666667</ele><time>2026-04-22T09:49:08Z</time></trkpt><trkpt lat="42.38969113076176" lon="2.4929274276717934"><ele>1066.3333333333333</ele><time>2026-04-22T09:49:09Z</time></trkpt><trkpt lat="42.38985937986172" lon="2.4928227779593093"><ele>1066.0</ele><time>2026-04-22T09:49:10Z</time></trkpt><trkpt lat="42.390036298674225" lon="2.4927368114308552"><ele>1066.0</ele><time>2026-04-22T09:49:11Z</time></trkpt><trkpt lat="42.39022166080708" lon="2.492663229680897"><ele>1066.0</ele><time>2026-04-22T09:49:12Z</time></trkpt><trkpt lat="42.39040704869306" lon="2.492604320092941"><ele>1066.0</ele><time>2026-04-22T09:49:13Z</time></trkpt><trkpt lat="42.39058646442656" lon="2.492551398429377"><ele>1061.3333333333333</ele><time>2026-04-22T09:49:14Z</time></trkpt><trkpt lat="42.39076725539822" lon="2.4924848586840396"><ele>1056.6666666666667</ele><time>2026-04-22T09:49:15Z</time></trkpt><trkpt lat="42.390946371550136" lon="2.4924414315902608"><ele>1052.0</ele><time>2026-04-22T09:49:16Z</time></trkpt><trkpt lat="42.391121131883615" lon="2.492388518430798"><ele>1052.0</ele><time>2026-04-22T09:49:17Z</time></trkpt><trkpt lat="42.391296977629054" lon="2.4923714119074543"><ele>1052.0</ele><time>2026-04-22T09:49:18Z</time></trkpt><trkpt lat="42.39147723273429" lon="2.492409371647961"><ele>1052.0</ele><time>2026-04-22T09:49:19Z</time></trkpt><trkpt lat="42.391667191855134" lon="2.4924543451302266"><ele>1049.3333333333335</ele><time>2026-04-22T09:49:20Z</time></trkpt><trkpt lat="42.391850190777255" lon="2.492491367505518"><ele>1046.6666666666667</ele><time>2026-04-22T09:49:21Z</time></trkpt><trkpt lat="42.39203186258275" lon="2.4925399816513405"><ele>1044.0</ele><time>2026-04-22T09:49:22Z</time></trkpt><trkpt lat="42.39219141995992" lon="2.492577311817405"><ele>1042.0</ele><time>2026-04-22T09:49:23Z</time></trkpt><trkpt lat="42.39233838587443" lon="2.4926178217828863"><ele>1040.0</ele><time>2026-04-22T09:49:24Z</time></trkpt><trkpt lat="42.392489537959236" lon="2.492638969643283"><ele>1038.0</ele><time>2026-04-22T09:49:25Z</time></trkpt><trkpt lat="42.39264273957476" lon="2.492620100440588"><ele>1038.0</ele><time>2026-04-22T09:49:26Z</time></trkpt><trkpt lat="42.392794117165685" lon="2.4925517582698578"><ele>1038.0</ele><time>2026-04-22T09:49:27Z</time></trkpt><trkpt lat="42.39295323874413" lon="2.4924437914227275"><ele>1038.0</ele><time>2026-04-22T09:49:28Z</time></trkpt><trkpt lat="42.39313750322914" lon="2.4922808807448815"><ele>1037.3333333333333</ele><time>2026-04-22T09:49:29Z</time></trkpt><trkpt lat="42.393322347067546" lon="2.492137921682025"><ele>1036.6666666666665</ele><time>2026-04-22T09:49:30Z</time></trkpt><trkpt lat="42.39350605384259" lon="2.4920041414930387"><ele>1036.0</ele><time>2026-04-22T09:49:31Z</time></trkpt><trkpt lat="42.3936823197233" lon="2.491878049013717"><ele>1028.0</ele><time>2026-04-22T09:49:32Z</time></trkpt><trkpt lat="42.39386661170232" lon="2.4917634672750895"><ele>1020.0</ele><time>2026-04-22T09:49:33Z</time></trkpt><trkpt lat="42.394047558140095" lon="2.491649874984049"><ele>1012.0</ele><time>2026-04-22T09:49:34Z</time></trkpt><trkpt lat="42.394219384942524" lon="2.4915309527506833"><ele>1012.0</ele><time>2026-04-22T09:49:35Z</time></trkpt><trkpt lat="42.394371548179855" lon="2.491394608847639"><ele>1012.0</ele><time>2026-04-22T09:49:36Z</time></trkpt><trkpt lat="42.394535782511696" lon="2.491235029858659"><ele>1012.0</ele><time>2026-04-22T09:49:37Z</time></trkpt><trkpt lat="42.394682250780185" lon="2.491051650103528"><ele>1009.6666666666666</ele><time>2026-04-22T09:49:38Z</time></trkpt><trkpt lat="42.394805965844256" lon="2.490855312088641"><ele>1007.3333333333333</ele><time>2026-04-22T09:49:39Z</time></trkpt><trkpt lat="42.39491399084205" lon="2.490643320941658"><ele>1005.0</ele><time>2026-04-22T09:49:40Z</time></trkpt><trkpt lat="42.394991474052" lon="2.490410321997582"><ele>1005.0</ele><time>2026-04-22T09:49:41Z</time></trkpt><trkpt lat="42.39506256759322" lon="2.490168149406216"><ele>1005.0</ele><time>2026-04-22T09:49:42Z</time></trkpt><trkpt lat="42.395121272596725" lon="2.489909151702044"><ele>1005.0</ele><time>2026-04-22T09:49:43Z</time></trkpt><trkpt lat="42.3951588810282" lon="2.4896353370095636"><ele>1005.6666666666667</ele><time>2026-04-22T09:49:44Z</time></trkpt><trkpt lat="42.395160085036004" lon="2.4893641044357486"><ele>1006.3333333333334</ele><time>2026-04-22T09:49:45Z</time></trkpt><trkpt lat="42.39515654689564" lon="2.4891069400548336"><ele>1007.0</ele><time>2026-04-22T09:49:46Z</time></trkpt><trkpt lat="42.39514887379096" lon="2.4889126343773453"><ele>1006.2</ele><time>2026-04-22T09:49:47Z</time></trkpt><trkpt lat="42.395187778498155" lon="2.488756661802935"><ele>1005.4000000000001</ele><time>2026-04-22T09:49:48Z</time></trkpt><trkpt lat="42.39521907928111" lon="2.4886393426846443"><ele>1004.5999999999999</ele><time>2026-04-22T09:49:49Z</time></trkpt><trkpt lat="42.39533028781833" lon="2.488584688688652"><ele>1003.8</ele><time>2026-04-22T09:49:50Z</time></trkpt><trkpt lat="42.39543784891806" lon="2.488588471491655"><ele>1003.0</ele><time>2026-04-22T09:49:51Z</time></trkpt><trkpt lat="42.395528837261566" lon="2.488667114688576"><ele>1004.0</ele><time>2026-04-22T09:49:52Z</time></trkpt><trkpt lat="42.39559519758001" lon="2.488816852740008"><ele>1005.0</ele><time>2026-04-22T09:49:53Z</time></trkpt><trkpt lat="42.39557234805395" lon="2.4889994752905054"><ele>1006.0</ele><time>2026-04-22T09:49:54Z</time></trkpt><trkpt lat="42.395526065598155" lon="2.4891869643954627"><ele>1007.0</ele><time>2026-04-22T09:49:55Z</time></trkpt><trkpt lat="42.39549047624828" lon="2.4894267362574674"><ele>1006.3333333333334</ele><time>2026-04-22T09:49:56Z</time></trkpt><trkpt lat="42.3954546116058" lon="2.489646161594488"><ele>1005.6666666666667</ele><time>2026-04-22T09:49:57Z</time></trkpt><trkpt lat="42.39544926587827" lon="2.489896528544575"><ele>1005.0</ele><time>2026-04-22T09:49:58Z</time></trkpt><trkpt lat="42.39545347037439" lon="2.490126741869458"><ele>1005.0</ele><time>2026-04-22T09:49:59Z</time></trkpt><trkpt lat="42.395458278475935" lon="2.4903539137918735"><ele>1005.0</ele><time>2026-04-22T09:50:00Z</time></trkpt><trkpt lat="42.39546213383764" lon="2.490585737839254"><ele>1005.0</ele><time>2026-04-22T09:50:01Z</time></trkpt><trkpt lat="42.39546519220963" lon="2.49082056761981"><ele>1004.0</ele><time>2026-04-22T09:50:02Z</time></trkpt><trkpt lat="42.39548231323534" lon="2.4910606681612726"><ele>1003.0</ele><time>2026-04-22T09:50:03Z</time></trkpt><trkpt lat="42.39543563795044" lon="2.491280873020007"><ele>1002.0</ele><time>2026-04-22T09:50:04Z</time></trkpt><trkpt lat="42.39539550685161" lon="2.491500963566849"><ele>999.0</ele><time>2026-04-22T09:50:05Z</time></trkpt><trkpt lat="42.395321627383886" lon="2.491688522674377"><ele>996.0</ele><time>2026-04-22T09:50:06Z</time></trkpt><trkpt lat="42.395250783735385" lon="2.4918542329629236"><ele>993.0</ele><time>2026-04-22T09:50:07Z</time></trkpt><trkpt lat="42.395203278496055" lon="2.491994286606313"><ele>990.0</ele><time>2026-04-22T09:50:08Z</time></trkpt><trkpt lat="42.39518872473617" lon="2.4921431038905153"><ele>986.2</ele><time>2026-04-22T09:50:09Z</time></trkpt><trkpt lat="42.39523652703044" lon="2.4922720284988533"><ele>982.4</ele><time>2026-04-22T09:50:10Z</time></trkpt><trkpt lat="42.395313747926416" lon="2.4923715169851297"><ele>978.5999999999999</ele><time>2026-04-22T09:50:11Z</time></trkpt><trkpt lat="42.39542828458468" lon="2.492417510185544"><ele>974.8</ele><time>2026-04-22T09:50:12Z</time></trkpt><trkpt lat="42.39554184916996" lon="2.4923833966794886"><ele>971.0</ele><time>2026-04-22T09:50:13Z</time></trkpt><trkpt lat="42.39562240441341" lon="2.4922637318791567"><ele>968.75</ele><time>2026-04-22T09:50:14Z</time></trkpt><trkpt lat="42.39567439527675" lon="2.49213045923974"><ele>966.5</ele><time>2026-04-22T09:50:15Z</time></trkpt><trkpt lat="42.39571332706699" lon="2.4919293047567943"><ele>964.25</ele><time>2026-04-22T09:50:16Z</time></trkpt><trkpt lat="42.3957799566862" lon="2.491719264808048"><ele>962.0</ele><time>2026-04-22T09:50:17Z</time></trkpt><trkpt lat="42.39582629404041" lon="2.491472846996225"><ele>964.3333333333334</ele><time>2026-04-22T09:50:18Z</time></trkpt><trkpt lat="42.395892832160364" lon="2.4912191212272137"><ele>966.6666666666667</ele><time>2026-04-22T09:50:19Z</time></trkpt><trkpt lat="42.39596323099982" lon="2.490956087765895"><ele>969.0</ele><time>2026-04-22T09:50:19.999Z</time></trkpt><trkpt lat="42.39602698996433" lon="2.4906964108461285"><ele>969.0</ele><time>2026-04-22T09:50:20.999Z</time></trkpt><trkpt lat="42.396088979351056" lon="2.490442382124381"><ele>969.0</ele><time>2026-04-22T09:50:21.999Z</time></trkpt><trkpt lat="42.39615057028745" lon="2.4901945507967063"><ele>969.0</ele><time>2026-04-22T09:50:22.999Z</time></trkpt><trkpt lat="42.396208957423326" lon="2.48995095517346"><ele>969.6666666666667</ele><time>2026-04-22T09:50:24.001Z</time></trkpt><trkpt lat="42.39627144125178" lon="2.4897108324769133"><ele>970.3333333333334</ele><time>2026-04-22T09:50:25.001Z</time></trkpt><trkpt lat="42.396331021552086" lon="2.489471635475108"><ele>971.0</ele><time>2026-04-22T09:50:26.001Z</time></trkpt><trkpt lat="42.39637227289083" lon="2.489246796026469"><ele>972.6666666666667</ele><time>2026-04-22T09:50:27.001Z</time></trkpt><trkpt lat="42.39638922619587" lon="2.489030266276208"><ele>974.3333333333333</ele><time>2026-04-22T09:50:28.001Z</time></trkpt><trkpt lat="42.39636038843207" lon="2.4888273697503704"><ele>976.0</ele><time>2026-04-22T09:50:29.001Z</time></trkpt><trkpt lat="42.39631460972088" lon="2.4886433602554967"><ele>976.0</ele><time>2026-04-22T09:50:30.001Z</time></trkpt><trkpt lat="42.39626923899328" lon="2.488445523347331"><ele>976.0</ele><time>2026-04-22T09:50:31.001Z</time></trkpt><trkpt lat="42.39621776861735" lon="2.4882844439245546"><ele>976.0</ele><time>2026-04-22T09:50:32.001Z</time></trkpt><trkpt lat="42.39621578897869" lon="2.4881262178455033"><ele>976.0</ele><time>2026-04-22T09:50:33.001Z</time></trkpt><trkpt lat="42.39626714610236" lon="2.4879753318980913"><ele>967.0</ele><time>2026-04-22T09:50:34.001Z</time></trkpt><trkpt lat="42.39637839645939" lon="2.487880075382705"><ele>958.0</ele><time>2026-04-22T09:50:35.001Z</time></trkpt><trkpt lat="42.39647507310706" lon="2.487756287944944"><ele>949.0</ele><time>2026-04-22T09:50:36.001Z</time></trkpt><trkpt lat="42.39657752323474" lon="2.4876151440142964"><ele>940.0</ele><time>2026-04-22T09:50:37.001Z</time></trkpt><trkpt lat="42.39665826471447" lon="2.487428274323708"><ele>940.0</ele><time>2026-04-22T09:50:38.001Z</time></trkpt><trkpt lat="42.39672349196524" lon="2.487208252799575"><ele>940.0</ele><time>2026-04-22T09:50:39.001Z</time></trkpt><trkpt lat="42.39677627033962" lon="2.486984483568166"><ele>940.0</ele><time>2026-04-22T09:50:40.001Z</time></trkpt><trkpt lat="42.39682053157529" lon="2.486776683145651"><ele>940.75</ele><time>2026-04-22T09:50:41.001Z</time></trkpt><trkpt lat="42.39685006551125" lon="2.4865698599036756"><ele>941.5</ele><time>2026-04-22T09:50:42.001Z</time></trkpt><trkpt lat="42.39684228633078" lon="2.486366671556781"><ele>942.25</ele><time>2026-04-22T09:50:43.001Z</time></trkpt><trkpt lat="42.396797020796235" lon="2.486187451382228"><ele>943.0</ele><time>2026-04-22T09:50:44.001Z</time></trkpt><trkpt lat="42.39672700670889" lon="2.4860269263049393"><ele>943.75</ele><time>2026-04-22T09:50:45.001Z</time></trkpt><trkpt lat="42.39666220611666" lon="2.4858827832152244"><ele>944.5</ele><time>2026-04-22T09:50:46.001Z</time></trkpt><trkpt lat="42.39664511217522" lon="2.4857354523728645"><ele>945.25</ele><time>2026-04-22T09:50:47.001Z</time></trkpt><trkpt lat="42.39664982017523" lon="2.4855896873452927"><ele>946.0</ele><time>2026-04-22T09:50:48.001Z</time></trkpt><trkpt lat="42.39673571404148" lon="2.4854570205429556"><ele>946.75</ele><time>2026-04-22T09:50:49.001Z</time></trkpt><trkpt lat="42.39686081654928" lon="2.4853610583562165"><ele>947.5</ele><time>2026-04-22T09:50:50.001Z</time></trkpt><trkpt lat="42.39696433866933" lon="2.4852120925785917"><ele>948.25</ele><time>2026-04-22T09:50:51.001Z</time></trkpt><trkpt lat="42.39705051436979" lon="2.4850540359776385"><ele>949.0</ele><time>2026-04-22T09:50:52.001Z</time></trkpt><trkpt lat="42.397094949169514" lon="2.4848636579418724"><ele>949.0</ele><time>2026-04-22T09:50:53Z</time></trkpt><trkpt lat="42.39710240373639" lon="2.484645607516949"><ele>949.0</ele><time>2026-04-22T09:50:54Z</time></trkpt><trkpt lat="42.39707792486363" lon="2.4844101096122984"><ele>949.0</ele><time>2026-04-22T09:50:55Z</time></trkpt><trkpt lat="42.39702281969015" lon="2.4841604886431914"><ele>946.0</ele><time>2026-04-22T09:50:56Z</time></trkpt><trkpt lat="42.396965516641366" lon="2.4838928505218"><ele>943.0</ele><time>2026-04-22T09:50:57Z</time></trkpt><trkpt lat="42.39691721655719" lon="2.4836439029721413"><ele>940.0</ele><time>2026-04-22T09:50:58Z</time></trkpt><trkpt lat="42.396875775809335" lon="2.4833994785405396"><ele>934.6666666666666</ele><time>2026-04-22T09:50:59Z</time></trkpt><trkpt lat="42.39683894974549" lon="2.4831633857723805"><ele>929.3333333333333</ele><time>2026-04-22T09:51:00Z</time></trkpt><trkpt lat="42.396798689430796" lon="2.4829470849685684"><ele>924.0</ele><time>2026-04-22T09:51:01Z</time></trkpt><trkpt lat="42.39674963437969" lon="2.4827458462157743"><ele>919.0</ele><time>2026-04-22T09:51:02Z</time></trkpt><trkpt lat="42.39669605233217" lon="2.4825654778962636"><ele>914.0</ele><time>2026-04-22T09:51:03Z</time></trkpt><trkpt lat="42.396598701168834" lon="2.482409802863353"><ele>909.0</ele><time>2026-04-22T09:51:04Z</time></trkpt><trkpt lat="42.39645550783057" lon="2.4822680033252618"><ele>906.6666666666667</ele><time>2026-04-22T09:51:05Z</time></trkpt><trkpt lat="42.396288085501546" lon="2.482126130228295"><ele>904.3333333333334</ele><time>2026-04-22T09:51:06Z</time></trkpt><trkpt lat="42.39612255491197" lon="2.4819776076537057"><ele>902.0</ele><time>2026-04-22T09:51:07Z</time></trkpt><trkpt lat="42.39597293676002" lon="2.4818284457506707"><ele>902.0</ele><time>2026-04-22T09:51:08Z</time></trkpt><trkpt lat="42.395828087727104" lon="2.4816809529545045"><ele>902.0</ele><time>2026-04-22T09:51:09Z</time></trkpt><trkpt lat="42.39568689723354" lon="2.4815326484128866"><ele>902.0</ele><time>2026-04-22T09:51:10Z</time></trkpt><trkpt lat="42.39555057866226" lon="2.4814087877075073"><ele>904.0</ele><time>2026-04-22T09:51:11Z</time></trkpt><trkpt lat="42.39542832989964" lon="2.4813094218738683"><ele>906.0</ele><time>2026-04-22T09:51:12Z</time></trkpt><trkpt lat="42.395300393571304" lon="2.4812474265452007"><ele>908.0</ele><time>2026-04-22T09:51:13Z</time></trkpt><trkpt lat="42.39516219426494" lon="2.481237022697019"><ele>910.0</ele><time>2026-04-22T09:51:14Z</time></trkpt><trkpt lat="42.39501693265032" lon="2.4812610143277722"><ele>910.0</ele><time>2026-04-22T09:51:15Z</time></trkpt><trkpt lat="42.394871292147805" lon="2.4813160157869616"><ele>910.0</ele><time>2026-04-22T09:51:16Z</time></trkpt><trkpt lat="42.39473090193686" lon="2.4813591035171627"><ele>910.0</ele><time>2026-04-22T09:51:17Z</time></trkpt><trkpt lat="42.394603983698524" lon="2.481380079479948"><ele>910.0</ele><time>2026-04-22T09:51:18Z</time></trkpt><trkpt lat="42.39448468978413" lon="2.481341511413552"><ele>906.75</ele><time>2026-04-22T09:51:19Z</time></trkpt><trkpt lat="42.39437767969461" lon="2.481264273924016"><ele>903.5</ele><time>2026-04-22T09:51:20Z</time></trkpt><trkpt lat="42.394298270668635" lon="2.481116875622904"><ele>900.25</ele><time>2026-04-22T09:51:21Z</time></trkpt><trkpt lat="42.3942219529181" lon="2.480935963058442"><ele>897.0</ele><time>2026-04-22T09:51:22Z</time></trkpt><trkpt lat="42.394150793108906" lon="2.4807323473884866"><ele>897.0</ele><time>2026-04-22T09:51:23Z</time></trkpt><trkpt lat="42.39407296885838" lon="2.480528265946362"><ele>897.0</ele><time>2026-04-22T09:51:24Z</time></trkpt><trkpt lat="42.394005692641805" lon="2.4803337528266653"><ele>897.0</ele><time>2026-04-22T09:51:25Z</time></trkpt><trkpt lat="42.39390913793035" lon="2.480168428719986"><ele>899.75</ele><time>2026-04-22T09:51:26Z</time></trkpt><trkpt lat="42.39383141452893" lon="2.480001977775791"><ele>902.5</ele><time>2026-04-22T09:51:27Z</time></trkpt><trkpt lat="42.39374656364001" lon="2.47988067339848"><ele>905.25</ele><time>2026-04-22T09:51:28Z</time></trkpt><trkpt lat="42.393699559299684" lon="2.479733054031437"><ele>908.0</ele><time>2026-04-22T09:51:29Z</time></trkpt><trkpt lat="42.393705261786955" lon="2.4795875053715077"><ele>912.0</ele><time>2026-04-22T09:51:30Z</time></trkpt><trkpt lat="42.393752073424245" lon="2.4794645725781006"><ele>916.0</ele><time>2026-04-22T09:51:31Z</time></trkpt><trkpt lat="42.39384628267135" lon="2.4793537165148387"><ele>920.0</ele><time>2026-04-22T09:51:32Z</time></trkpt><trkpt lat="42.39397240876932" lon="2.4792787538611343"><ele>924.0</ele><time>2026-04-22T09:51:33Z</time></trkpt><trkpt lat="42.39413261236301" lon="2.479254431946801"><ele>913.0</ele><time>2026-04-22T09:51:34Z</time></trkpt><trkpt lat="42.39429341408672" lon="2.479257981518765"><ele>902.0</ele><time>2026-04-22T09:51:35Z</time></trkpt><trkpt lat="42.394425354011645" lon="2.4791984865876495"><ele>891.0</ele><time>2026-04-22T09:51:36Z</time></trkpt><trkpt lat="42.39456994146669" lon="2.4790852057082122"><ele>885.6666666666667</ele><time>2026-04-22T09:51:37Z</time></trkpt><trkpt lat="42.39471681865011" lon="2.4789190121306826"><ele>880.3333333333334</ele><time>2026-04-22T09:51:38Z</time></trkpt><trkpt lat="42.394864110327866" lon="2.478712524711167"><ele>875.0</ele><time>2026-04-22T09:51:39Z</time></trkpt><trkpt lat="42.39499283005554" lon="2.4785381358258145"><ele>875.0</ele><time>2026-04-22T09:51:40Z</time></trkpt><trkpt lat="42.39511761628632" lon="2.478370734415092"><ele>875.0</ele><time>2026-04-22T09:51:41Z</time></trkpt><trkpt lat="42.39523805202339" lon="2.4782151389540292"><ele>875.0</ele><time>2026-04-22T09:51:42Z</time></trkpt><trkpt lat="42.39535662683748" lon="2.4780896645498323"><ele>875.0</ele><time>2026-04-22T09:51:43Z</time></trkpt><trkpt lat="42.395502087467975" lon="2.4780262246611704"><ele>875.0</ele><time>2026-04-22T09:51:44Z</time></trkpt><trkpt lat="42.395662526401026" lon="2.477997395060682"><ele>875.0</ele><time>2026-04-22T09:51:45Z</time></trkpt><trkpt lat="42.39585790475292" lon="2.4779560210876275"><ele>873.6666666666667</ele><time>2026-04-22T09:51:46Z</time></trkpt><trkpt lat="42.396042516112" lon="2.4779171141723735"><ele>872.3333333333333</ele><time>2026-04-22T09:51:47Z</time></trkpt><trkpt lat="42.39621633474999" lon="2.4778634543270215"><ele>871.0</ele><time>2026-04-22T09:51:48Z</time></trkpt><trkpt lat="42.39638440095347" lon="2.4778267140487857"><ele>867.25</ele><time>2026-04-22T09:51:49Z</time></trkpt><trkpt lat="42.396545728493166" lon="2.4778146476177496"><ele>863.5</ele><time>2026-04-22T09:51:50Z</time></trkpt><trkpt lat="42.396673788504465" lon="2.4777538423039007"><ele>859.75</ele><time>2026-04-22T09:51:51Z</time></trkpt><trkpt lat="42.39679466226591" lon="2.477681717338118"><ele>856.0</ele><time>2026-04-22T09:51:51.999Z</time></trkpt><trkpt lat="42.396886702242625" lon="2.4775372023436733"><ele>856.0</ele><time>2026-04-22T09:51:52.999Z</time></trkpt><trkpt lat="42.39695471726666" lon="2.4773698689363783"><ele>856.0</ele><time>2026-04-22T09:51:53.999Z</time></trkpt><trkpt lat="42.396981160200134" lon="2.477191872622213"><ele>856.0</ele><time>2026-04-22T09:51:54.999Z</time></trkpt><trkpt lat="42.396967216671115" lon="2.476987419179186"><ele>856.0</ele><time>2026-04-22T09:51:55.999Z</time></trkpt><trkpt lat="42.39691646594975" lon="2.4767505405243444"><ele>854.6666666666666</ele><time>2026-04-22T09:51:56.999Z</time></trkpt><trkpt lat="42.39684918352852" lon="2.4765389965772724"><ele>853.3333333333333</ele><time>2026-04-22T09:51:57.999Z</time></trkpt><trkpt lat="42.39676738003493" lon="2.4763719152010797"><ele>852.0</ele><time>2026-04-22T09:51:58.999Z</time></trkpt><trkpt lat="42.39666423689902" lon="2.4762321050045286"><ele>847.0</ele><time>2026-04-22T09:51:59.999Z</time></trkpt><trkpt lat="42.396534014678934" lon="2.476119958323471"><ele>842.0</ele><time>2026-04-22T09:52:00.999Z</time></trkpt><trkpt lat="42.3963826491311" lon="2.476043499740736"><ele>837.0</ele><time>2026-04-22T09:52:01.999Z</time></trkpt><trkpt lat="42.396190956868125" lon="2.476018150038199"><ele>837.0</ele><time>2026-04-22T09:52:02.999Z</time></trkpt><trkpt lat="42.39598545501333" lon="2.4760124212665"><ele>837.0</ele><time>2026-04-22T09:52:03.999Z</time></trkpt><trkpt lat="42.3957858279682" lon="2.4759924798083093"><ele>837.0</ele><time>2026-04-22T09:52:04.999Z</time></trkpt><trkpt lat="42.395603485564806" lon="2.4759671435310535"><ele>839.3333333333333</ele><time>2026-04-22T09:52:05.999Z</time></trkpt><trkpt lat="42.39541936350571" lon="2.4759141642176443"><ele>841.6666666666666</ele><time>2026-04-22T09:52:06.999Z</time></trkpt><trkpt lat="42.39522627561016" lon="2.4758207414611784"><ele>844.0</ele><time>2026-04-22T09:52:07.999Z</time></trkpt><trkpt lat="42.395048361599024" lon="2.4757142543100046"><ele>844.0</ele><time>2026-04-22T09:52:08.999Z</time></trkpt><trkpt lat="42.394855809631245" lon="2.4755931557254556"><ele>844.0</ele><time>2026-04-22T09:52:09.999Z</time></trkpt><trkpt lat="42.39467579782023" lon="2.4754580216234725"><ele>844.0</ele><time>2026-04-22T09:52:10.999Z</time></trkpt><trkpt lat="42.39449360832556" lon="2.475292055278918"><ele>837.5</ele><time>2026-04-22T09:52:11.999Z</time></trkpt><trkpt lat="42.394309043573614" lon="2.475105085044517"><ele>831.0</ele><time>2026-04-22T09:52:12.999Z</time></trkpt><trkpt lat="42.39412934989957" lon="2.4749237727527253"><ele>831.0</ele><time>2026-04-22T09:52:13.999Z</time></trkpt><trkpt lat="42.39396363046695" lon="2.4747410503329923"><ele>831.0</ele><time>2026-04-22T09:52:14.999Z</time></trkpt><trkpt lat="42.3938056668748" lon="2.4745589536929655"><ele>831.0</ele><time>2026-04-22T09:52:15.999Z</time></trkpt><trkpt lat="42.393655122508804" lon="2.47439550105555"><ele>831.3333333333333</ele><time>2026-04-22T09:52:16.999Z</time></trkpt><trkpt lat="42.393516381137474" lon="2.4742449751961098"><ele>831.6666666666666</ele><time>2026-04-22T09:52:17.999Z</time></trkpt><trkpt lat="42.39338469564467" lon="2.474111695082865"><ele>832.0</ele><time>2026-04-22T09:52:18.999Z</time></trkpt><trkpt lat="42.39326500306453" lon="2.4739841412070693"><ele>832.0</ele><time>2026-04-22T09:52:19.999Z</time></trkpt><trkpt lat="42.3931690781034" lon="2.4738558891450935"><ele>832.0</ele><time>2026-04-22T09:52:20.999Z</time></trkpt><trkpt lat="42.393107181571054" lon="2.473719673817781"><ele>832.0</ele><time>2026-04-22T09:52:21.999Z</time></trkpt><trkpt lat="42.393069609705435" lon="2.4735881639388877"><ele>832.0</ele><time>2026-04-22T09:52:22.999Z</time></trkpt><trkpt lat="42.393062800287986" lon="2.4734494093123485"><ele>830.2</ele><time>2026-04-22T09:52:23.999Z</time></trkpt><trkpt lat="42.39308738268158" lon="2.473318894456283"><ele>828.4000000000001</ele><time>2026-04-22T09:52:24.999Z</time></trkpt><trkpt lat="42.39315110300294" lon="2.473202703338202"><ele>826.5999999999999</ele><time>2026-04-22T09:52:25.999Z</time></trkpt><trkpt lat="42.39324298110663" lon="2.473110826046466"><ele>824.8</ele><time>2026-04-22T09:52:26.999Z</time></trkpt><trkpt lat="42.39335736317472" lon="2.47305523110732"><ele>823.0</ele><time>2026-04-22T09:52:27.999Z</time></trkpt><trkpt lat="42.3934985544951" lon="2.473038463367118"><ele>823.0</ele><time>2026-04-22T09:52:28.999Z</time></trkpt><trkpt lat="42.393659705897186" lon="2.4730459413871815"><ele>823.0</ele><time>2026-04-22T09:52:30.001Z</time></trkpt><trkpt lat="42.39380936747886" lon="2.473090893134163"><ele>823.0</ele><time>2026-04-22T09:52:31.001Z</time></trkpt><trkpt lat="42.39396380068608" lon="2.473182183478941"><ele>824.0</ele><time>2026-04-22T09:52:32.001Z</time></trkpt><trkpt lat="42.394121438345366" lon="2.4733050182218324"><ele>825.0</ele><time>2026-04-22T09:52:33.001Z</time></trkpt><trkpt lat="42.39428756136332" lon="2.4734451689662107"><ele>826.0</ele><time>2026-04-22T09:52:34.001Z</time></trkpt><trkpt lat="42.394434795744374" lon="2.473571433586439"><ele>826.0</ele><time>2026-04-22T09:52:35.001Z</time></trkpt><trkpt lat="42.39459146558526" lon="2.473682412264034"><ele>826.0</ele><time>2026-04-22T09:52:36.001Z</time></trkpt><trkpt lat="42.394764966049685" lon="2.4737742825295745"><ele>826.0</ele><time>2026-04-22T09:52:37.001Z</time></trkpt><trkpt lat="42.39494414454949" lon="2.4738488014070565"><ele>820.3333333333333</ele><time>2026-04-22T09:52:38.001Z</time></trkpt><trkpt lat="42.395104609874444" lon="2.473895791977003"><ele>814.6666666666667</ele><time>2026-04-22T09:52:39.001Z</time></trkpt><trkpt lat="42.395278462694236" lon="2.4739038160503997"><ele>809.0</ele><time>2026-04-22T09:52:40.001Z</time></trkpt><trkpt lat="42.39546735370891" lon="2.473892583796233"><ele>808.6666666666667</ele><time>2026-04-22T09:52:41.001Z</time></trkpt><trkpt lat="42.3956483148086" lon="2.4738750388600486"><ele>808.3333333333333</ele><time>2026-04-22T09:52:42.001Z</time></trkpt><trkpt lat="42.395818814706274" lon="2.473891655263802"><ele>808.0</ele><time>2026-04-22T09:52:43.001Z</time></trkpt><trkpt lat="42.395980156812826" lon="2.473895771591654"><ele>808.0</ele><time>2026-04-22T09:52:44.001Z</time></trkpt><trkpt lat="42.39615745193804" lon="2.4738527171432554"><ele>808.0</ele><time>2026-04-22T09:52:45.001Z</time></trkpt><trkpt lat="42.396342628109934" lon="2.47375493146375"><ele>808.0</ele><time>2026-04-22T09:52:46Z</time></trkpt><trkpt lat="42.39654717045758" lon="2.4736609129786107"><ele>813.3333333333333</ele><time>2026-04-22T09:52:47Z</time></trkpt><trkpt lat="42.39673799544204" lon="2.473571058017019"><ele>818.6666666666667</ele><time>2026-04-22T09:52:48Z</time></trkpt><trkpt lat="42.39692745017872" lon="2.473478969000508"><ele>824.0</ele><time>2026-04-22T09:52:49Z</time></trkpt><trkpt lat="42.397115170542534" lon="2.4733800616734207"><ele>816.3333333333334</ele><time>2026-04-22T09:52:50Z</time></trkpt><trkpt lat="42.397290814651555" lon="2.4733060561123037"><ele>808.6666666666667</ele><time>2026-04-22T09:52:51Z</time></trkpt><trkpt lat="42.397450798277404" lon="2.473217972880045"><ele>801.0</ele><time>2026-04-22T09:52:52Z</time></trkpt><trkpt lat="42.397603902098496" lon="2.4731624644761596"><ele>801.0</ele><time>2026-04-22T09:52:53Z</time></trkpt><trkpt lat="42.39772889718405" lon="2.4731035322029484"><ele>801.0</ele><time>2026-04-22T09:52:54Z</time></trkpt><trkpt lat="42.39785551058737" lon="2.4730711514938117"><ele>801.0</ele><time>2026-04-22T09:52:55Z</time></trkpt><trkpt lat="42.39797055340995" lon="2.4730766445555865"><ele>801.0</ele><time>2026-04-22T09:52:56Z</time></trkpt><trkpt lat="42.398073373476656" lon="2.4731763280107626"><ele>803.6666666666667</ele><time>2026-04-22T09:52:57Z</time></trkpt><trkpt lat="42.39817618027541" lon="2.4733292178273536"><ele>806.3333333333334</ele><time>2026-04-22T09:52:58Z</time></trkpt><trkpt lat="42.39829915721506" lon="2.4734864778912327"><ele>809.0</ele><time>2026-04-22T09:52:59Z</time></trkpt><trkpt lat="42.39842065222417" lon="2.473678207776873"><ele>799.3333333333334</ele><time>2026-04-22T09:53:00Z</time></trkpt><trkpt lat="42.398555662997104" lon="2.4738654893834955"><ele>789.6666666666667</ele><time>2026-04-22T09:53:01Z</time></trkpt><trkpt lat="42.39869433737656" lon="2.4740537106020475"><ele>780.0</ele><time>2026-04-22T09:53:02Z</time></trkpt><trkpt lat="42.398822635196304" lon="2.474269903230604"><ele>780.3333333333333</ele><time>2026-04-22T09:53:03Z</time></trkpt><trkpt lat="42.39896252368825" lon="2.474474099404555"><ele>780.6666666666666</ele><time>2026-04-22T09:53:04Z</time></trkpt><trkpt lat="42.39910231289691" lon="2.4746763528453175"><ele>781.0</ele><time>2026-04-22T09:53:05Z</time></trkpt><trkpt lat="42.39924453579612" lon="2.4748541020992856"><ele>781.0</ele><time>2026-04-22T09:53:06Z</time></trkpt><trkpt lat="42.39935709186153" lon="2.475050965458389"><ele>781.0</ele><time>2026-04-22T09:53:07Z</time></trkpt><trkpt lat="42.399465598388055" lon="2.4752379463120615"><ele>781.0</ele><time>2026-04-22T09:53:08Z</time></trkpt><trkpt lat="42.39957652856332" lon="2.475419006810954"><ele>777.0</ele><time>2026-04-22T09:53:09Z</time></trkpt><trkpt lat="42.399645287715266" lon="2.4756507114097794"><ele>773.0</ele><time>2026-04-22T09:53:10Z</time></trkpt><trkpt lat="42.39971804661676" lon="2.475911371711052"><ele>769.0</ele><time>2026-04-22T09:53:11Z</time></trkpt><trkpt lat="42.399789208791226" lon="2.476170831273827"><ele>774.3333333333333</ele><time>2026-04-22T09:53:12Z</time></trkpt><trkpt lat="42.39984626822346" lon="2.4764222646847314"><ele>779.6666666666667</ele><time>2026-04-22T09:53:13Z</time></trkpt><trkpt lat="42.399867085070966" lon="2.4766722218642934"><ele>785.0</ele><time>2026-04-22T09:53:14Z</time></trkpt><trkpt lat="42.39989493193234" lon="2.4769447924441974"><ele>782.0</ele><time>2026-04-22T09:53:15Z</time></trkpt><trkpt lat="42.399895869327175" lon="2.477215109898349"><ele>779.0</ele><time>2026-04-22T09:53:16Z</time></trkpt><trkpt lat="42.39994572085228" lon="2.477509243795933"><ele>776.0</ele><time>2026-04-22T09:53:17Z</time></trkpt><trkpt lat="42.40000588437486" lon="2.477782029668041"><ele>770.6666666666667</ele><time>2026-04-22T09:53:18Z</time></trkpt><trkpt lat="42.40007369171854" lon="2.47801482593063"><ele>765.3333333333334</ele><time>2026-04-22T09:53:19Z</time></trkpt><trkpt lat="42.40012529622816" lon="2.4782411799164303"><ele>760.0</ele><time>2026-04-22T09:53:20Z</time></trkpt><trkpt lat="42.40018413625216" lon="2.478474949696934"><ele>760.0</ele><time>2026-04-22T09:53:20.999Z</time></trkpt><trkpt lat="42.400316862447795" lon="2.478680257756544"><ele>760.0</ele><time>2026-04-22T09:53:21.999Z</time></trkpt><trkpt lat="42.40044082732539" lon="2.4789065495404237"><ele>760.0</ele><time>2026-04-22T09:53:22.999Z</time></trkpt><trkpt lat="42.400557729072176" lon="2.4791162824044335"><ele>761.0</ele><time>2026-04-22T09:53:23.999Z</time></trkpt><trkpt lat="42.40066276542444" lon="2.4793101703389944"><ele>762.0</ele><time>2026-04-22T09:53:24.999Z</time></trkpt><trkpt lat="42.400755527039195" lon="2.4794700421325695"><ele>763.0</ele><time>2026-04-22T09:53:25.999Z</time></trkpt><trkpt lat="42.40084488628439" lon="2.479607203179084"><ele>757.75</ele><time>2026-04-22T09:53:26.999Z</time></trkpt><trkpt lat="42.4009564720045" lon="2.4797231386712797"><ele>752.5</ele><time>2026-04-22T09:53:27.999Z</time></trkpt><trkpt lat="42.40108325608817" lon="2.479803853630442"><ele>747.25</ele><time>2026-04-22T09:53:28.999Z</time></trkpt><trkpt lat="42.401218891456224" lon="2.4798345577338794"><ele>742.0</ele><time>2026-04-22T09:53:29.999Z</time></trkpt><trkpt lat="42.401361919075015" lon="2.4798167512410205"><ele>741.5</ele><time>2026-04-22T09:53:30.999Z</time></trkpt><trkpt lat="42.40149461654122" lon="2.4797568367204406"><ele>741.0</ele><time>2026-04-22T09:53:31.999Z</time></trkpt><trkpt lat="42.40162357619612" lon="2.4796669247871717"><ele>740.5</ele><time>2026-04-22T09:53:32.999Z</time></trkpt><trkpt lat="42.401746357942926" lon="2.479575014000972"><ele>740.0</ele><time>2026-04-22T09:53:33.999Z</time></trkpt><trkpt lat="42.40187906619117" lon="2.479512855313691"><ele>739.25</ele><time>2026-04-22T09:53:34.999Z</time></trkpt><trkpt lat="42.402002329831504" lon="2.479476352827972"><ele>738.5</ele><time>2026-04-22T09:53:35.999Z</time></trkpt><trkpt lat="42.402135187666765" lon="2.4794698495128578"><ele>737.75</ele><time>2026-04-22T09:53:36.999Z</time></trkpt><trkpt lat="42.402287265765494" lon="2.479493850336559"><ele>737.0</ele><time>2026-04-22T09:53:37.999Z</time></trkpt><trkpt lat="42.40245245127488" lon="2.4795350439053028"><ele>737.0</ele><time>2026-04-22T09:53:38.999Z</time></trkpt><trkpt lat="42.402612883064265" lon="2.479576217435818"><ele>737.0</ele><time>2026-04-22T09:53:39.999Z</time></trkpt><trkpt lat="42.4027633241026" lon="2.479614672269559"><ele>737.0</ele><time>2026-04-22T09:53:40.999Z</time></trkpt><trkpt lat="42.402906428991955" lon="2.479649083361918"><ele>736.0</ele><time>2026-04-22T09:53:41.999Z</time></trkpt><trkpt lat="42.40303968443913" lon="2.4796897193541665"><ele>735.0</ele><time>2026-04-22T09:53:42.999Z</time></trkpt><trkpt lat="42.40316053183209" lon="2.4797232022657543"><ele>734.0</ele><time>2026-04-22T09:53:43.999Z</time></trkpt><trkpt lat="42.403272376881446" lon="2.479755214451632"><ele>733.0</ele><time>2026-04-22T09:53:44.999Z</time></trkpt><trkpt lat="42.40337769631186" lon="2.4797817176827595"><ele>733.0</ele><time>2026-04-22T09:53:45.999Z</time></trkpt><trkpt lat="42.40347208489653" lon="2.479803049393158"><ele>733.0</ele><time>2026-04-22T09:53:46.999Z</time></trkpt><trkpt lat="42.40355639177382" lon="2.4798238481809594"><ele>733.0</ele><time>2026-04-22T09:53:47.999Z</time></trkpt><trkpt lat="42.40361731694068" lon="2.4798533011831565"><ele>733.0</ele><time>2026-04-22T09:53:48.999Z</time></trkpt><trkpt lat="42.40365045964775" lon="2.4799800802968406"><ele>733.0</ele><time>2026-04-22T09:53:50.999Z</time></trkpt><trkpt lat="42.40357309817293" lon="2.4801529780591505"><ele>733.0</ele><time>2026-04-22T09:53:52.999Z</time></trkpt><trkpt lat="42.40358194192397" lon="2.4803130440706944"><ele>733.0</ele><time>2026-04-22T09:53:53.999Z</time></trkpt><trkpt lat="42.40357919970714" lon="2.48045601997205"><ele>733.0</ele><time>2026-04-22T09:53:54.999Z</time></trkpt><trkpt lat="42.40357956435458" lon="2.480587518808102"><ele>733.0</ele><time>2026-04-22T09:53:55.999Z</time></trkpt><trkpt lat="42.403573987550736" lon="2.4807364754161862"><ele>733.0</ele><time>2026-04-22T09:53:56.999Z</time></trkpt><trkpt lat="42.40356434117273" lon="2.4808928358133437"><ele>733.0</ele><time>2026-04-22T09:53:57.999Z</time></trkpt><trkpt lat="42.40355278992614" lon="2.4810471013178943"><ele>733.0</ele><time>2026-04-22T09:53:58.999Z</time></trkpt><trkpt lat="42.40353397997035" lon="2.4811750431976947"><ele>733.0</ele><time>2026-04-22T09:53:59.999Z</time></trkpt><trkpt lat="42.403517428631154" lon="2.4812809989759037"><ele>733.0</ele><time>2026-04-22T09:54:00.999Z</time></trkpt><trkpt lat="42.40349147585422" lon="2.4813989942712027"><ele>733.0</ele><time>2026-04-22T09:54:01.999Z</time></trkpt><trkpt lat="42.40345139968069" lon="2.4815133206184274"><ele>733.0</ele><time>2026-04-22T09:54:02.999Z</time></trkpt><trkpt lat="42.403402077121676" lon="2.481635542175697"><ele>733.0</ele><time>2026-04-22T09:54:03.999Z</time></trkpt><trkpt lat="42.40334986721295" lon="2.4817515083868065"><ele>733.0</ele><time>2026-04-22T09:54:04.999Z</time></trkpt><trkpt lat="42.403304584415174" lon="2.4818705833138925"><ele>733.0</ele><time>2026-04-22T09:54:05.999Z</time></trkpt><trkpt lat="42.403275071022804" lon="2.481990885232503"><ele>733.0</ele><time>2026-04-22T09:54:06.999Z</time></trkpt><trkpt lat="42.403270995141405" lon="2.482134006689628"><ele>733.2</ele><time>2026-04-22T09:54:07.999Z</time></trkpt><trkpt lat="42.4032957583362" lon="2.482276820396593"><ele>733.4</ele><time>2026-04-22T09:54:08.999Z</time></trkpt><trkpt lat="42.40332252602288" lon="2.4824265392395626"><ele>733.6</ele><time>2026-04-22T09:54:09.999Z</time></trkpt><trkpt lat="42.40334668926543" lon="2.482584155340059"><ele>733.8000000000001</ele><time>2026-04-22T09:54:10.999Z</time></trkpt><trkpt lat="42.40336787549092" lon="2.4827190305779525"><ele>734.0</ele><time>2026-04-22T09:54:11.999Z</time></trkpt><trkpt lat="42.403379896942724" lon="2.482856158411022"><ele>734.0</ele><time>2026-04-22T09:54:12.999Z</time></trkpt><trkpt lat="42.40340434209465" lon="2.482992692692969"><ele>734.0</ele><time>2026-04-22T09:54:13.999Z</time></trkpt><trkpt lat="42.40342932463477" lon="2.483136849749172"><ele>734.0</ele><time>2026-04-22T09:54:14.999Z</time></trkpt><trkpt lat="42.40343731915228" lon="2.483278868115126"><ele>734.0</ele><time>2026-04-22T09:54:15.999Z</time></trkpt><trkpt lat="42.40342286318278" lon="2.483431110238149"><ele>734.0</ele><time>2026-04-22T09:54:16.999Z</time></trkpt><trkpt lat="42.40339273940173" lon="2.4835963279945825"><ele>735.0</ele><time>2026-04-22T09:54:17.999Z</time></trkpt><trkpt lat="42.40335291310995" lon="2.4837689085686345"><ele>736.0</ele><time>2026-04-22T09:54:18.999Z</time></trkpt><trkpt lat="42.403312234236694" lon="2.4839389993535477"><ele>737.0</ele><time>2026-04-22T09:54:19.999Z</time></trkpt><trkpt lat="42.403266556367356" lon="2.484093164533872"><ele>738.0</ele><time>2026-04-22T09:54:20.999Z</time></trkpt><trkpt lat="42.40323282243196" lon="2.4842300841197598"><ele>738.0</ele><time>2026-04-22T09:54:21.998Z</time></trkpt><trkpt lat="42.40320131186798" lon="2.484363346103634"><ele>738.0</ele><time>2026-04-22T09:54:22.998Z</time></trkpt><trkpt lat="42.40317707523235" lon="2.484497134860809"><ele>738.0</ele><time>2026-04-22T09:54:23.998Z</time></trkpt><trkpt lat="42.403177970684574" lon="2.4846303911000143"><ele>738.0</ele><time>2026-04-22T09:54:24.998Z</time></trkpt><trkpt lat="42.40319474806008" lon="2.484773760871756"><ele>738.0</ele><time>2026-04-22T09:54:25.998Z</time></trkpt><trkpt lat="42.40321702054956" lon="2.484921762703993"><ele>737.8</ele><time>2026-04-22T09:54:26.998Z</time></trkpt><trkpt lat="42.4032387773484" lon="2.4850741356124137"><ele>737.5999999999999</ele><time>2026-04-22T09:54:27.998Z</time></trkpt><trkpt lat="42.40325749221055" lon="2.4852264104548176"><ele>737.4000000000001</ele><time>2026-04-22T09:54:28.998Z</time></trkpt><trkpt lat="42.40328048920941" lon="2.4853721233583745"><ele>737.2</ele><time>2026-04-22T09:54:29.998Z</time></trkpt><trkpt lat="42.40331265312009" lon="2.485507678138786"><ele>737.0</ele><time>2026-04-22T09:54:30.998Z</time></trkpt><trkpt lat="42.403346437007755" lon="2.4856544068560322"><ele>736.4000000000001</ele><time>2026-04-22T09:54:31.998Z</time></trkpt><trkpt lat="42.40337093076804" lon="2.4857911676049684"><ele>735.8000000000001</ele><time>2026-04-22T09:54:32.998Z</time></trkpt><trkpt lat="42.40338638234236" lon="2.4859523533081034"><ele>735.2</ele><time>2026-04-22T09:54:33.998Z</time></trkpt><trkpt lat="42.40341077750602" lon="2.4860864113841337"><ele>734.6</ele><time>2026-04-22T09:54:34.998Z</time></trkpt><trkpt lat="42.40344058356681" lon="2.486242551975081"><ele>734.0</ele><time>2026-04-22T09:54:36Z</time></trkpt><trkpt lat="42.40348519764636" lon="2.486391341252548"><ele>732.5</ele><time>2026-04-22T09:54:37Z</time></trkpt><trkpt lat="42.403520387112174" lon="2.486564675507041"><ele>731.0</ele><time>2026-04-22T09:54:38Z</time></trkpt><trkpt lat="42.40356190883685" lon="2.4867510445854326"><ele>729.5</ele><time>2026-04-22T09:54:39Z</time></trkpt><trkpt lat="42.40361564475934" lon="2.4869278998724975"><ele>728.0</ele><time>2026-04-22T09:54:40Z</time></trkpt><trkpt lat="42.40364575278704" lon="2.4871030307696245"><ele>727.25</ele><time>2026-04-22T09:54:41Z</time></trkpt><trkpt lat="42.40364838607123" lon="2.4872944213323844"><ele>726.5</ele><time>2026-04-22T09:54:42Z</time></trkpt><trkpt lat="42.403609566256165" lon="2.487483281135839"><ele>725.75</ele><time>2026-04-22T09:54:43Z</time></trkpt><trkpt lat="42.40355541478791" lon="2.487649656956375"><ele>725.0</ele><time>2026-04-22T09:54:44Z</time></trkpt><trkpt lat="42.4035248423536" lon="2.48779931946945"><ele>722.0</ele><time>2026-04-22T09:54:45Z</time></trkpt><trkpt lat="42.4035240854504" lon="2.4879919097813126"><ele>719.0</ele><time>2026-04-22T09:54:46Z</time></trkpt><trkpt lat="42.403546649900115" lon="2.4882074861043684"><ele>716.0</ele><time>2026-04-22T09:54:47Z</time></trkpt><trkpt lat="42.40357897141756" lon="2.488437596066882"><ele>716.0</ele><time>2026-04-22T09:54:48Z</time></trkpt><trkpt lat="42.403622455105214" lon="2.4886808216753598"><ele>716.0</ele><time>2026-04-22T09:54:49Z</time></trkpt><trkpt lat="42.403654719991984" lon="2.4889113102342497"><ele>716.0</ele><time>2026-04-22T09:54:50Z</time></trkpt><trkpt lat="42.403695506262615" lon="2.489142614774633"><ele>715.3333333333333</ele><time>2026-04-22T09:54:51Z</time></trkpt><trkpt lat="42.40372680247863" lon="2.4893509502653774"><ele>714.6666666666666</ele><time>2026-04-22T09:54:52Z</time></trkpt><trkpt lat="42.40375881644477" lon="2.4895660825773884"><ele>714.0</ele><time>2026-04-22T09:54:53Z</time></trkpt><trkpt lat="42.403787184164166" lon="2.4897921007241948"><ele>714.0</ele><time>2026-04-22T09:54:54Z</time></trkpt><trkpt lat="42.40380080357271" lon="2.4900225954904887"><ele>714.0</ele><time>2026-04-22T09:54:55Z</time></trkpt><trkpt lat="42.403791443660495" lon="2.4902709992788705"><ele>714.0</ele><time>2026-04-22T09:54:56Z</time></trkpt><trkpt lat="42.40378512934607" lon="2.4904789374886622"><ele>713.0</ele><time>2026-04-22T09:54:57Z</time></trkpt><trkpt lat="42.40379874735139" lon="2.490679922271289"><ele>712.0</ele><time>2026-04-22T09:54:58Z</time></trkpt><trkpt lat="42.40380192512718" lon="2.4908674082565923"><ele>711.0</ele><time>2026-04-22T09:54:59Z</time></trkpt><trkpt lat="42.40383020019476" lon="2.491053770747637"><ele>710.0</ele><time>2026-04-22T09:55:00Z</time></trkpt><trkpt lat="42.40387947302475" lon="2.4912248840456823"><ele>713.75</ele><time>2026-04-22T09:55:01Z</time></trkpt><trkpt lat="42.403945479841035" lon="2.49137176935805"><ele>717.5</ele><time>2026-04-22T09:55:02Z</time></trkpt><trkpt lat="42.404008275227525" lon="2.491500606832845"><ele>721.25</ele><time>2026-04-22T09:55:03Z</time></trkpt><trkpt lat="42.4040626043571" lon="2.491636903520784"><ele>725.0</ele><time>2026-04-22T09:55:04Z</time></trkpt><trkpt lat="42.404104969130216" lon="2.4917943998826346"><ele>725.0</ele><time>2026-04-22T09:55:05Z</time></trkpt><trkpt lat="42.40414548069142" lon="2.4919810310591095"><ele>725.0</ele><time>2026-04-22T09:55:06Z</time></trkpt><trkpt lat="42.4041600037017" lon="2.492170581555624"><ele>725.0</ele><time>2026-04-22T09:55:07Z</time></trkpt><trkpt lat="42.40416204622631" lon="2.4923859371560675"><ele>725.0</ele><time>2026-04-22T09:55:08Z</time></trkpt><trkpt lat="42.40416350258565" lon="2.492613098065209"><ele>723.0</ele><time>2026-04-22T09:55:09Z</time></trkpt><trkpt lat="42.4041687367158" lon="2.4928470146947412"><ele>721.0</ele><time>2026-04-22T09:55:10Z</time></trkpt><trkpt lat="42.40417054167945" lon="2.493094900483029"><ele>719.0</ele><time>2026-04-22T09:55:11Z</time></trkpt><trkpt lat="42.40416657924467" lon="2.4933345619725253"><ele>718.0</ele><time>2026-04-22T09:55:12Z</time></trkpt><trkpt lat="42.404161177685964" lon="2.493562300784699"><ele>717.0</ele><time>2026-04-22T09:55:13Z</time></trkpt><trkpt lat="42.40416544114085" lon="2.4937816977275697"><ele>716.0</ele><time>2026-04-22T09:55:14Z</time></trkpt><trkpt lat="42.404172572860624" lon="2.493984271224969"><ele>714.3333333333333</ele><time>2026-04-22T09:55:15Z</time></trkpt><trkpt lat="42.40420541248592" lon="2.494199215459286"><ele>712.6666666666666</ele><time>2026-04-22T09:55:16Z</time></trkpt><trkpt lat="42.404260761940975" lon="2.494416874765057"><ele>711.0</ele><time>2026-04-22T09:55:17Z</time></trkpt><trkpt lat="42.404340390357625" lon="2.494644160962973"><ele>707.6666666666666</ele><time>2026-04-22T09:55:18Z</time></trkpt><trkpt lat="42.4044192369788" lon="2.4948611273681487"><ele>704.3333333333333</ele><time>2026-04-22T09:55:19Z</time></trkpt><trkpt lat="42.40449460207352" lon="2.495057975006016"><ele>701.0</ele><time>2026-04-22T09:55:20Z</time></trkpt><trkpt lat="42.4045742660909" lon="2.495236655776298"><ele>703.25</ele><time>2026-04-22T09:55:21Z</time></trkpt><trkpt lat="42.40467778168081" lon="2.495396755013781"><ele>705.5</ele><time>2026-04-22T09:55:22Z</time></trkpt><trkpt lat="42.40478213865792" lon="2.495539361011029"><ele>707.75</ele><time>2026-04-22T09:55:23Z</time></trkpt><trkpt lat="42.40490445672264" lon="2.4956246869242404"><ele>710.0</ele><time>2026-04-22T09:55:24Z</time></trkpt><trkpt lat="42.40499535024641" lon="2.495777141555848"><ele>710.0</ele><time>2026-04-22T09:55:25Z</time></trkpt><trkpt lat="42.40505024302111" lon="2.495964533303215"><ele>710.0</ele><time>2026-04-22T09:55:26Z</time></trkpt><trkpt lat="42.40508823808477" lon="2.4961819497825393"><ele>710.0</ele><time>2026-04-22T09:55:27Z</time></trkpt><trkpt lat="42.40512913630639" lon="2.496407068773166"><ele>707.3333333333333</ele><time>2026-04-22T09:55:28Z</time></trkpt><trkpt lat="42.405206746674565" lon="2.4966318879731513"><ele>704.6666666666666</ele><time>2026-04-22T09:55:29Z</time></trkpt><trkpt lat="42.405299169001374" lon="2.496849591370874"><ele>702.0</ele><time>2026-04-22T09:55:30Z</time></trkpt><trkpt lat="42.40538598700034" lon="2.49705887869004"><ele>699.3333333333334</ele><time>2026-04-22T09:55:30.999Z</time></trkpt><trkpt lat="42.4054540285998" lon="2.4972799186812753"><ele>696.6666666666667</ele><time>2026-04-22T09:55:31.999Z</time></trkpt><trkpt lat="42.40548916333353" lon="2.4975349042071997"><ele>694.0</ele><time>2026-04-22T09:55:32.999Z</time></trkpt><trkpt lat="42.405520743201784" lon="2.497806234085796"><ele>700.0</ele><time>2026-04-22T09:55:33.999Z</time></trkpt><trkpt lat="42.40555578127782" lon="2.498063535617794"><ele>706.0</ele><time>2026-04-22T09:55:34.999Z</time></trkpt><trkpt lat="42.405589106937214" lon="2.4983227167487674"><ele>712.0</ele><time>2026-04-22T09:55:35.999Z</time></trkpt><trkpt lat="42.40562485914365" lon="2.498561422803603"><ele>711.75</ele><time>2026-04-22T09:55:36.999Z</time></trkpt><trkpt lat="42.40564776052549" lon="2.498768965171847"><ele>711.5</ele><time>2026-04-22T09:55:37.999Z</time></trkpt><trkpt lat="42.405662660390064" lon="2.498964211509921"><ele>711.25</ele><time>2026-04-22T09:55:38.999Z</time></trkpt><trkpt lat="42.40565350021823" lon="2.4991636505081547"><ele>711.0</ele><time>2026-04-22T09:55:39.999Z</time></trkpt><trkpt lat="42.40560759320895" lon="2.4993755701120257"><ele>711.0</ele><time>2026-04-22T09:55:40.999Z</time></trkpt><trkpt lat="42.405545975340665" lon="2.499562571434402"><ele>711.0</ele><time>2026-04-22T09:55:41.999Z</time></trkpt><trkpt lat="42.405493466779724" lon="2.499772079840867"><ele>711.0</ele><time>2026-04-22T09:55:42.999Z</time></trkpt><trkpt lat="42.40547458403983" lon="2.5000069569015735"><ele>705.6666666666666</ele><time>2026-04-22T09:55:43.999Z</time></trkpt><trkpt lat="42.40548602680318" lon="2.500223433777009"><ele>700.3333333333333</ele><time>2026-04-22T09:55:44.999Z</time></trkpt><trkpt lat="42.40552919730991" lon="2.5004252494056733"><ele>695.0</ele><time>2026-04-22T09:55:45.999Z</time></trkpt><trkpt lat="42.40559002756579" lon="2.5006107979908867"><ele>695.0</ele><time>2026-04-22T09:55:46.999Z</time></trkpt><trkpt lat="42.40567961245308" lon="2.5007893883783257"><ele>695.0</ele><time>2026-04-22T09:55:47.999Z</time></trkpt><trkpt lat="42.40580766154782" lon="2.5009470540527796"><ele>695.0</ele><time>2026-04-22T09:55:48.999Z</time></trkpt><trkpt lat="42.40595596370672" lon="2.50109764085467"><ele>690.6666666666666</ele><time>2026-04-22T09:55:49.999Z</time></trkpt><trkpt lat="42.40609451467348" lon="2.5012730559216196"><ele>686.3333333333334</ele><time>2026-04-22T09:55:50.999Z</time></trkpt><trkpt lat="42.40622482768864" lon="2.501457467580302"><ele>682.0</ele><time>2026-04-22T09:55:51.999Z</time></trkpt><trkpt lat="42.40634784486999" lon="2.5016299919862934"><ele>686.0</ele><time>2026-04-22T09:55:52.999Z</time></trkpt><trkpt lat="42.40646119264715" lon="2.501794857085319"><ele>690.0</ele><time>2026-04-22T09:55:53.999Z</time></trkpt><trkpt lat="42.40655021445519" lon="2.5019752768179435"><ele>694.0</ele><time>2026-04-22T09:55:54.999Z</time></trkpt><trkpt lat="42.406600978622755" lon="2.502180093276155"><ele>694.0</ele><time>2026-04-22T09:55:55.999Z</time></trkpt><trkpt lat="42.40665027638347" lon="2.5024059948981145"><ele>694.0</ele><time>2026-04-22T09:55:56.999Z</time></trkpt><trkpt lat="42.40668291591638" lon="2.5026550564464545"><ele>694.0</ele><time>2026-04-22T09:55:57.999Z</time></trkpt><trkpt lat="42.40672270100029" lon="2.5028868476563644"><ele>691.3333333333334</ele><time>2026-04-22T09:55:58.999Z</time></trkpt><trkpt lat="42.4067602254739" lon="2.5031203261896247"><ele>688.6666666666666</ele><time>2026-04-22T09:55:59.999Z</time></trkpt><trkpt lat="42.406806411449786" lon="2.5033581863489243"><ele>686.0</ele><time>2026-04-22T09:56:00.999Z</time></trkpt><trkpt lat="42.4068641989947" lon="2.5035984838940695"><ele>683.6666666666666</ele><time>2026-04-22T09:56:01.999Z</time></trkpt><trkpt lat="42.406938948098464" lon="2.5038431862205006"><ele>681.3333333333334</ele><time>2026-04-22T09:56:02.999Z</time></trkpt><trkpt lat="42.40701923904419" lon="2.50410076470837"><ele>679.0</ele><time>2026-04-22T09:56:03.999Z</time></trkpt><trkpt lat="42.407136583367276" lon="2.5043515269372554"><ele>683.0</ele><time>2026-04-22T09:56:04.999Z</time></trkpt><trkpt lat="42.407262109988636" lon="2.5045955734530847"><ele>687.0</ele><time>2026-04-22T09:56:05.999Z</time></trkpt><trkpt lat="42.407401877101286" lon="2.5048371452654643"><ele>691.0</ele><time>2026-04-22T09:56:06.999Z</time></trkpt><trkpt lat="42.4075435290644" lon="2.505073822067781"><ele>691.0</ele><time>2026-04-22T09:56:07.999Z</time></trkpt><trkpt lat="42.407682228701155" lon="2.5053050196190045"><ele>691.0</ele><time>2026-04-22T09:56:08.999Z</time></trkpt><trkpt lat="42.407793704235864" lon="2.5055697507888395"><ele>691.0</ele><time>2026-04-22T09:56:09.999Z</time></trkpt><trkpt lat="42.407875545399726" lon="2.5058228996792375"><ele>693.3333333333334</ele><time>2026-04-22T09:56:10.999Z</time></trkpt><trkpt lat="42.40794234164349" lon="2.506086528791133"><ele>695.6666666666666</ele><time>2026-04-22T09:56:11.999Z</time></trkpt><trkpt lat="42.40799736007109" lon="2.506372032309193"><ele>698.0</ele><time>2026-04-22T09:56:12.999Z</time></trkpt><trkpt lat="42.40804099767422" lon="2.5066696772233565"><ele>698.0</ele><time>2026-04-22T09:56:13.999Z</time></trkpt><trkpt lat="42.40808589718232" lon="2.5069599047624536"><ele>698.0</ele><time>2026-04-22T09:56:14.999Z</time></trkpt><trkpt lat="42.408129367811746" lon="2.507245945102702"><ele>698.0</ele><time>2026-04-22T09:56:15.999Z</time></trkpt><trkpt lat="42.408168719484884" lon="2.5075213049925775"><ele>697.0</ele><time>2026-04-22T09:56:16.999Z</time></trkpt><trkpt lat="42.40820680334505" lon="2.5077696008835177"><ele>696.0</ele><time>2026-04-22T09:56:17.999Z</time></trkpt><trkpt lat="42.40821382927222" lon="2.5080614870219127"><ele>695.0</ele><time>2026-04-22T09:56:18.999Z</time></trkpt><trkpt lat="42.4082112306335" lon="2.508343504049562"><ele>695.0</ele><time>2026-04-22T09:56:19.999Z</time></trkpt><trkpt lat="42.408226949631505" lon="2.5086540019286905"><ele>695.0</ele><time>2026-04-22T09:56:20.999Z</time></trkpt><trkpt lat="42.40822577979873" lon="2.5089347166646427"><ele>695.0</ele><time>2026-04-22T09:56:21.999Z</time></trkpt><trkpt lat="42.40823603065204" lon="2.509183391780763"><ele>689.0</ele><time>2026-04-22T09:56:22.999Z</time></trkpt><trkpt lat="42.40828601809737" lon="2.5094623349565652"><ele>683.0</ele><time>2026-04-22T09:56:23.999Z</time></trkpt><trkpt lat="42.408376441853264" lon="2.509784533287251"><ele>676.0</ele><time>2026-04-22T09:56:24.999Z</time></trkpt><trkpt lat="42.40841295832446" lon="2.5101078935880587"><ele>669.0</ele><time>2026-04-22T09:56:25.999Z</time></trkpt><trkpt lat="42.408469580816686" lon="2.5103996340684143"><ele>663.0</ele><time>2026-04-22T09:56:26.999Z</time></trkpt><trkpt lat="42.40852976365823" lon="2.510719097969961"><ele>657.0</ele><time>2026-04-22T09:56:27.999Z</time></trkpt><trkpt lat="42.40857811267338" lon="2.5110332698832067"><ele>664.6666666666666</ele><time>2026-04-22T09:56:28.999Z</time></trkpt><trkpt lat="42.408617855702076" lon="2.5113388031058803"><ele>672.3333333333333</ele><time>2026-04-22T09:56:29.998Z</time></trkpt><trkpt lat="42.40866776907163" lon="2.5116288834220697"><ele>680.0</ele><time>2026-04-22T09:56:30.998Z</time></trkpt><trkpt lat="42.4087268854618" lon="2.511915795493557"><ele>684.6666666666666</ele><time>2026-04-22T09:56:31.998Z</time></trkpt><trkpt lat="42.408789045942214" lon="2.5121736754954824"><ele>689.3333333333334</ele><time>2026-04-22T09:56:32.998Z</time></trkpt><trkpt lat="42.408865672016994" lon="2.5123782915806356"><ele>694.0</ele><time>2026-04-22T09:56:33.998Z</time></trkpt><trkpt lat="42.40895449389869" lon="2.5124484181530518"><ele>694.0</ele><time>2026-04-22T09:56:34.998Z</time></trkpt><trkpt lat="42.40905352053222" lon="2.512613927940299"><ele>694.0</ele><time>2026-04-22T09:56:35.998Z</time></trkpt><trkpt lat="42.40908410998594" lon="2.5133732974821177"><ele>687.6666666666667</ele><time>2026-04-22T09:56:38.998Z</time></trkpt><trkpt lat="42.409222571377455" lon="2.5135275918583253"><ele>681.3333333333334</ele><time>2026-04-22T09:56:39.998Z</time></trkpt><trkpt lat="42.409382776788725" lon="2.513596783592139"><ele>675.0</ele><time>2026-04-22T09:56:40.998Z</time></trkpt><trkpt lat="42.40986674995874" lon="2.51264757361172"><ele>675.0</ele><time>2026-04-22T09:56:42Z</time></trkpt><trkpt lat="42.409977528864296" lon="2.512736190114958"><ele>675.0</ele><time>2026-04-22T09:56:43Z</time></trkpt><trkpt lat="42.41000667750534" lon="2.5129223031034265"><ele>675.0</ele><time>2026-04-22T09:56:44Z</time></trkpt><trkpt lat="42.41000084729939" lon="2.5130956573262457"><ele>675.0</ele><time>2026-04-22T09:56:45Z</time></trkpt><trkpt lat="42.40996568011518" lon="2.513288273032705"><ele>677.6666666666666</ele><time>2026-04-22T09:56:46Z</time></trkpt><trkpt lat="42.409862080902926" lon="2.513478381796593"><ele>680.3333333333333</ele><time>2026-04-22T09:56:47Z</time></trkpt><trkpt lat="42.40974554718093" lon="2.5136974930738822"><ele>683.0</ele><time>2026-04-22T09:56:48Z</time></trkpt><trkpt lat="42.40962371401868" lon="2.5139301631282187"><ele>682.0</ele><time>2026-04-22T09:56:49Z</time></trkpt><trkpt lat="42.409501031292606" lon="2.5141691999787215"><ele>681.0</ele><time>2026-04-22T09:56:50Z</time></trkpt><trkpt lat="42.40939897883816" lon="2.514423662078081"><ele>680.0</ele><time>2026-04-22T09:56:51Z</time></trkpt><trkpt lat="42.40933989860049" lon="2.514686837797606"><ele>680.0</ele><time>2026-04-22T09:56:52Z</time></trkpt><trkpt lat="42.40929036028285" lon="2.5149289555356744"><ele>680.0</ele><time>2026-04-22T09:56:53Z</time></trkpt><trkpt lat="42.40923394461245" lon="2.5151291309109483"><ele>680.0</ele><time>2026-04-22T09:56:54Z</time></trkpt><trkpt lat="42.40915690545252" lon="2.5152897563832384"><ele>680.0</ele><time>2026-04-22T09:56:55Z</time></trkpt><trkpt lat="42.409039720609364" lon="2.5153734637747434"><ele>680.0</ele><time>2026-04-22T09:56:56Z</time></trkpt><trkpt lat="42.40888210228693" lon="2.5155064518998103"><ele>680.0</ele><time>2026-04-22T09:56:57Z</time></trkpt><trkpt lat="42.40870928347885" lon="2.515633401770625"><ele>679.3333333333333</ele><time>2026-04-22T09:56:58Z</time></trkpt><trkpt lat="42.40854247316944" lon="2.515721268536618"><ele>678.6666666666666</ele><time>2026-04-22T09:56:59Z</time></trkpt><trkpt lat="42.40837449880409" lon="2.515787292695065"><ele>678.0</ele><time>2026-04-22T09:57:00Z</time></trkpt><trkpt lat="42.40822219109814" lon="2.515843208397014"><ele>678.0</ele><time>2026-04-22T09:57:01Z</time></trkpt><trkpt lat="42.40808168513553" lon="2.5159325492558633"><ele>678.0</ele><time>2026-04-22T09:57:02Z</time></trkpt><trkpt lat="42.40795975656871" lon="2.5160201735052365"><ele>678.0</ele><time>2026-04-22T09:57:03Z</time></trkpt><trkpt lat="42.407875520090606" lon="2.5161057305700303"><ele>678.0</ele><time>2026-04-22T09:57:04Z</time></trkpt><trkpt lat="42.40779843774139" lon="2.516224862859124"><ele>681.0</ele><time>2026-04-22T09:57:05Z</time></trkpt><trkpt lat="42.407736134420134" lon="2.51634631206628"><ele>684.0</ele><time>2026-04-22T09:57:06Z</time></trkpt><trkpt lat="42.40765358370779" lon="2.5165371374544936"><ele>687.0</ele><time>2026-04-22T09:57:07Z</time></trkpt><trkpt lat="42.4075259647717" lon="2.5170098949884627"><ele>677.3333333333334</ele><time>2026-04-22T09:57:08Z</time></trkpt><trkpt lat="42.40745912143004" lon="2.5172557409355565"><ele>667.6666666666667</ele><time>2026-04-22T09:57:09Z</time></trkpt><trkpt lat="42.40741417965204" lon="2.517471833679566"><ele>658.0</ele><time>2026-04-22T09:57:10Z</time></trkpt><trkpt lat="42.40738072859286" lon="2.5176623297127554"><ele>658.0</ele><time>2026-04-22T09:57:11Z</time></trkpt><trkpt lat="42.40739787350944" lon="2.517853770077882"><ele>658.0</ele><time>2026-04-22T09:57:12Z</time></trkpt><trkpt lat="42.40745829691941" lon="2.5180447090719356"><ele>658.0</ele><time>2026-04-22T09:57:13Z</time></trkpt><trkpt lat="42.4075518884926" lon="2.518248179353455"><ele>660.0</ele><time>2026-04-22T09:57:14Z</time></trkpt><trkpt lat="42.40762879280122" lon="2.5184675633053906"><ele>662.0</ele><time>2026-04-22T09:57:15Z</time></trkpt><trkpt lat="42.40767369139787" lon="2.518731955636368"><ele>664.0</ele><time>2026-04-22T09:57:16Z</time></trkpt><trkpt lat="42.40771028805405" lon="2.519003514720557"><ele>659.3333333333334</ele><time>2026-04-22T09:57:17Z</time></trkpt><trkpt lat="42.407758037067296" lon="2.5192611898967425"><ele>654.6666666666666</ele><time>2026-04-22T09:57:18Z</time></trkpt><trkpt lat="42.40781163274267" lon="2.519500501930498"><ele>650.0</ele><time>2026-04-22T09:57:19Z</time></trkpt><trkpt lat="42.40786125570932" lon="2.5197110344791738"><ele>642.75</ele><time>2026-04-22T09:57:20Z</time></trkpt><trkpt lat="42.40791311533569" lon="2.519893098925181"><ele>635.5</ele><time>2026-04-22T09:57:21Z</time></trkpt><trkpt lat="42.4078986031401" lon="2.52008709321664"><ele>628.25</ele><time>2026-04-22T09:57:22Z</time></trkpt><trkpt lat="42.40783360339138" lon="2.5202603357158146"><ele>621.0</ele><time>2026-04-22T09:57:23Z</time></trkpt><trkpt lat="42.40773324425177" lon="2.5204382963235186"><ele>618.0</ele><time>2026-04-22T09:57:24Z</time></trkpt><trkpt lat="42.40762434166831" lon="2.5206471036683653"><ele>615.0</ele><time>2026-04-22T09:57:25Z</time></trkpt><trkpt lat="42.407510644459435" lon="2.520867588961195"><ele>612.0</ele><time>2026-04-22T09:57:26Z</time></trkpt><trkpt lat="42.40739399721129" lon="2.521094019032092"><ele>611.0</ele><time>2026-04-22T09:57:27Z</time></trkpt><trkpt lat="42.40728428942053" lon="2.5213074746981006"><ele>610.0</ele><time>2026-04-22T09:57:28Z</time></trkpt><trkpt lat="42.40717947125451" lon="2.521510207408661"><ele>609.0</ele><time>2026-04-22T09:57:29Z</time></trkpt><trkpt lat="42.40708807373994" lon="2.5217118543472146"><ele>609.0</ele><time>2026-04-22T09:57:30Z</time></trkpt><trkpt lat="42.40699780550441" lon="2.5219064285815485"><ele>609.0</ele><time>2026-04-22T09:57:31Z</time></trkpt><trkpt lat="42.40693558377444" lon="2.5221055041061993"><ele>609.0</ele><time>2026-04-22T09:57:32Z</time></trkpt><trkpt lat="42.406918312948136" lon="2.5223484901627407"><ele>608.3333333333334</ele><time>2026-04-22T09:57:33Z</time></trkpt><trkpt lat="42.4069326614763" lon="2.522610036750823"><ele>607.6666666666667</ele><time>2026-04-22T09:57:34Z</time></trkpt><trkpt lat="42.40693105031031" lon="2.5228857362796075"><ele>607.0</ele><time>2026-04-22T09:57:35Z</time></trkpt><trkpt lat="42.406871518925755" lon="2.5231773594102034"><ele>607.0</ele><time>2026-04-22T09:57:36Z</time></trkpt><trkpt lat="42.40680614768441" lon="2.5234731434707123"><ele>607.0</ele><time>2026-04-22T09:57:37Z</time></trkpt><trkpt lat="42.406747433066194" lon="2.5237573452206594"><ele>607.0</ele><time>2026-04-22T09:57:38Z</time></trkpt><trkpt lat="42.406699971683736" lon="2.5240336450506335"><ele>607.3333333333334</ele><time>2026-04-22T09:57:39Z</time></trkpt><trkpt lat="42.40665491142217" lon="2.5243094931134076"><ele>607.6666666666666</ele><time>2026-04-22T09:57:39.999Z</time></trkpt><trkpt lat="42.40659148435268" lon="2.5245755672294554"><ele>608.0</ele><time>2026-04-22T09:57:40.999Z</time></trkpt><trkpt lat="42.40652096067841" lon="2.524817275619345"><ele>613.0</ele><time>2026-04-22T09:57:41.999Z</time></trkpt><trkpt lat="42.40645353545699" lon="2.525042108411546"><ele>618.0</ele><time>2026-04-22T09:57:42.999Z</time></trkpt><trkpt lat="42.406424451221554" lon="2.5252735948789518"><ele>623.0</ele><time>2026-04-22T09:57:43.999Z</time></trkpt><trkpt lat="42.406399151899244" lon="2.5254849883214274"><ele>629.0</ele><time>2026-04-22T09:57:44.999Z</time></trkpt><trkpt lat="42.406379240173024" lon="2.525694578862689"><ele>635.0</ele><time>2026-04-22T09:57:45.999Z</time></trkpt><trkpt lat="42.40629886116034" lon="2.5258925052163432"><ele>641.0</ele><time>2026-04-22T09:57:46.999Z</time></trkpt><trkpt lat="42.4061795128871" lon="2.526080353802209"><ele>629.3333333333333</ele><time>2026-04-22T09:57:47.999Z</time></trkpt><trkpt lat="42.40604788041455" lon="2.5262678302394455"><ele>617.6666666666666</ele><time>2026-04-22T09:57:48.999Z</time></trkpt><trkpt lat="42.405926435290006" lon="2.5264357317345723"><ele>606.0</ele><time>2026-04-22T09:57:49.999Z</time></trkpt><trkpt lat="42.405799889725394" lon="2.5265670876344952"><ele>606.0</ele><time>2026-04-22T09:57:50.999Z</time></trkpt><trkpt lat="42.40565671867503" lon="2.526660402884067"><ele>606.0</ele><time>2026-04-22T09:57:51.999Z</time></trkpt><trkpt lat="42.40548590002435" lon="2.526735889284292"><ele>606.0</ele><time>2026-04-22T09:57:52.999Z</time></trkpt><trkpt lat="42.405298803164534" lon="2.52682244418214"><ele>598.3333333333334</ele><time>2026-04-22T09:57:53.999Z</time></trkpt><trkpt lat="42.40512719276921" lon="2.5268992613316414"><ele>590.6666666666667</ele><time>2026-04-22T09:57:54.999Z</time></trkpt><trkpt lat="42.404968148002126" lon="2.5269440229816635"><ele>583.0</ele><time>2026-04-22T09:57:55.999Z</time></trkpt><trkpt lat="42.40481798457092" lon="2.526954312728447"><ele>583.0</ele><time>2026-04-22T09:57:56.999Z</time></trkpt><trkpt lat="42.404673301601974" lon="2.5269330766602836"><ele>583.0</ele><time>2026-04-22T09:57:57.999Z</time></trkpt><trkpt lat="42.40453096816292" lon="2.526971133966083"><ele>583.0</ele><time>2026-04-22T09:57:58.999Z</time></trkpt><trkpt lat="42.404385204376666" lon="2.527030990704866"><ele>583.0</ele><time>2026-04-22T09:57:59.999Z</time></trkpt><trkpt lat="42.40428528741637" lon="2.527166319968247"><ele>580.0</ele><time>2026-04-22T09:58:00.999Z</time></trkpt><trkpt lat="42.40423138885011" lon="2.527341489924886"><ele>577.0</ele><time>2026-04-22T09:58:01.999Z</time></trkpt><trkpt lat="42.404250982673894" lon="2.527534335956652"><ele>574.0</ele><time>2026-04-22T09:58:02.999Z</time></trkpt><trkpt lat="42.404325769968544" lon="2.5277078258975547"><ele>571.0</ele><time>2026-04-22T09:58:03.999Z</time></trkpt><trkpt lat="42.404458604920684" lon="2.527823119724674"><ele>571.0</ele><time>2026-04-22T09:58:04.999Z</time></trkpt><trkpt lat="42.404619607776475" lon="2.5278901382313492"><ele>571.0</ele><time>2026-04-22T09:58:05.999Z</time></trkpt><trkpt lat="42.40480537503258" lon="2.527940622537212"><ele>571.0</ele><time>2026-04-22T09:58:06.999Z</time></trkpt><trkpt lat="42.40498930692096" lon="2.5280685591270293"><ele>572.6666666666667</ele><time>2026-04-22T09:58:07.999Z</time></trkpt><trkpt lat="42.405176749933126" lon="2.528221558559513"><ele>574.3333333333334</ele><time>2026-04-22T09:58:08.999Z</time></trkpt><trkpt lat="42.40535302766802" lon="2.528412824190978"><ele>576.0</ele><time>2026-04-22T09:58:09.999Z</time></trkpt><trkpt lat="42.40552806086872" lon="2.5285756436266835"><ele>573.3333333333334</ele><time>2026-04-22T09:58:10.999Z</time></trkpt><trkpt lat="42.40569529098349" lon="2.5287435671904586"><ele>570.6666666666667</ele><time>2026-04-22T09:58:11.999Z</time></trkpt><trkpt lat="42.40589392908314" lon="2.5288854451199665"><ele>568.0</ele><time>2026-04-22T09:58:12.999Z</time></trkpt><trkpt lat="42.40610854305224" lon="2.529001431407871"><ele>568.0</ele><time>2026-04-22T09:58:13.999Z</time></trkpt><trkpt lat="42.406304873863405" lon="2.529095609849693"><ele>568.0</ele><time>2026-04-22T09:58:14.999Z</time></trkpt><trkpt lat="42.40649121674682" lon="2.5291768965374177"><ele>568.0</ele><time>2026-04-22T09:58:15.999Z</time></trkpt><trkpt lat="42.406655888777244" lon="2.5292700476083376"><ele>566.0</ele><time>2026-04-22T09:58:16.999Z</time></trkpt><trkpt lat="42.40679389026817" lon="2.5294187476997636"><ele>564.0</ele><time>2026-04-22T09:58:17.999Z</time></trkpt><trkpt lat="42.40691369915545" lon="2.529602965940981"><ele>562.0</ele><time>2026-04-22T09:58:18.999Z</time></trkpt><trkpt lat="42.40704195206579" lon="2.5298261027082085"><ele>570.6666666666667</ele><time>2026-04-22T09:58:19.999Z</time></trkpt><trkpt lat="42.40716383707808" lon="2.530051085057326"><ele>579.3333333333334</ele><time>2026-04-22T09:58:20.999Z</time></trkpt><trkpt lat="42.407255704547" lon="2.5302616782430007"><ele>588.0</ele><time>2026-04-22T09:58:21.999Z</time></trkpt><trkpt lat="42.40731392481807" lon="2.5304680830876682"><ele>588.0</ele><time>2026-04-22T09:58:22.999Z</time></trkpt><trkpt lat="42.40732976815029" lon="2.5306892391516396"><ele>588.0</ele><time>2026-04-22T09:58:23.999Z</time></trkpt><trkpt lat="42.40730507423786" lon="2.530930318585317"><ele>588.0</ele><time>2026-04-22T09:58:24.999Z</time></trkpt><trkpt lat="42.407215583525954" lon="2.531166212727245"><ele>583.6666666666666</ele><time>2026-04-22T09:58:25.999Z</time></trkpt><trkpt lat="42.407130750806765" lon="2.531420912032727"><ele>579.3333333333333</ele><time>2026-04-22T09:58:26.999Z</time></trkpt><trkpt lat="42.407090268134105" lon="2.5316952383317703"><ele>575.0</ele><time>2026-04-22T09:58:27.999Z</time></trkpt><trkpt lat="42.40705035496291" lon="2.5319907696529467"><ele>574.3333333333333</ele><time>2026-04-22T09:58:28.999Z</time></trkpt><trkpt lat="42.407025261788725" lon="2.5322902966267167"><ele>573.6666666666666</ele><time>2026-04-22T09:58:29.999Z</time></trkpt><trkpt lat="42.40702501766367" lon="2.5325950111857094"><ele>573.0</ele><time>2026-04-22T09:58:30.999Z</time></trkpt><trkpt lat="42.40701698034739" lon="2.532884921467125"><ele>569.3333333333334</ele><time>2026-04-22T09:58:31.999Z</time></trkpt><trkpt lat="42.40701836029833" lon="2.5331520153311056"><ele>565.6666666666667</ele><time>2026-04-22T09:58:32.999Z</time></trkpt><trkpt lat="42.407005323954394" lon="2.5333741459009067"><ele>562.0</ele><time>2026-04-22T09:58:33.999Z</time></trkpt><trkpt lat="42.40698892697452" lon="2.533570337680759"><ele>562.0</ele><time>2026-04-22T09:58:34.999Z</time></trkpt><trkpt lat="42.40697245623016" lon="2.5337184278904457"><ele>562.0</ele><time>2026-04-22T09:58:35.999Z</time></trkpt><trkpt lat="42.40694837524069" lon="2.533854920544377"><ele>562.0</ele><time>2026-04-22T09:58:36.999Z</time></trkpt><trkpt lat="42.4068405661697" lon="2.5339304215788063"><ele>562.0</ele><time>2026-04-22T09:58:37.999Z</time></trkpt><trkpt lat="42.40671893598455" lon="2.5339881978970924"><ele>563.6</ele><time>2026-04-22T09:58:38.999Z</time></trkpt><trkpt lat="42.40662188416258" lon="2.5340842449027954"><ele>565.2</ele><time>2026-04-22T09:58:39.998Z</time></trkpt><trkpt lat="42.40653262827204" lon="2.5341677574763737"><ele>566.8</ele><time>2026-04-22T09:58:40.998Z</time></trkpt><trkpt lat="42.40645859916376" lon="2.5342739666117193"><ele>568.4</ele><time>2026-04-22T09:58:41.998Z</time></trkpt><trkpt lat="42.40639783572469" lon="2.534396859884883"><ele>570.0</ele><time>2026-04-22T09:58:42.998Z</time></trkpt><trkpt lat="42.40634784439764" lon="2.5345363997166235"><ele>568.25</ele><time>2026-04-22T09:58:43.998Z</time></trkpt><trkpt lat="42.40631900571645" lon="2.5346945935039744"><ele>566.5</ele><time>2026-04-22T09:58:44.998Z</time></trkpt><trkpt lat="42.406308406560704" lon="2.534883634299559"><ele>564.75</ele><time>2026-04-22T09:58:45.998Z</time></trkpt><trkpt lat="42.40633885687275" lon="2.535093514761956"><ele>563.0</ele><time>2026-04-22T09:58:46.998Z</time></trkpt><trkpt lat="42.40638570893726" lon="2.5353325846379917"><ele>566.0</ele><time>2026-04-22T09:58:48Z</time></trkpt><trkpt lat="42.406466696901475" lon="2.5355757741725378"><ele>569.0</ele><time>2026-04-22T09:58:49Z</time></trkpt><trkpt lat="42.406535230306055" lon="2.535838080795074"><ele>572.0</ele><time>2026-04-22T09:58:50Z</time></trkpt><trkpt lat="42.4065870528527" lon="2.5361277014821"><ele>569.3333333333333</ele><time>2026-04-22T09:58:51Z</time></trkpt><trkpt lat="42.406662568119444" lon="2.536405015773467"><ele>566.6666666666666</ele><time>2026-04-22T09:58:52Z</time></trkpt><trkpt lat="42.40669931672786" lon="2.5366811781876595"><ele>564.0</ele><time>2026-04-22T09:58:53Z</time></trkpt><trkpt lat="42.40672645050548" lon="2.536924540320395"><ele>560.3333333333334</ele><time>2026-04-22T09:58:54Z</time></trkpt><trkpt lat="42.40677189978994" lon="2.5371527902869357"><ele>556.6666666666667</ele><time>2026-04-22T09:58:55Z</time></trkpt><trkpt lat="42.40685556503528" lon="2.537369420752334"><ele>553.0</ele><time>2026-04-22T09:58:56Z</time></trkpt><trkpt lat="42.40696466052534" lon="2.5375651996456714"><ele>553.0</ele><time>2026-04-22T09:58:57Z</time></trkpt><trkpt lat="42.407095223958436" lon="2.53774257391433"><ele>553.0</ele><time>2026-04-22T09:58:58Z</time></trkpt><trkpt lat="42.40725546048196" lon="2.5378967645880603"><ele>553.0</ele><time>2026-04-22T09:58:59Z</time></trkpt><trkpt lat="42.407417070506554" lon="2.5380583260899066"><ele>555.0</ele><time>2026-04-22T09:59:00Z</time></trkpt><trkpt lat="42.40753476526892" lon="2.5382815644885137"><ele>557.0</ele><time>2026-04-22T09:59:01Z</time></trkpt><trkpt lat="42.40763584239655" lon="2.538488002288377"><ele>559.0</ele><time>2026-04-22T09:59:02Z</time></trkpt><trkpt lat="42.40771319722613" lon="2.538664777837412"><ele>554.5</ele><time>2026-04-22T09:59:03Z</time></trkpt><trkpt lat="42.40771848156761" lon="2.5388537545875267"><ele>550.0</ele><time>2026-04-22T09:59:04Z</time></trkpt><trkpt lat="42.40769790088079" lon="2.5390581293569467"><ele>545.5</ele><time>2026-04-22T09:59:05Z</time></trkpt><trkpt lat="42.407731954247986" lon="2.539245858761458"><ele>541.0</ele><time>2026-04-22T09:59:06Z</time></trkpt><trkpt lat="42.40779526041726" lon="2.5394470000507403"><ele>539.3333333333334</ele><time>2026-04-22T09:59:07Z</time></trkpt><trkpt lat="42.40791905804409" lon="2.5396332793943266"><ele>537.6666666666666</ele><time>2026-04-22T09:59:08Z</time></trkpt><trkpt lat="42.408085920868636" lon="2.539796114872989"><ele>536.0</ele><time>2026-04-22T09:59:09Z</time></trkpt><trkpt lat="42.40827374831622" lon="2.5399180093658513"><ele>539.3333333333333</ele><time>2026-04-22T09:59:10Z</time></trkpt><trkpt lat="42.40846811906252" lon="2.5400277626186285"><ele>542.6666666666666</ele><time>2026-04-22T09:59:11Z</time></trkpt><trkpt lat="42.40864212011614" lon="2.540129488850461"><ele>546.0</ele><time>2026-04-22T09:59:12Z</time></trkpt><trkpt lat="42.40878690932905" lon="2.5402409191725153"><ele>544.3333333333334</ele><time>2026-04-22T09:59:13Z</time></trkpt><trkpt lat="42.40891929128241" lon="2.5403666958438773"><ele>542.6666666666667</ele><time>2026-04-22T09:59:14Z</time></trkpt><trkpt lat="42.40904942274732" lon="2.5404936353629886"><ele>541.0</ele><time>2026-04-22T09:59:15Z</time></trkpt><trkpt lat="42.40917383975253" lon="2.540618690893709"><ele>541.0</ele><time>2026-04-22T09:59:16Z</time></trkpt><trkpt lat="42.409287251054536" lon="2.540756302452602"><ele>541.0</ele><time>2026-04-22T09:59:17Z</time></trkpt><trkpt lat="42.40938633824973" lon="2.540902393552453"><ele>541.0</ele><time>2026-04-22T09:59:18Z</time></trkpt><trkpt lat="42.40947568864601" lon="2.54105347244025"><ele>541.0</ele><time>2026-04-22T09:59:19Z</time></trkpt><trkpt lat="42.409565598492534" lon="2.5412070697479128"><ele>543.3333333333334</ele><time>2026-04-22T09:59:20Z</time></trkpt><trkpt lat="42.409634867282996" lon="2.5413934941952827"><ele>545.6666666666666</ele><time>2026-04-22T09:59:21Z</time></trkpt><trkpt lat="42.40970243393713" lon="2.5415902775175563"><ele>548.0</ele><time>2026-04-22T09:59:22Z</time></trkpt><trkpt lat="42.409788081263656" lon="2.541788240397662"><ele>548.0</ele><time>2026-04-22T09:59:23Z</time></trkpt><trkpt lat="42.40987146549059" lon="2.5419931317976476"><ele>548.0</ele><time>2026-04-22T09:59:24Z</time></trkpt><trkpt lat="42.40997265712764" lon="2.542188855884236"><ele>548.0</ele><time>2026-04-22T09:59:25Z</time></trkpt><trkpt lat="42.41006540241186" lon="2.5423764999619105"><ele>543.6666666666666</ele><time>2026-04-22T09:59:26Z</time></trkpt><trkpt lat="42.41012707468593" lon="2.5425800118785795"><ele>539.3333333333334</ele><time>2026-04-22T09:59:27Z</time></trkpt><trkpt lat="42.41017232359338" lon="2.542786417354523"><ele>535.0</ele><time>2026-04-22T09:59:28Z</time></trkpt><trkpt lat="42.41021038971266" lon="2.542986108492746"><ele>532.5</ele><time>2026-04-22T09:59:29Z</time></trkpt><trkpt lat="42.410233266406934" lon="2.543166242186016"><ele>530.0</ele><time>2026-04-22T09:59:30Z</time></trkpt><trkpt lat="42.41022654065868" lon="2.5433442099946584"><ele>527.5</ele><time>2026-04-22T09:59:31Z</time></trkpt><trkpt lat="42.41020110606048" lon="2.543515705150945"><ele>525.0</ele><time>2026-04-22T09:59:32Z</time></trkpt><trkpt lat="42.41019001297903" lon="2.5436836063791546"><ele>523.5</ele><time>2026-04-22T09:59:33Z</time></trkpt><trkpt lat="42.410205590043205" lon="2.5438290805521024"><ele>522.0</ele><time>2026-04-22T09:59:34Z</time></trkpt><trkpt lat="42.41024664023905" lon="2.5439648936700507"><ele>520.5</ele><time>2026-04-22T09:59:34.999Z</time></trkpt><trkpt lat="42.41032299726016" lon="2.5440812726776207"><ele>519.0</ele><time>2026-04-22T09:59:35.999Z</time></trkpt><trkpt lat="42.410430623577476" lon="2.5441739576150684"><ele>521.2</ele><time>2026-04-22T09:59:36.999Z</time></trkpt><trkpt lat="42.410537043049956" lon="2.544258632837862"><ele>523.4</ele><time>2026-04-22T09:59:37.999Z</time></trkpt><trkpt lat="42.410620033555716" lon="2.544362394262732"><ele>525.6</ele><time>2026-04-22T09:59:38.999Z</time></trkpt><trkpt lat="42.41070629183771" lon="2.544450420999094"><ele>527.8</ele><time>2026-04-22T09:59:39.999Z</time></trkpt><trkpt lat="42.410774407211335" lon="2.544536128233542"><ele>530.0</ele><time>2026-04-22T09:59:40.999Z</time></trkpt><trkpt lat="42.410814398382556" lon="2.5446244357544003"><ele>531.6666666666666</ele><time>2026-04-22T09:59:41.999Z</time></trkpt><trkpt lat="42.410801968109915" lon="2.5447242839330633"><ele>533.3333333333333</ele><time>2026-04-22T09:59:42.999Z</time></trkpt><trkpt lat="42.41078032858649" lon="2.5448129261052133"><ele>535.0</ele><time>2026-04-22T09:59:43.999Z</time></trkpt><trkpt lat="42.41073480329219" lon="2.5448975960764266"><ele>536.6666666666666</ele><time>2026-04-22T09:59:44.999Z</time></trkpt><trkpt lat="42.41065735327469" lon="2.544977690341237"><ele>538.3333333333334</ele><time>2026-04-22T09:59:45.999Z</time></trkpt><trkpt lat="42.41056448772173" lon="2.5450906858531948"><ele>540.0</ele><time>2026-04-22T09:59:46.999Z</time></trkpt><trkpt lat="42.41047992374828" lon="2.5452362903568297"><ele>537.25</ele><time>2026-04-22T09:59:47.999Z</time></trkpt><trkpt lat="42.41038456579755" lon="2.545380054496435"><ele>534.5</ele><time>2026-04-22T09:59:48.999Z</time></trkpt><trkpt lat="42.4102913528448" lon="2.5455384910842613"><ele>531.75</ele><time>2026-04-22T09:59:49.999Z</time></trkpt><trkpt lat="42.410211438822174" lon="2.5456915565101856"><ele>529.0</ele><time>2026-04-22T09:59:50.999Z</time></trkpt><trkpt lat="42.410111134265826" lon="2.545786750879726"><ele>529.0</ele><time>2026-04-22T09:59:51.999Z</time></trkpt><trkpt lat="42.410000348666415" lon="2.545833909022325"><ele>529.0</ele><time>2026-04-22T09:59:52.999Z</time></trkpt><trkpt lat="42.409890351936845" lon="2.5458988674259038"><ele>529.0</ele><time>2026-04-22T09:59:53.999Z</time></trkpt><trkpt lat="42.409792924062465" lon="2.5459735424684418"><ele>529.0</ele><time>2026-04-22T09:59:54.999Z</time></trkpt><trkpt lat="42.40971679634461" lon="2.546093885697013"><ele>530.75</ele><time>2026-04-22T09:59:55.999Z</time></trkpt><trkpt lat="42.409677808109485" lon="2.546248464902591"><ele>532.5</ele><time>2026-04-22T09:59:56.999Z</time></trkpt><trkpt lat="42.4096707661866" lon="2.5464397327704162"><ele>534.25</ele><time>2026-04-22T09:59:57.999Z</time></trkpt><trkpt lat="42.409679105053634" lon="2.546642935226573"><ele>536.0</ele><time>2026-04-22T09:59:58.999Z</time></trkpt><trkpt lat="42.40969054337572" lon="2.5468290284897246"><ele>536.0</ele><time>2026-04-22T09:59:59.999Z</time></trkpt><trkpt lat="42.40971669968217" lon="2.546996173445689"><ele>536.0</ele><time>2026-04-22T10:00:00.999Z</time></trkpt><trkpt lat="42.40978063971278" lon="2.547178582852565"><ele>536.0</ele><time>2026-04-22T10:00:01.999Z</time></trkpt><trkpt lat="42.40988031401177" lon="2.547375328515517"><ele>533.3333333333333</ele><time>2026-04-22T10:00:02.999Z</time></trkpt><trkpt lat="42.409950257582246" lon="2.547598607093156"><ele>530.6666666666666</ele><time>2026-04-22T10:00:03.999Z</time></trkpt><trkpt lat="42.41002115488656" lon="2.5478248685963165"><ele>528.0</ele><time>2026-04-22T10:00:04.999Z</time></trkpt><trkpt lat="42.4100740907479" lon="2.5480443532630987"><ele>527.3333333333334</ele><time>2026-04-22T10:00:05.999Z</time></trkpt><trkpt lat="42.41010017957518" lon="2.5482736296639144"><ele>526.6666666666667</ele><time>2026-04-22T10:00:06.999Z</time></trkpt><trkpt lat="42.41010587135111" lon="2.548538491755134"><ele>526.0</ele><time>2026-04-22T10:00:07.999Z</time></trkpt><trkpt lat="42.41011430636095" lon="2.5488216248664197"><ele>525.0</ele><time>2026-04-22T10:00:08.999Z</time></trkpt><trkpt lat="42.41013529785871" lon="2.549107778360464"><ele>524.0</ele><time>2026-04-22T10:00:09.999Z</time></trkpt><trkpt lat="42.41016003045839" lon="2.549366350218824"><ele>523.0</ele><time>2026-04-22T10:00:10.999Z</time></trkpt><trkpt lat="42.41018345832532" lon="2.5496112815729077"><ele>522.6666666666667</ele><time>2026-04-22T10:00:11.999Z</time></trkpt><trkpt lat="42.41020139755837" lon="2.549833831071515"><ele>522.3333333333334</ele><time>2026-04-22T10:00:12.999Z</time></trkpt><trkpt lat="42.410186376698945" lon="2.5500514626459023"><ele>522.0</ele><time>2026-04-22T10:00:13.999Z</time></trkpt><trkpt lat="42.4101543162469" lon="2.5502559097309567"><ele>520.75</ele><time>2026-04-22T10:00:14.999Z</time></trkpt><trkpt lat="42.410126968897536" lon="2.550448289527615"><ele>519.5</ele><time>2026-04-22T10:00:15.999Z</time></trkpt><trkpt lat="42.410102846885565" lon="2.550636570047336"><ele>518.25</ele><time>2026-04-22T10:00:16.999Z</time></trkpt><trkpt lat="42.41012698655719" lon="2.5508469256361046"><ele>517.0</ele><time>2026-04-22T10:00:17.999Z</time></trkpt><trkpt lat="42.410202494785594" lon="2.5510248388695835"><ele>517.0</ele><time>2026-04-22T10:00:18.999Z</time></trkpt><trkpt lat="42.410328355440036" lon="2.5511539756887265"><ele>517.0</ele><time>2026-04-22T10:00:19.999Z</time></trkpt><trkpt lat="42.410472182907434" lon="2.5512484942121323"><ele>517.0</ele><time>2026-04-22T10:00:20.999Z</time></trkpt><trkpt lat="42.41064005055549" lon="2.5512939037824665"><ele>517.3333333333334</ele><time>2026-04-22T10:00:21.999Z</time></trkpt><trkpt lat="42.41082014259944" lon="2.551339409129943"><ele>517.6666666666666</ele><time>2026-04-22T10:00:22.999Z</time></trkpt><trkpt lat="42.41100064765867" lon="2.5513696858106565"><ele>518.0</ele><time>2026-04-22T10:00:23.999Z</time></trkpt><trkpt lat="42.411163228184066" lon="2.5514976280043897"><ele>518.0</ele><time>2026-04-22T10:00:24.999Z</time></trkpt><trkpt lat="42.41131147098412" lon="2.5516294691250474"><ele>518.0</ele><time>2026-04-22T10:00:25.999Z</time></trkpt><trkpt lat="42.411438988780404" lon="2.551746388910537"><ele>518.0</ele><time>2026-04-22T10:00:26.999Z</time></trkpt><trkpt lat="42.41154127066377" lon="2.5518652294882473"><ele>519.0</ele><time>2026-04-22T10:00:27.999Z</time></trkpt><trkpt lat="42.411602683528315" lon="2.5520267514485964"><ele>520.0</ele><time>2026-04-22T10:00:28.999Z</time></trkpt><trkpt lat="42.411631924580426" lon="2.552243372542884"><ele>521.0</ele><time>2026-04-22T10:00:29.999Z</time></trkpt><trkpt lat="42.41166046914118" lon="2.552491857938591"><ele>521.0</ele><time>2026-04-22T10:00:30.999Z</time></trkpt><trkpt lat="42.4117049332317" lon="2.5527480964134934"><ele>521.0</ele><time>2026-04-22T10:00:31.999Z</time></trkpt><trkpt lat="42.41178108068453" lon="2.5529560410225094"><ele>521.0</ele><time>2026-04-22T10:00:32.998Z</time></trkpt><trkpt lat="42.41182602883124" lon="2.553154027268157"><ele>520.6666666666666</ele><time>2026-04-22T10:00:33.998Z</time></trkpt><trkpt lat="42.4118411989201" lon="2.5533673955131566"><ele>520.3333333333334</ele><time>2026-04-22T10:00:34.998Z</time></trkpt><trkpt lat="42.41181106279342" lon="2.5535990290553032"><ele>520.0</ele><time>2026-04-22T10:00:35.998Z</time></trkpt><trkpt lat="42.41175459959111" lon="2.553841907630014"><ele>519.6666666666667</ele><time>2026-04-22T10:00:36.998Z</time></trkpt><trkpt lat="42.41169915154875" lon="2.5540863404827694"><ele>519.3333333333334</ele><time>2026-04-22T10:00:37.998Z</time></trkpt><trkpt lat="42.41166496465429" lon="2.554321118058887"><ele>519.0</ele><time>2026-04-22T10:00:38.998Z</time></trkpt><trkpt lat="42.411652018620416" lon="2.554528211256496"><ele>516.0</ele><time>2026-04-22T10:00:39.998Z</time></trkpt><trkpt lat="42.41166187485182" lon="2.554719653943926"><ele>513.0</ele><time>2026-04-22T10:00:40.998Z</time></trkpt><trkpt lat="42.411723505112406" lon="2.5549054515219947"><ele>510.0</ele><time>2026-04-22T10:00:41.998Z</time></trkpt><trkpt lat="42.41182978047869" lon="2.5550807758981477"><ele>510.0</ele><time>2026-04-22T10:00:42.998Z</time></trkpt><trkpt lat="42.411972996026186" lon="2.55524616842786"><ele>510.0</ele><time>2026-04-22T10:00:43.998Z</time></trkpt><trkpt lat="42.41213730534297" lon="2.555396956340068"><ele>510.0</ele><time>2026-04-22T10:00:44.998Z</time></trkpt><trkpt lat="42.412299544809805" lon="2.5555201081442043"><ele>512.3333333333334</ele><time>2026-04-22T10:00:45.998Z</time></trkpt><trkpt lat="42.41245857905803" lon="2.555636477920807"><ele>514.6666666666667</ele><time>2026-04-22T10:00:46.998Z</time></trkpt><trkpt lat="42.41259719283483" lon="2.555792289256674"><ele>517.0</ele><time>2026-04-22T10:00:47.998Z</time></trkpt><trkpt lat="42.41271684782736" lon="2.5560045976748875"><ele>516.6666666666667</ele><time>2026-04-22T10:00:48.998Z</time></trkpt><trkpt lat="42.41283421919468" lon="2.556210624492624"><ele>516.3333333333334</ele><time>2026-04-22T10:00:49.998Z</time></trkpt><trkpt lat="42.41293325969407" lon="2.5564024892254182"><ele>516.0</ele><time>2026-04-22T10:00:50.998Z</time></trkpt><trkpt lat="42.41300750027702" lon="2.5565892192849353"><ele>516.0</ele><time>2026-04-22T10:00:51.998Z</time></trkpt><trkpt lat="42.413076446780934" lon="2.5567619200712643"><ele>516.0</ele><time>2026-04-22T10:00:52.998Z</time></trkpt><trkpt lat="42.41322593495263" lon="2.556874191340645"><ele>516.0</ele><time>2026-04-22T10:00:54Z</time></trkpt><trkpt lat="42.41335384015669" lon="2.5569631195000877"><ele>513.0</ele><time>2026-04-22T10:00:55Z</time></trkpt><trkpt lat="42.413446661798275" lon="2.557090517972327"><ele>510.0</ele><time>2026-04-22T10:00:56Z</time></trkpt><trkpt lat="42.41348328755241" lon="2.5572556644886966"><ele>507.0</ele><time>2026-04-22T10:00:57Z</time></trkpt><trkpt lat="42.413468316503156" lon="2.557428261965549"><ele>504.0</ele><time>2026-04-22T10:00:58Z</time></trkpt><trkpt lat="42.41341194360354" lon="2.557609036556107"><ele>504.0</ele><time>2026-04-22T10:00:59Z</time></trkpt><trkpt lat="42.41338920361915" lon="2.5578212449385167"><ele>504.0</ele><time>2026-04-22T10:01:00Z</time></trkpt><trkpt lat="42.41339871185101" lon="2.558058415449753"><ele>504.0</ele><time>2026-04-22T10:01:01Z</time></trkpt><trkpt lat="42.4134117288634" lon="2.5583193597954748"><ele>502.66666666666663</ele><time>2026-04-22T10:01:02Z</time></trkpt><trkpt lat="42.413451310367584" lon="2.558577850748738"><ele>501.3333333333333</ele><time>2026-04-22T10:01:03Z</time></trkpt><trkpt lat="42.41349307150208" lon="2.558841715179112"><ele>500.0</ele><time>2026-04-22T10:01:04Z</time></trkpt><trkpt lat="42.41354723188522" lon="2.5591084551284458"><ele>499.3333333333333</ele><time>2026-04-22T10:01:05Z</time></trkpt><trkpt lat="42.41357954491715" lon="2.5593763991367355"><ele>498.66666666666663</ele><time>2026-04-22T10:01:06Z</time></trkpt><trkpt lat="42.41360830024509" lon="2.5596135313050716"><ele>498.0</ele><time>2026-04-22T10:01:07Z</time></trkpt><trkpt lat="42.413628110190224" lon="2.5598369466798054"><ele>497.0</ele><time>2026-04-22T10:01:08Z</time></trkpt><trkpt lat="42.413663876928474" lon="2.560053641057141"><ele>496.0</ele><time>2026-04-22T10:01:09Z</time></trkpt><trkpt lat="42.41373793227499" lon="2.560275029760188"><ele>495.0</ele><time>2026-04-22T10:01:10Z</time></trkpt><trkpt lat="42.41381521243688" lon="2.560476319352769"><ele>500.75</ele><time>2026-04-22T10:01:11Z</time></trkpt><trkpt lat="42.41387618154463" lon="2.5606694450946055"><ele>506.5</ele><time>2026-04-22T10:01:12Z</time></trkpt><trkpt lat="42.41392739680796" lon="2.560846026858693"><ele>512.25</ele><time>2026-04-22T10:01:13Z</time></trkpt><trkpt lat="42.413995455876446" lon="2.5610155186190986"><ele>518.0</ele><time>2026-04-22T10:01:14Z</time></trkpt><trkpt lat="42.41410864169274" lon="2.5611234496609807"><ele>515.25</ele><time>2026-04-22T10:01:15Z</time></trkpt><trkpt lat="42.41418955514697" lon="2.5612450823706663"><ele>512.5</ele><time>2026-04-22T10:01:16Z</time></trkpt><trkpt lat="42.414220523282694" lon="2.561387196483752"><ele>509.75</ele><time>2026-04-22T10:01:17Z</time></trkpt><trkpt lat="42.41417925785066" lon="2.5615441019154845"><ele>507.0</ele><time>2026-04-22T10:01:18Z</time></trkpt><trkpt lat="42.41409751595073" lon="2.5617014061636687"><ele>507.0</ele><time>2026-04-22T10:01:19Z</time></trkpt><trkpt lat="42.41406165796133" lon="2.5618444337195445"><ele>507.0</ele><time>2026-04-22T10:01:20Z</time></trkpt><trkpt lat="42.41407993591532" lon="2.5620115159964327"><ele>507.0</ele><time>2026-04-22T10:01:21Z</time></trkpt><trkpt lat="42.41408170647143" lon="2.562218887337061"><ele>507.0</ele><time>2026-04-22T10:01:22Z</time></trkpt><trkpt lat="42.41411640923275" lon="2.562439487224349"><ele>505.66666666666663</ele><time>2026-04-22T10:01:23Z</time></trkpt><trkpt lat="42.41413128399799" lon="2.562674905435575"><ele>504.3333333333333</ele><time>2026-04-22T10:01:24Z</time></trkpt><trkpt lat="42.414159254489604" lon="2.562920888189043"><ele>503.0</ele><time>2026-04-22T10:01:25Z</time></trkpt><trkpt lat="42.41422069183254" lon="2.5631727485399654"><ele>500.66666666666663</ele><time>2026-04-22T10:01:26Z</time></trkpt><trkpt lat="42.414296348617036" lon="2.5634273765514735"><ele>498.33333333333337</ele><time>2026-04-22T10:01:27Z</time></trkpt><trkpt lat="42.4143658196097" lon="2.5636642294342424"><ele>496.0</ele><time>2026-04-22T10:01:28Z</time></trkpt><trkpt lat="42.41443383619531" lon="2.563887746761861"><ele>494.33333333333337</ele><time>2026-04-22T10:01:29Z</time></trkpt><trkpt lat="42.414506391818165" lon="2.5641008805801375"><ele>492.66666666666663</ele><time>2026-04-22T10:01:30Z</time></trkpt><trkpt lat="42.41457224610022" lon="2.564320844289167"><ele>491.0</ele><time>2026-04-22T10:01:31Z</time></trkpt><trkpt lat="42.41464290637392" lon="2.5645179774441154"><ele>497.25</ele><time>2026-04-22T10:01:32Z</time></trkpt><trkpt lat="42.41472720956939" lon="2.5646883364047164"><ele>503.5</ele><time>2026-04-22T10:01:33Z</time></trkpt><trkpt lat="42.41476865565895" lon="2.564881496435028"><ele>509.75</ele><time>2026-04-22T10:01:34Z</time></trkpt><trkpt lat="42.414754953313555" lon="2.5650696189142526"><ele>516.0</ele><time>2026-04-22T10:01:35Z</time></trkpt><trkpt lat="42.414718109312275" lon="2.565244428387302"><ele>513.3333333333334</ele><time>2026-04-22T10:01:36Z</time></trkpt><trkpt lat="42.414718154787415" lon="2.565441395321449"><ele>510.6666666666667</ele><time>2026-04-22T10:01:37Z</time></trkpt><trkpt lat="42.414775971088716" lon="2.5656413161426697"><ele>508.0</ele><time>2026-04-22T10:01:37.999Z</time></trkpt><trkpt lat="42.41486907235274" lon="2.5658089428354813"><ele>508.0</ele><time>2026-04-22T10:01:38.999Z</time></trkpt><trkpt lat="42.414949693017554" lon="2.5659678813066784"><ele>508.0</ele><time>2026-04-22T10:01:39.999Z</time></trkpt><trkpt lat="42.41498712044388" lon="2.566151860664003"><ele>508.0</ele><time>2026-04-22T10:01:40.999Z</time></trkpt><trkpt lat="42.41497469635817" lon="2.5663528288521014"><ele>508.0</ele><time>2026-04-22T10:01:41.999Z</time></trkpt><trkpt lat="42.4149362287228" lon="2.566556720300545"><ele>506.0</ele><time>2026-04-22T10:01:42.999Z</time></trkpt><trkpt lat="42.4149585022547" lon="2.5667648309939826"><ele>504.0</ele><time>2026-04-22T10:01:43.999Z</time></trkpt><trkpt lat="42.415049182998374" lon="2.56695299877956"><ele>502.0</ele><time>2026-04-22T10:01:44.999Z</time></trkpt><trkpt lat="42.41514421892283" lon="2.5671430722544284"><ele>499.0</ele><time>2026-04-22T10:01:45.999Z</time></trkpt><trkpt lat="42.41525121443787" lon="2.5673333985274875"><ele>496.0</ele><time>2026-04-22T10:01:46.999Z</time></trkpt><trkpt lat="42.415356777061426" lon="2.5675216702589156"><ele>493.0</ele><time>2026-04-22T10:01:47.999Z</time></trkpt><trkpt lat="42.41545548237264" lon="2.567706539826675"><ele>496.75</ele><time>2026-04-22T10:01:48.999Z</time></trkpt><trkpt lat="42.4155367086834" lon="2.567881255009783"><ele>500.5</ele><time>2026-04-22T10:01:49.999Z</time></trkpt><trkpt lat="42.41558259858192" lon="2.568057323817356"><ele>504.25</ele><time>2026-04-22T10:01:50.999Z</time></trkpt><trkpt lat="42.41564246135344" lon="2.5682054990882017"><ele>508.0</ele><time>2026-04-22T10:01:51.999Z</time></trkpt><trkpt lat="42.415730425323126" lon="2.5683172059841417"><ele>508.0</ele><time>2026-04-22T10:01:52.999Z</time></trkpt><trkpt lat="42.41588563581338" lon="2.5683538688817302"><ele>508.0</ele><time>2026-04-22T10:01:53.999Z</time></trkpt><trkpt lat="42.4160491532752" lon="2.5684087834317832"><ele>508.0</ele><time>2026-04-22T10:01:54.999Z</time></trkpt><trkpt lat="42.41621051506329" lon="2.5685049392834887"><ele>511.33333333333337</ele><time>2026-04-22T10:01:55.999Z</time></trkpt><trkpt lat="42.41637169195549" lon="2.5685752405543822"><ele>514.6666666666666</ele><time>2026-04-22T10:01:56.999Z</time></trkpt><trkpt lat="42.41650831759762" lon="2.5687033588829604"><ele>518.0</ele><time>2026-04-22T10:01:57.999Z</time></trkpt><trkpt lat="42.41662442125319" lon="2.568836662583776"><ele>512.5</ele><time>2026-04-22T10:01:58.999Z</time></trkpt><trkpt lat="42.41673870351338" lon="2.5689481530799254"><ele>507.0</ele><time>2026-04-22T10:01:59.999Z</time></trkpt><trkpt lat="42.416875126875745" lon="2.568996621822892"><ele>501.5</ele><time>2026-04-22T10:02:00.999Z</time></trkpt><trkpt lat="42.417032600019425" lon="2.569001912874375"><ele>496.0</ele><time>2026-04-22T10:02:01.999Z</time></trkpt><trkpt lat="42.4171862628967" lon="2.5689696501976726"><ele>496.0</ele><time>2026-04-22T10:02:02.999Z</time></trkpt><trkpt lat="42.41732843809133" lon="2.56897666521673"><ele>496.0</ele><time>2026-04-22T10:02:03.999Z</time></trkpt><trkpt lat="42.417459677294815" lon="2.5690599948518535"><ele>496.0</ele><time>2026-04-22T10:02:04.999Z</time></trkpt><trkpt lat="42.41758017787007" lon="2.5691938267415573"><ele>496.0</ele><time>2026-04-22T10:02:05.999Z</time></trkpt><trkpt lat="42.41765522616519" lon="2.5694030522116402"><ele>491.33333333333337</ele><time>2026-04-22T10:02:06.999Z</time></trkpt><trkpt lat="42.41772992271527" lon="2.5696208918212804"><ele>486.66666666666663</ele><time>2026-04-22T10:02:07.999Z</time></trkpt><trkpt lat="42.41779500506787" lon="2.569827712925973"><ele>482.0</ele><time>2026-04-22T10:02:08.999Z</time></trkpt><trkpt lat="42.41784004737516" lon="2.5700296321628624"><ele>482.0</ele><time>2026-04-22T10:02:09.999Z</time></trkpt><trkpt lat="42.41782296167273" lon="2.5702430919565455"><ele>482.0</ele><time>2026-04-22T10:02:10.999Z</time></trkpt><trkpt lat="42.417815590757534" lon="2.5704529160991307"><ele>482.0</ele><time>2026-04-22T10:02:11.999Z</time></trkpt><trkpt lat="42.417846839548474" lon="2.5706636190697303"><ele>482.3333333333333</ele><time>2026-04-22T10:02:12.999Z</time></trkpt><trkpt lat="42.41792423338111" lon="2.570879780445652"><ele>482.66666666666663</ele><time>2026-04-22T10:02:13.999Z</time></trkpt><trkpt lat="42.41806159613843" lon="2.571065161454948"><ele>483.0</ele><time>2026-04-22T10:02:14.999Z</time></trkpt><trkpt lat="42.41819537571683" lon="2.5712618209532794"><ele>483.0</ele><time>2026-04-22T10:02:15.999Z</time></trkpt><trkpt lat="42.41832200161368" lon="2.571452377515162"><ele>483.0</ele><time>2026-04-22T10:02:16.999Z</time></trkpt><trkpt lat="42.41843440843799" lon="2.571620036715666"><ele>483.0</ele><time>2026-04-22T10:02:17.999Z</time></trkpt><trkpt lat="42.41854125903034" lon="2.5717737264746536"><ele>483.0</ele><time>2026-04-22T10:02:18.999Z</time></trkpt><trkpt lat="42.41868028236189" lon="2.5718641035332075"><ele>483.0</ele><time>2026-04-22T10:02:19.999Z</time></trkpt><trkpt lat="42.41882938558556" lon="2.5718950343216957"><ele>483.0</ele><time>2026-04-22T10:02:20.999Z</time></trkpt><trkpt lat="42.41898571394053" lon="2.5718487771230563"><ele>485.0</ele><time>2026-04-22T10:02:21.999Z</time></trkpt><trkpt lat="42.41912331827059" lon="2.5717379546513492"><ele>487.0</ele><time>2026-04-22T10:02:22.999Z</time></trkpt><trkpt lat="42.41926778396905" lon="2.571640620358395"><ele>489.0</ele><time>2026-04-22T10:02:23.999Z</time></trkpt><trkpt lat="42.41940229383484" lon="2.571560371189716"><ele>489.0</ele><time>2026-04-22T10:02:24.999Z</time></trkpt><trkpt lat="42.41954336815009" lon="2.5715475755875987"><ele>489.0</ele><time>2026-04-22T10:02:25.999Z</time></trkpt><trkpt lat="42.41968670419957" lon="2.5715697403986963"><ele>489.0</ele><time>2026-04-22T10:02:26.999Z</time></trkpt><trkpt lat="42.41980614269603" lon="2.5716853957360652"><ele>489.0</ele><time>2026-04-22T10:02:27.999Z</time></trkpt><trkpt lat="42.419898293664076" lon="2.5718342939545917"><ele>490.0</ele><time>2026-04-22T10:02:28.999Z</time></trkpt><trkpt lat="42.41997388311842" lon="2.5720190353841397"><ele>491.0</ele><time>2026-04-22T10:02:29.999Z</time></trkpt><trkpt lat="42.42005810893271" lon="2.5722067667166497"><ele>492.0</ele><time>2026-04-22T10:02:30.999Z</time></trkpt><trkpt lat="42.42018401327029" lon="2.5723443642021286"><ele>493.33333333333337</ele><time>2026-04-22T10:02:31.999Z</time></trkpt><trkpt lat="42.4203455155728" lon="2.572448029166259"><ele>494.6666666666667</ele><time>2026-04-22T10:02:32.999Z</time></trkpt><trkpt lat="42.42050885945621" lon="2.5725273723099438"><ele>496.0</ele><time>2026-04-22T10:02:33.999Z</time></trkpt><trkpt lat="42.42063342277327" lon="2.5726618468336726"><ele>496.0</ele><time>2026-04-22T10:02:34.999Z</time></trkpt><trkpt lat="42.42073047205966" lon="2.5728372458444753"><ele>496.0</ele><time>2026-04-22T10:02:35.998Z</time></trkpt><trkpt lat="42.42083953690425" lon="2.57305016946363"><ele>496.0</ele><time>2026-04-22T10:02:36.998Z</time></trkpt><trkpt lat="42.42091940262537" lon="2.5732939948134423"><ele>488.33333333333337</ele><time>2026-04-22T10:02:37.998Z</time></trkpt><trkpt lat="42.42098604815053" lon="2.5735274935158783"><ele>480.66666666666663</ele><time>2026-04-22T10:02:38.998Z</time></trkpt><trkpt lat="42.42104498016999" lon="2.573755424543115"><ele>473.0</ele><time>2026-04-22T10:02:39.998Z</time></trkpt><trkpt lat="42.42109456578129" lon="2.573973833414278"><ele>475.75</ele><time>2026-04-22T10:02:40.998Z</time></trkpt><trkpt lat="42.421135833457264" lon="2.5741548850037295"><ele>478.5</ele><time>2026-04-22T10:02:41.998Z</time></trkpt><trkpt lat="42.421199140771385" lon="2.5743104024393437"><ele>481.25</ele><time>2026-04-22T10:02:42.998Z</time></trkpt><trkpt lat="42.42131182723679" lon="2.574429697536848"><ele>484.0</ele><time>2026-04-22T10:02:43.998Z</time></trkpt><trkpt lat="42.4214460331468" lon="2.5744969620038716"><ele>484.0</ele><time>2026-04-22T10:02:44.998Z</time></trkpt><trkpt lat="42.42160893934802" lon="2.5744970624433"><ele>484.0</ele><time>2026-04-22T10:02:45.998Z</time></trkpt><trkpt lat="42.421784009590446" lon="2.574474777846272"><ele>484.0</ele><time>2026-04-22T10:02:46.998Z</time></trkpt><trkpt lat="42.4219610772442" lon="2.5744823193363775"><ele>484.0</ele><time>2026-04-22T10:02:47.998Z</time></trkpt><trkpt lat="42.42212686336107" lon="2.5744650499516064"><ele>484.0</ele><time>2026-04-22T10:02:48.998Z</time></trkpt><trkpt lat="42.42228708038607" lon="2.574500503793365"><ele>484.0</ele><time>2026-04-22T10:02:49.998Z</time></trkpt><trkpt lat="42.42244603197702" lon="2.5745788227895763"><ele>476.0</ele><time>2026-04-22T10:02:50.998Z</time></trkpt><trkpt lat="42.42258997973298" lon="2.574735290862485"><ele>468.0</ele><time>2026-04-22T10:02:51.998Z</time></trkpt><trkpt lat="42.422749957689696" lon="2.574893014081342"><ele>460.0</ele><time>2026-04-22T10:02:52.998Z</time></trkpt><trkpt lat="42.422920847027626" lon="2.5750604185275305"><ele>457.0</ele><time>2026-04-22T10:02:53.998Z</time></trkpt><trkpt lat="42.423109731488736" lon="2.5752185698427335"><ele>454.0</ele><time>2026-04-22T10:02:54.998Z</time></trkpt><trkpt lat="42.42325990234337" lon="2.5753789377188094"><ele>451.0</ele><time>2026-04-22T10:02:55.998Z</time></trkpt><trkpt lat="42.42339194414073" lon="2.5755136221826826"><ele>451.0</ele><time>2026-04-22T10:02:56.998Z</time></trkpt><trkpt lat="42.42353624273129" lon="2.575608538441788"><ele>451.0</ele><time>2026-04-22T10:02:57.998Z</time></trkpt><trkpt lat="42.42369483496586" lon="2.575640372880654"><ele>451.0</ele><time>2026-04-22T10:02:58.998Z</time></trkpt><trkpt lat="42.423864383468114" lon="2.5756151236982934"><ele>454.6666666666667</ele><time>2026-04-22T10:03:00Z</time></trkpt><trkpt lat="42.42401991881292" lon="2.5755771139398296"><ele>458.33333333333337</ele><time>2026-04-22T10:03:01Z</time></trkpt><trkpt lat="42.4241645731347" lon="2.575562357732809"><ele>462.0</ele><time>2026-04-22T10:03:02Z</time></trkpt><trkpt lat="42.42431567392477" lon="2.5755568278512824"><ele>462.0</ele><time>2026-04-22T10:03:03Z</time></trkpt><trkpt lat="42.424458892648126" lon="2.5755924938458"><ele>462.0</ele><time>2026-04-22T10:03:04Z</time></trkpt><trkpt lat="42.424585068840535" lon="2.575589256432022"><ele>462.0</ele><time>2026-04-22T10:03:05Z</time></trkpt><trkpt lat="42.42469864676144" lon="2.5756387163005514"><ele>462.0</ele><time>2026-04-22T10:03:06Z</time></trkpt><trkpt lat="42.42476665489608" lon="2.5757715111653616"><ele>465.25</ele><time>2026-04-22T10:03:07Z</time></trkpt><trkpt lat="42.424824168241415" lon="2.5759352200100314"><ele>468.5</ele><time>2026-04-22T10:03:08Z</time></trkpt><trkpt lat="42.42485492058169" lon="2.576131427909541"><ele>471.75</ele><time>2026-04-22T10:03:09Z</time></trkpt><trkpt lat="42.424845457144336" lon="2.576338538346689"><ele>475.0</ele><time>2026-04-22T10:03:10Z</time></trkpt><trkpt lat="42.42481195846429" lon="2.576559410257743"><ele>475.33333333333337</ele><time>2026-04-22T10:03:11Z</time></trkpt><trkpt lat="42.42478475425297" lon="2.576790173203249"><ele>475.66666666666663</ele><time>2026-04-22T10:03:12Z</time></trkpt><trkpt lat="42.42474073220815" lon="2.577030861020756"><ele>476.0</ele><time>2026-04-22T10:03:13Z</time></trkpt><trkpt lat="42.42470599875988" lon="2.5772726706429614"><ele>476.66666666666663</ele><time>2026-04-22T10:03:14Z</time></trkpt><trkpt lat="42.42466720471101" lon="2.577499497037892"><ele>477.33333333333337</ele><time>2026-04-22T10:03:15Z</time></trkpt><trkpt lat="42.424610423697104" lon="2.577721061756441"><ele>478.0</ele><time>2026-04-22T10:03:16Z</time></trkpt><trkpt lat="42.424530914104054" lon="2.577944296930825"><ele>468.0</ele><time>2026-04-22T10:03:17Z</time></trkpt><trkpt lat="42.42441906494879" lon="2.578163845576181"><ele>458.0</ele><time>2026-04-22T10:03:18Z</time></trkpt><trkpt lat="42.42428550905044" lon="2.578355879865315"><ele>448.0</ele><time>2026-04-22T10:03:19Z</time></trkpt><trkpt lat="42.4241559675828" lon="2.5785222699469084"><ele>452.0</ele><time>2026-04-22T10:03:20Z</time></trkpt><trkpt lat="42.42403176515837" lon="2.5786905710616765"><ele>456.0</ele><time>2026-04-22T10:03:21Z</time></trkpt><trkpt lat="42.423916839014296" lon="2.578869198618069"><ele>460.0</ele><time>2026-04-22T10:03:22Z</time></trkpt><trkpt lat="42.423820156980184" lon="2.579069646398392"><ele>453.33333333333337</ele><time>2026-04-22T10:03:23Z</time></trkpt><trkpt lat="42.423757203945456" lon="2.579292648161052"><ele>446.66666666666663</ele><time>2026-04-22T10:03:24Z</time></trkpt><trkpt lat="42.423720504827386" lon="2.579524630002401"><ele>440.0</ele><time>2026-04-22T10:03:25Z</time></trkpt><trkpt lat="42.42371304329662" lon="2.5797570120603215"><ele>440.0</ele><time>2026-04-22T10:03:26Z</time></trkpt><trkpt lat="42.423764426360066" lon="2.5799821137845136"><ele>440.0</ele><time>2026-04-22T10:03:27Z</time></trkpt><trkpt lat="42.42385001857578" lon="2.580184052557974"><ele>440.0</ele><time>2026-04-22T10:03:28Z</time></trkpt><trkpt lat="42.4239384973141" lon="2.5803609629335"><ele>445.66666666666663</ele><time>2026-04-22T10:03:29Z</time></trkpt><trkpt lat="42.42399386352857" lon="2.5805452652658243"><ele>451.33333333333337</ele><time>2026-04-22T10:03:30Z</time></trkpt><trkpt lat="42.42397495561492" lon="2.5807455084432864"><ele>457.0</ele><time>2026-04-22T10:03:31Z</time></trkpt><trkpt lat="42.423957464683" lon="2.580966665975419"><ele>456.33333333333337</ele><time>2026-04-22T10:03:32Z</time></trkpt><trkpt lat="42.42394831335487" lon="2.581194392847788"><ele>455.66666666666663</ele><time>2026-04-22T10:03:33Z</time></trkpt><trkpt lat="42.42398853154183" lon="2.581423620948563"><ele>455.0</ele><time>2026-04-22T10:03:34Z</time></trkpt><trkpt lat="42.42405274003565" lon="2.581646621086831"><ele>455.0</ele><time>2026-04-22T10:03:35Z</time></trkpt><trkpt lat="42.424115671989014" lon="2.581832550505856"><ele>455.0</ele><time>2026-04-22T10:03:36Z</time></trkpt><trkpt lat="42.42414726529609" lon="2.5820089490168114"><ele>455.0</ele><time>2026-04-22T10:03:37Z</time></trkpt><trkpt lat="42.424134917204704" lon="2.5821860920309487"><ele>455.0</ele><time>2026-04-22T10:03:38Z</time></trkpt><trkpt lat="42.42406481859056" lon="2.5823369323829097"><ele>456.25</ele><time>2026-04-22T10:03:39Z</time></trkpt><trkpt lat="42.423966254393605" lon="2.582441599323595"><ele>457.5</ele><time>2026-04-22T10:03:40Z</time></trkpt><trkpt lat="42.4238265959163" lon="2.582470109233321"><ele>458.75</ele><time>2026-04-22T10:03:41Z</time></trkpt><trkpt lat="42.42369313799288" lon="2.5825574330570364"><ele>460.0</ele><time>2026-04-22T10:03:41.999Z</time></trkpt><trkpt lat="42.423569368461884" lon="2.5826930290430683"><ele>456.33333333333337</ele><time>2026-04-22T10:03:42.999Z</time></trkpt><trkpt lat="42.423439808303904" lon="2.5828414782271545"><ele>452.66666666666663</ele><time>2026-04-22T10:03:43.999Z</time></trkpt><trkpt lat="42.42332323043787" lon="2.583020682033839"><ele>449.0</ele><time>2026-04-22T10:03:44.999Z</time></trkpt><trkpt lat="42.4232294308839" lon="2.583233199566202"><ele>449.0</ele><time>2026-04-22T10:03:45.999Z</time></trkpt><trkpt lat="42.42313026689925" lon="2.583413456438293"><ele>449.0</ele><time>2026-04-22T10:03:46.999Z</time></trkpt><trkpt lat="42.42300409763346" lon="2.5835519862429033"><ele>449.0</ele><time>2026-04-22T10:03:47.999Z</time></trkpt><trkpt lat="42.422883394679204" lon="2.5836915478670646"><ele>441.66666666666663</ele><time>2026-04-22T10:03:48.999Z</time></trkpt><trkpt lat="42.42278180405719" lon="2.583871765140503"><ele>434.33333333333337</ele><time>2026-04-22T10:03:49.999Z</time></trkpt><trkpt lat="42.422726866619044" lon="2.584102017947975"><ele>427.0</ele><time>2026-04-22T10:03:50.999Z</time></trkpt><trkpt lat="42.42268706875746" lon="2.5843442164699026"><ele>427.33333333333337</ele><time>2026-04-22T10:03:51.999Z</time></trkpt><trkpt lat="42.422649484958875" lon="2.584565054002317"><ele>427.66666666666663</ele><time>2026-04-22T10:03:52.999Z</time></trkpt><trkpt lat="42.42261450855328" lon="2.584771473575848"><ele>428.0</ele><time>2026-04-22T10:03:53.999Z</time></trkpt><trkpt lat="42.42258550445417" lon="2.5849607299723916"><ele>428.0</ele><time>2026-04-22T10:03:54.999Z</time></trkpt><trkpt lat="42.42258032059094" lon="2.585154072736252"><ele>428.0</ele><time>2026-04-22T10:03:55.999Z</time></trkpt><trkpt lat="42.42263794842416" lon="2.5853316091114587"><ele>428.0</ele><time>2026-04-22T10:03:56.999Z</time></trkpt><trkpt lat="42.4227443208285" lon="2.5854853487535667"><ele>428.0</ele><time>2026-04-22T10:03:57.999Z</time></trkpt><trkpt lat="42.42288917206054" lon="2.585605468758557"><ele>435.0</ele><time>2026-04-22T10:03:58.999Z</time></trkpt><trkpt lat="42.4230550412132" lon="2.5857113122777027"><ele>442.0</ele><time>2026-04-22T10:03:59.999Z</time></trkpt><trkpt lat="42.42318197272016" lon="2.585856173252138"><ele>449.0</ele><time>2026-04-22T10:04:00.999Z</time></trkpt><trkpt lat="42.42329507500079" lon="2.586051105593486"><ele>439.66666666666663</ele><time>2026-04-22T10:04:01.999Z</time></trkpt><trkpt lat="42.42340810894201" lon="2.5862108206655554"><ele>430.33333333333337</ele><time>2026-04-22T10:04:02.999Z</time></trkpt><trkpt lat="42.423503926439544" lon="2.5863710633985537"><ele>421.0</ele><time>2026-04-22T10:04:03.999Z</time></trkpt><trkpt lat="42.42366436619705" lon="2.586467550328467"><ele>432.6666666666667</ele><time>2026-04-22T10:04:04.999Z</time></trkpt><trkpt lat="42.42383130498359" lon="2.586531571871896"><ele>444.33333333333337</ele><time>2026-04-22T10:04:05.999Z</time></trkpt><trkpt lat="42.42396796726285" lon="2.586644576957109"><ele>456.0</ele><time>2026-04-22T10:04:06.999Z</time></trkpt><trkpt lat="42.42406858143087" lon="2.5868315084940683"><ele>444.33333333333337</ele><time>2026-04-22T10:04:07.999Z</time></trkpt><trkpt lat="42.424192623249894" lon="2.5870277188992383"><ele>432.6666666666667</ele><time>2026-04-22T10:04:08.999Z</time></trkpt><trkpt lat="42.424362887697704" lon="2.587139079344279"><ele>421.0</ele><time>2026-04-22T10:04:09.999Z</time></trkpt><trkpt lat="42.42449142808924" lon="2.5872883990775266"><ele>421.0</ele><time>2026-04-22T10:04:10.999Z</time></trkpt><trkpt lat="42.42455507932936" lon="2.587518519270489"><ele>421.0</ele><time>2026-04-22T10:04:11.999Z</time></trkpt><trkpt lat="42.42463319758393" lon="2.5877548279392912"><ele>421.0</ele><time>2026-04-22T10:04:12.999Z</time></trkpt><trkpt lat="42.424723315791695" lon="2.587967126803359"><ele>421.33333333333337</ele><time>2026-04-22T10:04:13.999Z</time></trkpt><trkpt lat="42.42478432529128" lon="2.5882132988971684"><ele>421.66666666666663</ele><time>2026-04-22T10:04:14.999Z</time></trkpt><trkpt lat="42.42482132790728" lon="2.588486672224482"><ele>422.0</ele><time>2026-04-22T10:04:15.999Z</time></trkpt><trkpt lat="42.42485357815916" lon="2.588734374962271"><ele>422.0</ele><time>2026-04-22T10:04:16.999Z</time></trkpt><trkpt lat="42.424899931582445" lon="2.5889678617472742"><ele>422.0</ele><time>2026-04-22T10:04:17.999Z</time></trkpt><trkpt lat="42.42495475861377" lon="2.589174717124513"><ele>422.0</ele><time>2026-04-22T10:04:18.999Z</time></trkpt><trkpt lat="42.425036798414226" lon="2.5893507425526114"><ele>422.0</ele><time>2026-04-22T10:04:19.999Z</time></trkpt><trkpt lat="42.425136357983" lon="2.58948753662694"><ele>422.0</ele><time>2026-04-22T10:04:20.999Z</time></trkpt><trkpt lat="42.42522862177661" lon="2.58960015697531"><ele>422.0</ele><time>2026-04-22T10:04:21.999Z</time></trkpt><trkpt lat="42.42536668870837" lon="2.5896111907957504"><ele>422.0</ele><time>2026-04-22T10:04:22.999Z</time></trkpt><trkpt lat="42.42551206445442" lon="2.589587735989914"><ele>418.0</ele><time>2026-04-22T10:04:23.999Z</time></trkpt><trkpt lat="42.425676466663575" lon="2.5895371620117342"><ele>414.0</ele><time>2026-04-22T10:04:24.999Z</time></trkpt><trkpt lat="42.425844151515264" lon="2.589499341891408"><ele>410.0</ele><time>2026-04-22T10:04:25.999Z</time></trkpt><trkpt lat="42.42600204740895" lon="2.58949980390114"><ele>410.0</ele><time>2026-04-22T10:04:26.999Z</time></trkpt><trkpt lat="42.42615945250513" lon="2.589547317844213"><ele>410.0</ele><time>2026-04-22T10:04:27.999Z</time></trkpt><trkpt lat="42.42630548634903" lon="2.589624378127894"><ele>410.0</ele><time>2026-04-22T10:04:28.999Z</time></trkpt><trkpt lat="42.42644798754621" lon="2.5896491974622675"><ele>410.0</ele><time>2026-04-22T10:04:29.999Z</time></trkpt><trkpt lat="42.42662393392706" lon="2.5896255578065546"><ele>410.0</ele><time>2026-04-22T10:04:30.999Z</time></trkpt><trkpt lat="42.42680863161967" lon="2.589582194189914"><ele>410.0</ele><time>2026-04-22T10:04:31.999Z</time></trkpt><trkpt lat="42.427009750403776" lon="2.5895593488083897"><ele>424.5</ele><time>2026-04-22T10:04:32.999Z</time></trkpt><trkpt lat="42.427232512357946" lon="2.589507457376138"><ele>439.0</ele><time>2026-04-22T10:04:33.999Z</time></trkpt><trkpt lat="42.42746341173954" lon="2.589474989951019"><ele>439.0</ele><time>2026-04-22T10:04:34.999Z</time></trkpt><trkpt lat="42.42767338326232" lon="2.589444840591387"><ele>439.0</ele><time>2026-04-22T10:04:35.999Z</time></trkpt><trkpt lat="42.42787021274944" lon="2.5894251004865567"><ele>439.0</ele><time>2026-04-22T10:04:36.999Z</time></trkpt><trkpt lat="42.42805654053167" lon="2.5894235391762708"><ele>439.0</ele><time>2026-04-22T10:04:37.999Z</time></trkpt><trkpt lat="42.42825282950595" lon="2.5894174916287676"><ele>439.0</ele><time>2026-04-22T10:04:38.999Z</time></trkpt><trkpt lat="42.428438301675904" lon="2.5894275656436596"><ele>439.0</ele><time>2026-04-22T10:04:39.999Z</time></trkpt><trkpt lat="42.42860120931942" lon="2.58945996206921"><ele>437.6666666666667</ele><time>2026-04-22T10:04:40.998Z</time></trkpt><trkpt lat="42.4287424108284" lon="2.5895473502937363"><ele>436.33333333333337</ele><time>2026-04-22T10:04:41.998Z</time></trkpt><trkpt lat="42.42886056778281" lon="2.5896803972310334"><ele>435.0</ele><time>2026-04-22T10:04:42.998Z</time></trkpt><trkpt lat="42.428962691264104" lon="2.5898422256682476"><ele>435.0</ele><time>2026-04-22T10:04:43.998Z</time></trkpt><trkpt lat="42.42898695416972" lon="2.590044721387368"><ele>435.0</ele><time>2026-04-22T10:04:44.998Z</time></trkpt><trkpt lat="42.42898738349973" lon="2.5902517154355365"><ele>435.0</ele><time>2026-04-22T10:04:45.998Z</time></trkpt><trkpt lat="42.428998478914565" lon="2.590490294903075"><ele>428.0</ele><time>2026-04-22T10:04:46.998Z</time></trkpt><trkpt lat="42.42899901601801" lon="2.5907331908673292"><ele>421.0</ele><time>2026-04-22T10:04:47.998Z</time></trkpt><trkpt lat="42.42898726321832" lon="2.5909485093587397"><ele>414.0</ele><time>2026-04-22T10:04:48.998Z</time></trkpt><trkpt lat="42.428960480701285" lon="2.591141518636242"><ele>410.5</ele><time>2026-04-22T10:04:49.998Z</time></trkpt><trkpt lat="42.42895204013449" lon="2.5913134687154704"><ele>407.0</ele><time>2026-04-22T10:04:50.998Z</time></trkpt><trkpt lat="42.428994949275065" lon="2.5914670260305064"><ele>403.5</ele><time>2026-04-22T10:04:51.998Z</time></trkpt><trkpt lat="42.42906552002245" lon="2.5916025657128205"><ele>400.0</ele><time>2026-04-22T10:04:52.998Z</time></trkpt><trkpt lat="42.42921117820522" lon="2.591647860821741"><ele>400.0</ele><time>2026-04-22T10:04:53.998Z</time></trkpt><trkpt lat="42.42935948869256" lon="2.5915788144844334"><ele>400.0</ele><time>2026-04-22T10:04:54.998Z</time></trkpt><trkpt lat="42.42948413117853" lon="2.5914641650901333"><ele>400.0</ele><time>2026-04-22T10:04:55.998Z</time></trkpt><trkpt lat="42.42958847643802" lon="2.591291620956933"><ele>404.0</ele><time>2026-04-22T10:04:56.998Z</time></trkpt><trkpt lat="42.42971785385662" lon="2.59114872212428"><ele>408.0</ele><time>2026-04-22T10:04:57.998Z</time></trkpt><trkpt lat="42.42986836911499" lon="2.591022587532758"><ele>412.0</ele><time>2026-04-22T10:04:58.998Z</time></trkpt><trkpt lat="42.43005014235707" lon="2.5908926602903"><ele>412.0</ele><time>2026-04-22T10:04:59.998Z</time></trkpt><trkpt lat="42.43025796552556" lon="2.5908213957798614"><ele>412.0</ele><time>2026-04-22T10:05:00.998Z</time></trkpt><trkpt lat="42.43048594187627" lon="2.590795438351783"><ele>412.0</ele><time>2026-04-22T10:05:01.998Z</time></trkpt><trkpt lat="42.43073093123743" lon="2.5907932070351087"><ele>407.5</ele><time>2026-04-22T10:05:02.998Z</time></trkpt><trkpt lat="42.430992856266045" lon="2.5908024391172284"><ele>403.0</ele><time>2026-04-22T10:05:03.998Z</time></trkpt><trkpt lat="42.43124228706181" lon="2.590719650900432"><ele>395.5</ele><time>2026-04-22T10:05:04.998Z</time></trkpt><trkpt lat="42.43146892024475" lon="2.5906871469937816"><ele>388.0</ele><time>2026-04-22T10:05:06Z</time></trkpt><trkpt lat="42.43169344703973" lon="2.590677374543054"><ele>388.0</ele><time>2026-04-22T10:05:07Z</time></trkpt><trkpt lat="42.43191319231058" lon="2.590691727788293"><ele>388.0</ele><time>2026-04-22T10:05:08Z</time></trkpt><trkpt lat="42.4321235548991" lon="2.5907198904524087"><ele>388.0</ele><time>2026-04-22T10:05:09Z</time></trkpt><trkpt lat="42.43232210183391" lon="2.5907389547267776"><ele>387.0</ele><time>2026-04-22T10:05:10Z</time></trkpt><trkpt lat="42.432516399602115" lon="2.590744321238432"><ele>386.0</ele><time>2026-04-22T10:05:11Z</time></trkpt><trkpt lat="42.432703590484714" lon="2.5907221108075555"><ele>385.0</ele><time>2026-04-22T10:05:12Z</time></trkpt><trkpt lat="42.43285948432542" lon="2.590694348840162"><ele>387.5</ele><time>2026-04-22T10:05:13Z</time></trkpt><trkpt lat="42.43299765356594" lon="2.5907009742718934"><ele>390.0</ele><time>2026-04-22T10:05:14Z</time></trkpt><trkpt lat="42.43313055495188" lon="2.5907502867493335"><ele>392.5</ele><time>2026-04-22T10:05:15Z</time></trkpt><trkpt lat="42.433248114174475" lon="2.5908476539427774"><ele>395.0</ele><time>2026-04-22T10:05:16Z</time></trkpt><trkpt lat="42.43333473748036" lon="2.5909913739521264"><ele>393.5</ele><time>2026-04-22T10:05:17Z</time></trkpt><trkpt lat="42.433384345321834" lon="2.5911801933138836"><ele>392.0</ele><time>2026-04-22T10:05:18Z</time></trkpt><trkpt lat="42.43340391580185" lon="2.5913764924417886"><ele>390.5</ele><time>2026-04-22T10:05:19Z</time></trkpt><trkpt lat="42.43336306867525" lon="2.591572983740369"><ele>389.0</ele><time>2026-04-22T10:05:20Z</time></trkpt><trkpt lat="42.43330404808344" lon="2.591778694725233"><ele>389.0</ele><time>2026-04-22T10:05:21Z</time></trkpt><trkpt lat="42.43324045987984" lon="2.5920062095857794"><ele>389.0</ele><time>2026-04-22T10:05:22Z</time></trkpt><trkpt lat="42.4331868978278" lon="2.592228015077094"><ele>389.0</ele><time>2026-04-22T10:05:23Z</time></trkpt><trkpt lat="42.43313132968108" lon="2.592420343863355"><ele>390.0</ele><time>2026-04-22T10:05:24Z</time></trkpt><trkpt lat="42.43309532620063" lon="2.592603485280875"><ele>391.0</ele><time>2026-04-22T10:05:25Z</time></trkpt><trkpt lat="42.43310473984671" lon="2.592794933767516"><ele>392.0</ele><time>2026-04-22T10:05:26Z</time></trkpt><trkpt lat="42.433158348418914" lon="2.5930066168372026"><ele>393.0</ele><time>2026-04-22T10:05:27Z</time></trkpt><trkpt lat="42.43324095716418" lon="2.593231800307077"><ele>390.0</ele><time>2026-04-22T10:05:28Z</time></trkpt><trkpt lat="42.43333503657011" lon="2.593466245202024"><ele>387.0</ele><time>2026-04-22T10:05:29Z</time></trkpt><trkpt lat="42.43344394118186" lon="2.5937001260495074"><ele>384.0</ele><time>2026-04-22T10:05:30Z</time></trkpt><trkpt lat="42.43356833721302" lon="2.593927438735396"><ele>379.3333333333333</ele><time>2026-04-22T10:05:31Z</time></trkpt><trkpt lat="42.433684939235874" lon="2.59414467460948"><ele>374.66666666666663</ele><time>2026-04-22T10:05:32Z</time></trkpt><trkpt lat="42.4338043018296" lon="2.5943690155116297"><ele>370.0</ele><time>2026-04-22T10:05:33Z</time></trkpt><trkpt lat="42.43392264034364" lon="2.594593288993997"><ele>369.3333333333333</ele><time>2026-04-22T10:05:34Z</time></trkpt><trkpt lat="42.43403727614413" lon="2.5947947205543396"><ele>368.6666666666667</ele><time>2026-04-22T10:05:35Z</time></trkpt><trkpt lat="42.43413505819038" lon="2.594977014271524"><ele>368.0</ele><time>2026-04-22T10:05:36Z</time></trkpt><trkpt lat="42.434224873883" lon="2.5951451158925094"><ele>368.0</ele><time>2026-04-22T10:05:37Z</time></trkpt><trkpt lat="42.434316738316845" lon="2.5952817395773806"><ele>368.0</ele><time>2026-04-22T10:05:38Z</time></trkpt><trkpt lat="42.43442991713597" lon="2.5953774309340347"><ele>368.0</ele><time>2026-04-22T10:05:39Z</time></trkpt><trkpt lat="42.4345580178742" lon="2.595407001798862"><ele>368.0</ele><time>2026-04-22T10:05:40Z</time></trkpt><trkpt lat="42.434682821580154" lon="2.5953687136377073"><ele>367.33333333333337</ele><time>2026-04-22T10:05:41Z</time></trkpt><trkpt lat="42.43479353872082" lon="2.595265271794112"><ele>366.6666666666667</ele><time>2026-04-22T10:05:42Z</time></trkpt><trkpt lat="42.434896854131836" lon="2.595113194140268"><ele>366.0</ele><time>2026-04-22T10:05:43Z</time></trkpt><trkpt lat="42.43502657373098" lon="2.5949576639020098"><ele>366.0</ele><time>2026-04-22T10:05:44Z</time></trkpt><trkpt lat="42.43516992303956" lon="2.594822513256236"><ele>366.0</ele><time>2026-04-22T10:05:45Z</time></trkpt><trkpt lat="42.43529654207116" lon="2.5946855405930247"><ele>366.0</ele><time>2026-04-22T10:05:46Z</time></trkpt><trkpt lat="42.43539655983929" lon="2.59454256679231"><ele>365.6</ele><time>2026-04-22T10:05:46.999Z</time></trkpt><trkpt lat="42.43548213092367" lon="2.5944029523492396"><ele>365.20000000000005</ele><time>2026-04-22T10:05:47.999Z</time></trkpt><trkpt lat="42.43555844516366" lon="2.594287373052241"><ele>364.79999999999995</ele><time>2026-04-22T10:05:48.999Z</time></trkpt><trkpt lat="42.43562902656567" lon="2.5942170265851043"><ele>364.4</ele><time>2026-04-22T10:05:49.999Z</time></trkpt><trkpt lat="42.43569362547992" lon="2.594193388881886"><ele>364.0</ele><time>2026-04-22T10:05:50.999Z</time></trkpt><trkpt lat="42.435754131649404" lon="2.5942393959309595"><ele>364.0</ele><time>2026-04-22T10:05:52.999Z</time></trkpt><trkpt lat="42.435751056478935" lon="2.594352554543365"><ele>364.0</ele><time>2026-04-22T10:05:53.999Z</time></trkpt><trkpt lat="42.435692365414646" lon="2.594421450466248"><ele>364.0</ele><time>2026-04-22T10:05:54.999Z</time></trkpt><trkpt lat="42.435620076889855" lon="2.5944628367726086"><ele>364.0</ele><time>2026-04-22T10:05:55.999Z</time></trkpt><trkpt lat="42.43555090090956" lon="2.5945444329976484"><ele>364.0</ele><time>2026-04-22T10:05:56.999Z</time></trkpt><trkpt lat="42.43548466100898" lon="2.5946220471116206"><ele>364.0</ele><time>2026-04-22T10:05:57.999Z</time></trkpt><trkpt lat="42.435405770952265" lon="2.594704060349463"><ele>364.5</ele><time>2026-04-22T10:05:58.999Z</time></trkpt><trkpt lat="42.43530829643412" lon="2.594796768549581"><ele>365.0</ele><time>2026-04-22T10:05:59.999Z</time></trkpt><trkpt lat="42.435205912536475" lon="2.594901767667736"><ele>365.5</ele><time>2026-04-22T10:06:00.999Z</time></trkpt><trkpt lat="42.43509420870038" lon="2.595019247865627"><ele>366.0</ele><time>2026-04-22T10:06:01.999Z</time></trkpt><trkpt lat="42.43497887288251" lon="2.5951486540872293"><ele>366.0</ele><time>2026-04-22T10:06:02.999Z</time></trkpt><trkpt lat="42.434874050457296" lon="2.5952682877867703"><ele>366.0</ele><time>2026-04-22T10:06:03.999Z</time></trkpt><trkpt lat="42.43479533871183" lon="2.5953688484422575"><ele>366.0</ele><time>2026-04-22T10:06:04.999Z</time></trkpt><trkpt lat="42.43473049718198" lon="2.5954754705212264"><ele>366.0</ele><time>2026-04-22T10:06:05.999Z</time></trkpt><trkpt lat="42.43472294051084" lon="2.5956311720937615"><ele>367.75</ele><time>2026-04-22T10:06:06.999Z</time></trkpt><trkpt lat="42.434752549346676" lon="2.5958321744925046"><ele>369.5</ele><time>2026-04-22T10:06:07.999Z</time></trkpt><trkpt lat="42.43477676581133" lon="2.5960443372526583"><ele>371.25</ele><time>2026-04-22T10:06:08.999Z</time></trkpt><trkpt lat="42.43478236582435" lon="2.596206536559731"><ele>373.0</ele><time>2026-04-22T10:06:09.999Z</time></trkpt><trkpt lat="42.4348177047149" lon="2.5963348222705203"><ele>373.0</ele><time>2026-04-22T10:06:10.999Z</time></trkpt><trkpt lat="42.434877120392365" lon="2.596438715396278"><ele>373.0</ele><time>2026-04-22T10:06:11.999Z</time></trkpt><trkpt lat="42.434972025695515" lon="2.596481625453078"><ele>373.0</ele><time>2026-04-22T10:06:12.999Z</time></trkpt><trkpt lat="42.435097038105404" lon="2.5964265747888424"><ele>373.0</ele><time>2026-04-22T10:06:13.999Z</time></trkpt><trkpt lat="42.43521783177836" lon="2.5963653482327174"><ele>373.0</ele><time>2026-04-22T10:06:14.999Z</time></trkpt><trkpt lat="42.43536380512568" lon="2.5963132860998392"><ele>373.0</ele><time>2026-04-22T10:06:15.999Z</time></trkpt><trkpt lat="42.43553236208512" lon="2.5963014278074663"><ele>373.0</ele><time>2026-04-22T10:06:16.999Z</time></trkpt><trkpt lat="42.43569287504694" lon="2.5962457255627545"><ele>368.75</ele><time>2026-04-22T10:06:17.999Z</time></trkpt><trkpt lat="42.43583434937278" lon="2.596158050190833"><ele>364.5</ele><time>2026-04-22T10:06:18.999Z</time></trkpt><trkpt lat="42.43595538603781" lon="2.596066151899659"><ele>360.25</ele><time>2026-04-22T10:06:19.999Z</time></trkpt><trkpt lat="42.43606298613376" lon="2.59599522300609"><ele>356.0</ele><time>2026-04-22T10:06:20.999Z</time></trkpt><trkpt lat="42.43617089936914" lon="2.5959664256406274"><ele>356.0</ele><time>2026-04-22T10:06:21.999Z</time></trkpt><trkpt lat="42.436266692723365" lon="2.5960037260703377"><ele>356.0</ele><time>2026-04-22T10:06:22.999Z</time></trkpt><trkpt lat="42.43630482297111" lon="2.5961271686687133"><ele>356.0</ele><time>2026-04-22T10:06:23.999Z</time></trkpt><trkpt lat="42.43634156930256" lon="2.596245637951638"><ele>356.0</ele><time>2026-04-22T10:06:24.999Z</time></trkpt><trkpt lat="42.43630565922898" lon="2.596386278724802"><ele>356.0</ele><time>2026-04-22T10:06:25.999Z</time></trkpt><trkpt lat="42.43623653362148" lon="2.596478838215561"><ele>359.75</ele><time>2026-04-22T10:06:26.999Z</time></trkpt><trkpt lat="42.43612454329955" lon="2.596505387999981"><ele>363.5</ele><time>2026-04-22T10:06:27.999Z</time></trkpt><trkpt lat="42.43600008047003" lon="2.5965703167765124"><ele>367.25</ele><time>2026-04-22T10:06:28.999Z</time></trkpt><trkpt lat="42.43586060136179" lon="2.5966340049956202"><ele>371.0</ele><time>2026-04-22T10:06:29.999Z</time></trkpt><trkpt lat="42.43571488833622" lon="2.5967021268842836"><ele>371.0</ele><time>2026-04-22T10:06:30.999Z</time></trkpt><trkpt lat="42.43557023427426" lon="2.596765720559709"><ele>371.0</ele><time>2026-04-22T10:06:31.999Z</time></trkpt><trkpt lat="42.4354393952283" lon="2.5968085148065696"><ele>371.0</ele><time>2026-04-22T10:06:32.999Z</time></trkpt><trkpt lat="42.43530833282516" lon="2.5968188467365185"><ele>371.0</ele><time>2026-04-22T10:06:33.999Z</time></trkpt><trkpt lat="42.4351596698548" lon="2.596801616503853"><ele>371.6666666666667</ele><time>2026-04-22T10:06:34.999Z</time></trkpt><trkpt lat="42.43500006944622" lon="2.5967698663237813"><ele>372.3333333333333</ele><time>2026-04-22T10:06:35.999Z</time></trkpt><trkpt lat="42.43483578190766" lon="2.5968241468710116"><ele>373.0</ele><time>2026-04-22T10:06:36.999Z</time></trkpt><trkpt lat="42.43466765464752" lon="2.5968534647983366"><ele>374.25</ele><time>2026-04-22T10:06:37.999Z</time></trkpt><trkpt lat="42.4345082435508" lon="2.5968305467954607"><ele>375.5</ele><time>2026-04-22T10:06:38.999Z</time></trkpt><trkpt lat="42.43436352749278" lon="2.596780378123095"><ele>376.75</ele><time>2026-04-22T10:06:39.999Z</time></trkpt><trkpt lat="42.43422489987653" lon="2.5967616221526613"><ele>378.0</ele><time>2026-04-22T10:06:40.999Z</time></trkpt><trkpt lat="42.434093089410595" lon="2.596804212352078"><ele>378.0</ele><time>2026-04-22T10:06:41.999Z</time></trkpt><trkpt lat="42.43395892899423" lon="2.5968887727078926"><ele>378.0</ele><time>2026-04-22T10:06:42.999Z</time></trkpt><trkpt lat="42.433819696741644" lon="2.5969414203371963"><ele>378.0</ele><time>2026-04-22T10:06:43.999Z</time></trkpt><trkpt lat="42.433656544780426" lon="2.59694283486881"><ele>378.6666666666667</ele><time>2026-04-22T10:06:44.999Z</time></trkpt><trkpt lat="42.43349053545478" lon="2.5969447748854835"><ele>379.33333333333337</ele><time>2026-04-22T10:06:45.999Z</time></trkpt><trkpt lat="42.433341296732856" lon="2.5969845071889295"><ele>380.0</ele><time>2026-04-22T10:06:46.998Z</time></trkpt><trkpt lat="42.433207548399984" lon="2.597059773157235"><ele>387.2</ele><time>2026-04-22T10:06:47.998Z</time></trkpt><trkpt lat="42.433093988310986" lon="2.5971366304804553"><ele>394.4</ele><time>2026-04-22T10:06:48.998Z</time></trkpt><trkpt lat="42.4329956425081" lon="2.5971800477740095"><ele>401.6</ele><time>2026-04-22T10:06:49.998Z</time></trkpt><trkpt lat="42.43290381636275" lon="2.5971428054542582"><ele>408.8</ele><time>2026-04-22T10:06:50.998Z</time></trkpt><trkpt lat="42.43283742718507" lon="2.5970260480835456"><ele>416.0</ele><time>2026-04-22T10:06:51.998Z</time></trkpt><trkpt lat="42.43282106850727" lon="2.596896016454324"><ele>416.0</ele><time>2026-04-22T10:06:52.998Z</time></trkpt><trkpt lat="42.43283288604897" lon="2.5967521613713043"><ele>416.0</ele><time>2026-04-22T10:06:53.998Z</time></trkpt><trkpt lat="42.43279372967708" lon="2.5965979006124535"><ele>416.0</ele><time>2026-04-22T10:06:54.998Z</time></trkpt><trkpt lat="42.43271064159034" lon="2.5964682578521012"><ele>416.0</ele><time>2026-04-22T10:06:55.998Z</time></trkpt><trkpt lat="42.43259571271203" lon="2.5963805955445896"><ele>416.0</ele><time>2026-04-22T10:06:56.998Z</time></trkpt><trkpt lat="42.43246924130624" lon="2.5963471412675303"><ele>416.0</ele><time>2026-04-22T10:06:57.998Z</time></trkpt><trkpt lat="42.432357532840136" lon="2.5963026464862233"><ele>416.0</ele><time>2026-04-22T10:06:58.998Z</time></trkpt><trkpt lat="42.432264732506596" lon="2.5961971115549263"><ele>416.0</ele><time>2026-04-22T10:06:59.998Z</time></trkpt><trkpt lat="42.43222818975191" lon="2.596048556658783"><ele>410.0</ele><time>2026-04-22T10:07:00.998Z</time></trkpt><trkpt lat="42.43221601030384" lon="2.5958821040901743"><ele>404.0</ele><time>2026-04-22T10:07:01.998Z</time></trkpt><trkpt lat="42.43215132805479" lon="2.595727831052564"><ele>398.0</ele><time>2026-04-22T10:07:02.998Z</time></trkpt><trkpt lat="42.43204761145171" lon="2.5955894941970876"><ele>392.0</ele><time>2026-04-22T10:07:03.998Z</time></trkpt><trkpt lat="42.431949099299615" lon="2.595424238897268"><ele>403.3333333333333</ele><time>2026-04-22T10:07:04.998Z</time></trkpt><trkpt lat="42.43187002172154" lon="2.595237490999799"><ele>414.66666666666663</ele><time>2026-04-22T10:07:05.998Z</time></trkpt><trkpt lat="42.43179133805414" lon="2.5950637335674505"><ele>426.0</ele><time>2026-04-22T10:07:06.998Z</time></trkpt><trkpt lat="42.43168898941167" lon="2.5949162278264715"><ele>426.0</ele><time>2026-04-22T10:07:07.998Z</time></trkpt><trkpt lat="42.431575869580016" lon="2.5947890811062595"><ele>426.0</ele><time>2026-04-22T10:07:08.998Z</time></trkpt><trkpt lat="42.431483547899056" lon="2.5946428726988953"><ele>426.0</ele><time>2026-04-22T10:07:09.998Z</time></trkpt><trkpt lat="42.43147032832487" lon="2.5944345576273427"><ele>426.0</ele><time>2026-04-22T10:07:10.998Z</time></trkpt><trkpt lat="42.431401231302374" lon="2.5942363899120395"><ele>428.66666666666663</ele><time>2026-04-22T10:07:12Z</time></trkpt><trkpt lat="42.431304235411176" lon="2.594058593147396"><ele>431.3333333333333</ele><time>2026-04-22T10:07:13Z</time></trkpt><trkpt lat="42.43118763272334" lon="2.5938762495795586"><ele>434.0</ele><time>2026-04-22T10:07:14Z</time></trkpt><trkpt lat="42.43109518705157" lon="2.5936615393884943"><ele>434.0</ele><time>2026-04-22T10:07:15Z</time></trkpt><trkpt lat="42.430992306911165" lon="2.5934562370255954"><ele>434.0</ele><time>2026-04-22T10:07:16Z</time></trkpt><trkpt lat="42.43085872013101" lon="2.593319995330016"><ele>434.0</ele><time>2026-04-22T10:07:17Z</time></trkpt><trkpt lat="42.43076364892042" lon="2.593155236240522"><ele>434.0</ele><time>2026-04-22T10:07:18Z</time></trkpt><trkpt lat="42.430690338602645" lon="2.5929835985073804"><ele>434.0</ele><time>2026-04-22T10:07:19Z</time></trkpt><trkpt lat="42.430636736108646" lon="2.5928237080085186"><ele>434.0</ele><time>2026-04-22T10:07:20Z</time></trkpt><trkpt lat="42.430576676091995" lon="2.5927063136145976"><ele>434.0</ele><time>2026-04-22T10:07:21Z</time></trkpt><trkpt lat="42.43049648568141" lon="2.5926187237098284"><ele>430.5</ele><time>2026-04-22T10:07:22Z</time></trkpt><trkpt lat="42.43039376953271" lon="2.5926159940654685"><ele>427.0</ele><time>2026-04-22T10:07:23Z</time></trkpt><trkpt lat="42.430298182702415" lon="2.592715520176976"><ele>423.5</ele><time>2026-04-22T10:07:24Z</time></trkpt><trkpt lat="42.430218556013266" lon="2.592853723494955"><ele>420.0</ele><time>2026-04-22T10:07:25Z</time></trkpt><trkpt lat="42.43014513434742" lon="2.593040202101875"><ele>420.0</ele><time>2026-04-22T10:07:26Z</time></trkpt><trkpt lat="42.43006771018153" lon="2.5932362232104973"><ele>420.0</ele><time>2026-04-22T10:07:27Z</time></trkpt><trkpt lat="42.42999401695959" lon="2.5934471597643443"><ele>420.0</ele><time>2026-04-22T10:07:28Z</time></trkpt><trkpt lat="42.429945575274736" lon="2.5936653744820646"><ele>430.0</ele><time>2026-04-22T10:07:29Z</time></trkpt><trkpt lat="42.42990388496834" lon="2.593875050646582"><ele>440.0</ele><time>2026-04-22T10:07:30Z</time></trkpt><trkpt lat="42.429826412096816" lon="2.5940644161810544"><ele>450.0</ele><time>2026-04-22T10:07:31Z</time></trkpt><trkpt lat="42.429760755799165" lon="2.594243405245556"><ele>455.33333333333337</ele><time>2026-04-22T10:07:32Z</time></trkpt><trkpt lat="42.42963883197912" lon="2.594353943815557"><ele>460.6666666666667</ele><time>2026-04-22T10:07:33Z</time></trkpt><trkpt lat="42.42949018317352" lon="2.5944186132015705"><ele>466.0</ele><time>2026-04-22T10:07:34Z</time></trkpt><trkpt lat="42.42935367295269" lon="2.594565933470891"><ele>466.0</ele><time>2026-04-22T10:07:35Z</time></trkpt><trkpt lat="42.42921239243382" lon="2.5946925455271392"><ele>466.0</ele><time>2026-04-22T10:07:36Z</time></trkpt><trkpt lat="42.42907696519194" lon="2.594778129944254"><ele>466.0</ele><time>2026-04-22T10:07:37Z</time></trkpt><trkpt lat="42.428942429980665" lon="2.59486895556238"><ele>466.0</ele><time>2026-04-22T10:07:38Z</time></trkpt><trkpt lat="42.4288266479829" lon="2.5949659949744843"><ele>466.0</ele><time>2026-04-22T10:07:39Z</time></trkpt><trkpt lat="42.4287438116883" lon="2.5950908264820343"><ele>466.0</ele><time>2026-04-22T10:07:40Z</time></trkpt><trkpt lat="42.428688780096685" lon="2.595216134125641"><ele>466.0</ele><time>2026-04-22T10:07:41Z</time></trkpt><trkpt lat="42.42862446772651" lon="2.595282106445654"><ele>466.0</ele><time>2026-04-22T10:07:42Z</time></trkpt><trkpt lat="42.42853672255174" lon="2.5952501767344"><ele>466.25</ele><time>2026-04-22T10:07:43Z</time></trkpt><trkpt lat="42.42847165323436" lon="2.5951578633882413"><ele>466.5</ele><time>2026-04-22T10:07:44Z</time></trkpt><trkpt lat="42.428441256762675" lon="2.595011788573794"><ele>466.75</ele><time>2026-04-22T10:07:45Z</time></trkpt><trkpt lat="42.42839565043541" lon="2.5948511156197474"><ele>467.0</ele><time>2026-04-22T10:07:46Z</time></trkpt><trkpt lat="42.42831643717926" lon="2.5946948438628654"><ele>467.0</ele><time>2026-04-22T10:07:47Z</time></trkpt><trkpt lat="42.428210039557825" lon="2.594550802609756"><ele>467.0</ele><time>2026-04-22T10:07:48Z</time></trkpt><trkpt lat="42.428097505209514" lon="2.594400153918139"><ele>467.0</ele><time>2026-04-22T10:07:49Z</time></trkpt><trkpt lat="42.42798638340654" lon="2.594237994917022"><ele>473.3333333333333</ele><time>2026-04-22T10:07:50Z</time></trkpt><trkpt lat="42.427878206388556" lon="2.594071151986853"><ele>479.66666666666663</ele><time>2026-04-22T10:07:51Z</time></trkpt><trkpt lat="42.427741266359256" lon="2.5939485004497254"><ele>486.0</ele><time>2026-04-22T10:07:52Z</time></trkpt><trkpt lat="42.42761732267514" lon="2.5938542315723536"><ele>486.0</ele><time>2026-04-22T10:07:52.999Z</time></trkpt><trkpt lat="42.42750819837169" lon="2.5937527407806504"><ele>486.0</ele><time>2026-04-22T10:07:53.999Z</time></trkpt><trkpt lat="42.427470162164454" lon="2.5935649882551157"><ele>486.0</ele><time>2026-04-22T10:07:54.999Z</time></trkpt><trkpt lat="42.427406581046114" lon="2.5933640805273583"><ele>486.0</ele><time>2026-04-22T10:07:55.999Z</time></trkpt><trkpt lat="42.42733784165424" lon="2.59316792739343"><ele>478.33333333333337</ele><time>2026-04-22T10:07:56.999Z</time></trkpt><trkpt lat="42.427283867671065" lon="2.592988147917158"><ele>470.6666666666667</ele><time>2026-04-22T10:07:57.999Z</time></trkpt><trkpt lat="42.427285090417506" lon="2.5927810747421765"><ele>463.0</ele><time>2026-04-22T10:07:58.999Z</time></trkpt><trkpt lat="42.42730910090267" lon="2.5925748506572335"><ele>461.5</ele><time>2026-04-22T10:07:59.999Z</time></trkpt><trkpt lat="42.4272986201379" lon="2.5923818034033785"><ele>460.0</ele><time>2026-04-22T10:08:00.999Z</time></trkpt><trkpt lat="42.42724563514896" lon="2.5922139554425616"><ele>458.5</ele><time>2026-04-22T10:08:01.999Z</time></trkpt><trkpt lat="42.427148423579304" lon="2.592074167950644"><ele>457.0</ele><time>2026-04-22T10:08:02.999Z</time></trkpt><trkpt lat="42.42703017656013" lon="2.5919695371696805"><ele>457.0</ele><time>2026-04-22T10:08:03.999Z</time></trkpt><trkpt lat="42.426886699829744" lon="2.5918878614383996"><ele>457.0</ele><time>2026-04-22T10:08:04.999Z</time></trkpt><trkpt lat="42.426732232211045" lon="2.591831730230859"><ele>457.0</ele><time>2026-04-22T10:08:05.999Z</time></trkpt><trkpt lat="42.42655815753975" lon="2.591810871096024"><ele>457.0</ele><time>2026-04-22T10:08:06.999Z</time></trkpt><trkpt lat="42.42637687082671" lon="2.591803900906086"><ele>457.0</ele><time>2026-04-22T10:08:07.999Z</time></trkpt><trkpt lat="42.42618593742327" lon="2.591810085013208"><ele>457.0</ele><time>2026-04-22T10:08:08.999Z</time></trkpt><trkpt lat="42.42598905754792" lon="2.591832020832668"><ele>459.0</ele><time>2026-04-22T10:08:09.999Z</time></trkpt><trkpt lat="42.42578272360909" lon="2.591831307748468"><ele>461.0</ele><time>2026-04-22T10:08:10.999Z</time></trkpt><trkpt lat="42.42558066637163" lon="2.5919147170403396"><ele>463.0</ele><time>2026-04-22T10:08:11.999Z</time></trkpt><trkpt lat="42.42535718165993" lon="2.5919351908431416"><ele>464.33333333333337</ele><time>2026-04-22T10:08:12.999Z</time></trkpt><trkpt lat="42.425154808860874" lon="2.5919281669799186"><ele>465.66666666666663</ele><time>2026-04-22T10:08:13.999Z</time></trkpt><trkpt lat="42.42497716693999" lon="2.59193728952481"><ele>467.0</ele><time>2026-04-22T10:08:14.999Z</time></trkpt><trkpt lat="42.424817983638654" lon="2.591945222743849"><ele>467.0</ele><time>2026-04-22T10:08:15.999Z</time></trkpt><trkpt lat="42.424669921378964" lon="2.591909510237376"><ele>467.0</ele><time>2026-04-22T10:08:16.999Z</time></trkpt><trkpt lat="42.42452860822423" lon="2.5918080737717766"><ele>467.0</ele><time>2026-04-22T10:08:17.999Z</time></trkpt><trkpt lat="42.424383178766774" lon="2.5916824060578345"><ele>478.66666666666663</ele><time>2026-04-22T10:08:18.999Z</time></trkpt><trkpt lat="42.42422161889002" lon="2.5915566658340765"><ele>490.33333333333337</ele><time>2026-04-22T10:08:19.999Z</time></trkpt><trkpt lat="42.424048700150266" lon="2.5914480736299668"><ele>502.0</ele><time>2026-04-22T10:08:20.999Z</time></trkpt><trkpt lat="42.42388275720677" lon="2.59131942704489"><ele>500.33333333333337</ele><time>2026-04-22T10:08:21.999Z</time></trkpt><trkpt lat="42.423734555328565" lon="2.5911593355120424"><ele>498.66666666666663</ele><time>2026-04-22T10:08:22.999Z</time></trkpt><trkpt lat="42.42358629804474" lon="2.5910127803592724"><ele>497.0</ele><time>2026-04-22T10:08:23.999Z</time></trkpt><trkpt lat="42.42341718660982" lon="2.5908987403970625"><ele>497.0</ele><time>2026-04-22T10:08:24.999Z</time></trkpt><trkpt lat="42.4232392219658" lon="2.5908084239455054"><ele>497.0</ele><time>2026-04-22T10:08:25.999Z</time></trkpt><trkpt lat="42.423081503034304" lon="2.5906904421544708"><ele>497.0</ele><time>2026-04-22T10:08:26.999Z</time></trkpt><trkpt lat="42.42294297327731" lon="2.5905156350095946"><ele>498.66666666666663</ele><time>2026-04-22T10:08:27.999Z</time></trkpt><trkpt lat="42.42281263184214" lon="2.590329581729282"><ele>500.33333333333337</ele><time>2026-04-22T10:08:28.999Z</time></trkpt><trkpt lat="42.42267516698821" lon="2.5901644291403336"><ele>502.0</ele><time>2026-04-22T10:08:29.999Z</time></trkpt><trkpt lat="42.422562691154376" lon="2.589999786651946"><ele>502.0</ele><time>2026-04-22T10:08:30.999Z</time></trkpt><trkpt lat="42.4224625560278" lon="2.5898399772247473"><ele>502.0</ele><time>2026-04-22T10:08:31.999Z</time></trkpt><trkpt lat="42.42233810002961" lon="2.5897194905709378"><ele>502.0</ele><time>2026-04-22T10:08:32.999Z</time></trkpt><trkpt lat="42.422178407966925" lon="2.5896315065305333"><ele>502.0</ele><time>2026-04-22T10:08:33.999Z</time></trkpt><trkpt lat="42.42200282568049" lon="2.589583883283104"><ele>502.0</ele><time>2026-04-22T10:08:34.999Z</time></trkpt><trkpt lat="42.42183619509511" lon="2.58957520262067"><ele>502.0</ele><time>2026-04-22T10:08:35.999Z</time></trkpt><trkpt lat="42.42170304164367" lon="2.5896011792850238"><ele>502.0</ele><time>2026-04-22T10:08:36.999Z</time></trkpt><trkpt lat="42.42158022576386" lon="2.5896738285445933"><ele>502.0</ele><time>2026-04-22T10:08:37.999Z</time></trkpt><trkpt lat="42.42147265904584" lon="2.5898039136426054"><ele>502.0</ele><time>2026-04-22T10:08:38.999Z</time></trkpt><trkpt lat="42.4213737512083" lon="2.58999010144034"><ele>502.0</ele><time>2026-04-22T10:08:39.999Z</time></trkpt><trkpt lat="42.42129030104792" lon="2.5901801726717952"><ele>494.33333333333337</ele><time>2026-04-22T10:08:40.999Z</time></trkpt><trkpt lat="42.42123494923878" lon="2.5903627391040183"><ele>486.66666666666663</ele><time>2026-04-22T10:08:41.999Z</time></trkpt><trkpt lat="42.42119613150529" lon="2.5905492322281747"><ele>479.0</ele><time>2026-04-22T10:08:42.999Z</time></trkpt><trkpt lat="42.421219714591274" lon="2.5907755029014297"><ele>479.0</ele><time>2026-04-22T10:08:43.999Z</time></trkpt><trkpt lat="42.42123997253413" lon="2.5910142387278214"><ele>479.0</ele><time>2026-04-22T10:08:44.999Z</time></trkpt><trkpt lat="42.42125087624734" lon="2.59121522336313"><ele>479.0</ele><time>2026-04-22T10:08:45.999Z</time></trkpt><trkpt lat="42.42122355311347" lon="2.5914012790140926"><ele>484.5</ele><time>2026-04-22T10:08:46.999Z</time></trkpt><trkpt lat="42.42115808117056" lon="2.5915783600432665"><ele>490.0</ele><time>2026-04-22T10:08:47.999Z</time></trkpt><trkpt lat="42.42105333378766" lon="2.5917323342957665"><ele>495.5</ele><time>2026-04-22T10:08:48.999Z</time></trkpt><trkpt lat="42.42095689244317" lon="2.5918793186945437"><ele>501.0</ele><time>2026-04-22T10:08:49.999Z</time></trkpt><trkpt lat="42.42091550011807" lon="2.592035802515717"><ele>506.5</ele><time>2026-04-22T10:08:50.999Z</time></trkpt><trkpt lat="42.4209159072697" lon="2.5921994017114818"><ele>512.0</ele><time>2026-04-22T10:08:51.999Z</time></trkpt><trkpt lat="42.42091804837529" lon="2.592367368558876"><ele>517.5</ele><time>2026-04-22T10:08:52.998Z</time></trkpt><trkpt lat="42.420863089644335" lon="2.5925316900561715"><ele>523.0</ele><time>2026-04-22T10:08:53.998Z</time></trkpt><trkpt lat="42.4207575158544" lon="2.5926701837977797"><ele>523.0</ele><time>2026-04-22T10:08:54.998Z</time></trkpt><trkpt lat="42.42061460216512" lon="2.5927711903895605"><ele>523.0</ele><time>2026-04-22T10:08:55.998Z</time></trkpt><trkpt lat="42.420471101475655" lon="2.592809144161403"><ele>523.0</ele><time>2026-04-22T10:08:56.998Z</time></trkpt><trkpt lat="42.42034097629847" lon="2.592828739372031"><ele>523.0</ele><time>2026-04-22T10:08:57.998Z</time></trkpt><trkpt lat="42.42022657410882" lon="2.5929049834513562"><ele>517.75</ele><time>2026-04-22T10:08:58.998Z</time></trkpt><trkpt lat="42.42014264912684" lon="2.5930286555883577"><ele>512.5</ele><time>2026-04-22T10:08:59.998Z</time></trkpt><trkpt lat="42.42010259031152" lon="2.5931755664959697"><ele>507.25</ele><time>2026-04-22T10:09:00.998Z</time></trkpt><trkpt lat="42.42010819111607" lon="2.5933410340527194"><ele>502.0</ele><time>2026-04-22T10:09:01.998Z</time></trkpt><trkpt lat="42.42014820030872" lon="2.593525048488492"><ele>507.6666666666667</ele><time>2026-04-22T10:09:02.998Z</time></trkpt><trkpt lat="42.420165320217535" lon="2.5937386603681674"><ele>513.3333333333334</ele><time>2026-04-22T10:09:03.998Z</time></trkpt><trkpt lat="42.420155613510914" lon="2.5939612203713156"><ele>519.0</ele><time>2026-04-22T10:09:04.998Z</time></trkpt><trkpt lat="42.42011876952717" lon="2.5941878863491863"><ele>519.0</ele><time>2026-04-22T10:09:05.998Z</time></trkpt><trkpt lat="42.42005425798049" lon="2.5944027345663407"><ele>519.0</ele><time>2026-04-22T10:09:06.998Z</time></trkpt><trkpt lat="42.419988608311236" lon="2.5945878228273846"><ele>519.0</ele><time>2026-04-22T10:09:07.998Z</time></trkpt><trkpt lat="42.41995263079886" lon="2.5947689789847064"><ele>523.5</ele><time>2026-04-22T10:09:08.998Z</time></trkpt><trkpt lat="42.41993387037501" lon="2.5949494926436554"><ele>528.0</ele><time>2026-04-22T10:09:09.998Z</time></trkpt><trkpt lat="42.41996171349256" lon="2.595103128369862"><ele>532.5</ele><time>2026-04-22T10:09:10.998Z</time></trkpt><trkpt lat="42.41997686748057" lon="2.5952521501961807"><ele>537.0</ele><time>2026-04-22T10:09:11.998Z</time></trkpt><trkpt lat="42.41991433341427" lon="2.595385630219406"><ele>539.25</ele><time>2026-04-22T10:09:12.998Z</time></trkpt><trkpt lat="42.419815169678536" lon="2.5954524106639316"><ele>541.5</ele><time>2026-04-22T10:09:13.998Z</time></trkpt><trkpt lat="42.41969545779832" lon="2.59546160921725"><ele>543.75</ele><time>2026-04-22T10:09:14.998Z</time></trkpt><trkpt lat="42.419555535590845" lon="2.595451425052439"><ele>546.0</ele><time>2026-04-22T10:09:15.998Z</time></trkpt><trkpt lat="42.41940018612013" lon="2.595461886422583"><ele>546.0</ele><time>2026-04-22T10:09:16.998Z</time></trkpt><trkpt lat="42.419237715242936" lon="2.5955107914605384"><ele>546.0</ele><time>2026-04-22T10:09:18Z</time></trkpt><trkpt lat="42.41906833405949" lon="2.595586802058649"><ele>546.0</ele><time>2026-04-22T10:09:19Z</time></trkpt><trkpt lat="42.41889500108435" lon="2.595685978707531"><ele>538.3333333333334</ele><time>2026-04-22T10:09:20Z</time></trkpt><trkpt lat="42.418734126240416" lon="2.595811198504967"><ele>530.6666666666667</ele><time>2026-04-22T10:09:21Z</time></trkpt><trkpt lat="42.41858853951646" lon="2.5959739249600973"><ele>523.0</ele><time>2026-04-22T10:09:22Z</time></trkpt><trkpt lat="42.41847664341709" lon="2.596151161801941"><ele>524.5</ele><time>2026-04-22T10:09:23Z</time></trkpt><trkpt lat="42.418397313487525" lon="2.5963188574667626"><ele>526.0</ele><time>2026-04-22T10:09:24Z</time></trkpt><trkpt lat="42.41834740181734" lon="2.5964751466573475"><ele>527.5</ele><time>2026-04-22T10:09:25Z</time></trkpt><trkpt lat="42.41835338534422" lon="2.5966222110491137"><ele>529.0</ele><time>2026-04-22T10:09:26Z</time></trkpt><trkpt lat="42.41840147329862" lon="2.5967697505061382"><ele>529.0</ele><time>2026-04-22T10:09:27Z</time></trkpt><trkpt lat="42.4184886977592" lon="2.5969183412763934"><ele>529.0</ele><time>2026-04-22T10:09:28Z</time></trkpt><trkpt lat="42.41859215552948" lon="2.5970843257366876"><ele>529.0</ele><time>2026-04-22T10:09:29Z</time></trkpt><trkpt lat="42.4186497356427" lon="2.5972849524588875"><ele>529.6666666666667</ele><time>2026-04-22T10:09:30Z</time></trkpt><trkpt lat="42.41867375887223" lon="2.597513820751468"><ele>530.3333333333334</ele><time>2026-04-22T10:09:31Z</time></trkpt><trkpt lat="42.41867313629245" lon="2.597757897353529"><ele>531.0</ele><time>2026-04-22T10:09:32Z</time></trkpt><trkpt lat="42.41863432245976" lon="2.5980045965075087"><ele>533.3333333333334</ele><time>2026-04-22T10:09:33Z</time></trkpt><trkpt lat="42.41857509199989" lon="2.598254054285216"><ele>535.6666666666667</ele><time>2026-04-22T10:09:34Z</time></trkpt><trkpt lat="42.41851025725576" lon="2.5985051768685925"><ele>538.0</ele><time>2026-04-22T10:09:35Z</time></trkpt><trkpt lat="42.41842841987207" lon="2.5987514199986914"><ele>543.6666666666667</ele><time>2026-04-22T10:09:36Z</time></trkpt><trkpt lat="42.41833598946415" lon="2.5989836927887304"><ele>549.3333333333334</ele><time>2026-04-22T10:09:37Z</time></trkpt><trkpt lat="42.418236134325454" lon="2.5992084995678097"><ele>555.0</ele><time>2026-04-22T10:09:38Z</time></trkpt><trkpt lat="42.41810799902002" lon="2.599420137515957"><ele>553.0</ele><time>2026-04-22T10:09:39Z</time></trkpt><trkpt lat="42.41794858455451" lon="2.599617764997664"><ele>551.0</ele><time>2026-04-22T10:09:40Z</time></trkpt><trkpt lat="42.41776928408978" lon="2.5998310716956707"><ele>551.0</ele><time>2026-04-22T10:09:41Z</time></trkpt><trkpt lat="42.41757501869892" lon="2.600069321120151"><ele>551.0</ele><time>2026-04-22T10:09:42Z</time></trkpt><trkpt lat="42.41739425970076" lon="2.600299713885206"><ele>555.0</ele><time>2026-04-22T10:09:43Z</time></trkpt><trkpt lat="42.41723013480739" lon="2.600497094823721"><ele>559.0</ele><time>2026-04-22T10:09:44Z</time></trkpt><trkpt lat="42.41705007224318" lon="2.6006764602288657"><ele>563.0</ele><time>2026-04-22T10:09:45Z</time></trkpt><trkpt lat="42.416841358601886" lon="2.600825229119817"><ele>563.0</ele><time>2026-04-22T10:09:46Z</time></trkpt><trkpt lat="42.41662794853686" lon="2.6009469937711067"><ele>563.0</ele><time>2026-04-22T10:09:47Z</time></trkpt><trkpt lat="42.41645344012727" lon="2.6010084621945"><ele>563.0</ele><time>2026-04-22T10:09:48Z</time></trkpt><trkpt lat="42.416636489868075" lon="2.600958696672119"><ele>563.0</ele><time>2026-04-22T10:09:49Z</time></trkpt><trkpt lat="42.41654492305883" lon="2.60098364678326"><ele>563.0</ele><time>2026-04-22T10:09:50Z</time></trkpt><trkpt lat="42.41646851789034" lon="2.600950083405795"><ele>563.0</ele><time>2026-04-22T10:09:51Z</time></trkpt><trkpt lat="42.41642610488864" lon="2.6008460577307604"><ele>563.0</ele><time>2026-04-22T10:09:52Z</time></trkpt><trkpt lat="42.41641114710242" lon="2.6007347540421963"><ele>563.0</ele><time>2026-04-22T10:09:53Z</time></trkpt><trkpt lat="42.41642760821373" lon="2.60062957440104"><ele>563.0</ele><time>2026-04-22T10:09:54Z</time></trkpt><trkpt lat="42.41650681209447" lon="2.6005093909050085"><ele>563.0</ele><time>2026-04-22T10:09:55Z</time></trkpt><trkpt lat="42.41662032082191" lon="2.6003530132730135"><ele>563.0</ele><time>2026-04-22T10:09:56Z</time></trkpt><trkpt lat="42.416744355582615" lon="2.600188518655807"><ele>563.0</ele><time>2026-04-22T10:09:57Z</time></trkpt><trkpt lat="42.41685891306862" lon="2.5999860973001265"><ele>562.3333333333333</ele><time>2026-04-22T10:09:58Z</time></trkpt><trkpt lat="42.416975209051046" lon="2.5997710651365087"><ele>561.6666666666666</ele><time>2026-04-22T10:09:59Z</time></trkpt><trkpt lat="42.41705044119127" lon="2.599534924845509"><ele>561.0</ele><time>2026-04-22T10:10:00Z</time></trkpt><trkpt lat="42.417097273499984" lon="2.599330245552048"><ele>559.75</ele><time>2026-04-22T10:10:01Z</time></trkpt><trkpt lat="42.41709929995435" lon="2.599160540469658"><ele>558.5</ele><time>2026-04-22T10:10:02Z</time></trkpt><trkpt lat="42.41705137635227" lon="2.599021373457523"><ele>557.25</ele><time>2026-04-22T10:10:02.999Z</time></trkpt><trkpt lat="42.41695542402063" lon="2.5989330753740734"><ele>556.0</ele><time>2026-04-22T10:10:03.999Z</time></trkpt><trkpt lat="42.41682650245558" lon="2.598937668583793"><ele>556.0</ele><time>2026-04-22T10:10:04.999Z</time></trkpt><trkpt lat="42.416707832863594" lon="2.5989477925545597"><ele>556.0</ele><time>2026-04-22T10:10:05.999Z</time></trkpt><trkpt lat="42.416556841329246" lon="2.5990140833343016"><ele>556.0</ele><time>2026-04-22T10:10:06.999Z</time></trkpt><trkpt lat="42.416384412573294" lon="2.59905772580195"><ele>558.0</ele><time>2026-04-22T10:10:07.999Z</time></trkpt><trkpt lat="42.416201219111294" lon="2.5990971926589896"><ele>560.0</ele><time>2026-04-22T10:10:08.999Z</time></trkpt><trkpt lat="42.416000746520176" lon="2.599140140175271"><ele>562.0</ele><time>2026-04-22T10:10:09.999Z</time></trkpt><trkpt lat="42.415789326045136" lon="2.5991648672707623"><ele>562.0</ele><time>2026-04-22T10:10:10.999Z</time></trkpt><trkpt lat="42.415541365433484" lon="2.599251047779027"><ele>562.0</ele><time>2026-04-22T10:10:11.999Z</time></trkpt><trkpt lat="42.41533206747506" lon="2.599315271010168"><ele>562.3333333333334</ele><time>2026-04-22T10:10:12.999Z</time></trkpt><trkpt lat="42.415138310660204" lon="2.5993463283370803"><ele>562.6666666666666</ele><time>2026-04-22T10:10:13.999Z</time></trkpt><trkpt lat="42.41495400674156" lon="2.5993263401382816"><ele>563.0</ele><time>2026-04-22T10:10:14.999Z</time></trkpt><trkpt lat="42.414792288486375" lon="2.599326732679117"><ele>568.0</ele><time>2026-04-22T10:10:15.999Z</time></trkpt><trkpt lat="42.41465316050346" lon="2.599348335158738"><ele>573.0</ele><time>2026-04-22T10:10:16.999Z</time></trkpt><trkpt lat="42.41453386823612" lon="2.5992210505246542"><ele>578.0</ele><time>2026-04-22T10:10:17.999Z</time></trkpt><trkpt lat="42.41436636879946" lon="2.5991509332164524"><ele>578.0</ele><time>2026-04-22T10:10:18.999Z</time></trkpt><trkpt lat="42.414197726315706" lon="2.5990648973629558"><ele>578.0</ele><time>2026-04-22T10:10:19.999Z</time></trkpt><trkpt lat="42.41401327286822" lon="2.5990149752950984"><ele>578.0</ele><time>2026-04-22T10:10:20.999Z</time></trkpt><trkpt lat="42.41382842423949" lon="2.5989542688935265"><ele>573.6666666666666</ele><time>2026-04-22T10:10:21.999Z</time></trkpt><trkpt lat="42.41366160070558" lon="2.5988461448796243"><ele>569.3333333333334</ele><time>2026-04-22T10:10:22.999Z</time></trkpt><trkpt lat="42.413520380610784" lon="2.5987431842995483"><ele>565.0</ele><time>2026-04-22T10:10:23.999Z</time></trkpt><trkpt lat="42.413403085974714" lon="2.5986339452528884"><ele>565.0</ele><time>2026-04-22T10:10:24.999Z</time></trkpt><trkpt lat="42.41330838072327" lon="2.5985212840976484"><ele>565.0</ele><time>2026-04-22T10:10:25.999Z</time></trkpt><trkpt lat="42.413186164040695" lon="2.598472108840417"><ele>565.0</ele><time>2026-04-22T10:10:26.999Z</time></trkpt><trkpt lat="42.41304213756715" lon="2.598505379952436"><ele>565.0</ele><time>2026-04-22T10:10:27.999Z</time></trkpt><trkpt lat="42.41289424174246" lon="2.5985994955093066"><ele>573.6666666666667</ele><time>2026-04-22T10:10:28.999Z</time></trkpt><trkpt lat="42.41273207709063" lon="2.5987077106532297"><ele>582.3333333333334</ele><time>2026-04-22T10:10:29.999Z</time></trkpt><trkpt lat="42.4125782448454" lon="2.598786462423532"><ele>591.0</ele><time>2026-04-22T10:10:30.999Z</time></trkpt><trkpt lat="42.412418219254825" lon="2.598797356111828"><ele>591.0</ele><time>2026-04-22T10:10:31.999Z</time></trkpt><trkpt lat="42.41226864800855" lon="2.5987856790473085"><ele>591.0</ele><time>2026-04-22T10:10:32.999Z</time></trkpt><trkpt lat="42.412119565183836" lon="2.5988004232035293"><ele>591.0</ele><time>2026-04-22T10:10:33.999Z</time></trkpt><trkpt lat="42.41196985418486" lon="2.5988814101554767"><ele>586.0</ele><time>2026-04-22T10:10:34.999Z</time></trkpt><trkpt lat="42.411834671122826" lon="2.5990158663665333"><ele>581.0</ele><time>2026-04-22T10:10:35.999Z</time></trkpt><trkpt lat="42.41173547468287" lon="2.5991725088326723"><ele>576.0</ele><time>2026-04-22T10:10:36.999Z</time></trkpt><trkpt lat="42.41167651978735" lon="2.599342833062773"><ele>578.2</ele><time>2026-04-22T10:10:37.999Z</time></trkpt><trkpt lat="42.41166102164913" lon="2.5995230019722806"><ele>580.4000000000001</ele><time>2026-04-22T10:10:38.999Z</time></trkpt><trkpt lat="42.41164849035113" lon="2.5996834916507847"><ele>582.6</ele><time>2026-04-22T10:10:39.999Z</time></trkpt><trkpt lat="42.411605247106664" lon="2.5997956379882994"><ele>584.8000000000001</ele><time>2026-04-22T10:10:40.999Z</time></trkpt><trkpt lat="42.41154535022124" lon="2.5998785719835027"><ele>587.0</ele><time>2026-04-22T10:10:41.999Z</time></trkpt><trkpt lat="42.41142795770288" lon="2.5998685042213343"><ele>588.75</ele><time>2026-04-22T10:10:42.999Z</time></trkpt><trkpt lat="42.41131973414252" lon="2.5998848236104366"><ele>590.5</ele><time>2026-04-22T10:10:43.999Z</time></trkpt><trkpt lat="42.41123175408346" lon="2.599808389675094"><ele>592.25</ele><time>2026-04-22T10:10:44.999Z</time></trkpt><trkpt lat="42.41119492056621" lon="2.5996613704520057"><ele>594.0</ele><time>2026-04-22T10:10:45.999Z</time></trkpt><trkpt lat="42.41112557278038" lon="2.5995029075239473"><ele>591.0</ele><time>2026-04-22T10:10:46.999Z</time></trkpt><trkpt lat="42.41104843584323" lon="2.5993638187250725"><ele>588.0</ele><time>2026-04-22T10:10:47.999Z</time></trkpt><trkpt lat="42.41090503290206" lon="2.5993310949901476"><ele>585.0</ele><time>2026-04-22T10:10:48.999Z</time></trkpt><trkpt lat="42.410761503888914" lon="2.599358421788516"><ele>582.0</ele><time>2026-04-22T10:10:49.999Z</time></trkpt><trkpt lat="42.41061535622856" lon="2.5993695946174626"><ele>589.0</ele><time>2026-04-22T10:10:50.999Z</time></trkpt><trkpt lat="42.41047931854524" lon="2.5993052730326873"><ele>596.0</ele><time>2026-04-22T10:10:51.999Z</time></trkpt><trkpt lat="42.41036604375142" lon="2.5992018618507604"><ele>603.0</ele><time>2026-04-22T10:10:52.999Z</time></trkpt><trkpt lat="42.41030259082774" lon="2.5990715308065195"><ele>610.0</ele><time>2026-04-22T10:10:53.999Z</time></trkpt><trkpt lat="42.41028959852988" lon="2.5988766282819227"><ele>610.0</ele><time>2026-04-22T10:10:54.999Z</time></trkpt><trkpt lat="42.4103638271428" lon="2.598678851138309"><ele>610.0</ele><time>2026-04-22T10:10:55.999Z</time></trkpt><trkpt lat="42.410363413938214" lon="2.5984634736658005"><ele>610.0</ele><time>2026-04-22T10:10:56.999Z</time></trkpt><trkpt lat="42.41033643438956" lon="2.5982569598309655"><ele>610.0</ele><time>2026-04-22T10:10:57.999Z</time></trkpt><trkpt lat="42.41026791081399" lon="2.5980321723451563"><ele>610.0</ele><time>2026-04-22T10:10:58.999Z</time></trkpt><trkpt lat="42.410263374860406" lon="2.5977893945825787"><ele>610.0</ele><time>2026-04-22T10:10:59.999Z</time></trkpt><trkpt lat="42.41029534549826" lon="2.597534654832163"><ele>611.0</ele><time>2026-04-22T10:11:00.999Z</time></trkpt><trkpt lat="42.410338090776" lon="2.5972758299419243"><ele>612.0</ele><time>2026-04-22T10:11:01.999Z</time></trkpt><trkpt lat="42.410380683742225" lon="2.5970290697114926"><ele>613.0</ele><time>2026-04-22T10:11:02.999Z</time></trkpt><trkpt lat="42.410446550610196" lon="2.5968110014736414"><ele>600.6666666666667</ele><time>2026-04-22T10:11:03.998Z</time></trkpt><trkpt lat="42.41051236930137" lon="2.596600178659159"><ele>588.3333333333334</ele><time>2026-04-22T10:11:04.998Z</time></trkpt><trkpt lat="42.41056288499209" lon="2.5963933271256168"><ele>576.0</ele><time>2026-04-22T10:11:05.998Z</time></trkpt><trkpt lat="42.41058287208926" lon="2.596179398756691"><ele>575.6666666666666</ele><time>2026-04-22T10:11:06.998Z</time></trkpt><trkpt lat="42.41054730104556" lon="2.5959682855938047"><ele>575.3333333333333</ele><time>2026-04-22T10:11:07.998Z</time></trkpt><trkpt lat="42.41048753385037" lon="2.595786601236251"><ele>575.0</ele><time>2026-04-22T10:11:08.998Z</time></trkpt><trkpt lat="42.4103952282179" lon="2.5956362240662707"><ele>581.5</ele><time>2026-04-22T10:11:09.998Z</time></trkpt><trkpt lat="42.41027173029679" lon="2.5955357910526584"><ele>588.0</ele><time>2026-04-22T10:11:10.998Z</time></trkpt><trkpt lat="42.41013171648073" lon="2.595479684293582"><ele>594.5</ele><time>2026-04-22T10:11:11.998Z</time></trkpt><trkpt lat="42.40998343081401" lon="2.5954597936326462"><ele>601.0</ele><time>2026-04-22T10:11:12.998Z</time></trkpt><trkpt lat="42.40983128642898" lon="2.5954619734157194"><ele>601.0</ele><time>2026-04-22T10:11:13.998Z</time></trkpt><trkpt lat="42.409691844859765" lon="2.595494728048311"><ele>601.0</ele><time>2026-04-22T10:11:14.998Z</time></trkpt><trkpt lat="42.409536792698766" lon="2.5956031612737855"><ele>601.0</ele><time>2026-04-22T10:11:15.998Z</time></trkpt><trkpt lat="42.40937486140042" lon="2.595724226481997"><ele>599.0</ele><time>2026-04-22T10:11:16.998Z</time></trkpt><trkpt lat="42.4092182535336" lon="2.5958223008386496"><ele>597.0</ele><time>2026-04-22T10:11:17.998Z</time></trkpt><trkpt lat="42.40908729940652" lon="2.5959486045515034"><ele>595.0</ele><time>2026-04-22T10:11:18.998Z</time></trkpt><trkpt lat="42.408975769893736" lon="2.5961128008200482"><ele>598.6666666666667</ele><time>2026-04-22T10:11:19.998Z</time></trkpt><trkpt lat="42.40888599082276" lon="2.5963127848259306"><ele>602.3333333333334</ele><time>2026-04-22T10:11:20.998Z</time></trkpt><trkpt lat="42.40883749874942" lon="2.596552209381124"><ele>606.0</ele><time>2026-04-22T10:11:21.998Z</time></trkpt><trkpt lat="42.40880432434909" lon="2.596798562421889"><ele>605.0</ele><time>2026-04-22T10:11:22.998Z</time></trkpt><trkpt lat="42.408764019909185" lon="2.5970449472746164"><ele>604.0</ele><time>2026-04-22T10:11:24Z</time></trkpt><trkpt lat="42.40872569012437" lon="2.597258993483433"><ele>603.0</ele><time>2026-04-22T10:11:25Z</time></trkpt><trkpt lat="42.408654299556375" lon="2.597451986955069"><ele>603.0</ele><time>2026-04-22T10:11:26Z</time></trkpt><trkpt lat="42.40855692644808" lon="2.5976408871815053"><ele>603.0</ele><time>2026-04-22T10:11:27Z</time></trkpt><trkpt lat="42.4084591289861" lon="2.5978166844400996"><ele>603.0</ele><time>2026-04-22T10:11:28Z</time></trkpt><trkpt lat="42.40835032471476" lon="2.59797121404376"><ele>602.25</ele><time>2026-04-22T10:11:29Z</time></trkpt><trkpt lat="42.408226567195626" lon="2.5980974245884947"><ele>601.5</ele><time>2026-04-22T10:11:30Z</time></trkpt><trkpt lat="42.408102999582276" lon="2.5982120631738033"><ele>600.75</ele><time>2026-04-22T10:11:31Z</time></trkpt><trkpt lat="42.40798122826579" lon="2.59830250764092"><ele>600.0</ele><time>2026-04-22T10:11:32Z</time></trkpt><trkpt lat="42.40788136019856" lon="2.5983998702794757"><ele>600.0</ele><time>2026-04-22T10:11:33Z</time></trkpt><trkpt lat="42.40778642338951" lon="2.5984831782816014"><ele>600.0</ele><time>2026-04-22T10:11:34Z</time></trkpt><trkpt lat="42.407698088089894" lon="2.5985802263689775"><ele>600.0</ele><time>2026-04-22T10:11:35Z</time></trkpt><trkpt lat="42.407611021972976" lon="2.5986638033599103"><ele>600.0</ele><time>2026-04-22T10:11:36Z</time></trkpt><trkpt lat="42.40750487145618" lon="2.5986735718852754"><ele>600.0</ele><time>2026-04-22T10:11:37Z</time></trkpt><trkpt lat="42.407399508116285" lon="2.598664001199181"><ele>600.4</ele><time>2026-04-22T10:11:38Z</time></trkpt><trkpt lat="42.407296099499774" lon="2.598706459049284"><ele>600.8</ele><time>2026-04-22T10:11:39Z</time></trkpt><trkpt lat="42.40721313427164" lon="2.598783660591302"><ele>601.2</ele><time>2026-04-22T10:11:40Z</time></trkpt><trkpt lat="42.4071392908012" lon="2.5988896941029807"><ele>601.6</ele><time>2026-04-22T10:11:41Z</time></trkpt><trkpt lat="42.40707151558107" lon="2.5990032989236744"><ele>602.0</ele><time>2026-04-22T10:11:42Z</time></trkpt><trkpt lat="42.40700265501547" lon="2.5991123977457424"><ele>602.0</ele><time>2026-04-22T10:11:43Z</time></trkpt><trkpt lat="42.40690544563157" lon="2.599193448262901"><ele>602.0</ele><time>2026-04-22T10:11:44Z</time></trkpt><trkpt lat="42.406787772982035" lon="2.599271950813238"><ele>602.0</ele><time>2026-04-22T10:11:45Z</time></trkpt><trkpt lat="42.40667556958367" lon="2.599346478150214"><ele>602.0</ele><time>2026-04-22T10:11:46Z</time></trkpt><trkpt lat="42.406565375927016" lon="2.599421413506043"><ele>604.75</ele><time>2026-04-22T10:11:47Z</time></trkpt><trkpt lat="42.40646520088929" lon="2.5995107689330323"><ele>607.5</ele><time>2026-04-22T10:11:48Z</time></trkpt><trkpt lat="42.406355264214916" lon="2.5995663431186813"><ele>610.25</ele><time>2026-04-22T10:11:49Z</time></trkpt><trkpt lat="42.40624505951583" lon="2.599601106714407"><ele>613.0</ele><time>2026-04-22T10:11:50Z</time></trkpt><trkpt lat="42.4061233637351" lon="2.5995930573592814"><ele>613.0</ele><time>2026-04-22T10:11:51Z</time></trkpt><trkpt lat="42.405999612017176" lon="2.5995816664837683"><ele>613.0</ele><time>2026-04-22T10:11:52Z</time></trkpt><trkpt lat="42.40588376137383" lon="2.599545300478304"><ele>613.0</ele><time>2026-04-22T10:11:53Z</time></trkpt><trkpt lat="42.40575777944666" lon="2.5995416849932154"><ele>613.0</ele><time>2026-04-22T10:11:54Z</time></trkpt><trkpt lat="42.405649458546236" lon="2.599542502088368"><ele>613.0</ele><time>2026-04-22T10:11:55Z</time></trkpt><trkpt lat="42.405539369516006" lon="2.5995840333845552"><ele>613.0</ele><time>2026-04-22T10:11:56Z</time></trkpt><trkpt lat="42.40545068820716" lon="2.5996589166092288"><ele>613.0</ele><time>2026-04-22T10:11:57Z</time></trkpt><trkpt lat="42.40539008748463" lon="2.5997337464692976"><ele>613.0</ele><time>2026-04-22T10:11:58Z</time></trkpt><trkpt lat="42.405303096040925" lon="2.5998245266033138"><ele>613.0</ele><time>2026-04-22T10:12:00Z</time></trkpt><trkpt lat="42.4051949796294" lon="2.5999578086579116"><ele>612.1999999999999</ele><time>2026-04-22T10:12:02Z</time></trkpt><trkpt lat="42.405126884097655" lon="2.6000364351664187"><ele>611.4</ele><time>2026-04-22T10:12:03Z</time></trkpt><trkpt lat="42.40504093601036" lon="2.6000995277625267"><ele>610.5999999999999</ele><time>2026-04-22T10:12:04Z</time></trkpt><trkpt lat="42.404945270435185" lon="2.600098142068643"><ele>609.8</ele><time>2026-04-22T10:12:05Z</time></trkpt><trkpt lat="42.4048396272033" lon="2.600069297276845"><ele>609.0</ele><time>2026-04-22T10:12:06Z</time></trkpt><trkpt lat="42.40472764039738" lon="2.600004604527886"><ele>609.75</ele><time>2026-04-22T10:12:07Z</time></trkpt><trkpt lat="42.40458483918663" lon="2.5999367185578657"><ele>610.5</ele><time>2026-04-22T10:12:08Z</time></trkpt><trkpt lat="42.40447151626838" lon="2.5998718374014778"><ele>611.25</ele><time>2026-04-22T10:12:08.999Z</time></trkpt><trkpt lat="42.40436526768055" lon="2.59982267200569"><ele>612.0</ele><time>2026-04-22T10:12:09.999Z</time></trkpt><trkpt lat="42.40425446101029" lon="2.5997931597741593"><ele>612.0</ele><time>2026-04-22T10:12:10.999Z</time></trkpt><trkpt lat="42.404151508414245" lon="2.599759304584779"><ele>612.0</ele><time>2026-04-22T10:12:11.999Z</time></trkpt><trkpt lat="42.40404554610513" lon="2.599741908862008"><ele>612.0</ele><time>2026-04-22T10:12:12.999Z</time></trkpt><trkpt lat="42.403946308671" lon="2.5997316363652945"><ele>612.0</ele><time>2026-04-22T10:12:13.999Z</time></trkpt><trkpt lat="42.40384690921062" lon="2.599734624954149"><ele>612.0</ele><time>2026-04-22T10:12:14.999Z</time></trkpt><trkpt lat="42.40369429592557" lon="2.599727741295399"><ele>612.0</ele><time>2026-04-22T10:12:15.999Z</time></trkpt><trkpt lat="42.40352928066387" lon="2.5997500659530326"><ele>612.0</ele><time>2026-04-22T10:12:16.999Z</time></trkpt><trkpt lat="42.403342505902565" lon="2.5997908240170644"><ele>612.0</ele><time>2026-04-22T10:12:17.999Z</time></trkpt><trkpt lat="42.40314413286284" lon="2.5998103330768045"><ele>613.3333333333334</ele><time>2026-04-22T10:12:18.999Z</time></trkpt><trkpt lat="42.402951556748306" lon="2.599837255699555"><ele>614.6666666666667</ele><time>2026-04-22T10:12:19.999Z</time></trkpt><trkpt lat="42.40277288617275" lon="2.599876773452859"><ele>616.0</ele><time>2026-04-22T10:12:20.999Z</time></trkpt><trkpt lat="42.402602296259246" lon="2.5998828573059827"><ele>616.0</ele><time>2026-04-22T10:12:21.999Z</time></trkpt><trkpt lat="42.402448531449096" lon="2.5999181007856884"><ele>616.0</ele><time>2026-04-22T10:12:22.999Z</time></trkpt><trkpt lat="42.402312049934295" lon="2.5999184735976657"><ele>616.0</ele><time>2026-04-22T10:12:23.999Z</time></trkpt><trkpt lat="42.4021799165358" lon="2.599835646209078"><ele>616.0</ele><time>2026-04-22T10:12:24.999Z</time></trkpt><trkpt lat="42.402056072860404" lon="2.5997368005803643"><ele>615.0</ele><time>2026-04-22T10:12:25.999Z</time></trkpt><trkpt lat="42.40195770555171" lon="2.599572836836372"><ele>614.0</ele><time>2026-04-22T10:12:26.999Z</time></trkpt><trkpt lat="42.40186324931069" lon="2.599389639843055"><ele>613.0</ele><time>2026-04-22T10:12:27.999Z</time></trkpt><trkpt lat="42.401760061143555" lon="2.5992001414231325"><ele>613.0</ele><time>2026-04-22T10:12:28.999Z</time></trkpt><trkpt lat="42.401684155196904" lon="2.5990055250616586"><ele>613.0</ele><time>2026-04-22T10:12:29.999Z</time></trkpt><trkpt lat="42.40163427471309" lon="2.5987943587825044"><ele>613.0</ele><time>2026-04-22T10:12:30.999Z</time></trkpt><trkpt lat="42.40159145620969" lon="2.5985914673395065"><ele>610.0</ele><time>2026-04-22T10:12:31.999Z</time></trkpt><trkpt lat="42.401504852072215" lon="2.5983861105102677"><ele>607.0</ele><time>2026-04-22T10:12:32.999Z</time></trkpt><trkpt lat="42.401375657266016" lon="2.5981892264042985"><ele>604.0</ele><time>2026-04-22T10:12:33.999Z</time></trkpt><trkpt lat="42.401233189333354" lon="2.5979982469873812"><ele>607.0</ele><time>2026-04-22T10:12:34.999Z</time></trkpt><trkpt lat="42.401092926173625" lon="2.5978029618141103"><ele>610.0</ele><time>2026-04-22T10:12:35.999Z</time></trkpt><trkpt lat="42.40096983701539" lon="2.5976216882815764"><ele>613.0</ele><time>2026-04-22T10:12:36.999Z</time></trkpt><trkpt lat="42.40084823747784" lon="2.597467008633738"><ele>613.0</ele><time>2026-04-22T10:12:37.999Z</time></trkpt><trkpt lat="42.40072354611422" lon="2.5973397484943446"><ele>613.0</ele><time>2026-04-22T10:12:38.999Z</time></trkpt><trkpt lat="42.40059237257369" lon="2.5972604291122425"><ele>613.0</ele><time>2026-04-22T10:12:39.999Z</time></trkpt><trkpt lat="42.40045421102196" lon="2.597245238721397"><ele>613.0</ele><time>2026-04-22T10:12:40.999Z</time></trkpt><trkpt lat="42.400318950773375" lon="2.5973010545400137"><ele>614.3333333333334</ele><time>2026-04-22T10:12:41.999Z</time></trkpt><trkpt lat="42.40018315235592" lon="2.5974070343083238"><ele>615.6666666666666</ele><time>2026-04-22T10:12:42.999Z</time></trkpt><trkpt lat="42.400040149316574" lon="2.5975373277574296"><ele>617.0</ele><time>2026-04-22T10:12:43.999Z</time></trkpt><trkpt lat="42.39988342938704" lon="2.5976553865775314"><ele>617.0</ele><time>2026-04-22T10:12:44.999Z</time></trkpt><trkpt lat="42.39971597032059" lon="2.597706051862951"><ele>617.0</ele><time>2026-04-22T10:12:45.999Z</time></trkpt><trkpt lat="42.399541016932304" lon="2.597740571410059"><ele>617.0</ele><time>2026-04-22T10:12:46.999Z</time></trkpt><trkpt lat="42.399377226434105" lon="2.5978198063905436"><ele>618.3333333333333</ele><time>2026-04-22T10:12:47.999Z</time></trkpt><trkpt lat="42.39922612660572" lon="2.5979693443501235"><ele>619.6666666666666</ele><time>2026-04-22T10:12:48.999Z</time></trkpt><trkpt lat="42.39909687874436" lon="2.5981767997558296"><ele>621.0</ele><time>2026-04-22T10:12:49.999Z</time></trkpt><trkpt lat="42.398987802494304" lon="2.5984168031910326"><ele>621.0</ele><time>2026-04-22T10:12:50.999Z</time></trkpt><trkpt lat="42.39887761938951" lon="2.598642154507896"><ele>621.0</ele><time>2026-04-22T10:12:51.999Z</time></trkpt><trkpt lat="42.39876733924485" lon="2.5988424349187684"><ele>621.0</ele><time>2026-04-22T10:12:52.999Z</time></trkpt><trkpt lat="42.39866318995808" lon="2.5990037713763408"><ele>620.3333333333334</ele><time>2026-04-22T10:12:53.999Z</time></trkpt><trkpt lat="42.39853029325658" lon="2.599115038692087"><ele>619.6666666666667</ele><time>2026-04-22T10:12:54.999Z</time></trkpt><trkpt lat="42.39837293811193" lon="2.5992049781986255"><ele>619.0</ele><time>2026-04-22T10:12:55.999Z</time></trkpt><trkpt lat="42.3981949226928" lon="2.599325562236453"><ele>619.0</ele><time>2026-04-22T10:12:56.999Z</time></trkpt><trkpt lat="42.39802689236167" lon="2.59941176135134"><ele>619.0</ele><time>2026-04-22T10:12:57.999Z</time></trkpt><trkpt lat="42.397847949180594" lon="2.5994647222113723"><ele>619.0</ele><time>2026-04-22T10:12:58.999Z</time></trkpt><trkpt lat="42.39768762320127" lon="2.599499438528433"><ele>620.75</ele><time>2026-04-22T10:12:59.999Z</time></trkpt><trkpt lat="42.397546143890295" lon="2.5995481783408305"><ele>622.5</ele><time>2026-04-22T10:13:00.999Z</time></trkpt><trkpt lat="42.39740545986076" lon="2.59962850082406"><ele>624.25</ele><time>2026-04-22T10:13:01.999Z</time></trkpt><trkpt lat="42.397294356131475" lon="2.5997569311876534"><ele>626.0</ele><time>2026-04-22T10:13:02.999Z</time></trkpt><trkpt lat="42.397220592096325" lon="2.5998763248207157"><ele>627.2</ele><time>2026-04-22T10:13:03.999Z</time></trkpt><trkpt lat="42.397147783102774" lon="2.5999709564855995"><ele>628.4000000000001</ele><time>2026-04-22T10:13:04.999Z</time></trkpt><trkpt lat="42.397038913377635" lon="2.5999892041224073"><ele>629.6</ele><time>2026-04-22T10:13:05.999Z</time></trkpt><trkpt lat="42.39694320398479" lon="2.5999386506444426"><ele>630.8000000000001</ele><time>2026-04-22T10:13:06.999Z</time></trkpt><trkpt lat="42.39688190485739" lon="2.599820505487506"><ele>632.0</ele><time>2026-04-22T10:13:07.999Z</time></trkpt><trkpt lat="42.39679018253222" lon="2.599704183569747"><ele>632.0</ele><time>2026-04-22T10:13:08.998Z</time></trkpt><trkpt lat="42.39669335322742" lon="2.599587654165501"><ele>632.0</ele><time>2026-04-22T10:13:09.998Z</time></trkpt><trkpt lat="42.39656200198925" lon="2.599570375650794"><ele>632.0</ele><time>2026-04-22T10:13:10.998Z</time></trkpt><trkpt lat="42.39641718371189" lon="2.5995665074893717"><ele>632.0</ele><time>2026-04-22T10:13:11.998Z</time></trkpt><trkpt lat="42.39625059374119" lon="2.59957372191389"><ele>628.3333333333333</ele><time>2026-04-22T10:13:12.998Z</time></trkpt><trkpt lat="42.39608956307541" lon="2.599539284242087"><ele>624.6666666666666</ele><time>2026-04-22T10:13:13.998Z</time></trkpt><trkpt lat="42.39591792880736" lon="2.599470865783818"><ele>621.0</ele><time>2026-04-22T10:13:14.998Z</time></trkpt><trkpt lat="42.39574790498069" lon="2.5994053785689157"><ele>621.0</ele><time>2026-04-22T10:13:15.998Z</time></trkpt><trkpt lat="42.395592201145064" lon="2.599352839692374"><ele>621.0</ele><time>2026-04-22T10:13:16.998Z</time></trkpt><trkpt lat="42.395434128295506" lon="2.5993300989884265"><ele>621.0</ele><time>2026-04-22T10:13:17.998Z</time></trkpt><trkpt lat="42.395278140706004" lon="2.599314104818126"><ele>621.0</ele><time>2026-04-22T10:13:18.998Z</time></trkpt><trkpt lat="42.3951161738882" lon="2.599354183723128"><ele>621.0</ele><time>2026-04-22T10:13:19.998Z</time></trkpt><trkpt lat="42.39496192446955" lon="2.5994121756276467"><ele>621.0</ele><time>2026-04-22T10:13:20.998Z</time></trkpt><trkpt lat="42.394802030878886" lon="2.599381436644615"><ele>621.0</ele><time>2026-04-22T10:13:21.998Z</time></trkpt><trkpt lat="42.39466230955152" lon="2.5993141400493727"><ele>621.0</ele><time>2026-04-22T10:13:22.998Z</time></trkpt><trkpt lat="42.3945340262014" lon="2.599242287714099"><ele>621.0</ele><time>2026-04-22T10:13:23.998Z</time></trkpt><trkpt lat="42.39441246522381" lon="2.599192590746458"><ele>621.0</ele><time>2026-04-22T10:13:24.998Z</time></trkpt><trkpt lat="42.39428481139321" lon="2.5991975522921544"><ele>621.0</ele><time>2026-04-22T10:13:25.998Z</time></trkpt><trkpt lat="42.39415429194527" lon="2.599258463092716"><ele>621.0</ele><time>2026-04-22T10:13:26.998Z</time></trkpt><trkpt lat="42.39402555350521" lon="2.59937921916355"><ele>621.0</ele><time>2026-04-22T10:13:27.998Z</time></trkpt><trkpt lat="42.39391588294018" lon="2.599539374339355"><ele>620.6666666666666</ele><time>2026-04-22T10:13:28.998Z</time></trkpt><trkpt lat="42.3938304955487" lon="2.5997252056613607"><ele>620.3333333333333</ele><time>2026-04-22T10:13:30Z</time></trkpt><trkpt lat="42.39377934752587" lon="2.599930090262268"><ele>620.0</ele><time>2026-04-22T10:13:31Z</time></trkpt><trkpt lat="42.39372269509996" lon="2.600168041118153"><ele>623.0</ele><time>2026-04-22T10:13:32Z</time></trkpt><trkpt lat="42.39366415415998" lon="2.6004081718588083"><ele>626.0</ele><time>2026-04-22T10:13:33Z</time></trkpt><trkpt lat="42.393581717004125" lon="2.6005843417091543"><ele>629.0</ele><time>2026-04-22T10:13:34Z</time></trkpt><trkpt lat="42.39350761822349" lon="2.6007625176907436"><ele>629.0</ele><time>2026-04-22T10:13:35Z</time></trkpt><trkpt lat="42.39342408207366" lon="2.6009149829518585"><ele>629.0</ele><time>2026-04-22T10:13:36Z</time></trkpt><trkpt lat="42.39330211730524" lon="2.6010420597450747"><ele>629.0</ele><time>2026-04-22T10:13:37Z</time></trkpt><trkpt lat="42.39315081426546" lon="2.6011443447620235"><ele>628.0</ele><time>2026-04-22T10:13:38Z</time></trkpt><trkpt lat="42.39298550964306" lon="2.601191414549614"><ele>627.0</ele><time>2026-04-22T10:13:39Z</time></trkpt><trkpt lat="42.392827405527264" lon="2.601188060867954"><ele>626.0</ele><time>2026-04-22T10:13:40Z</time></trkpt><trkpt lat="42.39269050100812" lon="2.6011508826431213"><ele>626.0</ele><time>2026-04-22T10:13:41Z</time></trkpt><trkpt lat="42.39257371214281" lon="2.6010786508828625"><ele>626.0</ele><time>2026-04-22T10:13:42Z</time></trkpt><trkpt lat="42.39247215680235" lon="2.6009749096143864"><ele>626.0</ele><time>2026-04-22T10:13:43Z</time></trkpt><trkpt lat="42.392374741762055" lon="2.600879537356351"><ele>626.0</ele><time>2026-04-22T10:13:44Z</time></trkpt><trkpt lat="42.39225035756379" lon="2.600840000751"><ele>624.75</ele><time>2026-04-22T10:13:45Z</time></trkpt><trkpt lat="42.39211545204715" lon="2.6008639987320192"><ele>623.5</ele><time>2026-04-22T10:13:46Z</time></trkpt><trkpt lat="42.39199133707791" lon="2.6009409811228266"><ele>622.25</ele><time>2026-04-22T10:13:47Z</time></trkpt><trkpt lat="42.39189537298859" lon="2.6010746012868755"><ele>621.0</ele><time>2026-04-22T10:13:48Z</time></trkpt><trkpt lat="42.391827852658125" lon="2.601246782264436"><ele>624.6666666666666</ele><time>2026-04-22T10:13:49Z</time></trkpt><trkpt lat="42.39175312482075" lon="2.60144544422114"><ele>628.3333333333333</ele><time>2026-04-22T10:13:50Z</time></trkpt><trkpt lat="42.39166261844708" lon="2.601646448570451"><ele>632.0</ele><time>2026-04-22T10:13:51Z</time></trkpt><trkpt lat="42.39155407359314" lon="2.6018574192311856"><ele>630.6666666666666</ele><time>2026-04-22T10:13:52Z</time></trkpt><trkpt lat="42.391456177509816" lon="2.60207594637166"><ele>629.3333333333334</ele><time>2026-04-22T10:13:53Z</time></trkpt><trkpt lat="42.39135078379465" lon="2.6022671674750577"><ele>628.0</ele><time>2026-04-22T10:13:54Z</time></trkpt><trkpt lat="42.391272885994304" lon="2.6024506048290283"><ele>628.0</ele><time>2026-04-22T10:13:55Z</time></trkpt><trkpt lat="42.39113586545524" lon="2.6025295371812533"><ele>628.0</ele><time>2026-04-22T10:13:56Z</time></trkpt><trkpt lat="42.390985957275" lon="2.6026012727664836"><ele>628.0</ele><time>2026-04-22T10:13:57Z</time></trkpt><trkpt lat="42.39082403419657" lon="2.6026940607288154"><ele>628.0</ele><time>2026-04-22T10:13:58Z</time></trkpt><trkpt lat="42.39064565356628" lon="2.602776034499977"><ele>628.0</ele><time>2026-04-22T10:13:59Z</time></trkpt><trkpt lat="42.390504790644314" lon="2.602907175197499"><ele>628.0</ele><time>2026-04-22T10:14:00Z</time></trkpt><trkpt lat="42.39037704131656" lon="2.6030287131271708"><ele>630.75</ele><time>2026-04-22T10:14:01Z</time></trkpt><trkpt lat="42.39024016439728" lon="2.603162254407552"><ele>633.5</ele><time>2026-04-22T10:14:02Z</time></trkpt><trkpt lat="42.390119437903174" lon="2.6032766351718513"><ele>636.25</ele><time>2026-04-22T10:14:03Z</time></trkpt><trkpt lat="42.39000163175708" lon="2.6033446587483153"><ele>639.0</ele><time>2026-04-22T10:14:04Z</time></trkpt><trkpt lat="42.389876575316094" lon="2.6033680879220515"><ele>639.0</ele><time>2026-04-22T10:14:05Z</time></trkpt><trkpt lat="42.38974135587005" lon="2.60335617554647"><ele>639.0</ele><time>2026-04-22T10:14:06Z</time></trkpt><trkpt lat="42.389626352218755" lon="2.60334393536901"><ele>639.0</ele><time>2026-04-22T10:14:07Z</time></trkpt><trkpt lat="42.38951994418073" lon="2.6033689831185733"><ele>639.0</ele><time>2026-04-22T10:14:08Z</time></trkpt><trkpt lat="42.389416494434606" lon="2.6034308449686616"><ele>638.25</ele><time>2026-04-22T10:14:09Z</time></trkpt><trkpt lat="42.389331368807625" lon="2.6035350979006955"><ele>637.5</ele><time>2026-04-22T10:14:10Z</time></trkpt><trkpt lat="42.389280358797365" lon="2.603679730310401"><ele>636.75</ele><time>2026-04-22T10:14:11Z</time></trkpt><trkpt lat="42.38926175225343" lon="2.6038518046420114"><ele>636.0</ele><time>2026-04-22T10:14:12Z</time></trkpt><trkpt lat="42.3892606366727" lon="2.6040255034952486"><ele>636.0</ele><time>2026-04-22T10:14:13Z</time></trkpt><trkpt lat="42.38926048613624" lon="2.6041877931687147"><ele>636.0</ele><time>2026-04-22T10:14:14Z</time></trkpt><trkpt lat="42.38927831439839" lon="2.604345207469574"><ele>636.0</ele><time>2026-04-22T10:14:14.999Z</time></trkpt><trkpt lat="42.38932207698515" lon="2.6044994112718727"><ele>636.0</ele><time>2026-04-22T10:14:15.999Z</time></trkpt><trkpt lat="42.389387032605676" lon="2.604654331161709"><ele>636.0</ele><time>2026-04-22T10:14:16.999Z</time></trkpt><trkpt lat="42.389447142267045" lon="2.6048022784204603"><ele>636.0</ele><time>2026-04-22T10:14:17.999Z</time></trkpt><trkpt lat="42.38950178298876" lon="2.604958246130745"><ele>636.0</ele><time>2026-04-22T10:14:18.999Z</time></trkpt><trkpt lat="42.389546497288656" lon="2.6051157985799223"><ele>636.0</ele><time>2026-04-22T10:14:19.999Z</time></trkpt><trkpt lat="42.38957065981869" lon="2.605283917186769"><ele>636.75</ele><time>2026-04-22T10:14:20.999Z</time></trkpt><trkpt lat="42.389547055010325" lon="2.605447157085206"><ele>637.5</ele><time>2026-04-22T10:14:21.999Z</time></trkpt><trkpt lat="42.38954649328101" lon="2.6056031033122347"><ele>638.25</ele><time>2026-04-22T10:14:22.999Z</time></trkpt><trkpt lat="42.3895312413026" lon="2.605762884233117"><ele>639.0</ele><time>2026-04-22T10:14:23.999Z</time></trkpt><trkpt lat="42.38950983190922" lon="2.6059216974775787"><ele>639.0</ele><time>2026-04-22T10:14:24.999Z</time></trkpt><trkpt lat="42.389458770517706" lon="2.6060673472770675"><ele>639.0</ele><time>2026-04-22T10:14:25.999Z</time></trkpt><trkpt lat="42.3893747348011" lon="2.6062036611920285"><ele>639.0</ele><time>2026-04-22T10:14:26.999Z</time></trkpt><trkpt lat="42.38927081994143" lon="2.6063286736384894"><ele>639.0</ele><time>2026-04-22T10:14:27.999Z</time></trkpt><trkpt lat="42.38918909607035" lon="2.6064450977107243"><ele>641.5</ele><time>2026-04-22T10:14:28.999Z</time></trkpt><trkpt lat="42.389133300929466" lon="2.606579739678673"><ele>644.0</ele><time>2026-04-22T10:14:29.999Z</time></trkpt><trkpt lat="42.38909612487792" lon="2.6067252245210755"><ele>646.5</ele><time>2026-04-22T10:14:30.999Z</time></trkpt><trkpt lat="42.38906972775674" lon="2.6068840585094244"><ele>649.0</ele><time>2026-04-22T10:14:31.999Z</time></trkpt><trkpt lat="42.38904790400129" lon="2.6070435079799945"><ele>651.75</ele><time>2026-04-22T10:14:32.999Z</time></trkpt><trkpt lat="42.389048339274204" lon="2.6072069469378816"><ele>654.5</ele><time>2026-04-22T10:14:33.999Z</time></trkpt><trkpt lat="42.38907423691811" lon="2.6073848129104817"><ele>657.25</ele><time>2026-04-22T10:14:34.999Z</time></trkpt><trkpt lat="42.389099540412694" lon="2.607546387159553"><ele>660.0</ele><time>2026-04-22T10:14:35.999Z</time></trkpt><trkpt lat="42.38910972132613" lon="2.60770730338582"><ele>662.75</ele><time>2026-04-22T10:14:36.999Z</time></trkpt><trkpt lat="42.389092138374615" lon="2.607868367566489"><ele>665.5</ele><time>2026-04-22T10:14:37.999Z</time></trkpt><trkpt lat="42.38904063932959" lon="2.60801612491732"><ele>668.25</ele><time>2026-04-22T10:14:38.999Z</time></trkpt><trkpt lat="42.38896413765309" lon="2.6081530636502746"><ele>671.0</ele><time>2026-04-22T10:14:39.999Z</time></trkpt><trkpt lat="42.38888937598378" lon="2.6082834228386984"><ele>673.25</ele><time>2026-04-22T10:14:40.999Z</time></trkpt><trkpt lat="42.388838137018084" lon="2.6084173207304238"><ele>675.5</ele><time>2026-04-22T10:14:41.999Z</time></trkpt><trkpt lat="42.38882394418012" lon="2.6085589492780996"><ele>677.75</ele><time>2026-04-22T10:14:42.999Z</time></trkpt><trkpt lat="42.38883470813764" lon="2.608710504388134"><ele>680.0</ele><time>2026-04-22T10:14:43.999Z</time></trkpt><trkpt lat="42.38884836919248" lon="2.6088810091181065"><ele>680.0</ele><time>2026-04-22T10:14:44.999Z</time></trkpt><trkpt lat="42.38885990421468" lon="2.6090393537540555"><ele>680.0</ele><time>2026-04-22T10:14:45.999Z</time></trkpt><trkpt lat="42.38886314427425" lon="2.6092024649665757"><ele>680.0</ele><time>2026-04-22T10:14:46.999Z</time></trkpt><trkpt lat="42.3888735636601" lon="2.6093555669485062"><ele>680.0</ele><time>2026-04-22T10:14:47.999Z</time></trkpt><trkpt lat="42.38886952739193" lon="2.6094930513190544"><ele>678.0</ele><time>2026-04-22T10:14:48.999Z</time></trkpt><trkpt lat="42.38882470648528" lon="2.6096107924485974"><ele>676.0</ele><time>2026-04-22T10:14:49.999Z</time></trkpt><trkpt lat="42.388742825623865" lon="2.609693297539599"><ele>674.0</ele><time>2026-04-22T10:14:50.999Z</time></trkpt><trkpt lat="42.38863573204338" lon="2.609751788030587"><ele>672.0</ele><time>2026-04-22T10:14:51.999Z</time></trkpt><trkpt lat="42.38852106095293" lon="2.6098228214170085"><ele>670.0</ele><time>2026-04-22T10:14:52.999Z</time></trkpt><trkpt lat="42.388418961832436" lon="2.6099066692269433"><ele>670.0</ele><time>2026-04-22T10:14:53.999Z</time></trkpt><trkpt lat="42.388337358885224" lon="2.6100225211933403"><ele>670.0</ele><time>2026-04-22T10:14:54.999Z</time></trkpt><trkpt lat="42.38827090848628" lon="2.610154628877185"><ele>670.0</ele><time>2026-04-22T10:14:55.999Z</time></trkpt><trkpt lat="42.388222564609414" lon="2.610266110161642"><ele>670.0</ele><time>2026-04-22T10:14:56.999Z</time></trkpt><trkpt lat="42.38817202221917" lon="2.6103649991459568"><ele>670.0</ele><time>2026-04-22T10:14:57.999Z</time></trkpt><trkpt lat="42.388103023238294" lon="2.610473043738465"><ele>671.2</ele><time>2026-04-22T10:14:58.999Z</time></trkpt><trkpt lat="42.38802139710019" lon="2.6105700399800478"><ele>672.4</ele><time>2026-04-22T10:14:59.999Z</time></trkpt><trkpt lat="42.38791295681181" lon="2.610637240982745"><ele>673.5999999999999</ele><time>2026-04-22T10:15:00.999Z</time></trkpt><trkpt lat="42.38781502912832" lon="2.6106678484398764"><ele>674.8</ele><time>2026-04-22T10:15:01.999Z</time></trkpt><trkpt lat="42.387709337599574" lon="2.6106969303818808"><ele>676.0</ele><time>2026-04-22T10:15:02.999Z</time></trkpt><trkpt lat="42.387603987526575" lon="2.6107443849833656"><ele>676.0</ele><time>2026-04-22T10:15:03.999Z</time></trkpt><trkpt lat="42.387503798110124" lon="2.610823946607409"><ele>676.0</ele><time>2026-04-22T10:15:04.999Z</time></trkpt><trkpt lat="42.387410467485765" lon="2.610900842445282"><ele>676.0</ele><time>2026-04-22T10:15:05.999Z</time></trkpt><trkpt lat="42.387333600356264" lon="2.6109575115218737"><ele>676.0</ele><time>2026-04-22T10:15:06.999Z</time></trkpt><trkpt lat="42.387270358219965" lon="2.6110190034566987"><ele>676.0</ele><time>2026-04-22T10:15:07.999Z</time></trkpt><trkpt lat="42.38721928616885" lon="2.6110968080283867"><ele>676.0</ele><time>2026-04-22T10:15:08.999Z</time></trkpt><trkpt lat="42.3871705395911" lon="2.6111529283985537"><ele>676.0</ele><time>2026-04-22T10:15:09.999Z</time></trkpt><trkpt lat="42.38710868387368" lon="2.6112071289354097"><ele>676.0</ele><time>2026-04-22T10:15:10.999Z</time></trkpt><trkpt lat="42.38702761871035" lon="2.611328297583299"><ele>676.0</ele><time>2026-04-22T10:15:12.999Z</time></trkpt><trkpt lat="42.38696370148591" lon="2.6114698455764613"><ele>676.0</ele><time>2026-04-22T10:15:14.999Z</time></trkpt><trkpt lat="42.38692364842457" lon="2.611583753860276"><ele>676.0</ele><time>2026-04-22T10:15:15.998Z</time></trkpt><trkpt lat="42.38687817999386" lon="2.6116871805013133"><ele>676.0</ele><time>2026-04-22T10:15:16.998Z</time></trkpt><trkpt lat="42.38678621774608" lon="2.611766804018081"><ele>676.0</ele><time>2026-04-22T10:15:17.998Z</time></trkpt><trkpt lat="42.386686806233065" lon="2.6117953955315163"><ele>676.0</ele><time>2026-04-22T10:15:18.998Z</time></trkpt><trkpt lat="42.38656252262111" lon="2.6118186073025127"><ele>676.0</ele><time>2026-04-22T10:15:19.998Z</time></trkpt><trkpt lat="42.38644131507859" lon="2.611854938094894"><ele>674.5999999999999</ele><time>2026-04-22T10:15:20.998Z</time></trkpt><trkpt lat="42.38632418598524" lon="2.6118891639206843"><ele>673.2</ele><time>2026-04-22T10:15:21.998Z</time></trkpt><trkpt lat="42.38621772257815" lon="2.6119363242574933"><ele>671.8</ele><time>2026-04-22T10:15:22.998Z</time></trkpt><trkpt lat="42.38611355229888" lon="2.6119756803592424"><ele>670.4000000000001</ele><time>2026-04-22T10:15:23.998Z</time></trkpt><trkpt lat="42.386012133582874" lon="2.612011477999096"><ele>669.0</ele><time>2026-04-22T10:15:24.998Z</time></trkpt><trkpt lat="42.38590287677852" lon="2.612038324290552"><ele>672.25</ele><time>2026-04-22T10:15:25.998Z</time></trkpt><trkpt lat="42.38579551574925" lon="2.6120509989495138"><ele>675.5</ele><time>2026-04-22T10:15:26.998Z</time></trkpt><trkpt lat="42.38568100652696" lon="2.612080118527877"><ele>678.75</ele><time>2026-04-22T10:15:27.998Z</time></trkpt><trkpt lat="42.38557479994439" lon="2.6121249715066375"><ele>682.0</ele><time>2026-04-22T10:15:28.998Z</time></trkpt><trkpt lat="42.385459424015046" lon="2.612123656676282"><ele>682.0</ele><time>2026-04-22T10:15:29.998Z</time></trkpt><trkpt lat="42.38534868438101" lon="2.612057832550277"><ele>682.0</ele><time>2026-04-22T10:15:30.998Z</time></trkpt><trkpt lat="42.38524433829622" lon="2.6119620750342327"><ele>682.0</ele><time>2026-04-22T10:15:31.998Z</time></trkpt><trkpt lat="42.385159418537484" lon="2.611839546749361"><ele>682.0</ele><time>2026-04-22T10:15:32.998Z</time></trkpt><trkpt lat="42.385088517510056" lon="2.611718958015717"><ele>679.8</ele><time>2026-04-22T10:15:33.998Z</time></trkpt><trkpt lat="42.385033411294074" lon="2.611610945094892"><ele>677.6</ele><time>2026-04-22T10:15:34.998Z</time></trkpt><trkpt lat="42.38497088982236" lon="2.6115549682304366"><ele>675.4</ele><time>2026-04-22T10:15:36Z</time></trkpt><trkpt lat="42.384896203105896" lon="2.6115132875885276"><ele>673.1999999999999</ele><time>2026-04-22T10:15:37Z</time></trkpt><trkpt lat="42.384793847701836" lon="2.6114714334686653"><ele>671.0</ele><time>2026-04-22T10:15:38Z</time></trkpt><trkpt lat="42.38469412965405" lon="2.611471801585246"><ele>669.8</ele><time>2026-04-22T10:15:39Z</time></trkpt><trkpt lat="42.384611295797015" lon="2.611527772917101"><ele>668.5999999999999</ele><time>2026-04-22T10:15:40Z</time></trkpt><trkpt lat="42.38452957323913" lon="2.6115743143188683"><ele>667.4</ele><time>2026-04-22T10:15:41Z</time></trkpt><trkpt lat="42.38443622763063" lon="2.6116740056072834"><ele>666.2</ele><time>2026-04-22T10:15:43Z</time></trkpt><trkpt lat="42.38438774115461" lon="2.611739990757083"><ele>665.0</ele><time>2026-04-22T10:15:44Z</time></trkpt><trkpt lat="42.38431104411416" lon="2.6118083964345473"><ele>665.0</ele><time>2026-04-22T10:15:45Z</time></trkpt><trkpt lat="42.38423023108236" lon="2.6118829554801537"><ele>665.0</ele><time>2026-04-22T10:15:46Z</time></trkpt><trkpt lat="42.38414539389271" lon="2.6119617164624622"><ele>665.0</ele><time>2026-04-22T10:15:47Z</time></trkpt><trkpt lat="42.384087861507574" lon="2.612056667566528"><ele>665.0</ele><time>2026-04-22T10:15:48Z</time></trkpt><trkpt lat="42.38404853883465" lon="2.6121886477472067"><ele>665.0</ele><time>2026-04-22T10:15:49Z</time></trkpt><trkpt lat="42.3840216252703" lon="2.6123394156300854"><ele>666.4</ele><time>2026-04-22T10:15:50Z</time></trkpt><trkpt lat="42.38398665945491" lon="2.6124742328091544"><ele>667.8</ele><time>2026-04-22T10:15:51Z</time></trkpt><trkpt lat="42.38395575197282" lon="2.6126084947900585"><ele>669.2</ele><time>2026-04-22T10:15:52Z</time></trkpt><trkpt lat="42.3839152845682" lon="2.6127287452130847"><ele>670.6</ele><time>2026-04-22T10:15:53Z</time></trkpt><trkpt lat="42.38387896839735" lon="2.6128559285596435"><ele>672.0</ele><time>2026-04-22T10:15:54Z</time></trkpt><trkpt lat="42.38385133781252" lon="2.6129913001629346"><ele>671.1666666666666</ele><time>2026-04-22T10:15:55Z</time></trkpt><trkpt lat="42.383838054477366" lon="2.613134769997508"><ele>670.3333333333334</ele><time>2026-04-22T10:15:56Z</time></trkpt><trkpt lat="42.38382383024254" lon="2.613269233283257"><ele>669.5</ele><time>2026-04-22T10:15:57Z</time></trkpt><trkpt lat="42.38382534118409" lon="2.613377956780016"><ele>668.6666666666667</ele><time>2026-04-22T10:15:58Z</time></trkpt><trkpt lat="42.38382268740906" lon="2.613478390730429"><ele>667.8333333333334</ele><time>2026-04-22T10:15:59Z</time></trkpt><trkpt lat="42.38382102336885" lon="2.613565544520688"><ele>667.0</ele><time>2026-04-22T10:16:00Z</time></trkpt><trkpt lat="42.38384798384755" lon="2.613759316988746"><ele>667.0</ele><time>2026-04-22T10:16:02Z</time></trkpt><trkpt lat="42.38387721414089" lon="2.613903976209712"><ele>667.0</ele><time>2026-04-22T10:16:03Z</time></trkpt><trkpt lat="42.38390543617396" lon="2.6140619497746043"><ele>667.0</ele><time>2026-04-22T10:16:04Z</time></trkpt><trkpt lat="42.38392259196392" lon="2.6142246169304255"><ele>667.0</ele><time>2026-04-22T10:16:05Z</time></trkpt><trkpt lat="42.38395210990307" lon="2.6143702386054066"><ele>665.8</ele><time>2026-04-22T10:16:06Z</time></trkpt><trkpt lat="42.38396371562367" lon="2.6144941990400787"><ele>664.6</ele><time>2026-04-22T10:16:07Z</time></trkpt><trkpt lat="42.383952068423994" lon="2.614609580470672"><ele>663.4</ele><time>2026-04-22T10:16:08Z</time></trkpt><trkpt lat="42.38394054024033" lon="2.6147167067645034"><ele>662.1999999999999</ele><time>2026-04-22T10:16:09Z</time></trkpt><trkpt lat="42.3838751638757" lon="2.6148348308496527"><ele>661.0</ele><time>2026-04-22T10:16:10Z</time></trkpt><trkpt lat="42.38381546479311" lon="2.6149446597546504"><ele>661.0</ele><time>2026-04-22T10:16:11Z</time></trkpt><trkpt lat="42.38372453578923" lon="2.615017758773356"><ele>661.0</ele><time>2026-04-22T10:16:12Z</time></trkpt><trkpt lat="42.38360525673655" lon="2.6150607725319874"><ele>661.0</ele><time>2026-04-22T10:16:13Z</time></trkpt><trkpt lat="42.383482900990245" lon="2.615070613257693"><ele>661.0</ele><time>2026-04-22T10:16:14Z</time></trkpt><trkpt lat="42.38335487863979" lon="2.6150686986424305"><ele>661.0</ele><time>2026-04-22T10:16:15Z</time></trkpt><trkpt lat="42.38323054504341" lon="2.6150621867963206"><ele>661.0</ele><time>2026-04-22T10:16:16Z</time></trkpt><trkpt lat="42.38312109183539" lon="2.615055869083672"><ele>661.0</ele><time>2026-04-22T10:16:17Z</time></trkpt><trkpt lat="42.38303483053577" lon="2.6149925274913732"><ele>661.0</ele><time>2026-04-22T10:16:18Z</time></trkpt><trkpt lat="42.38297074862597" lon="2.614886407071072"><ele>661.0</ele><time>2026-04-22T10:16:19Z</time></trkpt><trkpt lat="42.382939558907744" lon="2.614744306814106"><ele>661.5999999999999</ele><time>2026-04-22T10:16:20Z</time></trkpt><trkpt lat="42.38292437021741" lon="2.614617430263915"><ele>662.2</ele><time>2026-04-22T10:16:20.999Z</time></trkpt><trkpt lat="42.38287791210979" lon="2.6145165594583344"><ele>662.8</ele><time>2026-04-22T10:16:21.999Z</time></trkpt><trkpt lat="42.382825802180264" lon="2.6144361093309434"><ele>663.4000000000001</ele><time>2026-04-22T10:16:22.999Z</time></trkpt><trkpt lat="42.382723428162585" lon="2.6144139042799"><ele>664.0</ele><time>2026-04-22T10:16:23.999Z</time></trkpt><trkpt lat="42.382641486938205" lon="2.614452862032503"><ele>664.0</ele><time>2026-04-22T10:16:24.999Z</time></trkpt><trkpt lat="42.38257500476705" lon="2.614531059539657"><ele>664.0</ele><time>2026-04-22T10:16:25.999Z</time></trkpt><trkpt lat="42.38250468819882" lon="2.614637952535926"><ele>664.0</ele><time>2026-04-22T10:16:26.999Z</time></trkpt><trkpt lat="42.38244090949243" lon="2.6147529349066456"><ele>664.0</ele><time>2026-04-22T10:16:27.999Z</time></trkpt><trkpt lat="42.382382582264974" lon="2.614872173042787"><ele>664.0</ele><time>2026-04-22T10:16:28.999Z</time></trkpt><trkpt lat="42.382332053567225" lon="2.61500053395173"><ele>664.0</ele><time>2026-04-22T10:16:29.999Z</time></trkpt><trkpt lat="42.38228983628823" lon="2.615131906991706"><ele>664.0</ele><time>2026-04-22T10:16:30.999Z</time></trkpt><trkpt lat="42.38226802952102" lon="2.6152833450888693"><ele>664.0</ele><time>2026-04-22T10:16:31.999Z</time></trkpt><trkpt lat="42.38224047463374" lon="2.6154295388788773"><ele>664.0</ele><time>2026-04-22T10:16:32.999Z</time></trkpt><trkpt lat="42.38222076957402" lon="2.6155758501020476"><ele>664.0</ele><time>2026-04-22T10:16:33.999Z</time></trkpt><trkpt lat="42.38217228561384" lon="2.6157081435652074"><ele>664.25</ele><time>2026-04-22T10:16:34.999Z</time></trkpt><trkpt lat="42.38210215398" lon="2.615852210624531"><ele>664.5</ele><time>2026-04-22T10:16:35.999Z</time></trkpt><trkpt lat="42.38201078070431" lon="2.6159779982727014"><ele>664.75</ele><time>2026-04-22T10:16:36.999Z</time></trkpt><trkpt lat="42.3819176337456" lon="2.6160857103505175"><ele>665.0</ele><time>2026-04-22T10:16:37.999Z</time></trkpt><trkpt lat="42.38183542182875" lon="2.6161928569298873"><ele>665.0</ele><time>2026-04-22T10:16:38.999Z</time></trkpt><trkpt lat="42.38175030275274" lon="2.616324238132783"><ele>665.0</ele><time>2026-04-22T10:16:39.999Z</time></trkpt><trkpt lat="42.38165742620201" lon="2.616450272774162"><ele>665.0</ele><time>2026-04-22T10:16:40.999Z</time></trkpt><trkpt lat="42.381551301059226" lon="2.616572316511723"><ele>665.0</ele><time>2026-04-22T10:16:41.999Z</time></trkpt><trkpt lat="42.381449610255125" lon="2.616718244545187"><ele>664.0</ele><time>2026-04-22T10:16:42.999Z</time></trkpt><trkpt lat="42.38133685605075" lon="2.6168638183655486"><ele>663.0</ele><time>2026-04-22T10:16:43.999Z</time></trkpt><trkpt lat="42.38122620685029" lon="2.6170178088615925"><ele>662.0</ele><time>2026-04-22T10:16:44.999Z</time></trkpt><trkpt lat="42.38112328306047" lon="2.6171726458543887"><ele>662.0</ele><time>2026-04-22T10:16:45.999Z</time></trkpt><trkpt lat="42.38102155446665" lon="2.6173119049248057"><ele>662.0</ele><time>2026-04-22T10:16:46.999Z</time></trkpt><trkpt lat="42.38092769882203" lon="2.617442111903659"><ele>662.0</ele><time>2026-04-22T10:16:47.999Z</time></trkpt><trkpt lat="42.38083435145369" lon="2.617564929538748"><ele>662.0</ele><time>2026-04-22T10:16:48.999Z</time></trkpt><trkpt lat="42.38074336321467" lon="2.6176912596990274"><ele>662.25</ele><time>2026-04-22T10:16:49.999Z</time></trkpt><trkpt lat="42.380648816743836" lon="2.6178261292633183"><ele>662.5</ele><time>2026-04-22T10:16:50.999Z</time></trkpt><trkpt lat="42.3805614379244" lon="2.6179508000281726"><ele>662.75</ele><time>2026-04-22T10:16:51.999Z</time></trkpt><trkpt lat="42.38047171706022" lon="2.618047343179287"><ele>663.0</ele><time>2026-04-22T10:16:52.999Z</time></trkpt><trkpt lat="42.380383541384454" lon="2.618153217895027"><ele>663.0</ele><time>2026-04-22T10:16:53.999Z</time></trkpt><trkpt lat="42.38028472785447" lon="2.618229250693645"><ele>663.0</ele><time>2026-04-22T10:16:54.999Z</time></trkpt><trkpt lat="42.38016580702038" lon="2.6182941920010583"><ele>663.0</ele><time>2026-04-22T10:16:55.999Z</time></trkpt><trkpt lat="42.38002180128758" lon="2.618347273141318"><ele>663.0</ele><time>2026-04-22T10:16:56.999Z</time></trkpt><trkpt lat="42.379872236958306" lon="2.6183352850796893"><ele>663.0</ele><time>2026-04-22T10:16:57.999Z</time></trkpt><trkpt lat="42.37973723322791" lon="2.618326495143397"><ele>663.0</ele><time>2026-04-22T10:16:58.999Z</time></trkpt><trkpt lat="42.379630536522264" lon="2.6183538877306836"><ele>663.0</ele><time>2026-04-22T10:16:59.999Z</time></trkpt><trkpt lat="42.37954163609022" lon="2.618449011510538"><ele>663.0</ele><time>2026-04-22T10:17:00.999Z</time></trkpt><trkpt lat="42.3794633350745" lon="2.6185935461854872"><ele>664.25</ele><time>2026-04-22T10:17:01.999Z</time></trkpt><trkpt lat="42.379383595075765" lon="2.618771021778713"><ele>665.5</ele><time>2026-04-22T10:17:02.999Z</time></trkpt><trkpt lat="42.379302845921615" lon="2.618926791364263"><ele>666.75</ele><time>2026-04-22T10:17:03.999Z</time></trkpt><trkpt lat="42.379207271458206" lon="2.619050401006635"><ele>668.0</ele><time>2026-04-22T10:17:04.999Z</time></trkpt><trkpt lat="42.379115002962294" lon="2.619153060657123"><ele>668.0</ele><time>2026-04-22T10:17:05.999Z</time></trkpt><trkpt lat="42.37896931061964" lon="2.6192539111756816"><ele>668.0</ele><time>2026-04-22T10:17:06.999Z</time></trkpt><trkpt lat="42.37879483160936" lon="2.6193312607614083"><ele>668.0</ele><time>2026-04-22T10:17:07.999Z</time></trkpt><trkpt lat="42.37861534010212" lon="2.6193966090238"><ele>666.6666666666666</ele><time>2026-04-22T10:17:08.999Z</time></trkpt><trkpt lat="42.37843516881414" lon="2.619460854722406"><ele>665.3333333333334</ele><time>2026-04-22T10:17:09.999Z</time></trkpt><trkpt lat="42.3782633446423" lon="2.6195227625524042"><ele>664.0</ele><time>2026-04-22T10:17:10.999Z</time></trkpt><trkpt lat="42.37809011294655" lon="2.619581597850658"><ele>665.3333333333334</ele><time>2026-04-22T10:17:11.999Z</time></trkpt><trkpt lat="42.37791324623178" lon="2.6196040179968008"><ele>666.6666666666666</ele><time>2026-04-22T10:17:12.999Z</time></trkpt><trkpt lat="42.377731733200655" lon="2.619580169206398"><ele>668.0</ele><time>2026-04-22T10:17:13.999Z</time></trkpt><trkpt lat="42.37755145050826" lon="2.619575161904938"><ele>668.0</ele><time>2026-04-22T10:17:14.999Z</time></trkpt><trkpt lat="42.37736148467559" lon="2.619563429891965"><ele>668.0</ele><time>2026-04-22T10:17:15.999Z</time></trkpt><trkpt lat="42.37717408040753" lon="2.619641537576441"><ele>668.0</ele><time>2026-04-22T10:17:16.999Z</time></trkpt><trkpt lat="42.37697616702951" lon="2.6196935363936222"><ele>670.6666666666666</ele><time>2026-04-22T10:17:17.999Z</time></trkpt><trkpt lat="42.37677984819409" lon="2.6197377267527395"><ele>673.3333333333334</ele><time>2026-04-22T10:17:18.999Z</time></trkpt><trkpt lat="42.3765976413532" lon="2.619759447610804"><ele>676.0</ele><time>2026-04-22T10:17:19.999Z</time></trkpt><trkpt lat="42.376399487304695" lon="2.6197550875410287"><ele>677.0</ele><time>2026-04-22T10:17:20.998Z</time></trkpt><trkpt lat="42.376233407023804" lon="2.6197561981608404"><ele>678.0</ele><time>2026-04-22T10:17:21.998Z</time></trkpt><trkpt lat="42.376086380351225" lon="2.6197876131455926"><ele>679.0</ele><time>2026-04-22T10:17:22.998Z</time></trkpt><trkpt lat="42.375947930999665" lon="2.619878249841601"><ele>679.0</ele><time>2026-04-22T10:17:23.998Z</time></trkpt><trkpt lat="42.3758012442831" lon="2.6199857047637813"><ele>679.0</ele><time>2026-04-22T10:17:24.998Z</time></trkpt><trkpt lat="42.37565728406722" lon="2.6201042750750094"><ele>679.0</ele><time>2026-04-22T10:17:25.998Z</time></trkpt><trkpt lat="42.37552462623317" lon="2.6201787302506436"><ele>678.75</ele><time>2026-04-22T10:17:26.998Z</time></trkpt><trkpt lat="42.37538990916073" lon="2.620199513255997"><ele>678.5</ele><time>2026-04-22T10:17:27.998Z</time></trkpt><trkpt lat="42.37525821779376" lon="2.620197962895675"><ele>678.25</ele><time>2026-04-22T10:17:28.998Z</time></trkpt><trkpt lat="42.375139611759785" lon="2.620248103979795"><ele>678.0</ele><time>2026-04-22T10:17:29.998Z</time></trkpt><trkpt lat="42.37504478104431" lon="2.6203708162321333"><ele>680.3333333333334</ele><time>2026-04-22T10:17:30.998Z</time></trkpt><trkpt lat="42.37493235318814" lon="2.6204997020841514"><ele>682.6666666666667</ele><time>2026-04-22T10:17:31.998Z</time></trkpt><trkpt lat="42.3749288065614" lon="2.6207370750160845"><ele>685.0</ele><time>2026-04-22T10:17:32.998Z</time></trkpt><trkpt lat="42.374870027862634" lon="2.6209591516773747"><ele>687.3333333333334</ele><time>2026-04-22T10:17:33.998Z</time></trkpt><trkpt lat="42.3747975293149" lon="2.621189962206317"><ele>689.6666666666666</ele><time>2026-04-22T10:17:34.998Z</time></trkpt><trkpt lat="42.37471546700604" lon="2.621424463519695"><ele>692.0</ele><time>2026-04-22T10:17:35.998Z</time></trkpt><trkpt lat="42.374632041187404" lon="2.6216715939056137"><ele>692.0</ele><time>2026-04-22T10:17:36.998Z</time></trkpt><trkpt lat="42.37453517693936" lon="2.621909305999425"><ele>692.0</ele><time>2026-04-22T10:17:37.998Z</time></trkpt><trkpt lat="42.37438907842172" lon="2.6221184995078226"><ele>692.0</ele><time>2026-04-22T10:17:38.998Z</time></trkpt><trkpt lat="42.374260904034145" lon="2.6223453729420654"><ele>691.0</ele><time>2026-04-22T10:17:39.998Z</time></trkpt><trkpt lat="42.374134563466455" lon="2.6225328005027424"><ele>690.0</ele><time>2026-04-22T10:17:40.998Z</time></trkpt><trkpt lat="42.37401295367542" lon="2.6226799372790452"><ele>689.0</ele><time>2026-04-22T10:17:42Z</time></trkpt><trkpt lat="42.37392132037647" lon="2.622827370247979"><ele>693.0</ele><time>2026-04-22T10:17:43Z</time></trkpt><trkpt lat="42.373797192838886" lon="2.622906152521093"><ele>697.0</ele><time>2026-04-22T10:17:44Z</time></trkpt><trkpt lat="42.37363963042695" lon="2.6228963486187493"><ele>701.0</ele><time>2026-04-22T10:17:45Z</time></trkpt><trkpt lat="42.37346930984283" lon="2.62290950063268"><ele>701.0</ele><time>2026-04-22T10:17:46Z</time></trkpt><trkpt lat="42.3732912112793" lon="2.6228549058098385"><ele>701.0</ele><time>2026-04-22T10:17:47Z</time></trkpt><trkpt lat="42.37313255672635" lon="2.622757714246636"><ele>701.0</ele><time>2026-04-22T10:17:48Z</time></trkpt><trkpt lat="42.372982475012236" lon="2.6226355026798798"><ele>699.75</ele><time>2026-04-22T10:17:49Z</time></trkpt><trkpt lat="42.37283414642269" lon="2.622563084663034"><ele>698.5</ele><time>2026-04-22T10:17:50Z</time></trkpt><trkpt lat="42.37269695639098" lon="2.62254759738499"><ele>697.25</ele><time>2026-04-22T10:17:51Z</time></trkpt><trkpt lat="42.37255349309416" lon="2.6225942413513894"><ele>696.0</ele><time>2026-04-22T10:17:52Z</time></trkpt><trkpt lat="42.37240814090077" lon="2.6227185716221273"><ele>698.0</ele><time>2026-04-22T10:17:53Z</time></trkpt><trkpt lat="42.3722651010722" lon="2.6228733211541857"><ele>700.0</ele><time>2026-04-22T10:17:54Z</time></trkpt><trkpt lat="42.37210904820112" lon="2.62300362922947"><ele>702.0</ele><time>2026-04-22T10:17:55Z</time></trkpt><trkpt lat="42.371942518230576" lon="2.6231337330940154"><ele>702.0</ele><time>2026-04-22T10:17:56Z</time></trkpt><trkpt lat="42.37179060878314" lon="2.623278712153509"><ele>702.0</ele><time>2026-04-22T10:17:57Z</time></trkpt><trkpt lat="42.37165678105723" lon="2.6234156491262426"><ele>702.0</ele><time>2026-04-22T10:17:58Z</time></trkpt><trkpt lat="42.37151727321582" lon="2.6235047413471118"><ele>702.0</ele><time>2026-04-22T10:17:59Z</time></trkpt><trkpt lat="42.37136936221641" lon="2.6235243611713224"><ele>702.0</ele><time>2026-04-22T10:18:00Z</time></trkpt><trkpt lat="42.371208457553706" lon="2.6234869291681076"><ele>702.0</ele><time>2026-04-22T10:18:01Z</time></trkpt><trkpt lat="42.37104189831228" lon="2.6234046822448382"><ele>702.3333333333334</ele><time>2026-04-22T10:18:02Z</time></trkpt><trkpt lat="42.37087007464396" lon="2.623302825447152"><ele>702.6666666666667</ele><time>2026-04-22T10:18:03Z</time></trkpt><trkpt lat="42.37071170505357" lon="2.623218545995483"><ele>703.0</ele><time>2026-04-22T10:18:04Z</time></trkpt><trkpt lat="42.37055943829972" lon="2.623160339125875"><ele>703.0</ele><time>2026-04-22T10:18:05Z</time></trkpt><trkpt lat="42.37041506854569" lon="2.6231547596245"><ele>703.0</ele><time>2026-04-22T10:18:06Z</time></trkpt><trkpt lat="42.37028339997195" lon="2.6232211101812246"><ele>703.0</ele><time>2026-04-22T10:18:07Z</time></trkpt><trkpt lat="42.370180673832664" lon="2.6233281785720752"><ele>703.0</ele><time>2026-04-22T10:18:08Z</time></trkpt><trkpt lat="42.37010440389954" lon="2.623491454303528"><ele>705.6666666666667</ele><time>2026-04-22T10:18:09Z</time></trkpt><trkpt lat="42.37003315772356" lon="2.623690828949283"><ele>708.3333333333334</ele><time>2026-04-22T10:18:10Z</time></trkpt><trkpt lat="42.36993995162391" lon="2.623892004085203"><ele>711.0</ele><time>2026-04-22T10:18:11Z</time></trkpt><trkpt lat="42.36983502037415" lon="2.62410406146661"><ele>711.0</ele><time>2026-04-22T10:18:12Z</time></trkpt><trkpt lat="42.36972463281354" lon="2.6243291606660932"><ele>711.0</ele><time>2026-04-22T10:18:13Z</time></trkpt><trkpt lat="42.36961395454278" lon="2.62456752167183"><ele>711.0</ele><time>2026-04-22T10:18:14Z</time></trkpt><trkpt lat="42.369488504182854" lon="2.624820173189112"><ele>712.5</ele><time>2026-04-22T10:18:15Z</time></trkpt><trkpt lat="42.36934342538711" lon="2.625098462572931"><ele>714.0</ele><time>2026-04-22T10:18:16Z</time></trkpt><trkpt lat="42.3691932928167" lon="2.6253782758493442"><ele>714.0</ele><time>2026-04-22T10:18:17Z</time></trkpt><trkpt lat="42.3690388499748" lon="2.6256667391461748"><ele>714.0</ele><time>2026-04-22T10:18:18Z</time></trkpt><trkpt lat="42.36900490691251" lon="2.6259680366420732"><ele>715.6666666666666</ele><time>2026-04-22T10:18:20Z</time></trkpt><trkpt lat="42.36895799065567" lon="2.6262386096337456"><ele>717.3333333333333</ele><time>2026-04-22T10:18:21Z</time></trkpt><trkpt lat="42.36892401950791" lon="2.6264965452372473"><ele>719.0</ele><time>2026-04-22T10:18:22Z</time></trkpt><trkpt lat="42.368921757540825" lon="2.6267500036654954"><ele>720.0</ele><time>2026-04-22T10:18:23Z</time></trkpt><trkpt lat="42.36895380450754" lon="2.6270209348337934"><ele>721.0</ele><time>2026-04-22T10:18:24Z</time></trkpt><trkpt lat="42.36900184845565" lon="2.6273030069727463"><ele>722.0</ele><time>2026-04-22T10:18:25Z</time></trkpt><trkpt lat="42.369046310480506" lon="2.627582074787275"><ele>722.6666666666666</ele><time>2026-04-22T10:18:26Z</time></trkpt><trkpt lat="42.369091996376554" lon="2.6278533727897018"><ele>723.3333333333334</ele><time>2026-04-22T10:18:26.999Z</time></trkpt><trkpt lat="42.369132446905816" lon="2.6280986356378064"><ele>724.0</ele><time>2026-04-22T10:18:27.999Z</time></trkpt><trkpt lat="42.36916318526111" lon="2.6283269910919005"><ele>724.0</ele><time>2026-04-22T10:18:28.999Z</time></trkpt><trkpt lat="42.36914188834585" lon="2.6285494166886187"><ele>724.0</ele><time>2026-04-22T10:18:29.999Z</time></trkpt><trkpt lat="42.36911167537878" lon="2.6287966481317118"><ele>724.0</ele><time>2026-04-22T10:18:30.999Z</time></trkpt><trkpt lat="42.36909581533972" lon="2.629054521703625"><ele>725.3333333333334</ele><time>2026-04-22T10:18:31.999Z</time></trkpt><trkpt lat="42.369075044558436" lon="2.629321131924941"><ele>726.6666666666666</ele><time>2026-04-22T10:18:32.999Z</time></trkpt><trkpt lat="42.369021017193745" lon="2.629577583863885"><ele>728.0</ele><time>2026-04-22T10:18:33.999Z</time></trkpt><trkpt lat="42.368978519426555" lon="2.6298395562085055"><ele>729.6666666666666</ele><time>2026-04-22T10:18:34.999Z</time></trkpt><trkpt lat="42.36896670216258" lon="2.630095996354331"><ele>731.3333333333334</ele><time>2026-04-22T10:18:35.999Z</time></trkpt><trkpt lat="42.36894963706611" lon="2.630356252976376"><ele>733.0</ele><time>2026-04-22T10:18:36.999Z</time></trkpt><trkpt lat="42.36897175066063" lon="2.630628064515348"><ele>733.0</ele><time>2026-04-22T10:18:37.999Z</time></trkpt><trkpt lat="42.36900906538861" lon="2.6308983831759574"><ele>733.0</ele><time>2026-04-22T10:18:38.999Z</time></trkpt><trkpt lat="42.36903479656827" lon="2.63117918435387"><ele>733.0</ele><time>2026-04-22T10:18:39.999Z</time></trkpt><trkpt lat="42.36903916775108" lon="2.631463809018608"><ele>735.0</ele><time>2026-04-22T10:18:40.999Z</time></trkpt><trkpt lat="42.36899939586478" lon="2.6317754529684705"><ele>737.0</ele><time>2026-04-22T10:18:41.999Z</time></trkpt><trkpt lat="42.36896580262621" lon="2.632085200414717"><ele>742.0</ele><time>2026-04-22T10:18:42.999Z</time></trkpt><trkpt lat="42.3689358213338" lon="2.6323945676490683"><ele>747.0</ele><time>2026-04-22T10:18:43.999Z</time></trkpt><trkpt lat="42.36889390322863" lon="2.632686861677764"><ele>741.6666666666666</ele><time>2026-04-22T10:18:44.999Z</time></trkpt><trkpt lat="42.36885103570343" lon="2.632951938533849"><ele>736.3333333333333</ele><time>2026-04-22T10:18:45.999Z</time></trkpt><trkpt lat="42.3688294528028" lon="2.633195944986717"><ele>731.0</ele><time>2026-04-22T10:18:46.999Z</time></trkpt><trkpt lat="42.368830223643265" lon="2.633436461940206"><ele>732.6666666666666</ele><time>2026-04-22T10:18:47.999Z</time></trkpt><trkpt lat="42.36882196727091" lon="2.6336794245980175"><ele>734.3333333333334</ele><time>2026-04-22T10:18:48.999Z</time></trkpt><trkpt lat="42.36875654932858" lon="2.6339141551108862"><ele>736.0</ele><time>2026-04-22T10:18:49.999Z</time></trkpt><trkpt lat="42.368735787510396" lon="2.6341749384456468"><ele>736.0</ele><time>2026-04-22T10:18:50.999Z</time></trkpt><trkpt lat="42.36869091112109" lon="2.634430066703316"><ele>736.0</ele><time>2026-04-22T10:18:51.999Z</time></trkpt><trkpt lat="42.36861981396087" lon="2.6346732510756667"><ele>736.0</ele><time>2026-04-22T10:18:52.999Z</time></trkpt><trkpt lat="42.368583852482026" lon="2.634918048938022"><ele>737.0</ele><time>2026-04-22T10:18:53.999Z</time></trkpt><trkpt lat="42.36856401809389" lon="2.635156797952278"><ele>738.0</ele><time>2026-04-22T10:18:54.999Z</time></trkpt><trkpt lat="42.36858367215872" lon="2.6354126663855655"><ele>739.0</ele><time>2026-04-22T10:18:55.999Z</time></trkpt><trkpt lat="42.36859034735573" lon="2.6356897386673013"><ele>741.0</ele><time>2026-04-22T10:18:56.999Z</time></trkpt><trkpt lat="42.368588875764836" lon="2.6359519446615094"><ele>743.0</ele><time>2026-04-22T10:18:57.999Z</time></trkpt><trkpt lat="42.368587022726416" lon="2.6361906732112166"><ele>745.0</ele><time>2026-04-22T10:18:58.999Z</time></trkpt><trkpt lat="42.36856601695873" lon="2.6364003870498935"><ele>746.5</ele><time>2026-04-22T10:18:59.999Z</time></trkpt><trkpt lat="42.36849774099071" lon="2.6365705485711963"><ele>748.0</ele><time>2026-04-22T10:19:00.999Z</time></trkpt><trkpt lat="42.36839485356887" lon="2.6367065239191736"><ele>749.5</ele><time>2026-04-22T10:19:01.999Z</time></trkpt><trkpt lat="42.36834664360347" lon="2.636859706425586"><ele>751.0</ele><time>2026-04-22T10:19:02.999Z</time></trkpt><trkpt lat="42.368333998056386" lon="2.63702942887126"><ele>752.0</ele><time>2026-04-22T10:19:03.999Z</time></trkpt><trkpt lat="42.36838249611535" lon="2.637236713261615"><ele>753.0</ele><time>2026-04-22T10:19:04.999Z</time></trkpt><trkpt lat="42.36840344288589" lon="2.637463900209915"><ele>754.0</ele><time>2026-04-22T10:19:05.999Z</time></trkpt><trkpt lat="42.36841607426381" lon="2.637699620090402"><ele>755.0</ele><time>2026-04-22T10:19:06.999Z</time></trkpt><trkpt lat="42.368437416917004" lon="2.637951429216802"><ele>756.0</ele><time>2026-04-22T10:19:07.999Z</time></trkpt><trkpt lat="42.36846450616054" lon="2.6381983240599913"><ele>757.0</ele><time>2026-04-22T10:19:08.999Z</time></trkpt><trkpt lat="42.368521166933014" lon="2.6384525723593213"><ele>757.3333333333334</ele><time>2026-04-22T10:19:09.999Z</time></trkpt><trkpt lat="42.368586830484794" lon="2.6387031223667905"><ele>757.6666666666666</ele><time>2026-04-22T10:19:10.999Z</time></trkpt><trkpt lat="42.36865048313695" lon="2.638912632856768"><ele>758.0</ele><time>2026-04-22T10:19:11.999Z</time></trkpt><trkpt lat="42.36869099812976" lon="2.6391343732610015"><ele>758.0</ele><time>2026-04-22T10:19:12.999Z</time></trkpt><trkpt lat="42.3686952686934" lon="2.6393720115595243"><ele>758.0</ele><time>2026-04-22T10:19:13.999Z</time></trkpt><trkpt lat="42.368658953924985" lon="2.6396083587960835"><ele>758.0</ele><time>2026-04-22T10:19:14.999Z</time></trkpt><trkpt lat="42.36862586982587" lon="2.6398447278141397"><ele>759.0</ele><time>2026-04-22T10:19:15.999Z</time></trkpt><trkpt lat="42.36857922856971" lon="2.6400448886474246"><ele>760.0</ele><time>2026-04-22T10:19:16.999Z</time></trkpt><trkpt lat="42.36857217133165" lon="2.6402223998412335"><ele>761.0</ele><time>2026-04-22T10:19:17.999Z</time></trkpt><trkpt lat="42.36858661825839" lon="2.6403936133534436"><ele>762.0</ele><time>2026-04-22T10:19:18.999Z</time></trkpt><trkpt lat="42.36865612714403" lon="2.640595122332522"><ele>762.3333333333334</ele><time>2026-04-22T10:19:19.999Z</time></trkpt><trkpt lat="42.368738978475974" lon="2.640801928659326"><ele>762.6666666666667</ele><time>2026-04-22T10:19:20.999Z</time></trkpt><trkpt lat="42.36882192577915" lon="2.6410103020654216"><ele>763.0</ele><time>2026-04-22T10:19:21.999Z</time></trkpt><trkpt lat="42.368902492294794" lon="2.64122296056976"><ele>767.0</ele><time>2026-04-22T10:19:22.999Z</time></trkpt><trkpt lat="42.368996091414914" lon="2.6414159692971766"><ele>771.0</ele><time>2026-04-22T10:19:23.999Z</time></trkpt><trkpt lat="42.3690848156675" lon="2.6415834107473333"><ele>775.0</ele><time>2026-04-22T10:19:24.999Z</time></trkpt><trkpt lat="42.36917178910703" lon="2.6417246927029203"><ele>775.0</ele><time>2026-04-22T10:19:25.998Z</time></trkpt><trkpt lat="42.369280342980666" lon="2.641808208071082"><ele>775.0</ele><time>2026-04-22T10:19:26.998Z</time></trkpt><trkpt lat="42.36940957967113" lon="2.6418626236411207"><ele>775.0</ele><time>2026-04-22T10:19:27.998Z</time></trkpt><trkpt lat="42.369511671961156" lon="2.6419240883780297"><ele>775.0</ele><time>2026-04-22T10:19:28.998Z</time></trkpt><trkpt lat="42.36958228474045" lon="2.642006183074986"><ele>776.75</ele><time>2026-04-22T10:19:29.998Z</time></trkpt><trkpt lat="42.36956809748054" lon="2.6421696311363116"><ele>778.5</ele><time>2026-04-22T10:19:30.998Z</time></trkpt><trkpt lat="42.369540435680136" lon="2.6423085044850905"><ele>780.25</ele><time>2026-04-22T10:19:31.998Z</time></trkpt><trkpt lat="42.369429394296795" lon="2.6423527539263785"><ele>782.0</ele><time>2026-04-22T10:19:32.998Z</time></trkpt><trkpt lat="42.36932639495796" lon="2.642432614696439"><ele>782.0</ele><time>2026-04-22T10:19:33.998Z</time></trkpt><trkpt lat="42.3691985602538" lon="2.642498432955001"><ele>782.0</ele><time>2026-04-22T10:19:34.998Z</time></trkpt><trkpt lat="42.36907419141554" lon="2.642579314234256"><ele>782.0</ele><time>2026-04-22T10:19:35.998Z</time></trkpt><trkpt lat="42.36896969822771" lon="2.6426906393902154"><ele>782.0</ele><time>2026-04-22T10:19:36.998Z</time></trkpt><trkpt lat="42.36888636283625" lon="2.6428635070247086"><ele>780.0</ele><time>2026-04-22T10:19:37.998Z</time></trkpt><trkpt lat="42.36882519249345" lon="2.6430776233612914"><ele>778.0</ele><time>2026-04-22T10:19:38.998Z</time></trkpt><trkpt lat="42.3687514634639" lon="2.6432848392068964"><ele>776.0</ele><time>2026-04-22T10:19:39.998Z</time></trkpt><trkpt lat="42.368691486158625" lon="2.6434843729440063"><ele>778.0</ele><time>2026-04-22T10:19:40.998Z</time></trkpt><trkpt lat="42.36866660113159" lon="2.6436734407028557"><ele>780.0</ele><time>2026-04-22T10:19:41.998Z</time></trkpt><trkpt lat="42.368673109747526" lon="2.64386453607228"><ele>782.0</ele><time>2026-04-22T10:19:42.998Z</time></trkpt><trkpt lat="42.368720836535616" lon="2.644076519809715"><ele>784.0</ele><time>2026-04-22T10:19:43.998Z</time></trkpt><trkpt lat="42.36876425778706" lon="2.6442972557197484"><ele>786.3333333333333</ele><time>2026-04-22T10:19:44.998Z</time></trkpt><trkpt lat="42.368777616290124" lon="2.6445287859450666"><ele>788.6666666666667</ele><time>2026-04-22T10:19:45.998Z</time></trkpt><trkpt lat="42.36873154086673" lon="2.644766428353953"><ele>791.0</ele><time>2026-04-22T10:19:46.998Z</time></trkpt><trkpt lat="42.36867546783689" lon="2.6450059442755034"><ele>791.0</ele><time>2026-04-22T10:19:48Z</time></trkpt><trkpt lat="42.36862514161453" lon="2.6452579742597893"><ele>791.0</ele><time>2026-04-22T10:19:49Z</time></trkpt><trkpt lat="42.368607430309964" lon="2.64553315597951"><ele>791.0</ele><time>2026-04-22T10:19:50Z</time></trkpt><trkpt lat="42.36858405383039" lon="2.6457775177071814"><ele>793.0</ele><time>2026-04-22T10:19:51Z</time></trkpt><trkpt lat="42.36852161893567" lon="2.645987492559604"><ele>795.0</ele><time>2026-04-22T10:19:52Z</time></trkpt><trkpt lat="42.36844484871342" lon="2.6461950281223126"><ele>797.0</ele><time>2026-04-22T10:19:53Z</time></trkpt><trkpt lat="42.36832760751624" lon="2.6463878009942596"><ele>800.3333333333334</ele><time>2026-04-22T10:19:54Z</time></trkpt><trkpt lat="42.36821352014028" lon="2.646580443882038"><ele>803.6666666666667</ele><time>2026-04-22T10:19:55Z</time></trkpt><trkpt lat="42.36812279606063" lon="2.646775803975066"><ele>807.0</ele><time>2026-04-22T10:19:56Z</time></trkpt><trkpt lat="42.368041664193484" lon="2.6469516069773493"><ele>808.0</ele><time>2026-04-22T10:19:57Z</time></trkpt><trkpt lat="42.36799844436891" lon="2.6471573825355286"><ele>809.0</ele><time>2026-04-22T10:19:58Z</time></trkpt><trkpt lat="42.36798808210844" lon="2.647374699234866"><ele>810.0</ele><time>2026-04-22T10:19:59Z</time></trkpt><trkpt lat="42.36798440399543" lon="2.6475962525756818"><ele>812.0</ele><time>2026-04-22T10:20:00Z</time></trkpt><trkpt lat="42.367937606270054" lon="2.647804426637602"><ele>814.0</ele><time>2026-04-22T10:20:01Z</time></trkpt><trkpt lat="42.367869390705124" lon="2.6480041569615316"><ele>816.0</ele><time>2026-04-22T10:20:02Z</time></trkpt><trkpt lat="42.36778919438335" lon="2.648207612542963"><ele>816.0</ele><time>2026-04-22T10:20:03Z</time></trkpt><trkpt lat="42.36771647609621" lon="2.648384979057949"><ele>816.0</ele><time>2026-04-22T10:20:04Z</time></trkpt><trkpt lat="42.367669576520726" lon="2.648536336362921"><ele>816.0</ele><time>2026-04-22T10:20:05Z</time></trkpt><trkpt lat="42.36760082054812" lon="2.6486585872722657"><ele>816.0</ele><time>2026-04-22T10:20:06Z</time></trkpt><trkpt lat="42.36747709790362" lon="2.6487625301469273"><ele>817.25</ele><time>2026-04-22T10:20:07Z</time></trkpt><trkpt lat="42.3673941440756" lon="2.6489314028260673"><ele>818.5</ele><time>2026-04-22T10:20:08Z</time></trkpt><trkpt lat="42.36731849154635" lon="2.6491026853120534"><ele>819.75</ele><time>2026-04-22T10:20:09Z</time></trkpt><trkpt lat="42.367254349071565" lon="2.6492661074283426"><ele>821.0</ele><time>2026-04-22T10:20:10Z</time></trkpt><trkpt lat="42.36719304771543" lon="2.6494059127264884"><ele>820.8</ele><time>2026-04-22T10:20:11Z</time></trkpt><trkpt lat="42.367136842673695" lon="2.649529279166237"><ele>820.5999999999999</ele><time>2026-04-22T10:20:12Z</time></trkpt><trkpt lat="42.36708349940986" lon="2.649650749943418"><ele>820.4</ele><time>2026-04-22T10:20:13Z</time></trkpt><trkpt lat="42.367034078326355" lon="2.6497593507333987"><ele>820.2</ele><time>2026-04-22T10:20:14Z</time></trkpt><trkpt lat="42.36696460707481" lon="2.6499014673328323"><ele>820.0</ele><time>2026-04-22T10:20:15Z</time></trkpt><trkpt lat="42.36691061191885" lon="2.650046731342262"><ele>820.0</ele><time>2026-04-22T10:20:16Z</time></trkpt><trkpt lat="42.36684975083583" lon="2.650190390797643"><ele>820.0</ele><time>2026-04-22T10:20:17Z</time></trkpt><trkpt lat="42.36680591158521" lon="2.650350327994262"><ele>820.0</ele><time>2026-04-22T10:20:18Z</time></trkpt><trkpt lat="42.36676254711759" lon="2.650522999965385"><ele>820.0</ele><time>2026-04-22T10:20:19Z</time></trkpt><trkpt lat="42.366710714349345" lon="2.650705515416247"><ele>820.0</ele><time>2026-04-22T10:20:20Z</time></trkpt><trkpt lat="42.36665704052301" lon="2.65089308006497"><ele>820.0</ele><time>2026-04-22T10:20:21Z</time></trkpt><trkpt lat="42.366600479186644" lon="2.6510959471361066"><ele>820.0</ele><time>2026-04-22T10:20:22Z</time></trkpt><trkpt lat="42.36654147067894" lon="2.651304007268313"><ele>820.0</ele><time>2026-04-22T10:20:23Z</time></trkpt><trkpt lat="42.36648143526391" lon="2.651502229382667"><ele>820.0</ele><time>2026-04-22T10:20:24Z</time></trkpt><trkpt lat="42.366426406234964" lon="2.651686597075619"><ele>820.0</ele><time>2026-04-22T10:20:25Z</time></trkpt><trkpt lat="42.36637758725285" lon="2.651880767259054"><ele>815.6666666666666</ele><time>2026-04-22T10:20:26Z</time></trkpt><trkpt lat="42.36633260816995" lon="2.6520994379236287"><ele>811.3333333333333</ele><time>2026-04-22T10:20:27Z</time></trkpt><trkpt lat="42.366301231065464" lon="2.652330967713254"><ele>807.0</ele><time>2026-04-22T10:20:28Z</time></trkpt><trkpt lat="42.36629908754421" lon="2.6525739277988247"><ele>807.0</ele><time>2026-04-22T10:20:29Z</time></trkpt><trkpt lat="42.36632032826191" lon="2.6528297903483242"><ele>807.0</ele><time>2026-04-22T10:20:30Z</time></trkpt><trkpt lat="42.36634372986225" lon="2.6530688423863564"><ele>807.0</ele><time>2026-04-22T10:20:31Z</time></trkpt><trkpt lat="42.3663616857576" lon="2.653297349516622"><ele>807.0</ele><time>2026-04-22T10:20:31.999Z</time></trkpt><trkpt lat="42.36634168485393" lon="2.653516869029843"><ele>807.0</ele><time>2026-04-22T10:20:32.999Z</time></trkpt><trkpt lat="42.366325056990824" lon="2.653733993756334"><ele>807.0</ele><time>2026-04-22T10:20:33.999Z</time></trkpt><trkpt lat="42.36625333118783" lon="2.653966760243362"><ele>807.0</ele><time>2026-04-22T10:20:34.999Z</time></trkpt><trkpt lat="42.36618948641123" lon="2.654229821730053"><ele>807.0</ele><time>2026-04-22T10:20:35.999Z</time></trkpt><trkpt lat="42.3661066871279" lon="2.6544645442702386"><ele>807.0</ele><time>2026-04-22T10:20:36.999Z</time></trkpt><trkpt lat="42.366031279068224" lon="2.654693095192605"><ele>808.3333333333333</ele><time>2026-04-22T10:20:37.999Z</time></trkpt><trkpt lat="42.365969741451906" lon="2.6549166888096183"><ele>809.6666666666666</ele><time>2026-04-22T10:20:38.999Z</time></trkpt><trkpt lat="42.36591391388646" lon="2.6551358500816202"><ele>811.0</ele><time>2026-04-22T10:20:39.999Z</time></trkpt><trkpt lat="42.36586266494422" lon="2.6553370791621953"><ele>808.3333333333333</ele><time>2026-04-22T10:20:40.999Z</time></trkpt><trkpt lat="42.36576653470815" lon="2.655500737768869"><ele>805.6666666666667</ele><time>2026-04-22T10:20:41.999Z</time></trkpt><trkpt lat="42.36566479989498" lon="2.655651893619032"><ele>803.0</ele><time>2026-04-22T10:20:42.999Z</time></trkpt><trkpt lat="42.365563112768875" lon="2.6558151995012236"><ele>804.75</ele><time>2026-04-22T10:20:43.999Z</time></trkpt><trkpt lat="42.36551546985486" lon="2.656008762074567"><ele>806.5</ele><time>2026-04-22T10:20:44.999Z</time></trkpt><trkpt lat="42.36549082040183" lon="2.656203333440694"><ele>808.25</ele><time>2026-04-22T10:20:45.999Z</time></trkpt><trkpt lat="42.3654818944171" lon="2.656401886969711"><ele>810.0</ele><time>2026-04-22T10:20:46.999Z</time></trkpt><trkpt lat="42.36544903099431" lon="2.656568310417645"><ele>810.0</ele><time>2026-04-22T10:20:47.999Z</time></trkpt><trkpt lat="42.36535317919262" lon="2.6567005544844804"><ele>810.0</ele><time>2026-04-22T10:20:48.999Z</time></trkpt><trkpt lat="42.36524270206584" lon="2.6568285713722024"><ele>810.0</ele><time>2026-04-22T10:20:49.999Z</time></trkpt><trkpt lat="42.36509270582348" lon="2.656944915287318"><ele>801.6666666666667</ele><time>2026-04-22T10:20:50.999Z</time></trkpt><trkpt lat="42.36494120744786" lon="2.657049079361578"><ele>793.3333333333334</ele><time>2026-04-22T10:20:51.999Z</time></trkpt><trkpt lat="42.36480569137438" lon="2.657195909283216"><ele>785.0</ele><time>2026-04-22T10:20:52.999Z</time></trkpt><trkpt lat="42.36469993794765" lon="2.6573530516130828"><ele>784.75</ele><time>2026-04-22T10:20:53.999Z</time></trkpt><trkpt lat="42.36460803978851" lon="2.6575111448712536"><ele>784.5</ele><time>2026-04-22T10:20:54.999Z</time></trkpt><trkpt lat="42.3645249540775" lon="2.657656692955606"><ele>784.25</ele><time>2026-04-22T10:20:55.999Z</time></trkpt><trkpt lat="42.36442445109329" lon="2.65779256250499"><ele>784.0</ele><time>2026-04-22T10:20:56.999Z</time></trkpt><trkpt lat="42.36431178397981" lon="2.657880683271391"><ele>784.0</ele><time>2026-04-22T10:20:57.999Z</time></trkpt><trkpt lat="42.364190873394804" lon="2.6579373742993084"><ele>784.0</ele><time>2026-04-22T10:20:58.999Z</time></trkpt><trkpt lat="42.364085080658064" lon="2.6579704718652426"><ele>784.0</ele><time>2026-04-22T10:20:59.999Z</time></trkpt><trkpt lat="42.36399789039364" lon="2.658041754913311"><ele>784.0</ele><time>2026-04-22T10:21:00.999Z</time></trkpt><trkpt lat="42.36395319703009" lon="2.6581259153082404"><ele>784.0</ele><time>2026-04-22T10:21:01.999Z</time></trkpt><trkpt lat="42.36395302545882" lon="2.6582284748337224"><ele>784.0</ele><time>2026-04-22T10:21:02.999Z</time></trkpt><trkpt lat="42.36400566648467" lon="2.658331097932797"><ele>784.0</ele><time>2026-04-22T10:21:03.999Z</time></trkpt><trkpt lat="42.364082430169226" lon="2.6583563805206696"><ele>784.0</ele><time>2026-04-22T10:21:04.999Z</time></trkpt><trkpt lat="42.36415856710191" lon="2.6583037272903045"><ele>784.0</ele><time>2026-04-22T10:21:05.999Z</time></trkpt><trkpt lat="42.364257814761885" lon="2.6582057942270643"><ele>784.0</ele><time>2026-04-22T10:21:06.999Z</time></trkpt><trkpt lat="42.364392169585194" lon="2.6581078347488405"><ele>784.0</ele><time>2026-04-22T10:21:07.999Z</time></trkpt><trkpt lat="42.36453725860751" lon="2.6579661959568477"><ele>784.0</ele><time>2026-04-22T10:21:08.999Z</time></trkpt><trkpt lat="42.36470125114793" lon="2.6578300118553853"><ele>784.0</ele><time>2026-04-22T10:21:09.999Z</time></trkpt><trkpt lat="42.364862627773896" lon="2.6576881720671337"><ele>784.3333333333333</ele><time>2026-04-22T10:21:10.999Z</time></trkpt><trkpt lat="42.36500908146046" lon="2.6575665895694773"><ele>784.6666666666667</ele><time>2026-04-22T10:21:11.999Z</time></trkpt><trkpt lat="42.365171479711584" lon="2.6574966270864677"><ele>785.0</ele><time>2026-04-22T10:21:12.999Z</time></trkpt><trkpt lat="42.36534795711642" lon="2.6574883555894444"><ele>785.0</ele><time>2026-04-22T10:21:13.999Z</time></trkpt><trkpt lat="42.36551530539274" lon="2.6574830468354684"><ele>785.0</ele><time>2026-04-22T10:21:14.999Z</time></trkpt><trkpt lat="42.36566766911855" lon="2.6574555116540353"><ele>785.0</ele><time>2026-04-22T10:21:15.999Z</time></trkpt><trkpt lat="42.36580723022655" lon="2.6573728281718623"><ele>785.6666666666667</ele><time>2026-04-22T10:21:16.999Z</time></trkpt><trkpt lat="42.365932876768774" lon="2.6572413647466866"><ele>786.3333333333333</ele><time>2026-04-22T10:21:17.999Z</time></trkpt><trkpt lat="42.36602449919339" lon="2.657072584270952"><ele>787.0</ele><time>2026-04-22T10:21:18.999Z</time></trkpt><trkpt lat="42.36611158578604" lon="2.656856344597353"><ele>787.0</ele><time>2026-04-22T10:21:19.999Z</time></trkpt><trkpt lat="42.36620284377806" lon="2.6566168058432322"><ele>787.0</ele><time>2026-04-22T10:21:20.999Z</time></trkpt><trkpt lat="42.36630262637235" lon="2.656383496900091"><ele>787.0</ele><time>2026-04-22T10:21:21.999Z</time></trkpt><trkpt lat="42.366385997645196" lon="2.6561550169342456"><ele>776.6666666666666</ele><time>2026-04-22T10:21:22.999Z</time></trkpt><trkpt lat="42.36644742859197" lon="2.6559228164750417"><ele>766.3333333333333</ele><time>2026-04-22T10:21:23.999Z</time></trkpt><trkpt lat="42.366521463495374" lon="2.6557049147648057"><ele>756.0</ele><time>2026-04-22T10:21:24.999Z</time></trkpt><trkpt lat="42.366609965089495" lon="2.655491923476152"><ele>756.0</ele><time>2026-04-22T10:21:25.999Z</time></trkpt><trkpt lat="42.36673053283657" lon="2.6552907322311667"><ele>756.0</ele><time>2026-04-22T10:21:26.999Z</time></trkpt><trkpt lat="42.36687637366659" lon="2.6551069851473357"><ele>756.0</ele><time>2026-04-22T10:21:27.999Z</time></trkpt><trkpt lat="42.36701173481511" lon="2.654935988862311"><ele>757.6666666666666</ele><time>2026-04-22T10:21:28.999Z</time></trkpt><trkpt lat="42.367137726449634" lon="2.6547584881763897"><ele>759.3333333333333</ele><time>2026-04-22T10:21:29.999Z</time></trkpt><trkpt lat="42.36726221025632" lon="2.654587884347237"><ele>761.0</ele><time>2026-04-22T10:21:30.999Z</time></trkpt><trkpt lat="42.36736003307469" lon="2.6544034291216287"><ele>761.0</ele><time>2026-04-22T10:21:31.998Z</time></trkpt><trkpt lat="42.36743626985958" lon="2.6542284174093567"><ele>761.0</ele><time>2026-04-22T10:21:32.998Z</time></trkpt><trkpt lat="42.36750382175256" lon="2.6540860272433466"><ele>761.0</ele><time>2026-04-22T10:21:33.998Z</time></trkpt><trkpt lat="42.36758213758483" lon="2.6539774962863274"><ele>761.0</ele><time>2026-04-22T10:21:34.998Z</time></trkpt><trkpt lat="42.36765967980985" lon="2.653904432540487"><ele>761.0</ele><time>2026-04-22T10:21:35.998Z</time></trkpt><trkpt lat="42.36775532366159" lon="2.6539183497879155"><ele>761.0</ele><time>2026-04-22T10:21:36.998Z</time></trkpt><trkpt lat="42.36783118531317" lon="2.6540028416860397"><ele>761.0</ele><time>2026-04-22T10:21:37.998Z</time></trkpt><trkpt lat="42.36787762362047" lon="2.654141223651236"><ele>761.0</ele><time>2026-04-22T10:21:38.998Z</time></trkpt><trkpt lat="42.36789666847781" lon="2.6543372997427843"><ele>756.0</ele><time>2026-04-22T10:21:39.998Z</time></trkpt><trkpt lat="42.36789938335272" lon="2.654566400229754"><ele>751.0</ele><time>2026-04-22T10:21:40.998Z</time></trkpt><trkpt lat="42.36791489737369" lon="2.654807400188623"><ele>746.0</ele><time>2026-04-22T10:21:41.998Z</time></trkpt><trkpt lat="42.367931921053696" lon="2.6550644621808344"><ele>743.0</ele><time>2026-04-22T10:21:42.998Z</time></trkpt><trkpt lat="42.36793513803445" lon="2.6553379723819615"><ele>740.0</ele><time>2026-04-22T10:21:43.998Z</time></trkpt><trkpt lat="42.36792247328019" lon="2.655634281707819"><ele>737.0</ele><time>2026-04-22T10:21:44.998Z</time></trkpt><trkpt lat="42.36790664867189" lon="2.655931627501066"><ele>732.5</ele><time>2026-04-22T10:21:45.998Z</time></trkpt><trkpt lat="42.367894661827464" lon="2.65623896402368"><ele>728.0</ele><time>2026-04-22T10:21:46.998Z</time></trkpt><trkpt lat="42.367878982227815" lon="2.6565520565057357"><ele>728.0</ele><time>2026-04-22T10:21:47.998Z</time></trkpt><trkpt lat="42.36786147825348" lon="2.6568699847594957"><ele>728.0</ele><time>2026-04-22T10:21:48.998Z</time></trkpt><trkpt lat="42.367852686345564" lon="2.65720927386349"><ele>724.5</ele><time>2026-04-22T10:21:49.998Z</time></trkpt><trkpt lat="42.36784745010186" lon="2.6575283663143674"><ele>721.0</ele><time>2026-04-22T10:21:50.998Z</time></trkpt><trkpt lat="42.367850723669825" lon="2.6578435216327794"><ele>717.0</ele><time>2026-04-22T10:21:51.998Z</time></trkpt><trkpt lat="42.36785908162392" lon="2.6581522270180815"><ele>713.0</ele><time>2026-04-22T10:21:52.998Z</time></trkpt><trkpt lat="42.36786894341137" lon="2.6584576811079628"><ele>710.0</ele><time>2026-04-22T10:21:54Z</time></trkpt><trkpt lat="42.3678687430685" lon="2.6587391096774815"><ele>707.0</ele><time>2026-04-22T10:21:55Z</time></trkpt><trkpt lat="42.367860281446056" lon="2.659000634892857"><ele>704.0</ele><time>2026-04-22T10:21:56Z</time></trkpt><trkpt lat="42.367839860497554" lon="2.659246230519936"><ele>701.3333333333333</ele><time>2026-04-22T10:21:57Z</time></trkpt><trkpt lat="42.367816038405444" lon="2.6594916681721585"><ele>698.6666666666666</ele><time>2026-04-22T10:21:58Z</time></trkpt><trkpt lat="42.3678029573213" lon="2.6597373996766795"><ele>696.0</ele><time>2026-04-22T10:21:59Z</time></trkpt><trkpt lat="42.36781509421847" lon="2.659986706889808"><ele>696.0</ele><time>2026-04-22T10:22:00Z</time></trkpt><trkpt lat="42.36786131666143" lon="2.6602268949092918"><ele>696.0</ele><time>2026-04-22T10:22:01Z</time></trkpt><trkpt lat="42.36791730426528" lon="2.6604658598456594"><ele>696.0</ele><time>2026-04-22T10:22:02Z</time></trkpt><trkpt lat="42.367947061022846" lon="2.660705227046795"><ele>694.0</ele><time>2026-04-22T10:22:03Z</time></trkpt><trkpt lat="42.36794179069512" lon="2.6609532594153205"><ele>692.0</ele><time>2026-04-22T10:22:04Z</time></trkpt><trkpt lat="42.36789034246816" lon="2.6612061001288927"><ele>690.0</ele><time>2026-04-22T10:22:05Z</time></trkpt><trkpt lat="42.367796794085045" lon="2.661448483089552"><ele>690.0</ele><time>2026-04-22T10:22:06Z</time></trkpt><trkpt lat="42.367663280810994" lon="2.661660880786706"><ele>690.0</ele><time>2026-04-22T10:22:07Z</time></trkpt><trkpt lat="42.36750983293501" lon="2.66184954079901"><ele>690.0</ele><time>2026-04-22T10:22:08Z</time></trkpt><trkpt lat="42.36737038207773" lon="2.662044116468641"><ele>686.6666666666666</ele><time>2026-04-22T10:22:09Z</time></trkpt><trkpt lat="42.36726471183932" lon="2.6622533818580134"><ele>683.3333333333333</ele><time>2026-04-22T10:22:10Z</time></trkpt><trkpt lat="42.36719502226429" lon="2.6624816159992055"><ele>680.0</ele><time>2026-04-22T10:22:11Z</time></trkpt><trkpt lat="42.367162273002265" lon="2.6627282803227175"><ele>681.6666666666666</ele><time>2026-04-22T10:22:12Z</time></trkpt><trkpt lat="42.367163147286696" lon="2.6629840014825974"><ele>683.3333333333334</ele><time>2026-04-22T10:22:13Z</time></trkpt><trkpt lat="42.36717243283934" lon="2.663237182355534"><ele>685.0</ele><time>2026-04-22T10:22:14Z</time></trkpt><trkpt lat="42.36717089271647" lon="2.6635025628377798"><ele>692.0</ele><time>2026-04-22T10:22:15Z</time></trkpt><trkpt lat="42.36712084144225" lon="2.663747577620225"><ele>699.0</ele><time>2026-04-22T10:22:16Z</time></trkpt><trkpt lat="42.36701642702245" lon="2.663967535057193"><ele>706.0</ele><time>2026-04-22T10:22:17Z</time></trkpt><trkpt lat="42.36688293457659" lon="2.6641725029671393"><ele>706.0</ele><time>2026-04-22T10:22:18Z</time></trkpt><trkpt lat="42.366760295777674" lon="2.6644061705369753"><ele>706.0</ele><time>2026-04-22T10:22:19Z</time></trkpt><trkpt lat="42.366686908459094" lon="2.6646846936110453"><ele>706.0</ele><time>2026-04-22T10:22:20Z</time></trkpt><trkpt lat="42.36663686230823" lon="2.6649766388210883"><ele>708.5</ele><time>2026-04-22T10:22:21Z</time></trkpt><trkpt lat="42.36659046390748" lon="2.665282172929166"><ele>711.0</ele><time>2026-04-22T10:22:22Z</time></trkpt><trkpt lat="42.36654590994925" lon="2.6655944987899165"><ele>711.0</ele><time>2026-04-22T10:22:23Z</time></trkpt><trkpt lat="42.36650255629884" lon="2.6659117831910972"><ele>711.0</ele><time>2026-04-22T10:22:24Z</time></trkpt><trkpt lat="42.366455070500784" lon="2.666214495544865"><ele>715.0</ele><time>2026-04-22T10:22:25Z</time></trkpt><trkpt lat="42.36641108107372" lon="2.6665342813035835"><ele>719.0</ele><time>2026-04-22T10:22:26Z</time></trkpt><trkpt lat="42.36638739276559" lon="2.6668652829440846"><ele>718.0</ele><time>2026-04-22T10:22:27Z</time></trkpt><trkpt lat="42.3663851300986" lon="2.6672004904483484"><ele>717.0</ele><time>2026-04-22T10:22:28Z</time></trkpt><trkpt lat="42.366388729597766" lon="2.667545879211544"><ele>716.5</ele><time>2026-04-22T10:22:29Z</time></trkpt><trkpt lat="42.36639685003337" lon="2.6678977855676203"><ele>716.0</ele><time>2026-04-22T10:22:30Z</time></trkpt><trkpt lat="42.36641344241943" lon="2.6682533999916354"><ele>721.0</ele><time>2026-04-22T10:22:31Z</time></trkpt><trkpt lat="42.36642880848257" lon="2.6686104263527786"><ele>726.0</ele><time>2026-04-22T10:22:32Z</time></trkpt><trkpt lat="42.366443247496875" lon="2.6689693392463005"><ele>726.0</ele><time>2026-04-22T10:22:33Z</time></trkpt><trkpt lat="42.36646091190001" lon="2.669327047782255"><ele>726.0</ele><time>2026-04-22T10:22:34Z</time></trkpt><trkpt lat="42.366480895640954" lon="2.669684495343322"><ele>725.5</ele><time>2026-04-22T10:22:35Z</time></trkpt><trkpt lat="42.36650997108071" lon="2.6700410632704723"><ele>725.0</ele><time>2026-04-22T10:22:36Z</time></trkpt><trkpt lat="42.366546010705655" lon="2.6703939489071162"><ele>726.0</ele><time>2026-04-22T10:22:37Z</time></trkpt><trkpt lat="42.36658644827065" lon="2.670746647428285"><ele>727.0</ele><time>2026-04-22T10:22:38Z</time></trkpt><trkpt lat="42.36662804627318" lon="2.6710991151905494"><ele>728.5</ele><time>2026-04-22T10:22:38.999Z</time></trkpt><trkpt lat="42.366664567886886" lon="2.6714339104306597"><ele>730.0</ele><time>2026-04-22T10:22:39.999Z</time></trkpt><trkpt lat="42.3666980173105" lon="2.6717288901822847"><ele>735.0</ele><time>2026-04-22T10:22:40.999Z</time></trkpt><trkpt lat="42.36670660230399" lon="2.6719978473985466"><ele>740.0</ele><time>2026-04-22T10:22:41.999Z</time></trkpt><trkpt lat="42.366675166717755" lon="2.672237229901366"><ele>745.0</ele><time>2026-04-22T10:22:42.999Z</time></trkpt><trkpt lat="42.366598132832806" lon="2.6724464488489645"><ele>745.0</ele><time>2026-04-22T10:22:43.999Z</time></trkpt><trkpt lat="42.366473245678456" lon="2.6726131815970233"><ele>745.0</ele><time>2026-04-22T10:22:44.999Z</time></trkpt><trkpt lat="42.366305695551844" lon="2.672722070346707"><ele>745.0</ele><time>2026-04-22T10:22:45.999Z</time></trkpt><trkpt lat="42.3661168564695" lon="2.6727636396620116"><ele>744.0</ele><time>2026-04-22T10:22:46.999Z</time></trkpt><trkpt lat="42.36591995038396" lon="2.6727508465694023"><ele>743.0</ele><time>2026-04-22T10:22:47.999Z</time></trkpt><trkpt lat="42.365717326548186" lon="2.672746763802947"><ele>742.0</ele><time>2026-04-22T10:22:48.999Z</time></trkpt><trkpt lat="42.365511416225935" lon="2.6727701906506356"><ele>752.0</ele><time>2026-04-22T10:22:49.999Z</time></trkpt><trkpt lat="42.36528831852772" lon="2.6728056713309516"><ele>762.0</ele><time>2026-04-22T10:22:50.999Z</time></trkpt><trkpt lat="42.3650451392079" lon="2.672841293155754"><ele>762.0</ele><time>2026-04-22T10:22:51.999Z</time></trkpt><trkpt lat="42.36478044976945" lon="2.6728776611723886"><ele>762.0</ele><time>2026-04-22T10:22:52.999Z</time></trkpt><trkpt lat="42.364500486717475" lon="2.672906252082904"><ele>759.5</ele><time>2026-04-22T10:22:53.999Z</time></trkpt><trkpt lat="42.36422259943745" lon="2.672983469168415"><ele>757.0</ele><time>2026-04-22T10:22:54.999Z</time></trkpt><trkpt lat="42.36395642330016" lon="2.6730511194748536"><ele>749.0</ele><time>2026-04-22T10:22:55.999Z</time></trkpt><trkpt lat="42.36370181626159" lon="2.6731255920441175"><ele>741.0</ele><time>2026-04-22T10:22:56.999Z</time></trkpt><trkpt lat="42.36351166970186" lon="2.673238970044842"><ele>741.0</ele><time>2026-04-22T10:22:57.999Z</time></trkpt><trkpt lat="42.363358450456204" lon="2.6733709574990843"><ele>741.0</ele><time>2026-04-22T10:22:58.999Z</time></trkpt><trkpt lat="42.36348302539395" lon="2.673296079205234"><ele>741.0</ele><time>2026-04-22T10:22:59.999Z</time></trkpt><trkpt lat="42.36335416227582" lon="2.6734320461146095"><ele>743.0</ele><time>2026-04-22T10:23:00.999Z</time></trkpt><trkpt lat="42.36325175004518" lon="2.67362338191422"><ele>745.0</ele><time>2026-04-22T10:23:01.999Z</time></trkpt><trkpt lat="42.36319177999487" lon="2.673853469229748"><ele>747.0</ele><time>2026-04-22T10:23:02.999Z</time></trkpt><trkpt lat="42.36320973702837" lon="2.6741059385419654"><ele>747.0</ele><time>2026-04-22T10:23:03.999Z</time></trkpt><trkpt lat="42.3632513067072" lon="2.6743434408578026"><ele>747.0</ele><time>2026-04-22T10:23:04.999Z</time></trkpt><trkpt lat="42.36335057379404" lon="2.6745594183388044"><ele>747.0</ele><time>2026-04-22T10:23:05.999Z</time></trkpt><trkpt lat="42.363480663726314" lon="2.674749909326158"><ele>750.0</ele><time>2026-04-22T10:23:06.999Z</time></trkpt><trkpt lat="42.36367174319411" lon="2.6748863855007836"><ele>753.0</ele><time>2026-04-22T10:23:07.999Z</time></trkpt><trkpt lat="42.36388040188956" lon="2.6749983682981697"><ele>756.0</ele><time>2026-04-22T10:23:08.999Z</time></trkpt><trkpt lat="42.3640996302838" lon="2.675106049615508"><ele>756.0</ele><time>2026-04-22T10:23:09.999Z</time></trkpt><trkpt lat="42.364330053961275" lon="2.6751965203848234"><ele>756.0</ele><time>2026-04-22T10:23:10.999Z</time></trkpt><trkpt lat="42.36457067359201" lon="2.6752547013812964"><ele>751.0</ele><time>2026-04-22T10:23:11.999Z</time></trkpt><trkpt lat="42.364819989213245" lon="2.67530300250436"><ele>746.0</ele><time>2026-04-22T10:23:12.999Z</time></trkpt><trkpt lat="42.36507159287036" lon="2.6753485418375975"><ele>746.0</ele><time>2026-04-22T10:23:13.999Z</time></trkpt><trkpt lat="42.36532306195224" lon="2.6753901530165196"><ele>746.0</ele><time>2026-04-22T10:23:14.999Z</time></trkpt><trkpt lat="42.36557345838418" lon="2.675433540015594"><ele>749.0</ele><time>2026-04-22T10:23:15.999Z</time></trkpt><trkpt lat="42.36581265784019" lon="2.6754749084380216"><ele>752.0</ele><time>2026-04-22T10:23:16.999Z</time></trkpt><trkpt lat="42.36602260271439" lon="2.6755128910831267"><ele>752.0</ele><time>2026-04-22T10:23:17.999Z</time></trkpt><trkpt lat="42.366195634263015" lon="2.67560504752094"><ele>752.0</ele><time>2026-04-22T10:23:18.999Z</time></trkpt><trkpt lat="42.366334568264044" lon="2.6757269424604537"><ele>752.0</ele><time>2026-04-22T10:23:19.999Z</time></trkpt><trkpt lat="42.36644628857353" lon="2.675889241074428"><ele>754.3333333333333</ele><time>2026-04-22T10:23:20.999Z</time></trkpt><trkpt lat="42.36651643766408" lon="2.6760770244340577"><ele>756.6666666666666</ele><time>2026-04-22T10:23:21.999Z</time></trkpt><trkpt lat="42.36655164323039" lon="2.676299322917486"><ele>759.0</ele><time>2026-04-22T10:23:22.999Z</time></trkpt><trkpt lat="42.36659228113974" lon="2.676570581995905"><ele>759.0</ele><time>2026-04-22T10:23:23.999Z</time></trkpt><trkpt lat="42.36660751591462" lon="2.6768078364920855"><ele>759.0</ele><time>2026-04-22T10:23:24.999Z</time></trkpt><trkpt lat="42.36669105851244" lon="2.6769977122260302"><ele>759.0</ele><time>2026-04-22T10:23:25.999Z</time></trkpt><trkpt lat="42.366827327268126" lon="2.6771548581940636"><ele>762.3333333333333</ele><time>2026-04-22T10:23:26.999Z</time></trkpt><trkpt lat="42.366997088625226" lon="2.677277623228795"><ele>765.6666666666666</ele><time>2026-04-22T10:23:27.999Z</time></trkpt><trkpt lat="42.36716497109538" lon="2.677366799347667"><ele>769.0</ele><time>2026-04-22T10:23:28.999Z</time></trkpt><trkpt lat="42.36729607217106" lon="2.677503744303195"><ele>769.0</ele><time>2026-04-22T10:23:29.999Z</time></trkpt><trkpt lat="42.3674164059667" lon="2.6776790400696897"><ele>769.0</ele><time>2026-04-22T10:23:30.999Z</time></trkpt><trkpt lat="42.36750640452261" lon="2.677912451192966"><ele>769.0</ele><time>2026-04-22T10:23:31.999Z</time></trkpt><trkpt lat="42.36754079242254" lon="2.6781774078997596"><ele>766.3333333333333</ele><time>2026-04-22T10:23:32.999Z</time></trkpt><trkpt lat="42.367528443919895" lon="2.6784470003538656"><ele>763.6666666666666</ele><time>2026-04-22T10:23:33.999Z</time></trkpt><trkpt lat="42.36748500393617" lon="2.6786953830069185"><ele>761.0</ele><time>2026-04-22T10:23:34.999Z</time></trkpt><trkpt lat="42.36744584479712" lon="2.678921283997239"><ele>761.0</ele><time>2026-04-22T10:23:35.999Z</time></trkpt><trkpt lat="42.367418034855945" lon="2.679117320927898"><ele>761.0</ele><time>2026-04-22T10:23:36.999Z</time></trkpt><trkpt lat="42.36744417493584" lon="2.6793210655261235"><ele>761.0</ele><time>2026-04-22T10:23:37.999Z</time></trkpt><trkpt lat="42.36752546521833" lon="2.6795057853088498"><ele>761.6666666666666</ele><time>2026-04-22T10:23:38.998Z</time></trkpt><trkpt lat="42.367652098372915" lon="2.679625282709514"><ele>762.3333333333334</ele><time>2026-04-22T10:23:39.998Z</time></trkpt><trkpt lat="42.36780789144063" lon="2.6796636291197387"><ele>763.0</ele><time>2026-04-22T10:23:40.998Z</time></trkpt><trkpt lat="42.36797567277835" lon="2.679625359262257"><ele>760.0</ele><time>2026-04-22T10:23:41.998Z</time></trkpt><trkpt lat="42.36812244464076" lon="2.679503020102689"><ele>757.0</ele><time>2026-04-22T10:23:42.998Z</time></trkpt><trkpt lat="42.36823155869394" lon="2.679294125518179"><ele>754.0</ele><time>2026-04-22T10:23:43.998Z</time></trkpt><trkpt lat="42.3683234777825" lon="2.6790564621373085"><ele>754.0</ele><time>2026-04-22T10:23:44.998Z</time></trkpt><trkpt lat="42.36841899992474" lon="2.678819893181543"><ele>754.0</ele><time>2026-04-22T10:23:45.998Z</time></trkpt><trkpt lat="42.36856724835252" lon="2.6786193098686595"><ele>754.0</ele><time>2026-04-22T10:23:46.998Z</time></trkpt><trkpt lat="42.368737544862306" lon="2.678421682471796"><ele>747.5</ele><time>2026-04-22T10:23:47.998Z</time></trkpt><trkpt lat="42.36893067448229" lon="2.6782348800358906"><ele>741.0</ele><time>2026-04-22T10:23:48.998Z</time></trkpt><trkpt lat="42.369106483633715" lon="2.678052750474224"><ele>741.0</ele><time>2026-04-22T10:23:49.998Z</time></trkpt><trkpt lat="42.369261545709826" lon="2.6778395085423234"><ele>741.0</ele><time>2026-04-22T10:23:50.998Z</time></trkpt><trkpt lat="42.36938431295389" lon="2.6775987918198974"><ele>741.0</ele><time>2026-04-22T10:23:51.998Z</time></trkpt><trkpt lat="42.369487872776" lon="2.6773643682975417"><ele>737.3333333333334</ele><time>2026-04-22T10:23:52.998Z</time></trkpt><trkpt lat="42.36963963979522" lon="2.6771912585723463"><ele>733.6666666666667</ele><time>2026-04-22T10:23:53.998Z</time></trkpt><trkpt lat="42.369833043883354" lon="2.6770486091676307"><ele>730.0</ele><time>2026-04-22T10:23:54.998Z</time></trkpt><trkpt lat="42.37005055032147" lon="2.6769063300960845"><ele>742.5</ele><time>2026-04-22T10:23:55.998Z</time></trkpt><trkpt lat="42.37026311446813" lon="2.6767691709772627"><ele>755.0</ele><time>2026-04-22T10:23:56.998Z</time></trkpt><trkpt lat="42.37045806936459" lon="2.6766382693124964"><ele>748.0</ele><time>2026-04-22T10:23:57.998Z</time></trkpt><trkpt lat="42.37064625379318" lon="2.6765108678016314"><ele>741.0</ele><time>2026-04-22T10:23:58.998Z</time></trkpt><trkpt lat="42.37081909850208" lon="2.676391212473064"><ele>734.0</ele><time>2026-04-22T10:24:00Z</time></trkpt><trkpt lat="42.37101108861542" lon="2.6763588153601976"><ele>734.0</ele><time>2026-04-22T10:24:01Z</time></trkpt><trkpt lat="42.37119534286237" lon="2.676391029220746"><ele>734.0</ele><time>2026-04-22T10:24:02Z</time></trkpt><trkpt lat="42.371379816066174" lon="2.676456467845382"><ele>734.0</ele><time>2026-04-22T10:24:03Z</time></trkpt><trkpt lat="42.37153534804138" lon="2.67652999792474"><ele>736.3333333333333</ele><time>2026-04-22T10:24:04Z</time></trkpt><trkpt lat="42.37166298659286" lon="2.676632168092512"><ele>738.6666666666666</ele><time>2026-04-22T10:24:05Z</time></trkpt><trkpt lat="42.37177440568631" lon="2.67677478247552"><ele>741.0</ele><time>2026-04-22T10:24:06Z</time></trkpt><trkpt lat="42.37179949099815" lon="2.6769751175346372"><ele>741.0</ele><time>2026-04-22T10:24:07Z</time></trkpt><trkpt lat="42.37177502945876" lon="2.6771782276144127"><ele>741.0</ele><time>2026-04-22T10:24:08Z</time></trkpt><trkpt lat="42.37169674855457" lon="2.677373344538468"><ele>741.0</ele><time>2026-04-22T10:24:09Z</time></trkpt><trkpt lat="42.37159921005773" lon="2.677584602205655"><ele>744.6666666666666</ele><time>2026-04-22T10:24:10Z</time></trkpt><trkpt lat="42.37149160785256" lon="2.67780230284633"><ele>748.3333333333333</ele><time>2026-04-22T10:24:11Z</time></trkpt><trkpt lat="42.371388497448926" lon="2.6780176491753585"><ele>752.0</ele><time>2026-04-22T10:24:12Z</time></trkpt><trkpt lat="42.37130688550194" lon="2.678228462973832"><ele>739.3333333333333</ele><time>2026-04-22T10:24:13Z</time></trkpt><trkpt lat="42.371268854536446" lon="2.6784537411181355"><ele>726.6666666666666</ele><time>2026-04-22T10:24:14Z</time></trkpt><trkpt lat="42.37128184285461" lon="2.678713373472046"><ele>714.0</ele><time>2026-04-22T10:24:15Z</time></trkpt><trkpt lat="42.3713449247643" lon="2.6789851960375746"><ele>727.6666666666666</ele><time>2026-04-22T10:24:16Z</time></trkpt><trkpt lat="42.37141050380166" lon="2.679260958837918"><ele>741.3333333333333</ele><time>2026-04-22T10:24:17Z</time></trkpt><trkpt lat="42.37144494850809" lon="2.679554536798048"><ele>755.0</ele><time>2026-04-22T10:24:18Z</time></trkpt><trkpt lat="42.371409719648796" lon="2.6798366262688873"><ele>759.0</ele><time>2026-04-22T10:24:19Z</time></trkpt><trkpt lat="42.37137277731454" lon="2.6801366974760623"><ele>763.0</ele><time>2026-04-22T10:24:20Z</time></trkpt><trkpt lat="42.37131156881345" lon="2.6804325057136333"><ele>749.0</ele><time>2026-04-22T10:24:21Z</time></trkpt><trkpt lat="42.371254715682134" lon="2.6807207840294516"><ele>735.0</ele><time>2026-04-22T10:24:22Z</time></trkpt><trkpt lat="42.37121352432607" lon="2.6809937056024857"><ele>721.0</ele><time>2026-04-22T10:24:23Z</time></trkpt><trkpt lat="42.371180759518744" lon="2.6812497297944646"><ele>720.6666666666667</ele><time>2026-04-22T10:24:24Z</time></trkpt><trkpt lat="42.37116181727626" lon="2.6815101537983534"><ele>720.3333333333334</ele><time>2026-04-22T10:24:25Z</time></trkpt><trkpt lat="42.3711797407519" lon="2.6817718371283847"><ele>720.0</ele><time>2026-04-22T10:24:26Z</time></trkpt><trkpt lat="42.371237287429345" lon="2.682011027827689"><ele>718.0</ele><time>2026-04-22T10:24:27Z</time></trkpt><trkpt lat="42.37133657676453" lon="2.6822397989155125"><ele>716.0</ele><time>2026-04-22T10:24:28Z</time></trkpt><trkpt lat="42.37142561380307" lon="2.6824788779431055"><ele>714.0</ele><time>2026-04-22T10:24:29Z</time></trkpt><trkpt lat="42.3714265334759" lon="2.682731171913838"><ele>722.0</ele><time>2026-04-22T10:24:30Z</time></trkpt><trkpt lat="42.37143009634861" lon="2.682968863517881"><ele>730.0</ele><time>2026-04-22T10:24:31Z</time></trkpt><trkpt lat="42.371432855270825" lon="2.6831833145688533"><ele>738.0</ele><time>2026-04-22T10:24:32Z</time></trkpt><trkpt lat="42.371489161268386" lon="2.6833875130862412"><ele>738.0</ele><time>2026-04-22T10:24:33Z</time></trkpt><trkpt lat="42.37161323248485" lon="2.6835614534733763"><ele>738.0</ele><time>2026-04-22T10:24:34Z</time></trkpt><trkpt lat="42.3717772160334" lon="2.6836820713751863"><ele>738.0</ele><time>2026-04-22T10:24:35Z</time></trkpt><trkpt lat="42.37197169047083" lon="2.68378061669363"><ele>734.6666666666666</ele><time>2026-04-22T10:24:36Z</time></trkpt><trkpt lat="42.37215711610837" lon="2.68388449916139"><ele>731.3333333333333</ele><time>2026-04-22T10:24:37Z</time></trkpt><trkpt lat="42.372325639249226" lon="2.6839972707562363"><ele>728.0</ele><time>2026-04-22T10:24:38Z</time></trkpt><trkpt lat="42.37249058930869" lon="2.684082626950214"><ele>728.0</ele><time>2026-04-22T10:24:39Z</time></trkpt><trkpt lat="42.37267228313578" lon="2.6841196224038923"><ele>728.0</ele><time>2026-04-22T10:24:40Z</time></trkpt><trkpt lat="42.37287057861953" lon="2.6840737053376227"><ele>728.0</ele><time>2026-04-22T10:24:41Z</time></trkpt><trkpt lat="42.37307869734527" lon="2.6839766982139426"><ele>724.0</ele><time>2026-04-22T10:24:42Z</time></trkpt><trkpt lat="42.37326636591568" lon="2.683844747897852"><ele>720.0</ele><time>2026-04-22T10:24:42.999Z</time></trkpt><trkpt lat="42.373437038066584" lon="2.683716084404286"><ele>716.0</ele><time>2026-04-22T10:24:43.999Z</time></trkpt><trkpt lat="42.37359716369397" lon="2.6836448440737914"><ele>716.0</ele><time>2026-04-22T10:24:44.999Z</time></trkpt><trkpt lat="42.37374777736065" lon="2.683631423465031"><ele>716.0</ele><time>2026-04-22T10:24:45.999Z</time></trkpt><trkpt lat="42.37388382680268" lon="2.6837171351632563"><ele>716.0</ele><time>2026-04-22T10:24:46.999Z</time></trkpt><trkpt lat="42.3740152707188" lon="2.683852955371703"><ele>716.3333333333333</ele><time>2026-04-22T10:24:47.999Z</time></trkpt><trkpt lat="42.37417422551047" lon="2.683988351096784"><ele>716.6666666666666</ele><time>2026-04-22T10:24:48.999Z</time></trkpt><trkpt lat="42.374325204936774" lon="2.6841276202098188"><ele>717.0</ele><time>2026-04-22T10:24:49.999Z</time></trkpt><trkpt lat="42.37450303753119" lon="2.684213770098652"><ele>718.3333333333334</ele><time>2026-04-22T10:24:50.999Z</time></trkpt><trkpt lat="42.374703987906514" lon="2.684237064470422"><ele>719.6666666666667</ele><time>2026-04-22T10:24:51.999Z</time></trkpt><trkpt lat="42.37490300672558" lon="2.6842210297991747"><ele>721.0</ele><time>2026-04-22T10:24:52.999Z</time></trkpt><trkpt lat="42.37508419349545" lon="2.6841722180010055"><ele>721.0</ele><time>2026-04-22T10:24:53.999Z</time></trkpt><trkpt lat="42.375256562994885" lon="2.6840922845722104"><ele>721.0</ele><time>2026-04-22T10:24:54.999Z</time></trkpt><trkpt lat="42.37541834997934" lon="2.6840863909359314"><ele>721.0</ele><time>2026-04-22T10:24:55.999Z</time></trkpt><trkpt lat="42.37556305857685" lon="2.6841267011737338"><ele>720.25</ele><time>2026-04-22T10:24:56.999Z</time></trkpt><trkpt lat="42.37568128883645" lon="2.684230738244506"><ele>719.5</ele><time>2026-04-22T10:24:57.999Z</time></trkpt><trkpt lat="42.37576826912479" lon="2.6843899355391"><ele>718.75</ele><time>2026-04-22T10:24:58.999Z</time></trkpt><trkpt lat="42.375790737295034" lon="2.6846038206090257"><ele>718.0</ele><time>2026-04-22T10:24:59.999Z</time></trkpt><trkpt lat="42.37576157010854" lon="2.6848393837969833"><ele>718.0</ele><time>2026-04-22T10:25:00.999Z</time></trkpt><trkpt lat="42.375713345397884" lon="2.685092882202238"><ele>718.0</ele><time>2026-04-22T10:25:01.999Z</time></trkpt><trkpt lat="42.375653787267176" lon="2.6853656230157803"><ele>718.0</ele><time>2026-04-22T10:25:02.999Z</time></trkpt><trkpt lat="42.37560082474844" lon="2.685645268847155"><ele>717.5</ele><time>2026-04-22T10:25:03.999Z</time></trkpt><trkpt lat="42.37557918359191" lon="2.6859492638029665"><ele>717.0</ele><time>2026-04-22T10:25:04.999Z</time></trkpt><trkpt lat="42.375581117023984" lon="2.686255862831652"><ele>714.5</ele><time>2026-04-22T10:25:05.999Z</time></trkpt><trkpt lat="42.375582200853884" lon="2.686559961698788"><ele>712.0</ele><time>2026-04-22T10:25:06.999Z</time></trkpt><trkpt lat="42.375576072168215" lon="2.6868651757248827"><ele>709.6666666666667</ele><time>2026-04-22T10:25:07.999Z</time></trkpt><trkpt lat="42.37557252394361" lon="2.687153256724391"><ele>707.3333333333334</ele><time>2026-04-22T10:25:08.999Z</time></trkpt><trkpt lat="42.37556535706469" lon="2.6874303159037143"><ele>705.0</ele><time>2026-04-22T10:25:09.999Z</time></trkpt><trkpt lat="42.37556560335188" lon="2.687686128185029"><ele>699.6666666666666</ele><time>2026-04-22T10:25:10.999Z</time></trkpt><trkpt lat="42.37557665443424" lon="2.687903566403531"><ele>694.3333333333333</ele><time>2026-04-22T10:25:11.999Z</time></trkpt><trkpt lat="42.375623320005836" lon="2.688089629410024"><ele>689.0</ele><time>2026-04-22T10:25:12.999Z</time></trkpt><trkpt lat="42.37571494557465" lon="2.688245030320347"><ele>689.0</ele><time>2026-04-22T10:25:13.999Z</time></trkpt><trkpt lat="42.37583812638474" lon="2.6883506089638027"><ele>689.0</ele><time>2026-04-22T10:25:14.999Z</time></trkpt><trkpt lat="42.37598811900175" lon="2.688382354422834"><ele>689.0</ele><time>2026-04-22T10:25:15.999Z</time></trkpt><trkpt lat="42.376155793074155" lon="2.6883514688739654"><ele>689.0</ele><time>2026-04-22T10:25:16.999Z</time></trkpt><trkpt lat="42.37633059120055" lon="2.6882473715917605"><ele>689.0</ele><time>2026-04-22T10:25:17.999Z</time></trkpt><trkpt lat="42.37651224004574" lon="2.6880929454600517"><ele>689.0</ele><time>2026-04-22T10:25:18.999Z</time></trkpt><trkpt lat="42.37670022592429" lon="2.687936934184611"><ele>684.6666666666666</ele><time>2026-04-22T10:25:19.999Z</time></trkpt><trkpt lat="42.37689425866456" lon="2.6877813995690927"><ele>680.3333333333334</ele><time>2026-04-22T10:25:20.999Z</time></trkpt><trkpt lat="42.377053046339945" lon="2.6876098236746264"><ele>676.0</ele><time>2026-04-22T10:25:21.999Z</time></trkpt><trkpt lat="42.37722381141844" lon="2.6874772577700305"><ele>676.0</ele><time>2026-04-22T10:25:22.999Z</time></trkpt><trkpt lat="42.377407113089205" lon="2.6874130446531166"><ele>676.0</ele><time>2026-04-22T10:25:23.999Z</time></trkpt><trkpt lat="42.37758902342602" lon="2.6873863791989656"><ele>676.0</ele><time>2026-04-22T10:25:24.999Z</time></trkpt><trkpt lat="42.37776804706311" lon="2.687387223838523"><ele>676.0</ele><time>2026-04-22T10:25:25.999Z</time></trkpt><trkpt lat="42.377928380234934" lon="2.6873853202180182"><ele>676.0</ele><time>2026-04-22T10:25:26.999Z</time></trkpt><trkpt lat="42.37806563535934" lon="2.687351437453401"><ele>676.0</ele><time>2026-04-22T10:25:27.999Z</time></trkpt><trkpt lat="42.37818586630891" lon="2.6872438644615833"><ele>676.0</ele><time>2026-04-22T10:25:28.999Z</time></trkpt><trkpt lat="42.37827396083772" lon="2.6870804371926384"><ele>672.3333333333334</ele><time>2026-04-22T10:25:29.999Z</time></trkpt><trkpt lat="42.37831483238325" lon="2.686891398504105"><ele>668.6666666666666</ele><time>2026-04-22T10:25:30.999Z</time></trkpt><trkpt lat="42.378283199046244" lon="2.6866735906220454"><ele>665.0</ele><time>2026-04-22T10:25:31.999Z</time></trkpt><trkpt lat="42.37821125875969" lon="2.6864898215559716"><ele>665.0</ele><time>2026-04-22T10:25:32.999Z</time></trkpt><trkpt lat="42.37807864797692" lon="2.686356269557729"><ele>665.0</ele><time>2026-04-22T10:25:33.999Z</time></trkpt><trkpt lat="42.377942505034916" lon="2.686275584654213"><ele>665.0</ele><time>2026-04-22T10:25:34.999Z</time></trkpt><trkpt lat="42.377843916721524" lon="2.686136971908468"><ele>670.5</ele><time>2026-04-22T10:25:35.999Z</time></trkpt><trkpt lat="42.37779841957351" lon="2.6859612921501617"><ele>676.0</ele><time>2026-04-22T10:25:36.999Z</time></trkpt><trkpt lat="42.377824337169564" lon="2.6857671664936515"><ele>681.5</ele><time>2026-04-22T10:25:37.999Z</time></trkpt><trkpt lat="42.377869449942644" lon="2.685614119572288"><ele>687.0</ele><time>2026-04-22T10:25:38.999Z</time></trkpt><trkpt lat="42.37798698816113" lon="2.6854892429138073"><ele>679.0</ele><time>2026-04-22T10:25:39.999Z</time></trkpt><trkpt lat="42.37815254986621" lon="2.6854417690768333"><ele>671.0</ele><time>2026-04-22T10:25:40.999Z</time></trkpt><trkpt lat="42.37833183626147" lon="2.685421698565507"><ele>663.0</ele><time>2026-04-22T10:25:41.999Z</time></trkpt><trkpt lat="42.378530794929254" lon="2.6853862730700735"><ele>663.0</ele><time>2026-04-22T10:25:42.998Z</time></trkpt><trkpt lat="42.37872362503391" lon="2.6854024606570928"><ele>663.0</ele><time>2026-04-22T10:25:43.998Z</time></trkpt><trkpt lat="42.378920311574866" lon="2.685423280495267"><ele>663.0</ele><time>2026-04-22T10:25:44.998Z</time></trkpt><trkpt lat="42.37909691825026" lon="2.6855559440270835"><ele>661.0</ele><time>2026-04-22T10:25:45.998Z</time></trkpt><trkpt lat="42.37925446714061" lon="2.685706430558664"><ele>659.0</ele><time>2026-04-22T10:25:46.998Z</time></trkpt><trkpt lat="42.37940916119998" lon="2.6858557889201253"><ele>657.0</ele><time>2026-04-22T10:25:47.998Z</time></trkpt><trkpt lat="42.379590256937504" lon="2.685966682594263"><ele>659.0</ele><time>2026-04-22T10:25:48.998Z</time></trkpt><trkpt lat="42.37978745745658" lon="2.6860232109035107"><ele>661.0</ele><time>2026-04-22T10:25:49.998Z</time></trkpt><trkpt lat="42.379969740418964" lon="2.686071535621947"><ele>663.0</ele><time>2026-04-22T10:25:50.998Z</time></trkpt><trkpt lat="42.3801558361029" lon="2.6861332819795343"><ele>659.6666666666666</ele><time>2026-04-22T10:25:51.998Z</time></trkpt><trkpt lat="42.380319627864814" lon="2.6862368642297785"><ele>656.3333333333333</ele><time>2026-04-22T10:25:52.998Z</time></trkpt><trkpt lat="42.38045319622382" lon="2.6863982481630315"><ele>653.0</ele><time>2026-04-22T10:25:53.998Z</time></trkpt><trkpt lat="42.380552426872406" lon="2.6866284378803367"><ele>653.0</ele><time>2026-04-22T10:25:54.998Z</time></trkpt><trkpt lat="42.38064811431251" lon="2.686879718519068"><ele>653.0</ele><time>2026-04-22T10:25:55.998Z</time></trkpt><trkpt lat="42.3807343525724" lon="2.6871368518417813"><ele>653.0</ele><time>2026-04-22T10:25:56.998Z</time></trkpt><trkpt lat="42.38077399808034" lon="2.6874090295176933"><ele>648.0</ele><time>2026-04-22T10:25:57.998Z</time></trkpt><trkpt lat="42.38077672276657" lon="2.6877044275260054"><ele>643.0</ele><time>2026-04-22T10:25:58.998Z</time></trkpt><trkpt lat="42.38074821252788" lon="2.688018662762481"><ele>640.0</ele><time>2026-04-22T10:25:59.998Z</time></trkpt><trkpt lat="42.38071059684252" lon="2.6883454583047497"><ele>637.0</ele><time>2026-04-22T10:26:00.998Z</time></trkpt><trkpt lat="42.38067557377704" lon="2.6886612178992095"><ele>637.0</ele><time>2026-04-22T10:26:01.998Z</time></trkpt><trkpt lat="42.38064523088391" lon="2.6889609291220413"><ele>637.0</ele><time>2026-04-22T10:26:02.998Z</time></trkpt><trkpt lat="42.3806160902109" lon="2.689249854789877"><ele>637.0</ele><time>2026-04-22T10:26:03.998Z</time></trkpt><trkpt lat="42.380586452974555" lon="2.6895266932141944"><ele>637.6666666666667</ele><time>2026-04-22T10:26:04.998Z</time></trkpt><trkpt lat="42.38057768095678" lon="2.6897807472070463"><ele>638.3333333333334</ele><time>2026-04-22T10:26:06Z</time></trkpt><trkpt lat="42.38060322974204" lon="2.6900229039363865"><ele>639.0</ele><time>2026-04-22T10:26:07Z</time></trkpt><trkpt lat="42.380676143280496" lon="2.690255826295012"><ele>636.0</ele><time>2026-04-22T10:26:08Z</time></trkpt><trkpt lat="42.38078683348487" lon="2.690456949603127"><ele>633.0</ele><time>2026-04-22T10:26:09Z</time></trkpt><trkpt lat="42.38092055468522" lon="2.690646220457444"><ele>630.0</ele><time>2026-04-22T10:26:10Z</time></trkpt><trkpt lat="42.38102917337277" lon="2.690882522410763"><ele>628.6666666666666</ele><time>2026-04-22T10:26:11Z</time></trkpt><trkpt lat="42.381075517050036" lon="2.6911535453360003"><ele>627.3333333333333</ele><time>2026-04-22T10:26:12Z</time></trkpt><trkpt lat="42.38106880721983" lon="2.6914429335813086"><ele>626.0</ele><time>2026-04-22T10:26:13Z</time></trkpt><trkpt lat="42.38104056887463" lon="2.6917281023298467"><ele>628.0</ele><time>2026-04-22T10:26:14Z</time></trkpt><trkpt lat="42.381020978012465" lon="2.692016501734499"><ele>630.0</ele><time>2026-04-22T10:26:15Z</time></trkpt><trkpt lat="42.380986879154804" lon="2.6922857812956775"><ele>632.0</ele><time>2026-04-22T10:26:16Z</time></trkpt><trkpt lat="42.38091711765615" lon="2.6925387577530953"><ele>632.0</ele><time>2026-04-22T10:26:17Z</time></trkpt><trkpt lat="42.38081133197842" lon="2.6927518311614826"><ele>632.0</ele><time>2026-04-22T10:26:18Z</time></trkpt><trkpt lat="42.38069963002093" lon="2.6929381552433425"><ele>632.0</ele><time>2026-04-22T10:26:19Z</time></trkpt><trkpt lat="42.38061106596206" lon="2.6931260955423553"><ele>631.0</ele><time>2026-04-22T10:26:20Z</time></trkpt><trkpt lat="42.3805650651786" lon="2.6933280245386317"><ele>630.0</ele><time>2026-04-22T10:26:21Z</time></trkpt><trkpt lat="42.38057416553496" lon="2.6935403288626345"><ele>629.0</ele><time>2026-04-22T10:26:22Z</time></trkpt><trkpt lat="42.38063083884055" lon="2.693731177042133"><ele>629.0</ele><time>2026-04-22T10:26:23Z</time></trkpt><trkpt lat="42.380730360054024" lon="2.693900905122353"><ele>629.0</ele><time>2026-04-22T10:26:24Z</time></trkpt><trkpt lat="42.38085362211979" lon="2.694047884505109"><ele>629.0</ele><time>2026-04-22T10:26:25Z</time></trkpt><trkpt lat="42.380973233371634" lon="2.6942067946620654"><ele>629.0</ele><time>2026-04-22T10:26:26Z</time></trkpt><trkpt lat="42.38103918832056" lon="2.694388826527507"><ele>629.0</ele><time>2026-04-22T10:26:27Z</time></trkpt><trkpt lat="42.38102682701826" lon="2.6945945064679293"><ele>629.0</ele><time>2026-04-22T10:26:28Z</time></trkpt><trkpt lat="42.38096403708316" lon="2.694774944329533"><ele>628.6666666666666</ele><time>2026-04-22T10:26:29Z</time></trkpt><trkpt lat="42.38083950934105" lon="2.6949038618271515"><ele>628.3333333333334</ele><time>2026-04-22T10:26:30Z</time></trkpt><trkpt lat="42.38067430686377" lon="2.694991168489659"><ele>628.0</ele><time>2026-04-22T10:26:31Z</time></trkpt><trkpt lat="42.38049588025217" lon="2.6950773782988517"><ele>625.6666666666667</ele><time>2026-04-22T10:26:32Z</time></trkpt><trkpt lat="42.380309785134905" lon="2.695181070820729"><ele>623.3333333333334</ele><time>2026-04-22T10:26:33Z</time></trkpt><trkpt lat="42.380134499343974" lon="2.695288514509405"><ele>621.0</ele><time>2026-04-22T10:26:34Z</time></trkpt><trkpt lat="42.37997634698415" lon="2.695392376425497"><ele>621.0</ele><time>2026-04-22T10:26:35Z</time></trkpt><trkpt lat="42.37983833367587" lon="2.6955180730542203"><ele>621.0</ele><time>2026-04-22T10:26:36Z</time></trkpt><trkpt lat="42.3797244352329" lon="2.695694411493491"><ele>621.0</ele><time>2026-04-22T10:26:37Z</time></trkpt><trkpt lat="42.379654371072476" lon="2.695916030486378"><ele>620.0</ele><time>2026-04-22T10:26:38Z</time></trkpt><trkpt lat="42.37963314170225" lon="2.696166230404006"><ele>619.0</ele><time>2026-04-22T10:26:39Z</time></trkpt><trkpt lat="42.37966124973502" lon="2.696427145832108"><ele>618.0</ele><time>2026-04-22T10:26:40Z</time></trkpt><trkpt lat="42.37972496361836" lon="2.696679775461665"><ele>618.0</ele><time>2026-04-22T10:26:41Z</time></trkpt><trkpt lat="42.37982603923675" lon="2.6968990117659377"><ele>618.0</ele><time>2026-04-22T10:26:42Z</time></trkpt><trkpt lat="42.379922230214405" lon="2.6971201644302774"><ele>618.0</ele><time>2026-04-22T10:26:43Z</time></trkpt><trkpt lat="42.37998241352774" lon="2.6973612889975636"><ele>612.6666666666666</ele><time>2026-04-22T10:26:44Z</time></trkpt><trkpt lat="42.379992959691826" lon="2.697617233693557"><ele>607.3333333333333</ele><time>2026-04-22T10:26:45Z</time></trkpt><trkpt lat="42.379971111650256" lon="2.6978818967369946"><ele>602.0</ele><time>2026-04-22T10:26:46Z</time></trkpt><trkpt lat="42.3799583031235" lon="2.698139314941562"><ele>599.6666666666666</ele><time>2026-04-22T10:26:47Z</time></trkpt><trkpt lat="42.3799850179019" lon="2.698402023756265"><ele>597.3333333333334</ele><time>2026-04-22T10:26:48Z</time></trkpt><trkpt lat="42.38005034547782" lon="2.6986728199370154"><ele>595.0</ele><time>2026-04-22T10:26:49Z</time></trkpt><trkpt lat="42.38013430156955" lon="2.698947189124708"><ele>590.0</ele><time>2026-04-22T10:26:49.999Z</time></trkpt><trkpt lat="42.380214895242965" lon="2.699198324096391"><ele>585.0</ele><time>2026-04-22T10:26:50.999Z</time></trkpt><trkpt lat="42.38026623931312" lon="2.699460972220457"><ele>580.0</ele><time>2026-04-22T10:26:51.999Z</time></trkpt><trkpt lat="42.38027947106351" lon="2.699737768414937"><ele>580.3333333333334</ele><time>2026-04-22T10:26:52.999Z</time></trkpt><trkpt lat="42.380256653033896" lon="2.70000986312463"><ele>580.6666666666666</ele><time>2026-04-22T10:26:53.999Z</time></trkpt><trkpt lat="42.38019004680579" lon="2.700260791035681"><ele>581.0</ele><time>2026-04-22T10:26:54.999Z</time></trkpt><trkpt lat="42.380097156449594" lon="2.700484101644336"><ele>581.0</ele><time>2026-04-22T10:26:55.999Z</time></trkpt><trkpt lat="42.380010045542434" lon="2.7006930947479577"><ele>581.0</ele><time>2026-04-22T10:26:56.999Z</time></trkpt><trkpt lat="42.37994323870346" lon="2.7008803533321992"><ele>581.0</ele><time>2026-04-22T10:26:57.999Z</time></trkpt><trkpt lat="42.379896672211196" lon="2.701067958253204"><ele>580.0</ele><time>2026-04-22T10:26:58.999Z</time></trkpt><trkpt lat="42.37989434039706" lon="2.701264120670836"><ele>579.0</ele><time>2026-04-22T10:26:59.999Z</time></trkpt><trkpt lat="42.379928742367625" lon="2.701445423475073"><ele>578.0</ele><time>2026-04-22T10:27:00.999Z</time></trkpt><trkpt lat="42.380000188079784" lon="2.7016341668793094"><ele>577.0</ele><time>2026-04-22T10:27:01.999Z</time></trkpt><trkpt lat="42.380111235421595" lon="2.701828181509626"><ele>573.3333333333334</ele><time>2026-04-22T10:27:02.999Z</time></trkpt><trkpt lat="42.38023930907796" lon="2.7020284373531895"><ele>569.6666666666666</ele><time>2026-04-22T10:27:03.999Z</time></trkpt><trkpt lat="42.38035943170776" lon="2.7022546755471946"><ele>566.0</ele><time>2026-04-22T10:27:04.999Z</time></trkpt><trkpt lat="42.380487394309405" lon="2.702475149137307"><ele>568.5</ele><time>2026-04-22T10:27:05.999Z</time></trkpt><trkpt lat="42.38064412865153" lon="2.7027300144592727"><ele>571.0</ele><time>2026-04-22T10:27:06.999Z</time></trkpt><trkpt lat="42.38079917788722" lon="2.702988926502288"><ele>571.0</ele><time>2026-04-22T10:27:07.999Z</time></trkpt><trkpt lat="42.38094472080554" lon="2.7032341820351378"><ele>571.0</ele><time>2026-04-22T10:27:08.999Z</time></trkpt><trkpt lat="42.381091375960665" lon="2.7034580801081276"><ele>574.3333333333334</ele><time>2026-04-22T10:27:09.999Z</time></trkpt><trkpt lat="42.381230854922926" lon="2.703667091929854"><ele>577.6666666666666</ele><time>2026-04-22T10:27:10.999Z</time></trkpt><trkpt lat="42.381358939516176" lon="2.703886616519016"><ele>581.0</ele><time>2026-04-22T10:27:11.999Z</time></trkpt><trkpt lat="42.381445378644806" lon="2.7041129694246733"><ele>581.0</ele><time>2026-04-22T10:27:12.999Z</time></trkpt><trkpt lat="42.381511870099736" lon="2.7043449754202427"><ele>581.0</ele><time>2026-04-22T10:27:13.999Z</time></trkpt><trkpt lat="42.381513803828945" lon="2.704593114447097"><ele>581.0</ele><time>2026-04-22T10:27:14.999Z</time></trkpt><trkpt lat="42.38149054511644" lon="2.7048318162089644"><ele>581.3333333333333</ele><time>2026-04-22T10:27:15.999Z</time></trkpt><trkpt lat="42.381422794685136" lon="2.7050690635557055"><ele>581.6666666666666</ele><time>2026-04-22T10:27:16.999Z</time></trkpt><trkpt lat="42.38130869877717" lon="2.7052904878195605"><ele>582.0</ele><time>2026-04-22T10:27:17.999Z</time></trkpt><trkpt lat="42.38116682780565" lon="2.7055251946494745"><ele>573.5</ele><time>2026-04-22T10:27:18.999Z</time></trkpt><trkpt lat="42.38100697726488" lon="2.705765005297964"><ele>565.0</ele><time>2026-04-22T10:27:19.999Z</time></trkpt><trkpt lat="42.3808418960416" lon="2.7060105159241576"><ele>570.0</ele><time>2026-04-22T10:27:20.999Z</time></trkpt><trkpt lat="42.38067241345525" lon="2.706262465027158"><ele>575.0</ele><time>2026-04-22T10:27:21.999Z</time></trkpt><trkpt lat="42.38050138261195" lon="2.706519627856383"><ele>565.0</ele><time>2026-04-22T10:27:22.999Z</time></trkpt><trkpt lat="42.38033827977174" lon="2.706763258475841"><ele>555.0</ele><time>2026-04-22T10:27:23.999Z</time></trkpt><trkpt lat="42.38019683050617" lon="2.706995427778444"><ele>555.0</ele><time>2026-04-22T10:27:24.999Z</time></trkpt><trkpt lat="42.3800622169136" lon="2.7072144990772973"><ele>555.0</ele><time>2026-04-22T10:27:25.999Z</time></trkpt><trkpt lat="42.37995009224729" lon="2.707426538429845"><ele>555.0</ele><time>2026-04-22T10:27:26.999Z</time></trkpt><trkpt lat="42.379868315544414" lon="2.7076376671402054"><ele>551.6666666666666</ele><time>2026-04-22T10:27:27.999Z</time></trkpt><trkpt lat="42.37985825918633" lon="2.707860702213384"><ele>548.3333333333333</ele><time>2026-04-22T10:27:28.999Z</time></trkpt><trkpt lat="42.379883713677536" lon="2.708137776245263"><ele>545.0</ele><time>2026-04-22T10:27:29.999Z</time></trkpt><trkpt lat="42.37994472967287" lon="2.7084177000115917"><ele>540.3333333333333</ele><time>2026-04-22T10:27:30.999Z</time></trkpt><trkpt lat="42.38003204729184" lon="2.7086847231722864"><ele>535.6666666666666</ele><time>2026-04-22T10:27:31.999Z</time></trkpt><trkpt lat="42.38013964695037" lon="2.7089382101582706"><ele>531.0</ele><time>2026-04-22T10:27:32.999Z</time></trkpt><trkpt lat="42.38026774279349" lon="2.709179569104022"><ele>531.0</ele><time>2026-04-22T10:27:33.999Z</time></trkpt><trkpt lat="42.38041736985297" lon="2.709393960439522"><ele>531.0</ele><time>2026-04-22T10:27:34.999Z</time></trkpt><trkpt lat="42.380597719271876" lon="2.709590023223056"><ele>531.0</ele><time>2026-04-22T10:27:35.999Z</time></trkpt><trkpt lat="42.38080450219189" lon="2.7097475460169664"><ele>538.5</ele><time>2026-04-22T10:27:36.999Z</time></trkpt><trkpt lat="42.38102526183632" lon="2.7098704782166165"><ele>546.0</ele><time>2026-04-22T10:27:37.999Z</time></trkpt><trkpt lat="42.38124224982672" lon="2.7099589700860207"><ele>542.0</ele><time>2026-04-22T10:27:38.999Z</time></trkpt><trkpt lat="42.381455079534454" lon="2.71000713005016"><ele>538.0</ele><time>2026-04-22T10:27:39.999Z</time></trkpt><trkpt lat="42.38167516897666" lon="2.7100200421098966"><ele>534.0</ele><time>2026-04-22T10:27:40.999Z</time></trkpt><trkpt lat="42.38189906230018" lon="2.710005154327337"><ele>534.0</ele><time>2026-04-22T10:27:41.999Z</time></trkpt><trkpt lat="42.38211315362566" lon="2.7099540453185"><ele>534.0</ele><time>2026-04-22T10:27:42.999Z</time></trkpt><trkpt lat="42.38232064554622" lon="2.7098674752065546"><ele>534.0</ele><time>2026-04-22T10:27:43.999Z</time></trkpt><trkpt lat="42.38252812270115" lon="2.7097424007086492"><ele>536.5</ele><time>2026-04-22T10:27:44.999Z</time></trkpt><trkpt lat="42.382734554106285" lon="2.709586621268277"><ele>539.0</ele><time>2026-04-22T10:27:45.999Z</time></trkpt><trkpt lat="42.382920555759696" lon="2.7093894328818386"><ele>529.0</ele><time>2026-04-22T10:27:46.999Z</time></trkpt><trkpt lat="42.38308397355083" lon="2.709148523977167"><ele>519.0</ele><time>2026-04-22T10:27:47.999Z</time></trkpt><trkpt lat="42.383223414708645" lon="2.708886942714051"><ele>519.0</ele><time>2026-04-22T10:27:48.998Z</time></trkpt><trkpt lat="42.383360905061686" lon="2.7086487014355596"><ele>519.0</ele><time>2026-04-22T10:27:49.998Z</time></trkpt><trkpt lat="42.38353022252992" lon="2.708433040892541"><ele>522.5</ele><time>2026-04-22T10:27:50.998Z</time></trkpt><trkpt lat="42.38371208769732" lon="2.7082394917537918"><ele>526.0</ele><time>2026-04-22T10:27:51.998Z</time></trkpt><trkpt lat="42.383891449186684" lon="2.708065270652875"><ele>523.0</ele><time>2026-04-22T10:27:52.998Z</time></trkpt><trkpt lat="42.384080951173694" lon="2.7079307786399838"><ele>520.0</ele><time>2026-04-22T10:27:53.998Z</time></trkpt><trkpt lat="42.3842567116342" lon="2.707816854238929"><ele>517.0</ele><time>2026-04-22T10:27:54.998Z</time></trkpt><trkpt lat="42.384412461750195" lon="2.707702879113945"><ele>517.0</ele><time>2026-04-22T10:27:55.998Z</time></trkpt><trkpt lat="42.384544480364404" lon="2.707561894571551"><ele>517.0</ele><time>2026-04-22T10:27:56.998Z</time></trkpt><trkpt lat="42.38465199730646" lon="2.707363016974697"><ele>517.0</ele><time>2026-04-22T10:27:57.998Z</time></trkpt><trkpt lat="42.38472609208049" lon="2.7071092955470633"><ele>506.6666666666667</ele><time>2026-04-22T10:27:58.998Z</time></trkpt><trkpt lat="42.38476827065364" lon="2.7068237591902347"><ele>496.33333333333337</ele><time>2026-04-22T10:27:59.998Z</time></trkpt><trkpt lat="42.38481195605078" lon="2.7065549347813804"><ele>486.0</ele><time>2026-04-22T10:28:00.998Z</time></trkpt><trkpt lat="42.38489513927161" lon="2.70633821751255"><ele>486.0</ele><time>2026-04-22T10:28:01.998Z</time></trkpt><trkpt lat="42.385000432587134" lon="2.706143950672534"><ele>486.0</ele><time>2026-04-22T10:28:02.998Z</time></trkpt><trkpt lat="42.38513894389573" lon="2.706002588282397"><ele>486.0</ele><time>2026-04-22T10:28:03.998Z</time></trkpt><trkpt lat="42.385297938141804" lon="2.7059029056070294"><ele>488.66666666666663</ele><time>2026-04-22T10:28:04.998Z</time></trkpt><trkpt lat="42.3854707256435" lon="2.7058644948472597"><ele>491.3333333333333</ele><time>2026-04-22T10:28:05.998Z</time></trkpt><trkpt lat="42.38564776866692" lon="2.7058790822550463"><ele>494.0</ele><time>2026-04-22T10:28:06.998Z</time></trkpt><trkpt lat="42.38581418746087" lon="2.70595612738169"><ele>487.0</ele><time>2026-04-22T10:28:07.998Z</time></trkpt><trkpt lat="42.38595800713569" lon="2.706085075223589"><ele>480.0</ele><time>2026-04-22T10:28:08.998Z</time></trkpt><trkpt lat="42.38608105539581" lon="2.706260512015707"><ele>473.0</ele><time>2026-04-22T10:28:09.998Z</time></trkpt><trkpt lat="42.38616851403729" lon="2.7064778962380536"><ele>473.0</ele><time>2026-04-22T10:28:10.998Z</time></trkpt><trkpt lat="42.386208876360826" lon="2.7067122012503795"><ele>473.0</ele><time>2026-04-22T10:28:12Z</time></trkpt><trkpt lat="42.38621776330417" lon="2.70697271545481"><ele>473.0</ele><time>2026-04-22T10:28:13Z</time></trkpt><trkpt lat="42.38622735280961" lon="2.707273366039106"><ele>470.0</ele><time>2026-04-22T10:28:14Z</time></trkpt><trkpt lat="42.38621970995105" lon="2.707587299968899"><ele>467.0</ele><time>2026-04-22T10:28:15Z</time></trkpt><trkpt lat="42.38622133603415" lon="2.7079247979577534"><ele>466.0</ele><time>2026-04-22T10:28:16Z</time></trkpt><trkpt lat="42.38623550117121" lon="2.7082795202602035"><ele>465.0</ele><time>2026-04-22T10:28:17Z</time></trkpt><trkpt lat="42.38622758208329" lon="2.7086465052087343"><ele>465.0</ele><time>2026-04-22T10:28:18Z</time></trkpt><trkpt lat="42.38624595368002" lon="2.7090235435542147"><ele>465.0</ele><time>2026-04-22T10:28:19Z</time></trkpt><trkpt lat="42.3862416414672" lon="2.70940741440343"><ele>465.0</ele><time>2026-04-22T10:28:20Z</time></trkpt><trkpt lat="42.3862445832737" lon="2.7097998482184944"><ele>465.0</ele><time>2026-04-22T10:28:21Z</time></trkpt><trkpt lat="42.38622064917327" lon="2.7101837080478393"><ele>467.0</ele><time>2026-04-22T10:28:22Z</time></trkpt><trkpt lat="42.38618225945377" lon="2.71052831071943"><ele>469.0</ele><time>2026-04-22T10:28:23Z</time></trkpt><trkpt lat="42.386122002637734" lon="2.7108516507841927"><ele>478.5</ele><time>2026-04-22T10:28:24Z</time></trkpt><trkpt lat="42.38601697085687" lon="2.711154481718525"><ele>488.0</ele><time>2026-04-22T10:28:25Z</time></trkpt><trkpt lat="42.385884104274645" lon="2.7114264912038037"><ele>488.0</ele><time>2026-04-22T10:28:26Z</time></trkpt><trkpt lat="42.38572891205283" lon="2.7116850861139254"><ele>488.0</ele><time>2026-04-22T10:28:27Z</time></trkpt><trkpt lat="42.38556081023174" lon="2.7118926065929405"><ele>485.0</ele><time>2026-04-22T10:28:28Z</time></trkpt><trkpt lat="42.385394601476065" lon="2.7120716447180717"><ele>482.0</ele><time>2026-04-22T10:28:29Z</time></trkpt><trkpt lat="42.3852309730589" lon="2.712250326221044"><ele>479.0</ele><time>2026-04-22T10:28:30Z</time></trkpt><trkpt lat="42.38506405129101" lon="2.712423096527653"><ele>479.0</ele><time>2026-04-22T10:28:31Z</time></trkpt><trkpt lat="42.384922779179654" lon="2.7126152106429977"><ele>479.0</ele><time>2026-04-22T10:28:32Z</time></trkpt><trkpt lat="42.38481711634342" lon="2.7128193628824815"><ele>479.0</ele><time>2026-04-22T10:28:33Z</time></trkpt><trkpt lat="42.384740754360394" lon="2.7130385030736144"><ele>483.0</ele><time>2026-04-22T10:28:34Z</time></trkpt><trkpt lat="42.38470579179052" lon="2.713293684050338"><ele>487.0</ele><time>2026-04-22T10:28:35Z</time></trkpt><trkpt lat="42.38470934893536" lon="2.7135777105000165"><ele>491.0</ele><time>2026-04-22T10:28:36Z</time></trkpt><trkpt lat="42.3847148624313" lon="2.713874318617844"><ele>491.0</ele><time>2026-04-22T10:28:37Z</time></trkpt><trkpt lat="42.384746102184955" lon="2.71418313255675"><ele>491.0</ele><time>2026-04-22T10:28:38Z</time></trkpt><trkpt lat="42.38476839499741" lon="2.7144826204387775"><ele>487.66666666666663</ele><time>2026-04-22T10:28:39Z</time></trkpt><trkpt lat="42.38480125870854" lon="2.7147909590415726"><ele>484.33333333333337</ele><time>2026-04-22T10:28:40Z</time></trkpt><trkpt lat="42.38482704659978" lon="2.7150827250493066"><ele>481.0</ele><time>2026-04-22T10:28:41Z</time></trkpt><trkpt lat="42.38485801372891" lon="2.715368423473468"><ele>478.33333333333337</ele><time>2026-04-22T10:28:42Z</time></trkpt><trkpt lat="42.38490896334498" lon="2.7156403500446795"><ele>475.66666666666663</ele><time>2026-04-22T10:28:43Z</time></trkpt><trkpt lat="42.3849899619014" lon="2.715899640764197"><ele>473.0</ele><time>2026-04-22T10:28:44Z</time></trkpt><trkpt lat="42.385104306933194" lon="2.7161428018467912"><ele>470.66666666666663</ele><time>2026-04-22T10:28:45Z</time></trkpt><trkpt lat="42.38524781885611" lon="2.7163640936211406"><ele>468.33333333333337</ele><time>2026-04-22T10:28:46Z</time></trkpt><trkpt lat="42.38540594338302" lon="2.7165414335348395"><ele>466.0</ele><time>2026-04-22T10:28:47Z</time></trkpt><trkpt lat="42.3855681136741" lon="2.716703893251919"><ele>465.33333333333337</ele><time>2026-04-22T10:28:48Z</time></trkpt><trkpt lat="42.38573402881413" lon="2.7168560638061123"><ele>464.66666666666663</ele><time>2026-04-22T10:28:49Z</time></trkpt><trkpt lat="42.38590173915783" lon="2.7170068819111135"><ele>464.0</ele><time>2026-04-22T10:28:50Z</time></trkpt><trkpt lat="42.386053137059406" lon="2.717184441132866"><ele>462.0</ele><time>2026-04-22T10:28:51Z</time></trkpt><trkpt lat="42.386170023497776" lon="2.717400078368779"><ele>460.0</ele><time>2026-04-22T10:28:52Z</time></trkpt><trkpt lat="42.38626857401831" lon="2.7176296118108656"><ele>458.0</ele><time>2026-04-22T10:28:53Z</time></trkpt><trkpt lat="42.38631934584397" lon="2.7178944657150037"><ele>456.3333333333333</ele><time>2026-04-22T10:28:54Z</time></trkpt><trkpt lat="42.38632994664148" lon="2.718175650713978"><ele>454.66666666666663</ele><time>2026-04-22T10:28:55Z</time></trkpt><trkpt lat="42.386327854192245" lon="2.718447498469482"><ele>453.0</ele><time>2026-04-22T10:28:55.999Z</time></trkpt><trkpt lat="42.38628949530351" lon="2.7187152589311174"><ele>451.0</ele><time>2026-04-22T10:28:56.999Z</time></trkpt><trkpt lat="42.38626499050904" lon="2.7189686161942617"><ele>449.0</ele><time>2026-04-22T10:28:57.999Z</time></trkpt><trkpt lat="42.38626787012251" lon="2.719198086948659"><ele>447.0</ele><time>2026-04-22T10:28:58.999Z</time></trkpt><trkpt lat="42.38630107983317" lon="2.719424557569528"><ele>450.0</ele><time>2026-04-22T10:28:59.999Z</time></trkpt><trkpt lat="42.38636315709268" lon="2.7196175592124137"><ele>453.0</ele><time>2026-04-22T10:29:00.999Z</time></trkpt><trkpt lat="42.38643814770614" lon="2.7198073424939184"><ele>456.0</ele><time>2026-04-22T10:29:01.999Z</time></trkpt><trkpt lat="42.38645964212271" lon="2.720000639261522"><ele>456.0</ele><time>2026-04-22T10:29:02.999Z</time></trkpt><trkpt lat="42.38644047713816" lon="2.720185888273594"><ele>456.0</ele><time>2026-04-22T10:29:03.999Z</time></trkpt><trkpt lat="42.38636637649065" lon="2.720374865633922"><ele>456.0</ele><time>2026-04-22T10:29:04.999Z</time></trkpt><trkpt lat="42.38624505913116" lon="2.720525030421439"><ele>454.66666666666663</ele><time>2026-04-22T10:29:05.999Z</time></trkpt><trkpt lat="42.386083698101025" lon="2.7206583293702207"><ele>453.3333333333333</ele><time>2026-04-22T10:29:06.999Z</time></trkpt><trkpt lat="42.38591708902449" lon="2.7208113357308235"><ele>452.0</ele><time>2026-04-22T10:29:07.999Z</time></trkpt><trkpt lat="42.385735539907984" lon="2.7209535312661908"><ele>453.0</ele><time>2026-04-22T10:29:08.999Z</time></trkpt><trkpt lat="42.38554187413167" lon="2.7211076409322796"><ele>454.0</ele><time>2026-04-22T10:29:09.999Z</time></trkpt><trkpt lat="42.38535273908589" lon="2.721268593024607"><ele>455.0</ele><time>2026-04-22T10:29:10.999Z</time></trkpt><trkpt lat="42.385155470384696" lon="2.721424639651414"><ele>455.0</ele><time>2026-04-22T10:29:11.999Z</time></trkpt><trkpt lat="42.38494702709641" lon="2.721590835212076"><ele>455.0</ele><time>2026-04-22T10:29:12.999Z</time></trkpt><trkpt lat="42.38474105933124" lon="2.7217559939321223"><ele>460.5</ele><time>2026-04-22T10:29:13.999Z</time></trkpt><trkpt lat="42.38452412021321" lon="2.7219037173246154"><ele>466.0</ele><time>2026-04-22T10:29:14.999Z</time></trkpt><trkpt lat="42.384290492938604" lon="2.7220456367814263"><ele>466.0</ele><time>2026-04-22T10:29:15.999Z</time></trkpt><trkpt lat="42.38405427706517" lon="2.722165695003569"><ele>466.0</ele><time>2026-04-22T10:29:16.999Z</time></trkpt><trkpt lat="42.38381000686181" lon="2.7222822882229822"><ele>462.5</ele><time>2026-04-22T10:29:17.999Z</time></trkpt><trkpt lat="42.38357166178928" lon="2.72238187659524"><ele>459.0</ele><time>2026-04-22T10:29:18.999Z</time></trkpt><trkpt lat="42.38334355067951" lon="2.7224912285065126"><ele>459.0</ele><time>2026-04-22T10:29:19.999Z</time></trkpt><trkpt lat="42.383117184880994" lon="2.722619398203358"><ele>459.0</ele><time>2026-04-22T10:29:20.999Z</time></trkpt><trkpt lat="42.38290814492569" lon="2.722772083349587"><ele>463.0</ele><time>2026-04-22T10:29:21.999Z</time></trkpt><trkpt lat="42.38271489681221" lon="2.722953517045472"><ele>467.0</ele><time>2026-04-22T10:29:22.999Z</time></trkpt><trkpt lat="42.38253414411572" lon="2.723161642980671"><ele>467.0</ele><time>2026-04-22T10:29:23.999Z</time></trkpt><trkpt lat="42.38236106120471" lon="2.72338279743823"><ele>467.0</ele><time>2026-04-22T10:29:24.999Z</time></trkpt><trkpt lat="42.382201405454055" lon="2.7236132331220047"><ele>466.66666666666663</ele><time>2026-04-22T10:29:25.999Z</time></trkpt><trkpt lat="42.382059878340584" lon="2.7238336792552666"><ele>466.33333333333337</ele><time>2026-04-22T10:29:26.999Z</time></trkpt><trkpt lat="42.38192817096194" lon="2.7240438543638774"><ele>466.0</ele><time>2026-04-22T10:29:27.999Z</time></trkpt><trkpt lat="42.38180588165429" lon="2.72424897877036"><ele>466.6666666666667</ele><time>2026-04-22T10:29:28.999Z</time></trkpt><trkpt lat="42.38170117666625" lon="2.724482468179964"><ele>467.33333333333337</ele><time>2026-04-22T10:29:29.999Z</time></trkpt><trkpt lat="42.38161667371257" lon="2.724744692678604"><ele>468.0</ele><time>2026-04-22T10:29:30.999Z</time></trkpt><trkpt lat="42.38155233812458" lon="2.725025936594738"><ele>468.33333333333337</ele><time>2026-04-22T10:29:31.999Z</time></trkpt><trkpt lat="42.381498596745054" lon="2.7253136955871597"><ele>468.6666666666667</ele><time>2026-04-22T10:29:32.999Z</time></trkpt><trkpt lat="42.381459994438615" lon="2.7255968254510528"><ele>469.0</ele><time>2026-04-22T10:29:33.999Z</time></trkpt><trkpt lat="42.38142078947977" lon="2.725864468267094"><ele>467.6666666666667</ele><time>2026-04-22T10:29:34.999Z</time></trkpt><trkpt lat="42.381383748549574" lon="2.7261240356716536"><ele>466.33333333333337</ele><time>2026-04-22T10:29:35.999Z</time></trkpt><trkpt lat="42.38137724103806" lon="2.726372832358438"><ele>465.0</ele><time>2026-04-22T10:29:36.999Z</time></trkpt><trkpt lat="42.38140787550966" lon="2.726608496521211"><ele>465.0</ele><time>2026-04-22T10:29:37.999Z</time></trkpt><trkpt lat="42.38149522122221" lon="2.7268273370374962"><ele>465.0</ele><time>2026-04-22T10:29:38.999Z</time></trkpt><trkpt lat="42.381616931845635" lon="2.727026616294474"><ele>465.0</ele><time>2026-04-22T10:29:39.999Z</time></trkpt><trkpt lat="42.38176561140732" lon="2.7272001278602156"><ele>464.66666666666663</ele><time>2026-04-22T10:29:40.999Z</time></trkpt><trkpt lat="42.38194629324546" lon="2.7273588821622727"><ele>464.3333333333333</ele><time>2026-04-22T10:29:41.999Z</time></trkpt><trkpt lat="42.382120472002775" lon="2.7275116539214608"><ele>464.0</ele><time>2026-04-22T10:29:42.999Z</time></trkpt><trkpt lat="42.382282665147066" lon="2.727644070521062"><ele>459.0</ele><time>2026-04-22T10:29:43.999Z</time></trkpt><trkpt lat="42.38244399839943" lon="2.727775688287841"><ele>454.0</ele><time>2026-04-22T10:29:44.999Z</time></trkpt><trkpt lat="42.38259382064803" lon="2.727935787220939"><ele>449.0</ele><time>2026-04-22T10:29:45.999Z</time></trkpt><trkpt lat="42.38271445841427" lon="2.7281399611269577"><ele>449.0</ele><time>2026-04-22T10:29:46.999Z</time></trkpt><trkpt lat="42.38279667433917" lon="2.7283821607888075"><ele>449.0</ele><time>2026-04-22T10:29:47.999Z</time></trkpt><trkpt lat="42.382835545203925" lon="2.7286321788611274"><ele>449.0</ele><time>2026-04-22T10:29:48.999Z</time></trkpt><trkpt lat="42.38283752641549" lon="2.7288607725616463"><ele>448.3333333333333</ele><time>2026-04-22T10:29:49.999Z</time></trkpt><trkpt lat="42.382783931368785" lon="2.7290762039317515"><ele>447.66666666666663</ele><time>2026-04-22T10:29:50.999Z</time></trkpt><trkpt lat="42.38265856420442" lon="2.72926829437948"><ele>447.0</ele><time>2026-04-22T10:29:51.999Z</time></trkpt><trkpt lat="42.382510300878074" lon="2.729439157466105"><ele>449.33333333333337</ele><time>2026-04-22T10:29:52.999Z</time></trkpt><trkpt lat="42.38233563247661" lon="2.7295833386275463"><ele>451.6666666666667</ele><time>2026-04-22T10:29:53.999Z</time></trkpt><trkpt lat="42.38214701746467" lon="2.729712293491407"><ele>454.0</ele><time>2026-04-22T10:29:54.999Z</time></trkpt><trkpt lat="42.38194772633882" lon="2.7298455036386984"><ele>454.0</ele><time>2026-04-22T10:29:55.998Z</time></trkpt><trkpt lat="42.38174636365869" lon="2.7299821384809886"><ele>454.0</ele><time>2026-04-22T10:29:56.998Z</time></trkpt><trkpt lat="42.381567985802484" lon="2.730103012202866"><ele>454.0</ele><time>2026-04-22T10:29:57.998Z</time></trkpt><trkpt lat="42.381374552419686" lon="2.7302327586380097"><ele>456.33333333333337</ele><time>2026-04-22T10:29:58.998Z</time></trkpt><trkpt lat="42.38119704620605" lon="2.730357161700698"><ele>458.66666666666663</ele><time>2026-04-22T10:29:59.998Z</time></trkpt><trkpt lat="42.38102278508044" lon="2.7305141652347666"><ele>461.0</ele><time>2026-04-22T10:30:00.998Z</time></trkpt><trkpt lat="42.38086318896241" lon="2.730674429283111"><ele>461.0</ele><time>2026-04-22T10:30:01.998Z</time></trkpt><trkpt lat="42.380741947759795" lon="2.7308579967750273"><ele>461.0</ele><time>2026-04-22T10:30:02.998Z</time></trkpt><trkpt lat="42.380664196193216" lon="2.7310733929498228"><ele>461.0</ele><time>2026-04-22T10:30:03.998Z</time></trkpt><trkpt lat="42.38063138224032" lon="2.731309472591203"><ele>460.3333333333333</ele><time>2026-04-22T10:30:04.998Z</time></trkpt><trkpt lat="42.38065547720539" lon="2.731548754138474"><ele>459.66666666666663</ele><time>2026-04-22T10:30:05.998Z</time></trkpt><trkpt lat="42.380720587707124" lon="2.7317845030222587"><ele>459.0</ele><time>2026-04-22T10:30:06.998Z</time></trkpt><trkpt lat="42.38082258060252" lon="2.7320293814122176"><ele>460.0</ele><time>2026-04-22T10:30:07.998Z</time></trkpt><trkpt lat="42.38097410650128" lon="2.7322294153415227"><ele>461.0</ele><time>2026-04-22T10:30:08.998Z</time></trkpt><trkpt lat="42.3811617182287" lon="2.7323970060421354"><ele>462.0</ele><time>2026-04-22T10:30:09.998Z</time></trkpt><trkpt lat="42.381363479165806" lon="2.732556624541937"><ele>462.0</ele><time>2026-04-22T10:30:10.998Z</time></trkpt><trkpt lat="42.38155889204249" lon="2.732720163361145"><ele>462.0</ele><time>2026-04-22T10:30:11.998Z</time></trkpt><trkpt lat="42.38173461509473" lon="2.732872504142494"><ele>462.0</ele><time>2026-04-22T10:30:12.998Z</time></trkpt><trkpt lat="42.381909704972806" lon="2.733007385502231"><ele>459.0</ele><time>2026-04-22T10:30:13.998Z</time></trkpt><trkpt lat="42.38209519279813" lon="2.7331282486800688"><ele>456.0</ele><time>2026-04-22T10:30:14.998Z</time></trkpt><trkpt lat="42.382283676118085" lon="2.7332095045355813"><ele>453.0</ele><time>2026-04-22T10:30:15.998Z</time></trkpt><trkpt lat="42.382494246346745" lon="2.7332535812730203"><ele>453.0</ele><time>2026-04-22T10:30:16.998Z</time></trkpt><trkpt lat="42.38271454448103" lon="2.7332511085157605"><ele>453.0</ele><time>2026-04-22T10:30:18Z</time></trkpt><trkpt lat="42.382930237339984" lon="2.733196575930209"><ele>453.0</ele><time>2026-04-22T10:30:19Z</time></trkpt><trkpt lat="42.38314750647288" lon="2.733097740179849"><ele>454.33333333333337</ele><time>2026-04-22T10:30:20Z</time></trkpt><trkpt lat="42.38334034300222" lon="2.732960594059222"><ele>455.6666666666667</ele><time>2026-04-22T10:30:21Z</time></trkpt><trkpt lat="42.38351131173901" lon="2.732765420595711"><ele>457.0</ele><time>2026-04-22T10:30:22Z</time></trkpt><trkpt lat="42.38364999778869" lon="2.7325374857116365"><ele>457.0</ele><time>2026-04-22T10:30:23Z</time></trkpt><trkpt lat="42.38377569739243" lon="2.732307999099899"><ele>457.0</ele><time>2026-04-22T10:30:24Z</time></trkpt><trkpt lat="42.383901315060804" lon="2.7320883661162636"><ele>457.0</ele><time>2026-04-22T10:30:25Z</time></trkpt><trkpt lat="42.38402332045672" lon="2.7318830507037717"><ele>453.33333333333337</ele><time>2026-04-22T10:30:26Z</time></trkpt><trkpt lat="42.38418006335044" lon="2.7317461983790734"><ele>449.66666666666663</ele><time>2026-04-22T10:30:27Z</time></trkpt><trkpt lat="42.384354354732075" lon="2.7316416953874882"><ele>446.0</ele><time>2026-04-22T10:30:28Z</time></trkpt><trkpt lat="42.38454387778517" lon="2.7315852054924665"><ele>443.66666666666663</ele><time>2026-04-22T10:30:29Z</time></trkpt><trkpt lat="42.38472782415061" lon="2.7315923239728654"><ele>441.33333333333337</ele><time>2026-04-22T10:30:30Z</time></trkpt><trkpt lat="42.384893859801764" lon="2.7316579382990933"><ele>439.0</ele><time>2026-04-22T10:30:31Z</time></trkpt><trkpt lat="42.38504354756086" lon="2.731772627630692"><ele>434.33333333333337</ele><time>2026-04-22T10:30:32Z</time></trkpt><trkpt lat="42.385178780109676" lon="2.731941375473288"><ele>429.66666666666663</ele><time>2026-04-22T10:30:33Z</time></trkpt><trkpt lat="42.38528160025526" lon="2.7321437219028053"><ele>425.0</ele><time>2026-04-22T10:30:34Z</time></trkpt><trkpt lat="42.385342155337796" lon="2.732378713342234"><ele>425.0</ele><time>2026-04-22T10:30:35Z</time></trkpt><trkpt lat="42.38535049041686" lon="2.7326306388938955"><ele>425.0</ele><time>2026-04-22T10:30:36Z</time></trkpt><trkpt lat="42.38532411980367" lon="2.7328979244582974"><ele>425.0</ele><time>2026-04-22T10:30:37Z</time></trkpt><trkpt lat="42.385247970431514" lon="2.7331669258359272"><ele>426.5</ele><time>2026-04-22T10:30:38Z</time></trkpt><trkpt lat="42.38514175341669" lon="2.7334259748113374"><ele>428.0</ele><time>2026-04-22T10:30:39Z</time></trkpt><trkpt lat="42.38502199775381" lon="2.7336957920050633"><ele>428.0</ele><time>2026-04-22T10:30:40Z</time></trkpt><trkpt lat="42.3849111356361" lon="2.7339781207003946"><ele>428.0</ele><time>2026-04-22T10:30:41Z</time></trkpt><trkpt lat="42.38482276159212" lon="2.7342767502892342"><ele>431.5</ele><time>2026-04-22T10:30:42Z</time></trkpt><trkpt lat="42.384775323385526" lon="2.734580057169155"><ele>435.0</ele><time>2026-04-22T10:30:43Z</time></trkpt><trkpt lat="42.38474847442436" lon="2.7348904197858968"><ele>435.0</ele><time>2026-04-22T10:30:44Z</time></trkpt><trkpt lat="42.384765030833435" lon="2.735198998964523"><ele>435.0</ele><time>2026-04-22T10:30:45Z</time></trkpt><trkpt lat="42.38480667726283" lon="2.7354634682335055"><ele>435.0</ele><time>2026-04-22T10:30:46Z</time></trkpt><trkpt lat="42.38485042503752" lon="2.735731786542114"><ele>437.0</ele><time>2026-04-22T10:30:47Z</time></trkpt><trkpt lat="42.38488460909219" lon="2.7359999901463907"><ele>439.0</ele><time>2026-04-22T10:30:48Z</time></trkpt><trkpt lat="42.38494490588126" lon="2.7362578783108855"><ele>441.0</ele><time>2026-04-22T10:30:49Z</time></trkpt><trkpt lat="42.38496378402097" lon="2.73651365845948"><ele>441.0</ele><time>2026-04-22T10:30:50Z</time></trkpt><trkpt lat="42.38499736814034" lon="2.736757152160683"><ele>441.0</ele><time>2026-04-22T10:30:51Z</time></trkpt><trkpt lat="42.385042305242095" lon="2.736989800973054"><ele>441.0</ele><time>2026-04-22T10:30:52Z</time></trkpt><trkpt lat="42.385067194502284" lon="2.737229211801971"><ele>441.33333333333337</ele><time>2026-04-22T10:30:53Z</time></trkpt><trkpt lat="42.38511731175529" lon="2.7374772655607065"><ele>441.6666666666667</ele><time>2026-04-22T10:30:54Z</time></trkpt><trkpt lat="42.385181556983426" lon="2.7377430615632767"><ele>442.0</ele><time>2026-04-22T10:30:55Z</time></trkpt><trkpt lat="42.385265071720774" lon="2.738011622240235"><ele>442.5</ele><time>2026-04-22T10:30:56Z</time></trkpt><trkpt lat="42.38537264762538" lon="2.738281643783445"><ele>443.0</ele><time>2026-04-22T10:30:57Z</time></trkpt><trkpt lat="42.38549639136881" lon="2.7385390970370795"><ele>441.0</ele><time>2026-04-22T10:30:58Z</time></trkpt><trkpt lat="42.385634111484805" lon="2.7388124423154645"><ele>439.0</ele><time>2026-04-22T10:30:59Z</time></trkpt><trkpt lat="42.38577210485641" lon="2.739070723035123"><ele>439.0</ele><time>2026-04-22T10:31:00Z</time></trkpt><trkpt lat="42.38591322910962" lon="2.739301689565102"><ele>439.0</ele><time>2026-04-22T10:31:00.999Z</time></trkpt><trkpt lat="42.386043524538046" lon="2.7395282336354723"><ele>439.0</ele><time>2026-04-22T10:31:01.999Z</time></trkpt><trkpt lat="42.38613416548385" lon="2.739779485960002"><ele>437.0</ele><time>2026-04-22T10:31:02.999Z</time></trkpt><trkpt lat="42.38620006063412" lon="2.740044411614684"><ele>435.0</ele><time>2026-04-22T10:31:03.999Z</time></trkpt><trkpt lat="42.38622817826279" lon="2.7403092062387024"><ele>433.0</ele><time>2026-04-22T10:31:04.999Z</time></trkpt><trkpt lat="42.38621829169121" lon="2.7405742726035425"><ele>430.5</ele><time>2026-04-22T10:31:05.999Z</time></trkpt><trkpt lat="42.38617297643787" lon="2.740867463671022"><ele>428.0</ele><time>2026-04-22T10:31:06.999Z</time></trkpt><trkpt lat="42.386100029840286" lon="2.7411740401020745"><ele>426.5</ele><time>2026-04-22T10:31:07.999Z</time></trkpt><trkpt lat="42.38603287331669" lon="2.741501913616739"><ele>425.0</ele><time>2026-04-22T10:31:08.999Z</time></trkpt><trkpt lat="42.38594880904274" lon="2.741835122895653"><ele>421.5</ele><time>2026-04-22T10:31:09.999Z</time></trkpt><trkpt lat="42.38587088030844" lon="2.7421580434578785"><ele>418.0</ele><time>2026-04-22T10:31:10.999Z</time></trkpt><trkpt lat="42.38579235797909" lon="2.742470460817888"><ele>415.5</ele><time>2026-04-22T10:31:11.999Z</time></trkpt><trkpt lat="42.38571492798166" lon="2.7427832150492164"><ele>413.0</ele><time>2026-04-22T10:31:12.999Z</time></trkpt><trkpt lat="42.385622934559386" lon="2.7430811514690174"><ele>413.0</ele><time>2026-04-22T10:31:13.999Z</time></trkpt><trkpt lat="42.38554894493803" lon="2.7433719075478438"><ele>413.0</ele><time>2026-04-22T10:31:14.999Z</time></trkpt><trkpt lat="42.38547445003479" lon="2.7436586708947215"><ele>410.3333333333333</ele><time>2026-04-22T10:31:15.999Z</time></trkpt><trkpt lat="42.38539066365467" lon="2.743934955934467"><ele>407.66666666666663</ele><time>2026-04-22T10:31:16.999Z</time></trkpt><trkpt lat="42.38528248503079" lon="2.7441924331003236"><ele>405.0</ele><time>2026-04-22T10:31:17.999Z</time></trkpt><trkpt lat="42.385145798464166" lon="2.7444483632567813"><ele>402.33333333333337</ele><time>2026-04-22T10:31:18.999Z</time></trkpt><trkpt lat="42.384985537115384" lon="2.7446630140997805"><ele>399.6666666666667</ele><time>2026-04-22T10:31:19.999Z</time></trkpt><trkpt lat="42.38480946115836" lon="2.7448376407306982"><ele>397.0</ele><time>2026-04-22T10:31:20.999Z</time></trkpt><trkpt lat="42.384601663403295" lon="2.744994120629229"><ele>397.0</ele><time>2026-04-22T10:31:21.999Z</time></trkpt><trkpt lat="42.38438351812091" lon="2.74515328825935"><ele>397.0</ele><time>2026-04-22T10:31:22.999Z</time></trkpt><trkpt lat="42.384161538378834" lon="2.7453352924321495"><ele>392.0</ele><time>2026-04-22T10:31:23.999Z</time></trkpt><trkpt lat="42.38392705297813" lon="2.7455092956588785"><ele>387.0</ele><time>2026-04-22T10:31:24.999Z</time></trkpt><trkpt lat="42.383700667636916" lon="2.74567163229488"><ele>386.5</ele><time>2026-04-22T10:31:25.999Z</time></trkpt><trkpt lat="42.38347689491071" lon="2.745815795840216"><ele>386.0</ele><time>2026-04-22T10:31:26.999Z</time></trkpt><trkpt lat="42.383264302592686" lon="2.7459673736074715"><ele>385.0</ele><time>2026-04-22T10:31:27.999Z</time></trkpt><trkpt lat="42.38306407058852" lon="2.7461354188466256"><ele>384.0</ele><time>2026-04-22T10:31:28.999Z</time></trkpt><trkpt lat="42.38286914836967" lon="2.7463200955400318"><ele>384.0</ele><time>2026-04-22T10:31:29.999Z</time></trkpt><trkpt lat="42.38269339087899" lon="2.7465370139259013"><ele>384.0</ele><time>2026-04-22T10:31:30.999Z</time></trkpt><trkpt lat="42.382561548944004" lon="2.746773633285364"><ele>382.5</ele><time>2026-04-22T10:31:31.999Z</time></trkpt><trkpt lat="42.38244597387083" lon="2.7470559586721044"><ele>381.0</ele><time>2026-04-22T10:31:32.999Z</time></trkpt><trkpt lat="42.3823482672441" lon="2.747346293744346"><ele>381.0</ele><time>2026-04-22T10:31:33.999Z</time></trkpt><trkpt lat="42.38227909471446" lon="2.7476507239948704"><ele>381.0</ele><time>2026-04-22T10:31:34.999Z</time></trkpt><trkpt lat="42.38223838392399" lon="2.747964086466108"><ele>377.5</ele><time>2026-04-22T10:31:35.999Z</time></trkpt><trkpt lat="42.38222966191704" lon="2.748274605005943"><ele>374.0</ele><time>2026-04-22T10:31:36.999Z</time></trkpt><trkpt lat="42.38225156039517" lon="2.748571234449047"><ele>370.0</ele><time>2026-04-22T10:31:37.999Z</time></trkpt><trkpt lat="42.38230325051372" lon="2.7488640921056677"><ele>366.0</ele><time>2026-04-22T10:31:38.999Z</time></trkpt><trkpt lat="42.38238789577949" lon="2.749158821769004"><ele>364.6666666666667</ele><time>2026-04-22T10:31:39.999Z</time></trkpt><trkpt lat="42.38249421297621" lon="2.7494292729964855"><ele>363.33333333333337</ele><time>2026-04-22T10:31:40.999Z</time></trkpt><trkpt lat="42.38261602280297" lon="2.7496788582790055"><ele>362.0</ele><time>2026-04-22T10:31:41.999Z</time></trkpt><trkpt lat="42.382754533489255" lon="2.7499143441858274"><ele>362.0</ele><time>2026-04-22T10:31:42.999Z</time></trkpt><trkpt lat="42.382926423009636" lon="2.7501325857391463"><ele>362.0</ele><time>2026-04-22T10:31:43.999Z</time></trkpt><trkpt lat="42.38312601304664" lon="2.750327418531716"><ele>356.5</ele><time>2026-04-22T10:31:44.999Z</time></trkpt><trkpt lat="42.383323797650135" lon="2.750519074809024"><ele>351.0</ele><time>2026-04-22T10:31:45.999Z</time></trkpt><trkpt lat="42.38351241263043" lon="2.7506981576790674"><ele>351.0</ele><time>2026-04-22T10:31:46.999Z</time></trkpt><trkpt lat="42.38369419453041" lon="2.7508730915161133"><ele>351.0</ele><time>2026-04-22T10:31:47.999Z</time></trkpt><trkpt lat="42.38386960711424" lon="2.7510454033660277"><ele>351.0</ele><time>2026-04-22T10:31:48.999Z</time></trkpt><trkpt lat="42.384040608807084" lon="2.7512257456433526"><ele>349.0</ele><time>2026-04-22T10:31:49.999Z</time></trkpt><trkpt lat="42.38420723448208" lon="2.7513913919161723"><ele>347.0</ele><time>2026-04-22T10:31:50.999Z</time></trkpt><trkpt lat="42.38436258069591" lon="2.751559581935001"><ele>345.0</ele><time>2026-04-22T10:31:51.999Z</time></trkpt><trkpt lat="42.384495141012685" lon="2.751741540198811"><ele>344.3333333333333</ele><time>2026-04-22T10:31:52.999Z</time></trkpt><trkpt lat="42.3845963849407" lon="2.7519445218664624"><ele>343.66666666666663</ele><time>2026-04-22T10:31:53.999Z</time></trkpt><trkpt lat="42.38467750748915" lon="2.752165749616123"><ele>343.0</ele><time>2026-04-22T10:31:54.999Z</time></trkpt><trkpt lat="42.38474233433855" lon="2.7523922639533693"><ele>344.3333333333333</ele><time>2026-04-22T10:31:55.999Z</time></trkpt><trkpt lat="42.384784748675806" lon="2.7526102172577342"><ele>345.6666666666667</ele><time>2026-04-22T10:31:56.999Z</time></trkpt><trkpt lat="42.38481381049253" lon="2.7528171582621974"><ele>347.0</ele><time>2026-04-22T10:31:57.999Z</time></trkpt><trkpt lat="42.38483467646369" lon="2.753014310452671"><ele>347.0</ele><time>2026-04-22T10:31:58.999Z</time></trkpt><trkpt lat="42.38487081827518" lon="2.7531994224058636"><ele>347.0</ele><time>2026-04-22T10:31:59.999Z</time></trkpt><trkpt lat="42.38493809159464" lon="2.7533688762473565"><ele>347.0</ele><time>2026-04-22T10:32:00.998Z</time></trkpt><trkpt lat="42.385052140081505" lon="2.753507197598974"><ele>347.0</ele><time>2026-04-22T10:32:01.998Z</time></trkpt><trkpt lat="42.385191414800225" lon="2.753603120529711"><ele>347.33333333333337</ele><time>2026-04-22T10:32:02.998Z</time></trkpt><trkpt lat="42.38536032731288" lon="2.7536601699248004"><ele>347.6666666666667</ele><time>2026-04-22T10:32:03.998Z</time></trkpt><trkpt lat="42.38551912434059" lon="2.753672053589249"><ele>348.0</ele><time>2026-04-22T10:32:04.998Z</time></trkpt><trkpt lat="42.385660763357805" lon="2.7537182496497845"><ele>348.0</ele><time>2026-04-22T10:32:05.998Z</time></trkpt><trkpt lat="42.38575531632106" lon="2.753838245177277"><ele>348.0</ele><time>2026-04-22T10:32:06.998Z</time></trkpt><trkpt lat="42.38585519034428" lon="2.753948511450939"><ele>348.0</ele><time>2026-04-22T10:32:07.998Z</time></trkpt><trkpt lat="42.38588054580069" lon="2.754149775827362"><ele>348.0</ele><time>2026-04-22T10:32:08.998Z</time></trkpt><trkpt lat="42.385944559846024" lon="2.754322252818744"><ele>347.6666666666667</ele><time>2026-04-22T10:32:09.998Z</time></trkpt><trkpt lat="42.38598253058046" lon="2.7545248999871017"><ele>347.33333333333337</ele><time>2026-04-22T10:32:10.998Z</time></trkpt><trkpt lat="42.386026295164896" lon="2.7547305910426947"><ele>347.0</ele><time>2026-04-22T10:32:11.998Z</time></trkpt><trkpt lat="42.386073503411666" lon="2.7549401902992847"><ele>347.0</ele><time>2026-04-22T10:32:12.998Z</time></trkpt><trkpt lat="42.38612773101736" lon="2.7551567450027266"><ele>347.0</ele><time>2026-04-22T10:32:13.998Z</time></trkpt><trkpt lat="42.3861853465509" lon="2.7553639589532777"><ele>347.0</ele><time>2026-04-22T10:32:14.998Z</time></trkpt><trkpt lat="42.3862598788603" lon="2.7555747179496892"><ele>347.0</ele><time>2026-04-22T10:32:15.998Z</time></trkpt><trkpt lat="42.386324508850805" lon="2.7557893566408262"><ele>347.0</ele><time>2026-04-22T10:32:16.998Z</time></trkpt><trkpt lat="42.38638321401052" lon="2.755995283137145"><ele>347.0</ele><time>2026-04-22T10:32:17.998Z</time></trkpt><trkpt lat="42.38643845799182" lon="2.756217856118582"><ele>348.33333333333337</ele><time>2026-04-22T10:32:18.998Z</time></trkpt><trkpt lat="42.3864921654539" lon="2.7564323844327636"><ele>349.6666666666667</ele><time>2026-04-22T10:32:19.998Z</time></trkpt><trkpt lat="42.38655490318518" lon="2.756658879436017"><ele>351.0</ele><time>2026-04-22T10:32:20.998Z</time></trkpt><trkpt lat="42.38661339177409" lon="2.756873007975411"><ele>351.0</ele><time>2026-04-22T10:32:21.998Z</time></trkpt><trkpt lat="42.38667653894904" lon="2.7570948169977187"><ele>351.0</ele><time>2026-04-22T10:32:22.998Z</time></trkpt><trkpt lat="42.3867379535533" lon="2.757315410713853"><ele>351.0</ele><time>2026-04-22T10:32:24Z</time></trkpt><trkpt lat="42.386796201320585" lon="2.757543608096667"><ele>351.3333333333333</ele><time>2026-04-22T10:32:25Z</time></trkpt><trkpt lat="42.38686047689338" lon="2.7577697282667564"><ele>351.66666666666663</ele><time>2026-04-22T10:32:26Z</time></trkpt><trkpt lat="42.38692191829505" lon="2.757981440396538"><ele>352.0</ele><time>2026-04-22T10:32:27Z</time></trkpt><trkpt lat="42.38697024525286" lon="2.758183458919941"><ele>352.0</ele><time>2026-04-22T10:32:28Z</time></trkpt><trkpt lat="42.387026124301705" lon="2.7583951088157685"><ele>352.0</ele><time>2026-04-22T10:32:29Z</time></trkpt><trkpt lat="42.38706983034599" lon="2.7585989272026827"><ele>352.0</ele><time>2026-04-22T10:32:30Z</time></trkpt><trkpt lat="42.387118756513395" lon="2.758782237804051"><ele>352.75</ele><time>2026-04-22T10:32:31Z</time></trkpt><trkpt lat="42.3871861359582" lon="2.75895903465471"><ele>353.5</ele><time>2026-04-22T10:32:32Z</time></trkpt><trkpt lat="42.38729016697488" lon="2.759091337431867"><ele>354.25</ele><time>2026-04-22T10:32:33Z</time></trkpt><trkpt lat="42.3874300057516" lon="2.759188655470564"><ele>355.0</ele><time>2026-04-22T10:32:34Z</time></trkpt><trkpt lat="42.38757715504086" lon="2.759264033560166"><ele>352.66666666666663</ele><time>2026-04-22T10:32:35Z</time></trkpt><trkpt lat="42.3877091946069" lon="2.7593689847086758"><ele>350.3333333333333</ele><time>2026-04-22T10:32:36Z</time></trkpt><trkpt lat="42.38778444880144" lon="2.759539060914216"><ele>348.0</ele><time>2026-04-22T10:32:37Z</time></trkpt><trkpt lat="42.387848916228656" lon="2.759732076220063"><ele>348.0</ele><time>2026-04-22T10:32:38Z</time></trkpt><trkpt lat="42.387893159827854" lon="2.7599408105548418"><ele>348.0</ele><time>2026-04-22T10:32:39Z</time></trkpt><trkpt lat="42.3878782041261" lon="2.7601785677411734"><ele>348.0</ele><time>2026-04-22T10:32:40Z</time></trkpt><trkpt lat="42.38782655072661" lon="2.7604246431438346"><ele>349.3333333333333</ele><time>2026-04-22T10:32:41Z</time></trkpt><trkpt lat="42.38774178303955" lon="2.7606714724487875"><ele>350.66666666666663</ele><time>2026-04-22T10:32:42Z</time></trkpt><trkpt lat="42.38763477238556" lon="2.7609153628692433"><ele>352.0</ele><time>2026-04-22T10:32:43Z</time></trkpt><trkpt lat="42.38757062636157" lon="2.7611741747655474"><ele>353.3333333333333</ele><time>2026-04-22T10:32:44Z</time></trkpt><trkpt lat="42.387504564069125" lon="2.7614015027014873"><ele>354.6666666666667</ele><time>2026-04-22T10:32:45Z</time></trkpt><trkpt lat="42.38743887606015" lon="2.761615519710496"><ele>356.0</ele><time>2026-04-22T10:32:46Z</time></trkpt><trkpt lat="42.38739832774047" lon="2.7618002895270037"><ele>355.5</ele><time>2026-04-22T10:32:47Z</time></trkpt><trkpt lat="42.38739170010566" lon="2.7619918773070857"><ele>355.0</ele><time>2026-04-22T10:32:48Z</time></trkpt><trkpt lat="42.387432706652746" lon="2.7621678627186257"><ele>354.5</ele><time>2026-04-22T10:32:49Z</time></trkpt><trkpt lat="42.38753139360947" lon="2.7623428523776985"><ele>354.0</ele><time>2026-04-22T10:32:50Z</time></trkpt><trkpt lat="42.38765886284679" lon="2.7625215537891608"><ele>353.0</ele><time>2026-04-22T10:32:51Z</time></trkpt><trkpt lat="42.38779039514441" lon="2.7627267136141787"><ele>352.0</ele><time>2026-04-22T10:32:52Z</time></trkpt><trkpt lat="42.38791172631615" lon="2.762948599294324"><ele>351.0</ele><time>2026-04-22T10:32:53Z</time></trkpt><trkpt lat="42.38804264099191" lon="2.7631901695409433"><ele>351.0</ele><time>2026-04-22T10:32:54Z</time></trkpt><trkpt lat="42.38819719098756" lon="2.7634105591849045"><ele>351.0</ele><time>2026-04-22T10:32:55Z</time></trkpt><trkpt lat="42.38836268417061" lon="2.7636088415567213"><ele>351.0</ele><time>2026-04-22T10:32:56Z</time></trkpt><trkpt lat="42.38851915670715" lon="2.7637991337612067"><ele>349.6666666666667</ele><time>2026-04-22T10:32:57Z</time></trkpt><trkpt lat="42.38865971189114" lon="2.7639741561713036"><ele>348.33333333333337</ele><time>2026-04-22T10:32:58Z</time></trkpt><trkpt lat="42.38879139026075" lon="2.7641183445585007"><ele>347.0</ele><time>2026-04-22T10:32:59Z</time></trkpt><trkpt lat="42.38892220721092" lon="2.764242023265612"><ele>347.0</ele><time>2026-04-22T10:33:00Z</time></trkpt><trkpt lat="42.38904501075602" lon="2.7643359230700235"><ele>347.0</ele><time>2026-04-22T10:33:00.999Z</time></trkpt><trkpt lat="42.389173021280094" lon="2.764387006936615"><ele>347.0</ele><time>2026-04-22T10:33:01.999Z</time></trkpt><trkpt lat="42.38931878543792" lon="2.7643881748793135"><ele>347.0</ele><time>2026-04-22T10:33:02.999Z</time></trkpt><trkpt lat="42.389474566247586" lon="2.764330286558859"><ele>347.0</ele><time>2026-04-22T10:33:03.999Z</time></trkpt><trkpt lat="42.38963653271253" lon="2.7642377908956792"><ele>347.0</ele><time>2026-04-22T10:33:04.999Z</time></trkpt><trkpt lat="42.389789233655414" lon="2.7641685040707484"><ele>347.0</ele><time>2026-04-22T10:33:05.999Z</time></trkpt><trkpt lat="42.38993670140606" lon="2.764109793470808"><ele>345.33333333333337</ele><time>2026-04-22T10:33:06.999Z</time></trkpt><trkpt lat="42.39009814373114" lon="2.764089838834467"><ele>343.6666666666667</ele><time>2026-04-22T10:33:07.999Z</time></trkpt><trkpt lat="42.3902610103846" lon="2.764129714685245"><ele>342.0</ele><time>2026-04-22T10:33:08.999Z</time></trkpt><trkpt lat="42.39041027209851" lon="2.764237551055842"><ele>340.6666666666667</ele><time>2026-04-22T10:33:09.999Z</time></trkpt><trkpt lat="42.39052620758328" lon="2.7644252943273164"><ele>339.33333333333337</ele><time>2026-04-22T10:33:10.999Z</time></trkpt><trkpt lat="42.39063494165421" lon="2.7646465341868525"><ele>338.0</ele><time>2026-04-22T10:33:11.999Z</time></trkpt><trkpt lat="42.390745887024146" lon="2.7648621496317483"><ele>338.0</ele><time>2026-04-22T10:33:12.999Z</time></trkpt><trkpt lat="42.390831214849534" lon="2.765069289697698"><ele>338.0</ele><time>2026-04-22T10:33:13.999Z</time></trkpt><trkpt lat="42.390905212761126" lon="2.765282949978996"><ele>338.0</ele><time>2026-04-22T10:33:14.999Z</time></trkpt><trkpt lat="42.39093282137541" lon="2.765512067730296"><ele>338.6666666666667</ele><time>2026-04-22T10:33:15.999Z</time></trkpt><trkpt lat="42.390922062827315" lon="2.765735605939008"><ele>339.3333333333333</ele><time>2026-04-22T10:33:16.999Z</time></trkpt><trkpt lat="42.39086590617399" lon="2.765956063968241"><ele>340.0</ele><time>2026-04-22T10:33:17.999Z</time></trkpt><trkpt lat="42.390766067574035" lon="2.7661690545497586"><ele>340.0</ele><time>2026-04-22T10:33:18.999Z</time></trkpt><trkpt lat="42.39061275831308" lon="2.7663401701830486"><ele>340.0</ele><time>2026-04-22T10:33:19.999Z</time></trkpt><trkpt lat="42.390433057300086" lon="2.7665004736105634"><ele>340.0</ele><time>2026-04-22T10:33:20.999Z</time></trkpt><trkpt lat="42.39022682456272" lon="2.7666359545943564"><ele>340.0</ele><time>2026-04-22T10:33:21.999Z</time></trkpt><trkpt lat="42.389980451509" lon="2.766704506518644"><ele>340.0</ele><time>2026-04-22T10:33:22.999Z</time></trkpt><trkpt lat="42.389726213081865" lon="2.7667974721367616"><ele>342.66666666666663</ele><time>2026-04-22T10:33:23.999Z</time></trkpt><trkpt lat="42.389460514456374" lon="2.7668715076423416"><ele>345.3333333333333</ele><time>2026-04-22T10:33:24.999Z</time></trkpt><trkpt lat="42.38937424522823" lon="2.7669093380526855"><ele>348.0</ele><time>2026-04-22T10:33:25.999Z</time></trkpt><trkpt lat="42.38913026218882" lon="2.7670454394719193"><ele>348.0</ele><time>2026-04-22T10:33:26.999Z</time></trkpt><trkpt lat="42.38888463716474" lon="2.767188265351123"><ele>348.0</ele><time>2026-04-22T10:33:27.999Z</time></trkpt><trkpt lat="42.38863971779371" lon="2.7673214594929547"><ele>342.0</ele><time>2026-04-22T10:33:28.999Z</time></trkpt><trkpt lat="42.388393970416594" lon="2.7674438563377874"><ele>336.0</ele><time>2026-04-22T10:33:29.999Z</time></trkpt><trkpt lat="42.388160720369775" lon="2.767543075701939"><ele>339.0</ele><time>2026-04-22T10:33:30.999Z</time></trkpt><trkpt lat="42.38793741280253" lon="2.7676392827838576"><ele>342.0</ele><time>2026-04-22T10:33:31.999Z</time></trkpt><trkpt lat="42.38770982501837" lon="2.767751194867155"><ele>342.0</ele><time>2026-04-22T10:33:32.999Z</time></trkpt><trkpt lat="42.387502822960386" lon="2.7678907394258943"><ele>342.0</ele><time>2026-04-22T10:33:33.999Z</time></trkpt><trkpt lat="42.38730646711555" lon="2.7680172552942097"><ele>342.0</ele><time>2026-04-22T10:33:34.999Z</time></trkpt><trkpt lat="42.38713730365753" lon="2.7681319151273622"><ele>336.3333333333333</ele><time>2026-04-22T10:33:35.999Z</time></trkpt><trkpt lat="42.38700009684688" lon="2.7682596766461858"><ele>330.66666666666663</ele><time>2026-04-22T10:33:36.999Z</time></trkpt><trkpt lat="42.38686806360993" lon="2.7683789299824566"><ele>325.0</ele><time>2026-04-22T10:33:37.999Z</time></trkpt><trkpt lat="42.386760729694785" lon="2.7685435853017757"><ele>325.0</ele><time>2026-04-22T10:33:38.999Z</time></trkpt><trkpt lat="42.386683902288375" lon="2.7687562086934467"><ele>325.0</ele><time>2026-04-22T10:33:39.999Z</time></trkpt><trkpt lat="42.38665252521295" lon="2.7689960541113163"><ele>325.0</ele><time>2026-04-22T10:33:40.999Z</time></trkpt><trkpt lat="42.386656871004455" lon="2.7692533272515676"><ele>328.3333333333333</ele><time>2026-04-22T10:33:41.999Z</time></trkpt><trkpt lat="42.38663689245674" lon="2.7694975291359283"><ele>331.6666666666667</ele><time>2026-04-22T10:33:42.999Z</time></trkpt><trkpt lat="42.38654600413537" lon="2.769694019870021"><ele>335.0</ele><time>2026-04-22T10:33:43.999Z</time></trkpt><trkpt lat="42.38641818532788" lon="2.7698496429533757"><ele>329.0</ele><time>2026-04-22T10:33:44.999Z</time></trkpt><trkpt lat="42.386280190311695" lon="2.770006053981199"><ele>323.0</ele><time>2026-04-22T10:33:45.999Z</time></trkpt><trkpt lat="42.38618753266012" lon="2.7701962068152555"><ele>317.0</ele><time>2026-04-22T10:33:46.999Z</time></trkpt><trkpt lat="42.38609768964364" lon="2.770397151516667"><ele>317.0</ele><time>2026-04-22T10:33:47.999Z</time></trkpt><trkpt lat="42.38602024733825" lon="2.770634229734501"><ele>317.0</ele><time>2026-04-22T10:33:48.999Z</time></trkpt><trkpt lat="42.38593682517983" lon="2.770868292422338"><ele>317.0</ele><time>2026-04-22T10:33:49.999Z</time></trkpt><trkpt lat="42.38586220686026" lon="2.7711220498683278"><ele>317.6666666666667</ele><time>2026-04-22T10:33:50.999Z</time></trkpt><trkpt lat="42.385806244718715" lon="2.771406350261204"><ele>318.3333333333333</ele><time>2026-04-22T10:33:51.999Z</time></trkpt><trkpt lat="42.38576673478492" lon="2.7717069215539314"><ele>319.0</ele><time>2026-04-22T10:33:52.999Z</time></trkpt><trkpt lat="42.38573058620866" lon="2.772028068061803"><ele>319.0</ele><time>2026-04-22T10:33:53.999Z</time></trkpt><trkpt lat="42.38568380713014" lon="2.7723517040950822"><ele>319.0</ele><time>2026-04-22T10:33:54.999Z</time></trkpt><trkpt lat="42.385624066025265" lon="2.7726860418646226"><ele>322.0</ele><time>2026-04-22T10:33:55.999Z</time></trkpt><trkpt lat="42.385534516384546" lon="2.77301194163783"><ele>325.0</ele><time>2026-04-22T10:33:56.999Z</time></trkpt><trkpt lat="42.385436747613305" lon="2.7733386276698373"><ele>320.5</ele><time>2026-04-22T10:33:57.998Z</time></trkpt><trkpt lat="42.385323356878445" lon="2.7736567389128606"><ele>316.0</ele><time>2026-04-22T10:33:58.998Z</time></trkpt><trkpt lat="42.38519905455077" lon="2.773969799098461"><ele>316.0</ele><time>2026-04-22T10:33:59.998Z</time></trkpt><trkpt lat="42.38505970037393" lon="2.7742744892771505"><ele>316.0</ele><time>2026-04-22T10:34:00.998Z</time></trkpt><trkpt lat="42.38490141843627" lon="2.7745629334038373"><ele>317.0</ele><time>2026-04-22T10:34:01.998Z</time></trkpt><trkpt lat="42.384734021773156" lon="2.774886779665099"><ele>318.0</ele><time>2026-04-22T10:34:02.998Z</time></trkpt><trkpt lat="42.38455700901313" lon="2.7751534823590815"><ele>317.5</ele><time>2026-04-22T10:34:03.998Z</time></trkpt><trkpt lat="42.38438748510807" lon="2.7754111505999783"><ele>317.0</ele><time>2026-04-22T10:34:04.998Z</time></trkpt><trkpt lat="42.38422894699583" lon="2.775652999249499"><ele>317.0</ele><time>2026-04-22T10:34:05.998Z</time></trkpt><trkpt lat="42.38408730117441" lon="2.7758806579157573"><ele>317.0</ele><time>2026-04-22T10:34:06.998Z</time></trkpt><trkpt lat="42.38396193539968" lon="2.776105540276235"><ele>317.0</ele><time>2026-04-22T10:34:07.998Z</time></trkpt><trkpt lat="42.383871153605114" lon="2.7763364174844596"><ele>315.33333333333337</ele><time>2026-04-22T10:34:08.998Z</time></trkpt><trkpt lat="42.38381565810699" lon="2.776572735979092"><ele>313.6666666666667</ele><time>2026-04-22T10:34:09.998Z</time></trkpt><trkpt lat="42.38380142528331" lon="2.7768193173371256"><ele>312.0</ele><time>2026-04-22T10:34:10.998Z</time></trkpt><trkpt lat="42.38383029958627" lon="2.7770853051763416"><ele>308.3333333333333</ele><time>2026-04-22T10:34:11.998Z</time></trkpt><trkpt lat="42.38389977451593" lon="2.777340956220537"><ele>304.66666666666663</ele><time>2026-04-22T10:34:12.998Z</time></trkpt><trkpt lat="42.38400673095534" lon="2.7775577152715303"><ele>301.0</ele><time>2026-04-22T10:34:13.998Z</time></trkpt><trkpt lat="42.38414441232295" lon="2.777749834616334"><ele>297.3333333333333</ele><time>2026-04-22T10:34:14.998Z</time></trkpt><trkpt lat="42.384307496762254" lon="2.777892901698953"><ele>293.6666666666667</ele><time>2026-04-22T10:34:15.998Z</time></trkpt><trkpt lat="42.38449414778103" lon="2.7779896247164957"><ele>290.0</ele><time>2026-04-22T10:34:16.998Z</time></trkpt><trkpt lat="42.38469728531662" lon="2.77802780526297"><ele>289.33333333333337</ele><time>2026-04-22T10:34:17.998Z</time></trkpt><trkpt lat="42.38491686139474" lon="2.778010086310481"><ele>288.6666666666667</ele><time>2026-04-22T10:34:18.998Z</time></trkpt><trkpt lat="42.38511787254031" lon="2.77797112139783"><ele>288.0</ele><time>2026-04-22T10:34:19.998Z</time></trkpt><trkpt lat="42.385312957207454" lon="2.77797902801034"><ele>288.0</ele><time>2026-04-22T10:34:20.998Z</time></trkpt><trkpt lat="42.385493358313816" lon="2.778076109211942"><ele>288.0</ele><time>2026-04-22T10:34:21.998Z</time></trkpt><trkpt lat="42.38567216565786" lon="2.7781972352948237"><ele>288.0</ele><time>2026-04-22T10:34:22.998Z</time></trkpt><trkpt lat="42.385839784857296" lon="2.778361104807512"><ele>285.0</ele><time>2026-04-22T10:34:23.998Z</time></trkpt><trkpt lat="42.38596376899281" lon="2.7785619513067807"><ele>282.0</ele><time>2026-04-22T10:34:24.998Z</time></trkpt><trkpt lat="42.38609222724939" lon="2.778742990635775"><ele>279.0</ele><time>2026-04-22T10:34:25.998Z</time></trkpt><trkpt lat="42.386246853124355" lon="2.7788695621011144"><ele>278.0</ele><time>2026-04-22T10:34:26.998Z</time></trkpt><trkpt lat="42.38643802603806" lon="2.7789060099426273"><ele>277.0</ele><time>2026-04-22T10:34:27.998Z</time></trkpt><trkpt lat="42.38665599146347" lon="2.7789177164245644"><ele>276.0</ele><time>2026-04-22T10:34:28.998Z</time></trkpt><trkpt lat="42.38686793151338" lon="2.778904093361664"><ele>276.0</ele><time>2026-04-22T10:34:30Z</time></trkpt><trkpt lat="42.38706678082588" lon="2.778930130722051"><ele>276.0</ele><time>2026-04-22T10:34:31Z</time></trkpt><trkpt lat="42.387253113516614" lon="2.778988860033062"><ele>276.0</ele><time>2026-04-22T10:34:32Z</time></trkpt><trkpt lat="42.38743068724063" lon="2.779093956807393"><ele>274.3333333333333</ele><time>2026-04-22T10:34:33Z</time></trkpt><trkpt lat="42.3875871131442" lon="2.779248634836189"><ele>272.66666666666663</ele><time>2026-04-22T10:34:34Z</time></trkpt><trkpt lat="42.3876996475629" lon="2.779436587039534"><ele>271.0</ele><time>2026-04-22T10:34:35Z</time></trkpt><trkpt lat="42.3877955326869" lon="2.7796214174960823"><ele>269.75</ele><time>2026-04-22T10:34:36Z</time></trkpt><trkpt lat="42.38786472173166" lon="2.779804876939015"><ele>268.5</ele><time>2026-04-22T10:34:37Z</time></trkpt><trkpt lat="42.387939504425354" lon="2.7799550087438294"><ele>267.25</ele><time>2026-04-22T10:34:38Z</time></trkpt><trkpt lat="42.388046356851994" lon="2.780053851902587"><ele>266.0</ele><time>2026-04-22T10:34:39Z</time></trkpt><trkpt lat="42.388194625173284" lon="2.7800906626999082"><ele>266.0</ele><time>2026-04-22T10:34:40Z</time></trkpt><trkpt lat="42.388344956518864" lon="2.780145127540931"><ele>266.0</ele><time>2026-04-22T10:34:41Z</time></trkpt><trkpt lat="42.388454069599995" lon="2.7802864099623634"><ele>266.0</ele><time>2026-04-22T10:34:42Z</time></trkpt><trkpt lat="42.388545425115936" lon="2.780470941395508"><ele>264.25</ele><time>2026-04-22T10:34:43Z</time></trkpt><trkpt lat="42.38864645136394" lon="2.780609311769287"><ele>262.5</ele><time>2026-04-22T10:34:44Z</time></trkpt><trkpt lat="42.38876258966057" lon="2.7806708415712635"><ele>260.75</ele><time>2026-04-22T10:34:45Z</time></trkpt><trkpt lat="42.38888275435301" lon="2.7806572514795556"><ele>259.0</ele><time>2026-04-22T10:34:46Z</time></trkpt><trkpt lat="42.38899705550484" lon="2.7806429123692875"><ele>259.0</ele><time>2026-04-22T10:34:47Z</time></trkpt><trkpt lat="42.38908447290648" lon="2.78070489649899"><ele>259.0</ele><time>2026-04-22T10:34:48Z</time></trkpt><trkpt lat="42.3891223021486" lon="2.780849202314355"><ele>259.0</ele><time>2026-04-22T10:34:49Z</time></trkpt><trkpt lat="42.38908178729617" lon="2.781025957149514"><ele>259.0</ele><time>2026-04-22T10:34:50Z</time></trkpt><trkpt lat="42.38908651326227" lon="2.7812273185746186"><ele>260.75</ele><time>2026-04-22T10:34:51Z</time></trkpt><trkpt lat="42.389089946132636" lon="2.7813978044271734"><ele>262.5</ele><time>2026-04-22T10:34:52Z</time></trkpt><trkpt lat="42.389062833984184" lon="2.781534912301123"><ele>264.25</ele><time>2026-04-22T10:34:53Z</time></trkpt><trkpt lat="42.38893693388021" lon="2.781583230598247"><ele>266.0</ele><time>2026-04-22T10:34:54Z</time></trkpt><trkpt lat="42.38879404873587" lon="2.7816265387989185"><ele>266.0</ele><time>2026-04-22T10:34:55Z</time></trkpt><trkpt lat="42.38863973908095" lon="2.781705003002303"><ele>266.0</ele><time>2026-04-22T10:34:56Z</time></trkpt><trkpt lat="42.388504744252614" lon="2.7818227775952717"><ele>266.0</ele><time>2026-04-22T10:34:57Z</time></trkpt><trkpt lat="42.38838591463363" lon="2.7819892472589207"><ele>266.0</ele><time>2026-04-22T10:34:58Z</time></trkpt><trkpt lat="42.38826813962645" lon="2.782198433187497"><ele>266.0</ele><time>2026-04-22T10:34:59Z</time></trkpt><trkpt lat="42.388138072070866" lon="2.7824137307871526"><ele>266.0</ele><time>2026-04-22T10:35:00Z</time></trkpt><trkpt lat="42.38800419434333" lon="2.782640795724862"><ele>263.6666666666667</ele><time>2026-04-22T10:35:01Z</time></trkpt><trkpt lat="42.38786606804996" lon="2.782871019458356"><ele>261.3333333333333</ele><time>2026-04-22T10:35:02Z</time></trkpt><trkpt lat="42.38773352751878" lon="2.7830866085668218"><ele>259.0</ele><time>2026-04-22T10:35:03Z</time></trkpt><trkpt lat="42.38758289399801" lon="2.7832601018727847"><ele>259.0</ele><time>2026-04-22T10:35:04Z</time></trkpt><trkpt lat="42.387412810063836" lon="2.7834493422314024"><ele>259.0</ele><time>2026-04-22T10:35:05Z</time></trkpt><trkpt lat="42.38727715341428" lon="2.7836992517879002"><ele>259.0</ele><time>2026-04-22T10:35:06Z</time></trkpt><trkpt lat="42.38713591689837" lon="2.7839565024983157"><ele>258.0</ele><time>2026-04-22T10:35:07Z</time></trkpt><trkpt lat="42.38698744464256" lon="2.7841959731382175"><ele>257.0</ele><time>2026-04-22T10:35:08Z</time></trkpt><trkpt lat="42.38686184422216" lon="2.784426365453189"><ele>256.0</ele><time>2026-04-22T10:35:09Z</time></trkpt><trkpt lat="42.38674802067013" lon="2.78464478471374"><ele>256.0</ele><time>2026-04-22T10:35:10Z</time></trkpt><trkpt lat="42.38661759270156" lon="2.7848390476576026"><ele>256.0</ele><time>2026-04-22T10:35:11Z</time></trkpt><trkpt lat="42.386456164312825" lon="2.7849984778859302"><ele>256.0</ele><time>2026-04-22T10:35:12Z</time></trkpt><trkpt lat="42.38629285843689" lon="2.785161356278391"><ele>257.66666666666663</ele><time>2026-04-22T10:35:12.999Z</time></trkpt><trkpt lat="42.38616889360969" lon="2.7853741574888673"><ele>259.3333333333333</ele><time>2026-04-22T10:35:13.999Z</time></trkpt><trkpt lat="42.386056908466486" lon="2.7855958478782226"><ele>261.0</ele><time>2026-04-22T10:35:14.999Z</time></trkpt><trkpt lat="42.38593507454324" lon="2.7857826721524988"><ele>261.0</ele><time>2026-04-22T10:35:15.999Z</time></trkpt><trkpt lat="42.385798401556976" lon="2.7859641326040956"><ele>261.0</ele><time>2026-04-22T10:35:16.999Z</time></trkpt><trkpt lat="42.38562802528872" lon="2.78610887827817"><ele>261.0</ele><time>2026-04-22T10:35:17.999Z</time></trkpt><trkpt lat="42.38542888409527" lon="2.786205788210697"><ele>265.5</ele><time>2026-04-22T10:35:18.999Z</time></trkpt><trkpt lat="42.38520970655508" lon="2.7862838347001806"><ele>270.0</ele><time>2026-04-22T10:35:19.999Z</time></trkpt><trkpt lat="42.384993366048356" lon="2.7863698273789943"><ele>270.0</ele><time>2026-04-22T10:35:20.999Z</time></trkpt><trkpt lat="42.38477618801829" lon="2.7864235174527656"><ele>270.0</ele><time>2026-04-22T10:35:21.999Z</time></trkpt><trkpt lat="42.38457171916063" lon="2.7864901355332847"><ele>270.0</ele><time>2026-04-22T10:35:22.999Z</time></trkpt><trkpt lat="42.384370543216136" lon="2.7865814766908645"><ele>267.5</ele><time>2026-04-22T10:35:23.999Z</time></trkpt><trkpt lat="42.38416563929108" lon="2.786717459861673"><ele>265.0</ele><time>2026-04-22T10:35:24.999Z</time></trkpt><trkpt lat="42.38396820301862" lon="2.7869072859535398"><ele>261.0</ele><time>2026-04-22T10:35:25.999Z</time></trkpt><trkpt lat="42.38378955666987" lon="2.7871222624133867"><ele>257.0</ele><time>2026-04-22T10:35:26.999Z</time></trkpt><trkpt lat="42.3836251328558" lon="2.787322136853715"><ele>257.0</ele><time>2026-04-22T10:35:27.999Z</time></trkpt><trkpt lat="42.38343961404564" lon="2.7874213284836338"><ele>257.0</ele><time>2026-04-22T10:35:28.999Z</time></trkpt><trkpt lat="42.38324485415756" lon="2.787511847830373"><ele>257.0</ele><time>2026-04-22T10:35:29.999Z</time></trkpt><trkpt lat="42.38303130265261" lon="2.7875746023926182"><ele>255.0</ele><time>2026-04-22T10:35:30.999Z</time></trkpt><trkpt lat="42.38279715034171" lon="2.7875850083800797"><ele>253.0</ele><time>2026-04-22T10:35:31.999Z</time></trkpt><trkpt lat="42.382570568903" lon="2.7876036733429683"><ele>256.5</ele><time>2026-04-22T10:35:32.999Z</time></trkpt><trkpt lat="42.38235651893605" lon="2.7876778478659805"><ele>260.0</ele><time>2026-04-22T10:35:33.999Z</time></trkpt><trkpt lat="42.38213788232216" lon="2.787804102086253"><ele>260.0</ele><time>2026-04-22T10:35:34.999Z</time></trkpt><trkpt lat="42.381916964961825" lon="2.7879734517092856"><ele>260.0</ele><time>2026-04-22T10:35:35.999Z</time></trkpt><trkpt lat="42.38169309749337" lon="2.7881468649998333"><ele>260.0</ele><time>2026-04-22T10:35:36.999Z</time></trkpt><trkpt lat="42.381461811602136" lon="2.788313244825609"><ele>260.0</ele><time>2026-04-22T10:35:37.999Z</time></trkpt><trkpt lat="42.381217874809266" lon="2.7884774634802674"><ele>263.0</ele><time>2026-04-22T10:35:38.999Z</time></trkpt><trkpt lat="42.38097968837503" lon="2.7886396017272324"><ele>266.0</ele><time>2026-04-22T10:35:39.999Z</time></trkpt><trkpt lat="42.3807617826532" lon="2.7888026389695426"><ele>266.0</ele><time>2026-04-22T10:35:40.999Z</time></trkpt><trkpt lat="42.38056382278651" lon="2.788943639224095"><ele>266.0</ele><time>2026-04-22T10:35:41.999Z</time></trkpt><trkpt lat="42.38037011794363" lon="2.7890305552350365"><ele>266.0</ele><time>2026-04-22T10:35:42.999Z</time></trkpt><trkpt lat="42.380192326540914" lon="2.789096969856888"><ele>265.0</ele><time>2026-04-22T10:35:43.999Z</time></trkpt><trkpt lat="42.380023191142605" lon="2.7891780643531265"><ele>264.0</ele><time>2026-04-22T10:35:44.999Z</time></trkpt><trkpt lat="42.37986418978964" lon="2.7892474511790093"><ele>263.0</ele><time>2026-04-22T10:35:45.999Z</time></trkpt><trkpt lat="42.37971393361513" lon="2.7894003597782016"><ele>257.33333333333337</ele><time>2026-04-22T10:35:46.999Z</time></trkpt><trkpt lat="42.37956591039219" lon="2.7896056844426744"><ele>251.66666666666669</ele><time>2026-04-22T10:35:47.999Z</time></trkpt><trkpt lat="42.3794312803897" lon="2.7898151141283853"><ele>246.0</ele><time>2026-04-22T10:35:48.999Z</time></trkpt><trkpt lat="42.37929727518672" lon="2.789993552732384"><ele>246.0</ele><time>2026-04-22T10:35:49.999Z</time></trkpt><trkpt lat="42.37917625232126" lon="2.7901530102341843"><ele>246.0</ele><time>2026-04-22T10:35:50.999Z</time></trkpt><trkpt lat="42.37908742454963" lon="2.790323988428909"><ele>246.0</ele><time>2026-04-22T10:35:51.999Z</time></trkpt><trkpt lat="42.379027839651386" lon="2.7905340245670063"><ele>247.0</ele><time>2026-04-22T10:35:52.999Z</time></trkpt><trkpt lat="42.37902231201768" lon="2.7907667510749086"><ele>248.0</ele><time>2026-04-22T10:35:53.999Z</time></trkpt><trkpt lat="42.37902945894079" lon="2.791026279925783"><ele>249.0</ele><time>2026-04-22T10:35:54.999Z</time></trkpt><trkpt lat="42.379039234951904" lon="2.7913201391836746"><ele>246.0</ele><time>2026-04-22T10:35:55.999Z</time></trkpt><trkpt lat="42.37903606169275" lon="2.791620442037062"><ele>243.0</ele><time>2026-04-22T10:35:56.999Z</time></trkpt><trkpt lat="42.37902974906252" lon="2.791929636815322"><ele>233.5</ele><time>2026-04-22T10:35:57.999Z</time></trkpt><trkpt lat="42.379020142313486" lon="2.7922416689910423"><ele>224.0</ele><time>2026-04-22T10:35:58.999Z</time></trkpt><trkpt lat="42.37900178054693" lon="2.792558123094186"><ele>215.5</ele><time>2026-04-22T10:35:59.999Z</time></trkpt><trkpt lat="42.37896243924023" lon="2.792872064660388"><ele>207.0</ele><time>2026-04-22T10:36:00.999Z</time></trkpt><trkpt lat="42.378893071681624" lon="2.7931923086243136"><ele>205.0</ele><time>2026-04-22T10:36:01.999Z</time></trkpt><trkpt lat="42.378792395103595" lon="2.7935046904223375"><ele>203.0</ele><time>2026-04-22T10:36:02.999Z</time></trkpt><trkpt lat="42.37866407209332" lon="2.793800726415669"><ele>213.0</ele><time>2026-04-22T10:36:03.999Z</time></trkpt><trkpt lat="42.37851260766665" lon="2.7940644727675137"><ele>223.0</ele><time>2026-04-22T10:36:04.999Z</time></trkpt><trkpt lat="42.37834093232302" lon="2.7943090408341447"><ele>232.5</ele><time>2026-04-22T10:36:05.999Z</time></trkpt><trkpt lat="42.378151739935355" lon="2.794536458355648"><ele>242.0</ele><time>2026-04-22T10:36:06.999Z</time></trkpt><trkpt lat="42.377950824368654" lon="2.794739520546211"><ele>242.0</ele><time>2026-04-22T10:36:07.999Z</time></trkpt><trkpt lat="42.37775910427523" lon="2.7949033406755643"><ele>242.0</ele><time>2026-04-22T10:36:08.999Z</time></trkpt><trkpt lat="42.37758973910788" lon="2.7950591938637066"><ele>242.0</ele><time>2026-04-22T10:36:09.999Z</time></trkpt><trkpt lat="42.37743898505616" lon="2.795195023985952"><ele>240.0</ele><time>2026-04-22T10:36:10.999Z</time></trkpt><trkpt lat="42.3772858818727" lon="2.7953012999827394"><ele>238.0</ele><time>2026-04-22T10:36:11.999Z</time></trkpt><trkpt lat="42.37715318539911" lon="2.7953704169424696"><ele>236.0</ele><time>2026-04-22T10:36:12.998Z</time></trkpt><trkpt lat="42.377046897508976" lon="2.795473969647346"><ele>234.0</ele><time>2026-04-22T10:36:13.998Z</time></trkpt><trkpt lat="42.376980625287274" lon="2.7956225832525785"><ele>234.0</ele><time>2026-04-22T10:36:14.998Z</time></trkpt><trkpt lat="42.3769507966722" lon="2.795796130784328"><ele>234.0</ele><time>2026-04-22T10:36:15.998Z</time></trkpt><trkpt lat="42.37693357464995" lon="2.796001132657828"><ele>234.0</ele><time>2026-04-22T10:36:16.998Z</time></trkpt><trkpt lat="42.3768569444676" lon="2.7961822656006747"><ele>234.0</ele><time>2026-04-22T10:36:17.998Z</time></trkpt><trkpt lat="42.37673645406362" lon="2.7963672878706967"><ele>240.33333333333331</ele><time>2026-04-22T10:36:18.998Z</time></trkpt><trkpt lat="42.37661773563439" lon="2.796574616495911"><ele>246.66666666666666</ele><time>2026-04-22T10:36:19.998Z</time></trkpt><trkpt lat="42.376534128682884" lon="2.796821333982352"><ele>253.0</ele><time>2026-04-22T10:36:20.998Z</time></trkpt><trkpt lat="42.376461732303774" lon="2.7970703533183845"><ele>247.66666666666666</ele><time>2026-04-22T10:36:21.998Z</time></trkpt><trkpt lat="42.376360871346996" lon="2.7972853621620377"><ele>242.33333333333331</ele><time>2026-04-22T10:36:22.998Z</time></trkpt><trkpt lat="42.37623495490858" lon="2.7974572343058037"><ele>237.0</ele><time>2026-04-22T10:36:23.998Z</time></trkpt><trkpt lat="42.37611498227375" lon="2.797611556198622"><ele>243.33333333333331</ele><time>2026-04-22T10:36:24.998Z</time></trkpt><trkpt lat="42.37603553476584" lon="2.7977878144597903"><ele>249.66666666666666</ele><time>2026-04-22T10:36:25.998Z</time></trkpt><trkpt lat="42.37600204429503" lon="2.798002237920824"><ele>256.0</ele><time>2026-04-22T10:36:26.998Z</time></trkpt><trkpt lat="42.37595053179535" lon="2.7982063119606635"><ele>256.0</ele><time>2026-04-22T10:36:27.998Z</time></trkpt><trkpt lat="42.37582631689982" lon="2.798340291365506"><ele>256.0</ele><time>2026-04-22T10:36:28.998Z</time></trkpt><trkpt lat="42.3756924030867" lon="2.7985025393757157"><ele>256.0</ele><time>2026-04-22T10:36:29.998Z</time></trkpt><trkpt lat="42.375560430554856" lon="2.798623519393695"><ele>255.75</ele><time>2026-04-22T10:36:30.998Z</time></trkpt><trkpt lat="42.37541773780637" lon="2.7986847679549958"><ele>255.5</ele><time>2026-04-22T10:36:31.998Z</time></trkpt><trkpt lat="42.37527693197339" lon="2.7987119003106526"><ele>255.25</ele><time>2026-04-22T10:36:32.998Z</time></trkpt><trkpt lat="42.37514748865934" lon="2.798790009848631"><ele>255.0</ele><time>2026-04-22T10:36:33.998Z</time></trkpt><trkpt lat="42.37503769899129" lon="2.798929841415721"><ele>255.0</ele><time>2026-04-22T10:36:34.998Z</time></trkpt><trkpt lat="42.37494262073645" lon="2.7991279613665156"><ele>255.0</ele><time>2026-04-22T10:36:36Z</time></trkpt><trkpt lat="42.37484211496045" lon="2.799339783844637"><ele>255.0</ele><time>2026-04-22T10:36:37Z</time></trkpt><trkpt lat="42.374734350217004" lon="2.7995094366928988"><ele>252.66666666666669</ele><time>2026-04-22T10:36:38Z</time></trkpt><trkpt lat="42.37464714926131" lon="2.799676036099276"><ele>250.33333333333334</ele><time>2026-04-22T10:36:39Z</time></trkpt><trkpt lat="42.37460616214749" lon="2.7998805570161327"><ele>248.0</ele><time>2026-04-22T10:36:40Z</time></trkpt><trkpt lat="42.37457154513224" lon="2.8000920009002046"><ele>254.33333333333334</ele><time>2026-04-22T10:36:41Z</time></trkpt><trkpt lat="42.374496612341886" lon="2.800283702011045"><ele>260.6666666666667</ele><time>2026-04-22T10:36:42Z</time></trkpt><trkpt lat="42.374384503904906" lon="2.800414456334455"><ele>267.0</ele><time>2026-04-22T10:36:43Z</time></trkpt><trkpt lat="42.3742493879741" lon="2.8004854894189655"><ele>267.0</ele><time>2026-04-22T10:36:44Z</time></trkpt><trkpt lat="42.37409991804885" lon="2.80050295387605"><ele>267.0</ele><time>2026-04-22T10:36:45Z</time></trkpt><trkpt lat="42.373978911021354" lon="2.8005698285516933"><ele>267.0</ele><time>2026-04-22T10:36:46Z</time></trkpt><trkpt lat="42.37387870206054" lon="2.8006935132701134"><ele>267.0</ele><time>2026-04-22T10:36:47Z</time></trkpt><trkpt lat="42.373777545712564" lon="2.800794600568399"><ele>264.0</ele><time>2026-04-22T10:36:48Z</time></trkpt><trkpt lat="42.37366300251066" lon="2.8008103714070107"><ele>261.0</ele><time>2026-04-22T10:36:49Z</time></trkpt><trkpt lat="42.37355531558301" lon="2.800751611389091"><ele>258.0</ele><time>2026-04-22T10:36:50Z</time></trkpt><trkpt lat="42.373443162531665" lon="2.8007183805529174"><ele>255.0</ele><time>2026-04-22T10:36:51Z</time></trkpt><trkpt lat="42.373322418883845" lon="2.800759833278421"><ele>255.0</ele><time>2026-04-22T10:36:52Z</time></trkpt><trkpt lat="42.3732003244607" lon="2.8008639648465343"><ele>255.0</ele><time>2026-04-22T10:36:53Z</time></trkpt><trkpt lat="42.37309914261681" lon="2.800985465454023"><ele>255.0</ele><time>2026-04-22T10:36:54Z</time></trkpt><trkpt lat="42.37302284982316" lon="2.801129101199537"><ele>255.0</ele><time>2026-04-22T10:36:55Z</time></trkpt><trkpt lat="42.37296384940949" lon="2.80131500732164"><ele>254.25</ele><time>2026-04-22T10:36:56Z</time></trkpt><trkpt lat="42.37291579724096" lon="2.80148671885389"><ele>253.5</ele><time>2026-04-22T10:36:57Z</time></trkpt><trkpt lat="42.37287404427392" lon="2.8016484022199024"><ele>252.75</ele><time>2026-04-22T10:36:58Z</time></trkpt><trkpt lat="42.372829174636514" lon="2.801812522279907"><ele>252.0</ele><time>2026-04-22T10:36:59Z</time></trkpt><trkpt lat="42.37278237475772" lon="2.801967417702733"><ele>252.0</ele><time>2026-04-22T10:37:00Z</time></trkpt><trkpt lat="42.372740825034334" lon="2.802117100672571"><ele>252.0</ele><time>2026-04-22T10:37:01Z</time></trkpt><trkpt lat="42.37271180774887" lon="2.8022881174925867"><ele>252.0</ele><time>2026-04-22T10:37:02Z</time></trkpt><trkpt lat="42.372701081291304" lon="2.8024713604023743"><ele>252.0</ele><time>2026-04-22T10:37:03Z</time></trkpt><trkpt lat="42.372719227333555" lon="2.802649277120151"><ele>251.5</ele><time>2026-04-22T10:37:04Z</time></trkpt><trkpt lat="42.37276685493171" lon="2.802818003790925"><ele>251.0</ele><time>2026-04-22T10:37:05Z</time></trkpt><trkpt lat="42.37284452859333" lon="2.8029650300188123"><ele>250.5</ele><time>2026-04-22T10:37:06Z</time></trkpt><trkpt lat="42.37293896540642" lon="2.80309148716622"><ele>250.0</ele><time>2026-04-22T10:37:07Z</time></trkpt><trkpt lat="42.37305574263944" lon="2.803204813709099"><ele>252.0</ele><time>2026-04-22T10:37:08Z</time></trkpt><trkpt lat="42.37319114317725" lon="2.8033346288205707"><ele>254.0</ele><time>2026-04-22T10:37:09Z</time></trkpt><trkpt lat="42.373334626638865" lon="2.80346837563967"><ele>256.0</ele><time>2026-04-22T10:37:10Z</time></trkpt><trkpt lat="42.37344320051345" lon="2.803605370803471"><ele>257.0</ele><time>2026-04-22T10:37:11Z</time></trkpt><trkpt lat="42.373509413095746" lon="2.8038081329933857"><ele>258.0</ele><time>2026-04-22T10:37:12Z</time></trkpt><trkpt lat="42.37352537723993" lon="2.804027401409114"><ele>259.0</ele><time>2026-04-22T10:37:13Z</time></trkpt><trkpt lat="42.37347109752665" lon="2.804231177577565"><ele>261.3333333333333</ele><time>2026-04-22T10:37:14Z</time></trkpt><trkpt lat="42.37339644836981" lon="2.804437151645154"><ele>263.6666666666667</ele><time>2026-04-22T10:37:15Z</time></trkpt><trkpt lat="42.37328787996477" lon="2.804625093004581"><ele>266.0</ele><time>2026-04-22T10:37:16Z</time></trkpt><trkpt lat="42.3732070597221" lon="2.804810347565755"><ele>266.0</ele><time>2026-04-22T10:37:17Z</time></trkpt><trkpt lat="42.37316685409507" lon="2.805001250281082"><ele>266.0</ele><time>2026-04-22T10:37:18Z</time></trkpt><trkpt lat="42.37315819498483" lon="2.8051853377427656"><ele>266.0</ele><time>2026-04-22T10:37:18.999Z</time></trkpt><trkpt lat="42.373177709682146" lon="2.8053534994316993"><ele>266.0</ele><time>2026-04-22T10:37:19.999Z</time></trkpt><trkpt lat="42.37320046099306" lon="2.805529180213888"><ele>267.0</ele><time>2026-04-22T10:37:20.999Z</time></trkpt><trkpt lat="42.3732229700156" lon="2.8057081241020922"><ele>268.0</ele><time>2026-04-22T10:37:21.999Z</time></trkpt><trkpt lat="42.373241445432534" lon="2.8058956622998794"><ele>269.0</ele><time>2026-04-22T10:37:22.999Z</time></trkpt><trkpt lat="42.37323107736305" lon="2.80608527463518"><ele>270.0</ele><time>2026-04-22T10:37:23.999Z</time></trkpt><trkpt lat="42.37318835190544" lon="2.8062887441960602"><ele>269.3333333333333</ele><time>2026-04-22T10:37:24.999Z</time></trkpt><trkpt lat="42.37308968365114" lon="2.8064896855416417"><ele>268.66666666666663</ele><time>2026-04-22T10:37:25.999Z</time></trkpt><trkpt lat="42.37299133169429" lon="2.8067046362249823"><ele>268.0</ele><time>2026-04-22T10:37:26.999Z</time></trkpt><trkpt lat="42.37288784548536" lon="2.8069310136327488"><ele>270.3333333333333</ele><time>2026-04-22T10:37:27.999Z</time></trkpt><trkpt lat="42.37277960523172" lon="2.807175528407297"><ele>272.6666666666667</ele><time>2026-04-22T10:37:28.999Z</time></trkpt><trkpt lat="42.37268301312425" lon="2.8074391322912016"><ele>275.0</ele><time>2026-04-22T10:37:29.999Z</time></trkpt><trkpt lat="42.37254455421741" lon="2.807691177604322"><ele>275.0</ele><time>2026-04-22T10:37:30.999Z</time></trkpt><trkpt lat="42.37241614833641" lon="2.807948574027592"><ele>275.0</ele><time>2026-04-22T10:37:31.999Z</time></trkpt><trkpt lat="42.37230512857377" lon="2.8082042952621107"><ele>275.0</ele><time>2026-04-22T10:37:32.999Z</time></trkpt><trkpt lat="42.37219921100633" lon="2.8084480705248476"><ele>275.33333333333337</ele><time>2026-04-22T10:37:33.999Z</time></trkpt><trkpt lat="42.37209464780426" lon="2.808677253647055"><ele>275.6666666666667</ele><time>2026-04-22T10:37:34.999Z</time></trkpt><trkpt lat="42.37198809393194" lon="2.8089001968165737"><ele>276.0</ele><time>2026-04-22T10:37:35.999Z</time></trkpt><trkpt lat="42.3718867528316" lon="2.809115064829487"><ele>272.6666666666667</ele><time>2026-04-22T10:37:36.999Z</time></trkpt><trkpt lat="42.371790579552155" lon="2.8093260934146125"><ele>269.33333333333337</ele><time>2026-04-22T10:37:37.999Z</time></trkpt><trkpt lat="42.37169886131852" lon="2.8095353131721863"><ele>266.0</ele><time>2026-04-22T10:37:38.999Z</time></trkpt><trkpt lat="42.37162942748197" lon="2.8097315998708363"><ele>266.0</ele><time>2026-04-22T10:37:39.999Z</time></trkpt><trkpt lat="42.37158433952396" lon="2.809917975143952"><ele>266.0</ele><time>2026-04-22T10:37:40.999Z</time></trkpt><trkpt lat="42.37155498016306" lon="2.810083751199258"><ele>266.0</ele><time>2026-04-22T10:37:41.999Z</time></trkpt><trkpt lat="42.37152923331627" lon="2.8102199726369443"><ele>266.0</ele><time>2026-04-22T10:37:42.999Z</time></trkpt><trkpt lat="42.37150168925484" lon="2.8103379141090867"><ele>264.5</ele><time>2026-04-22T10:37:43.999Z</time></trkpt><trkpt lat="42.37145712633282" lon="2.8104359514784503"><ele>263.0</ele><time>2026-04-22T10:37:44.999Z</time></trkpt><trkpt lat="42.37140479183412" lon="2.810528910394473"><ele>261.5</ele><time>2026-04-22T10:37:45.999Z</time></trkpt><trkpt lat="42.37134841125517" lon="2.8106292757258866"><ele>260.0</ele><time>2026-04-22T10:37:46.999Z</time></trkpt><trkpt lat="42.371294480994436" lon="2.8107328717705915"><ele>258.5</ele><time>2026-04-22T10:37:47.999Z</time></trkpt><trkpt lat="42.37125838665714" lon="2.8108438015271244"><ele>257.0</ele><time>2026-04-22T10:37:48.999Z</time></trkpt><trkpt lat="42.37122908739226" lon="2.810961532103807"><ele>259.4</ele><time>2026-04-22T10:37:49.999Z</time></trkpt><trkpt lat="42.371213275990975" lon="2.81108861569232"><ele>261.79999999999995</ele><time>2026-04-22T10:37:50.999Z</time></trkpt><trkpt lat="42.37119260232305" lon="2.811198199610699"><ele>264.2</ele><time>2026-04-22T10:37:51.999Z</time></trkpt><trkpt lat="42.37115762810168" lon="2.8113130484354794"><ele>266.59999999999997</ele><time>2026-04-22T10:37:52.999Z</time></trkpt><trkpt lat="42.371116478364605" lon="2.81144216044843"><ele>269.0</ele><time>2026-04-22T10:37:53.999Z</time></trkpt><trkpt lat="42.37106892910831" lon="2.8116146634836716"><ele>265.33333333333337</ele><time>2026-04-22T10:37:54.999Z</time></trkpt><trkpt lat="42.37104848259907" lon="2.8118474157472586"><ele>261.6666666666667</ele><time>2026-04-22T10:37:55.999Z</time></trkpt><trkpt lat="42.37104093378022" lon="2.8120979765803717"><ele>258.0</ele><time>2026-04-22T10:37:56.999Z</time></trkpt><trkpt lat="42.37103364409484" lon="2.8123668704268034"><ele>258.0</ele><time>2026-04-22T10:37:57.999Z</time></trkpt><trkpt lat="42.37104211790477" lon="2.812634755936684"><ele>258.0</ele><time>2026-04-22T10:37:58.999Z</time></trkpt><trkpt lat="42.37101732928419" lon="2.812931720410526"><ele>258.0</ele><time>2026-04-22T10:37:59.999Z</time></trkpt><trkpt lat="42.371008282920485" lon="2.8132085798051896"><ele>254.33333333333331</ele><time>2026-04-22T10:38:00.999Z</time></trkpt><trkpt lat="42.37099848525699" lon="2.8135352095253916"><ele>250.66666666666666</ele><time>2026-04-22T10:38:01.999Z</time></trkpt><trkpt lat="42.37099102200668" lon="2.8138003532365605"><ele>247.0</ele><time>2026-04-22T10:38:02.999Z</time></trkpt><trkpt lat="42.370987258525865" lon="2.8142422042033157"><ele>248.0</ele><time>2026-04-22T10:38:03.999Z</time></trkpt><trkpt lat="42.37095989009212" lon="2.8145462077624757"><ele>249.0</ele><time>2026-04-22T10:38:04.999Z</time></trkpt><trkpt lat="42.370929406196176" lon="2.814855892747048"><ele>245.0</ele><time>2026-04-22T10:38:05.999Z</time></trkpt><trkpt lat="42.370875823997935" lon="2.8151771348606403"><ele>241.0</ele><time>2026-04-22T10:38:06.999Z</time></trkpt><trkpt lat="42.370809054055215" lon="2.815474534108028"><ele>241.0</ele><time>2026-04-22T10:38:07.999Z</time></trkpt><trkpt lat="42.370751445348155" lon="2.815748762589987"><ele>241.0</ele><time>2026-04-22T10:38:08.999Z</time></trkpt><trkpt lat="42.37071613709935" lon="2.8160193308358603"><ele>241.0</ele><time>2026-04-22T10:38:09.999Z</time></trkpt><trkpt lat="42.3706921232185" lon="2.816278659008773"><ele>241.66666666666666</ele><time>2026-04-22T10:38:10.999Z</time></trkpt><trkpt lat="42.370696380293055" lon="2.816540047436918"><ele>242.33333333333331</ele><time>2026-04-22T10:38:11.999Z</time></trkpt><trkpt lat="42.37074350527742" lon="2.816771809458036"><ele>243.0</ele><time>2026-04-22T10:38:12.999Z</time></trkpt><trkpt lat="42.37082275404914" lon="2.816942581006849"><ele>243.0</ele><time>2026-04-22T10:38:13.999Z</time></trkpt><trkpt lat="42.370912107096295" lon="2.8170641132628766"><ele>243.0</ele><time>2026-04-22T10:38:14.999Z</time></trkpt><trkpt lat="42.37101625504808" lon="2.817179876410404"><ele>243.0</ele><time>2026-04-22T10:38:15.999Z</time></trkpt><trkpt lat="42.3711056132089" lon="2.8172987093729316"><ele>243.0</ele><time>2026-04-22T10:38:16.999Z</time></trkpt><trkpt lat="42.37119468560621" lon="2.8174337468607655"><ele>243.0</ele><time>2026-04-22T10:38:17.999Z</time></trkpt><trkpt lat="42.37128932752091" lon="2.8175947142941875"><ele>243.0</ele><time>2026-04-22T10:38:18.998Z</time></trkpt><trkpt lat="42.37138531290934" lon="2.8177446772055683"><ele>243.0</ele><time>2026-04-22T10:38:19.998Z</time></trkpt><trkpt lat="42.37144334033838" lon="2.81790618584638"><ele>243.0</ele><time>2026-04-22T10:38:20.998Z</time></trkpt><trkpt lat="42.371473438140704" lon="2.818067515419936"><ele>242.5</ele><time>2026-04-22T10:38:21.998Z</time></trkpt><trkpt lat="42.37146604602627" lon="2.81819994286686"><ele>242.0</ele><time>2026-04-22T10:38:22.998Z</time></trkpt><trkpt lat="42.37140163530755" lon="2.8183090075525508"><ele>241.5</ele><time>2026-04-22T10:38:23.998Z</time></trkpt><trkpt lat="42.37129665723224" lon="2.818415504169203"><ele>241.0</ele><time>2026-04-22T10:38:24.998Z</time></trkpt><trkpt lat="42.371135746429026" lon="2.8186106578581587"><ele>237.66666666666666</ele><time>2026-04-22T10:38:25.998Z</time></trkpt><trkpt lat="42.37100470616945" lon="2.8187973923374443"><ele>234.33333333333331</ele><time>2026-04-22T10:38:26.998Z</time></trkpt><trkpt lat="42.37092114390265" lon="2.819036737596112"><ele>231.0</ele><time>2026-04-22T10:38:27.998Z</time></trkpt><trkpt lat="42.370857352983734" lon="2.819257621611805"><ele>229.0</ele><time>2026-04-22T10:38:28.998Z</time></trkpt><trkpt lat="42.37076705553092" lon="2.819408766178714"><ele>227.0</ele><time>2026-04-22T10:38:29.998Z</time></trkpt><trkpt lat="42.370668089611144" lon="2.8195023137847"><ele>225.0</ele><time>2026-04-22T10:38:30.998Z</time></trkpt><trkpt lat="42.37053444335624" lon="2.819524037130048"><ele>223.0</ele><time>2026-04-22T10:38:31.998Z</time></trkpt><trkpt lat="42.37036524442319" lon="2.81955598896267"><ele>223.0</ele><time>2026-04-22T10:38:32.998Z</time></trkpt><trkpt lat="42.37019452282566" lon="2.819609083780499"><ele>223.0</ele><time>2026-04-22T10:38:33.998Z</time></trkpt><trkpt lat="42.37003840842814" lon="2.8196296037242403"><ele>223.0</ele><time>2026-04-22T10:38:34.998Z</time></trkpt><trkpt lat="42.369911832303735" lon="2.819753174814013"><ele>223.0</ele><time>2026-04-22T10:38:35.998Z</time></trkpt><trkpt lat="42.369797797821036" lon="2.819927647675512"><ele>223.0</ele><time>2026-04-22T10:38:36.998Z</time></trkpt><trkpt lat="42.36969050875735" lon="2.8201358941231724"><ele>223.0</ele><time>2026-04-22T10:38:37.998Z</time></trkpt><trkpt lat="42.369549615793865" lon="2.820282555115507"><ele>222.66666666666666</ele><time>2026-04-22T10:38:38.998Z</time></trkpt><trkpt lat="42.36940534894069" lon="2.820389489177559"><ele>222.33333333333331</ele><time>2026-04-22T10:38:39.998Z</time></trkpt><trkpt lat="42.36927131763127" lon="2.820549469839732"><ele>222.0</ele><time>2026-04-22T10:38:40.998Z</time></trkpt><trkpt lat="42.36914362080892" lon="2.8207483325782334"><ele>222.0</ele><time>2026-04-22T10:38:42Z</time></trkpt><trkpt lat="42.36902941687443" lon="2.8209894234712927"><ele>222.0</ele><time>2026-04-22T10:38:43Z</time></trkpt><trkpt lat="42.36893062032763" lon="2.82121265582844"><ele>222.0</ele><time>2026-04-22T10:38:44Z</time></trkpt><trkpt lat="42.36884270719244" lon="2.8214104514434655"><ele>222.0</ele><time>2026-04-22T10:38:45Z</time></trkpt><trkpt lat="42.36876970582263" lon="2.8215876641598157"><ele>222.0</ele><time>2026-04-22T10:38:46Z</time></trkpt><trkpt lat="42.36873717261652" lon="2.821769790864166"><ele>222.0</ele><time>2026-04-22T10:38:47Z</time></trkpt><trkpt lat="42.368751386739625" lon="2.8219794839998444"><ele>222.0</ele><time>2026-04-22T10:38:48Z</time></trkpt><trkpt lat="42.368818347086865" lon="2.822194937403311"><ele>219.66666666666669</ele><time>2026-04-22T10:38:49Z</time></trkpt><trkpt lat="42.36888981712059" lon="2.822399233268942"><ele>217.33333333333334</ele><time>2026-04-22T10:38:50Z</time></trkpt><trkpt lat="42.36890902787468" lon="2.8226181562220662"><ele>215.0</ele><time>2026-04-22T10:38:51Z</time></trkpt><trkpt lat="42.36888216688282" lon="2.8228189352915205"><ele>214.0</ele><time>2026-04-22T10:38:52Z</time></trkpt><trkpt lat="42.36881677200075" lon="2.823002921155433"><ele>213.0</ele><time>2026-04-22T10:38:53Z</time></trkpt><trkpt lat="42.368723345365254" lon="2.823156581606789"><ele>212.0</ele><time>2026-04-22T10:38:54Z</time></trkpt><trkpt lat="42.36859933957989" lon="2.8232140806291794"><ele>211.0</ele><time>2026-04-22T10:38:55Z</time></trkpt><trkpt lat="42.368462372880515" lon="2.8232169936347877"><ele>211.0</ele><time>2026-04-22T10:38:56Z</time></trkpt><trkpt lat="42.36832153420657" lon="2.8232708788174645"><ele>211.0</ele><time>2026-04-22T10:38:57Z</time></trkpt><trkpt lat="42.368174594180395" lon="2.8233582081541693"><ele>211.0</ele><time>2026-04-22T10:38:58Z</time></trkpt><trkpt lat="42.36805250318732" lon="2.8235349742701543"><ele>212.33333333333331</ele><time>2026-04-22T10:38:59Z</time></trkpt><trkpt lat="42.36796819672698" lon="2.8237695048037272"><ele>213.66666666666669</ele><time>2026-04-22T10:39:00Z</time></trkpt><trkpt lat="42.36793274124548" lon="2.824035804486534"><ele>215.0</ele><time>2026-04-22T10:39:01Z</time></trkpt><trkpt lat="42.367920679907016" lon="2.8243209739409694"><ele>212.0</ele><time>2026-04-22T10:39:02Z</time></trkpt><trkpt lat="42.367857453608146" lon="2.824580437175686"><ele>209.0</ele><time>2026-04-22T10:39:03Z</time></trkpt><trkpt lat="42.367792182833824" lon="2.824838124849883"><ele>206.0</ele><time>2026-04-22T10:39:04Z</time></trkpt><trkpt lat="42.36769746928019" lon="2.825087656289743"><ele>202.33333333333334</ele><time>2026-04-22T10:39:05Z</time></trkpt><trkpt lat="42.36757896731572" lon="2.8253086206708162"><ele>198.66666666666669</ele><time>2026-04-22T10:39:06Z</time></trkpt><trkpt lat="42.367425106869256" lon="2.8255061241205692"><ele>195.0</ele><time>2026-04-22T10:39:07Z</time></trkpt><trkpt lat="42.36724293416412" lon="2.8256850026071545"><ele>195.0</ele><time>2026-04-22T10:39:08Z</time></trkpt><trkpt lat="42.36703520627305" lon="2.825837830448266"><ele>195.0</ele><time>2026-04-22T10:39:09Z</time></trkpt><trkpt lat="42.3668290115155" lon="2.825999835861534"><ele>195.0</ele><time>2026-04-22T10:39:10Z</time></trkpt><trkpt lat="42.36662138731426" lon="2.82614621424379"><ele>195.0</ele><time>2026-04-22T10:39:11Z</time></trkpt><trkpt lat="42.36643896675018" lon="2.8263296378951144"><ele>195.66666666666669</ele><time>2026-04-22T10:39:12Z</time></trkpt><trkpt lat="42.3662821606541" lon="2.82653475627345"><ele>196.33333333333334</ele><time>2026-04-22T10:39:13Z</time></trkpt><trkpt lat="42.366150593135096" lon="2.8267464287888853"><ele>197.0</ele><time>2026-04-22T10:39:14Z</time></trkpt><trkpt lat="42.366032869196644" lon="2.826958910645594"><ele>197.0</ele><time>2026-04-22T10:39:15Z</time></trkpt><trkpt lat="42.36593020599907" lon="2.8271634360682247"><ele>197.0</ele><time>2026-04-22T10:39:16Z</time></trkpt><trkpt lat="42.3658518106204" lon="2.827376275279552"><ele>197.0</ele><time>2026-04-22T10:39:17Z</time></trkpt><trkpt lat="42.36581896912708" lon="2.827611927467571"><ele>199.0</ele><time>2026-04-22T10:39:18Z</time></trkpt><trkpt lat="42.36582980791578" lon="2.827851849587194"><ele>201.0</ele><time>2026-04-22T10:39:19Z</time></trkpt><trkpt lat="42.3658855468767" lon="2.828089244833775"><ele>203.0</ele><time>2026-04-22T10:39:20Z</time></trkpt><trkpt lat="42.36598424495536" lon="2.828313402572447"><ele>204.66666666666669</ele><time>2026-04-22T10:39:21Z</time></trkpt><trkpt lat="42.3661256245004" lon="2.8284987007395177"><ele>206.33333333333331</ele><time>2026-04-22T10:39:22Z</time></trkpt><trkpt lat="42.36627244200647" lon="2.8286558412677594"><ele>208.0</ele><time>2026-04-22T10:39:23Z</time></trkpt><trkpt lat="42.36638829621202" lon="2.828791966912072"><ele>207.5</ele><time>2026-04-22T10:39:24Z</time></trkpt><trkpt lat="42.36645499691148" lon="2.8289290631194492"><ele>207.0</ele><time>2026-04-22T10:39:24.999Z</time></trkpt><trkpt lat="42.36644363373627" lon="2.829084615197227"><ele>206.5</ele><time>2026-04-22T10:39:25.999Z</time></trkpt><trkpt lat="42.36639613314773" lon="2.829223713619637"><ele>206.0</ele><time>2026-04-22T10:39:26.999Z</time></trkpt><trkpt lat="42.366323385002524" lon="2.829372787150532"><ele>206.0</ele><time>2026-04-22T10:39:27.999Z</time></trkpt><trkpt lat="42.36624307670091" lon="2.8295597126729386"><ele>206.0</ele><time>2026-04-22T10:39:28.999Z</time></trkpt><trkpt lat="42.36617495092552" lon="2.8297485217829563"><ele>206.0</ele><time>2026-04-22T10:39:29.999Z</time></trkpt><trkpt lat="42.366124535372066" lon="2.829915249205559"><ele>206.0</ele><time>2026-04-22T10:39:30.999Z</time></trkpt><trkpt lat="42.366110696822815" lon="2.8301054133455206"><ele>204.33333333333334</ele><time>2026-04-22T10:39:31.999Z</time></trkpt><trkpt lat="42.36612692929008" lon="2.8303265580227137"><ele>202.66666666666669</ele><time>2026-04-22T10:39:32.999Z</time></trkpt><trkpt lat="42.36616517506956" lon="2.830564035437351"><ele>201.0</ele><time>2026-04-22T10:39:33.999Z</time></trkpt><trkpt lat="42.366205327652224" lon="2.8308079453682296"><ele>200.66666666666669</ele><time>2026-04-22T10:39:34.999Z</time></trkpt><trkpt lat="42.366243352952445" lon="2.83103192856321"><ele>200.33333333333334</ele><time>2026-04-22T10:39:35.999Z</time></trkpt><trkpt lat="42.36628231726226" lon="2.8312577844850666"><ele>200.0</ele><time>2026-04-22T10:39:36.999Z</time></trkpt><trkpt lat="42.36632619091518" lon="2.8314878439593305"><ele>200.0</ele><time>2026-04-22T10:39:37.999Z</time></trkpt><trkpt lat="42.36635269642686" lon="2.831706980416511"><ele>200.0</ele><time>2026-04-22T10:39:38.999Z</time></trkpt><trkpt lat="42.36634350993168" lon="2.8319284454117026"><ele>200.0</ele><time>2026-04-22T10:39:39.999Z</time></trkpt><trkpt lat="42.3662985864923" lon="2.8321658485330152"><ele>200.0</ele><time>2026-04-22T10:39:40.999Z</time></trkpt><trkpt lat="42.36624763559445" lon="2.8324046230042246"><ele>200.0</ele><time>2026-04-22T10:39:41.999Z</time></trkpt><trkpt lat="42.366204665749066" lon="2.8326257566843545"><ele>200.0</ele><time>2026-04-22T10:39:42.999Z</time></trkpt><trkpt lat="42.36615103303517" lon="2.83282481990109"><ele>199.75</ele><time>2026-04-22T10:39:43.999Z</time></trkpt><trkpt lat="42.36611335570346" lon="2.83302504988796"><ele>199.5</ele><time>2026-04-22T10:39:44.999Z</time></trkpt><trkpt lat="42.36608902264305" lon="2.8332193304776516"><ele>199.25</ele><time>2026-04-22T10:39:45.999Z</time></trkpt><trkpt lat="42.36603520581477" lon="2.8333974833746876"><ele>199.0</ele><time>2026-04-22T10:39:46.999Z</time></trkpt><trkpt lat="42.36599921556101" lon="2.833562940390591"><ele>199.0</ele><time>2026-04-22T10:39:47.999Z</time></trkpt><trkpt lat="42.365964795709715" lon="2.833737262945062"><ele>199.0</ele><time>2026-04-22T10:39:48.999Z</time></trkpt><trkpt lat="42.365937875898695" lon="2.8338927715364415"><ele>199.0</ele><time>2026-04-22T10:39:49.999Z</time></trkpt><trkpt lat="42.3659375961553" lon="2.834031234645033"><ele>199.0</ele><time>2026-04-22T10:39:50.999Z</time></trkpt><trkpt lat="42.365932765554376" lon="2.8341317757238045"><ele>199.0</ele><time>2026-04-22T10:39:51.999Z</time></trkpt><trkpt lat="42.365954499712345" lon="2.8342660262492436"><ele>198.2</ele><time>2026-04-22T10:39:53.999Z</time></trkpt><trkpt lat="42.36597919597083" lon="2.8343947960387585"><ele>197.39999999999998</ele><time>2026-04-22T10:39:55.999Z</time></trkpt><trkpt lat="42.36600029644421" lon="2.834547241385569"><ele>196.6</ele><time>2026-04-22T10:39:57.999Z</time></trkpt><trkpt lat="42.36601381924236" lon="2.834653618902351"><ele>195.8</ele><time>2026-04-22T10:39:58.999Z</time></trkpt><trkpt lat="42.36602899624409" lon="2.834770540460843"><ele>195.0</ele><time>2026-04-22T10:39:59.999Z</time></trkpt><trkpt lat="42.36606109421246" lon="2.8348921169411025"><ele>195.0</ele><time>2026-04-22T10:40:00.999Z</time></trkpt><trkpt lat="42.36608387812194" lon="2.835035052253456"><ele>195.0</ele><time>2026-04-22T10:40:01.999Z</time></trkpt><trkpt lat="42.36610873230077" lon="2.8351797682327713"><ele>195.0</ele><time>2026-04-22T10:40:02.999Z</time></trkpt><trkpt lat="42.36613312486432" lon="2.835327462503849"><ele>195.0</ele><time>2026-04-22T10:40:03.999Z</time></trkpt><trkpt lat="42.36615639428173" lon="2.83546642644536"><ele>195.0</ele><time>2026-04-22T10:40:04.999Z</time></trkpt><trkpt lat="42.36617865858178" lon="2.835600043957931"><ele>194.2</ele><time>2026-04-22T10:40:05.999Z</time></trkpt><trkpt lat="42.366202718536925" lon="2.8357316384210614"><ele>193.4</ele><time>2026-04-22T10:40:06.999Z</time></trkpt><trkpt lat="42.366219831029824" lon="2.835857367868146"><ele>192.60000000000002</ele><time>2026-04-22T10:40:07.999Z</time></trkpt><trkpt lat="42.366232113918606" lon="2.8359783066081237"><ele>191.8</ele><time>2026-04-22T10:40:08.999Z</time></trkpt><trkpt lat="42.366202043494425" lon="2.8360850077132014"><ele>191.0</ele><time>2026-04-22T10:40:09.999Z</time></trkpt><trkpt lat="42.366159799931445" lon="2.83619880490717"><ele>190.0</ele><time>2026-04-22T10:40:10.999Z</time></trkpt><trkpt lat="42.366100201857805" lon="2.8363523236509787"><ele>189.0</ele><time>2026-04-22T10:40:11.999Z</time></trkpt><trkpt lat="42.36603622290462" lon="2.836508745633895"><ele>188.0</ele><time>2026-04-22T10:40:12.999Z</time></trkpt><trkpt lat="42.36595349214984" lon="2.83670987411406"><ele>187.0</ele><time>2026-04-22T10:40:13.999Z</time></trkpt><trkpt lat="42.365861411170194" lon="2.8369337346688006"><ele>186.33333333333334</ele><time>2026-04-22T10:40:14.999Z</time></trkpt><trkpt lat="42.36575630280542" lon="2.8371889932999563"><ele>185.66666666666666</ele><time>2026-04-22T10:40:15.999Z</time></trkpt><trkpt lat="42.36565538652411" lon="2.837444300570607"><ele>185.0</ele><time>2026-04-22T10:40:16.999Z</time></trkpt><trkpt lat="42.36554158840368" lon="2.83771671973311"><ele>185.0</ele><time>2026-04-22T10:40:17.999Z</time></trkpt><trkpt lat="42.365446183696164" lon="2.8379886773877003"><ele>185.0</ele><time>2026-04-22T10:40:18.999Z</time></trkpt><trkpt lat="42.36534570805233" lon="2.838243708543452"><ele>185.0</ele><time>2026-04-22T10:40:19.999Z</time></trkpt><trkpt lat="42.3652490524617" lon="2.838480918650719"><ele>184.33333333333331</ele><time>2026-04-22T10:40:20.999Z</time></trkpt><trkpt lat="42.36515617664179" lon="2.838707482195272"><ele>183.66666666666666</ele><time>2026-04-22T10:40:21.999Z</time></trkpt><trkpt lat="42.365075736803036" lon="2.8389208000977693"><ele>183.0</ele><time>2026-04-22T10:40:22.999Z</time></trkpt><trkpt lat="42.36502612419515" lon="2.8391291941489154"><ele>181.0</ele><time>2026-04-22T10:40:23.999Z</time></trkpt><trkpt lat="42.36501365775331" lon="2.8393466512489054"><ele>179.0</ele><time>2026-04-22T10:40:24.999Z</time></trkpt><trkpt lat="42.365032693032454" lon="2.8395601429054804"><ele>177.0</ele><time>2026-04-22T10:40:25.998Z</time></trkpt><trkpt lat="42.36503937679636" lon="2.8397507430018734"><ele>177.0</ele><time>2026-04-22T10:40:26.998Z</time></trkpt><trkpt lat="42.364965686091665" lon="2.83989326538519"><ele>177.0</ele><time>2026-04-22T10:40:27.998Z</time></trkpt><trkpt lat="42.3648652178724" lon="2.8400076754628465"><ele>177.0</ele><time>2026-04-22T10:40:28.998Z</time></trkpt><trkpt lat="42.36479124749227" lon="2.840169938999197"><ele>177.0</ele><time>2026-04-22T10:40:29.998Z</time></trkpt><trkpt lat="42.36479164125019" lon="2.8403566909330618"><ele>175.0</ele><time>2026-04-22T10:40:30.998Z</time></trkpt><trkpt lat="42.36483014386142" lon="2.840529927461567"><ele>173.0</ele><time>2026-04-22T10:40:31.998Z</time></trkpt><trkpt lat="42.364841887489796" lon="2.840688457708986"><ele>171.0</ele><time>2026-04-22T10:40:32.998Z</time></trkpt><trkpt lat="42.36480608156627" lon="2.8408492732313286"><ele>169.0</ele><time>2026-04-22T10:40:33.998Z</time></trkpt><trkpt lat="42.364717321116174" lon="2.8409552164147067"><ele>167.0</ele><time>2026-04-22T10:40:34.998Z</time></trkpt><trkpt lat="42.36460242512884" lon="2.8410127921506483"><ele>165.0</ele><time>2026-04-22T10:40:35.998Z</time></trkpt><trkpt lat="42.36446954939259" lon="2.841013869435355"><ele>163.0</ele><time>2026-04-22T10:40:36.998Z</time></trkpt><trkpt lat="42.36430273170057" lon="2.84103437275568"><ele>161.0</ele><time>2026-04-22T10:40:37.998Z</time></trkpt><trkpt lat="42.364119038156744" lon="2.8410413070480605"><ele>161.0</ele><time>2026-04-22T10:40:38.998Z</time></trkpt><trkpt lat="42.363925316147466" lon="2.841063954207072"><ele>161.0</ele><time>2026-04-22T10:40:39.998Z</time></trkpt><trkpt lat="42.36374856636957" lon="2.841074662414391"><ele>161.0</ele><time>2026-04-22T10:40:40.998Z</time></trkpt><trkpt lat="42.36357770957089" lon="2.8410763426337016"><ele>160.66666666666666</ele><time>2026-04-22T10:40:41.998Z</time></trkpt><trkpt lat="42.36342447291559" lon="2.841098522924303"><ele>160.33333333333334</ele><time>2026-04-22T10:40:42.998Z</time></trkpt><trkpt lat="42.36328145052843" lon="2.8411349622712225"><ele>160.0</ele><time>2026-04-22T10:40:43.998Z</time></trkpt><trkpt lat="42.363164228200276" lon="2.8413001105381146"><ele>160.0</ele><time>2026-04-22T10:40:44.998Z</time></trkpt><trkpt lat="42.3630543630112" lon="2.84146897667563"><ele>160.0</ele><time>2026-04-22T10:40:45.998Z</time></trkpt><trkpt lat="42.362977920058874" lon="2.8416158900301345"><ele>160.0</ele><time>2026-04-22T10:40:46.998Z</time></trkpt><trkpt lat="42.36293572804728" lon="2.8417896550976187"><ele>160.0</ele><time>2026-04-22T10:40:48Z</time></trkpt><trkpt lat="42.36293429381741" lon="2.841966039086745"><ele>160.0</ele><time>2026-04-22T10:40:49Z</time></trkpt><trkpt lat="42.362969850422566" lon="2.842131681623722"><ele>160.0</ele><time>2026-04-22T10:40:50Z</time></trkpt><trkpt lat="42.36304670834326" lon="2.8422895520562057"><ele>160.0</ele><time>2026-04-22T10:40:51Z</time></trkpt><trkpt lat="42.363150199571436" lon="2.8424110765823984"><ele>160.0</ele><time>2026-04-22T10:40:52Z</time></trkpt><trkpt lat="42.36323824040376" lon="2.8425536607450765"><ele>156.66666666666669</ele><time>2026-04-22T10:40:53Z</time></trkpt><trkpt lat="42.36327874504408" lon="2.8427310807119714"><ele>153.33333333333334</ele><time>2026-04-22T10:40:54Z</time></trkpt><trkpt lat="42.3632870676171" lon="2.8429575857902867"><ele>150.0</ele><time>2026-04-22T10:40:55Z</time></trkpt><trkpt lat="42.36328824673614" lon="2.8432047603949093"><ele>148.33333333333334</ele><time>2026-04-22T10:40:56Z</time></trkpt><trkpt lat="42.363286134292025" lon="2.8434705522486126"><ele>146.66666666666669</ele><time>2026-04-22T10:40:57Z</time></trkpt><trkpt lat="42.36328530608839" lon="2.843725352157378"><ele>145.0</ele><time>2026-04-22T10:40:58Z</time></trkpt><trkpt lat="42.36327117511119" lon="2.8439717211654476"><ele>145.0</ele><time>2026-04-22T10:40:59Z</time></trkpt><trkpt lat="42.363229068526955" lon="2.844201424066172"><ele>145.0</ele><time>2026-04-22T10:41:00Z</time></trkpt><trkpt lat="42.36313100486008" lon="2.8444191361162092"><ele>145.0</ele><time>2026-04-22T10:41:01Z</time></trkpt><trkpt lat="42.36301466173101" lon="2.8446432938880295"><ele>145.0</ele><time>2026-04-22T10:41:02Z</time></trkpt><trkpt lat="42.362890345027" lon="2.8448849755833865"><ele>145.0</ele><time>2026-04-22T10:41:03Z</time></trkpt><trkpt lat="42.36277844288516" lon="2.8451390677631463"><ele>145.0</ele><time>2026-04-22T10:41:04Z</time></trkpt><trkpt lat="42.36265076955495" lon="2.845387107318049"><ele>143.0</ele><time>2026-04-22T10:41:05Z</time></trkpt><trkpt lat="42.36251663749733" lon="2.8456407091774234"><ele>141.0</ele><time>2026-04-22T10:41:06Z</time></trkpt><trkpt lat="42.3623938734695" lon="2.8458693250523908"><ele>139.0</ele><time>2026-04-22T10:41:07Z</time></trkpt><trkpt lat="42.36228923725462" lon="2.846081803874227"><ele>138.33333333333334</ele><time>2026-04-22T10:41:08Z</time></trkpt><trkpt lat="42.36221065025258" lon="2.8462967434342"><ele>137.66666666666666</ele><time>2026-04-22T10:41:09Z</time></trkpt><trkpt lat="42.36217792016703" lon="2.846531313387179"><ele>137.0</ele><time>2026-04-22T10:41:10Z</time></trkpt><trkpt lat="42.362177581375356" lon="2.846785833883848"><ele>137.0</ele><time>2026-04-22T10:41:11Z</time></trkpt><trkpt lat="42.3622054941145" lon="2.8470569738051323"><ele>137.0</ele><time>2026-04-22T10:41:12Z</time></trkpt><trkpt lat="42.36225132402303" lon="2.8473407505351744"><ele>137.0</ele><time>2026-04-22T10:41:13Z</time></trkpt><trkpt lat="42.36229836065638" lon="2.8476444214766534"><ele>137.0</ele><time>2026-04-22T10:41:14Z</time></trkpt><trkpt lat="42.3623501824809" lon="2.847954731434472"><ele>137.0</ele><time>2026-04-22T10:41:15Z</time></trkpt><trkpt lat="42.36240719292429" lon="2.8482689935289507"><ele>135.66666666666666</ele><time>2026-04-22T10:41:16Z</time></trkpt><trkpt lat="42.36245331348998" lon="2.8485661497257793"><ele>134.33333333333334</ele><time>2026-04-22T10:41:17Z</time></trkpt><trkpt lat="42.362497788404305" lon="2.8488418566599365"><ele>133.0</ele><time>2026-04-22T10:41:18Z</time></trkpt><trkpt lat="42.36253066354187" lon="2.8491254821040664"><ele>131.66666666666669</ele><time>2026-04-22T10:41:19Z</time></trkpt><trkpt lat="42.36257423349049" lon="2.849399711793837"><ele>130.33333333333334</ele><time>2026-04-22T10:41:20Z</time></trkpt><trkpt lat="42.36261299460837" lon="2.849662311946279"><ele>129.0</ele><time>2026-04-22T10:41:21Z</time></trkpt><trkpt lat="42.36263616850101" lon="2.849929398733175"><ele>128.0</ele><time>2026-04-22T10:41:22Z</time></trkpt><trkpt lat="42.36259037284676" lon="2.850174954719134"><ele>127.0</ele><time>2026-04-22T10:41:23Z</time></trkpt><trkpt lat="42.3625523762696" lon="2.850417811162823"><ele>126.0</ele><time>2026-04-22T10:41:24Z</time></trkpt><trkpt lat="42.36254014572136" lon="2.8506757529183018"><ele>126.0</ele><time>2026-04-22T10:41:25Z</time></trkpt><trkpt lat="42.362582876389546" lon="2.8509464701089637"><ele>126.0</ele><time>2026-04-22T10:41:26Z</time></trkpt><trkpt lat="42.362625794298054" lon="2.85122681179787"><ele>126.0</ele><time>2026-04-22T10:41:27Z</time></trkpt><trkpt lat="42.36266874591889" lon="2.851511212088293"><ele>126.0</ele><time>2026-04-22T10:41:28Z</time></trkpt><trkpt lat="42.36270875204136" lon="2.851804269885121"><ele>126.0</ele><time>2026-04-22T10:41:29Z</time></trkpt><trkpt lat="42.36274769042234" lon="2.852099197727051"><ele>126.0</ele><time>2026-04-22T10:41:29.999Z</time></trkpt><trkpt lat="42.362783994921266" lon="2.852378459876276"><ele>126.0</ele><time>2026-04-22T10:41:30.999Z</time></trkpt><trkpt lat="42.36281958416793" lon="2.8526439896909603"><ele>126.0</ele><time>2026-04-22T10:41:31.999Z</time></trkpt><trkpt lat="42.362858262285926" lon="2.852902937948319"><ele>126.0</ele><time>2026-04-22T10:41:32.999Z</time></trkpt><trkpt lat="42.362903023666874" lon="2.8531357013801917"><ele>126.0</ele><time>2026-04-22T10:41:33.999Z</time></trkpt><trkpt lat="42.36297885214108" lon="2.8533446543982506"><ele>126.0</ele><time>2026-04-22T10:41:34.999Z</time></trkpt><trkpt lat="42.363068319058605" lon="2.8535280860573065"><ele>126.0</ele><time>2026-04-22T10:41:35.999Z</time></trkpt><trkpt lat="42.36318922992484" lon="2.853693031051419"><ele>128.33333333333334</ele><time>2026-04-22T10:41:36.999Z</time></trkpt><trkpt lat="42.363342083200806" lon="2.8538492838853533"><ele>130.66666666666669</ele><time>2026-04-22T10:41:37.999Z</time></trkpt><trkpt lat="42.36350446711369" lon="2.853990528485099"><ele>133.0</ele><time>2026-04-22T10:41:38.999Z</time></trkpt><trkpt lat="42.363651130377164" lon="2.8541124548992056"><ele>133.0</ele><time>2026-04-22T10:41:39.999Z</time></trkpt><trkpt lat="42.36378144723835" lon="2.854231515844647"><ele>133.0</ele><time>2026-04-22T10:41:40.999Z</time></trkpt><trkpt lat="42.36390162615184" lon="2.8543581679766494"><ele>133.0</ele><time>2026-04-22T10:41:41.999Z</time></trkpt><trkpt lat="42.36400066851448" lon="2.8545086226179137"><ele>130.33333333333334</ele><time>2026-04-22T10:41:42.999Z</time></trkpt><trkpt lat="42.36407946070571" lon="2.8546992094735173"><ele>127.66666666666666</ele><time>2026-04-22T10:41:43.999Z</time></trkpt><trkpt lat="42.36414377311314" lon="2.854928454137994"><ele>125.0</ele><time>2026-04-22T10:41:44.999Z</time></trkpt><trkpt lat="42.36417507242879" lon="2.8551525606473858"><ele>124.0</ele><time>2026-04-22T10:41:45.999Z</time></trkpt><trkpt lat="42.364193855596724" lon="2.855376495255048"><ele>123.0</ele><time>2026-04-22T10:41:46.999Z</time></trkpt><trkpt lat="42.36417415578743" lon="2.8556094153493143"><ele>122.0</ele><time>2026-04-22T10:41:47.999Z</time></trkpt><trkpt lat="42.364108503263466" lon="2.8558504128287647"><ele>122.33333333333333</ele><time>2026-04-22T10:41:48.999Z</time></trkpt><trkpt lat="42.36406912567142" lon="2.8560835356493004"><ele>122.66666666666666</ele><time>2026-04-22T10:41:49.999Z</time></trkpt><trkpt lat="42.36404898788991" lon="2.8563059658118837"><ele>123.0</ele><time>2026-04-22T10:41:50.999Z</time></trkpt><trkpt lat="42.36375571597904" lon="2.8564833480335072"><ele>123.0</ele><time>2026-04-22T10:41:51.999Z</time></trkpt><trkpt lat="42.36366718218103" lon="2.856697017937382"><ele>123.0</ele><time>2026-04-22T10:41:52.999Z</time></trkpt><trkpt lat="42.363603851204516" lon="2.8569486410247165"><ele>123.0</ele><time>2026-04-22T10:41:53.999Z</time></trkpt><trkpt lat="42.36357770275073" lon="2.8572047678511314"><ele>120.66666666666666</ele><time>2026-04-22T10:41:54.999Z</time></trkpt><trkpt lat="42.36358571925946" lon="2.8574950824361016"><ele>118.33333333333333</ele><time>2026-04-22T10:41:55.999Z</time></trkpt><trkpt lat="42.36361266871234" lon="2.8577903797202806"><ele>116.0</ele><time>2026-04-22T10:41:56.999Z</time></trkpt><trkpt lat="42.363651216213135" lon="2.858093159030943"><ele>116.0</ele><time>2026-04-22T10:41:57.999Z</time></trkpt><trkpt lat="42.36369170127638" lon="2.8584116952363363"><ele>116.0</ele><time>2026-04-22T10:41:58.999Z</time></trkpt><trkpt lat="42.3637148187837" lon="2.8587442625143384"><ele>120.0</ele><time>2026-04-22T10:41:59.999Z</time></trkpt><trkpt lat="42.363723716146936" lon="2.8590855198484535"><ele>124.0</ele><time>2026-04-22T10:42:00.999Z</time></trkpt><trkpt lat="42.3637129112505" lon="2.8594321145034534"><ele>126.0</ele><time>2026-04-22T10:42:01.999Z</time></trkpt><trkpt lat="42.36368417448009" lon="2.8597778908604536"><ele>128.0</ele><time>2026-04-22T10:42:02.999Z</time></trkpt><trkpt lat="42.36364630586559" lon="2.860117685248095"><ele>129.5</ele><time>2026-04-22T10:42:03.999Z</time></trkpt><trkpt lat="42.36361424719812" lon="2.8604679402434603"><ele>131.0</ele><time>2026-04-22T10:42:04.999Z</time></trkpt><trkpt lat="42.3635952936408" lon="2.860811394103192"><ele>131.5</ele><time>2026-04-22T10:42:05.999Z</time></trkpt><trkpt lat="42.363592709288305" lon="2.861132047286496"><ele>132.0</ele><time>2026-04-22T10:42:06.999Z</time></trkpt><trkpt lat="42.36359462902805" lon="2.8614362249017247"><ele>132.0</ele><time>2026-04-22T10:42:07.999Z</time></trkpt><trkpt lat="42.36360384201614" lon="2.8617396627384615"><ele>132.0</ele><time>2026-04-22T10:42:08.999Z</time></trkpt><trkpt lat="42.36360245233064" lon="2.8620458653737755"><ele>133.0</ele><time>2026-04-22T10:42:09.999Z</time></trkpt><trkpt lat="42.363583080725434" lon="2.8623322575432684"><ele>134.0</ele><time>2026-04-22T10:42:10.999Z</time></trkpt><trkpt lat="42.36352890135457" lon="2.862614608689517"><ele>135.0</ele><time>2026-04-22T10:42:11.999Z</time></trkpt><trkpt lat="42.36343640922558" lon="2.8628937560164833"><ele>138.5</ele><time>2026-04-22T10:42:12.999Z</time></trkpt><trkpt lat="42.36333292151095" lon="2.8631736492858417"><ele>142.0</ele><time>2026-04-22T10:42:13.999Z</time></trkpt><trkpt lat="42.36324227923316" lon="2.8634716324162017"><ele>143.5</ele><time>2026-04-22T10:42:14.999Z</time></trkpt><trkpt lat="42.36317575818791" lon="2.8637855755897355"><ele>145.0</ele><time>2026-04-22T10:42:15.999Z</time></trkpt><trkpt lat="42.36314633370228" lon="2.8640882801139673"><ele>144.5</ele><time>2026-04-22T10:42:16.999Z</time></trkpt><trkpt lat="42.36312129842454" lon="2.864393126925852"><ele>144.0</ele><time>2026-04-22T10:42:17.999Z</time></trkpt><trkpt lat="42.363093117878414" lon="2.864695781934488"><ele>144.0</ele><time>2026-04-22T10:42:18.999Z</time></trkpt><trkpt lat="42.36306115352881" lon="2.8649928720847804"><ele>144.0</ele><time>2026-04-22T10:42:19.999Z</time></trkpt><trkpt lat="42.363027878077695" lon="2.8652985966354425"><ele>143.33333333333334</ele><time>2026-04-22T10:42:20.999Z</time></trkpt><trkpt lat="42.36299601755" lon="2.8655864053000926"><ele>142.66666666666669</ele><time>2026-04-22T10:42:21.999Z</time></trkpt><trkpt lat="42.36295032375981" lon="2.8658580817664197"><ele>142.0</ele><time>2026-04-22T10:42:22.999Z</time></trkpt><trkpt lat="42.362860711653184" lon="2.8661186322066023"><ele>142.0</ele><time>2026-04-22T10:42:23.999Z</time></trkpt><trkpt lat="42.36272049186884" lon="2.8663635166125765"><ele>142.0</ele><time>2026-04-22T10:42:24.999Z</time></trkpt><trkpt lat="42.362552578845275" lon="2.866590391353153"><ele>141.0</ele><time>2026-04-22T10:42:25.999Z</time></trkpt><trkpt lat="42.362360781785476" lon="2.8667794339297172"><ele>140.0</ele><time>2026-04-22T10:42:26.999Z</time></trkpt><trkpt lat="42.36217519023437" lon="2.8669446911735066"><ele>140.0</ele><time>2026-04-22T10:42:27.999Z</time></trkpt><trkpt lat="42.36202336563045" lon="2.867124425986779"><ele>140.0</ele><time>2026-04-22T10:42:28.999Z</time></trkpt><trkpt lat="42.36186753658343" lon="2.86734242236101"><ele>140.0</ele><time>2026-04-22T10:42:29.998Z</time></trkpt><trkpt lat="42.36172906644971" lon="2.8675947729371787"><ele>141.0</ele><time>2026-04-22T10:42:30.998Z</time></trkpt><trkpt lat="42.36160858437621" lon="2.8678479883764814"><ele>142.0</ele><time>2026-04-22T10:42:31.998Z</time></trkpt><trkpt lat="42.36149280855633" lon="2.8680887506742425"><ele>143.0</ele><time>2026-04-22T10:42:32.998Z</time></trkpt><trkpt lat="42.3613836651631" lon="2.8683211447800177"><ele>141.33333333333331</ele><time>2026-04-22T10:42:33.998Z</time></trkpt><trkpt lat="42.36129229950133" lon="2.868555823912605"><ele>139.66666666666666</ele><time>2026-04-22T10:42:34.998Z</time></trkpt><trkpt lat="42.36122489962085" lon="2.868808278238633"><ele>138.0</ele><time>2026-04-22T10:42:35.998Z</time></trkpt><trkpt lat="42.36119408252317" lon="2.869087357802562"><ele>137.0</ele><time>2026-04-22T10:42:36.998Z</time></trkpt><trkpt lat="42.36120153840902" lon="2.869377370304027"><ele>136.0</ele><time>2026-04-22T10:42:37.998Z</time></trkpt><trkpt lat="42.361245329861816" lon="2.8696785418663833"><ele>135.0</ele><time>2026-04-22T10:42:38.998Z</time></trkpt><trkpt lat="42.3613202629058" lon="2.8699680821535876"><ele>137.5</ele><time>2026-04-22T10:42:39.998Z</time></trkpt><trkpt lat="42.361408584163186" lon="2.870259770268542"><ele>140.0</ele><time>2026-04-22T10:42:40.998Z</time></trkpt><trkpt lat="42.36140506909543" lon="2.8705963476615026"><ele>140.0</ele><time>2026-04-22T10:42:41.998Z</time></trkpt><trkpt lat="42.36147692850777" lon="2.8709142138623367"><ele>140.0</ele><time>2026-04-22T10:42:42.998Z</time></trkpt><trkpt lat="42.36154269747168" lon="2.871222019432409"><ele>140.0</ele><time>2026-04-22T10:42:43.998Z</time></trkpt><trkpt lat="42.36160118196933" lon="2.8715150355783834"><ele>140.0</ele><time>2026-04-22T10:42:44.998Z</time></trkpt><trkpt lat="42.361625357776056" lon="2.8718124300126244"><ele>140.0</ele><time>2026-04-22T10:42:45.998Z</time></trkpt><trkpt lat="42.36160368970167" lon="2.8721165392078283"><ele>140.0</ele><time>2026-04-22T10:42:46.998Z</time></trkpt><trkpt lat="42.361529832123594" lon="2.872420695579522"><ele>140.0</ele><time>2026-04-22T10:42:47.998Z</time></trkpt><trkpt lat="42.36140908131717" lon="2.872707390152651"><ele>141.5</ele><time>2026-04-22T10:42:48.998Z</time></trkpt><trkpt lat="42.3611938655951" lon="2.8729111216412364"><ele>143.0</ele><time>2026-04-22T10:42:49.998Z</time></trkpt><trkpt lat="42.36104275264359" lon="2.8731625316898257"><ele>143.0</ele><time>2026-04-22T10:42:50.998Z</time></trkpt><trkpt lat="42.36090761428807" lon="2.8733917747353224"><ele>143.0</ele><time>2026-04-22T10:42:51.998Z</time></trkpt><trkpt lat="42.36079719057016" lon="2.8736053000703503"><ele>143.0</ele><time>2026-04-22T10:42:52.998Z</time></trkpt><trkpt lat="42.36073352172926" lon="2.8738093250039345"><ele>142.33333333333331</ele><time>2026-04-22T10:42:54Z</time></trkpt><trkpt lat="42.36069923100382" lon="2.8740155784347565"><ele>141.66666666666666</ele><time>2026-04-22T10:42:55Z</time></trkpt><trkpt lat="42.36070803651321" lon="2.874249583686636"><ele>141.0</ele><time>2026-04-22T10:42:56Z</time></trkpt><trkpt lat="42.36072884425543" lon="2.874511699097943"><ele>141.0</ele><time>2026-04-22T10:42:57Z</time></trkpt><trkpt lat="42.36074310960611" lon="2.874776858254973"><ele>141.0</ele><time>2026-04-22T10:42:58Z</time></trkpt><trkpt lat="42.360754265178905" lon="2.8750323658637424"><ele>141.0</ele><time>2026-04-22T10:42:59Z</time></trkpt><trkpt lat="42.36078165713" lon="2.8753040011079807"><ele>139.5</ele><time>2026-04-22T10:43:00Z</time></trkpt><trkpt lat="42.36083275477409" lon="2.87559830308606"><ele>138.0</ele><time>2026-04-22T10:43:01Z</time></trkpt><trkpt lat="42.360898527700336" lon="2.8759057339024525"><ele>138.0</ele><time>2026-04-22T10:43:02Z</time></trkpt><trkpt lat="42.360957432172164" lon="2.876222032945031"><ele>138.0</ele><time>2026-04-22T10:43:03Z</time></trkpt><trkpt lat="42.361019123725654" lon="2.8765422965856433"><ele>136.5</ele><time>2026-04-22T10:43:04Z</time></trkpt><trkpt lat="42.361101577476184" lon="2.8768992113737637"><ele>135.0</ele><time>2026-04-22T10:43:05Z</time></trkpt><trkpt lat="42.36117058881407" lon="2.8772315919901255"><ele>135.0</ele><time>2026-04-22T10:43:06Z</time></trkpt><trkpt lat="42.361231806070194" lon="2.877565453808161"><ele>135.0</ele><time>2026-04-22T10:43:07Z</time></trkpt><trkpt lat="42.36128590530069" lon="2.877878991269226"><ele>132.5</ele><time>2026-04-22T10:43:08Z</time></trkpt><trkpt lat="42.36134808427735" lon="2.878200977673952"><ele>130.0</ele><time>2026-04-22T10:43:09Z</time></trkpt><trkpt lat="42.36140787240402" lon="2.878518097865993"><ele>129.0</ele><time>2026-04-22T10:43:10Z</time></trkpt><trkpt lat="42.36146344597406" lon="2.8788214108632713"><ele>128.0</ele><time>2026-04-22T10:43:11Z</time></trkpt><trkpt lat="42.361515132664024" lon="2.879101749650136"><ele>127.0</ele><time>2026-04-22T10:43:12Z</time></trkpt><trkpt lat="42.36156104292019" lon="2.879364546283903"><ele>126.33333333333334</ele><time>2026-04-22T10:43:13Z</time></trkpt><trkpt lat="42.36159665071922" lon="2.87963013400568"><ele>125.66666666666666</ele><time>2026-04-22T10:43:14Z</time></trkpt><trkpt lat="42.3616142089207" lon="2.8798782984592433"><ele>125.0</ele><time>2026-04-22T10:43:15Z</time></trkpt><trkpt lat="42.36158878531568" lon="2.880146220157776"><ele>122.0</ele><time>2026-04-22T10:43:16Z</time></trkpt><trkpt lat="42.361556748443554" lon="2.8804432073454267"><ele>119.0</ele><time>2026-04-22T10:43:17Z</time></trkpt><trkpt lat="42.36152160562639" lon="2.8807584971556834"><ele>115.0</ele><time>2026-04-22T10:43:18Z</time></trkpt><trkpt lat="42.36148706808478" lon="2.8810765926185984"><ele>111.0</ele><time>2026-04-22T10:43:19Z</time></trkpt><trkpt lat="42.361452318263055" lon="2.8814065132249294"><ele>111.0</ele><time>2026-04-22T10:43:20Z</time></trkpt><trkpt lat="42.361420104683766" lon="2.881720624461079"><ele>111.0</ele><time>2026-04-22T10:43:21Z</time></trkpt><trkpt lat="42.36140275660451" lon="2.882031435411056"><ele>108.0</ele><time>2026-04-22T10:43:22Z</time></trkpt><trkpt lat="42.36136213971606" lon="2.882359411614493"><ele>105.0</ele><time>2026-04-22T10:43:23Z</time></trkpt><trkpt lat="42.36128851575864" lon="2.8826823874850844"><ele>104.0</ele><time>2026-04-22T10:43:24Z</time></trkpt><trkpt lat="42.361231758208895" lon="2.8830192453102517"><ele>103.0</ele><time>2026-04-22T10:43:25Z</time></trkpt><trkpt lat="42.36119043305826" lon="2.8833394629084377"><ele>101.0</ele><time>2026-04-22T10:43:26Z</time></trkpt><trkpt lat="42.36113810090347" lon="2.883644939161835"><ele>99.0</ele><time>2026-04-22T10:43:27Z</time></trkpt><trkpt lat="42.36107314983516" lon="2.8839329078702405"><ele>99.0</ele><time>2026-04-22T10:43:28Z</time></trkpt><trkpt lat="42.36102801497328" lon="2.8841952616106763"><ele>99.0</ele><time>2026-04-22T10:43:29Z</time></trkpt><trkpt lat="42.36098609213328" lon="2.8844230418250953"><ele>99.0</ele><time>2026-04-22T10:43:30Z</time></trkpt><trkpt lat="42.360936393753164" lon="2.8846285417651054"><ele>97.66666666666667</ele><time>2026-04-22T10:43:31Z</time></trkpt><trkpt lat="42.36085665068021" lon="2.8848173370696264"><ele>96.33333333333334</ele><time>2026-04-22T10:43:32Z</time></trkpt><trkpt lat="42.36072177425526" lon="2.8849924823291713"><ele>95.0</ele><time>2026-04-22T10:43:33Z</time></trkpt><trkpt lat="42.360557737565244" lon="2.8851900668287773"><ele>95.33333333333334</ele><time>2026-04-22T10:43:34Z</time></trkpt><trkpt lat="42.360447456933336" lon="2.885415424413814"><ele>95.66666666666667</ele><time>2026-04-22T10:43:35Z</time></trkpt><trkpt lat="42.36036215517248" lon="2.8856638180496934"><ele>96.0</ele><time>2026-04-22T10:43:36Z</time></trkpt><trkpt lat="42.36030749964565" lon="2.885958492247823"><ele>95.0</ele><time>2026-04-22T10:43:37Z</time></trkpt><trkpt lat="42.360261902328745" lon="2.8862750120698895"><ele>94.0</ele><time>2026-04-22T10:43:37.999Z</time></trkpt><trkpt lat="42.36018459190651" lon="2.8865862620272327"><ele>94.0</ele><time>2026-04-22T10:43:38.999Z</time></trkpt><trkpt lat="42.360116138360894" lon="2.8869180429692145"><ele>94.0</ele><time>2026-04-22T10:43:39.999Z</time></trkpt><trkpt lat="42.36004478671307" lon="2.8872633967465435"><ele>94.0</ele><time>2026-04-22T10:43:40.999Z</time></trkpt><trkpt lat="42.35997066740289" lon="2.887618847939281"><ele>94.0</ele><time>2026-04-22T10:43:41.999Z</time></trkpt><trkpt lat="42.35989708267738" lon="2.887983684335692"><ele>94.0</ele><time>2026-04-22T10:43:42.999Z</time></trkpt><trkpt lat="42.35982118551102" lon="2.8883549407439224"><ele>94.0</ele><time>2026-04-22T10:43:43.999Z</time></trkpt><trkpt lat="42.35974284140319" lon="2.8887368469674555"><ele>93.5</ele><time>2026-04-22T10:43:44.999Z</time></trkpt><trkpt lat="42.35966287536824" lon="2.889126659073371"><ele>93.0</ele><time>2026-04-22T10:43:45.999Z</time></trkpt><trkpt lat="42.35959575005005" lon="2.8895262655343448"><ele>93.5</ele><time>2026-04-22T10:43:46.999Z</time></trkpt><trkpt lat="42.35951570337598" lon="2.8899267971917264"><ele>94.0</ele><time>2026-04-22T10:43:47.999Z</time></trkpt><trkpt lat="42.35941693076133" lon="2.890330994924705"><ele>94.0</ele><time>2026-04-22T10:43:48.999Z</time></trkpt><trkpt lat="42.359345521033376" lon="2.8907480083512596"><ele>94.0</ele><time>2026-04-22T10:43:49.999Z</time></trkpt><trkpt lat="42.35925642927116" lon="2.8911603681859828"><ele>91.0</ele><time>2026-04-22T10:43:50.999Z</time></trkpt><trkpt lat="42.35917261381771" lon="2.8915859502591377"><ele>88.0</ele><time>2026-04-22T10:43:51.999Z</time></trkpt><trkpt lat="42.35908576905279" lon="2.8920102005017534"><ele>87.5</ele><time>2026-04-22T10:43:52.999Z</time></trkpt><trkpt lat="42.35899603160925" lon="2.8924343558493755"><ele>87.0</ele><time>2026-04-22T10:43:53.999Z</time></trkpt><trkpt lat="42.358912831255516" lon="2.8928650741579047"><ele>85.5</ele><time>2026-04-22T10:43:54.999Z</time></trkpt><trkpt lat="42.35882349930121" lon="2.8932903495534688"><ele>84.0</ele><time>2026-04-22T10:43:55.999Z</time></trkpt><trkpt lat="42.358735233792" lon="2.893715067162622"><ele>83.0</ele><time>2026-04-22T10:43:56.999Z</time></trkpt><trkpt lat="42.35865491886755" lon="2.894103095584045"><ele>82.0</ele><time>2026-04-22T10:43:57.999Z</time></trkpt><trkpt lat="42.35857433388491" lon="2.8944775057633576"><ele>82.0</ele><time>2026-04-22T10:43:58.999Z</time></trkpt><trkpt lat="42.35849197395596" lon="2.8948564537848744"><ele>82.0</ele><time>2026-04-22T10:43:59.999Z</time></trkpt><trkpt lat="42.35841910744697" lon="2.895233897182965"><ele>81.0</ele><time>2026-04-22T10:44:00.999Z</time></trkpt><trkpt lat="42.35835220291467" lon="2.8955927398086616"><ele>80.0</ele><time>2026-04-22T10:44:01.999Z</time></trkpt><trkpt lat="42.35828577416783" lon="2.8959251730189215"><ele>78.5</ele><time>2026-04-22T10:44:02.999Z</time></trkpt><trkpt lat="42.358218718706674" lon="2.896247009542752"><ele>77.0</ele><time>2026-04-22T10:44:03.999Z</time></trkpt><trkpt lat="42.35815035467058" lon="2.896556346333601"><ele>75.66666666666667</ele><time>2026-04-22T10:44:04.999Z</time></trkpt><trkpt lat="42.35809024955505" lon="2.8968510299971926"><ele>74.33333333333333</ele><time>2026-04-22T10:44:05.999Z</time></trkpt><trkpt lat="42.35803443828064" lon="2.897140949773372"><ele>73.0</ele><time>2026-04-22T10:44:06.999Z</time></trkpt><trkpt lat="42.357980868652746" lon="2.8974103621852505"><ele>73.33333333333333</ele><time>2026-04-22T10:44:07.999Z</time></trkpt><trkpt lat="42.357918904463865" lon="2.897671711359659"><ele>73.66666666666667</ele><time>2026-04-22T10:44:08.999Z</time></trkpt><trkpt lat="42.35785513924434" lon="2.897925631082388"><ele>74.0</ele><time>2026-04-22T10:44:09.999Z</time></trkpt><trkpt lat="42.3577912652067" lon="2.8981607646788143"><ele>74.0</ele><time>2026-04-22T10:44:10.999Z</time></trkpt><trkpt lat="42.35769658111576" lon="2.8983822942013773"><ele>74.0</ele><time>2026-04-22T10:44:11.999Z</time></trkpt><trkpt lat="42.35755025501267" lon="2.8985922529118198"><ele>74.0</ele><time>2026-04-22T10:44:12.999Z</time></trkpt><trkpt lat="42.35736851522915" lon="2.8987914998292434"><ele>73.0</ele><time>2026-04-22T10:44:13.999Z</time></trkpt><trkpt lat="42.35717164444521" lon="2.898996100684623"><ele>72.0</ele><time>2026-04-22T10:44:14.999Z</time></trkpt><trkpt lat="42.35697363599487" lon="2.8992088005065066"><ele>68.0</ele><time>2026-04-22T10:44:15.999Z</time></trkpt><trkpt lat="42.356770341467396" lon="2.899433595728013"><ele>64.0</ele><time>2026-04-22T10:44:16.999Z</time></trkpt><trkpt lat="42.35655869872856" lon="2.8996836195647573"><ele>63.0</ele><time>2026-04-22T10:44:17.999Z</time></trkpt><trkpt lat="42.35635021904393" lon="2.899931357521045"><ele>62.0</ele><time>2026-04-22T10:44:18.999Z</time></trkpt><trkpt lat="42.35614824551152" lon="2.9001676555175724"><ele>62.0</ele><time>2026-04-22T10:44:19.999Z</time></trkpt><trkpt lat="42.355960541083846" lon="2.9003904713233606"><ele>62.0</ele><time>2026-04-22T10:44:20.999Z</time></trkpt><trkpt lat="42.35578090806229" lon="2.900609138236931"><ele>62.0</ele><time>2026-04-22T10:44:21.999Z</time></trkpt><trkpt lat="42.355607923927565" lon="2.9008168923626765"><ele>62.0</ele><time>2026-04-22T10:44:22.999Z</time></trkpt><trkpt lat="42.35543576036532" lon="2.901015342637245"><ele>60.66666666666667</ele><time>2026-04-22T10:44:23.999Z</time></trkpt><trkpt lat="42.35526380703923" lon="2.901194437661083"><ele>59.33333333333333</ele><time>2026-04-22T10:44:24.999Z</time></trkpt><trkpt lat="42.35506240594352" lon="2.901350613811679"><ele>58.0</ele><time>2026-04-22T10:44:25.999Z</time></trkpt><trkpt lat="42.354856145834134" lon="2.9014635796835075"><ele>60.33333333333333</ele><time>2026-04-22T10:44:26.999Z</time></trkpt><trkpt lat="42.35465069096512" lon="2.901534644714521"><ele>62.66666666666667</ele><time>2026-04-22T10:44:27.999Z</time></trkpt><trkpt lat="42.35445592835659" lon="2.9015729318892345"><ele>65.0</ele><time>2026-04-22T10:44:28.999Z</time></trkpt><trkpt lat="42.3542893734868" lon="2.9016162469753906"><ele>65.0</ele><time>2026-04-22T10:44:29.999Z</time></trkpt><trkpt lat="42.354135789479976" lon="2.9017173792880353"><ele>65.0</ele><time>2026-04-22T10:44:30.999Z</time></trkpt><trkpt lat="42.35398672511032" lon="2.9018928190581277"><ele>65.0</ele><time>2026-04-22T10:44:31.999Z</time></trkpt><trkpt lat="42.35383973192928" lon="2.9020813457513746"><ele>66.0</ele><time>2026-04-22T10:44:32.999Z</time></trkpt><trkpt lat="42.35371398832266" lon="2.902256284257629"><ele>67.0</ele><time>2026-04-22T10:44:33.999Z</time></trkpt><trkpt lat="42.35360652923344" lon="2.9024278608936136"><ele>68.0</ele><time>2026-04-22T10:44:34.999Z</time></trkpt><trkpt lat="42.35351506428466" lon="2.902614228953516"><ele>64.66666666666667</ele><time>2026-04-22T10:44:35.999Z</time></trkpt><trkpt lat="42.3534403553238" lon="2.9028063545739378"><ele>61.33333333333333</ele><time>2026-04-22T10:44:36.999Z</time></trkpt><trkpt lat="42.35335174753304" lon="2.9029921207299507"><ele>58.0</ele><time>2026-04-22T10:44:37.999Z</time></trkpt><trkpt lat="42.35322144436603" lon="2.90316697722106"><ele>58.0</ele><time>2026-04-22T10:44:38.998Z</time></trkpt><trkpt lat="42.353075575014635" lon="2.903355768622116"><ele>58.0</ele><time>2026-04-22T10:44:39.998Z</time></trkpt><trkpt lat="42.352934586849095" lon="2.903568946941833"><ele>58.0</ele><time>2026-04-22T10:44:40.998Z</time></trkpt><trkpt lat="42.3527916495041" lon="2.903785627219574"><ele>58.33333333333333</ele><time>2026-04-22T10:44:41.998Z</time></trkpt><trkpt lat="42.35265176467961" lon="2.9039908049442746"><ele>58.66666666666667</ele><time>2026-04-22T10:44:42.998Z</time></trkpt><trkpt lat="42.352515844355345" lon="2.9041963527215"><ele>59.0</ele><time>2026-04-22T10:44:43.998Z</time></trkpt><trkpt lat="42.35237928787832" lon="2.904393140722873"><ele>59.0</ele><time>2026-04-22T10:44:44.998Z</time></trkpt><trkpt lat="42.35223727805668" lon="2.90459032474134"><ele>59.0</ele><time>2026-04-22T10:44:45.998Z</time></trkpt><trkpt lat="42.35208909825532" lon="2.9047819062583073"><ele>59.0</ele><time>2026-04-22T10:44:46.998Z</time></trkpt><trkpt lat="42.35193253818842" lon="2.9049568485821613"><ele>58.0</ele><time>2026-04-22T10:44:47.998Z</time></trkpt><trkpt lat="42.35175642892117" lon="2.905124750055679"><ele>57.0</ele><time>2026-04-22T10:44:48.998Z</time></trkpt><trkpt lat="42.35155460558523" lon="2.9052736157086474"><ele>56.0</ele><time>2026-04-22T10:44:49.998Z</time></trkpt><trkpt lat="42.35135359704545" lon="2.9053991291689023"><ele>56.0</ele><time>2026-04-22T10:44:50.998Z</time></trkpt><trkpt lat="42.35116680778222" lon="2.9055153624228107"><ele>56.0</ele><time>2026-04-22T10:44:51.998Z</time></trkpt><trkpt lat="42.35101221007119" lon="2.9056112709449264"><ele>56.0</ele><time>2026-04-22T10:44:52.998Z</time></trkpt><trkpt lat="42.35087606732778" lon="2.9057061215724125"><ele>56.0</ele><time>2026-04-22T10:44:53.998Z</time></trkpt><trkpt lat="42.35076817747853" lon="2.9058280138360195"><ele>56.0</ele><time>2026-04-22T10:44:54.998Z</time></trkpt><trkpt lat="42.35068749817242" lon="2.9059796204783153"><ele>56.0</ele><time>2026-04-22T10:44:55.998Z</time></trkpt><trkpt lat="42.35065487122123" lon="2.9061544572693583"><ele>56.0</ele><time>2026-04-22T10:44:56.998Z</time></trkpt><trkpt lat="42.350668562526664" lon="2.9063338877577567"><ele>55.599999999999994</ele><time>2026-04-22T10:44:57.998Z</time></trkpt><trkpt lat="42.35069401001161" lon="2.906479202016945"><ele>55.199999999999996</ele><time>2026-04-22T10:44:58.998Z</time></trkpt><trkpt lat="42.35070512440647" lon="2.906609317430421"><ele>54.800000000000004</ele><time>2026-04-22T10:45:00Z</time></trkpt><trkpt lat="42.35066950716985" lon="2.9067459037150303"><ele>54.400000000000006</ele><time>2026-04-22T10:45:01Z</time></trkpt><trkpt lat="42.35060081043048" lon="2.9068948397299583"><ele>54.0</ele><time>2026-04-22T10:45:02Z</time></trkpt><trkpt lat="42.35047379801394" lon="2.9070421734615306"><ele>54.0</ele><time>2026-04-22T10:45:03Z</time></trkpt><trkpt lat="42.35034448450228" lon="2.9072221999859664"><ele>54.0</ele><time>2026-04-22T10:45:04Z</time></trkpt><trkpt lat="42.35021039386875" lon="2.9074262324429263"><ele>54.0</ele><time>2026-04-22T10:45:05Z</time></trkpt><trkpt lat="42.35007130508817" lon="2.9076503309754584"><ele>52.5</ele><time>2026-04-22T10:45:06Z</time></trkpt><trkpt lat="42.34992335796972" lon="2.907889832854548"><ele>51.0</ele><time>2026-04-22T10:45:07Z</time></trkpt><trkpt lat="42.349768648261865" lon="2.9081407661678664"><ele>52.0</ele><time>2026-04-22T10:45:08Z</time></trkpt><trkpt lat="42.3496015816519" lon="2.908399538752454"><ele>53.0</ele><time>2026-04-22T10:45:09Z</time></trkpt><trkpt lat="42.34942869484646" lon="2.9086672338664523"><ele>53.0</ele><time>2026-04-22T10:45:10Z</time></trkpt><trkpt lat="42.349242393947684" lon="2.908937748781466"><ele>53.0</ele><time>2026-04-22T10:45:11Z</time></trkpt><trkpt lat="42.34905105745736" lon="2.9092140564218343"><ele>53.5</ele><time>2026-04-22T10:45:12Z</time></trkpt><trkpt lat="42.34885595175222" lon="2.9095033289319354"><ele>54.0</ele><time>2026-04-22T10:45:13Z</time></trkpt><trkpt lat="42.34865964399117" lon="2.9097946527385425"><ele>52.5</ele><time>2026-04-22T10:45:14Z</time></trkpt><trkpt lat="42.3484673320216" lon="2.910084819816271"><ele>51.0</ele><time>2026-04-22T10:45:15Z</time></trkpt><trkpt lat="42.348286022399776" lon="2.910352197274353"><ele>51.0</ele><time>2026-04-22T10:45:16Z</time></trkpt><trkpt lat="42.34809276423055" lon="2.910583407003992"><ele>51.0</ele><time>2026-04-22T10:45:17Z</time></trkpt><trkpt lat="42.34792415931827" lon="2.910828386287128"><ele>50.66666666666667</ele><time>2026-04-22T10:45:18Z</time></trkpt><trkpt lat="42.34777052116194" lon="2.9110516191811397"><ele>50.333333333333336</ele><time>2026-04-22T10:45:19Z</time></trkpt><trkpt lat="42.347631772637634" lon="2.91125321780243"><ele>50.0</ele><time>2026-04-22T10:45:20Z</time></trkpt><trkpt lat="42.34749767421789" lon="2.911448188118898"><ele>50.0</ele><time>2026-04-22T10:45:21Z</time></trkpt><trkpt lat="42.347373185930174" lon="2.911629335577272"><ele>50.0</ele><time>2026-04-22T10:45:22Z</time></trkpt><trkpt lat="42.347244104314115" lon="2.9118171669682518"><ele>50.0</ele><time>2026-04-22T10:45:23Z</time></trkpt><trkpt lat="42.34711444785068" lon="2.912005834825377"><ele>50.333333333333336</ele><time>2026-04-22T10:45:24Z</time></trkpt><trkpt lat="42.34698256377005" lon="2.9121964854861138"><ele>50.66666666666667</ele><time>2026-04-22T10:45:25Z</time></trkpt><trkpt lat="42.346850461009225" lon="2.912384131883309"><ele>51.0</ele><time>2026-04-22T10:45:26Z</time></trkpt><trkpt lat="42.34672645531561" lon="2.912586849097898"><ele>51.33333333333333</ele><time>2026-04-22T10:45:27Z</time></trkpt><trkpt lat="42.346590146317446" lon="2.9127714890629717"><ele>51.666666666666664</ele><time>2026-04-22T10:45:28Z</time></trkpt><trkpt lat="42.346448168304754" lon="2.9129548023377874"><ele>52.0</ele><time>2026-04-22T10:45:29Z</time></trkpt><trkpt lat="42.34630335199388" lon="2.9131349369965833"><ele>52.0</ele><time>2026-04-22T10:45:30Z</time></trkpt><trkpt lat="42.34613884866224" lon="2.9132843662136403"><ele>52.0</ele><time>2026-04-22T10:45:31Z</time></trkpt><trkpt lat="42.345968721450696" lon="2.913416938187063"><ele>52.0</ele><time>2026-04-22T10:45:32Z</time></trkpt><trkpt lat="42.34579129036357" lon="2.913550260038562"><ele>50.666666666666664</ele><time>2026-04-22T10:45:33Z</time></trkpt><trkpt lat="42.345615646053815" lon="2.9136966289184483"><ele>49.33333333333333</ele><time>2026-04-22T10:45:34Z</time></trkpt><trkpt lat="42.34543015982406" lon="2.91382481437388"><ele>48.0</ele><time>2026-04-22T10:45:35Z</time></trkpt><trkpt lat="42.345250358389265" lon="2.9139674615176436"><ele>48.0</ele><time>2026-04-22T10:45:36Z</time></trkpt><trkpt lat="42.3450704497494" lon="2.914115819137202"><ele>48.0</ele><time>2026-04-22T10:45:37Z</time></trkpt><trkpt lat="42.34487258459779" lon="2.9142403649295177"><ele>48.0</ele><time>2026-04-22T10:45:38Z</time></trkpt><trkpt lat="42.34468364742652" lon="2.914381023240009"><ele>48.33333333333333</ele><time>2026-04-22T10:45:39Z</time></trkpt><trkpt lat="42.344505231898005" lon="2.9145367432366576"><ele>48.666666666666664</ele><time>2026-04-22T10:45:40Z</time></trkpt><trkpt lat="42.34431755054395" lon="2.9146535719051503"><ele>49.0</ele><time>2026-04-22T10:45:41Z</time></trkpt><trkpt lat="42.34412689690849" lon="2.914796045287575"><ele>49.0</ele><time>2026-04-22T10:45:42Z</time></trkpt><trkpt lat="42.34391847990668" lon="2.9149527453913886"><ele>49.0</ele><time>2026-04-22T10:45:42.999Z</time></trkpt><trkpt lat="42.34370495433658" lon="2.915113286410781"><ele>48.0</ele><time>2026-04-22T10:45:43.999Z</time></trkpt><trkpt lat="42.34348037755088" lon="2.9152800014664817"><ele>47.0</ele><time>2026-04-22T10:45:44.999Z</time></trkpt><trkpt lat="42.343254731296184" lon="2.915453055496687"><ele>47.0</ele><time>2026-04-22T10:45:45.999Z</time></trkpt><trkpt lat="42.34301569243444" lon="2.9156251487859843"><ele>47.0</ele><time>2026-04-22T10:45:46.999Z</time></trkpt><trkpt lat="42.34277513176127" lon="2.915815606798262"><ele>45.5</ele><time>2026-04-22T10:45:47.999Z</time></trkpt><trkpt lat="42.34252802726152" lon="2.9160070988695255"><ele>44.0</ele><time>2026-04-22T10:45:48.999Z</time></trkpt><trkpt lat="42.34226605074467" lon="2.91618229125639"><ele>44.5</ele><time>2026-04-22T10:45:49.999Z</time></trkpt><trkpt lat="42.34200621264013" lon="2.916375584363691"><ele>45.0</ele><time>2026-04-22T10:45:50.999Z</time></trkpt><trkpt lat="42.341739356431844" lon="2.9165722243486307"><ele>45.0</ele><time>2026-04-22T10:45:51.999Z</time></trkpt><trkpt lat="42.34147619293208" lon="2.9167882039114854"><ele>45.0</ele><time>2026-04-22T10:45:52.999Z</time></trkpt><trkpt lat="42.34120226061212" lon="2.9169891726622277"><ele>45.5</ele><time>2026-04-22T10:45:53.999Z</time></trkpt><trkpt lat="42.3409266291123" lon="2.9171936754468213"><ele>46.0</ele><time>2026-04-22T10:45:54.999Z</time></trkpt><trkpt lat="42.34064767861075" lon="2.9174012952282133"><ele>46.5</ele><time>2026-04-22T10:45:55.999Z</time></trkpt><trkpt lat="42.34036727409093" lon="2.917613188417858"><ele>47.0</ele><time>2026-04-22T10:45:56.999Z</time></trkpt><trkpt lat="42.34008484780759" lon="2.9178235366968632"><ele>47.0</ele><time>2026-04-22T10:45:57.999Z</time></trkpt><trkpt lat="42.33980056846173" lon="2.91803287761369"><ele>47.0</ele><time>2026-04-22T10:45:58.999Z</time></trkpt><trkpt lat="42.33951499611176" lon="2.918240636062733"><ele>46.0</ele><time>2026-04-22T10:45:59.999Z</time></trkpt><trkpt lat="42.33923239363516" lon="2.9184511169163585"><ele>45.0</ele><time>2026-04-22T10:46:00.999Z</time></trkpt><trkpt lat="42.33896331484518" lon="2.918653851154509"><ele>46.0</ele><time>2026-04-22T10:46:01.999Z</time></trkpt><trkpt lat="42.338700879816365" lon="2.9188511358499882"><ele>47.0</ele><time>2026-04-22T10:46:02.999Z</time></trkpt><trkpt lat="42.33843987702793" lon="2.9190524578925854"><ele>47.5</ele><time>2026-04-22T10:46:03.999Z</time></trkpt><trkpt lat="42.33818146781612" lon="2.9192503993775807"><ele>48.0</ele><time>2026-04-22T10:46:04.999Z</time></trkpt><trkpt lat="42.33792242875275" lon="2.9194437614728144"><ele>48.0</ele><time>2026-04-22T10:46:05.999Z</time></trkpt><trkpt lat="42.33766149665644" lon="2.9196357691088846"><ele>48.0</ele><time>2026-04-22T10:46:06.999Z</time></trkpt><trkpt lat="42.33739836998295" lon="2.9198303045485314"><ele>48.5</ele><time>2026-04-22T10:46:07.999Z</time></trkpt><trkpt lat="42.33713469745595" lon="2.920030078744239"><ele>49.0</ele><time>2026-04-22T10:46:08.999Z</time></trkpt><trkpt lat="42.3368665045012" lon="2.9202333906839675"><ele>48.5</ele><time>2026-04-22T10:46:09.999Z</time></trkpt><trkpt lat="42.33659669613288" lon="2.9204394715786757"><ele>48.0</ele><time>2026-04-22T10:46:10.999Z</time></trkpt><trkpt lat="42.336324396713344" lon="2.920647899359479"><ele>48.0</ele><time>2026-04-22T10:46:11.999Z</time></trkpt><trkpt lat="42.336055531466464" lon="2.920853264046048"><ele>48.0</ele><time>2026-04-22T10:46:12.999Z</time></trkpt><trkpt lat="42.335797177757904" lon="2.921047837284741"><ele>46.5</ele><time>2026-04-22T10:46:13.999Z</time></trkpt><trkpt lat="42.33554251512482" lon="2.9212350931320503"><ele>45.0</ele><time>2026-04-22T10:46:14.999Z</time></trkpt><trkpt lat="42.33529206693961" lon="2.92141830687179"><ele>45.0</ele><time>2026-04-22T10:46:15.999Z</time></trkpt><trkpt lat="42.33504175750529" lon="2.9215999855568775"><ele>45.0</ele><time>2026-04-22T10:46:16.999Z</time></trkpt><trkpt lat="42.334796513188245" lon="2.921783715418096"><ele>45.0</ele><time>2026-04-22T10:46:17.999Z</time></trkpt><trkpt lat="42.334555342274676" lon="2.92196582882483"><ele>45.0</ele><time>2026-04-22T10:46:18.999Z</time></trkpt><trkpt lat="42.33431642061937" lon="2.9221438471994743"><ele>45.0</ele><time>2026-04-22T10:46:19.999Z</time></trkpt><trkpt lat="42.334077753322795" lon="2.9222993865089184"><ele>45.0</ele><time>2026-04-22T10:46:20.999Z</time></trkpt><trkpt lat="42.333858535785275" lon="2.9224892432107628"><ele>45.0</ele><time>2026-04-22T10:46:21.999Z</time></trkpt><trkpt lat="42.33363742782239" lon="2.9226530601705405"><ele>45.0</ele><time>2026-04-22T10:46:22.999Z</time></trkpt><trkpt lat="42.33342335076871" lon="2.9228294812823106"><ele>45.0</ele><time>2026-04-22T10:46:23.999Z</time></trkpt><trkpt lat="42.33321873329979" lon="2.923037147982893"><ele>45.0</ele><time>2026-04-22T10:46:24.999Z</time></trkpt><trkpt lat="42.333025054896574" lon="2.9232602667074383"><ele>45.5</ele><time>2026-04-22T10:46:25.999Z</time></trkpt><trkpt lat="42.332837517987876" lon="2.9235121106034314"><ele>46.0</ele><time>2026-04-22T10:46:26.999Z</time></trkpt><trkpt lat="42.332663809286544" lon="2.9237797219022434"><ele>46.0</ele><time>2026-04-22T10:46:27.999Z</time></trkpt><trkpt lat="42.332498217027684" lon="2.9240728962608484"><ele>46.0</ele><time>2026-04-22T10:46:28.999Z</time></trkpt><trkpt lat="42.33234616134768" lon="2.924383892459598"><ele>46.5</ele><time>2026-04-22T10:46:29.999Z</time></trkpt><trkpt lat="42.33219760741751" lon="2.9247076734908073"><ele>47.0</ele><time>2026-04-22T10:46:30.999Z</time></trkpt><trkpt lat="42.3320525039714" lon="2.9250380717873927"><ele>46.5</ele><time>2026-04-22T10:46:31.999Z</time></trkpt><trkpt lat="42.331904407733326" lon="2.9253745174899364"><ele>46.0</ele><time>2026-04-22T10:46:32.999Z</time></trkpt><trkpt lat="42.3317461454165" lon="2.9257134642412543"><ele>45.5</ele><time>2026-04-22T10:46:33.999Z</time></trkpt><trkpt lat="42.33157741210711" lon="2.926048752090582"><ele>45.0</ele><time>2026-04-22T10:46:34.999Z</time></trkpt><trkpt lat="42.33139789204257" lon="2.9263840972674413"><ele>45.0</ele><time>2026-04-22T10:46:35.999Z</time></trkpt><trkpt lat="42.33122146008023" lon="2.9267177745113484"><ele>45.0</ele><time>2026-04-22T10:46:36.999Z</time></trkpt><trkpt lat="42.33104688076741" lon="2.927056128823669"><ele>44.0</ele><time>2026-04-22T10:46:37.999Z</time></trkpt><trkpt lat="42.3308632089682" lon="2.9273984776644304"><ele>43.0</ele><time>2026-04-22T10:46:38.999Z</time></trkpt><trkpt lat="42.33068067307414" lon="2.9277392658110046"><ele>42.5</ele><time>2026-04-22T10:46:39.999Z</time></trkpt><trkpt lat="42.3304899850868" lon="2.9280799167312392"><ele>42.0</ele><time>2026-04-22T10:46:40.999Z</time></trkpt><trkpt lat="42.33031561228407" lon="2.9284020375536413"><ele>43.0</ele><time>2026-04-22T10:46:41.999Z</time></trkpt><trkpt lat="42.33015565502521" lon="2.9287090364300177"><ele>44.0</ele><time>2026-04-22T10:46:42.998Z</time></trkpt><trkpt lat="42.3300019207155" lon="2.9289966170255615"><ele>44.0</ele><time>2026-04-22T10:46:43.998Z</time></trkpt><trkpt lat="42.3298427091363" lon="2.929267848341308"><ele>44.0</ele><time>2026-04-22T10:46:44.998Z</time></trkpt><trkpt lat="42.32967541333976" lon="2.9295411208404496"><ele>44.0</ele><time>2026-04-22T10:46:45.998Z</time></trkpt><trkpt lat="42.32949477717822" lon="2.929778276942662"><ele>44.0</ele><time>2026-04-22T10:46:46.998Z</time></trkpt><trkpt lat="42.32932578795529" lon="2.9300069731613285"><ele>43.666666666666664</ele><time>2026-04-22T10:46:47.998Z</time></trkpt><trkpt lat="42.3291699589439" lon="2.930218391924967"><ele>43.333333333333336</ele><time>2026-04-22T10:46:48.998Z</time></trkpt><trkpt lat="42.32901327897602" lon="2.9304303137223036"><ele>43.0</ele><time>2026-04-22T10:46:49.998Z</time></trkpt><trkpt lat="42.32876212250839" lon="2.9307700224158033"><ele>42.5</ele><time>2026-04-22T10:46:50.998Z</time></trkpt><trkpt lat="42.32857153236464" lon="2.931027810433759"><ele>42.0</ele><time>2026-04-22T10:46:51.998Z</time></trkpt><trkpt lat="42.328375679960175" lon="2.9312927196912892"><ele>42.0</ele><time>2026-04-22T10:46:52.998Z</time></trkpt><trkpt lat="42.32817838884923" lon="2.9315596167005507"><ele>42.0</ele><time>2026-04-22T10:46:53.998Z</time></trkpt><trkpt lat="42.32798005418002" lon="2.9318279584235367"><ele>41.5</ele><time>2026-04-22T10:46:54.998Z</time></trkpt><trkpt lat="42.32778376827256" lon="2.9321144117904354"><ele>41.0</ele><time>2026-04-22T10:46:55.998Z</time></trkpt><trkpt lat="42.32757838865048" lon="2.9323591291876228"><ele>40.5</ele><time>2026-04-22T10:46:56.998Z</time></trkpt><trkpt lat="42.327389508694544" lon="2.9325912210554326"><ele>40.0</ele><time>2026-04-22T10:46:57.998Z</time></trkpt><trkpt lat="42.3271891001893" lon="2.932789537612695"><ele>41.5</ele><time>2026-04-22T10:46:58.998Z</time></trkpt><trkpt lat="42.32697116144257" lon="2.932962337358831"><ele>43.0</ele><time>2026-04-22T10:46:59.998Z</time></trkpt><trkpt lat="42.326734984230654" lon="2.9331025770733676"><ele>43.0</ele><time>2026-04-22T10:47:00.998Z</time></trkpt><trkpt lat="42.326484211736734" lon="2.9332058023220626"><ele>43.0</ele><time>2026-04-22T10:47:01.998Z</time></trkpt><trkpt lat="42.3262310094769" lon="2.9332645264342845"><ele>42.5</ele><time>2026-04-22T10:47:02.998Z</time></trkpt><trkpt lat="42.32596372907552" lon="2.9332882768388444"><ele>42.0</ele><time>2026-04-22T10:47:03.998Z</time></trkpt><trkpt lat="42.32568963949151" lon="2.933287065832056"><ele>42.5</ele><time>2026-04-22T10:47:04.998Z</time></trkpt><trkpt lat="42.325408068747876" lon="2.9332564774714234"><ele>43.0</ele><time>2026-04-22T10:47:06Z</time></trkpt><trkpt lat="42.32511856101036" lon="2.9332303432801154"><ele>43.0</ele><time>2026-04-22T10:47:07Z</time></trkpt><trkpt lat="42.32482708222656" lon="2.9331974466167043"><ele>43.0</ele><time>2026-04-22T10:47:08Z</time></trkpt><trkpt lat="42.32453421432894" lon="2.9331617979016094"><ele>41.5</ele><time>2026-04-22T10:47:09Z</time></trkpt><trkpt lat="42.32425534109211" lon="2.933127852660777"><ele>40.0</ele><time>2026-04-22T10:47:10Z</time></trkpt><trkpt lat="42.32399127759578" lon="2.9331158453680586"><ele>41.5</ele><time>2026-04-22T10:47:11Z</time></trkpt><trkpt lat="42.323742502746846" lon="2.933077243613737"><ele>43.0</ele><time>2026-04-22T10:47:12Z</time></trkpt><trkpt lat="42.32349120042157" lon="2.9330356928585792"><ele>43.0</ele><time>2026-04-22T10:47:13Z</time></trkpt><trkpt lat="42.323257593800946" lon="2.9329928014687283"><ele>43.0</ele><time>2026-04-22T10:47:14Z</time></trkpt><trkpt lat="42.323018492978896" lon="2.9329404263667853"><ele>44.0</ele><time>2026-04-22T10:47:15Z</time></trkpt><trkpt lat="42.32278955120132" lon="2.9328564399515304"><ele>45.0</ele><time>2026-04-22T10:47:16Z</time></trkpt><trkpt lat="42.32256634381309" lon="2.93272683335634"><ele>45.0</ele><time>2026-04-22T10:47:17Z</time></trkpt><trkpt lat="42.322352854832005" lon="2.9325583413204765"><ele>45.0</ele><time>2026-04-22T10:47:18Z</time></trkpt><trkpt lat="42.32213986556367" lon="2.9323751087171486"><ele>44.5</ele><time>2026-04-22T10:47:19Z</time></trkpt><trkpt lat="42.32192385180311" lon="2.9321993800041897"><ele>44.0</ele><time>2026-04-22T10:47:20Z</time></trkpt><trkpt lat="42.321710776684256" lon="2.9320334817240368"><ele>44.0</ele><time>2026-04-22T10:47:21Z</time></trkpt><trkpt lat="42.32150341577262" lon="2.931869393892085"><ele>44.0</ele><time>2026-04-22T10:47:22Z</time></trkpt><trkpt lat="42.32131140464052" lon="2.931712092022907"><ele>45.0</ele><time>2026-04-22T10:47:23Z</time></trkpt><trkpt lat="42.32112896866656" lon="2.9315656821177347"><ele>46.0</ele><time>2026-04-22T10:47:24Z</time></trkpt><trkpt lat="42.32094798367582" lon="2.931441800802948"><ele>47.0</ele><time>2026-04-22T10:47:25Z</time></trkpt><trkpt lat="42.32076975616552" lon="2.9313527375683597"><ele>47.0</ele><time>2026-04-22T10:47:26Z</time></trkpt><trkpt lat="42.3205900940005" lon="2.9312852279054558"><ele>47.0</ele><time>2026-04-22T10:47:27Z</time></trkpt><trkpt lat="42.32041431214054" lon="2.9312449291166636"><ele>47.0</ele><time>2026-04-22T10:47:28Z</time></trkpt><trkpt lat="42.32024515011743" lon="2.93122964910255"><ele>46.666666666666664</ele><time>2026-04-22T10:47:29Z</time></trkpt><trkpt lat="42.32008282964826" lon="2.931234226903418"><ele>46.333333333333336</ele><time>2026-04-22T10:47:30Z</time></trkpt><trkpt lat="42.31992642498743" lon="2.931242007057174"><ele>46.0</ele><time>2026-04-22T10:47:31Z</time></trkpt><trkpt lat="42.31978292179776" lon="2.931262117616007"><ele>46.0</ele><time>2026-04-22T10:47:32Z</time></trkpt><trkpt lat="42.31966386423588" lon="2.931290863399023"><ele>46.0</ele><time>2026-04-22T10:47:33Z</time></trkpt><trkpt lat="42.319576683970624" lon="2.9313188557720675"><ele>46.0</ele><time>2026-04-22T10:47:34Z</time></trkpt><trkpt lat="42.319480605101695" lon="2.9313297913995844"><ele>46.0</ele><time>2026-04-22T10:47:36Z</time></trkpt><trkpt lat="42.319402490879945" lon="2.931267122391533"><ele>46.0</ele><time>2026-04-22T10:47:38Z</time></trkpt><trkpt lat="42.319338419414855" lon="2.93117903456426"><ele>46.0</ele><time>2026-04-22T10:47:40Z</time></trkpt><trkpt lat="42.319235609196454" lon="2.931095847870049"><ele>46.0</ele><time>2026-04-22T10:47:42Z</time></trkpt><trkpt lat="42.31917463453616" lon="2.9310700001346066"><ele>46.0</ele><time>2026-04-22T10:47:43Z</time></trkpt><trkpt lat="42.319065538759695" lon="2.9310686389980862"><ele>46.0</ele><time>2026-04-22T10:47:45Z</time></trkpt><trkpt lat="42.31895837955149" lon="2.9311102048848503"><ele>46.0</ele><time>2026-04-22T10:47:47Z</time></trkpt><trkpt lat="42.3189008181518" lon="2.9311500433687048"><ele>46.199999999999996</ele><time>2026-04-22T10:47:48Z</time></trkpt><trkpt lat="42.318800682362465" lon="2.9312479603122017"><ele>46.4</ele><time>2026-04-22T10:47:49.999Z</time></trkpt><trkpt lat="42.318749063339695" lon="2.9313096264475593"><ele>46.6</ele><time>2026-04-22T10:47:50.999Z</time></trkpt><trkpt lat="42.31872486726908" lon="2.931395805279561"><ele>46.8</ele><time>2026-04-22T10:47:51.999Z</time></trkpt><trkpt lat="42.318607142905904" lon="2.931397830536767"><ele>47.0</ele><time>2026-04-22T10:47:52.999Z</time></trkpt><trkpt lat="42.31851762571625" lon="2.931410591630667"><ele>47.0</ele><time>2026-04-22T10:47:53.999Z</time></trkpt><trkpt lat="42.31841897312715" lon="2.931403609433605"><ele>47.0</ele><time>2026-04-22T10:47:54.999Z</time></trkpt><trkpt lat="42.31832044860743" lon="2.931384953785047"><ele>47.0</ele><time>2026-04-22T10:47:55.999Z</time></trkpt><trkpt lat="42.31820878675888" lon="2.93136713876812"><ele>47.0</ele><time>2026-04-22T10:47:56.999Z</time></trkpt><trkpt lat="42.318095189688385" lon="2.931362588507494"><ele>47.0</ele><time>2026-04-22T10:47:57.999Z</time></trkpt><trkpt lat="42.31798153856064" lon="2.931358819034925"><ele>47.5</ele><time>2026-04-22T10:47:58.999Z</time></trkpt><trkpt lat="42.3178662160036" lon="2.931357600187396"><ele>48.0</ele><time>2026-04-22T10:47:59.999Z</time></trkpt><trkpt lat="42.317749277832114" lon="2.931365563880485"><ele>48.5</ele><time>2026-04-22T10:48:00.999Z</time></trkpt><trkpt lat="42.31762782581143" lon="2.9313774190359654"><ele>49.0</ele><time>2026-04-22T10:48:01.999Z</time></trkpt><trkpt lat="42.317506798980595" lon="2.9313903539232045"><ele>49.0</ele><time>2026-04-22T10:48:02.999Z</time></trkpt><trkpt lat="42.31738103447718" lon="2.9314100731067123"><ele>49.0</ele><time>2026-04-22T10:48:03.999Z</time></trkpt><trkpt lat="42.31725094758987" lon="2.931430564954528"><ele>49.0</ele><time>2026-04-22T10:48:04.999Z</time></trkpt><trkpt lat="42.31711725440188" lon="2.9314465051646734"><ele>49.0</ele><time>2026-04-22T10:48:05.999Z</time></trkpt><trkpt lat="42.316983925995736" lon="2.931465940253263"><ele>48.75</ele><time>2026-04-22T10:48:06.999Z</time></trkpt><trkpt lat="42.316856228477725" lon="2.9314840136288027"><ele>48.5</ele><time>2026-04-22T10:48:07.999Z</time></trkpt><trkpt lat="42.31672119350834" lon="2.93150361920276"><ele>48.25</ele><time>2026-04-22T10:48:08.999Z</time></trkpt><trkpt lat="42.316583847954114" lon="2.9315265921974016"><ele>48.0</ele><time>2026-04-22T10:48:09.999Z</time></trkpt><trkpt lat="42.316444429654986" lon="2.9315462118713747"><ele>48.0</ele><time>2026-04-22T10:48:10.999Z</time></trkpt><trkpt lat="42.316307156925255" lon="2.9315660987744745"><ele>48.0</ele><time>2026-04-22T10:48:11.999Z</time></trkpt><trkpt lat="42.31617161511823" lon="2.9315880384563395"><ele>48.0</ele><time>2026-04-22T10:48:12.999Z</time></trkpt><trkpt lat="42.31603138523872" lon="2.931613147198835"><ele>48.0</ele><time>2026-04-22T10:48:13.999Z</time></trkpt><trkpt lat="42.315897683208924" lon="2.9316319777028528"><ele>48.0</ele><time>2026-04-22T10:48:14.999Z</time></trkpt><trkpt lat="42.315767219401465" lon="2.9316483276878045"><ele>48.0</ele><time>2026-04-22T10:48:15.999Z</time></trkpt><trkpt lat="42.31563689473245" lon="2.93166614075206"><ele>48.0</ele><time>2026-04-22T10:48:16.999Z</time></trkpt><trkpt lat="42.315506445577306" lon="2.931684654354423"><ele>48.0</ele><time>2026-04-22T10:48:17.999Z</time></trkpt><trkpt lat="42.31537829264096" lon="2.931699003270468"><ele>48.0</ele><time>2026-04-22T10:48:18.999Z</time></trkpt><trkpt lat="42.31524287946438" lon="2.931714233282755"><ele>48.0</ele><time>2026-04-22T10:48:19.999Z</time></trkpt><trkpt lat="42.31511127295623" lon="2.931736411573978"><ele>48.0</ele><time>2026-04-22T10:48:20.999Z</time></trkpt><trkpt lat="42.31497036150961" lon="2.9317607977990883"><ele>48.0</ele><time>2026-04-22T10:48:21.999Z</time></trkpt><trkpt lat="42.31481473523853" lon="2.931784794859681"><ele>45.0</ele><time>2026-04-22T10:48:22.999Z</time></trkpt><trkpt lat="42.31463208094384" lon="2.9318153901062463"><ele>42.0</ele><time>2026-04-22T10:48:23.999Z</time></trkpt><trkpt lat="42.31443138601863" lon="2.9318331025396014"><ele>39.0</ele><time>2026-04-22T10:48:24.999Z</time></trkpt><trkpt lat="42.31423207511449" lon="2.9318610959224976"><ele>39.0</ele><time>2026-04-22T10:48:25.999Z</time></trkpt><trkpt lat="42.314020658652744" lon="2.931890681891924"><ele>39.0</ele><time>2026-04-22T10:48:26.999Z</time></trkpt><trkpt lat="42.313806984301316" lon="2.9319187275837346"><ele>39.0</ele><time>2026-04-22T10:48:27.999Z</time></trkpt><trkpt lat="42.313586688185815" lon="2.931947577511885"><ele>39.0</ele><time>2026-04-22T10:48:28.999Z</time></trkpt><trkpt lat="42.31337006282555" lon="2.9319766484238676"><ele>39.0</ele><time>2026-04-22T10:48:29.999Z</time></trkpt><trkpt lat="42.31316325526825" lon="2.932006473150064"><ele>39.0</ele><time>2026-04-22T10:48:30.999Z</time></trkpt><trkpt lat="42.31297175320712" lon="2.9320323809828825"><ele>39.333333333333336</ele><time>2026-04-22T10:48:31.999Z</time></trkpt><trkpt lat="42.3127979838704" lon="2.9320559665463946"><ele>39.66666666666667</ele><time>2026-04-22T10:48:32.999Z</time></trkpt><trkpt lat="42.31264959101546" lon="2.9320915441136175"><ele>40.0</ele><time>2026-04-22T10:48:33.999Z</time></trkpt><trkpt lat="42.31252395595324" lon="2.932089697113154"><ele>40.0</ele><time>2026-04-22T10:48:34.999Z</time></trkpt><trkpt lat="42.312422890911634" lon="2.932087870098725"><ele>40.0</ele><time>2026-04-22T10:48:35.999Z</time></trkpt><trkpt lat="42.31234394467921" lon="2.932083593383318"><ele>40.0</ele><time>2026-04-22T10:48:36.999Z</time></trkpt><trkpt lat="42.31227353365038" lon="2.9320775098101857"><ele>40.0</ele><time>2026-04-22T10:48:37.999Z</time></trkpt><trkpt lat="42.31220869378234" lon="2.9320558098177196"><ele>40.0</ele><time>2026-04-22T10:48:38.999Z</time></trkpt><trkpt lat="42.312106840900405" lon="2.931969617638818"><ele>40.0</ele><time>2026-04-22T10:48:40.999Z</time></trkpt><trkpt lat="42.3120143889118" lon="2.931876657828763"><ele>40.4</ele><time>2026-04-22T10:48:42.999Z</time></trkpt><trkpt lat="42.31190928432376" lon="2.9318305190838214"><ele>40.8</ele><time>2026-04-22T10:48:44.999Z</time></trkpt><trkpt lat="42.31179052260355" lon="2.9318760260891357"><ele>41.2</ele><time>2026-04-22T10:48:46.999Z</time></trkpt><trkpt lat="42.311738236790184" lon="2.9319324787853596"><ele>41.6</ele><time>2026-04-22T10:48:47.999Z</time></trkpt><trkpt lat="42.31169245497248" lon="2.932001002363647"><ele>42.0</ele><time>2026-04-22T10:48:48.999Z</time></trkpt><trkpt lat="42.31164660274149" lon="2.932095445370503"><ele>42.0</ele><time>2026-04-22T10:48:49.999Z</time></trkpt><trkpt lat="42.3115715693429" lon="2.9322093469379005"><ele>42.0</ele><time>2026-04-22T10:48:50.998Z</time></trkpt><trkpt lat="42.31145052288433" lon="2.9322641259187083"><ele>42.0</ele><time>2026-04-22T10:48:51.998Z</time></trkpt><trkpt lat="42.311341115787286" lon="2.9323392222460654"><ele>42.0</ele><time>2026-04-22T10:48:52.998Z</time></trkpt><trkpt lat="42.3112072633245" lon="2.932442308679763"><ele>41.333333333333336</ele><time>2026-04-22T10:48:53.998Z</time></trkpt><trkpt lat="42.31105344529356" lon="2.9325704597582978"><ele>40.66666666666667</ele><time>2026-04-22T10:48:54.998Z</time></trkpt><trkpt lat="42.31088525229453" lon="2.9327173188403597"><ele>40.0</ele><time>2026-04-22T10:48:55.998Z</time></trkpt><trkpt lat="42.31071091375486" lon="2.9328917477029104"><ele>40.5</ele><time>2026-04-22T10:48:56.998Z</time></trkpt><trkpt lat="42.31052487575226" lon="2.933067237218791"><ele>41.0</ele><time>2026-04-22T10:48:57.998Z</time></trkpt><trkpt lat="42.31033275182018" lon="2.9332618689205634"><ele>40.5</ele><time>2026-04-22T10:48:58.998Z</time></trkpt><trkpt lat="42.310136767278145" lon="2.933460416628152"><ele>40.0</ele><time>2026-04-22T10:48:59.998Z</time></trkpt><trkpt lat="42.3099345329156" lon="2.9336556856248586"><ele>40.5</ele><time>2026-04-22T10:49:00.998Z</time></trkpt><trkpt lat="42.30972529451344" lon="2.933857597175572"><ele>41.0</ele><time>2026-04-22T10:49:01.998Z</time></trkpt><trkpt lat="42.309509707301046" lon="2.9340692804788886"><ele>40.5</ele><time>2026-04-22T10:49:02.998Z</time></trkpt><trkpt lat="42.3092884119415" lon="2.9342853726131777"><ele>40.0</ele><time>2026-04-22T10:49:03.998Z</time></trkpt><trkpt lat="42.30906227845511" lon="2.9345006007158463"><ele>41.0</ele><time>2026-04-22T10:49:04.998Z</time></trkpt><trkpt lat="42.30883168637963" lon="2.934722604339013"><ele>42.0</ele><time>2026-04-22T10:49:05.998Z</time></trkpt><trkpt lat="42.30861388272134" lon="2.934955790679145"><ele>40.5</ele><time>2026-04-22T10:49:06.998Z</time></trkpt><trkpt lat="42.308374338633925" lon="2.935174752539556"><ele>39.0</ele><time>2026-04-22T10:49:07.998Z</time></trkpt><trkpt lat="42.30814175374521" lon="2.9354078015932394"><ele>40.0</ele><time>2026-04-22T10:49:08.998Z</time></trkpt><trkpt lat="42.30790924250432" lon="2.935642438731398"><ele>41.0</ele><time>2026-04-22T10:49:09.998Z</time></trkpt><trkpt lat="42.30769240513321" lon="2.9358627015653296"><ele>40.5</ele><time>2026-04-22T10:49:10.998Z</time></trkpt><trkpt lat="42.30749779745048" lon="2.9360782499441274"><ele>40.0</ele><time>2026-04-22T10:49:12Z</time></trkpt><trkpt lat="42.307299562625154" lon="2.9362675606116544"><ele>41.0</ele><time>2026-04-22T10:49:13Z</time></trkpt><trkpt lat="42.30711741373221" lon="2.936448199930335"><ele>42.0</ele><time>2026-04-22T10:49:14Z</time></trkpt><trkpt lat="42.306952862012395" lon="2.9366230541373244"><ele>43.0</ele><time>2026-04-22T10:49:15Z</time></trkpt><trkpt lat="42.30680467887776" lon="2.9367805844977433"><ele>43.0</ele><time>2026-04-22T10:49:16Z</time></trkpt><trkpt lat="42.30665389727984" lon="2.9368926728461155"><ele>43.0</ele><time>2026-04-22T10:49:17Z</time></trkpt><trkpt lat="42.30652327773569" lon="2.9370114175157664"><ele>43.0</ele><time>2026-04-22T10:49:18Z</time></trkpt><trkpt lat="42.30639431804993" lon="2.937121523090949"><ele>43.25</ele><time>2026-04-22T10:49:19Z</time></trkpt><trkpt lat="42.306266625025344" lon="2.9372242975997853"><ele>43.5</ele><time>2026-04-22T10:49:20Z</time></trkpt><trkpt lat="42.30614538755276" lon="2.937318064129825"><ele>43.75</ele><time>2026-04-22T10:49:21Z</time></trkpt><trkpt lat="42.306018612798916" lon="2.9374096128478184"><ele>44.0</ele><time>2026-04-22T10:49:22Z</time></trkpt><trkpt lat="42.30588344960856" lon="2.937503453578962"><ele>43.666666666666664</ele><time>2026-04-22T10:49:23Z</time></trkpt><trkpt lat="42.30574574383228" lon="2.937593630821598"><ele>43.333333333333336</ele><time>2026-04-22T10:49:24Z</time></trkpt><trkpt lat="42.305609433910156" lon="2.93768003253162"><ele>43.0</ele><time>2026-04-22T10:49:25Z</time></trkpt><trkpt lat="42.305474319697424" lon="2.93776116202056"><ele>43.0</ele><time>2026-04-22T10:49:26Z</time></trkpt><trkpt lat="42.30533623549911" lon="2.9378386520657087"><ele>43.0</ele><time>2026-04-22T10:49:27Z</time></trkpt><trkpt lat="42.30519733851833" lon="2.9379153026089333"><ele>43.0</ele><time>2026-04-22T10:49:28Z</time></trkpt><trkpt lat="42.30506307304361" lon="2.9380079428162347"><ele>43.0</ele><time>2026-04-22T10:49:29Z</time></trkpt><trkpt lat="42.30492212352554" lon="2.938081670769107"><ele>43.0</ele><time>2026-04-22T10:49:30Z</time></trkpt><trkpt lat="42.30476849609717" lon="2.9381624954185015"><ele>43.0</ele><time>2026-04-22T10:49:31Z</time></trkpt><trkpt lat="42.30460608102683" lon="2.9382466787437402"><ele>43.0</ele><time>2026-04-22T10:49:32Z</time></trkpt><trkpt lat="42.30445751065015" lon="2.9382988669884673"><ele>43.0</ele><time>2026-04-22T10:49:33Z</time></trkpt><trkpt lat="42.30431880722288" lon="2.9383860714277836"><ele>43.0</ele><time>2026-04-22T10:49:34Z</time></trkpt><trkpt lat="42.304180743630624" lon="2.93845331888891"><ele>42.66666666666667</ele><time>2026-04-22T10:49:35Z</time></trkpt><trkpt lat="42.304041455299334" lon="2.9385289540101676"><ele>42.333333333333336</ele><time>2026-04-22T10:49:36Z</time></trkpt><trkpt lat="42.30388009785776" lon="2.9385921869154292"><ele>42.0</ele><time>2026-04-22T10:49:37Z</time></trkpt><trkpt lat="42.30371359285048" lon="2.9386763180913182"><ele>42.0</ele><time>2026-04-22T10:49:38Z</time></trkpt><trkpt lat="42.30354168103467" lon="2.938763642578706"><ele>42.0</ele><time>2026-04-22T10:49:39Z</time></trkpt><trkpt lat="42.30338013584907" lon="2.9388436005204945"><ele>42.0</ele><time>2026-04-22T10:49:40Z</time></trkpt><trkpt lat="42.30322068539441" lon="2.9389213598197204"><ele>41.666666666666664</ele><time>2026-04-22T10:49:41Z</time></trkpt><trkpt lat="42.30306552818147" lon="2.9390275298275865"><ele>41.33333333333333</ele><time>2026-04-22T10:49:42Z</time></trkpt><trkpt lat="42.302894292400744" lon="2.939098325320821"><ele>41.0</ele><time>2026-04-22T10:49:43Z</time></trkpt><trkpt lat="42.302721771660345" lon="2.9391664174524257"><ele>41.0</ele><time>2026-04-22T10:49:44Z</time></trkpt><trkpt lat="42.30254891793893" lon="2.939230352323695"><ele>41.0</ele><time>2026-04-22T10:49:45Z</time></trkpt><trkpt lat="42.30237049507964" lon="2.9392563675293677"><ele>41.0</ele><time>2026-04-22T10:49:46Z</time></trkpt><trkpt lat="42.302201850980474" lon="2.9393170788987795"><ele>41.33333333333333</ele><time>2026-04-22T10:49:47Z</time></trkpt><trkpt lat="42.302034568708024" lon="2.93937894213277"><ele>41.666666666666664</ele><time>2026-04-22T10:49:48Z</time></trkpt><trkpt lat="42.301867775880766" lon="2.9394420854397656"><ele>42.0</ele><time>2026-04-22T10:49:49Z</time></trkpt><trkpt lat="42.30170211675053" lon="2.939508609471508"><ele>42.0</ele><time>2026-04-22T10:49:50Z</time></trkpt><trkpt lat="42.301537520622134" lon="2.939576023995723"><ele>42.0</ele><time>2026-04-22T10:49:51Z</time></trkpt><trkpt lat="42.30137289406722" lon="2.939643450920616"><ele>42.0</ele><time>2026-04-22T10:49:52Z</time></trkpt><trkpt lat="42.3012077236049" lon="2.9397111006154493"><ele>42.0</ele><time>2026-04-22T10:49:53Z</time></trkpt><trkpt lat="42.301060792216596" lon="2.9398586558489974"><ele>42.0</ele><time>2026-04-22T10:49:54Z</time></trkpt><trkpt lat="42.30090252695202" lon="2.93994390743424"><ele>42.0</ele><time>2026-04-22T10:49:54.999Z</time></trkpt><trkpt lat="42.30074483486895" lon="2.940028329359834"><ele>42.333333333333336</ele><time>2026-04-22T10:49:55.999Z</time></trkpt><trkpt lat="42.300585178644425" lon="2.940115219324005"><ele>42.66666666666667</ele><time>2026-04-22T10:49:56.999Z</time></trkpt><trkpt lat="42.300423015044764" lon="2.940201028413667"><ele>43.0</ele><time>2026-04-22T10:49:57.999Z</time></trkpt><trkpt lat="42.300262432267296" lon="2.9402883243725677"><ele>42.66666666666667</ele><time>2026-04-22T10:49:58.999Z</time></trkpt><trkpt lat="42.30009922739017" lon="2.9403836448095317"><ele>42.333333333333336</ele><time>2026-04-22T10:49:59.999Z</time></trkpt><trkpt lat="42.299923217147324" lon="2.940487656835627"><ele>42.0</ele><time>2026-04-22T10:50:00.999Z</time></trkpt><trkpt lat="42.29972088471425" lon="2.9406006766491197"><ele>42.0</ele><time>2026-04-22T10:50:01.999Z</time></trkpt><trkpt lat="42.29950489778974" lon="2.9406927427649983"><ele>42.0</ele><time>2026-04-22T10:50:02.999Z</time></trkpt><trkpt lat="42.299300566629235" lon="2.9407934415129438"><ele>42.0</ele><time>2026-04-22T10:50:03.999Z</time></trkpt><trkpt lat="42.299109315956116" lon="2.9408878288860887"><ele>41.666666666666664</ele><time>2026-04-22T10:50:04.999Z</time></trkpt><trkpt lat="42.29892626073553" lon="2.940976372891665"><ele>41.33333333333333</ele><time>2026-04-22T10:50:05.999Z</time></trkpt><trkpt lat="42.29874879287114" lon="2.9410634284355752"><ele>41.0</ele><time>2026-04-22T10:50:06.999Z</time></trkpt><trkpt lat="42.29857544574099" lon="2.94114636814653"><ele>41.0</ele><time>2026-04-22T10:50:07.999Z</time></trkpt><trkpt lat="42.298407902806495" lon="2.9412262571912273"><ele>41.0</ele><time>2026-04-22T10:50:08.999Z</time></trkpt><trkpt lat="42.29825132443606" lon="2.9413030194297622"><ele>41.0</ele><time>2026-04-22T10:50:09.999Z</time></trkpt><trkpt lat="42.298106490455176" lon="2.941371589623432"><ele>41.5</ele><time>2026-04-22T10:50:10.999Z</time></trkpt><trkpt lat="42.29796828145256" lon="2.941430665825848"><ele>42.0</ele><time>2026-04-22T10:50:11.999Z</time></trkpt><trkpt lat="42.29783180106914" lon="2.9414847052526136"><ele>42.5</ele><time>2026-04-22T10:50:12.999Z</time></trkpt><trkpt lat="42.297688494499155" lon="2.941534698440953"><ele>43.0</ele><time>2026-04-22T10:50:13.999Z</time></trkpt><trkpt lat="42.297546845489" lon="2.941591154314634"><ele>43.0</ele><time>2026-04-22T10:50:14.999Z</time></trkpt><trkpt lat="42.297405410361726" lon="2.9416484332928183"><ele>43.0</ele><time>2026-04-22T10:50:15.999Z</time></trkpt><trkpt lat="42.29725700227142" lon="2.9417062406830374"><ele>43.0</ele><time>2026-04-22T10:50:16.999Z</time></trkpt><trkpt lat="42.297100868226195" lon="2.9417604937137316"><ele>42.333333333333336</ele><time>2026-04-22T10:50:17.999Z</time></trkpt><trkpt lat="42.29693823169248" lon="2.941824076363911"><ele>41.666666666666664</ele><time>2026-04-22T10:50:18.999Z</time></trkpt><trkpt lat="42.29677134815515" lon="2.9418837282740564"><ele>41.0</ele><time>2026-04-22T10:50:19.999Z</time></trkpt><trkpt lat="42.29659762856369" lon="2.9419724742741336"><ele>41.0</ele><time>2026-04-22T10:50:20.999Z</time></trkpt><trkpt lat="42.29644014917253" lon="2.942031318555544"><ele>41.0</ele><time>2026-04-22T10:50:21.999Z</time></trkpt><trkpt lat="42.29629461247898" lon="2.942081277938478"><ele>41.0</ele><time>2026-04-22T10:50:22.999Z</time></trkpt><trkpt lat="42.29613299452216" lon="2.94214753070696"><ele>41.33333333333333</ele><time>2026-04-22T10:50:23.999Z</time></trkpt><trkpt lat="42.29597019081995" lon="2.9422208237067577"><ele>41.666666666666664</ele><time>2026-04-22T10:50:24.999Z</time></trkpt><trkpt lat="42.295815342832704" lon="2.942288809589585"><ele>42.0</ele><time>2026-04-22T10:50:25.999Z</time></trkpt><trkpt lat="42.2956719646325" lon="2.9423579712480348"><ele>42.0</ele><time>2026-04-22T10:50:26.999Z</time></trkpt><trkpt lat="42.29553552232498" lon="2.9424322492352055"><ele>42.0</ele><time>2026-04-22T10:50:27.999Z</time></trkpt><trkpt lat="42.2954078247727" lon="2.9425119885407867"><ele>42.0</ele><time>2026-04-22T10:50:28.999Z</time></trkpt><trkpt lat="42.2952765819901" lon="2.9425971212925988"><ele>42.0</ele><time>2026-04-22T10:50:29.999Z</time></trkpt><trkpt lat="42.295145100355114" lon="2.9426765645901107"><ele>42.0</ele><time>2026-04-22T10:50:30.999Z</time></trkpt><trkpt lat="42.2950228424544" lon="2.942755538176835"><ele>42.0</ele><time>2026-04-22T10:50:31.999Z</time></trkpt><trkpt lat="42.29490714660531" lon="2.9428424171801764"><ele>42.0</ele><time>2026-04-22T10:50:32.999Z</time></trkpt><trkpt lat="42.29480571908645" lon="2.9429443773512833"><ele>42.0</ele><time>2026-04-22T10:50:33.999Z</time></trkpt><trkpt lat="42.2947114171686" lon="2.94305370271714"><ele>42.25</ele><time>2026-04-22T10:50:34.999Z</time></trkpt><trkpt lat="42.29461289288835" lon="2.9431722189480944"><ele>42.5</ele><time>2026-04-22T10:50:35.999Z</time></trkpt><trkpt lat="42.29450671520862" lon="2.9432939060751053"><ele>42.75</ele><time>2026-04-22T10:50:36.999Z</time></trkpt><trkpt lat="42.29440054748383" lon="2.94341918670377"><ele>43.0</ele><time>2026-04-22T10:50:37.999Z</time></trkpt><trkpt lat="42.29429484655403" lon="2.943545216341188"><ele>43.0</ele><time>2026-04-22T10:50:38.999Z</time></trkpt><trkpt lat="42.29418149838987" lon="2.9436749836076763"><ele>43.0</ele><time>2026-04-22T10:50:39.999Z</time></trkpt><trkpt lat="42.294074148396895" lon="2.943795999014768"><ele>43.0</ele><time>2026-04-22T10:50:40.999Z</time></trkpt><trkpt lat="42.29396946768981" lon="2.9439019448102193"><ele>43.0</ele><time>2026-04-22T10:50:41.999Z</time></trkpt><trkpt lat="42.293858852401186" lon="2.9439910888701077"><ele>42.5</ele><time>2026-04-22T10:50:42.999Z</time></trkpt><trkpt lat="42.293739994931634" lon="2.944072290600333"><ele>42.0</ele><time>2026-04-22T10:50:43.999Z</time></trkpt><trkpt lat="42.29361126018601" lon="2.944154164878967"><ele>41.5</ele><time>2026-04-22T10:50:44.999Z</time></trkpt><trkpt lat="42.29346871005322" lon="2.944231402594204"><ele>41.0</ele><time>2026-04-22T10:50:45.999Z</time></trkpt><trkpt lat="42.29331812171953" lon="2.9442988263733745"><ele>40.666666666666664</ele><time>2026-04-22T10:50:46.999Z</time></trkpt><trkpt lat="42.29316749819503" lon="2.9443648711294745"><ele>40.333333333333336</ele><time>2026-04-22T10:50:47.999Z</time></trkpt><trkpt lat="42.293015760087236" lon="2.944440966792062"><ele>40.0</ele><time>2026-04-22T10:50:48.999Z</time></trkpt><trkpt lat="42.29285648783711" lon="2.944513494997913"><ele>40.0</ele><time>2026-04-22T10:50:49.999Z</time></trkpt><trkpt lat="42.29269584936648" lon="2.94457010757839"><ele>40.0</ele><time>2026-04-22T10:50:50.999Z</time></trkpt><trkpt lat="42.292541025246656" lon="2.9446166648387857"><ele>40.0</ele><time>2026-04-22T10:50:51.999Z</time></trkpt><trkpt lat="42.29239804778914" lon="2.944661362092925"><ele>40.0</ele><time>2026-04-22T10:50:52.999Z</time></trkpt><trkpt lat="42.29226096381576" lon="2.944714242925996"><ele>40.0</ele><time>2026-04-22T10:50:53.999Z</time></trkpt><trkpt lat="42.29212047879887" lon="2.9447791415142315"><ele>40.0</ele><time>2026-04-22T10:50:54.999Z</time></trkpt><trkpt lat="42.29197296728344" lon="2.9448368422503752"><ele>40.0</ele><time>2026-04-22T10:50:55.998Z</time></trkpt><trkpt lat="42.29181871018684" lon="2.944889957897684"><ele>40.0</ele><time>2026-04-22T10:50:56.998Z</time></trkpt><trkpt lat="42.29166191087346" lon="2.9449379246778182"><ele>40.0</ele><time>2026-04-22T10:50:57.998Z</time></trkpt><trkpt lat="42.29151365110509" lon="2.944971947932657"><ele>40.0</ele><time>2026-04-22T10:50:58.998Z</time></trkpt><trkpt lat="42.291365157374344" lon="2.944989570824298"><ele>40.0</ele><time>2026-04-22T10:50:59.998Z</time></trkpt><trkpt lat="42.291215792082426" lon="2.9450079246471206"><ele>40.0</ele><time>2026-04-22T10:51:00.998Z</time></trkpt><trkpt lat="42.29106814458353" lon="2.9450366654354667"><ele>40.0</ele><time>2026-04-22T10:51:01.998Z</time></trkpt><trkpt lat="42.290923556047396" lon="2.9450675788246086"><ele>40.0</ele><time>2026-04-22T10:51:02.998Z</time></trkpt><trkpt lat="42.29078602821013" lon="2.945093823330995"><ele>39.75</ele><time>2026-04-22T10:51:03.998Z</time></trkpt><trkpt lat="42.29065584916572" lon="2.945120235253892"><ele>39.5</ele><time>2026-04-22T10:51:04.998Z</time></trkpt><trkpt lat="42.290522726016135" lon="2.9451464384154664"><ele>39.25</ele><time>2026-04-22T10:51:05.998Z</time></trkpt><trkpt lat="42.2903814716152" lon="2.945176152546048"><ele>39.0</ele><time>2026-04-22T10:51:06.998Z</time></trkpt><trkpt lat="42.290249995613614" lon="2.945206521267591"><ele>39.5</ele><time>2026-04-22T10:51:07.998Z</time></trkpt><trkpt lat="42.29011225783762" lon="2.945205477271193"><ele>40.0</ele><time>2026-04-22T10:51:08.998Z</time></trkpt><trkpt lat="42.28998905916537" lon="2.9452679051213964"><ele>40.5</ele><time>2026-04-22T10:51:09.998Z</time></trkpt><trkpt lat="42.28987206338534" lon="2.945308793650563"><ele>41.0</ele><time>2026-04-22T10:51:10.998Z</time></trkpt><trkpt lat="42.289756245019994" lon="2.945361117315262"><ele>41.5</ele><time>2026-04-22T10:51:11.998Z</time></trkpt><trkpt lat="42.28963700506705" lon="2.9454266889637"><ele>42.0</ele><time>2026-04-22T10:51:12.998Z</time></trkpt><trkpt lat="42.28951793424062" lon="2.9455015528325963"><ele>42.5</ele><time>2026-04-22T10:51:13.998Z</time></trkpt><trkpt lat="42.28939734486856" lon="2.9455851888701265"><ele>43.0</ele><time>2026-04-22T10:51:14.998Z</time></trkpt><trkpt lat="42.289280116896826" lon="2.9456732642146854"><ele>43.0</ele><time>2026-04-22T10:51:15.998Z</time></trkpt><trkpt lat="42.28916192876706" lon="2.945761128656919"><ele>43.0</ele><time>2026-04-22T10:51:16.998Z</time></trkpt><trkpt lat="42.28903320048076" lon="2.9458332753092864"><ele>43.0</ele><time>2026-04-22T10:51:18Z</time></trkpt><trkpt lat="42.288909799541415" lon="2.9459237555588262"><ele>43.0</ele><time>2026-04-22T10:51:19Z</time></trkpt><trkpt lat="42.288779826062736" lon="2.9460157643274405"><ele>42.333333333333336</ele><time>2026-04-22T10:51:20Z</time></trkpt><trkpt lat="42.28864666594556" lon="2.9461086185520777"><ele>41.666666666666664</ele><time>2026-04-22T10:51:21Z</time></trkpt><trkpt lat="42.28850776704761" lon="2.9462054745996635"><ele>41.0</ele><time>2026-04-22T10:51:22Z</time></trkpt><trkpt lat="42.28836874639054" lon="2.9462988556519383"><ele>41.0</ele><time>2026-04-22T10:51:23Z</time></trkpt><trkpt lat="42.28823486095257" lon="2.9464136006450055"><ele>41.0</ele><time>2026-04-22T10:51:24Z</time></trkpt><trkpt lat="42.288086814499536" lon="2.946487456479454"><ele>41.0</ele><time>2026-04-22T10:51:25Z</time></trkpt><trkpt lat="42.28794787659658" lon="2.9465766271308085"><ele>41.0</ele><time>2026-04-22T10:51:26Z</time></trkpt><trkpt lat="42.287808207325625" lon="2.94666626717766"><ele>41.0</ele><time>2026-04-22T10:51:27Z</time></trkpt><trkpt lat="42.28764919008377" lon="2.946768324778768"><ele>41.0</ele><time>2026-04-22T10:51:28Z</time></trkpt><trkpt lat="42.28747202790872" lon="2.9468830033470095"><ele>41.0</ele><time>2026-04-22T10:51:29Z</time></trkpt><trkpt lat="42.2872780088724" lon="2.9470098864401804"><ele>41.0</ele><time>2026-04-22T10:51:30Z</time></trkpt><trkpt lat="42.28707996338182" lon="2.9471394027327347"><ele>41.0</ele><time>2026-04-22T10:51:31Z</time></trkpt><trkpt lat="42.28688090774957" lon="2.9472825610807436"><ele>41.0</ele><time>2026-04-22T10:51:32Z</time></trkpt><trkpt lat="42.28668383127247" lon="2.9474071043531707"><ele>41.0</ele><time>2026-04-22T10:51:33Z</time></trkpt><trkpt lat="42.286494134937605" lon="2.947541119814863"><ele>41.0</ele><time>2026-04-22T10:51:34Z</time></trkpt><trkpt lat="42.28629005321521" lon="2.9476471066127754"><ele>40.33333333333333</ele><time>2026-04-22T10:51:35Z</time></trkpt><trkpt lat="42.28609982388108" lon="2.9477662571364496"><ele>39.666666666666664</ele><time>2026-04-22T10:51:36Z</time></trkpt><trkpt lat="42.28591954724148" lon="2.947876760807775"><ele>39.0</ele><time>2026-04-22T10:51:37Z</time></trkpt><trkpt lat="42.2857354112177" lon="2.9479876262795974"><ele>39.333333333333336</ele><time>2026-04-22T10:51:38Z</time></trkpt><trkpt lat="42.28553733834921" lon="2.9481017763267254"><ele>39.66666666666667</ele><time>2026-04-22T10:51:39Z</time></trkpt><trkpt lat="42.285328505230865" lon="2.9482220226038196"><ele>40.0</ele><time>2026-04-22T10:51:40Z</time></trkpt><trkpt lat="42.28510916124056" lon="2.9483482054708325"><ele>39.5</ele><time>2026-04-22T10:51:41Z</time></trkpt><trkpt lat="42.28487941609187" lon="2.9484823173485735"><ele>39.0</ele><time>2026-04-22T10:51:42Z</time></trkpt><trkpt lat="42.284648810986596" lon="2.9486301965862567"><ele>39.0</ele><time>2026-04-22T10:51:43Z</time></trkpt><trkpt lat="42.28440881264002" lon="2.9487706529111977"><ele>39.0</ele><time>2026-04-22T10:51:44Z</time></trkpt><trkpt lat="42.284163362704426" lon="2.948914221332355"><ele>39.5</ele><time>2026-04-22T10:51:45Z</time></trkpt><trkpt lat="42.28391359015474" lon="2.9490560686275575"><ele>40.0</ele><time>2026-04-22T10:51:46Z</time></trkpt><trkpt lat="42.28366704398992" lon="2.9491933669456927"><ele>40.0</ele><time>2026-04-22T10:51:47Z</time></trkpt><trkpt lat="42.283432145789135" lon="2.9493265019322585"><ele>40.0</ele><time>2026-04-22T10:51:48Z</time></trkpt><trkpt lat="42.28320023852886" lon="2.9494637935254366"><ele>38.5</ele><time>2026-04-22T10:51:49Z</time></trkpt><trkpt lat="42.282967522933845" lon="2.9495973419586226"><ele>37.0</ele><time>2026-04-22T10:51:50Z</time></trkpt><trkpt lat="42.282728619684555" lon="2.9497325997259516"><ele>37.0</ele><time>2026-04-22T10:51:51Z</time></trkpt><trkpt lat="42.28249101697779" lon="2.949875334826676"><ele>37.0</ele><time>2026-04-22T10:51:52Z</time></trkpt><trkpt lat="42.28225586591476" lon="2.950016322029299"><ele>35.5</ele><time>2026-04-22T10:51:53Z</time></trkpt><trkpt lat="42.28202391345781" lon="2.950151366973466"><ele>34.0</ele><time>2026-04-22T10:51:54Z</time></trkpt><trkpt lat="42.28179408485713" lon="2.950285219979596"><ele>34.0</ele><time>2026-04-22T10:51:55Z</time></trkpt><trkpt lat="42.28156350341224" lon="2.950417512572721"><ele>34.0</ele><time>2026-04-22T10:51:56Z</time></trkpt><trkpt lat="42.281330180898266" lon="2.9505532250559536"><ele>36.0</ele><time>2026-04-22T10:51:57Z</time></trkpt><trkpt lat="42.28109077006203" lon="2.950693075640702"><ele>38.0</ele><time>2026-04-22T10:51:58Z</time></trkpt><trkpt lat="42.28085095258755" lon="2.9508296138560106"><ele>36.0</ele><time>2026-04-22T10:51:59Z</time></trkpt><trkpt lat="42.28061117682998" lon="2.950968864998674"><ele>34.0</ele><time>2026-04-22T10:52:00Z</time></trkpt><trkpt lat="42.28037172179039" lon="2.951108539967416"><ele>33.5</ele><time>2026-04-22T10:52:00.999Z</time></trkpt><trkpt lat="42.28013407859983" lon="2.9512502678346677"><ele>33.0</ele><time>2026-04-22T10:52:01.999Z</time></trkpt><trkpt lat="42.27989821489533" lon="2.9513887003335006"><ele>34.5</ele><time>2026-04-22T10:52:02.999Z</time></trkpt><trkpt lat="42.27965982008287" lon="2.9515205284319617"><ele>36.0</ele><time>2026-04-22T10:52:03.999Z</time></trkpt><trkpt lat="42.27942043590797" lon="2.9516384479294704"><ele>34.0</ele><time>2026-04-22T10:52:04.999Z</time></trkpt><trkpt lat="42.27918115743964" lon="2.9517408349473753"><ele>32.0</ele><time>2026-04-22T10:52:05.999Z</time></trkpt><trkpt lat="42.27893806720899" lon="2.9518425953091367"><ele>32.0</ele><time>2026-04-22T10:52:06.999Z</time></trkpt><trkpt lat="42.278705701597055" lon="2.9519480074071507"><ele>32.0</ele><time>2026-04-22T10:52:07.999Z</time></trkpt><trkpt lat="42.278480182779056" lon="2.9520396500241475"><ele>32.0</ele><time>2026-04-22T10:52:08.999Z</time></trkpt><trkpt lat="42.27827289980757" lon="2.952127989371101"><ele>32.0</ele><time>2026-04-22T10:52:09.999Z</time></trkpt><trkpt lat="42.278070182868305" lon="2.952217414639465"><ele>32.0</ele><time>2026-04-22T10:52:10.999Z</time></trkpt><trkpt lat="42.2778687909186" lon="2.952311395571895"><ele>33.0</ele><time>2026-04-22T10:52:11.999Z</time></trkpt><trkpt lat="42.27766965482165" lon="2.9524024631892516"><ele>34.0</ele><time>2026-04-22T10:52:12.999Z</time></trkpt><trkpt lat="42.27747338151331" lon="2.952491224372777"><ele>35.0</ele><time>2026-04-22T10:52:13.999Z</time></trkpt><trkpt lat="42.27728148951035" lon="2.952583240482078"><ele>34.0</ele><time>2026-04-22T10:52:14.999Z</time></trkpt><trkpt lat="42.27708949154772" lon="2.9526726110051364"><ele>33.0</ele><time>2026-04-22T10:52:15.999Z</time></trkpt><trkpt lat="42.276898648980726" lon="2.9527586066592195"><ele>32.0</ele><time>2026-04-22T10:52:16.999Z</time></trkpt><trkpt lat="42.276710069595346" lon="2.952838688649701"><ele>32.0</ele><time>2026-04-22T10:52:17.999Z</time></trkpt><trkpt lat="42.27652617762511" lon="2.952915953704028"><ele>32.0</ele><time>2026-04-22T10:52:18.999Z</time></trkpt><trkpt lat="42.27635205665123" lon="2.9529908902959874"><ele>32.0</ele><time>2026-04-22T10:52:19.999Z</time></trkpt><trkpt lat="42.276178792506215" lon="2.9530723072173983"><ele>34.33333333333333</ele><time>2026-04-22T10:52:20.999Z</time></trkpt><trkpt lat="42.27600918621801" lon="2.9531529265303167"><ele>36.666666666666664</ele><time>2026-04-22T10:52:21.999Z</time></trkpt><trkpt lat="42.27584227782439" lon="2.953229846441026"><ele>39.0</ele><time>2026-04-22T10:52:22.999Z</time></trkpt><trkpt lat="42.275677346550445" lon="2.953302207837961"><ele>39.0</ele><time>2026-04-22T10:52:23.999Z</time></trkpt><trkpt lat="42.27551987378864" lon="2.95337034084397"><ele>39.0</ele><time>2026-04-22T10:52:24.999Z</time></trkpt><trkpt lat="42.27538025620307" lon="2.953424483171739"><ele>39.0</ele><time>2026-04-22T10:52:25.999Z</time></trkpt><trkpt lat="42.27525675641627" lon="2.953478286310961"><ele>39.0</ele><time>2026-04-22T10:52:26.999Z</time></trkpt><trkpt lat="42.27514140960578" lon="2.9535319478950828"><ele>39.2</ele><time>2026-04-22T10:52:27.999Z</time></trkpt><trkpt lat="42.27503093555421" lon="2.953583288221317"><ele>39.4</ele><time>2026-04-22T10:52:28.999Z</time></trkpt><trkpt lat="42.27492782974611" lon="2.9536307517349614"><ele>39.6</ele><time>2026-04-22T10:52:29.999Z</time></trkpt><trkpt lat="42.274830475302124" lon="2.953678501640174"><ele>39.8</ele><time>2026-04-22T10:52:30.999Z</time></trkpt><trkpt lat="42.2747306934071" lon="2.953726074344263"><ele>40.0</ele><time>2026-04-22T10:52:31.999Z</time></trkpt><trkpt lat="42.274630603332184" lon="2.9537750391460267"><ele>40.0</ele><time>2026-04-22T10:52:32.999Z</time></trkpt><trkpt lat="42.27453663870121" lon="2.9538135036386133"><ele>40.0</ele><time>2026-04-22T10:52:33.999Z</time></trkpt><trkpt lat="42.2744518269396" lon="2.953849629505965"><ele>40.0</ele><time>2026-04-22T10:52:34.999Z</time></trkpt><trkpt lat="42.27436435360764" lon="2.9538902801511635"><ele>40.0</ele><time>2026-04-22T10:52:35.999Z</time></trkpt><trkpt lat="42.27428229816713" lon="2.9539306636838925"><ele>40.0</ele><time>2026-04-22T10:52:36.999Z</time></trkpt><trkpt lat="42.2742027947436" lon="2.953975631125488"><ele>40.0</ele><time>2026-04-22T10:52:37.999Z</time></trkpt><trkpt lat="42.274130671212184" lon="2.9540210050497153"><ele>40.0</ele><time>2026-04-22T10:52:38.999Z</time></trkpt><trkpt lat="42.27405221497287" lon="2.954074139302936"><ele>40.0</ele><time>2026-04-22T10:52:39.999Z</time></trkpt><trkpt lat="42.2739753431414" lon="2.9541229474815216"><ele>40.0</ele><time>2026-04-22T10:52:40.999Z</time></trkpt><trkpt lat="42.2738909468747" lon="2.954181804417183"><ele>40.0</ele><time>2026-04-22T10:52:41.999Z</time></trkpt><trkpt lat="42.27380647055388" lon="2.95425870449935"><ele>40.0</ele><time>2026-04-22T10:52:42.999Z</time></trkpt><trkpt lat="42.27372101126088" lon="2.9543517386445224"><ele>40.6</ele><time>2026-04-22T10:52:43.999Z</time></trkpt><trkpt lat="42.273632356974815" lon="2.954448168574946"><ele>41.2</ele><time>2026-04-22T10:52:44.999Z</time></trkpt><trkpt lat="42.27354110543875" lon="2.9545446369380626"><ele>41.8</ele><time>2026-04-22T10:52:45.999Z</time></trkpt><trkpt lat="42.27345763463872" lon="2.9546289421881125"><ele>42.4</ele><time>2026-04-22T10:52:46.999Z</time></trkpt><trkpt lat="42.273393222349405" lon="2.954687931132352"><ele>43.0</ele><time>2026-04-22T10:52:47.999Z</time></trkpt><trkpt lat="42.27330528710307" lon="2.954756352359393"><ele>43.0</ele><time>2026-04-22T10:52:49.999Z</time></trkpt><trkpt lat="42.27322798497803" lon="2.954883561138295"><ele>43.0</ele><time>2026-04-22T10:52:56.999Z</time></trkpt><trkpt lat="42.27317645907028" lon="2.9549762558473907"><ele>43.0</ele><time>2026-04-22T10:52:57.999Z</time></trkpt><trkpt lat="42.27314494655207" lon="2.955052355859932"><ele>43.0</ele><time>2026-04-22T10:52:58.999Z</time></trkpt><trkpt lat="42.27318256011033" lon="2.955180754841834"><ele>43.0</ele><time>2026-04-22T10:53:00.999Z</time></trkpt><trkpt lat="42.27324830442732" lon="2.9552664214203106"><ele>42.5</ele><time>2026-04-22T10:53:01.998Z</time></trkpt><trkpt lat="42.27332538445272" lon="2.9553797793319254"><ele>42.0</ele><time>2026-04-22T10:53:02.998Z</time></trkpt><trkpt lat="42.27340409715941" lon="2.9555349388610823"><ele>41.5</ele><time>2026-04-22T10:53:03.998Z</time></trkpt><trkpt lat="42.27347820748841" lon="2.955666664656137"><ele>41.0</ele><time>2026-04-22T10:53:04.998Z</time></trkpt><trkpt lat="42.27353811042138" lon="2.955775984193746"><ele>39.8</ele><time>2026-04-22T10:53:05.998Z</time></trkpt><trkpt lat="42.27359289819423" lon="2.9558718600136484"><ele>38.599999999999994</ele><time>2026-04-22T10:53:06.998Z</time></trkpt><trkpt lat="42.27364221897005" lon="2.9559609325869753"><ele>37.4</ele><time>2026-04-22T10:53:07.998Z</time></trkpt><trkpt lat="42.27367736067464" lon="2.9560374804477036"><ele>36.2</ele><time>2026-04-22T10:53:08.998Z</time></trkpt><trkpt lat="42.273685454842635" lon="2.9561686116096864"><ele>35.0</ele><time>2026-04-22T10:53:10.998Z</time></trkpt><trkpt lat="42.27360232675147" lon="2.9562754499637967"><ele>35.0</ele><time>2026-04-22T10:53:12.998Z</time></trkpt><trkpt lat="42.27354187061729" lon="2.9563405777287586"><ele>35.0</ele><time>2026-04-22T10:53:13.998Z</time></trkpt><trkpt lat="42.27345957603044" lon="2.9564186163904966"><ele>35.0</ele><time>2026-04-22T10:53:14.998Z</time></trkpt><trkpt lat="42.27336691570953" lon="2.9565106627307913"><ele>35.0</ele><time>2026-04-22T10:53:15.998Z</time></trkpt><trkpt lat="42.27325897518261" lon="2.9565627579492046"><ele>35.0</ele><time>2026-04-22T10:53:16.998Z</time></trkpt><trkpt lat="42.273170004685745" lon="2.9566544271575683"><ele>35.2</ele><time>2026-04-22T10:53:17.998Z</time></trkpt><trkpt lat="42.27309698907318" lon="2.9567403867034465"><ele>35.4</ele><time>2026-04-22T10:53:18.998Z</time></trkpt><trkpt lat="42.27301549462852" lon="2.9568265636227045"><ele>35.6</ele><time>2026-04-22T10:53:19.998Z</time></trkpt><trkpt lat="42.27292400957973" lon="2.9569197178539244"><ele>35.8</ele><time>2026-04-22T10:53:20.998Z</time></trkpt><trkpt lat="42.27283053865821" lon="2.9569970746198044"><ele>36.0</ele><time>2026-04-22T10:53:21.998Z</time></trkpt><trkpt lat="42.27275275106204" lon="2.957086353145262"><ele>36.0</ele><time>2026-04-22T10:53:22.998Z</time></trkpt><trkpt lat="42.272659611338646" lon="2.957177347364157"><ele>36.0</ele><time>2026-04-22T10:53:24Z</time></trkpt><trkpt lat="42.27257641461514" lon="2.957243343412899"><ele>36.0</ele><time>2026-04-22T10:53:25Z</time></trkpt><trkpt lat="42.27251317600548" lon="2.9573093188624875"><ele>36.0</ele><time>2026-04-22T10:53:26Z</time></trkpt><trkpt lat="42.272450650971074" lon="2.9573512880084247"><ele>36.0</ele><time>2026-04-22T10:53:27Z</time></trkpt><trkpt lat="42.272334710717615" lon="2.957365722448344"><ele>36.833333333333336</ele><time>2026-04-22T10:53:29Z</time></trkpt><trkpt lat="42.2722374062492" lon="2.957225783288447"><ele>37.666666666666664</ele><time>2026-04-22T10:53:31Z</time></trkpt><trkpt lat="42.27217563536457" lon="2.9571601659802913"><ele>38.5</ele><time>2026-04-22T10:53:32Z</time></trkpt><trkpt lat="42.27211554723591" lon="2.9570947084856325"><ele>39.33333333333333</ele><time>2026-04-22T10:53:33Z</time></trkpt><trkpt lat="42.27206092335394" lon="2.957050219779157"><ele>40.166666666666664</ele><time>2026-04-22T10:53:34Z</time></trkpt><trkpt lat="42.27201119952743" lon="2.956996394727151"><ele>41.0</ele><time>2026-04-22T10:53:35Z</time></trkpt><trkpt lat="42.27196949025557" lon="2.9569265059357583"><ele>41.0</ele><time>2026-04-22T10:53:36Z</time></trkpt><trkpt lat="42.271875221679664" lon="2.95682930426676"><ele>41.0</ele><time>2026-04-22T10:53:38Z</time></trkpt><trkpt lat="42.27184653852393" lon="2.956710983750886"><ele>41.0</ele><time>2026-04-22T10:53:40Z</time></trkpt><trkpt lat="42.27164050890316" lon="2.9567771683878687"><ele>41.0</ele><time>2026-04-22T10:53:42Z</time></trkpt><trkpt lat="42.271552321943716" lon="2.9568499719930084"><ele>41.0</ele><time>2026-04-22T10:53:43Z</time></trkpt><trkpt lat="42.27144799255466" lon="2.9569380420917133"><ele>41.0</ele><time>2026-04-22T10:53:44Z</time></trkpt><trkpt lat="42.27135520351705" lon="2.9570173731828895"><ele>41.0</ele><time>2026-04-22T10:53:45Z</time></trkpt><trkpt lat="42.27126747189058" lon="2.957092340441983"><ele>41.0</ele><time>2026-04-22T10:53:46Z</time></trkpt><trkpt lat="42.27117863816459" lon="2.9571657692429776"><ele>41.0</ele><time>2026-04-22T10:53:47Z</time></trkpt><trkpt lat="42.2711040306413" lon="2.9572274388475615"><ele>41.57142857142857</ele><time>2026-04-22T10:53:48Z</time></trkpt><trkpt lat="42.2710467081266" lon="2.9572748208945137"><ele>42.14285714285714</ele><time>2026-04-22T10:53:49Z</time></trkpt><trkpt lat="42.270987089765136" lon="2.957323126480915"><ele>42.71428571428571</ele><time>2026-04-22T10:53:50Z</time></trkpt><trkpt lat="42.27091916509634" lon="2.957378247107804"><ele>43.285714285714285</ele><time>2026-04-22T10:53:51Z</time></trkpt><trkpt lat="42.27084849455835" lon="2.95743559599703"><ele>43.85714285714286</ele><time>2026-04-22T10:53:52Z</time></trkpt><trkpt lat="42.270787337863396" lon="2.9574852244348206"><ele>44.42857142857142</ele><time>2026-04-22T10:53:53Z</time></trkpt><trkpt lat="42.27073096966743" lon="2.9575309670261656"><ele>45.0</ele><time>2026-04-22T10:53:54Z</time></trkpt><trkpt lat="42.27066755408301" lon="2.95758242854656"><ele>45.0</ele><time>2026-04-22T10:53:55Z</time></trkpt><trkpt lat="42.27061204542266" lon="2.9576477188054304"><ele>45.0</ele><time>2026-04-22T10:53:56Z</time></trkpt><trkpt lat="42.27054272255625" lon="2.957709348004693"><ele>45.0</ele><time>2026-04-22T10:53:57Z</time></trkpt><trkpt lat="42.270443583070666" lon="2.9577826712232063"><ele>45.0</ele><time>2026-04-22T10:53:58Z</time></trkpt><trkpt lat="42.27032287208095" lon="2.957875209091367"><ele>45.0</ele><time>2026-04-22T10:53:59Z</time></trkpt><trkpt lat="42.270188355359" lon="2.9579745122194314"><ele>47.0</ele><time>2026-04-22T10:53:59.999Z</time></trkpt><trkpt lat="42.27008281880541" lon="2.9580823407842383"><ele>49.0</ele><time>2026-04-22T10:54:00.999Z</time></trkpt><trkpt lat="42.2699630943715" lon="2.958167924644339"><ele>51.0</ele><time>2026-04-22T10:54:01.999Z</time></trkpt><trkpt lat="42.2698464756187" lon="2.958262027433639"><ele>53.0</ele><time>2026-04-22T10:54:02.999Z</time></trkpt><trkpt lat="42.26974798747877" lon="2.9583678883054443"><ele>52.2</ele><time>2026-04-22T10:54:03.999Z</time></trkpt><trkpt lat="42.269644803191476" lon="2.9584383830831524"><ele>51.4</ele><time>2026-04-22T10:54:04.999Z</time></trkpt><trkpt lat="42.26955616431866" lon="2.958525292801649"><ele>50.6</ele><time>2026-04-22T10:54:05.999Z</time></trkpt><trkpt lat="42.26946820468534" lon="2.9585989564444035"><ele>49.800000000000004</ele><time>2026-04-22T10:54:06.999Z</time></trkpt><trkpt lat="42.269391399424784" lon="2.9586726970093973"><ele>49.0</ele><time>2026-04-22T10:54:07.999Z</time></trkpt><trkpt lat="42.26930739758558" lon="2.958742620397487"><ele>48.99999999999999</ele><time>2026-04-22T10:54:08.999Z</time></trkpt><trkpt lat="42.26922541065975" lon="2.9588040344344786"><ele>49.0</ele><time>2026-04-22T10:54:09.999Z</time></trkpt><trkpt lat="42.26915484337741" lon="2.9588654744591594"><ele>49.0</ele><time>2026-04-22T10:54:10.999Z</time></trkpt><trkpt lat="42.269091790997265" lon="2.9589175261478817"><ele>49.0</ele><time>2026-04-22T10:54:11.999Z</time></trkpt><trkpt lat="42.2690339713514" lon="2.958961945909586"><ele>48.99999999999999</ele><time>2026-04-22T10:54:12.999Z</time></trkpt><trkpt lat="42.2689731971623" lon="2.9590027347120165"><ele>49.0</ele><time>2026-04-22T10:54:14.999Z</time></trkpt><trkpt lat="42.26890994556809" lon="2.959012390167254"><ele>49.666666666666664</ele><time>2026-04-22T10:54:19.999Z</time></trkpt><trkpt lat="42.26884127716066" lon="2.959031750343762"><ele>50.33333333333333</ele><time>2026-04-22T10:54:22.999Z</time></trkpt><trkpt lat="42.26875500110065" lon="2.959039790427951"><ele>51.0</ele><time>2026-04-22T10:54:28.999Z</time></trkpt><trkpt lat="42.26868626385714" lon="2.95902155792785"><ele>51.66666666666667</ele><time>2026-04-22T10:54:30.999Z</time></trkpt><trkpt lat="42.26861261430406" lon="2.9589784048234207"><ele>52.333333333333336</ele><time>2026-04-22T10:54:32.999Z</time></trkpt><trkpt lat="42.268534706542425" lon="2.9589164302065165"><ele>53.0</ele><time>2026-04-22T10:54:34.999Z</time></trkpt><trkpt lat="42.26845807696887" lon="2.958867880299165"><ele>53.00000000000001</ele><time>2026-04-22T10:54:36.999Z</time></trkpt><trkpt lat="42.26840710880099" lon="2.958814966308913"><ele>53.0</ele><time>2026-04-22T10:54:38.999Z</time></trkpt><trkpt lat="42.26834227629713" lon="2.9587422678341304"><ele>53.0</ele><time>2026-04-22T10:54:43.999Z</time></trkpt><trkpt lat="42.268322502433556" lon="2.9586577383781107"><ele>53.0</ele><time>2026-04-22T10:54:46.999Z</time></trkpt><trkpt lat="42.26840605596253" lon="2.958543899538905"><ele>53.00000000000001</ele><time>2026-04-22T10:54:47.999Z</time></trkpt><trkpt lat="42.26834891924278" lon="2.958587804643663"><ele>53.0</ele><time>2026-04-22T10:56:39.999Z</time></trkpt><trkpt lat="42.268320816007524" lon="2.9586891358561953"><ele>53.00000000000001</ele><time>2026-04-22T10:56:47.999Z</time></trkpt><trkpt lat="42.268249691729224" lon="2.958694541728621"><ele>53.0</ele><time>2026-04-22T10:56:51.999Z</time></trkpt><trkpt lat="42.26824169712533" lon="2.9586041660024605"><ele>53.0</ele><time>2026-04-22T10:56:59.999Z</time></trkpt><trkpt lat="42.26829902603306" lon="2.958557557508051"><ele>53.0</ele><time>2026-04-22T10:57:01.999Z</time></trkpt><trkpt lat="42.26827399122837" lon="2.9586367805704255"><ele>53.00000000000001</ele><time>2026-04-22T11:00:27.413Z</time></trkpt><trkpt lat="42.26828484005222" lon="2.9584313715344446"><ele>53.0</ele><time>2026-04-22T11:03:44.993Z</time></trkpt><trkpt lat="42.26816291085983" lon="2.9583778631793756"><ele>53.0</ele><time>2026-04-22T11:03:50.001Z</time></trkpt></trkseg></trk></gpx>